<?xml version="1.0" encoding="UTF-8" standalone="no" ?>
<gpx xmlns="http://www.topografix.com/GPX/1/1" xmlns:xsi="http://www.w3.org/2001/XMLSchema-instance" xsi:schemaLocation="http://www.topografix.com/GPX/1/1 http://www.topografix.com/GPX/1/1/gpx.xsd" version="1.1" creator="VisuGPX - https://www.visugpx.com">
  <metadata>
    <name>M R T EVAUX 3</name>
    <desc><![CDATA[LES BOIS D EVAUX]]></desc>
  </metadata>
  <trk>
    <name><![CDATA[M R T EVAUX 3_1]]></name>
    <trkseg>
      <trkpt lat="46.17859" lon="2.48975">
        <ele>470</ele>
        <time>2015-04-08T12:15:51Z</time>
      </trkpt>
      <trkpt lat="46.1784" lon="2.49004">
        <ele>465</ele>
        <time>2015-04-08T12:16:17Z</time>
      </trkpt>
      <trkpt lat="46.17838" lon="2.49006">
        <ele>464</ele>
        <time>2015-04-08T12:16:19Z</time>
      </trkpt>
      <trkpt lat="46.17835" lon="2.49007">
        <ele>464</ele>
        <time>2015-04-08T12:16:21Z</time>
      </trkpt>
      <trkpt lat="46.17833" lon="2.49008">
        <ele>464</ele>
        <time>2015-04-08T12:16:23Z</time>
      </trkpt>
      <trkpt lat="46.1783" lon="2.49009">
        <ele>464</ele>
        <time>2015-04-08T12:16:25Z</time>
      </trkpt>
      <trkpt lat="46.17828" lon="2.4901">
        <ele>464</ele>
        <time>2015-04-08T12:16:27Z</time>
      </trkpt>
      <trkpt lat="46.17825" lon="2.49009">
        <ele>464</ele>
        <time>2015-04-08T12:16:29Z</time>
      </trkpt>
      <trkpt lat="46.17822" lon="2.49009">
        <ele>464</ele>
        <time>2015-04-08T12:16:31Z</time>
      </trkpt>
      <trkpt lat="46.17819" lon="2.49008">
        <ele>464</ele>
        <time>2015-04-08T12:16:33Z</time>
      </trkpt>
      <trkpt lat="46.17817" lon="2.49008">
        <ele>464</ele>
        <time>2015-04-08T12:16:35Z</time>
      </trkpt>
      <trkpt lat="46.17813" lon="2.49008">
        <ele>464</ele>
        <time>2015-04-08T12:16:38Z</time>
      </trkpt>
      <trkpt lat="46.17811" lon="2.49007">
        <ele>464</ele>
        <time>2015-04-08T12:16:40Z</time>
      </trkpt>
      <trkpt lat="46.17809" lon="2.49006">
        <ele>464</ele>
        <time>2015-04-08T12:16:42Z</time>
      </trkpt>
      <trkpt lat="46.17806" lon="2.49005">
        <ele>464</ele>
        <time>2015-04-08T12:16:44Z</time>
      </trkpt>
      <trkpt lat="46.17803" lon="2.49002">
        <ele>466</ele>
        <time>2015-04-08T12:16:46Z</time>
      </trkpt>
      <trkpt lat="46.178" lon="2.48999">
        <ele>469</ele>
        <time>2015-04-08T12:16:49Z</time>
      </trkpt>
      <trkpt lat="46.17799" lon="2.48998">
        <ele>471</ele>
        <time>2015-04-08T12:16:51Z</time>
      </trkpt>
      <trkpt lat="46.17797" lon="2.48996">
        <ele>472</ele>
        <time>2015-04-08T12:16:53Z</time>
      </trkpt>
      <trkpt lat="46.17796" lon="2.48993">
        <ele>473</ele>
        <time>2015-04-08T12:16:55Z</time>
      </trkpt>
      <trkpt lat="46.17795" lon="2.4899">
        <ele>473</ele>
        <time>2015-04-08T12:16:57Z</time>
      </trkpt>
      <trkpt lat="46.17794" lon="2.48985">
        <ele>473</ele>
        <time>2015-04-08T12:17:00Z</time>
      </trkpt>
      <trkpt lat="46.17793" lon="2.48983">
        <ele>472</ele>
        <time>2015-04-08T12:17:02Z</time>
      </trkpt>
      <trkpt lat="46.17792" lon="2.48981">
        <ele>470</ele>
        <time>2015-04-08T12:17:04Z</time>
      </trkpt>
      <trkpt lat="46.17791" lon="2.48979">
        <ele>469</ele>
        <time>2015-04-08T12:17:06Z</time>
      </trkpt>
      <trkpt lat="46.17791" lon="2.48977">
        <ele>468</ele>
        <time>2015-04-08T12:17:08Z</time>
      </trkpt>
      <trkpt lat="46.1779" lon="2.48974">
        <ele>467</ele>
        <time>2015-04-08T12:17:10Z</time>
      </trkpt>
      <trkpt lat="46.1779" lon="2.48972">
        <ele>466</ele>
        <time>2015-04-08T12:17:12Z</time>
      </trkpt>
      <trkpt lat="46.17789" lon="2.4897">
        <ele>465</ele>
        <time>2015-04-08T12:17:14Z</time>
      </trkpt>
      <trkpt lat="46.17791" lon="2.48967">
        <ele>464</ele>
        <time>2015-04-08T12:17:16Z</time>
      </trkpt>
      <trkpt lat="46.17793" lon="2.48963">
        <ele>462</ele>
        <time>2015-04-08T12:17:18Z</time>
      </trkpt>
      <trkpt lat="46.17795" lon="2.4896">
        <ele>460</ele>
        <time>2015-04-08T12:17:20Z</time>
      </trkpt>
      <trkpt lat="46.17795" lon="2.48957">
        <ele>459</ele>
        <time>2015-04-08T12:17:22Z</time>
      </trkpt>
      <trkpt lat="46.17796" lon="2.48955">
        <ele>458</ele>
        <time>2015-04-08T12:17:24Z</time>
      </trkpt>
      <trkpt lat="46.17794" lon="2.48951">
        <ele>458</ele>
        <time>2015-04-08T12:17:26Z</time>
      </trkpt>
      <trkpt lat="46.17794" lon="2.48948">
        <ele>458</ele>
        <time>2015-04-08T12:17:28Z</time>
      </trkpt>
      <trkpt lat="46.17793" lon="2.48944">
        <ele>458</ele>
        <time>2015-04-08T12:17:30Z</time>
      </trkpt>
      <trkpt lat="46.17792" lon="2.4894">
        <ele>458</ele>
        <time>2015-04-08T12:17:32Z</time>
      </trkpt>
      <trkpt lat="46.17791" lon="2.48937">
        <ele>458</ele>
        <time>2015-04-08T12:17:34Z</time>
      </trkpt>
      <trkpt lat="46.17792" lon="2.48934">
        <ele>458</ele>
        <time>2015-04-08T12:17:36Z</time>
      </trkpt>
      <trkpt lat="46.17792" lon="2.4893">
        <ele>458</ele>
        <time>2015-04-08T12:17:38Z</time>
      </trkpt>
      <trkpt lat="46.17791" lon="2.48926">
        <ele>458</ele>
        <time>2015-04-08T12:17:40Z</time>
      </trkpt>
      <trkpt lat="46.1779" lon="2.48922">
        <ele>458</ele>
        <time>2015-04-08T12:17:43Z</time>
      </trkpt>
      <trkpt lat="46.17788" lon="2.4892">
        <ele>458</ele>
        <time>2015-04-08T12:17:45Z</time>
      </trkpt>
      <trkpt lat="46.17788" lon="2.48917">
        <ele>458</ele>
        <time>2015-04-08T12:17:47Z</time>
      </trkpt>
      <trkpt lat="46.17786" lon="2.48915">
        <ele>458</ele>
        <time>2015-04-08T12:17:49Z</time>
      </trkpt>
      <trkpt lat="46.17785" lon="2.4891">
        <ele>458</ele>
        <time>2015-04-08T12:17:52Z</time>
      </trkpt>
      <trkpt lat="46.17785" lon="2.48907">
        <ele>458</ele>
        <time>2015-04-08T12:17:54Z</time>
      </trkpt>
      <trkpt lat="46.17784" lon="2.48904">
        <ele>458</ele>
        <time>2015-04-08T12:17:56Z</time>
      </trkpt>
      <trkpt lat="46.17783" lon="2.489">
        <ele>458</ele>
        <time>2015-04-08T12:17:59Z</time>
      </trkpt>
      <trkpt lat="46.17783" lon="2.48897">
        <ele>458</ele>
        <time>2015-04-08T12:18:01Z</time>
      </trkpt>
      <trkpt lat="46.17782" lon="2.48895">
        <ele>458</ele>
        <time>2015-04-08T12:18:03Z</time>
      </trkpt>
      <trkpt lat="46.17781" lon="2.48891">
        <ele>458</ele>
        <time>2015-04-08T12:18:05Z</time>
      </trkpt>
      <trkpt lat="46.17779" lon="2.48888">
        <ele>458</ele>
        <time>2015-04-08T12:18:07Z</time>
      </trkpt>
      <trkpt lat="46.17778" lon="2.48885">
        <ele>458</ele>
        <time>2015-04-08T12:18:09Z</time>
      </trkpt>
      <trkpt lat="46.17777" lon="2.48883">
        <ele>458</ele>
        <time>2015-04-08T12:18:11Z</time>
      </trkpt>
      <trkpt lat="46.17775" lon="2.4888">
        <ele>458</ele>
        <time>2015-04-08T12:18:13Z</time>
      </trkpt>
      <trkpt lat="46.17773" lon="2.48878">
        <ele>458</ele>
        <time>2015-04-08T12:18:15Z</time>
      </trkpt>
      <trkpt lat="46.17772" lon="2.48875">
        <ele>458</ele>
        <time>2015-04-08T12:18:17Z</time>
      </trkpt>
      <trkpt lat="46.17769" lon="2.48872">
        <ele>458</ele>
        <time>2015-04-08T12:18:19Z</time>
      </trkpt>
      <trkpt lat="46.17767" lon="2.4887">
        <ele>458</ele>
        <time>2015-04-08T12:18:21Z</time>
      </trkpt>
      <trkpt lat="46.17766" lon="2.48868">
        <ele>458</ele>
        <time>2015-04-08T12:18:23Z</time>
      </trkpt>
      <trkpt lat="46.17764" lon="2.48866">
        <ele>458</ele>
        <time>2015-04-08T12:18:25Z</time>
      </trkpt>
      <trkpt lat="46.17762" lon="2.48864">
        <ele>458</ele>
        <time>2015-04-08T12:18:27Z</time>
      </trkpt>
      <trkpt lat="46.1776" lon="2.48862">
        <ele>458</ele>
        <time>2015-04-08T12:18:29Z</time>
      </trkpt>
      <trkpt lat="46.17759" lon="2.48859">
        <ele>458</ele>
        <time>2015-04-08T12:18:31Z</time>
      </trkpt>
      <trkpt lat="46.17757" lon="2.48857">
        <ele>458</ele>
        <time>2015-04-08T12:18:33Z</time>
      </trkpt>
      <trkpt lat="46.17756" lon="2.48855">
        <ele>458</ele>
        <time>2015-04-08T12:18:35Z</time>
      </trkpt>
      <trkpt lat="46.17754" lon="2.48853">
        <ele>458</ele>
        <time>2015-04-08T12:18:37Z</time>
      </trkpt>
      <trkpt lat="46.17752" lon="2.48851">
        <ele>458</ele>
        <time>2015-04-08T12:18:39Z</time>
      </trkpt>
      <trkpt lat="46.17751" lon="2.48848">
        <ele>458</ele>
        <time>2015-04-08T12:18:41Z</time>
      </trkpt>
      <trkpt lat="46.17748" lon="2.48846">
        <ele>458</ele>
        <time>2015-04-08T12:18:43Z</time>
      </trkpt>
      <trkpt lat="46.17746" lon="2.48844">
        <ele>458</ele>
        <time>2015-04-08T12:18:45Z</time>
      </trkpt>
      <trkpt lat="46.17744" lon="2.48842">
        <ele>458</ele>
        <time>2015-04-08T12:18:47Z</time>
      </trkpt>
      <trkpt lat="46.17741" lon="2.48837">
        <ele>458</ele>
        <time>2015-04-08T12:18:51Z</time>
      </trkpt>
      <trkpt lat="46.1774" lon="2.48835">
        <ele>458</ele>
        <time>2015-04-08T12:18:53Z</time>
      </trkpt>
      <trkpt lat="46.17739" lon="2.48833">
        <ele>458</ele>
        <time>2015-04-08T12:18:55Z</time>
      </trkpt>
      <trkpt lat="46.17737" lon="2.48832">
        <ele>458</ele>
        <time>2015-04-08T12:18:57Z</time>
      </trkpt>
      <trkpt lat="46.17736" lon="2.4883">
        <ele>458</ele>
        <time>2015-04-08T12:18:59Z</time>
      </trkpt>
      <trkpt lat="46.17734" lon="2.48827">
        <ele>458</ele>
        <time>2015-04-08T12:19:01Z</time>
      </trkpt>
      <trkpt lat="46.17733" lon="2.48824">
        <ele>458</ele>
        <time>2015-04-08T12:19:03Z</time>
      </trkpt>
      <trkpt lat="46.17731" lon="2.48822">
        <ele>458</ele>
        <time>2015-04-08T12:19:05Z</time>
      </trkpt>
      <trkpt lat="46.1773" lon="2.48819">
        <ele>457</ele>
        <time>2015-04-08T12:19:07Z</time>
      </trkpt>
      <trkpt lat="46.17728" lon="2.48817">
        <ele>457</ele>
        <time>2015-04-08T12:19:09Z</time>
      </trkpt>
      <trkpt lat="46.17728" lon="2.48814">
        <ele>457</ele>
        <time>2015-04-08T12:19:11Z</time>
      </trkpt>
      <trkpt lat="46.17728" lon="2.48811">
        <ele>456</ele>
        <time>2015-04-08T12:19:13Z</time>
      </trkpt>
      <trkpt lat="46.1773" lon="2.48808">
        <ele>455</ele>
        <time>2015-04-08T12:19:15Z</time>
      </trkpt>
      <trkpt lat="46.17731" lon="2.48804">
        <ele>454</ele>
        <time>2015-04-08T12:19:17Z</time>
      </trkpt>
      <trkpt lat="46.17731" lon="2.488">
        <ele>454</ele>
        <time>2015-04-08T12:19:19Z</time>
      </trkpt>
      <trkpt lat="46.1773" lon="2.48797">
        <ele>454</ele>
        <time>2015-04-08T12:19:21Z</time>
      </trkpt>
      <trkpt lat="46.1773" lon="2.48795">
        <ele>454</ele>
        <time>2015-04-08T12:19:23Z</time>
      </trkpt>
      <trkpt lat="46.1773" lon="2.48791">
        <ele>454</ele>
        <time>2015-04-08T12:19:25Z</time>
      </trkpt>
      <trkpt lat="46.17729" lon="2.48789">
        <ele>454</ele>
        <time>2015-04-08T12:19:27Z</time>
      </trkpt>
      <trkpt lat="46.17728" lon="2.48786">
        <ele>454</ele>
        <time>2015-04-08T12:19:29Z</time>
      </trkpt>
      <trkpt lat="46.17726" lon="2.48781">
        <ele>454</ele>
        <time>2015-04-08T12:19:32Z</time>
      </trkpt>
      <trkpt lat="46.17725" lon="2.48779">
        <ele>454</ele>
        <time>2015-04-08T12:19:34Z</time>
      </trkpt>
      <trkpt lat="46.17725" lon="2.48774">
        <ele>454</ele>
        <time>2015-04-08T12:19:37Z</time>
      </trkpt>
      <trkpt lat="46.17724" lon="2.48771">
        <ele>454</ele>
        <time>2015-04-08T12:19:39Z</time>
      </trkpt>
      <trkpt lat="46.17723" lon="2.48768">
        <ele>454</ele>
        <time>2015-04-08T12:19:41Z</time>
      </trkpt>
      <trkpt lat="46.17722" lon="2.48765">
        <ele>454</ele>
        <time>2015-04-08T12:19:43Z</time>
      </trkpt>
      <trkpt lat="46.17722" lon="2.48762">
        <ele>454</ele>
        <time>2015-04-08T12:19:45Z</time>
      </trkpt>
      <trkpt lat="46.17721" lon="2.48758">
        <ele>454</ele>
        <time>2015-04-08T12:19:47Z</time>
      </trkpt>
      <trkpt lat="46.17721" lon="2.48755">
        <ele>454</ele>
        <time>2015-04-08T12:19:49Z</time>
      </trkpt>
      <trkpt lat="46.1772" lon="2.48751">
        <ele>454</ele>
        <time>2015-04-08T12:19:51Z</time>
      </trkpt>
      <trkpt lat="46.17719" lon="2.48746">
        <ele>454</ele>
        <time>2015-04-08T12:19:54Z</time>
      </trkpt>
      <trkpt lat="46.17718" lon="2.48744">
        <ele>454</ele>
        <time>2015-04-08T12:19:56Z</time>
      </trkpt>
      <trkpt lat="46.17717" lon="2.48741">
        <ele>454</ele>
        <time>2015-04-08T12:19:58Z</time>
      </trkpt>
      <trkpt lat="46.17716" lon="2.48738">
        <ele>454</ele>
        <time>2015-04-08T12:20:00Z</time>
      </trkpt>
      <trkpt lat="46.17715" lon="2.48736">
        <ele>454</ele>
        <time>2015-04-08T12:20:02Z</time>
      </trkpt>
      <trkpt lat="46.17714" lon="2.48734">
        <ele>454</ele>
        <time>2015-04-08T12:20:04Z</time>
      </trkpt>
      <trkpt lat="46.17712" lon="2.48732">
        <ele>454</ele>
        <time>2015-04-08T12:20:06Z</time>
      </trkpt>
      <trkpt lat="46.1771" lon="2.48729">
        <ele>454</ele>
        <time>2015-04-08T12:20:08Z</time>
      </trkpt>
      <trkpt lat="46.17709" lon="2.48727">
        <ele>454</ele>
        <time>2015-04-08T12:20:10Z</time>
      </trkpt>
      <trkpt lat="46.17708" lon="2.48724">
        <ele>454</ele>
        <time>2015-04-08T12:20:12Z</time>
      </trkpt>
      <trkpt lat="46.17707" lon="2.48722">
        <ele>454</ele>
        <time>2015-04-08T12:20:14Z</time>
      </trkpt>
      <trkpt lat="46.17707" lon="2.4872">
        <ele>454</ele>
        <time>2015-04-08T12:20:16Z</time>
      </trkpt>
      <trkpt lat="46.17705" lon="2.48717">
        <ele>454</ele>
        <time>2015-04-08T12:20:18Z</time>
      </trkpt>
      <trkpt lat="46.17704" lon="2.48714">
        <ele>454</ele>
        <time>2015-04-08T12:20:20Z</time>
      </trkpt>
      <trkpt lat="46.17703" lon="2.48712">
        <ele>454</ele>
        <time>2015-04-08T12:20:22Z</time>
      </trkpt>
      <trkpt lat="46.17701" lon="2.48708">
        <ele>454</ele>
        <time>2015-04-08T12:20:25Z</time>
      </trkpt>
      <trkpt lat="46.17701" lon="2.48707">
        <ele>454</ele>
        <time>2015-04-08T12:20:28Z</time>
      </trkpt>
      <trkpt lat="46.17701" lon="2.48704">
        <ele>454</ele>
        <time>2015-04-08T12:20:30Z</time>
      </trkpt>
      <trkpt lat="46.17701" lon="2.48701">
        <ele>454</ele>
        <time>2015-04-08T12:20:32Z</time>
      </trkpt>
      <trkpt lat="46.177" lon="2.48698">
        <ele>454</ele>
        <time>2015-04-08T12:20:34Z</time>
      </trkpt>
      <trkpt lat="46.177" lon="2.48695">
        <ele>454</ele>
        <time>2015-04-08T12:20:36Z</time>
      </trkpt>
      <trkpt lat="46.177" lon="2.48692">
        <ele>454</ele>
        <time>2015-04-08T12:20:38Z</time>
      </trkpt>
      <trkpt lat="46.177" lon="2.48689">
        <ele>454</ele>
        <time>2015-04-08T12:20:40Z</time>
      </trkpt>
      <trkpt lat="46.177" lon="2.48686">
        <ele>454</ele>
        <time>2015-04-08T12:20:42Z</time>
      </trkpt>
      <trkpt lat="46.177" lon="2.48683">
        <ele>454</ele>
        <time>2015-04-08T12:20:44Z</time>
      </trkpt>
      <trkpt lat="46.177" lon="2.48679">
        <ele>454</ele>
        <time>2015-04-08T12:20:46Z</time>
      </trkpt>
      <trkpt lat="46.177" lon="2.48676">
        <ele>454</ele>
        <time>2015-04-08T12:20:48Z</time>
      </trkpt>
      <trkpt lat="46.177" lon="2.48673">
        <ele>454</ele>
        <time>2015-04-08T12:20:50Z</time>
      </trkpt>
      <trkpt lat="46.17701" lon="2.4867">
        <ele>454</ele>
        <time>2015-04-08T12:20:52Z</time>
      </trkpt>
      <trkpt lat="46.17701" lon="2.48667">
        <ele>454</ele>
        <time>2015-04-08T12:20:54Z</time>
      </trkpt>
      <trkpt lat="46.17701" lon="2.48664">
        <ele>454</ele>
        <time>2015-04-08T12:20:56Z</time>
      </trkpt>
      <trkpt lat="46.17701" lon="2.48661">
        <ele>454</ele>
        <time>2015-04-08T12:20:58Z</time>
      </trkpt>
      <trkpt lat="46.17701" lon="2.48658">
        <ele>454</ele>
        <time>2015-04-08T12:21:00Z</time>
      </trkpt>
      <trkpt lat="46.17701" lon="2.48654">
        <ele>454</ele>
        <time>2015-04-08T12:21:02Z</time>
      </trkpt>
      <trkpt lat="46.17701" lon="2.48651">
        <ele>454</ele>
        <time>2015-04-08T12:21:04Z</time>
      </trkpt>
      <trkpt lat="46.17701" lon="2.48648">
        <ele>454</ele>
        <time>2015-04-08T12:21:06Z</time>
      </trkpt>
      <trkpt lat="46.17702" lon="2.48645">
        <ele>454</ele>
        <time>2015-04-08T12:21:08Z</time>
      </trkpt>
      <trkpt lat="46.17702" lon="2.48641">
        <ele>454</ele>
        <time>2015-04-08T12:21:10Z</time>
      </trkpt>
      <trkpt lat="46.17702" lon="2.48638">
        <ele>454</ele>
        <time>2015-04-08T12:21:12Z</time>
      </trkpt>
      <trkpt lat="46.17702" lon="2.48635">
        <ele>454</ele>
        <time>2015-04-08T12:21:14Z</time>
      </trkpt>
      <trkpt lat="46.17702" lon="2.48631">
        <ele>454</ele>
        <time>2015-04-08T12:21:16Z</time>
      </trkpt>
      <trkpt lat="46.17702" lon="2.48628">
        <ele>454</ele>
        <time>2015-04-08T12:21:18Z</time>
      </trkpt>
      <trkpt lat="46.17703" lon="2.48625">
        <ele>454</ele>
        <time>2015-04-08T12:21:20Z</time>
      </trkpt>
      <trkpt lat="46.17703" lon="2.48622">
        <ele>454</ele>
        <time>2015-04-08T12:21:22Z</time>
      </trkpt>
      <trkpt lat="46.17704" lon="2.48619">
        <ele>454</ele>
        <time>2015-04-08T12:21:24Z</time>
      </trkpt>
      <trkpt lat="46.17704" lon="2.48616">
        <ele>454</ele>
        <time>2015-04-08T12:21:26Z</time>
      </trkpt>
      <trkpt lat="46.17704" lon="2.48613">
        <ele>454</ele>
        <time>2015-04-08T12:21:28Z</time>
      </trkpt>
      <trkpt lat="46.17704" lon="2.48608">
        <ele>454</ele>
        <time>2015-04-08T12:21:31Z</time>
      </trkpt>
      <trkpt lat="46.17705" lon="2.48605">
        <ele>454</ele>
        <time>2015-04-08T12:21:33Z</time>
      </trkpt>
      <trkpt lat="46.17706" lon="2.48603">
        <ele>454</ele>
        <time>2015-04-08T12:21:35Z</time>
      </trkpt>
      <trkpt lat="46.17706" lon="2.486">
        <ele>454</ele>
        <time>2015-04-08T12:21:37Z</time>
      </trkpt>
      <trkpt lat="46.17706" lon="2.48597">
        <ele>454</ele>
        <time>2015-04-08T12:21:39Z</time>
      </trkpt>
      <trkpt lat="46.17707" lon="2.48594">
        <ele>454</ele>
        <time>2015-04-08T12:21:41Z</time>
      </trkpt>
      <trkpt lat="46.17706" lon="2.48592">
        <ele>454</ele>
        <time>2015-04-08T12:21:43Z</time>
      </trkpt>
      <trkpt lat="46.17705" lon="2.48589">
        <ele>454</ele>
        <time>2015-04-08T12:21:45Z</time>
      </trkpt>
      <trkpt lat="46.17704" lon="2.48586">
        <ele>454</ele>
        <time>2015-04-08T12:21:48Z</time>
      </trkpt>
      <trkpt lat="46.17701" lon="2.48584">
        <ele>454</ele>
        <time>2015-04-08T12:21:50Z</time>
      </trkpt>
      <trkpt lat="46.17698" lon="2.48582">
        <ele>454</ele>
        <time>2015-04-08T12:21:53Z</time>
      </trkpt>
      <trkpt lat="46.17697" lon="2.4858">
        <ele>454</ele>
        <time>2015-04-08T12:21:55Z</time>
      </trkpt>
      <trkpt lat="46.17695" lon="2.48578">
        <ele>454</ele>
        <time>2015-04-08T12:21:57Z</time>
      </trkpt>
      <trkpt lat="46.17693" lon="2.48576">
        <ele>454</ele>
        <time>2015-04-08T12:21:59Z</time>
      </trkpt>
      <trkpt lat="46.17691" lon="2.48575">
        <ele>454</ele>
        <time>2015-04-08T12:22:01Z</time>
      </trkpt>
      <trkpt lat="46.17689" lon="2.48573">
        <ele>454</ele>
        <time>2015-04-08T12:22:03Z</time>
      </trkpt>
      <trkpt lat="46.17686" lon="2.48573">
        <ele>455</ele>
        <time>2015-04-08T12:22:16Z</time>
      </trkpt>
      <trkpt lat="46.17685" lon="2.48573">
        <ele>455</ele>
        <time>2015-04-08T12:22:18Z</time>
      </trkpt>
      <trkpt lat="46.17683" lon="2.48571">
        <ele>455</ele>
        <time>2015-04-08T12:22:20Z</time>
      </trkpt>
      <trkpt lat="46.17682" lon="2.4857">
        <ele>455</ele>
        <time>2015-04-08T12:22:22Z</time>
      </trkpt>
      <trkpt lat="46.1768" lon="2.48569">
        <ele>455</ele>
        <time>2015-04-08T12:22:24Z</time>
      </trkpt>
      <trkpt lat="46.17678" lon="2.48569">
        <ele>455</ele>
        <time>2015-04-08T12:22:26Z</time>
      </trkpt>
      <trkpt lat="46.17677" lon="2.48568">
        <ele>455</ele>
        <time>2015-04-08T12:22:28Z</time>
      </trkpt>
      <trkpt lat="46.17675" lon="2.48566">
        <ele>455</ele>
        <time>2015-04-08T12:22:30Z</time>
      </trkpt>
      <trkpt lat="46.17673" lon="2.48566">
        <ele>455</ele>
        <time>2015-04-08T12:22:32Z</time>
      </trkpt>
      <trkpt lat="46.17671" lon="2.48565">
        <ele>456</ele>
        <time>2015-04-08T12:22:34Z</time>
      </trkpt>
      <trkpt lat="46.17669" lon="2.48565">
        <ele>456</ele>
        <time>2015-04-08T12:22:36Z</time>
      </trkpt>
      <trkpt lat="46.17666" lon="2.48561">
        <ele>456</ele>
        <time>2015-04-08T12:22:39Z</time>
      </trkpt>
      <trkpt lat="46.17664" lon="2.4856">
        <ele>456</ele>
        <time>2015-04-08T12:22:41Z</time>
      </trkpt>
      <trkpt lat="46.17662" lon="2.48558">
        <ele>456</ele>
        <time>2015-04-08T12:22:43Z</time>
      </trkpt>
      <trkpt lat="46.17659" lon="2.48556">
        <ele>456</ele>
        <time>2015-04-08T12:22:46Z</time>
      </trkpt>
      <trkpt lat="46.17656" lon="2.48555">
        <ele>456</ele>
        <time>2015-04-08T12:22:48Z</time>
      </trkpt>
      <trkpt lat="46.17654" lon="2.48552">
        <ele>456</ele>
        <time>2015-04-08T12:22:51Z</time>
      </trkpt>
      <trkpt lat="46.17652" lon="2.48551">
        <ele>456</ele>
        <time>2015-04-08T12:22:53Z</time>
      </trkpt>
      <trkpt lat="46.1765" lon="2.4855">
        <ele>456</ele>
        <time>2015-04-08T12:22:55Z</time>
      </trkpt>
      <trkpt lat="46.17649" lon="2.48548">
        <ele>456</ele>
        <time>2015-04-08T12:23:05Z</time>
      </trkpt>
      <trkpt lat="46.17647" lon="2.48547">
        <ele>456</ele>
        <time>2015-04-08T12:23:07Z</time>
      </trkpt>
      <trkpt lat="46.17645" lon="2.48546">
        <ele>456</ele>
        <time>2015-04-08T12:23:09Z</time>
      </trkpt>
      <trkpt lat="46.17642" lon="2.48546">
        <ele>456</ele>
        <time>2015-04-08T12:23:11Z</time>
      </trkpt>
      <trkpt lat="46.1764" lon="2.48546">
        <ele>456</ele>
        <time>2015-04-08T12:23:13Z</time>
      </trkpt>
      <trkpt lat="46.17637" lon="2.48545">
        <ele>456</ele>
        <time>2015-04-08T12:23:15Z</time>
      </trkpt>
      <trkpt lat="46.17634" lon="2.48544">
        <ele>457</ele>
        <time>2015-04-08T12:23:17Z</time>
      </trkpt>
      <trkpt lat="46.17631" lon="2.48545">
        <ele>457</ele>
        <time>2015-04-08T12:23:19Z</time>
      </trkpt>
      <trkpt lat="46.17628" lon="2.48544">
        <ele>458</ele>
        <time>2015-04-08T12:23:21Z</time>
      </trkpt>
      <trkpt lat="46.17625" lon="2.48544">
        <ele>458</ele>
        <time>2015-04-08T12:23:23Z</time>
      </trkpt>
      <trkpt lat="46.17622" lon="2.48543">
        <ele>458</ele>
        <time>2015-04-08T12:23:25Z</time>
      </trkpt>
      <trkpt lat="46.17619" lon="2.48543">
        <ele>458</ele>
        <time>2015-04-08T12:23:27Z</time>
      </trkpt>
      <trkpt lat="46.17616" lon="2.48543">
        <ele>458</ele>
        <time>2015-04-08T12:23:29Z</time>
      </trkpt>
      <trkpt lat="46.17613" lon="2.48543">
        <ele>458</ele>
        <time>2015-04-08T12:23:31Z</time>
      </trkpt>
      <trkpt lat="46.1761" lon="2.48543">
        <ele>459</ele>
        <time>2015-04-08T12:23:33Z</time>
      </trkpt>
      <trkpt lat="46.17606" lon="2.48542">
        <ele>460</ele>
        <time>2015-04-08T12:23:35Z</time>
      </trkpt>
      <trkpt lat="46.17603" lon="2.4854">
        <ele>461</ele>
        <time>2015-04-08T12:23:37Z</time>
      </trkpt>
      <trkpt lat="46.17601" lon="2.4854">
        <ele>461</ele>
        <time>2015-04-08T12:23:39Z</time>
      </trkpt>
      <trkpt lat="46.176" lon="2.48539">
        <ele>462</ele>
        <time>2015-04-08T12:23:41Z</time>
      </trkpt>
      <trkpt lat="46.17597" lon="2.48537">
        <ele>462</ele>
        <time>2015-04-08T12:23:43Z</time>
      </trkpt>
      <trkpt lat="46.17593" lon="2.48535">
        <ele>464</ele>
        <time>2015-04-08T12:23:46Z</time>
      </trkpt>
      <trkpt lat="46.17592" lon="2.48534">
        <ele>465</ele>
        <time>2015-04-08T12:23:48Z</time>
      </trkpt>
      <trkpt lat="46.1759" lon="2.48532">
        <ele>467</ele>
        <time>2015-04-08T12:23:50Z</time>
      </trkpt>
      <trkpt lat="46.17587" lon="2.48531">
        <ele>469</ele>
        <time>2015-04-08T12:23:52Z</time>
      </trkpt>
      <trkpt lat="46.17586" lon="2.48531">
        <ele>471</ele>
        <time>2015-04-08T12:23:54Z</time>
      </trkpt>
      <trkpt lat="46.17583" lon="2.48529">
        <ele>472</ele>
        <time>2015-04-08T12:23:58Z</time>
      </trkpt>
      <trkpt lat="46.1758" lon="2.48533">
        <ele>472</ele>
        <time>2015-04-08T12:24:00Z</time>
      </trkpt>
      <trkpt lat="46.17576" lon="2.48535">
        <ele>472</ele>
        <time>2015-04-08T12:24:03Z</time>
      </trkpt>
      <trkpt lat="46.17573" lon="2.48534">
        <ele>472</ele>
        <time>2015-04-08T12:24:06Z</time>
      </trkpt>
      <trkpt lat="46.1757" lon="2.48535">
        <ele>472</ele>
        <time>2015-04-08T12:24:08Z</time>
      </trkpt>
      <trkpt lat="46.17567" lon="2.48535">
        <ele>472</ele>
        <time>2015-04-08T12:24:11Z</time>
      </trkpt>
      <trkpt lat="46.17564" lon="2.48536">
        <ele>472</ele>
        <time>2015-04-08T12:24:13Z</time>
      </trkpt>
      <trkpt lat="46.1756" lon="2.48538">
        <ele>472</ele>
        <time>2015-04-08T12:24:15Z</time>
      </trkpt>
      <trkpt lat="46.17556" lon="2.48539">
        <ele>472</ele>
        <time>2015-04-08T12:24:17Z</time>
      </trkpt>
      <trkpt lat="46.17553" lon="2.4854">
        <ele>472</ele>
        <time>2015-04-08T12:24:19Z</time>
      </trkpt>
      <trkpt lat="46.17548" lon="2.48541">
        <ele>472</ele>
        <time>2015-04-08T12:24:21Z</time>
      </trkpt>
      <trkpt lat="46.17545" lon="2.48541">
        <ele>472</ele>
        <time>2015-04-08T12:24:23Z</time>
      </trkpt>
      <trkpt lat="46.17542" lon="2.48541">
        <ele>472</ele>
        <time>2015-04-08T12:24:25Z</time>
      </trkpt>
      <trkpt lat="46.17538" lon="2.48541">
        <ele>472</ele>
        <time>2015-04-08T12:24:29Z</time>
      </trkpt>
      <trkpt lat="46.17536" lon="2.4854">
        <ele>472</ele>
        <time>2015-04-08T12:24:31Z</time>
      </trkpt>
      <trkpt lat="46.17533" lon="2.48538">
        <ele>472</ele>
        <time>2015-04-08T12:24:33Z</time>
      </trkpt>
      <trkpt lat="46.17531" lon="2.48539">
        <ele>472</ele>
        <time>2015-04-08T12:24:35Z</time>
      </trkpt>
      <trkpt lat="46.17529" lon="2.48539">
        <ele>472</ele>
        <time>2015-04-08T12:24:37Z</time>
      </trkpt>
      <trkpt lat="46.17525" lon="2.48537">
        <ele>472</ele>
        <time>2015-04-08T12:24:39Z</time>
      </trkpt>
      <trkpt lat="46.17522" lon="2.48535">
        <ele>472</ele>
        <time>2015-04-08T12:24:41Z</time>
      </trkpt>
      <trkpt lat="46.17519" lon="2.48537">
        <ele>471</ele>
        <time>2015-04-08T12:24:43Z</time>
      </trkpt>
      <trkpt lat="46.17516" lon="2.48537">
        <ele>470</ele>
        <time>2015-04-08T12:24:45Z</time>
      </trkpt>
      <trkpt lat="46.17513" lon="2.48536">
        <ele>470</ele>
        <time>2015-04-08T12:24:47Z</time>
      </trkpt>
      <trkpt lat="46.17509" lon="2.48536">
        <ele>469</ele>
        <time>2015-04-08T12:24:49Z</time>
      </trkpt>
      <trkpt lat="46.17506" lon="2.48535">
        <ele>468</ele>
        <time>2015-04-08T12:24:51Z</time>
      </trkpt>
      <trkpt lat="46.17503" lon="2.48534">
        <ele>468</ele>
        <time>2015-04-08T12:24:53Z</time>
      </trkpt>
      <trkpt lat="46.17499" lon="2.48534">
        <ele>467</ele>
        <time>2015-04-08T12:24:55Z</time>
      </trkpt>
      <trkpt lat="46.17496" lon="2.48532">
        <ele>467</ele>
        <time>2015-04-08T12:24:58Z</time>
      </trkpt>
      <trkpt lat="46.17495" lon="2.48531">
        <ele>466</ele>
        <time>2015-04-08T12:25:00Z</time>
      </trkpt>
      <trkpt lat="46.17491" lon="2.4853">
        <ele>465</ele>
        <time>2015-04-08T12:25:03Z</time>
      </trkpt>
      <trkpt lat="46.17489" lon="2.4853">
        <ele>464</ele>
        <time>2015-04-08T12:25:05Z</time>
      </trkpt>
      <trkpt lat="46.17486" lon="2.48529">
        <ele>464</ele>
        <time>2015-04-08T12:25:07Z</time>
      </trkpt>
      <trkpt lat="46.17484" lon="2.48529">
        <ele>463</ele>
        <time>2015-04-08T12:25:09Z</time>
      </trkpt>
      <trkpt lat="46.17481" lon="2.4853">
        <ele>463</ele>
        <time>2015-04-08T12:25:13Z</time>
      </trkpt>
      <trkpt lat="46.17479" lon="2.4853">
        <ele>463</ele>
        <time>2015-04-08T12:25:15Z</time>
      </trkpt>
      <trkpt lat="46.17475" lon="2.4853">
        <ele>463</ele>
        <time>2015-04-08T12:25:17Z</time>
      </trkpt>
      <trkpt lat="46.17472" lon="2.48529">
        <ele>463</ele>
        <time>2015-04-08T12:25:19Z</time>
      </trkpt>
      <trkpt lat="46.17469" lon="2.48528">
        <ele>463</ele>
        <time>2015-04-08T12:25:22Z</time>
      </trkpt>
      <trkpt lat="46.17466" lon="2.48529">
        <ele>463</ele>
        <time>2015-04-08T12:25:24Z</time>
      </trkpt>
      <trkpt lat="46.17463" lon="2.48531">
        <ele>463</ele>
        <time>2015-04-08T12:25:26Z</time>
      </trkpt>
      <trkpt lat="46.17458" lon="2.48532">
        <ele>463</ele>
        <time>2015-04-08T12:25:28Z</time>
      </trkpt>
      <trkpt lat="46.17454" lon="2.48534">
        <ele>463</ele>
        <time>2015-04-08T12:25:30Z</time>
      </trkpt>
      <trkpt lat="46.1745" lon="2.48533">
        <ele>463</ele>
        <time>2015-04-08T12:25:32Z</time>
      </trkpt>
      <trkpt lat="46.17448" lon="2.48532">
        <ele>463</ele>
        <time>2015-04-08T12:25:34Z</time>
      </trkpt>
      <trkpt lat="46.17443" lon="2.48532">
        <ele>463</ele>
        <time>2015-04-08T12:25:36Z</time>
      </trkpt>
      <trkpt lat="46.17439" lon="2.48534">
        <ele>463</ele>
        <time>2015-04-08T12:25:38Z</time>
      </trkpt>
      <trkpt lat="46.17436" lon="2.48535">
        <ele>463</ele>
        <time>2015-04-08T12:25:40Z</time>
      </trkpt>
      <trkpt lat="46.17434" lon="2.48534">
        <ele>463</ele>
        <time>2015-04-08T12:25:42Z</time>
      </trkpt>
      <trkpt lat="46.17432" lon="2.48535">
        <ele>463</ele>
        <time>2015-04-08T12:25:44Z</time>
      </trkpt>
      <trkpt lat="46.1743" lon="2.48533">
        <ele>463</ele>
        <time>2015-04-08T12:25:46Z</time>
      </trkpt>
      <trkpt lat="46.17429" lon="2.48526">
        <ele>463</ele>
        <time>2015-04-08T12:25:48Z</time>
      </trkpt>
      <trkpt lat="46.1743" lon="2.4852">
        <ele>463</ele>
        <time>2015-04-08T12:25:50Z</time>
      </trkpt>
      <trkpt lat="46.17431" lon="2.48516">
        <ele>463</ele>
        <time>2015-04-08T12:25:52Z</time>
      </trkpt>
      <trkpt lat="46.17432" lon="2.48512">
        <ele>463</ele>
        <time>2015-04-08T12:25:54Z</time>
      </trkpt>
      <trkpt lat="46.17432" lon="2.48506">
        <ele>463</ele>
        <time>2015-04-08T12:25:56Z</time>
      </trkpt>
      <trkpt lat="46.17433" lon="2.48502">
        <ele>463</ele>
        <time>2015-04-08T12:25:58Z</time>
      </trkpt>
      <trkpt lat="46.17433" lon="2.48497">
        <ele>463</ele>
        <time>2015-04-08T12:26:00Z</time>
      </trkpt>
      <trkpt lat="46.17434" lon="2.48492">
        <ele>463</ele>
        <time>2015-04-08T12:26:02Z</time>
      </trkpt>
      <trkpt lat="46.17434" lon="2.48488">
        <ele>463</ele>
        <time>2015-04-08T12:26:04Z</time>
      </trkpt>
      <trkpt lat="46.17435" lon="2.48483">
        <ele>463</ele>
        <time>2015-04-08T12:26:06Z</time>
      </trkpt>
      <trkpt lat="46.17437" lon="2.48478">
        <ele>463</ele>
        <time>2015-04-08T12:26:09Z</time>
      </trkpt>
      <trkpt lat="46.17439" lon="2.48476">
        <ele>463</ele>
        <time>2015-04-08T12:26:11Z</time>
      </trkpt>
      <trkpt lat="46.1744" lon="2.48472">
        <ele>463</ele>
        <time>2015-04-08T12:26:13Z</time>
      </trkpt>
      <trkpt lat="46.17441" lon="2.48468">
        <ele>463</ele>
        <time>2015-04-08T12:26:15Z</time>
      </trkpt>
      <trkpt lat="46.17443" lon="2.48464">
        <ele>463</ele>
        <time>2015-04-08T12:26:17Z</time>
      </trkpt>
      <trkpt lat="46.17447" lon="2.48462">
        <ele>463</ele>
        <time>2015-04-08T12:26:19Z</time>
      </trkpt>
      <trkpt lat="46.17451" lon="2.4846">
        <ele>463</ele>
        <time>2015-04-08T12:26:21Z</time>
      </trkpt>
      <trkpt lat="46.17453" lon="2.48456">
        <ele>464</ele>
        <time>2015-04-08T12:26:23Z</time>
      </trkpt>
      <trkpt lat="46.17455" lon="2.48452">
        <ele>464</ele>
        <time>2015-04-08T12:26:25Z</time>
      </trkpt>
      <trkpt lat="46.17456" lon="2.48448">
        <ele>465</ele>
        <time>2015-04-08T12:26:27Z</time>
      </trkpt>
      <trkpt lat="46.17456" lon="2.48445">
        <ele>465</ele>
        <time>2015-04-08T12:26:29Z</time>
      </trkpt>
      <trkpt lat="46.17456" lon="2.48441">
        <ele>465</ele>
        <time>2015-04-08T12:26:31Z</time>
      </trkpt>
      <trkpt lat="46.17456" lon="2.48436">
        <ele>465</ele>
        <time>2015-04-08T12:26:33Z</time>
      </trkpt>
      <trkpt lat="46.17455" lon="2.48431">
        <ele>465</ele>
        <time>2015-04-08T12:26:35Z</time>
      </trkpt>
      <trkpt lat="46.17456" lon="2.48427">
        <ele>465</ele>
        <time>2015-04-08T12:26:37Z</time>
      </trkpt>
      <trkpt lat="46.17456" lon="2.48422">
        <ele>465</ele>
        <time>2015-04-08T12:26:39Z</time>
      </trkpt>
      <trkpt lat="46.17456" lon="2.48418">
        <ele>465</ele>
        <time>2015-04-08T12:26:41Z</time>
      </trkpt>
      <trkpt lat="46.17456" lon="2.48414">
        <ele>465</ele>
        <time>2015-04-08T12:26:43Z</time>
      </trkpt>
      <trkpt lat="46.17456" lon="2.4841">
        <ele>465</ele>
        <time>2015-04-08T12:26:45Z</time>
      </trkpt>
      <trkpt lat="46.17456" lon="2.48406">
        <ele>465</ele>
        <time>2015-04-08T12:26:47Z</time>
      </trkpt>
      <trkpt lat="46.17455" lon="2.48403">
        <ele>465</ele>
        <time>2015-04-08T12:26:49Z</time>
      </trkpt>
      <trkpt lat="46.17453" lon="2.48399">
        <ele>465</ele>
        <time>2015-04-08T12:26:51Z</time>
      </trkpt>
      <trkpt lat="46.17452" lon="2.48396">
        <ele>465</ele>
        <time>2015-04-08T12:26:53Z</time>
      </trkpt>
      <trkpt lat="46.17451" lon="2.48392">
        <ele>466</ele>
        <time>2015-04-08T12:26:55Z</time>
      </trkpt>
      <trkpt lat="46.1745" lon="2.48388">
        <ele>466</ele>
        <time>2015-04-08T12:26:57Z</time>
      </trkpt>
      <trkpt lat="46.17449" lon="2.48384">
        <ele>466</ele>
        <time>2015-04-08T12:26:59Z</time>
      </trkpt>
      <trkpt lat="46.17448" lon="2.4838">
        <ele>466</ele>
        <time>2015-04-08T12:27:01Z</time>
      </trkpt>
      <trkpt lat="46.17447" lon="2.48376">
        <ele>466</ele>
        <time>2015-04-08T12:27:03Z</time>
      </trkpt>
      <trkpt lat="46.17446" lon="2.48372">
        <ele>466</ele>
        <time>2015-04-08T12:27:05Z</time>
      </trkpt>
      <trkpt lat="46.17446" lon="2.48368">
        <ele>466</ele>
        <time>2015-04-08T12:27:07Z</time>
      </trkpt>
      <trkpt lat="46.17447" lon="2.48364">
        <ele>466</ele>
        <time>2015-04-08T12:27:09Z</time>
      </trkpt>
      <trkpt lat="46.17446" lon="2.48359">
        <ele>466</ele>
        <time>2015-04-08T12:27:11Z</time>
      </trkpt>
      <trkpt lat="46.17446" lon="2.48355">
        <ele>466</ele>
        <time>2015-04-08T12:27:13Z</time>
      </trkpt>
      <trkpt lat="46.17446" lon="2.48352">
        <ele>466</ele>
        <time>2015-04-08T12:27:15Z</time>
      </trkpt>
      <trkpt lat="46.17445" lon="2.48348">
        <ele>466</ele>
        <time>2015-04-08T12:27:17Z</time>
      </trkpt>
      <trkpt lat="46.17445" lon="2.48344">
        <ele>466</ele>
        <time>2015-04-08T12:27:19Z</time>
      </trkpt>
      <trkpt lat="46.17444" lon="2.4834">
        <ele>466</ele>
        <time>2015-04-08T12:27:21Z</time>
      </trkpt>
      <trkpt lat="46.17443" lon="2.48337">
        <ele>466</ele>
        <time>2015-04-08T12:27:23Z</time>
      </trkpt>
      <trkpt lat="46.17442" lon="2.48332">
        <ele>466</ele>
        <time>2015-04-08T12:27:25Z</time>
      </trkpt>
      <trkpt lat="46.17442" lon="2.48328">
        <ele>466</ele>
        <time>2015-04-08T12:27:27Z</time>
      </trkpt>
      <trkpt lat="46.17441" lon="2.48324">
        <ele>466</ele>
        <time>2015-04-08T12:27:29Z</time>
      </trkpt>
      <trkpt lat="46.1744" lon="2.48321">
        <ele>466</ele>
        <time>2015-04-08T12:27:31Z</time>
      </trkpt>
      <trkpt lat="46.17439" lon="2.48317">
        <ele>466</ele>
        <time>2015-04-08T12:27:33Z</time>
      </trkpt>
      <trkpt lat="46.17439" lon="2.48312">
        <ele>466</ele>
        <time>2015-04-08T12:27:35Z</time>
      </trkpt>
      <trkpt lat="46.17438" lon="2.48308">
        <ele>466</ele>
        <time>2015-04-08T12:27:37Z</time>
      </trkpt>
      <trkpt lat="46.17437" lon="2.48305">
        <ele>466</ele>
        <time>2015-04-08T12:27:39Z</time>
      </trkpt>
      <trkpt lat="46.17435" lon="2.48301">
        <ele>466</ele>
        <time>2015-04-08T12:27:41Z</time>
      </trkpt>
      <trkpt lat="46.17434" lon="2.48297">
        <ele>466</ele>
        <time>2015-04-08T12:27:43Z</time>
      </trkpt>
      <trkpt lat="46.17434" lon="2.48292">
        <ele>466</ele>
        <time>2015-04-08T12:27:45Z</time>
      </trkpt>
      <trkpt lat="46.17433" lon="2.48288">
        <ele>466</ele>
        <time>2015-04-08T12:27:47Z</time>
      </trkpt>
      <trkpt lat="46.17432" lon="2.48285">
        <ele>466</ele>
        <time>2015-04-08T12:27:49Z</time>
      </trkpt>
      <trkpt lat="46.17431" lon="2.48281">
        <ele>466</ele>
        <time>2015-04-08T12:27:51Z</time>
      </trkpt>
      <trkpt lat="46.17432" lon="2.48277">
        <ele>466</ele>
        <time>2015-04-08T12:27:53Z</time>
      </trkpt>
      <trkpt lat="46.17431" lon="2.48272">
        <ele>466</ele>
        <time>2015-04-08T12:27:55Z</time>
      </trkpt>
      <trkpt lat="46.17429" lon="2.48269">
        <ele>466</ele>
        <time>2015-04-08T12:27:57Z</time>
      </trkpt>
      <trkpt lat="46.17426" lon="2.48265">
        <ele>466</ele>
        <time>2015-04-08T12:27:59Z</time>
      </trkpt>
      <trkpt lat="46.17425" lon="2.48261">
        <ele>467</ele>
        <time>2015-04-08T12:28:01Z</time>
      </trkpt>
      <trkpt lat="46.17423" lon="2.48258">
        <ele>467</ele>
        <time>2015-04-08T12:28:03Z</time>
      </trkpt>
      <trkpt lat="46.17421" lon="2.48254">
        <ele>467</ele>
        <time>2015-04-08T12:28:05Z</time>
      </trkpt>
      <trkpt lat="46.17419" lon="2.48251">
        <ele>467</ele>
        <time>2015-04-08T12:28:07Z</time>
      </trkpt>
      <trkpt lat="46.17418" lon="2.48247">
        <ele>467</ele>
        <time>2015-04-08T12:28:09Z</time>
      </trkpt>
      <trkpt lat="46.17418" lon="2.48243">
        <ele>467</ele>
        <time>2015-04-08T12:28:11Z</time>
      </trkpt>
      <trkpt lat="46.17419" lon="2.48239">
        <ele>467</ele>
        <time>2015-04-08T12:28:13Z</time>
      </trkpt>
      <trkpt lat="46.1742" lon="2.48235">
        <ele>467</ele>
        <time>2015-04-08T12:28:15Z</time>
      </trkpt>
      <trkpt lat="46.17418" lon="2.48231">
        <ele>467</ele>
        <time>2015-04-08T12:28:17Z</time>
      </trkpt>
      <trkpt lat="46.17417" lon="2.48228">
        <ele>467</ele>
        <time>2015-04-08T12:28:19Z</time>
      </trkpt>
      <trkpt lat="46.17416" lon="2.48224">
        <ele>467</ele>
        <time>2015-04-08T12:28:21Z</time>
      </trkpt>
      <trkpt lat="46.17413" lon="2.48219">
        <ele>467</ele>
        <time>2015-04-08T12:28:24Z</time>
      </trkpt>
      <trkpt lat="46.1741" lon="2.48215">
        <ele>467</ele>
        <time>2015-04-08T12:28:27Z</time>
      </trkpt>
      <trkpt lat="46.17407" lon="2.48214">
        <ele>467</ele>
        <time>2015-04-08T12:28:29Z</time>
      </trkpt>
      <trkpt lat="46.17403" lon="2.48214">
        <ele>467</ele>
        <time>2015-04-08T12:28:31Z</time>
      </trkpt>
      <trkpt lat="46.17399" lon="2.48213">
        <ele>467</ele>
        <time>2015-04-08T12:28:33Z</time>
      </trkpt>
      <trkpt lat="46.17395" lon="2.48213">
        <ele>467</ele>
        <time>2015-04-08T12:28:35Z</time>
      </trkpt>
      <trkpt lat="46.17391" lon="2.48211">
        <ele>467</ele>
        <time>2015-04-08T12:28:37Z</time>
      </trkpt>
      <trkpt lat="46.17388" lon="2.48209">
        <ele>467</ele>
        <time>2015-04-08T12:28:39Z</time>
      </trkpt>
      <trkpt lat="46.17384" lon="2.48207">
        <ele>467</ele>
        <time>2015-04-08T12:28:41Z</time>
      </trkpt>
      <trkpt lat="46.17382" lon="2.48207">
        <ele>469</ele>
        <time>2015-04-08T12:28:43Z</time>
      </trkpt>
      <trkpt lat="46.17377" lon="2.48205">
        <ele>470</ele>
        <time>2015-04-08T12:28:45Z</time>
      </trkpt>
      <trkpt lat="46.17373" lon="2.48203">
        <ele>472</ele>
        <time>2015-04-08T12:28:47Z</time>
      </trkpt>
      <trkpt lat="46.1737" lon="2.48203">
        <ele>473</ele>
        <time>2015-04-08T12:28:49Z</time>
      </trkpt>
      <trkpt lat="46.17366" lon="2.482">
        <ele>475</ele>
        <time>2015-04-08T12:28:51Z</time>
      </trkpt>
      <trkpt lat="46.17363" lon="2.482">
        <ele>475</ele>
        <time>2015-04-08T12:28:53Z</time>
      </trkpt>
      <trkpt lat="46.17361" lon="2.48198">
        <ele>475</ele>
        <time>2015-04-08T12:28:55Z</time>
      </trkpt>
      <trkpt lat="46.17359" lon="2.48198">
        <ele>475</ele>
        <time>2015-04-08T12:28:57Z</time>
      </trkpt>
      <trkpt lat="46.17356" lon="2.48197">
        <ele>475</ele>
        <time>2015-04-08T12:29:00Z</time>
      </trkpt>
      <trkpt lat="46.17353" lon="2.48195">
        <ele>475</ele>
        <time>2015-04-08T12:29:02Z</time>
      </trkpt>
      <trkpt lat="46.17351" lon="2.48195">
        <ele>473</ele>
        <time>2015-04-08T12:29:04Z</time>
      </trkpt>
      <trkpt lat="46.17349" lon="2.48194">
        <ele>471</ele>
        <time>2015-04-08T12:29:06Z</time>
      </trkpt>
      <trkpt lat="46.17346" lon="2.48193">
        <ele>469</ele>
        <time>2015-04-08T12:29:08Z</time>
      </trkpt>
      <trkpt lat="46.17341" lon="2.48192">
        <ele>469</ele>
        <time>2015-04-08T12:29:10Z</time>
      </trkpt>
      <trkpt lat="46.17338" lon="2.48193">
        <ele>469</ele>
        <time>2015-04-08T12:29:12Z</time>
      </trkpt>
      <trkpt lat="46.17336" lon="2.48193">
        <ele>469</ele>
        <time>2015-04-08T12:29:15Z</time>
      </trkpt>
      <trkpt lat="46.17333" lon="2.48193">
        <ele>469</ele>
        <time>2015-04-08T12:29:17Z</time>
      </trkpt>
      <trkpt lat="46.1733" lon="2.48194">
        <ele>468</ele>
        <time>2015-04-08T12:29:19Z</time>
      </trkpt>
      <trkpt lat="46.17326" lon="2.48195">
        <ele>468</ele>
        <time>2015-04-08T12:29:21Z</time>
      </trkpt>
      <trkpt lat="46.17321" lon="2.48195">
        <ele>468</ele>
        <time>2015-04-08T12:29:24Z</time>
      </trkpt>
      <trkpt lat="46.17318" lon="2.48195">
        <ele>468</ele>
        <time>2015-04-08T12:29:26Z</time>
      </trkpt>
      <trkpt lat="46.17316" lon="2.48196">
        <ele>468</ele>
        <time>2015-04-08T12:29:28Z</time>
      </trkpt>
      <trkpt lat="46.17311" lon="2.48199">
        <ele>468</ele>
        <time>2015-04-08T12:29:32Z</time>
      </trkpt>
      <trkpt lat="46.17307" lon="2.482">
        <ele>466</ele>
        <time>2015-04-08T12:29:35Z</time>
      </trkpt>
      <trkpt lat="46.17304" lon="2.48201">
        <ele>466</ele>
        <time>2015-04-08T12:29:37Z</time>
      </trkpt>
      <trkpt lat="46.17302" lon="2.48202">
        <ele>465</ele>
        <time>2015-04-08T12:29:39Z</time>
      </trkpt>
      <trkpt lat="46.17299" lon="2.48202">
        <ele>465</ele>
        <time>2015-04-08T12:29:41Z</time>
      </trkpt>
      <trkpt lat="46.17296" lon="2.48203">
        <ele>465</ele>
        <time>2015-04-08T12:29:43Z</time>
      </trkpt>
      <trkpt lat="46.17292" lon="2.48203">
        <ele>465</ele>
        <time>2015-04-08T12:29:45Z</time>
      </trkpt>
      <trkpt lat="46.17288" lon="2.48204">
        <ele>465</ele>
        <time>2015-04-08T12:29:48Z</time>
      </trkpt>
      <trkpt lat="46.17283" lon="2.48204">
        <ele>465</ele>
        <time>2015-04-08T12:29:51Z</time>
      </trkpt>
      <trkpt lat="46.1728" lon="2.48205">
        <ele>465</ele>
        <time>2015-04-08T12:29:53Z</time>
      </trkpt>
      <trkpt lat="46.17276" lon="2.48205">
        <ele>465</ele>
        <time>2015-04-08T12:29:56Z</time>
      </trkpt>
      <trkpt lat="46.17273" lon="2.48205">
        <ele>465</ele>
        <time>2015-04-08T12:29:58Z</time>
      </trkpt>
      <trkpt lat="46.17268" lon="2.48205">
        <ele>465</ele>
        <time>2015-04-08T12:30:00Z</time>
      </trkpt>
      <trkpt lat="46.17266" lon="2.48205">
        <ele>465</ele>
        <time>2015-04-08T12:30:02Z</time>
      </trkpt>
      <trkpt lat="46.17263" lon="2.48206">
        <ele>465</ele>
        <time>2015-04-08T12:30:05Z</time>
      </trkpt>
      <trkpt lat="46.17259" lon="2.48205">
        <ele>465</ele>
        <time>2015-04-08T12:30:08Z</time>
      </trkpt>
      <trkpt lat="46.17255" lon="2.48205">
        <ele>465</ele>
        <time>2015-04-08T12:30:10Z</time>
      </trkpt>
      <trkpt lat="46.17252" lon="2.48204">
        <ele>465</ele>
        <time>2015-04-08T12:30:13Z</time>
      </trkpt>
      <trkpt lat="46.17248" lon="2.48203">
        <ele>465</ele>
        <time>2015-04-08T12:30:16Z</time>
      </trkpt>
      <trkpt lat="46.17245" lon="2.48201">
        <ele>465</ele>
        <time>2015-04-08T12:30:19Z</time>
      </trkpt>
      <trkpt lat="46.17242" lon="2.482">
        <ele>465</ele>
        <time>2015-04-08T12:30:21Z</time>
      </trkpt>
      <trkpt lat="46.17238" lon="2.482">
        <ele>465</ele>
        <time>2015-04-08T12:30:24Z</time>
      </trkpt>
      <trkpt lat="46.17234" lon="2.48198">
        <ele>465</ele>
        <time>2015-04-08T12:30:26Z</time>
      </trkpt>
      <trkpt lat="46.17231" lon="2.48196">
        <ele>465</ele>
        <time>2015-04-08T12:30:29Z</time>
      </trkpt>
      <trkpt lat="46.17228" lon="2.48195">
        <ele>465</ele>
        <time>2015-04-08T12:30:32Z</time>
      </trkpt>
      <trkpt lat="46.17224" lon="2.48193">
        <ele>465</ele>
        <time>2015-04-08T12:30:35Z</time>
      </trkpt>
      <trkpt lat="46.17221" lon="2.48192">
        <ele>465</ele>
        <time>2015-04-08T12:30:37Z</time>
      </trkpt>
      <trkpt lat="46.17217" lon="2.48191">
        <ele>465</ele>
        <time>2015-04-08T12:30:40Z</time>
      </trkpt>
      <trkpt lat="46.17213" lon="2.48189">
        <ele>465</ele>
        <time>2015-04-08T12:30:42Z</time>
      </trkpt>
      <trkpt lat="46.17209" lon="2.48188">
        <ele>465</ele>
        <time>2015-04-08T12:30:45Z</time>
      </trkpt>
      <trkpt lat="46.17205" lon="2.48186">
        <ele>465</ele>
        <time>2015-04-08T12:30:47Z</time>
      </trkpt>
      <trkpt lat="46.17202" lon="2.48186">
        <ele>465</ele>
        <time>2015-04-08T12:30:49Z</time>
      </trkpt>
      <trkpt lat="46.17199" lon="2.48185">
        <ele>465</ele>
        <time>2015-04-08T12:30:51Z</time>
      </trkpt>
      <trkpt lat="46.17196" lon="2.48184">
        <ele>465</ele>
        <time>2015-04-08T12:30:53Z</time>
      </trkpt>
      <trkpt lat="46.17193" lon="2.48183">
        <ele>465</ele>
        <time>2015-04-08T12:30:56Z</time>
      </trkpt>
      <trkpt lat="46.17189" lon="2.4818">
        <ele>465</ele>
        <time>2015-04-08T12:30:58Z</time>
      </trkpt>
      <trkpt lat="46.17186" lon="2.48179">
        <ele>465</ele>
        <time>2015-04-08T12:31:01Z</time>
      </trkpt>
      <trkpt lat="46.17182" lon="2.48178">
        <ele>465</ele>
        <time>2015-04-08T12:31:03Z</time>
      </trkpt>
      <trkpt lat="46.17179" lon="2.48178">
        <ele>465</ele>
        <time>2015-04-08T12:31:06Z</time>
      </trkpt>
      <trkpt lat="46.17175" lon="2.48176">
        <ele>465</ele>
        <time>2015-04-08T12:31:08Z</time>
      </trkpt>
      <trkpt lat="46.17173" lon="2.48175">
        <ele>465</ele>
        <time>2015-04-08T12:31:10Z</time>
      </trkpt>
      <trkpt lat="46.1717" lon="2.48174">
        <ele>465</ele>
        <time>2015-04-08T12:31:12Z</time>
      </trkpt>
      <trkpt lat="46.17167" lon="2.48172">
        <ele>465</ele>
        <time>2015-04-08T12:31:14Z</time>
      </trkpt>
      <trkpt lat="46.17164" lon="2.48171">
        <ele>465</ele>
        <time>2015-04-08T12:31:16Z</time>
      </trkpt>
      <trkpt lat="46.17162" lon="2.4817">
        <ele>465</ele>
        <time>2015-04-08T12:31:18Z</time>
      </trkpt>
      <trkpt lat="46.17159" lon="2.4817">
        <ele>465</ele>
        <time>2015-04-08T12:31:21Z</time>
      </trkpt>
      <trkpt lat="46.17155" lon="2.48168">
        <ele>465</ele>
        <time>2015-04-08T12:31:23Z</time>
      </trkpt>
      <trkpt lat="46.17152" lon="2.48166">
        <ele>465</ele>
        <time>2015-04-08T12:31:26Z</time>
      </trkpt>
      <trkpt lat="46.17147" lon="2.48164">
        <ele>465</ele>
        <time>2015-04-08T12:31:28Z</time>
      </trkpt>
      <trkpt lat="46.17145" lon="2.48163">
        <ele>465</ele>
        <time>2015-04-08T12:31:30Z</time>
      </trkpt>
      <trkpt lat="46.17142" lon="2.48162">
        <ele>465</ele>
        <time>2015-04-08T12:31:32Z</time>
      </trkpt>
      <trkpt lat="46.17139" lon="2.48162">
        <ele>465</ele>
        <time>2015-04-08T12:31:34Z</time>
      </trkpt>
      <trkpt lat="46.17137" lon="2.4816">
        <ele>465</ele>
        <time>2015-04-08T12:31:36Z</time>
      </trkpt>
      <trkpt lat="46.17134" lon="2.48159">
        <ele>465</ele>
        <time>2015-04-08T12:31:38Z</time>
      </trkpt>
      <trkpt lat="46.17131" lon="2.48158">
        <ele>465</ele>
        <time>2015-04-08T12:31:40Z</time>
      </trkpt>
      <trkpt lat="46.17128" lon="2.48156">
        <ele>465</ele>
        <time>2015-04-08T12:31:42Z</time>
      </trkpt>
      <trkpt lat="46.17125" lon="2.48155">
        <ele>465</ele>
        <time>2015-04-08T12:31:44Z</time>
      </trkpt>
      <trkpt lat="46.17122" lon="2.48154">
        <ele>465</ele>
        <time>2015-04-08T12:31:46Z</time>
      </trkpt>
      <trkpt lat="46.1712" lon="2.48152">
        <ele>465</ele>
        <time>2015-04-08T12:31:48Z</time>
      </trkpt>
      <trkpt lat="46.17117" lon="2.4815">
        <ele>465</ele>
        <time>2015-04-08T12:31:50Z</time>
      </trkpt>
      <trkpt lat="46.17114" lon="2.48149">
        <ele>465</ele>
        <time>2015-04-08T12:31:52Z</time>
      </trkpt>
      <trkpt lat="46.17111" lon="2.48148">
        <ele>465</ele>
        <time>2015-04-08T12:31:54Z</time>
      </trkpt>
      <trkpt lat="46.17108" lon="2.48147">
        <ele>465</ele>
        <time>2015-04-08T12:31:56Z</time>
      </trkpt>
      <trkpt lat="46.17105" lon="2.48147">
        <ele>465</ele>
        <time>2015-04-08T12:31:58Z</time>
      </trkpt>
      <trkpt lat="46.17102" lon="2.48146">
        <ele>465</ele>
        <time>2015-04-08T12:32:00Z</time>
      </trkpt>
      <trkpt lat="46.17099" lon="2.48145">
        <ele>465</ele>
        <time>2015-04-08T12:32:02Z</time>
      </trkpt>
      <trkpt lat="46.17096" lon="2.48144">
        <ele>465</ele>
        <time>2015-04-08T12:32:04Z</time>
      </trkpt>
      <trkpt lat="46.17094" lon="2.48143">
        <ele>465</ele>
        <time>2015-04-08T12:32:06Z</time>
      </trkpt>
      <trkpt lat="46.17091" lon="2.48143">
        <ele>465</ele>
        <time>2015-04-08T12:32:08Z</time>
      </trkpt>
      <trkpt lat="46.17088" lon="2.48141">
        <ele>465</ele>
        <time>2015-04-08T12:32:10Z</time>
      </trkpt>
      <trkpt lat="46.17086" lon="2.4814">
        <ele>465</ele>
        <time>2015-04-08T12:32:12Z</time>
      </trkpt>
      <trkpt lat="46.17083" lon="2.4814">
        <ele>465</ele>
        <time>2015-04-08T12:32:14Z</time>
      </trkpt>
      <trkpt lat="46.17081" lon="2.48138">
        <ele>465</ele>
        <time>2015-04-08T12:32:16Z</time>
      </trkpt>
      <trkpt lat="46.17078" lon="2.48137">
        <ele>465</ele>
        <time>2015-04-08T12:32:18Z</time>
      </trkpt>
      <trkpt lat="46.17075" lon="2.48136">
        <ele>465</ele>
        <time>2015-04-08T12:32:20Z</time>
      </trkpt>
      <trkpt lat="46.17073" lon="2.48136">
        <ele>465</ele>
        <time>2015-04-08T12:32:22Z</time>
      </trkpt>
      <trkpt lat="46.1707" lon="2.48135">
        <ele>465</ele>
        <time>2015-04-08T12:32:24Z</time>
      </trkpt>
      <trkpt lat="46.17068" lon="2.48133">
        <ele>465</ele>
        <time>2015-04-08T12:32:26Z</time>
      </trkpt>
      <trkpt lat="46.17065" lon="2.48132">
        <ele>465</ele>
        <time>2015-04-08T12:32:28Z</time>
      </trkpt>
      <trkpt lat="46.17063" lon="2.48131">
        <ele>465</ele>
        <time>2015-04-08T12:32:30Z</time>
      </trkpt>
      <trkpt lat="46.1706" lon="2.4813">
        <ele>465</ele>
        <time>2015-04-08T12:32:32Z</time>
      </trkpt>
      <trkpt lat="46.17058" lon="2.48128">
        <ele>465</ele>
        <time>2015-04-08T12:32:34Z</time>
      </trkpt>
      <trkpt lat="46.17055" lon="2.48128">
        <ele>465</ele>
        <time>2015-04-08T12:32:36Z</time>
      </trkpt>
      <trkpt lat="46.17052" lon="2.48127">
        <ele>465</ele>
        <time>2015-04-08T12:32:38Z</time>
      </trkpt>
      <trkpt lat="46.17049" lon="2.48126">
        <ele>465</ele>
        <time>2015-04-08T12:32:40Z</time>
      </trkpt>
      <trkpt lat="46.17046" lon="2.48126">
        <ele>465</ele>
        <time>2015-04-08T12:32:42Z</time>
      </trkpt>
      <trkpt lat="46.17044" lon="2.48125">
        <ele>465</ele>
        <time>2015-04-08T12:32:44Z</time>
      </trkpt>
      <trkpt lat="46.17041" lon="2.48124">
        <ele>465</ele>
        <time>2015-04-08T12:32:46Z</time>
      </trkpt>
      <trkpt lat="46.17039" lon="2.48124">
        <ele>465</ele>
        <time>2015-04-08T12:32:48Z</time>
      </trkpt>
      <trkpt lat="46.17036" lon="2.48123">
        <ele>465</ele>
        <time>2015-04-08T12:32:50Z</time>
      </trkpt>
      <trkpt lat="46.17034" lon="2.48122">
        <ele>465</ele>
        <time>2015-04-08T12:32:52Z</time>
      </trkpt>
      <trkpt lat="46.17031" lon="2.48122">
        <ele>465</ele>
        <time>2015-04-08T12:32:54Z</time>
      </trkpt>
      <trkpt lat="46.17028" lon="2.48121">
        <ele>465</ele>
        <time>2015-04-08T12:32:56Z</time>
      </trkpt>
      <trkpt lat="46.17026" lon="2.4812">
        <ele>465</ele>
        <time>2015-04-08T12:32:58Z</time>
      </trkpt>
      <trkpt lat="46.17023" lon="2.48119">
        <ele>465</ele>
        <time>2015-04-08T12:33:00Z</time>
      </trkpt>
      <trkpt lat="46.1702" lon="2.48118">
        <ele>465</ele>
        <time>2015-04-08T12:33:02Z</time>
      </trkpt>
      <trkpt lat="46.17018" lon="2.48118">
        <ele>465</ele>
        <time>2015-04-08T12:33:04Z</time>
      </trkpt>
      <trkpt lat="46.17015" lon="2.48117">
        <ele>465</ele>
        <time>2015-04-08T12:33:06Z</time>
      </trkpt>
      <trkpt lat="46.17012" lon="2.48116">
        <ele>465</ele>
        <time>2015-04-08T12:33:08Z</time>
      </trkpt>
      <trkpt lat="46.17009" lon="2.48115">
        <ele>465</ele>
        <time>2015-04-08T12:33:10Z</time>
      </trkpt>
      <trkpt lat="46.17007" lon="2.48113">
        <ele>465</ele>
        <time>2015-04-08T12:33:12Z</time>
      </trkpt>
      <trkpt lat="46.17004" lon="2.48112">
        <ele>465</ele>
        <time>2015-04-08T12:33:14Z</time>
      </trkpt>
      <trkpt lat="46.17001" lon="2.48111">
        <ele>465</ele>
        <time>2015-04-08T12:33:16Z</time>
      </trkpt>
      <trkpt lat="46.16998" lon="2.4811">
        <ele>465</ele>
        <time>2015-04-08T12:33:18Z</time>
      </trkpt>
      <trkpt lat="46.16996" lon="2.48109">
        <ele>465</ele>
        <time>2015-04-08T12:33:20Z</time>
      </trkpt>
      <trkpt lat="46.16993" lon="2.48109">
        <ele>465</ele>
        <time>2015-04-08T12:33:22Z</time>
      </trkpt>
      <trkpt lat="46.1699" lon="2.48108">
        <ele>465</ele>
        <time>2015-04-08T12:33:24Z</time>
      </trkpt>
      <trkpt lat="46.16987" lon="2.48107">
        <ele>465</ele>
        <time>2015-04-08T12:33:26Z</time>
      </trkpt>
      <trkpt lat="46.16984" lon="2.48106">
        <ele>465</ele>
        <time>2015-04-08T12:33:28Z</time>
      </trkpt>
      <trkpt lat="46.16982" lon="2.48105">
        <ele>465</ele>
        <time>2015-04-08T12:33:30Z</time>
      </trkpt>
      <trkpt lat="46.16979" lon="2.48104">
        <ele>465</ele>
        <time>2015-04-08T12:33:32Z</time>
      </trkpt>
      <trkpt lat="46.16975" lon="2.48104">
        <ele>465</ele>
        <time>2015-04-08T12:33:35Z</time>
      </trkpt>
      <trkpt lat="46.16972" lon="2.48103">
        <ele>465</ele>
        <time>2015-04-08T12:33:37Z</time>
      </trkpt>
      <trkpt lat="46.16969" lon="2.48102">
        <ele>465</ele>
        <time>2015-04-08T12:33:39Z</time>
      </trkpt>
      <trkpt lat="46.16967" lon="2.48102">
        <ele>465</ele>
        <time>2015-04-08T12:33:41Z</time>
      </trkpt>
      <trkpt lat="46.16964" lon="2.48102">
        <ele>465</ele>
        <time>2015-04-08T12:33:43Z</time>
      </trkpt>
      <trkpt lat="46.16961" lon="2.48101">
        <ele>465</ele>
        <time>2015-04-08T12:33:45Z</time>
      </trkpt>
      <trkpt lat="46.16959" lon="2.48101">
        <ele>465</ele>
        <time>2015-04-08T12:33:47Z</time>
      </trkpt>
      <trkpt lat="46.16956" lon="2.48101">
        <ele>465</ele>
        <time>2015-04-08T12:33:49Z</time>
      </trkpt>
      <trkpt lat="46.16953" lon="2.481">
        <ele>465</ele>
        <time>2015-04-08T12:33:51Z</time>
      </trkpt>
      <trkpt lat="46.16951" lon="2.48099">
        <ele>465</ele>
        <time>2015-04-08T12:33:53Z</time>
      </trkpt>
      <trkpt lat="46.16949" lon="2.48098">
        <ele>465</ele>
        <time>2015-04-08T12:33:56Z</time>
      </trkpt>
      <trkpt lat="46.16945" lon="2.48098">
        <ele>465</ele>
        <time>2015-04-08T12:33:58Z</time>
      </trkpt>
      <trkpt lat="46.16942" lon="2.48098">
        <ele>465</ele>
        <time>2015-04-08T12:34:01Z</time>
      </trkpt>
      <trkpt lat="46.16938" lon="2.48097">
        <ele>465</ele>
        <time>2015-04-08T12:34:03Z</time>
      </trkpt>
      <trkpt lat="46.16935" lon="2.48097">
        <ele>465</ele>
        <time>2015-04-08T12:34:06Z</time>
      </trkpt>
      <trkpt lat="46.16931" lon="2.48097">
        <ele>465</ele>
        <time>2015-04-08T12:34:08Z</time>
      </trkpt>
      <trkpt lat="46.16928" lon="2.48096">
        <ele>465</ele>
        <time>2015-04-08T12:34:11Z</time>
      </trkpt>
      <trkpt lat="46.16924" lon="2.48097">
        <ele>465</ele>
        <time>2015-04-08T12:34:13Z</time>
      </trkpt>
      <trkpt lat="46.16921" lon="2.48096">
        <ele>465</ele>
        <time>2015-04-08T12:34:16Z</time>
      </trkpt>
      <trkpt lat="46.16917" lon="2.48095">
        <ele>465</ele>
        <time>2015-04-08T12:34:18Z</time>
      </trkpt>
      <trkpt lat="46.16914" lon="2.48095">
        <ele>465</ele>
        <time>2015-04-08T12:34:21Z</time>
      </trkpt>
      <trkpt lat="46.1691" lon="2.48096">
        <ele>465</ele>
        <time>2015-04-08T12:34:23Z</time>
      </trkpt>
      <trkpt lat="46.16907" lon="2.48095">
        <ele>465</ele>
        <time>2015-04-08T12:34:25Z</time>
      </trkpt>
      <trkpt lat="46.16904" lon="2.48095">
        <ele>465</ele>
        <time>2015-04-08T12:34:27Z</time>
      </trkpt>
      <trkpt lat="46.16901" lon="2.48095">
        <ele>465</ele>
        <time>2015-04-08T12:34:29Z</time>
      </trkpt>
      <trkpt lat="46.16898" lon="2.48094">
        <ele>465</ele>
        <time>2015-04-08T12:34:32Z</time>
      </trkpt>
      <trkpt lat="46.16894" lon="2.48094">
        <ele>465</ele>
        <time>2015-04-08T12:34:34Z</time>
      </trkpt>
      <trkpt lat="46.16891" lon="2.48092">
        <ele>466</ele>
        <time>2015-04-08T12:34:37Z</time>
      </trkpt>
      <trkpt lat="46.16886" lon="2.48091">
        <ele>466</ele>
        <time>2015-04-08T12:34:39Z</time>
      </trkpt>
      <trkpt lat="46.16883" lon="2.4809">
        <ele>467</ele>
        <time>2015-04-08T12:34:42Z</time>
      </trkpt>
      <trkpt lat="46.16879" lon="2.4809">
        <ele>467</ele>
        <time>2015-04-08T12:34:44Z</time>
      </trkpt>
      <trkpt lat="46.16876" lon="2.4809">
        <ele>467</ele>
        <time>2015-04-08T12:34:47Z</time>
      </trkpt>
      <trkpt lat="46.16872" lon="2.4809">
        <ele>467</ele>
        <time>2015-04-08T12:34:49Z</time>
      </trkpt>
      <trkpt lat="46.16869" lon="2.48089">
        <ele>467</ele>
        <time>2015-04-08T12:34:52Z</time>
      </trkpt>
      <trkpt lat="46.16864" lon="2.48088">
        <ele>467</ele>
        <time>2015-04-08T12:34:54Z</time>
      </trkpt>
      <trkpt lat="46.16862" lon="2.48087">
        <ele>467</ele>
        <time>2015-04-08T12:34:57Z</time>
      </trkpt>
      <trkpt lat="46.16857" lon="2.48087">
        <ele>467</ele>
        <time>2015-04-08T12:34:59Z</time>
      </trkpt>
      <trkpt lat="46.16854" lon="2.48087">
        <ele>467</ele>
        <time>2015-04-08T12:35:02Z</time>
      </trkpt>
      <trkpt lat="46.16849" lon="2.48087">
        <ele>467</ele>
        <time>2015-04-08T12:35:04Z</time>
      </trkpt>
      <trkpt lat="46.16846" lon="2.48087">
        <ele>467</ele>
        <time>2015-04-08T12:35:07Z</time>
      </trkpt>
      <trkpt lat="46.16842" lon="2.48087">
        <ele>467</ele>
        <time>2015-04-08T12:35:09Z</time>
      </trkpt>
      <trkpt lat="46.16839" lon="2.48087">
        <ele>467</ele>
        <time>2015-04-08T12:35:12Z</time>
      </trkpt>
      <trkpt lat="46.16834" lon="2.48086">
        <ele>467</ele>
        <time>2015-04-08T12:35:14Z</time>
      </trkpt>
      <trkpt lat="46.16831" lon="2.48085">
        <ele>467</ele>
        <time>2015-04-08T12:35:16Z</time>
      </trkpt>
      <trkpt lat="46.16828" lon="2.48085">
        <ele>467</ele>
        <time>2015-04-08T12:35:18Z</time>
      </trkpt>
      <trkpt lat="46.16825" lon="2.48084">
        <ele>467</ele>
        <time>2015-04-08T12:35:20Z</time>
      </trkpt>
      <trkpt lat="46.16822" lon="2.48084">
        <ele>467</ele>
        <time>2015-04-08T12:35:22Z</time>
      </trkpt>
      <trkpt lat="46.16819" lon="2.48084">
        <ele>467</ele>
        <time>2015-04-08T12:35:24Z</time>
      </trkpt>
      <trkpt lat="46.16816" lon="2.48084">
        <ele>467</ele>
        <time>2015-04-08T12:35:26Z</time>
      </trkpt>
      <trkpt lat="46.16813" lon="2.48084">
        <ele>467</ele>
        <time>2015-04-08T12:35:28Z</time>
      </trkpt>
      <trkpt lat="46.16811" lon="2.48084">
        <ele>467</ele>
        <time>2015-04-08T12:35:30Z</time>
      </trkpt>
      <trkpt lat="46.16808" lon="2.48083">
        <ele>467</ele>
        <time>2015-04-08T12:35:32Z</time>
      </trkpt>
      <trkpt lat="46.16805" lon="2.48083">
        <ele>467</ele>
        <time>2015-04-08T12:35:34Z</time>
      </trkpt>
      <trkpt lat="46.16802" lon="2.48082">
        <ele>467</ele>
        <time>2015-04-08T12:35:36Z</time>
      </trkpt>
      <trkpt lat="46.16798" lon="2.48082">
        <ele>467</ele>
        <time>2015-04-08T12:35:38Z</time>
      </trkpt>
      <trkpt lat="46.16795" lon="2.48081">
        <ele>467</ele>
        <time>2015-04-08T12:35:40Z</time>
      </trkpt>
      <trkpt lat="46.16793" lon="2.48081">
        <ele>467</ele>
        <time>2015-04-08T12:35:42Z</time>
      </trkpt>
      <trkpt lat="46.1679" lon="2.48081">
        <ele>467</ele>
        <time>2015-04-08T12:35:44Z</time>
      </trkpt>
      <trkpt lat="46.16787" lon="2.48081">
        <ele>467</ele>
        <time>2015-04-08T12:35:47Z</time>
      </trkpt>
      <trkpt lat="46.16783" lon="2.48081">
        <ele>467</ele>
        <time>2015-04-08T12:35:49Z</time>
      </trkpt>
      <trkpt lat="46.1678" lon="2.4808">
        <ele>467</ele>
        <time>2015-04-08T12:35:52Z</time>
      </trkpt>
      <trkpt lat="46.16776" lon="2.4808">
        <ele>467</ele>
        <time>2015-04-08T12:35:54Z</time>
      </trkpt>
      <trkpt lat="46.16773" lon="2.4808">
        <ele>467</ele>
        <time>2015-04-08T12:35:57Z</time>
      </trkpt>
      <trkpt lat="46.16769" lon="2.4808">
        <ele>467</ele>
        <time>2015-04-08T12:35:59Z</time>
      </trkpt>
      <trkpt lat="46.16766" lon="2.4808">
        <ele>467</ele>
        <time>2015-04-08T12:36:02Z</time>
      </trkpt>
      <trkpt lat="46.16761" lon="2.4808">
        <ele>467</ele>
        <time>2015-04-08T12:36:04Z</time>
      </trkpt>
      <trkpt lat="46.16758" lon="2.48079">
        <ele>467</ele>
        <time>2015-04-08T12:36:07Z</time>
      </trkpt>
      <trkpt lat="46.16754" lon="2.48078">
        <ele>467</ele>
        <time>2015-04-08T12:36:09Z</time>
      </trkpt>
      <trkpt lat="46.1675" lon="2.48078">
        <ele>467</ele>
        <time>2015-04-08T12:36:12Z</time>
      </trkpt>
      <trkpt lat="46.16748" lon="2.48078">
        <ele>467</ele>
        <time>2015-04-08T12:36:14Z</time>
      </trkpt>
      <trkpt lat="46.16744" lon="2.48077">
        <ele>467</ele>
        <time>2015-04-08T12:36:16Z</time>
      </trkpt>
      <trkpt lat="46.16741" lon="2.48076">
        <ele>467</ele>
        <time>2015-04-08T12:36:18Z</time>
      </trkpt>
      <trkpt lat="46.16738" lon="2.48074">
        <ele>467</ele>
        <time>2015-04-08T12:36:20Z</time>
      </trkpt>
      <trkpt lat="46.16736" lon="2.48074">
        <ele>467</ele>
        <time>2015-04-08T12:36:23Z</time>
      </trkpt>
      <trkpt lat="46.16731" lon="2.48074">
        <ele>467</ele>
        <time>2015-04-08T12:36:25Z</time>
      </trkpt>
      <trkpt lat="46.16729" lon="2.48073">
        <ele>467</ele>
        <time>2015-04-08T12:36:28Z</time>
      </trkpt>
      <trkpt lat="46.16724" lon="2.48073">
        <ele>467</ele>
        <time>2015-04-08T12:36:30Z</time>
      </trkpt>
      <trkpt lat="46.16721" lon="2.48073">
        <ele>467</ele>
        <time>2015-04-08T12:36:32Z</time>
      </trkpt>
      <trkpt lat="46.16719" lon="2.48072">
        <ele>467</ele>
        <time>2015-04-08T12:36:34Z</time>
      </trkpt>
      <trkpt lat="46.16716" lon="2.48072">
        <ele>467</ele>
        <time>2015-04-08T12:36:36Z</time>
      </trkpt>
      <trkpt lat="46.16713" lon="2.48072">
        <ele>467</ele>
        <time>2015-04-08T12:36:39Z</time>
      </trkpt>
      <trkpt lat="46.16709" lon="2.48072">
        <ele>467</ele>
        <time>2015-04-08T12:36:41Z</time>
      </trkpt>
      <trkpt lat="46.16706" lon="2.48071">
        <ele>467</ele>
        <time>2015-04-08T12:36:43Z</time>
      </trkpt>
      <trkpt lat="46.16704" lon="2.48071">
        <ele>467</ele>
        <time>2015-04-08T12:36:45Z</time>
      </trkpt>
      <trkpt lat="46.16701" lon="2.48071">
        <ele>467</ele>
        <time>2015-04-08T12:36:47Z</time>
      </trkpt>
      <trkpt lat="46.16698" lon="2.48071">
        <ele>467</ele>
        <time>2015-04-08T12:36:49Z</time>
      </trkpt>
      <trkpt lat="46.16695" lon="2.48071">
        <ele>467</ele>
        <time>2015-04-08T12:36:51Z</time>
      </trkpt>
      <trkpt lat="46.16692" lon="2.48071">
        <ele>467</ele>
        <time>2015-04-08T12:36:53Z</time>
      </trkpt>
      <trkpt lat="46.1669" lon="2.4807">
        <ele>467</ele>
        <time>2015-04-08T12:36:55Z</time>
      </trkpt>
      <trkpt lat="46.16687" lon="2.4807">
        <ele>467</ele>
        <time>2015-04-08T12:36:58Z</time>
      </trkpt>
      <trkpt lat="46.16683" lon="2.48071">
        <ele>467</ele>
        <time>2015-04-08T12:37:00Z</time>
      </trkpt>
      <trkpt lat="46.1668" lon="2.4807">
        <ele>467</ele>
        <time>2015-04-08T12:37:03Z</time>
      </trkpt>
      <trkpt lat="46.16676" lon="2.4807">
        <ele>467</ele>
        <time>2015-04-08T12:37:05Z</time>
      </trkpt>
      <trkpt lat="46.16673" lon="2.4807">
        <ele>467</ele>
        <time>2015-04-08T12:37:07Z</time>
      </trkpt>
      <trkpt lat="46.1667" lon="2.4807">
        <ele>467</ele>
        <time>2015-04-08T12:37:09Z</time>
      </trkpt>
      <trkpt lat="46.16667" lon="2.4807">
        <ele>467</ele>
        <time>2015-04-08T12:37:11Z</time>
      </trkpt>
      <trkpt lat="46.16664" lon="2.48069">
        <ele>467</ele>
        <time>2015-04-08T12:37:13Z</time>
      </trkpt>
      <trkpt lat="46.16661" lon="2.48069">
        <ele>467</ele>
        <time>2015-04-08T12:37:15Z</time>
      </trkpt>
      <trkpt lat="46.16658" lon="2.48068">
        <ele>467</ele>
        <time>2015-04-08T12:37:18Z</time>
      </trkpt>
      <trkpt lat="46.16654" lon="2.48068">
        <ele>467</ele>
        <time>2015-04-08T12:37:20Z</time>
      </trkpt>
      <trkpt lat="46.16651" lon="2.48068">
        <ele>467</ele>
        <time>2015-04-08T12:37:22Z</time>
      </trkpt>
      <trkpt lat="46.16648" lon="2.48068">
        <ele>467</ele>
        <time>2015-04-08T12:37:24Z</time>
      </trkpt>
      <trkpt lat="46.16646" lon="2.48068">
        <ele>467</ele>
        <time>2015-04-08T12:37:26Z</time>
      </trkpt>
      <trkpt lat="46.16643" lon="2.48067">
        <ele>467</ele>
        <time>2015-04-08T12:37:28Z</time>
      </trkpt>
      <trkpt lat="46.1664" lon="2.48067">
        <ele>467</ele>
        <time>2015-04-08T12:37:30Z</time>
      </trkpt>
      <trkpt lat="46.16637" lon="2.48067">
        <ele>467</ele>
        <time>2015-04-08T12:37:32Z</time>
      </trkpt>
      <trkpt lat="46.16634" lon="2.48067">
        <ele>467</ele>
        <time>2015-04-08T12:37:34Z</time>
      </trkpt>
      <trkpt lat="46.16632" lon="2.48067">
        <ele>467</ele>
        <time>2015-04-08T12:37:36Z</time>
      </trkpt>
      <trkpt lat="46.16629" lon="2.48067">
        <ele>467</ele>
        <time>2015-04-08T12:37:38Z</time>
      </trkpt>
      <trkpt lat="46.16626" lon="2.48066">
        <ele>467</ele>
        <time>2015-04-08T12:37:40Z</time>
      </trkpt>
      <trkpt lat="46.16624" lon="2.48065">
        <ele>467</ele>
        <time>2015-04-08T12:37:42Z</time>
      </trkpt>
      <trkpt lat="46.16621" lon="2.48063">
        <ele>467</ele>
        <time>2015-04-08T12:37:44Z</time>
      </trkpt>
      <trkpt lat="46.16618" lon="2.48061">
        <ele>467</ele>
        <time>2015-04-08T12:37:46Z</time>
      </trkpt>
      <trkpt lat="46.16616" lon="2.48058">
        <ele>467</ele>
        <time>2015-04-08T12:37:48Z</time>
      </trkpt>
      <trkpt lat="46.16614" lon="2.48055">
        <ele>467</ele>
        <time>2015-04-08T12:37:50Z</time>
      </trkpt>
      <trkpt lat="46.16611" lon="2.48051">
        <ele>467</ele>
        <time>2015-04-08T12:37:53Z</time>
      </trkpt>
      <trkpt lat="46.1661" lon="2.48048">
        <ele>467</ele>
        <time>2015-04-08T12:37:55Z</time>
      </trkpt>
      <trkpt lat="46.16608" lon="2.48045">
        <ele>467</ele>
        <time>2015-04-08T12:37:57Z</time>
      </trkpt>
      <trkpt lat="46.16605" lon="2.48042">
        <ele>467</ele>
        <time>2015-04-08T12:37:59Z</time>
      </trkpt>
      <trkpt lat="46.16603" lon="2.48039">
        <ele>467</ele>
        <time>2015-04-08T12:38:01Z</time>
      </trkpt>
      <trkpt lat="46.166" lon="2.48035">
        <ele>467</ele>
        <time>2015-04-08T12:38:04Z</time>
      </trkpt>
      <trkpt lat="46.16598" lon="2.48032">
        <ele>467</ele>
        <time>2015-04-08T12:38:06Z</time>
      </trkpt>
      <trkpt lat="46.16596" lon="2.48028">
        <ele>467</ele>
        <time>2015-04-08T12:38:08Z</time>
      </trkpt>
      <trkpt lat="46.16593" lon="2.48025">
        <ele>467</ele>
        <time>2015-04-08T12:38:10Z</time>
      </trkpt>
      <trkpt lat="46.16591" lon="2.48023">
        <ele>467</ele>
        <time>2015-04-08T12:38:12Z</time>
      </trkpt>
      <trkpt lat="46.16588" lon="2.4802">
        <ele>467</ele>
        <time>2015-04-08T12:38:14Z</time>
      </trkpt>
      <trkpt lat="46.16585" lon="2.48018">
        <ele>467</ele>
        <time>2015-04-08T12:38:16Z</time>
      </trkpt>
      <trkpt lat="46.16583" lon="2.48016">
        <ele>467</ele>
        <time>2015-04-08T12:38:18Z</time>
      </trkpt>
      <trkpt lat="46.1658" lon="2.48013">
        <ele>467</ele>
        <time>2015-04-08T12:38:20Z</time>
      </trkpt>
      <trkpt lat="46.16578" lon="2.4801">
        <ele>467</ele>
        <time>2015-04-08T12:38:22Z</time>
      </trkpt>
      <trkpt lat="46.16575" lon="2.48008">
        <ele>467</ele>
        <time>2015-04-08T12:38:24Z</time>
      </trkpt>
      <trkpt lat="46.16573" lon="2.48007">
        <ele>467</ele>
        <time>2015-04-08T12:38:26Z</time>
      </trkpt>
      <trkpt lat="46.1657" lon="2.48006">
        <ele>467</ele>
        <time>2015-04-08T12:38:28Z</time>
      </trkpt>
      <trkpt lat="46.16568" lon="2.48004">
        <ele>467</ele>
        <time>2015-04-08T12:38:30Z</time>
      </trkpt>
      <trkpt lat="46.16565" lon="2.48001">
        <ele>467</ele>
        <time>2015-04-08T12:38:32Z</time>
      </trkpt>
      <trkpt lat="46.16563" lon="2.47999">
        <ele>467</ele>
        <time>2015-04-08T12:38:34Z</time>
      </trkpt>
      <trkpt lat="46.1656" lon="2.47997">
        <ele>467</ele>
        <time>2015-04-08T12:38:36Z</time>
      </trkpt>
      <trkpt lat="46.16557" lon="2.47994">
        <ele>467</ele>
        <time>2015-04-08T12:38:38Z</time>
      </trkpt>
      <trkpt lat="46.16555" lon="2.47992">
        <ele>467</ele>
        <time>2015-04-08T12:38:40Z</time>
      </trkpt>
      <trkpt lat="46.16552" lon="2.4799">
        <ele>467</ele>
        <time>2015-04-08T12:38:42Z</time>
      </trkpt>
      <trkpt lat="46.1655" lon="2.47988">
        <ele>467</ele>
        <time>2015-04-08T12:38:44Z</time>
      </trkpt>
      <trkpt lat="46.16547" lon="2.47986">
        <ele>467</ele>
        <time>2015-04-08T12:38:46Z</time>
      </trkpt>
      <trkpt lat="46.16544" lon="2.47984">
        <ele>467</ele>
        <time>2015-04-08T12:38:48Z</time>
      </trkpt>
      <trkpt lat="46.16542" lon="2.47982">
        <ele>467</ele>
        <time>2015-04-08T12:38:50Z</time>
      </trkpt>
      <trkpt lat="46.16539" lon="2.4798">
        <ele>467</ele>
        <time>2015-04-08T12:38:52Z</time>
      </trkpt>
      <trkpt lat="46.16536" lon="2.47978">
        <ele>467</ele>
        <time>2015-04-08T12:38:54Z</time>
      </trkpt>
      <trkpt lat="46.16534" lon="2.47976">
        <ele>467</ele>
        <time>2015-04-08T12:38:56Z</time>
      </trkpt>
      <trkpt lat="46.16531" lon="2.47974">
        <ele>467</ele>
        <time>2015-04-08T12:38:58Z</time>
      </trkpt>
      <trkpt lat="46.16529" lon="2.47972">
        <ele>467</ele>
        <time>2015-04-08T12:39:00Z</time>
      </trkpt>
      <trkpt lat="46.16526" lon="2.4797">
        <ele>467</ele>
        <time>2015-04-08T12:39:02Z</time>
      </trkpt>
      <trkpt lat="46.16523" lon="2.47968">
        <ele>467</ele>
        <time>2015-04-08T12:39:04Z</time>
      </trkpt>
      <trkpt lat="46.1652" lon="2.47966">
        <ele>467</ele>
        <time>2015-04-08T12:39:06Z</time>
      </trkpt>
      <trkpt lat="46.16518" lon="2.47964">
        <ele>467</ele>
        <time>2015-04-08T12:39:08Z</time>
      </trkpt>
      <trkpt lat="46.16516" lon="2.47962">
        <ele>467</ele>
        <time>2015-04-08T12:39:10Z</time>
      </trkpt>
      <trkpt lat="46.16513" lon="2.4796">
        <ele>467</ele>
        <time>2015-04-08T12:39:12Z</time>
      </trkpt>
      <trkpt lat="46.1651" lon="2.47958">
        <ele>467</ele>
        <time>2015-04-08T12:39:14Z</time>
      </trkpt>
      <trkpt lat="46.16508" lon="2.47956">
        <ele>467</ele>
        <time>2015-04-08T12:39:16Z</time>
      </trkpt>
      <trkpt lat="46.16505" lon="2.47954">
        <ele>467</ele>
        <time>2015-04-08T12:39:18Z</time>
      </trkpt>
      <trkpt lat="46.16503" lon="2.47952">
        <ele>467</ele>
        <time>2015-04-08T12:39:20Z</time>
      </trkpt>
      <trkpt lat="46.16501" lon="2.4795">
        <ele>467</ele>
        <time>2015-04-08T12:39:22Z</time>
      </trkpt>
      <trkpt lat="46.16498" lon="2.47948">
        <ele>467</ele>
        <time>2015-04-08T12:39:24Z</time>
      </trkpt>
      <trkpt lat="46.16496" lon="2.47946">
        <ele>467</ele>
        <time>2015-04-08T12:39:26Z</time>
      </trkpt>
      <trkpt lat="46.16494" lon="2.47943">
        <ele>467</ele>
        <time>2015-04-08T12:39:28Z</time>
      </trkpt>
      <trkpt lat="46.16491" lon="2.4794">
        <ele>467</ele>
        <time>2015-04-08T12:39:30Z</time>
      </trkpt>
      <trkpt lat="46.16488" lon="2.47936">
        <ele>467</ele>
        <time>2015-04-08T12:39:33Z</time>
      </trkpt>
      <trkpt lat="46.16486" lon="2.47933">
        <ele>467</ele>
        <time>2015-04-08T12:39:35Z</time>
      </trkpt>
      <trkpt lat="46.16485" lon="2.47929">
        <ele>467</ele>
        <time>2015-04-08T12:39:37Z</time>
      </trkpt>
      <trkpt lat="46.16483" lon="2.47924">
        <ele>467</ele>
        <time>2015-04-08T12:39:39Z</time>
      </trkpt>
      <trkpt lat="46.16481" lon="2.47921">
        <ele>467</ele>
        <time>2015-04-08T12:39:41Z</time>
      </trkpt>
      <trkpt lat="46.1648" lon="2.47917">
        <ele>467</ele>
        <time>2015-04-08T12:39:43Z</time>
      </trkpt>
      <trkpt lat="46.16478" lon="2.47913">
        <ele>467</ele>
        <time>2015-04-08T12:39:45Z</time>
      </trkpt>
      <trkpt lat="46.16477" lon="2.47909">
        <ele>467</ele>
        <time>2015-04-08T12:39:47Z</time>
      </trkpt>
      <trkpt lat="46.16476" lon="2.47906">
        <ele>467</ele>
        <time>2015-04-08T12:39:49Z</time>
      </trkpt>
      <trkpt lat="46.16475" lon="2.47902">
        <ele>467</ele>
        <time>2015-04-08T12:39:51Z</time>
      </trkpt>
      <trkpt lat="46.16474" lon="2.47899">
        <ele>467</ele>
        <time>2015-04-08T12:39:53Z</time>
      </trkpt>
      <trkpt lat="46.16473" lon="2.47895">
        <ele>467</ele>
        <time>2015-04-08T12:39:55Z</time>
      </trkpt>
      <trkpt lat="46.16471" lon="2.47891">
        <ele>467</ele>
        <time>2015-04-08T12:39:57Z</time>
      </trkpt>
      <trkpt lat="46.1647" lon="2.47888">
        <ele>467</ele>
        <time>2015-04-08T12:39:59Z</time>
      </trkpt>
      <trkpt lat="46.16468" lon="2.47884">
        <ele>467</ele>
        <time>2015-04-08T12:40:01Z</time>
      </trkpt>
      <trkpt lat="46.16467" lon="2.47882">
        <ele>467</ele>
        <time>2015-04-08T12:40:03Z</time>
      </trkpt>
      <trkpt lat="46.16464" lon="2.4788">
        <ele>467</ele>
        <time>2015-04-08T12:40:05Z</time>
      </trkpt>
      <trkpt lat="46.16462" lon="2.47878">
        <ele>467</ele>
        <time>2015-04-08T12:40:07Z</time>
      </trkpt>
      <trkpt lat="46.16459" lon="2.47876">
        <ele>467</ele>
        <time>2015-04-08T12:40:09Z</time>
      </trkpt>
      <trkpt lat="46.16456" lon="2.47875">
        <ele>467</ele>
        <time>2015-04-08T12:40:11Z</time>
      </trkpt>
      <trkpt lat="46.16454" lon="2.47875">
        <ele>467</ele>
        <time>2015-04-08T12:40:13Z</time>
      </trkpt>
      <trkpt lat="46.16451" lon="2.47874">
        <ele>467</ele>
        <time>2015-04-08T12:40:15Z</time>
      </trkpt>
      <trkpt lat="46.16448" lon="2.47875">
        <ele>467</ele>
        <time>2015-04-08T12:40:17Z</time>
      </trkpt>
      <trkpt lat="46.16445" lon="2.47876">
        <ele>467</ele>
        <time>2015-04-08T12:40:19Z</time>
      </trkpt>
      <trkpt lat="46.16442" lon="2.47877">
        <ele>467</ele>
        <time>2015-04-08T12:40:21Z</time>
      </trkpt>
      <trkpt lat="46.16439" lon="2.47878">
        <ele>467</ele>
        <time>2015-04-08T12:40:23Z</time>
      </trkpt>
      <trkpt lat="46.16437" lon="2.4788">
        <ele>467</ele>
        <time>2015-04-08T12:40:25Z</time>
      </trkpt>
      <trkpt lat="46.16434" lon="2.47882">
        <ele>467</ele>
        <time>2015-04-08T12:40:27Z</time>
      </trkpt>
      <trkpt lat="46.16432" lon="2.47883">
        <ele>467</ele>
        <time>2015-04-08T12:40:29Z</time>
      </trkpt>
      <trkpt lat="46.16429" lon="2.47885">
        <ele>467</ele>
        <time>2015-04-08T12:40:31Z</time>
      </trkpt>
      <trkpt lat="46.16427" lon="2.47886">
        <ele>468</ele>
        <time>2015-04-08T12:40:33Z</time>
      </trkpt>
      <trkpt lat="46.16424" lon="2.47888">
        <ele>468</ele>
        <time>2015-04-08T12:40:35Z</time>
      </trkpt>
      <trkpt lat="46.16421" lon="2.47889">
        <ele>468</ele>
        <time>2015-04-08T12:40:37Z</time>
      </trkpt>
      <trkpt lat="46.16418" lon="2.47889">
        <ele>468</ele>
        <time>2015-04-08T12:40:39Z</time>
      </trkpt>
      <trkpt lat="46.16416" lon="2.4789">
        <ele>468</ele>
        <time>2015-04-08T12:40:41Z</time>
      </trkpt>
      <trkpt lat="46.16413" lon="2.4789">
        <ele>468</ele>
        <time>2015-04-08T12:40:43Z</time>
      </trkpt>
      <trkpt lat="46.1641" lon="2.4789">
        <ele>468</ele>
        <time>2015-04-08T12:40:45Z</time>
      </trkpt>
      <trkpt lat="46.16407" lon="2.47889">
        <ele>468</ele>
        <time>2015-04-08T12:40:47Z</time>
      </trkpt>
      <trkpt lat="46.16404" lon="2.47889">
        <ele>468</ele>
        <time>2015-04-08T12:40:49Z</time>
      </trkpt>
      <trkpt lat="46.16401" lon="2.47887">
        <ele>468</ele>
        <time>2015-04-08T12:40:51Z</time>
      </trkpt>
      <trkpt lat="46.16398" lon="2.47886">
        <ele>468</ele>
        <time>2015-04-08T12:40:53Z</time>
      </trkpt>
      <trkpt lat="46.16395" lon="2.47886">
        <ele>468</ele>
        <time>2015-04-08T12:40:55Z</time>
      </trkpt>
      <trkpt lat="46.16393" lon="2.47886">
        <ele>468</ele>
        <time>2015-04-08T12:40:57Z</time>
      </trkpt>
      <trkpt lat="46.1639" lon="2.47886">
        <ele>468</ele>
        <time>2015-04-08T12:40:59Z</time>
      </trkpt>
      <trkpt lat="46.16388" lon="2.47885">
        <ele>468</ele>
        <time>2015-04-08T12:41:01Z</time>
      </trkpt>
      <trkpt lat="46.16385" lon="2.47883">
        <ele>468</ele>
        <time>2015-04-08T12:41:03Z</time>
      </trkpt>
      <trkpt lat="46.16382" lon="2.47882">
        <ele>468</ele>
        <time>2015-04-08T12:41:05Z</time>
      </trkpt>
      <trkpt lat="46.16379" lon="2.4788">
        <ele>468</ele>
        <time>2015-04-08T12:41:07Z</time>
      </trkpt>
      <trkpt lat="46.16376" lon="2.47878">
        <ele>468</ele>
        <time>2015-04-08T12:41:09Z</time>
      </trkpt>
      <trkpt lat="46.16373" lon="2.47877">
        <ele>468</ele>
        <time>2015-04-08T12:41:11Z</time>
      </trkpt>
      <trkpt lat="46.1637" lon="2.47875">
        <ele>468</ele>
        <time>2015-04-08T12:41:13Z</time>
      </trkpt>
      <trkpt lat="46.16367" lon="2.47873">
        <ele>468</ele>
        <time>2015-04-08T12:41:15Z</time>
      </trkpt>
      <trkpt lat="46.16364" lon="2.47872">
        <ele>468</ele>
        <time>2015-04-08T12:41:17Z</time>
      </trkpt>
      <trkpt lat="46.16362" lon="2.4787">
        <ele>468</ele>
        <time>2015-04-08T12:41:19Z</time>
      </trkpt>
      <trkpt lat="46.16359" lon="2.47869">
        <ele>468</ele>
        <time>2015-04-08T12:41:21Z</time>
      </trkpt>
      <trkpt lat="46.16356" lon="2.47867">
        <ele>468</ele>
        <time>2015-04-08T12:41:23Z</time>
      </trkpt>
      <trkpt lat="46.16353" lon="2.47866">
        <ele>468</ele>
        <time>2015-04-08T12:41:25Z</time>
      </trkpt>
      <trkpt lat="46.1635" lon="2.47865">
        <ele>468</ele>
        <time>2015-04-08T12:41:27Z</time>
      </trkpt>
      <trkpt lat="46.16347" lon="2.47863">
        <ele>468</ele>
        <time>2015-04-08T12:41:29Z</time>
      </trkpt>
      <trkpt lat="46.16344" lon="2.47862">
        <ele>468</ele>
        <time>2015-04-08T12:41:31Z</time>
      </trkpt>
      <trkpt lat="46.16341" lon="2.47861">
        <ele>468</ele>
        <time>2015-04-08T12:41:33Z</time>
      </trkpt>
      <trkpt lat="46.16338" lon="2.47859">
        <ele>468</ele>
        <time>2015-04-08T12:41:35Z</time>
      </trkpt>
      <trkpt lat="46.16336" lon="2.47858">
        <ele>468</ele>
        <time>2015-04-08T12:41:37Z</time>
      </trkpt>
      <trkpt lat="46.16333" lon="2.47857">
        <ele>468</ele>
        <time>2015-04-08T12:41:39Z</time>
      </trkpt>
      <trkpt lat="46.16329" lon="2.47855">
        <ele>468</ele>
        <time>2015-04-08T12:41:41Z</time>
      </trkpt>
      <trkpt lat="46.16326" lon="2.47854">
        <ele>468</ele>
        <time>2015-04-08T12:41:43Z</time>
      </trkpt>
      <trkpt lat="46.16323" lon="2.47852">
        <ele>468</ele>
        <time>2015-04-08T12:41:45Z</time>
      </trkpt>
      <trkpt lat="46.1632" lon="2.47851">
        <ele>468</ele>
        <time>2015-04-08T12:41:47Z</time>
      </trkpt>
      <trkpt lat="46.16317" lon="2.47849">
        <ele>468</ele>
        <time>2015-04-08T12:41:49Z</time>
      </trkpt>
      <trkpt lat="46.16314" lon="2.47848">
        <ele>468</ele>
        <time>2015-04-08T12:41:51Z</time>
      </trkpt>
      <trkpt lat="46.16311" lon="2.47847">
        <ele>468</ele>
        <time>2015-04-08T12:41:53Z</time>
      </trkpt>
      <trkpt lat="46.16308" lon="2.47845">
        <ele>468</ele>
        <time>2015-04-08T12:41:55Z</time>
      </trkpt>
      <trkpt lat="46.16306" lon="2.47844">
        <ele>468</ele>
        <time>2015-04-08T12:41:57Z</time>
      </trkpt>
      <trkpt lat="46.16303" lon="2.47843">
        <ele>468</ele>
        <time>2015-04-08T12:41:59Z</time>
      </trkpt>
      <trkpt lat="46.163" lon="2.47843">
        <ele>468</ele>
        <time>2015-04-08T12:42:01Z</time>
      </trkpt>
      <trkpt lat="46.16298" lon="2.47843">
        <ele>468</ele>
        <time>2015-04-08T12:42:03Z</time>
      </trkpt>
      <trkpt lat="46.16294" lon="2.47842">
        <ele>468</ele>
        <time>2015-04-08T12:42:05Z</time>
      </trkpt>
      <trkpt lat="46.16291" lon="2.4784">
        <ele>468</ele>
        <time>2015-04-08T12:42:07Z</time>
      </trkpt>
      <trkpt lat="46.16288" lon="2.47839">
        <ele>468</ele>
        <time>2015-04-08T12:42:09Z</time>
      </trkpt>
      <trkpt lat="46.16285" lon="2.47838">
        <ele>468</ele>
        <time>2015-04-08T12:42:11Z</time>
      </trkpt>
      <trkpt lat="46.16283" lon="2.47836">
        <ele>468</ele>
        <time>2015-04-08T12:42:13Z</time>
      </trkpt>
      <trkpt lat="46.1628" lon="2.47835">
        <ele>468</ele>
        <time>2015-04-08T12:42:15Z</time>
      </trkpt>
      <trkpt lat="46.16277" lon="2.47834">
        <ele>468</ele>
        <time>2015-04-08T12:42:17Z</time>
      </trkpt>
      <trkpt lat="46.16274" lon="2.47833">
        <ele>468</ele>
        <time>2015-04-08T12:42:19Z</time>
      </trkpt>
      <trkpt lat="46.16271" lon="2.47832">
        <ele>468</ele>
        <time>2015-04-08T12:42:21Z</time>
      </trkpt>
      <trkpt lat="46.16267" lon="2.4783">
        <ele>468</ele>
        <time>2015-04-08T12:42:23Z</time>
      </trkpt>
      <trkpt lat="46.16265" lon="2.47829">
        <ele>468</ele>
        <time>2015-04-08T12:42:25Z</time>
      </trkpt>
      <trkpt lat="46.16262" lon="2.47828">
        <ele>468</ele>
        <time>2015-04-08T12:42:27Z</time>
      </trkpt>
      <trkpt lat="46.16259" lon="2.47827">
        <ele>468</ele>
        <time>2015-04-08T12:42:29Z</time>
      </trkpt>
      <trkpt lat="46.16256" lon="2.47825">
        <ele>468</ele>
        <time>2015-04-08T12:42:31Z</time>
      </trkpt>
      <trkpt lat="46.16253" lon="2.47824">
        <ele>468</ele>
        <time>2015-04-08T12:42:33Z</time>
      </trkpt>
      <trkpt lat="46.1625" lon="2.47823">
        <ele>468</ele>
        <time>2015-04-08T12:42:35Z</time>
      </trkpt>
      <trkpt lat="46.16248" lon="2.47821">
        <ele>468</ele>
        <time>2015-04-08T12:42:37Z</time>
      </trkpt>
      <trkpt lat="46.16245" lon="2.4782">
        <ele>468</ele>
        <time>2015-04-08T12:42:39Z</time>
      </trkpt>
      <trkpt lat="46.16242" lon="2.47819">
        <ele>468</ele>
        <time>2015-04-08T12:42:41Z</time>
      </trkpt>
      <trkpt lat="46.16239" lon="2.47818">
        <ele>468</ele>
        <time>2015-04-08T12:42:43Z</time>
      </trkpt>
      <trkpt lat="46.16237" lon="2.47816">
        <ele>468</ele>
        <time>2015-04-08T12:42:45Z</time>
      </trkpt>
      <trkpt lat="46.16234" lon="2.47815">
        <ele>468</ele>
        <time>2015-04-08T12:42:47Z</time>
      </trkpt>
      <trkpt lat="46.16231" lon="2.47813">
        <ele>468</ele>
        <time>2015-04-08T12:42:49Z</time>
      </trkpt>
      <trkpt lat="46.16228" lon="2.47812">
        <ele>468</ele>
        <time>2015-04-08T12:42:51Z</time>
      </trkpt>
      <trkpt lat="46.16225" lon="2.47811">
        <ele>468</ele>
        <time>2015-04-08T12:42:53Z</time>
      </trkpt>
      <trkpt lat="46.16222" lon="2.47809">
        <ele>468</ele>
        <time>2015-04-08T12:42:55Z</time>
      </trkpt>
      <trkpt lat="46.16219" lon="2.47807">
        <ele>468</ele>
        <time>2015-04-08T12:42:57Z</time>
      </trkpt>
      <trkpt lat="46.16217" lon="2.47806">
        <ele>468</ele>
        <time>2015-04-08T12:42:59Z</time>
      </trkpt>
      <trkpt lat="46.16214" lon="2.47804">
        <ele>468</ele>
        <time>2015-04-08T12:43:01Z</time>
      </trkpt>
      <trkpt lat="46.16211" lon="2.47803">
        <ele>468</ele>
        <time>2015-04-08T12:43:03Z</time>
      </trkpt>
      <trkpt lat="46.16208" lon="2.47801">
        <ele>468</ele>
        <time>2015-04-08T12:43:05Z</time>
      </trkpt>
      <trkpt lat="46.16206" lon="2.478">
        <ele>468</ele>
        <time>2015-04-08T12:43:07Z</time>
      </trkpt>
      <trkpt lat="46.16203" lon="2.47798">
        <ele>468</ele>
        <time>2015-04-08T12:43:09Z</time>
      </trkpt>
      <trkpt lat="46.162" lon="2.47797">
        <ele>468</ele>
        <time>2015-04-08T12:43:11Z</time>
      </trkpt>
      <trkpt lat="46.16197" lon="2.47796">
        <ele>468</ele>
        <time>2015-04-08T12:43:13Z</time>
      </trkpt>
      <trkpt lat="46.16194" lon="2.47794">
        <ele>468</ele>
        <time>2015-04-08T12:43:15Z</time>
      </trkpt>
      <trkpt lat="46.16191" lon="2.47793">
        <ele>468</ele>
        <time>2015-04-08T12:43:17Z</time>
      </trkpt>
      <trkpt lat="46.16188" lon="2.47792">
        <ele>468</ele>
        <time>2015-04-08T12:43:19Z</time>
      </trkpt>
      <trkpt lat="46.16185" lon="2.47791">
        <ele>468</ele>
        <time>2015-04-08T12:43:21Z</time>
      </trkpt>
      <trkpt lat="46.16183" lon="2.47789">
        <ele>468</ele>
        <time>2015-04-08T12:43:23Z</time>
      </trkpt>
      <trkpt lat="46.1618" lon="2.47788">
        <ele>468</ele>
        <time>2015-04-08T12:43:25Z</time>
      </trkpt>
      <trkpt lat="46.16177" lon="2.47787">
        <ele>468</ele>
        <time>2015-04-08T12:43:27Z</time>
      </trkpt>
      <trkpt lat="46.16174" lon="2.47786">
        <ele>468</ele>
        <time>2015-04-08T12:43:29Z</time>
      </trkpt>
      <trkpt lat="46.16172" lon="2.47785">
        <ele>468</ele>
        <time>2015-04-08T12:43:31Z</time>
      </trkpt>
      <trkpt lat="46.16169" lon="2.47784">
        <ele>468</ele>
        <time>2015-04-08T12:43:33Z</time>
      </trkpt>
      <trkpt lat="46.16167" lon="2.47782">
        <ele>468</ele>
        <time>2015-04-08T12:43:35Z</time>
      </trkpt>
      <trkpt lat="46.16163" lon="2.47781">
        <ele>468</ele>
        <time>2015-04-08T12:43:37Z</time>
      </trkpt>
      <trkpt lat="46.16161" lon="2.47779">
        <ele>468</ele>
        <time>2015-04-08T12:43:39Z</time>
      </trkpt>
      <trkpt lat="46.16158" lon="2.47778">
        <ele>468</ele>
        <time>2015-04-08T12:43:41Z</time>
      </trkpt>
      <trkpt lat="46.16155" lon="2.47776">
        <ele>468</ele>
        <time>2015-04-08T12:43:43Z</time>
      </trkpt>
      <trkpt lat="46.16153" lon="2.47775">
        <ele>468</ele>
        <time>2015-04-08T12:43:45Z</time>
      </trkpt>
      <trkpt lat="46.1615" lon="2.47774">
        <ele>468</ele>
        <time>2015-04-08T12:43:47Z</time>
      </trkpt>
      <trkpt lat="46.16148" lon="2.47773">
        <ele>468</ele>
        <time>2015-04-08T12:43:49Z</time>
      </trkpt>
      <trkpt lat="46.16145" lon="2.47771">
        <ele>468</ele>
        <time>2015-04-08T12:43:51Z</time>
      </trkpt>
      <trkpt lat="46.16142" lon="2.4777">
        <ele>468</ele>
        <time>2015-04-08T12:43:53Z</time>
      </trkpt>
      <trkpt lat="46.16139" lon="2.47769">
        <ele>468</ele>
        <time>2015-04-08T12:43:55Z</time>
      </trkpt>
      <trkpt lat="46.16136" lon="2.47768">
        <ele>468</ele>
        <time>2015-04-08T12:43:57Z</time>
      </trkpt>
      <trkpt lat="46.16133" lon="2.47766">
        <ele>468</ele>
        <time>2015-04-08T12:43:59Z</time>
      </trkpt>
      <trkpt lat="46.16131" lon="2.47765">
        <ele>468</ele>
        <time>2015-04-08T12:44:01Z</time>
      </trkpt>
      <trkpt lat="46.16128" lon="2.47764">
        <ele>468</ele>
        <time>2015-04-08T12:44:03Z</time>
      </trkpt>
      <trkpt lat="46.16125" lon="2.47763">
        <ele>468</ele>
        <time>2015-04-08T12:44:05Z</time>
      </trkpt>
      <trkpt lat="46.16123" lon="2.47762">
        <ele>467</ele>
        <time>2015-04-08T12:44:07Z</time>
      </trkpt>
      <trkpt lat="46.1612" lon="2.47761">
        <ele>467</ele>
        <time>2015-04-08T12:44:09Z</time>
      </trkpt>
      <trkpt lat="46.16117" lon="2.4776">
        <ele>467</ele>
        <time>2015-04-08T12:44:11Z</time>
      </trkpt>
      <trkpt lat="46.16114" lon="2.47759">
        <ele>467</ele>
        <time>2015-04-08T12:44:13Z</time>
      </trkpt>
      <trkpt lat="46.16111" lon="2.47758">
        <ele>467</ele>
        <time>2015-04-08T12:44:15Z</time>
      </trkpt>
      <trkpt lat="46.16108" lon="2.47757">
        <ele>467</ele>
        <time>2015-04-08T12:44:17Z</time>
      </trkpt>
      <trkpt lat="46.16106" lon="2.47756">
        <ele>467</ele>
        <time>2015-04-08T12:44:19Z</time>
      </trkpt>
      <trkpt lat="46.16103" lon="2.47755">
        <ele>467</ele>
        <time>2015-04-08T12:44:21Z</time>
      </trkpt>
      <trkpt lat="46.161" lon="2.47754">
        <ele>467</ele>
        <time>2015-04-08T12:44:23Z</time>
      </trkpt>
      <trkpt lat="46.16096" lon="2.47752">
        <ele>467</ele>
        <time>2015-04-08T12:44:25Z</time>
      </trkpt>
      <trkpt lat="46.16093" lon="2.47751">
        <ele>467</ele>
        <time>2015-04-08T12:44:27Z</time>
      </trkpt>
      <trkpt lat="46.1609" lon="2.4775">
        <ele>467</ele>
        <time>2015-04-08T12:44:29Z</time>
      </trkpt>
      <trkpt lat="46.16087" lon="2.47749">
        <ele>467</ele>
        <time>2015-04-08T12:44:31Z</time>
      </trkpt>
      <trkpt lat="46.16084" lon="2.47748">
        <ele>467</ele>
        <time>2015-04-08T12:44:33Z</time>
      </trkpt>
      <trkpt lat="46.16081" lon="2.47747">
        <ele>467</ele>
        <time>2015-04-08T12:44:35Z</time>
      </trkpt>
      <trkpt lat="46.16078" lon="2.47747">
        <ele>467</ele>
        <time>2015-04-08T12:44:37Z</time>
      </trkpt>
      <trkpt lat="46.16075" lon="2.47746">
        <ele>467</ele>
        <time>2015-04-08T12:44:39Z</time>
      </trkpt>
      <trkpt lat="46.16072" lon="2.47746">
        <ele>467</ele>
        <time>2015-04-08T12:44:41Z</time>
      </trkpt>
      <trkpt lat="46.16069" lon="2.47745">
        <ele>467</ele>
        <time>2015-04-08T12:44:43Z</time>
      </trkpt>
      <trkpt lat="46.16066" lon="2.47744">
        <ele>467</ele>
        <time>2015-04-08T12:44:45Z</time>
      </trkpt>
      <trkpt lat="46.16064" lon="2.47744">
        <ele>467</ele>
        <time>2015-04-08T12:44:47Z</time>
      </trkpt>
      <trkpt lat="46.16061" lon="2.47743">
        <ele>467</ele>
        <time>2015-04-08T12:44:49Z</time>
      </trkpt>
      <trkpt lat="46.16058" lon="2.47742">
        <ele>467</ele>
        <time>2015-04-08T12:44:51Z</time>
      </trkpt>
      <trkpt lat="46.16054" lon="2.47741">
        <ele>467</ele>
        <time>2015-04-08T12:44:53Z</time>
      </trkpt>
      <trkpt lat="46.16051" lon="2.4774">
        <ele>467</ele>
        <time>2015-04-08T12:44:55Z</time>
      </trkpt>
      <trkpt lat="46.16048" lon="2.47739">
        <ele>467</ele>
        <time>2015-04-08T12:44:57Z</time>
      </trkpt>
      <trkpt lat="46.16045" lon="2.47737">
        <ele>467</ele>
        <time>2015-04-08T12:44:59Z</time>
      </trkpt>
      <trkpt lat="46.16043" lon="2.47737">
        <ele>467</ele>
        <time>2015-04-08T12:45:01Z</time>
      </trkpt>
      <trkpt lat="46.1604" lon="2.47735">
        <ele>467</ele>
        <time>2015-04-08T12:45:03Z</time>
      </trkpt>
      <trkpt lat="46.16037" lon="2.47734">
        <ele>467</ele>
        <time>2015-04-08T12:45:05Z</time>
      </trkpt>
      <trkpt lat="46.16034" lon="2.47733">
        <ele>467</ele>
        <time>2015-04-08T12:45:07Z</time>
      </trkpt>
      <trkpt lat="46.16032" lon="2.47731">
        <ele>467</ele>
        <time>2015-04-08T12:45:09Z</time>
      </trkpt>
      <trkpt lat="46.16029" lon="2.47729">
        <ele>467</ele>
        <time>2015-04-08T12:45:11Z</time>
      </trkpt>
      <trkpt lat="46.16025" lon="2.47727">
        <ele>467</ele>
        <time>2015-04-08T12:45:13Z</time>
      </trkpt>
      <trkpt lat="46.16023" lon="2.47726">
        <ele>467</ele>
        <time>2015-04-08T12:45:15Z</time>
      </trkpt>
      <trkpt lat="46.1602" lon="2.47724">
        <ele>467</ele>
        <time>2015-04-08T12:45:17Z</time>
      </trkpt>
      <trkpt lat="46.16018" lon="2.47722">
        <ele>467</ele>
        <time>2015-04-08T12:45:19Z</time>
      </trkpt>
      <trkpt lat="46.16015" lon="2.47721">
        <ele>467</ele>
        <time>2015-04-08T12:45:21Z</time>
      </trkpt>
      <trkpt lat="46.16013" lon="2.47719">
        <ele>467</ele>
        <time>2015-04-08T12:45:23Z</time>
      </trkpt>
      <trkpt lat="46.16009" lon="2.47715">
        <ele>467</ele>
        <time>2015-04-08T12:45:26Z</time>
      </trkpt>
      <trkpt lat="46.16007" lon="2.47713">
        <ele>467</ele>
        <time>2015-04-08T12:45:28Z</time>
      </trkpt>
      <trkpt lat="46.16004" lon="2.47709">
        <ele>467</ele>
        <time>2015-04-08T12:45:30Z</time>
      </trkpt>
      <trkpt lat="46.16001" lon="2.47706">
        <ele>467</ele>
        <time>2015-04-08T12:45:32Z</time>
      </trkpt>
      <trkpt lat="46.15998" lon="2.47703">
        <ele>467</ele>
        <time>2015-04-08T12:45:34Z</time>
      </trkpt>
      <trkpt lat="46.15995" lon="2.477">
        <ele>467</ele>
        <time>2015-04-08T12:45:36Z</time>
      </trkpt>
      <trkpt lat="46.15993" lon="2.47697">
        <ele>467</ele>
        <time>2015-04-08T12:45:38Z</time>
      </trkpt>
      <trkpt lat="46.1599" lon="2.47693">
        <ele>467</ele>
        <time>2015-04-08T12:45:41Z</time>
      </trkpt>
      <trkpt lat="46.15988" lon="2.4769">
        <ele>467</ele>
        <time>2015-04-08T12:45:43Z</time>
      </trkpt>
      <trkpt lat="46.15986" lon="2.47687">
        <ele>467</ele>
        <time>2015-04-08T12:45:45Z</time>
      </trkpt>
      <trkpt lat="46.15984" lon="2.47684">
        <ele>467</ele>
        <time>2015-04-08T12:45:47Z</time>
      </trkpt>
      <trkpt lat="46.15981" lon="2.47681">
        <ele>467</ele>
        <time>2015-04-08T12:45:49Z</time>
      </trkpt>
      <trkpt lat="46.15979" lon="2.47678">
        <ele>467</ele>
        <time>2015-04-08T12:45:51Z</time>
      </trkpt>
      <trkpt lat="46.15977" lon="2.47675">
        <ele>467</ele>
        <time>2015-04-08T12:45:53Z</time>
      </trkpt>
      <trkpt lat="46.15975" lon="2.47673">
        <ele>467</ele>
        <time>2015-04-08T12:45:55Z</time>
      </trkpt>
      <trkpt lat="46.15973" lon="2.47671">
        <ele>467</ele>
        <time>2015-04-08T12:45:57Z</time>
      </trkpt>
      <trkpt lat="46.1597" lon="2.47667">
        <ele>467</ele>
        <time>2015-04-08T12:45:59Z</time>
      </trkpt>
      <trkpt lat="46.15968" lon="2.47665">
        <ele>467</ele>
        <time>2015-04-08T12:46:01Z</time>
      </trkpt>
      <trkpt lat="46.15966" lon="2.47662">
        <ele>467</ele>
        <time>2015-04-08T12:46:03Z</time>
      </trkpt>
      <trkpt lat="46.15964" lon="2.4766">
        <ele>467</ele>
        <time>2015-04-08T12:46:05Z</time>
      </trkpt>
      <trkpt lat="46.15962" lon="2.47657">
        <ele>467</ele>
        <time>2015-04-08T12:46:07Z</time>
      </trkpt>
      <trkpt lat="46.1596" lon="2.47656">
        <ele>468</ele>
        <time>2015-04-08T12:46:09Z</time>
      </trkpt>
      <trkpt lat="46.15958" lon="2.47653">
        <ele>468</ele>
        <time>2015-04-08T12:46:11Z</time>
      </trkpt>
      <trkpt lat="46.15955" lon="2.47651">
        <ele>468</ele>
        <time>2015-04-08T12:46:13Z</time>
      </trkpt>
      <trkpt lat="46.15953" lon="2.47649">
        <ele>469</ele>
        <time>2015-04-08T12:46:15Z</time>
      </trkpt>
      <trkpt lat="46.1595" lon="2.47646">
        <ele>469</ele>
        <time>2015-04-08T12:46:17Z</time>
      </trkpt>
      <trkpt lat="46.15948" lon="2.47644">
        <ele>469</ele>
        <time>2015-04-08T12:46:19Z</time>
      </trkpt>
      <trkpt lat="46.15945" lon="2.47643">
        <ele>469</ele>
        <time>2015-04-08T12:46:21Z</time>
      </trkpt>
      <trkpt lat="46.15942" lon="2.47641">
        <ele>470</ele>
        <time>2015-04-08T12:46:23Z</time>
      </trkpt>
      <trkpt lat="46.1594" lon="2.4764">
        <ele>470</ele>
        <time>2015-04-08T12:46:25Z</time>
      </trkpt>
      <trkpt lat="46.15937" lon="2.47638">
        <ele>470</ele>
        <time>2015-04-08T12:46:27Z</time>
      </trkpt>
      <trkpt lat="46.15934" lon="2.47636">
        <ele>470</ele>
        <time>2015-04-08T12:46:29Z</time>
      </trkpt>
      <trkpt lat="46.15932" lon="2.47635">
        <ele>470</ele>
        <time>2015-04-08T12:46:31Z</time>
      </trkpt>
      <trkpt lat="46.15929" lon="2.47633">
        <ele>470</ele>
        <time>2015-04-08T12:46:33Z</time>
      </trkpt>
      <trkpt lat="46.15926" lon="2.47631">
        <ele>470</ele>
        <time>2015-04-08T12:46:35Z</time>
      </trkpt>
      <trkpt lat="46.15922" lon="2.47629">
        <ele>470</ele>
        <time>2015-04-08T12:46:37Z</time>
      </trkpt>
      <trkpt lat="46.1592" lon="2.47628">
        <ele>470</ele>
        <time>2015-04-08T12:46:39Z</time>
      </trkpt>
      <trkpt lat="46.15917" lon="2.47626">
        <ele>471</ele>
        <time>2015-04-08T12:46:41Z</time>
      </trkpt>
      <trkpt lat="46.15914" lon="2.47625">
        <ele>471</ele>
        <time>2015-04-08T12:46:43Z</time>
      </trkpt>
      <trkpt lat="46.15911" lon="2.47624">
        <ele>471</ele>
        <time>2015-04-08T12:46:45Z</time>
      </trkpt>
      <trkpt lat="46.15908" lon="2.47622">
        <ele>471</ele>
        <time>2015-04-08T12:46:47Z</time>
      </trkpt>
      <trkpt lat="46.15905" lon="2.47621">
        <ele>471</ele>
        <time>2015-04-08T12:46:49Z</time>
      </trkpt>
      <trkpt lat="46.15903" lon="2.47619">
        <ele>471</ele>
        <time>2015-04-08T12:46:51Z</time>
      </trkpt>
      <trkpt lat="46.159" lon="2.47618">
        <ele>471</ele>
        <time>2015-04-08T12:46:53Z</time>
      </trkpt>
      <trkpt lat="46.15898" lon="2.47617">
        <ele>471</ele>
        <time>2015-04-08T12:46:55Z</time>
      </trkpt>
      <trkpt lat="46.15895" lon="2.47615">
        <ele>471</ele>
        <time>2015-04-08T12:46:57Z</time>
      </trkpt>
      <trkpt lat="46.15892" lon="2.47614">
        <ele>471</ele>
        <time>2015-04-08T12:46:59Z</time>
      </trkpt>
      <trkpt lat="46.1589" lon="2.47613">
        <ele>471</ele>
        <time>2015-04-08T12:47:01Z</time>
      </trkpt>
      <trkpt lat="46.15887" lon="2.47611">
        <ele>471</ele>
        <time>2015-04-08T12:47:03Z</time>
      </trkpt>
      <trkpt lat="46.15885" lon="2.47609">
        <ele>472</ele>
        <time>2015-04-08T12:47:05Z</time>
      </trkpt>
      <trkpt lat="46.15882" lon="2.47608">
        <ele>472</ele>
        <time>2015-04-08T12:47:07Z</time>
      </trkpt>
      <trkpt lat="46.15879" lon="2.47606">
        <ele>472</ele>
        <time>2015-04-08T12:47:09Z</time>
      </trkpt>
      <trkpt lat="46.15876" lon="2.47605">
        <ele>472</ele>
        <time>2015-04-08T12:47:11Z</time>
      </trkpt>
      <trkpt lat="46.15874" lon="2.47603">
        <ele>472</ele>
        <time>2015-04-08T12:47:13Z</time>
      </trkpt>
      <trkpt lat="46.15871" lon="2.47601">
        <ele>472</ele>
        <time>2015-04-08T12:47:15Z</time>
      </trkpt>
      <trkpt lat="46.15868" lon="2.476">
        <ele>472</ele>
        <time>2015-04-08T12:47:17Z</time>
      </trkpt>
      <trkpt lat="46.15865" lon="2.47598">
        <ele>473</ele>
        <time>2015-04-08T12:47:19Z</time>
      </trkpt>
      <trkpt lat="46.15863" lon="2.47596">
        <ele>473</ele>
        <time>2015-04-08T12:47:21Z</time>
      </trkpt>
      <trkpt lat="46.1586" lon="2.47594">
        <ele>473</ele>
        <time>2015-04-08T12:47:23Z</time>
      </trkpt>
      <trkpt lat="46.15857" lon="2.47593">
        <ele>474</ele>
        <time>2015-04-08T12:47:25Z</time>
      </trkpt>
      <trkpt lat="46.15854" lon="2.47591">
        <ele>474</ele>
        <time>2015-04-08T12:47:27Z</time>
      </trkpt>
      <trkpt lat="46.15852" lon="2.47589">
        <ele>475</ele>
        <time>2015-04-08T12:47:29Z</time>
      </trkpt>
      <trkpt lat="46.15849" lon="2.47588">
        <ele>475</ele>
        <time>2015-04-08T12:47:31Z</time>
      </trkpt>
      <trkpt lat="46.15847" lon="2.47586">
        <ele>475</ele>
        <time>2015-04-08T12:47:33Z</time>
      </trkpt>
      <trkpt lat="46.15844" lon="2.47585">
        <ele>475</ele>
        <time>2015-04-08T12:47:35Z</time>
      </trkpt>
      <trkpt lat="46.15841" lon="2.47583">
        <ele>476</ele>
        <time>2015-04-08T12:47:37Z</time>
      </trkpt>
      <trkpt lat="46.15839" lon="2.47581">
        <ele>476</ele>
        <time>2015-04-08T12:47:39Z</time>
      </trkpt>
      <trkpt lat="46.15836" lon="2.4758">
        <ele>476</ele>
        <time>2015-04-08T12:47:41Z</time>
      </trkpt>
      <trkpt lat="46.15833" lon="2.47578">
        <ele>476</ele>
        <time>2015-04-08T12:47:43Z</time>
      </trkpt>
      <trkpt lat="46.1583" lon="2.47577">
        <ele>476</ele>
        <time>2015-04-08T12:47:45Z</time>
      </trkpt>
      <trkpt lat="46.15828" lon="2.47576">
        <ele>476</ele>
        <time>2015-04-08T12:47:47Z</time>
      </trkpt>
      <trkpt lat="46.15825" lon="2.47574">
        <ele>476</ele>
        <time>2015-04-08T12:47:49Z</time>
      </trkpt>
      <trkpt lat="46.15823" lon="2.47573">
        <ele>476</ele>
        <time>2015-04-08T12:47:51Z</time>
      </trkpt>
      <trkpt lat="46.1582" lon="2.47571">
        <ele>476</ele>
        <time>2015-04-08T12:47:53Z</time>
      </trkpt>
      <trkpt lat="46.15817" lon="2.4757">
        <ele>476</ele>
        <time>2015-04-08T12:47:55Z</time>
      </trkpt>
      <trkpt lat="46.15815" lon="2.47568">
        <ele>476</ele>
        <time>2015-04-08T12:47:57Z</time>
      </trkpt>
      <trkpt lat="46.15812" lon="2.47566">
        <ele>476</ele>
        <time>2015-04-08T12:47:59Z</time>
      </trkpt>
      <trkpt lat="46.15809" lon="2.47564">
        <ele>476</ele>
        <time>2015-04-08T12:48:01Z</time>
      </trkpt>
      <trkpt lat="46.15806" lon="2.47563">
        <ele>477</ele>
        <time>2015-04-08T12:48:03Z</time>
      </trkpt>
      <trkpt lat="46.15804" lon="2.47561">
        <ele>477</ele>
        <time>2015-04-08T12:48:05Z</time>
      </trkpt>
      <trkpt lat="46.15801" lon="2.47559">
        <ele>477</ele>
        <time>2015-04-08T12:48:07Z</time>
      </trkpt>
      <trkpt lat="46.15799" lon="2.47557">
        <ele>477</ele>
        <time>2015-04-08T12:48:09Z</time>
      </trkpt>
      <trkpt lat="46.15797" lon="2.47556">
        <ele>477</ele>
        <time>2015-04-08T12:48:11Z</time>
      </trkpt>
      <trkpt lat="46.15795" lon="2.47554">
        <ele>477</ele>
        <time>2015-04-08T12:48:13Z</time>
      </trkpt>
      <trkpt lat="46.15791" lon="2.47551">
        <ele>477</ele>
        <time>2015-04-08T12:48:16Z</time>
      </trkpt>
      <trkpt lat="46.15787" lon="2.47548">
        <ele>477</ele>
        <time>2015-04-08T12:48:19Z</time>
      </trkpt>
      <trkpt lat="46.15785" lon="2.47546">
        <ele>477</ele>
        <time>2015-04-08T12:48:21Z</time>
      </trkpt>
      <trkpt lat="46.15782" lon="2.47543">
        <ele>477</ele>
        <time>2015-04-08T12:48:23Z</time>
      </trkpt>
      <trkpt lat="46.15779" lon="2.4754">
        <ele>477</ele>
        <time>2015-04-08T12:48:25Z</time>
      </trkpt>
      <trkpt lat="46.15777" lon="2.47537">
        <ele>478</ele>
        <time>2015-04-08T12:48:28Z</time>
      </trkpt>
      <trkpt lat="46.15776" lon="2.47536">
        <ele>478</ele>
        <time>2015-04-08T12:48:33Z</time>
      </trkpt>
      <trkpt lat="46.15774" lon="2.47535">
        <ele>478</ele>
        <time>2015-04-08T12:48:35Z</time>
      </trkpt>
      <trkpt lat="46.15773" lon="2.47533">
        <ele>478</ele>
        <time>2015-04-08T12:48:37Z</time>
      </trkpt>
      <trkpt lat="46.15772" lon="2.47532">
        <ele>479</ele>
        <time>2015-04-08T12:48:44Z</time>
      </trkpt>
      <trkpt lat="46.15773" lon="2.47531">
        <ele>479</ele>
        <time>2015-04-08T12:48:49Z</time>
      </trkpt>
      <trkpt lat="46.15775" lon="2.4753">
        <ele>479</ele>
        <time>2015-04-08T12:48:51Z</time>
      </trkpt>
      <trkpt lat="46.15777" lon="2.47529">
        <ele>479</ele>
        <time>2015-04-08T12:48:53Z</time>
      </trkpt>
      <trkpt lat="46.15779" lon="2.47527">
        <ele>479</ele>
        <time>2015-04-08T12:48:55Z</time>
      </trkpt>
      <trkpt lat="46.15781" lon="2.47526">
        <ele>479</ele>
        <time>2015-04-08T12:48:57Z</time>
      </trkpt>
      <trkpt lat="46.15779" lon="2.47526">
        <ele>479</ele>
        <time>2015-04-08T12:48:59Z</time>
      </trkpt>
      <trkpt lat="46.15777" lon="2.47527">
        <ele>479</ele>
        <time>2015-04-08T12:49:01Z</time>
      </trkpt>
      <trkpt lat="46.15774" lon="2.47528">
        <ele>479</ele>
        <time>2015-04-08T12:49:03Z</time>
      </trkpt>
      <trkpt lat="46.15771" lon="2.47528">
        <ele>479</ele>
        <time>2015-04-08T12:49:05Z</time>
      </trkpt>
      <trkpt lat="46.15769" lon="2.47527">
        <ele>479</ele>
        <time>2015-04-08T12:49:07Z</time>
      </trkpt>
      <trkpt lat="46.15766" lon="2.47525">
        <ele>479</ele>
        <time>2015-04-08T12:49:09Z</time>
      </trkpt>
      <trkpt lat="46.15763" lon="2.47523">
        <ele>479</ele>
        <time>2015-04-08T12:49:11Z</time>
      </trkpt>
      <trkpt lat="46.15761" lon="2.47521">
        <ele>479</ele>
        <time>2015-04-08T12:49:13Z</time>
      </trkpt>
      <trkpt lat="46.15759" lon="2.47518">
        <ele>479</ele>
        <time>2015-04-08T12:49:15Z</time>
      </trkpt>
      <trkpt lat="46.15757" lon="2.47516">
        <ele>479</ele>
        <time>2015-04-08T12:49:17Z</time>
      </trkpt>
      <trkpt lat="46.15754" lon="2.47514">
        <ele>479</ele>
        <time>2015-04-08T12:49:19Z</time>
      </trkpt>
      <trkpt lat="46.15752" lon="2.47511">
        <ele>479</ele>
        <time>2015-04-08T12:49:21Z</time>
      </trkpt>
      <trkpt lat="46.15749" lon="2.47509">
        <ele>479</ele>
        <time>2015-04-08T12:49:23Z</time>
      </trkpt>
      <trkpt lat="46.15747" lon="2.47507">
        <ele>479</ele>
        <time>2015-04-08T12:49:25Z</time>
      </trkpt>
      <trkpt lat="46.15745" lon="2.47505">
        <ele>479</ele>
        <time>2015-04-08T12:49:27Z</time>
      </trkpt>
      <trkpt lat="46.15742" lon="2.47502">
        <ele>479</ele>
        <time>2015-04-08T12:49:29Z</time>
      </trkpt>
      <trkpt lat="46.1574" lon="2.475">
        <ele>479</ele>
        <time>2015-04-08T12:49:31Z</time>
      </trkpt>
      <trkpt lat="46.15738" lon="2.47498">
        <ele>479</ele>
        <time>2015-04-08T12:49:33Z</time>
      </trkpt>
      <trkpt lat="46.15735" lon="2.47496">
        <ele>479</ele>
        <time>2015-04-08T12:49:35Z</time>
      </trkpt>
      <trkpt lat="46.15733" lon="2.47493">
        <ele>480</ele>
        <time>2015-04-08T12:49:37Z</time>
      </trkpt>
      <trkpt lat="46.15731" lon="2.47491">
        <ele>480</ele>
        <time>2015-04-08T12:49:39Z</time>
      </trkpt>
      <trkpt lat="46.15728" lon="2.47489">
        <ele>480</ele>
        <time>2015-04-08T12:49:41Z</time>
      </trkpt>
      <trkpt lat="46.15725" lon="2.47486">
        <ele>480</ele>
        <time>2015-04-08T12:49:44Z</time>
      </trkpt>
      <trkpt lat="46.15723" lon="2.47484">
        <ele>480</ele>
        <time>2015-04-08T12:49:46Z</time>
      </trkpt>
      <trkpt lat="46.15721" lon="2.47482">
        <ele>480</ele>
        <time>2015-04-08T12:49:48Z</time>
      </trkpt>
      <trkpt lat="46.15718" lon="2.47479">
        <ele>480</ele>
        <time>2015-04-08T12:49:51Z</time>
      </trkpt>
      <trkpt lat="46.15715" lon="2.47475">
        <ele>480</ele>
        <time>2015-04-08T12:49:54Z</time>
      </trkpt>
      <trkpt lat="46.15713" lon="2.47473">
        <ele>481</ele>
        <time>2015-04-08T12:49:56Z</time>
      </trkpt>
      <trkpt lat="46.15709" lon="2.4747">
        <ele>481</ele>
        <time>2015-04-08T12:49:59Z</time>
      </trkpt>
      <trkpt lat="46.15708" lon="2.47468">
        <ele>481</ele>
        <time>2015-04-08T12:50:01Z</time>
      </trkpt>
      <trkpt lat="46.15707" lon="2.47467">
        <ele>481</ele>
        <time>2015-04-08T12:50:03Z</time>
      </trkpt>
      <trkpt lat="46.15705" lon="2.47465">
        <ele>481</ele>
        <time>2015-04-08T12:50:05Z</time>
      </trkpt>
      <trkpt lat="46.15703" lon="2.47463">
        <ele>481</ele>
        <time>2015-04-08T12:50:07Z</time>
      </trkpt>
      <trkpt lat="46.15701" lon="2.47462">
        <ele>481</ele>
        <time>2015-04-08T12:50:09Z</time>
      </trkpt>
      <trkpt lat="46.15698" lon="2.4746">
        <ele>481</ele>
        <time>2015-04-08T12:50:11Z</time>
      </trkpt>
      <trkpt lat="46.15695" lon="2.47456">
        <ele>481</ele>
        <time>2015-04-08T12:50:14Z</time>
      </trkpt>
      <trkpt lat="46.15693" lon="2.47453">
        <ele>481</ele>
        <time>2015-04-08T12:50:16Z</time>
      </trkpt>
      <trkpt lat="46.1569" lon="2.47451">
        <ele>481</ele>
        <time>2015-04-08T12:50:18Z</time>
      </trkpt>
      <trkpt lat="46.15688" lon="2.47449">
        <ele>481</ele>
        <time>2015-04-08T12:50:20Z</time>
      </trkpt>
      <trkpt lat="46.15686" lon="2.47446">
        <ele>481</ele>
        <time>2015-04-08T12:50:22Z</time>
      </trkpt>
      <trkpt lat="46.15682" lon="2.47443">
        <ele>482</ele>
        <time>2015-04-08T12:50:25Z</time>
      </trkpt>
      <trkpt lat="46.15679" lon="2.47439">
        <ele>482</ele>
        <time>2015-04-08T12:50:28Z</time>
      </trkpt>
      <trkpt lat="46.15677" lon="2.47437">
        <ele>482</ele>
        <time>2015-04-08T12:50:30Z</time>
      </trkpt>
      <trkpt lat="46.15673" lon="2.47433">
        <ele>483</ele>
        <time>2015-04-08T12:50:33Z</time>
      </trkpt>
      <trkpt lat="46.1567" lon="2.4743">
        <ele>483</ele>
        <time>2015-04-08T12:50:36Z</time>
      </trkpt>
      <trkpt lat="46.15667" lon="2.47427">
        <ele>483</ele>
        <time>2015-04-08T12:50:39Z</time>
      </trkpt>
      <trkpt lat="46.15664" lon="2.47424">
        <ele>483</ele>
        <time>2015-04-08T12:50:42Z</time>
      </trkpt>
      <trkpt lat="46.15661" lon="2.47422">
        <ele>483</ele>
        <time>2015-04-08T12:50:44Z</time>
      </trkpt>
      <trkpt lat="46.15659" lon="2.4742">
        <ele>483</ele>
        <time>2015-04-08T12:50:46Z</time>
      </trkpt>
      <trkpt lat="46.15657" lon="2.47417">
        <ele>483</ele>
        <time>2015-04-08T12:50:48Z</time>
      </trkpt>
      <trkpt lat="46.15655" lon="2.47415">
        <ele>483</ele>
        <time>2015-04-08T12:50:50Z</time>
      </trkpt>
      <trkpt lat="46.15653" lon="2.47413">
        <ele>483</ele>
        <time>2015-04-08T12:50:52Z</time>
      </trkpt>
      <trkpt lat="46.15651" lon="2.47411">
        <ele>483</ele>
        <time>2015-04-08T12:50:54Z</time>
      </trkpt>
      <trkpt lat="46.15648" lon="2.47408">
        <ele>483</ele>
        <time>2015-04-08T12:50:57Z</time>
      </trkpt>
      <trkpt lat="46.15645" lon="2.47406">
        <ele>484</ele>
        <time>2015-04-08T12:50:59Z</time>
      </trkpt>
      <trkpt lat="46.15643" lon="2.47404">
        <ele>484</ele>
        <time>2015-04-08T12:51:01Z</time>
      </trkpt>
      <trkpt lat="46.15641" lon="2.47402">
        <ele>484</ele>
        <time>2015-04-08T12:51:03Z</time>
      </trkpt>
      <trkpt lat="46.15638" lon="2.474">
        <ele>484</ele>
        <time>2015-04-08T12:51:05Z</time>
      </trkpt>
      <trkpt lat="46.15636" lon="2.47398">
        <ele>484</ele>
        <time>2015-04-08T12:51:07Z</time>
      </trkpt>
      <trkpt lat="46.15634" lon="2.47396">
        <ele>484</ele>
        <time>2015-04-08T12:51:09Z</time>
      </trkpt>
      <trkpt lat="46.15631" lon="2.47394">
        <ele>484</ele>
        <time>2015-04-08T12:51:11Z</time>
      </trkpt>
      <trkpt lat="46.15629" lon="2.47391">
        <ele>484</ele>
        <time>2015-04-08T12:51:13Z</time>
      </trkpt>
      <trkpt lat="46.15627" lon="2.47388">
        <ele>484</ele>
        <time>2015-04-08T12:51:15Z</time>
      </trkpt>
      <trkpt lat="46.15625" lon="2.47386">
        <ele>484</ele>
        <time>2015-04-08T12:51:17Z</time>
      </trkpt>
      <trkpt lat="46.15623" lon="2.47383">
        <ele>484</ele>
        <time>2015-04-08T12:51:19Z</time>
      </trkpt>
      <trkpt lat="46.1562" lon="2.47381">
        <ele>484</ele>
        <time>2015-04-08T12:51:21Z</time>
      </trkpt>
      <trkpt lat="46.15617" lon="2.47378">
        <ele>484</ele>
        <time>2015-04-08T12:51:24Z</time>
      </trkpt>
      <trkpt lat="46.15615" lon="2.47375">
        <ele>484</ele>
        <time>2015-04-08T12:51:26Z</time>
      </trkpt>
      <trkpt lat="46.15612" lon="2.47373">
        <ele>484</ele>
        <time>2015-04-08T12:51:28Z</time>
      </trkpt>
      <trkpt lat="46.1561" lon="2.47371">
        <ele>484</ele>
        <time>2015-04-08T12:51:30Z</time>
      </trkpt>
      <trkpt lat="46.15608" lon="2.47369">
        <ele>484</ele>
        <time>2015-04-08T12:51:32Z</time>
      </trkpt>
      <trkpt lat="46.15604" lon="2.47366">
        <ele>484</ele>
        <time>2015-04-08T12:51:35Z</time>
      </trkpt>
      <trkpt lat="46.15602" lon="2.47364">
        <ele>484</ele>
        <time>2015-04-08T12:51:37Z</time>
      </trkpt>
      <trkpt lat="46.15599" lon="2.47362">
        <ele>484</ele>
        <time>2015-04-08T12:51:39Z</time>
      </trkpt>
      <trkpt lat="46.15597" lon="2.4736">
        <ele>484</ele>
        <time>2015-04-08T12:51:41Z</time>
      </trkpt>
      <trkpt lat="46.15595" lon="2.47358">
        <ele>484</ele>
        <time>2015-04-08T12:51:43Z</time>
      </trkpt>
      <trkpt lat="46.15593" lon="2.47356">
        <ele>484</ele>
        <time>2015-04-08T12:51:45Z</time>
      </trkpt>
      <trkpt lat="46.1559" lon="2.47354">
        <ele>484</ele>
        <time>2015-04-08T12:51:47Z</time>
      </trkpt>
      <trkpt lat="46.15588" lon="2.47353">
        <ele>484</ele>
        <time>2015-04-08T12:51:49Z</time>
      </trkpt>
      <trkpt lat="46.15585" lon="2.47351">
        <ele>484</ele>
        <time>2015-04-08T12:51:51Z</time>
      </trkpt>
      <trkpt lat="46.15583" lon="2.4735">
        <ele>484</ele>
        <time>2015-04-08T12:51:53Z</time>
      </trkpt>
      <trkpt lat="46.1558" lon="2.47348">
        <ele>484</ele>
        <time>2015-04-08T12:51:55Z</time>
      </trkpt>
      <trkpt lat="46.15577" lon="2.47347">
        <ele>484</ele>
        <time>2015-04-08T12:51:57Z</time>
      </trkpt>
      <trkpt lat="46.15575" lon="2.47345">
        <ele>484</ele>
        <time>2015-04-08T12:51:59Z</time>
      </trkpt>
      <trkpt lat="46.15572" lon="2.47344">
        <ele>484</ele>
        <time>2015-04-08T12:52:01Z</time>
      </trkpt>
      <trkpt lat="46.15569" lon="2.47343">
        <ele>484</ele>
        <time>2015-04-08T12:52:03Z</time>
      </trkpt>
      <trkpt lat="46.15566" lon="2.47342">
        <ele>484</ele>
        <time>2015-04-08T12:52:05Z</time>
      </trkpt>
      <trkpt lat="46.15563" lon="2.4734">
        <ele>484</ele>
        <time>2015-04-08T12:52:07Z</time>
      </trkpt>
      <trkpt lat="46.1556" lon="2.47339">
        <ele>484</ele>
        <time>2015-04-08T12:52:09Z</time>
      </trkpt>
      <trkpt lat="46.15557" lon="2.47338">
        <ele>484</ele>
        <time>2015-04-08T12:52:11Z</time>
      </trkpt>
      <trkpt lat="46.15554" lon="2.47337">
        <ele>484</ele>
        <time>2015-04-08T12:52:13Z</time>
      </trkpt>
      <trkpt lat="46.15552" lon="2.47336">
        <ele>484</ele>
        <time>2015-04-08T12:52:15Z</time>
      </trkpt>
      <trkpt lat="46.15549" lon="2.47335">
        <ele>484</ele>
        <time>2015-04-08T12:52:17Z</time>
      </trkpt>
      <trkpt lat="46.15546" lon="2.47333">
        <ele>484</ele>
        <time>2015-04-08T12:52:19Z</time>
      </trkpt>
      <trkpt lat="46.15543" lon="2.47332">
        <ele>484</ele>
        <time>2015-04-08T12:52:21Z</time>
      </trkpt>
      <trkpt lat="46.15541" lon="2.47331">
        <ele>483</ele>
        <time>2015-04-08T12:52:23Z</time>
      </trkpt>
      <trkpt lat="46.15538" lon="2.4733">
        <ele>483</ele>
        <time>2015-04-08T12:52:25Z</time>
      </trkpt>
      <trkpt lat="46.15535" lon="2.47329">
        <ele>483</ele>
        <time>2015-04-08T12:52:27Z</time>
      </trkpt>
      <trkpt lat="46.15532" lon="2.47328">
        <ele>483</ele>
        <time>2015-04-08T12:52:29Z</time>
      </trkpt>
      <trkpt lat="46.15529" lon="2.47327">
        <ele>483</ele>
        <time>2015-04-08T12:52:31Z</time>
      </trkpt>
      <trkpt lat="46.15526" lon="2.47326">
        <ele>483</ele>
        <time>2015-04-08T12:52:33Z</time>
      </trkpt>
      <trkpt lat="46.15524" lon="2.47325">
        <ele>483</ele>
        <time>2015-04-08T12:52:35Z</time>
      </trkpt>
      <trkpt lat="46.15521" lon="2.47324">
        <ele>483</ele>
        <time>2015-04-08T12:52:37Z</time>
      </trkpt>
      <trkpt lat="46.15519" lon="2.47323">
        <ele>483</ele>
        <time>2015-04-08T12:52:39Z</time>
      </trkpt>
      <trkpt lat="46.15516" lon="2.47322">
        <ele>483</ele>
        <time>2015-04-08T12:52:41Z</time>
      </trkpt>
      <trkpt lat="46.15513" lon="2.47321">
        <ele>483</ele>
        <time>2015-04-08T12:52:43Z</time>
      </trkpt>
      <trkpt lat="46.15511" lon="2.4732">
        <ele>483</ele>
        <time>2015-04-08T12:52:45Z</time>
      </trkpt>
      <trkpt lat="46.15509" lon="2.47319">
        <ele>483</ele>
        <time>2015-04-08T12:52:47Z</time>
      </trkpt>
      <trkpt lat="46.15508" lon="2.47318">
        <ele>483</ele>
        <time>2015-04-08T12:52:55Z</time>
      </trkpt>
      <trkpt lat="46.15506" lon="2.47317">
        <ele>483</ele>
        <time>2015-04-08T12:52:57Z</time>
      </trkpt>
      <trkpt lat="46.15504" lon="2.47316">
        <ele>483</ele>
        <time>2015-04-08T12:52:59Z</time>
      </trkpt>
      <trkpt lat="46.15502" lon="2.47315">
        <ele>483</ele>
        <time>2015-04-08T12:53:01Z</time>
      </trkpt>
      <trkpt lat="46.15499" lon="2.47314">
        <ele>483</ele>
        <time>2015-04-08T12:53:04Z</time>
      </trkpt>
      <trkpt lat="46.15501" lon="2.47315">
        <ele>483</ele>
        <time>2015-04-08T12:53:13Z</time>
      </trkpt>
      <trkpt lat="46.15504" lon="2.47315">
        <ele>483</ele>
        <time>2015-04-08T12:53:15Z</time>
      </trkpt>
      <trkpt lat="46.15507" lon="2.47314">
        <ele>483</ele>
        <time>2015-04-08T12:53:17Z</time>
      </trkpt>
      <trkpt lat="46.15511" lon="2.47312">
        <ele>483</ele>
        <time>2015-04-08T12:53:23Z</time>
      </trkpt>
      <trkpt lat="46.15513" lon="2.47308">
        <ele>483</ele>
        <time>2015-04-08T12:53:25Z</time>
      </trkpt>
      <trkpt lat="46.15514" lon="2.47304">
        <ele>483</ele>
        <time>2015-04-08T12:53:27Z</time>
      </trkpt>
      <trkpt lat="46.15512" lon="2.47306">
        <ele>483</ele>
        <time>2015-04-08T12:53:31Z</time>
      </trkpt>
      <trkpt lat="46.15511" lon="2.47309">
        <ele>483</ele>
        <time>2015-04-08T12:53:33Z</time>
      </trkpt>
      <trkpt lat="46.1551" lon="2.47312">
        <ele>483</ele>
        <time>2015-04-08T12:53:36Z</time>
      </trkpt>
      <trkpt lat="46.15508" lon="2.47314">
        <ele>483</ele>
        <time>2015-04-08T12:53:38Z</time>
      </trkpt>
      <trkpt lat="46.15507" lon="2.47314">
        <ele>483</ele>
        <time>2015-04-08T12:53:43Z</time>
      </trkpt>
      <trkpt lat="46.15504" lon="2.47314">
        <ele>483</ele>
        <time>2015-04-08T12:53:45Z</time>
      </trkpt>
      <trkpt lat="46.15503" lon="2.47314">
        <ele>483</ele>
        <time>2015-04-08T12:53:47Z</time>
      </trkpt>
      <trkpt lat="46.15501" lon="2.47314">
        <ele>483</ele>
        <time>2015-04-08T12:53:49Z</time>
      </trkpt>
      <trkpt lat="46.15499" lon="2.47313">
        <ele>483</ele>
        <time>2015-04-08T12:53:51Z</time>
      </trkpt>
      <trkpt lat="46.15496" lon="2.47312">
        <ele>483</ele>
        <time>2015-04-08T12:53:53Z</time>
      </trkpt>
      <trkpt lat="46.15494" lon="2.47311">
        <ele>483</ele>
        <time>2015-04-08T12:53:55Z</time>
      </trkpt>
      <trkpt lat="46.15492" lon="2.4731">
        <ele>483</ele>
        <time>2015-04-08T12:53:57Z</time>
      </trkpt>
      <trkpt lat="46.15489" lon="2.4731">
        <ele>483</ele>
        <time>2015-04-08T12:53:59Z</time>
      </trkpt>
      <trkpt lat="46.15487" lon="2.4731">
        <ele>483</ele>
        <time>2015-04-08T12:54:01Z</time>
      </trkpt>
      <trkpt lat="46.15484" lon="2.47309">
        <ele>483</ele>
        <time>2015-04-08T12:54:03Z</time>
      </trkpt>
      <trkpt lat="46.15481" lon="2.47308">
        <ele>483</ele>
        <time>2015-04-08T12:54:05Z</time>
      </trkpt>
      <trkpt lat="46.15478" lon="2.47307">
        <ele>483</ele>
        <time>2015-04-08T12:54:07Z</time>
      </trkpt>
      <trkpt lat="46.15475" lon="2.47306">
        <ele>483</ele>
        <time>2015-04-08T12:54:09Z</time>
      </trkpt>
      <trkpt lat="46.15472" lon="2.47305">
        <ele>483</ele>
        <time>2015-04-08T12:54:11Z</time>
      </trkpt>
      <trkpt lat="46.1547" lon="2.47305">
        <ele>483</ele>
        <time>2015-04-08T12:54:13Z</time>
      </trkpt>
      <trkpt lat="46.15467" lon="2.47304">
        <ele>482</ele>
        <time>2015-04-08T12:54:15Z</time>
      </trkpt>
      <trkpt lat="46.15464" lon="2.47303">
        <ele>482</ele>
        <time>2015-04-08T12:54:17Z</time>
      </trkpt>
      <trkpt lat="46.15461" lon="2.47301">
        <ele>482</ele>
        <time>2015-04-08T12:54:19Z</time>
      </trkpt>
      <trkpt lat="46.15458" lon="2.473">
        <ele>482</ele>
        <time>2015-04-08T12:54:21Z</time>
      </trkpt>
      <trkpt lat="46.15455" lon="2.47299">
        <ele>482</ele>
        <time>2015-04-08T12:54:23Z</time>
      </trkpt>
      <trkpt lat="46.15453" lon="2.47298">
        <ele>482</ele>
        <time>2015-04-08T12:54:25Z</time>
      </trkpt>
      <trkpt lat="46.1545" lon="2.47297">
        <ele>482</ele>
        <time>2015-04-08T12:54:27Z</time>
      </trkpt>
      <trkpt lat="46.15447" lon="2.47296">
        <ele>482</ele>
        <time>2015-04-08T12:54:29Z</time>
      </trkpt>
      <trkpt lat="46.15444" lon="2.47295">
        <ele>482</ele>
        <time>2015-04-08T12:54:31Z</time>
      </trkpt>
      <trkpt lat="46.15442" lon="2.47294">
        <ele>482</ele>
        <time>2015-04-08T12:54:33Z</time>
      </trkpt>
      <trkpt lat="46.15438" lon="2.47293">
        <ele>481</ele>
        <time>2015-04-08T12:54:35Z</time>
      </trkpt>
      <trkpt lat="46.15435" lon="2.47293">
        <ele>481</ele>
        <time>2015-04-08T12:54:37Z</time>
      </trkpt>
      <trkpt lat="46.15432" lon="2.47291">
        <ele>481</ele>
        <time>2015-04-08T12:54:39Z</time>
      </trkpt>
      <trkpt lat="46.1543" lon="2.4729">
        <ele>481</ele>
        <time>2015-04-08T12:54:41Z</time>
      </trkpt>
      <trkpt lat="46.15427" lon="2.47289">
        <ele>481</ele>
        <time>2015-04-08T12:54:43Z</time>
      </trkpt>
      <trkpt lat="46.15424" lon="2.47288">
        <ele>481</ele>
        <time>2015-04-08T12:54:45Z</time>
      </trkpt>
      <trkpt lat="46.15421" lon="2.47287">
        <ele>480</ele>
        <time>2015-04-08T12:54:47Z</time>
      </trkpt>
      <trkpt lat="46.15418" lon="2.47286">
        <ele>480</ele>
        <time>2015-04-08T12:54:49Z</time>
      </trkpt>
      <trkpt lat="46.15415" lon="2.47285">
        <ele>480</ele>
        <time>2015-04-08T12:54:51Z</time>
      </trkpt>
      <trkpt lat="46.15412" lon="2.47284">
        <ele>480</ele>
        <time>2015-04-08T12:54:53Z</time>
      </trkpt>
      <trkpt lat="46.15409" lon="2.47283">
        <ele>480</ele>
        <time>2015-04-08T12:54:55Z</time>
      </trkpt>
      <trkpt lat="46.15406" lon="2.47282">
        <ele>480</ele>
        <time>2015-04-08T12:54:57Z</time>
      </trkpt>
      <trkpt lat="46.15403" lon="2.47281">
        <ele>480</ele>
        <time>2015-04-08T12:54:59Z</time>
      </trkpt>
      <trkpt lat="46.154" lon="2.4728">
        <ele>480</ele>
        <time>2015-04-08T12:55:01Z</time>
      </trkpt>
      <trkpt lat="46.15397" lon="2.47278">
        <ele>480</ele>
        <time>2015-04-08T12:55:03Z</time>
      </trkpt>
      <trkpt lat="46.15394" lon="2.47277">
        <ele>480</ele>
        <time>2015-04-08T12:55:05Z</time>
      </trkpt>
      <trkpt lat="46.15392" lon="2.47273">
        <ele>480</ele>
        <time>2015-04-08T12:55:07Z</time>
      </trkpt>
      <trkpt lat="46.15389" lon="2.47271">
        <ele>480</ele>
        <time>2015-04-08T12:55:09Z</time>
      </trkpt>
      <trkpt lat="46.15386" lon="2.4727">
        <ele>480</ele>
        <time>2015-04-08T12:55:11Z</time>
      </trkpt>
      <trkpt lat="46.15383" lon="2.47269">
        <ele>480</ele>
        <time>2015-04-08T12:55:13Z</time>
      </trkpt>
      <trkpt lat="46.1538" lon="2.47268">
        <ele>480</ele>
        <time>2015-04-08T12:55:15Z</time>
      </trkpt>
      <trkpt lat="46.15377" lon="2.47267">
        <ele>480</ele>
        <time>2015-04-08T12:55:17Z</time>
      </trkpt>
      <trkpt lat="46.15374" lon="2.47266">
        <ele>480</ele>
        <time>2015-04-08T12:55:19Z</time>
      </trkpt>
      <trkpt lat="46.15371" lon="2.47264">
        <ele>480</ele>
        <time>2015-04-08T12:55:21Z</time>
      </trkpt>
      <trkpt lat="46.15368" lon="2.47263">
        <ele>480</ele>
        <time>2015-04-08T12:55:23Z</time>
      </trkpt>
      <trkpt lat="46.15365" lon="2.47262">
        <ele>480</ele>
        <time>2015-04-08T12:55:25Z</time>
      </trkpt>
      <trkpt lat="46.15362" lon="2.47261">
        <ele>480</ele>
        <time>2015-04-08T12:55:27Z</time>
      </trkpt>
      <trkpt lat="46.15359" lon="2.4726">
        <ele>480</ele>
        <time>2015-04-08T12:55:29Z</time>
      </trkpt>
      <trkpt lat="46.15356" lon="2.47259">
        <ele>480</ele>
        <time>2015-04-08T12:55:31Z</time>
      </trkpt>
      <trkpt lat="46.15353" lon="2.47258">
        <ele>480</ele>
        <time>2015-04-08T12:55:33Z</time>
      </trkpt>
      <trkpt lat="46.15352" lon="2.47257">
        <ele>480</ele>
        <time>2015-04-08T12:55:36Z</time>
      </trkpt>
      <trkpt lat="46.1535" lon="2.47256">
        <ele>480</ele>
        <time>2015-04-08T12:55:48Z</time>
      </trkpt>
      <trkpt lat="46.15347" lon="2.47256">
        <ele>480</ele>
        <time>2015-04-08T12:55:50Z</time>
      </trkpt>
      <trkpt lat="46.15344" lon="2.47255">
        <ele>480</ele>
        <time>2015-04-08T12:55:52Z</time>
      </trkpt>
      <trkpt lat="46.15341" lon="2.47254">
        <ele>480</ele>
        <time>2015-04-08T12:55:54Z</time>
      </trkpt>
      <trkpt lat="46.15338" lon="2.47254">
        <ele>480</ele>
        <time>2015-04-08T12:55:56Z</time>
      </trkpt>
      <trkpt lat="46.15335" lon="2.47253">
        <ele>480</ele>
        <time>2015-04-08T12:55:58Z</time>
      </trkpt>
      <trkpt lat="46.15332" lon="2.47252">
        <ele>480</ele>
        <time>2015-04-08T12:56:00Z</time>
      </trkpt>
      <trkpt lat="46.1533" lon="2.47251">
        <ele>480</ele>
        <time>2015-04-08T12:56:02Z</time>
      </trkpt>
      <trkpt lat="46.15327" lon="2.4725">
        <ele>479</ele>
        <time>2015-04-08T12:56:04Z</time>
      </trkpt>
      <trkpt lat="46.15324" lon="2.47249">
        <ele>479</ele>
        <time>2015-04-08T12:56:06Z</time>
      </trkpt>
      <trkpt lat="46.15322" lon="2.47248">
        <ele>479</ele>
        <time>2015-04-08T12:56:08Z</time>
      </trkpt>
      <trkpt lat="46.15322" lon="2.47248">
        <ele>479</ele>
        <time>2015-04-08T12:56:15Z</time>
      </trkpt>
      <trkpt lat="46.15323" lon="2.47249">
        <ele>479</ele>
        <time>2015-04-08T12:56:17Z</time>
      </trkpt>
      <trkpt lat="46.15323" lon="2.47248">
        <ele>479</ele>
        <time>2015-04-08T12:56:19Z</time>
      </trkpt>
      <trkpt lat="46.15324" lon="2.47244">
        <ele>479</ele>
        <time>2015-04-08T12:56:21Z</time>
      </trkpt>
      <trkpt lat="46.15323" lon="2.4724">
        <ele>479</ele>
        <time>2015-04-08T12:56:23Z</time>
      </trkpt>
      <trkpt lat="46.15323" lon="2.47238">
        <ele>479</ele>
        <time>2015-04-08T12:56:25Z</time>
      </trkpt>
      <trkpt lat="46.15322" lon="2.47239">
        <ele>479</ele>
        <time>2015-04-08T12:56:28Z</time>
      </trkpt>
      <trkpt lat="46.15324" lon="2.47241">
        <ele>479</ele>
        <time>2015-04-08T12:57:12Z</time>
      </trkpt>
      <trkpt lat="46.15326" lon="2.4724">
        <ele>479</ele>
        <time>2015-04-08T12:57:25Z</time>
      </trkpt>
      <trkpt lat="46.15327" lon="2.47239">
        <ele>479</ele>
        <time>2015-04-08T12:57:28Z</time>
      </trkpt>
      <trkpt lat="46.1533" lon="2.47236">
        <ele>479</ele>
        <time>2015-04-08T12:57:30Z</time>
      </trkpt>
      <trkpt lat="46.15332" lon="2.47233">
        <ele>479</ele>
        <time>2015-04-08T12:57:32Z</time>
      </trkpt>
      <trkpt lat="46.15334" lon="2.4723">
        <ele>479</ele>
        <time>2015-04-08T12:57:34Z</time>
      </trkpt>
      <trkpt lat="46.15335" lon="2.47226">
        <ele>479</ele>
        <time>2015-04-08T12:57:36Z</time>
      </trkpt>
      <trkpt lat="46.15337" lon="2.47223">
        <ele>479</ele>
        <time>2015-04-08T12:57:38Z</time>
      </trkpt>
      <trkpt lat="46.1534" lon="2.4722">
        <ele>479</ele>
        <time>2015-04-08T12:57:40Z</time>
      </trkpt>
      <trkpt lat="46.15342" lon="2.47216">
        <ele>479</ele>
        <time>2015-04-08T12:57:42Z</time>
      </trkpt>
      <trkpt lat="46.15344" lon="2.47213">
        <ele>479</ele>
        <time>2015-04-08T12:57:44Z</time>
      </trkpt>
      <trkpt lat="46.15346" lon="2.4721">
        <ele>479</ele>
        <time>2015-04-08T12:57:46Z</time>
      </trkpt>
      <trkpt lat="46.15348" lon="2.47207">
        <ele>479</ele>
        <time>2015-04-08T12:57:48Z</time>
      </trkpt>
      <trkpt lat="46.1535" lon="2.47203">
        <ele>478</ele>
        <time>2015-04-08T12:57:50Z</time>
      </trkpt>
      <trkpt lat="46.15352" lon="2.472">
        <ele>477</ele>
        <time>2015-04-08T12:57:52Z</time>
      </trkpt>
      <trkpt lat="46.15354" lon="2.47196">
        <ele>476</ele>
        <time>2015-04-08T12:57:54Z</time>
      </trkpt>
      <trkpt lat="46.15356" lon="2.47193">
        <ele>475</ele>
        <time>2015-04-08T12:57:56Z</time>
      </trkpt>
      <trkpt lat="46.15358" lon="2.4719">
        <ele>474</ele>
        <time>2015-04-08T12:57:58Z</time>
      </trkpt>
      <trkpt lat="46.1536" lon="2.47186">
        <ele>473</ele>
        <time>2015-04-08T12:58:00Z</time>
      </trkpt>
      <trkpt lat="46.15362" lon="2.47184">
        <ele>473</ele>
        <time>2015-04-08T12:58:02Z</time>
      </trkpt>
      <trkpt lat="46.15365" lon="2.47181">
        <ele>472</ele>
        <time>2015-04-08T12:58:04Z</time>
      </trkpt>
      <trkpt lat="46.15367" lon="2.47178">
        <ele>472</ele>
        <time>2015-04-08T12:58:06Z</time>
      </trkpt>
      <trkpt lat="46.1537" lon="2.47175">
        <ele>472</ele>
        <time>2015-04-08T12:58:08Z</time>
      </trkpt>
      <trkpt lat="46.15372" lon="2.47172">
        <ele>471</ele>
        <time>2015-04-08T12:58:10Z</time>
      </trkpt>
      <trkpt lat="46.15376" lon="2.47168">
        <ele>471</ele>
        <time>2015-04-08T12:58:13Z</time>
      </trkpt>
      <trkpt lat="46.15378" lon="2.47166">
        <ele>470</ele>
        <time>2015-04-08T12:58:15Z</time>
      </trkpt>
      <trkpt lat="46.15382" lon="2.47164">
        <ele>470</ele>
        <time>2015-04-08T12:58:17Z</time>
      </trkpt>
      <trkpt lat="46.15385" lon="2.47161">
        <ele>469</ele>
        <time>2015-04-08T12:58:19Z</time>
      </trkpt>
      <trkpt lat="46.15387" lon="2.47159">
        <ele>468</ele>
        <time>2015-04-08T12:58:21Z</time>
      </trkpt>
      <trkpt lat="46.15391" lon="2.47156">
        <ele>468</ele>
        <time>2015-04-08T12:58:23Z</time>
      </trkpt>
      <trkpt lat="46.15394" lon="2.47154">
        <ele>468</ele>
        <time>2015-04-08T12:58:25Z</time>
      </trkpt>
      <trkpt lat="46.15397" lon="2.47151">
        <ele>467</ele>
        <time>2015-04-08T12:58:27Z</time>
      </trkpt>
      <trkpt lat="46.154" lon="2.47149">
        <ele>467</ele>
        <time>2015-04-08T12:58:29Z</time>
      </trkpt>
      <trkpt lat="46.15403" lon="2.47147">
        <ele>467</ele>
        <time>2015-04-08T12:58:31Z</time>
      </trkpt>
      <trkpt lat="46.15406" lon="2.47145">
        <ele>467</ele>
        <time>2015-04-08T12:58:33Z</time>
      </trkpt>
      <trkpt lat="46.15408" lon="2.47142">
        <ele>467</ele>
        <time>2015-04-08T12:58:35Z</time>
      </trkpt>
      <trkpt lat="46.1541" lon="2.47139">
        <ele>466</ele>
        <time>2015-04-08T12:58:37Z</time>
      </trkpt>
      <trkpt lat="46.15413" lon="2.47136">
        <ele>466</ele>
        <time>2015-04-08T12:58:39Z</time>
      </trkpt>
      <trkpt lat="46.15415" lon="2.47134">
        <ele>466</ele>
        <time>2015-04-08T12:58:41Z</time>
      </trkpt>
      <trkpt lat="46.15418" lon="2.47131">
        <ele>466</ele>
        <time>2015-04-08T12:58:43Z</time>
      </trkpt>
      <trkpt lat="46.15421" lon="2.47129">
        <ele>466</ele>
        <time>2015-04-08T12:58:45Z</time>
      </trkpt>
      <trkpt lat="46.15424" lon="2.47128">
        <ele>466</ele>
        <time>2015-04-08T12:58:47Z</time>
      </trkpt>
      <trkpt lat="46.15427" lon="2.47125">
        <ele>466</ele>
        <time>2015-04-08T12:58:49Z</time>
      </trkpt>
      <trkpt lat="46.15429" lon="2.47122">
        <ele>465</ele>
        <time>2015-04-08T12:58:51Z</time>
      </trkpt>
      <trkpt lat="46.15432" lon="2.47119">
        <ele>464</ele>
        <time>2015-04-08T12:58:53Z</time>
      </trkpt>
      <trkpt lat="46.15435" lon="2.47116">
        <ele>463</ele>
        <time>2015-04-08T12:58:55Z</time>
      </trkpt>
      <trkpt lat="46.15437" lon="2.47113">
        <ele>463</ele>
        <time>2015-04-08T12:58:57Z</time>
      </trkpt>
      <trkpt lat="46.15439" lon="2.4711">
        <ele>463</ele>
        <time>2015-04-08T12:58:59Z</time>
      </trkpt>
      <trkpt lat="46.15442" lon="2.47107">
        <ele>462</ele>
        <time>2015-04-08T12:59:01Z</time>
      </trkpt>
      <trkpt lat="46.15444" lon="2.47104">
        <ele>462</ele>
        <time>2015-04-08T12:59:03Z</time>
      </trkpt>
      <trkpt lat="46.15446" lon="2.471">
        <ele>462</ele>
        <time>2015-04-08T12:59:05Z</time>
      </trkpt>
      <trkpt lat="46.15448" lon="2.47097">
        <ele>462</ele>
        <time>2015-04-08T12:59:07Z</time>
      </trkpt>
      <trkpt lat="46.1545" lon="2.47093">
        <ele>462</ele>
        <time>2015-04-08T12:59:09Z</time>
      </trkpt>
      <trkpt lat="46.15452" lon="2.4709">
        <ele>461</ele>
        <time>2015-04-08T12:59:11Z</time>
      </trkpt>
      <trkpt lat="46.15454" lon="2.47086">
        <ele>461</ele>
        <time>2015-04-08T12:59:13Z</time>
      </trkpt>
      <trkpt lat="46.15456" lon="2.47082">
        <ele>460</ele>
        <time>2015-04-08T12:59:15Z</time>
      </trkpt>
      <trkpt lat="46.15458" lon="2.47078">
        <ele>460</ele>
        <time>2015-04-08T12:59:17Z</time>
      </trkpt>
      <trkpt lat="46.1546" lon="2.47074">
        <ele>460</ele>
        <time>2015-04-08T12:59:19Z</time>
      </trkpt>
      <trkpt lat="46.15462" lon="2.47071">
        <ele>460</ele>
        <time>2015-04-08T12:59:21Z</time>
      </trkpt>
      <trkpt lat="46.15464" lon="2.47067">
        <ele>460</ele>
        <time>2015-04-08T12:59:23Z</time>
      </trkpt>
      <trkpt lat="46.15466" lon="2.47063">
        <ele>460</ele>
        <time>2015-04-08T12:59:25Z</time>
      </trkpt>
      <trkpt lat="46.15467" lon="2.4706">
        <ele>460</ele>
        <time>2015-04-08T12:59:27Z</time>
      </trkpt>
      <trkpt lat="46.15469" lon="2.47056">
        <ele>460</ele>
        <time>2015-04-08T12:59:29Z</time>
      </trkpt>
      <trkpt lat="46.15472" lon="2.47052">
        <ele>460</ele>
        <time>2015-04-08T12:59:31Z</time>
      </trkpt>
      <trkpt lat="46.15474" lon="2.47048">
        <ele>460</ele>
        <time>2015-04-08T12:59:33Z</time>
      </trkpt>
      <trkpt lat="46.15477" lon="2.47044">
        <ele>459</ele>
        <time>2015-04-08T12:59:35Z</time>
      </trkpt>
      <trkpt lat="46.15479" lon="2.47041">
        <ele>459</ele>
        <time>2015-04-08T12:59:37Z</time>
      </trkpt>
      <trkpt lat="46.15481" lon="2.47037">
        <ele>459</ele>
        <time>2015-04-08T12:59:39Z</time>
      </trkpt>
      <trkpt lat="46.15483" lon="2.47034">
        <ele>458</ele>
        <time>2015-04-08T12:59:41Z</time>
      </trkpt>
      <trkpt lat="46.15485" lon="2.4703">
        <ele>458</ele>
        <time>2015-04-08T12:59:43Z</time>
      </trkpt>
      <trkpt lat="46.15487" lon="2.47027">
        <ele>458</ele>
        <time>2015-04-08T12:59:45Z</time>
      </trkpt>
      <trkpt lat="46.15489" lon="2.47024">
        <ele>458</ele>
        <time>2015-04-08T12:59:47Z</time>
      </trkpt>
      <trkpt lat="46.15491" lon="2.4702">
        <ele>458</ele>
        <time>2015-04-08T12:59:49Z</time>
      </trkpt>
      <trkpt lat="46.15493" lon="2.47016">
        <ele>458</ele>
        <time>2015-04-08T12:59:51Z</time>
      </trkpt>
      <trkpt lat="46.15495" lon="2.47011">
        <ele>458</ele>
        <time>2015-04-08T12:59:53Z</time>
      </trkpt>
      <trkpt lat="46.15497" lon="2.47007">
        <ele>458</ele>
        <time>2015-04-08T12:59:55Z</time>
      </trkpt>
      <trkpt lat="46.15499" lon="2.47004">
        <ele>458</ele>
        <time>2015-04-08T12:59:57Z</time>
      </trkpt>
      <trkpt lat="46.15501" lon="2.47">
        <ele>458</ele>
        <time>2015-04-08T12:59:59Z</time>
      </trkpt>
      <trkpt lat="46.15502" lon="2.46996">
        <ele>458</ele>
        <time>2015-04-08T13:00:01Z</time>
      </trkpt>
      <trkpt lat="46.15504" lon="2.46992">
        <ele>458</ele>
        <time>2015-04-08T13:00:03Z</time>
      </trkpt>
      <trkpt lat="46.15506" lon="2.46989">
        <ele>458</ele>
        <time>2015-04-08T13:00:05Z</time>
      </trkpt>
      <trkpt lat="46.15508" lon="2.46985">
        <ele>458</ele>
        <time>2015-04-08T13:00:07Z</time>
      </trkpt>
      <trkpt lat="46.1551" lon="2.46981">
        <ele>458</ele>
        <time>2015-04-08T13:00:09Z</time>
      </trkpt>
      <trkpt lat="46.15512" lon="2.46978">
        <ele>458</ele>
        <time>2015-04-08T13:00:11Z</time>
      </trkpt>
      <trkpt lat="46.15514" lon="2.46974">
        <ele>458</ele>
        <time>2015-04-08T13:00:13Z</time>
      </trkpt>
      <trkpt lat="46.15517" lon="2.46971">
        <ele>458</ele>
        <time>2015-04-08T13:00:15Z</time>
      </trkpt>
      <trkpt lat="46.15519" lon="2.46967">
        <ele>458</ele>
        <time>2015-04-08T13:00:17Z</time>
      </trkpt>
      <trkpt lat="46.1552" lon="2.46963">
        <ele>458</ele>
        <time>2015-04-08T13:00:19Z</time>
      </trkpt>
      <trkpt lat="46.15522" lon="2.46959">
        <ele>458</ele>
        <time>2015-04-08T13:00:21Z</time>
      </trkpt>
      <trkpt lat="46.15524" lon="2.46955">
        <ele>458</ele>
        <time>2015-04-08T13:00:23Z</time>
      </trkpt>
      <trkpt lat="46.15526" lon="2.46951">
        <ele>458</ele>
        <time>2015-04-08T13:00:25Z</time>
      </trkpt>
      <trkpt lat="46.15528" lon="2.46948">
        <ele>458</ele>
        <time>2015-04-08T13:00:27Z</time>
      </trkpt>
      <trkpt lat="46.1553" lon="2.46944">
        <ele>458</ele>
        <time>2015-04-08T13:00:29Z</time>
      </trkpt>
      <trkpt lat="46.15532" lon="2.46941">
        <ele>458</ele>
        <time>2015-04-08T13:00:31Z</time>
      </trkpt>
      <trkpt lat="46.15534" lon="2.46937">
        <ele>458</ele>
        <time>2015-04-08T13:00:33Z</time>
      </trkpt>
      <trkpt lat="46.15536" lon="2.46934">
        <ele>458</ele>
        <time>2015-04-08T13:00:35Z</time>
      </trkpt>
      <trkpt lat="46.15538" lon="2.4693">
        <ele>458</ele>
        <time>2015-04-08T13:00:37Z</time>
      </trkpt>
      <trkpt lat="46.15539" lon="2.46927">
        <ele>458</ele>
        <time>2015-04-08T13:00:39Z</time>
      </trkpt>
      <trkpt lat="46.15541" lon="2.46923">
        <ele>457</ele>
        <time>2015-04-08T13:00:41Z</time>
      </trkpt>
      <trkpt lat="46.15543" lon="2.4692">
        <ele>457</ele>
        <time>2015-04-08T13:00:43Z</time>
      </trkpt>
      <trkpt lat="46.15545" lon="2.46917">
        <ele>457</ele>
        <time>2015-04-08T13:00:45Z</time>
      </trkpt>
      <trkpt lat="46.15547" lon="2.46914">
        <ele>457</ele>
        <time>2015-04-08T13:00:47Z</time>
      </trkpt>
      <trkpt lat="46.1555" lon="2.4691">
        <ele>456</ele>
        <time>2015-04-08T13:00:50Z</time>
      </trkpt>
      <trkpt lat="46.15552" lon="2.46907">
        <ele>456</ele>
        <time>2015-04-08T13:00:52Z</time>
      </trkpt>
      <trkpt lat="46.15554" lon="2.46905">
        <ele>455</ele>
        <time>2015-04-08T13:00:54Z</time>
      </trkpt>
      <trkpt lat="46.15556" lon="2.46903">
        <ele>455</ele>
        <time>2015-04-08T13:00:56Z</time>
      </trkpt>
      <trkpt lat="46.15559" lon="2.469">
        <ele>455</ele>
        <time>2015-04-08T13:00:58Z</time>
      </trkpt>
      <trkpt lat="46.15561" lon="2.46898">
        <ele>455</ele>
        <time>2015-04-08T13:01:00Z</time>
      </trkpt>
      <trkpt lat="46.15564" lon="2.46894">
        <ele>454</ele>
        <time>2015-04-08T13:01:03Z</time>
      </trkpt>
      <trkpt lat="46.15566" lon="2.46891">
        <ele>454</ele>
        <time>2015-04-08T13:01:05Z</time>
      </trkpt>
      <trkpt lat="46.15569" lon="2.46887">
        <ele>454</ele>
        <time>2015-04-08T13:01:08Z</time>
      </trkpt>
      <trkpt lat="46.15571" lon="2.46884">
        <ele>453</ele>
        <time>2015-04-08T13:01:10Z</time>
      </trkpt>
      <trkpt lat="46.15573" lon="2.46881">
        <ele>453</ele>
        <time>2015-04-08T13:01:12Z</time>
      </trkpt>
      <trkpt lat="46.15575" lon="2.46877">
        <ele>453</ele>
        <time>2015-04-08T13:01:14Z</time>
      </trkpt>
      <trkpt lat="46.15577" lon="2.46874">
        <ele>452</ele>
        <time>2015-04-08T13:01:16Z</time>
      </trkpt>
      <trkpt lat="46.1558" lon="2.46871">
        <ele>452</ele>
        <time>2015-04-08T13:01:18Z</time>
      </trkpt>
      <trkpt lat="46.15582" lon="2.46868">
        <ele>452</ele>
        <time>2015-04-08T13:01:20Z</time>
      </trkpt>
      <trkpt lat="46.15585" lon="2.46865">
        <ele>451</ele>
        <time>2015-04-08T13:01:22Z</time>
      </trkpt>
      <trkpt lat="46.15587" lon="2.46861">
        <ele>451</ele>
        <time>2015-04-08T13:01:24Z</time>
      </trkpt>
      <trkpt lat="46.15589" lon="2.46858">
        <ele>451</ele>
        <time>2015-04-08T13:01:26Z</time>
      </trkpt>
      <trkpt lat="46.15592" lon="2.46854">
        <ele>451</ele>
        <time>2015-04-08T13:01:28Z</time>
      </trkpt>
      <trkpt lat="46.15594" lon="2.46851">
        <ele>450</ele>
        <time>2015-04-08T13:01:30Z</time>
      </trkpt>
      <trkpt lat="46.15596" lon="2.46847">
        <ele>450</ele>
        <time>2015-04-08T13:01:32Z</time>
      </trkpt>
      <trkpt lat="46.15598" lon="2.46844">
        <ele>450</ele>
        <time>2015-04-08T13:01:34Z</time>
      </trkpt>
      <trkpt lat="46.15601" lon="2.4684">
        <ele>450</ele>
        <time>2015-04-08T13:01:36Z</time>
      </trkpt>
      <trkpt lat="46.15603" lon="2.46837">
        <ele>450</ele>
        <time>2015-04-08T13:01:38Z</time>
      </trkpt>
      <trkpt lat="46.15605" lon="2.46833">
        <ele>450</ele>
        <time>2015-04-08T13:01:40Z</time>
      </trkpt>
      <trkpt lat="46.15607" lon="2.4683">
        <ele>450</ele>
        <time>2015-04-08T13:01:42Z</time>
      </trkpt>
      <trkpt lat="46.15609" lon="2.46827">
        <ele>450</ele>
        <time>2015-04-08T13:01:44Z</time>
      </trkpt>
      <trkpt lat="46.15612" lon="2.46823">
        <ele>450</ele>
        <time>2015-04-08T13:01:46Z</time>
      </trkpt>
      <trkpt lat="46.15614" lon="2.4682">
        <ele>450</ele>
        <time>2015-04-08T13:01:48Z</time>
      </trkpt>
      <trkpt lat="46.15616" lon="2.46817">
        <ele>450</ele>
        <time>2015-04-08T13:01:50Z</time>
      </trkpt>
      <trkpt lat="46.15618" lon="2.46813">
        <ele>450</ele>
        <time>2015-04-08T13:01:52Z</time>
      </trkpt>
      <trkpt lat="46.1562" lon="2.4681">
        <ele>450</ele>
        <time>2015-04-08T13:01:55Z</time>
      </trkpt>
      <trkpt lat="46.15623" lon="2.46804">
        <ele>450</ele>
        <time>2015-04-08T13:01:57Z</time>
      </trkpt>
      <trkpt lat="46.15625" lon="2.46801">
        <ele>450</ele>
        <time>2015-04-08T13:01:59Z</time>
      </trkpt>
      <trkpt lat="46.15628" lon="2.46797">
        <ele>450</ele>
        <time>2015-04-08T13:02:01Z</time>
      </trkpt>
      <trkpt lat="46.1563" lon="2.46794">
        <ele>450</ele>
        <time>2015-04-08T13:02:03Z</time>
      </trkpt>
      <trkpt lat="46.15632" lon="2.46791">
        <ele>450</ele>
        <time>2015-04-08T13:02:05Z</time>
      </trkpt>
      <trkpt lat="46.15634" lon="2.46788">
        <ele>450</ele>
        <time>2015-04-08T13:02:07Z</time>
      </trkpt>
      <trkpt lat="46.15635" lon="2.46784">
        <ele>450</ele>
        <time>2015-04-08T13:02:09Z</time>
      </trkpt>
      <trkpt lat="46.15638" lon="2.4678">
        <ele>450</ele>
        <time>2015-04-08T13:02:11Z</time>
      </trkpt>
      <trkpt lat="46.15639" lon="2.46777">
        <ele>450</ele>
        <time>2015-04-08T13:02:13Z</time>
      </trkpt>
      <trkpt lat="46.15641" lon="2.46774">
        <ele>450</ele>
        <time>2015-04-08T13:02:15Z</time>
      </trkpt>
      <trkpt lat="46.15643" lon="2.4677">
        <ele>450</ele>
        <time>2015-04-08T13:02:17Z</time>
      </trkpt>
      <trkpt lat="46.15645" lon="2.46767">
        <ele>450</ele>
        <time>2015-04-08T13:02:19Z</time>
      </trkpt>
      <trkpt lat="46.15648" lon="2.46763">
        <ele>450</ele>
        <time>2015-04-08T13:02:22Z</time>
      </trkpt>
      <trkpt lat="46.1565" lon="2.4676">
        <ele>450</ele>
        <time>2015-04-08T13:02:24Z</time>
      </trkpt>
      <trkpt lat="46.15652" lon="2.46757">
        <ele>450</ele>
        <time>2015-04-08T13:02:26Z</time>
      </trkpt>
      <trkpt lat="46.15654" lon="2.46753">
        <ele>450</ele>
        <time>2015-04-08T13:02:28Z</time>
      </trkpt>
      <trkpt lat="46.15656" lon="2.4675">
        <ele>450</ele>
        <time>2015-04-08T13:02:30Z</time>
      </trkpt>
      <trkpt lat="46.15657" lon="2.46747">
        <ele>450</ele>
        <time>2015-04-08T13:02:32Z</time>
      </trkpt>
      <trkpt lat="46.1566" lon="2.46744">
        <ele>450</ele>
        <time>2015-04-08T13:02:34Z</time>
      </trkpt>
      <trkpt lat="46.15662" lon="2.46741">
        <ele>450</ele>
        <time>2015-04-08T13:02:36Z</time>
      </trkpt>
      <trkpt lat="46.15664" lon="2.46738">
        <ele>450</ele>
        <time>2015-04-08T13:02:38Z</time>
      </trkpt>
      <trkpt lat="46.15667" lon="2.46736">
        <ele>450</ele>
        <time>2015-04-08T13:02:40Z</time>
      </trkpt>
      <trkpt lat="46.15669" lon="2.46734">
        <ele>450</ele>
        <time>2015-04-08T13:02:42Z</time>
      </trkpt>
      <trkpt lat="46.15672" lon="2.46731">
        <ele>450</ele>
        <time>2015-04-08T13:02:44Z</time>
      </trkpt>
      <trkpt lat="46.15675" lon="2.46727">
        <ele>450</ele>
        <time>2015-04-08T13:02:47Z</time>
      </trkpt>
      <trkpt lat="46.15676" lon="2.46725">
        <ele>450</ele>
        <time>2015-04-08T13:02:49Z</time>
      </trkpt>
      <trkpt lat="46.15679" lon="2.4672">
        <ele>450</ele>
        <time>2015-04-08T13:02:52Z</time>
      </trkpt>
      <trkpt lat="46.15682" lon="2.46716">
        <ele>450</ele>
        <time>2015-04-08T13:02:55Z</time>
      </trkpt>
      <trkpt lat="46.15684" lon="2.46714">
        <ele>450</ele>
        <time>2015-04-08T13:02:57Z</time>
      </trkpt>
      <trkpt lat="46.15686" lon="2.46712">
        <ele>449</ele>
        <time>2015-04-08T13:02:59Z</time>
      </trkpt>
      <trkpt lat="46.15689" lon="2.4671">
        <ele>449</ele>
        <time>2015-04-08T13:03:02Z</time>
      </trkpt>
      <trkpt lat="46.15691" lon="2.4671">
        <ele>449</ele>
        <time>2015-04-08T13:03:04Z</time>
      </trkpt>
      <trkpt lat="46.15689" lon="2.46711">
        <ele>449</ele>
        <time>2015-04-08T13:03:08Z</time>
      </trkpt>
      <trkpt lat="46.15688" lon="2.46713">
        <ele>449</ele>
        <time>2015-04-08T13:03:10Z</time>
      </trkpt>
      <trkpt lat="46.15686" lon="2.46716">
        <ele>449</ele>
        <time>2015-04-08T13:03:12Z</time>
      </trkpt>
      <trkpt lat="46.15685" lon="2.46718">
        <ele>449</ele>
        <time>2015-04-08T13:03:14Z</time>
      </trkpt>
      <trkpt lat="46.15686" lon="2.46718">
        <ele>449</ele>
        <time>2015-04-08T13:03:17Z</time>
      </trkpt>
      <trkpt lat="46.15688" lon="2.46716">
        <ele>449</ele>
        <time>2015-04-08T13:03:19Z</time>
      </trkpt>
      <trkpt lat="46.1569" lon="2.46713">
        <ele>449</ele>
        <time>2015-04-08T13:03:21Z</time>
      </trkpt>
      <trkpt lat="46.15692" lon="2.46711">
        <ele>449</ele>
        <time>2015-04-08T13:03:23Z</time>
      </trkpt>
      <trkpt lat="46.15694" lon="2.46709">
        <ele>449</ele>
        <time>2015-04-08T13:03:25Z</time>
      </trkpt>
      <trkpt lat="46.15697" lon="2.46706">
        <ele>449</ele>
        <time>2015-04-08T13:03:27Z</time>
      </trkpt>
      <trkpt lat="46.15699" lon="2.46703">
        <ele>449</ele>
        <time>2015-04-08T13:03:29Z</time>
      </trkpt>
      <trkpt lat="46.15703" lon="2.467">
        <ele>449</ele>
        <time>2015-04-08T13:03:32Z</time>
      </trkpt>
      <trkpt lat="46.15705" lon="2.46697">
        <ele>449</ele>
        <time>2015-04-08T13:03:34Z</time>
      </trkpt>
      <trkpt lat="46.15708" lon="2.46695">
        <ele>449</ele>
        <time>2015-04-08T13:03:36Z</time>
      </trkpt>
      <trkpt lat="46.15711" lon="2.46692">
        <ele>449</ele>
        <time>2015-04-08T13:03:38Z</time>
      </trkpt>
      <trkpt lat="46.15713" lon="2.4669">
        <ele>449</ele>
        <time>2015-04-08T13:03:40Z</time>
      </trkpt>
      <trkpt lat="46.15716" lon="2.46687">
        <ele>448</ele>
        <time>2015-04-08T13:03:42Z</time>
      </trkpt>
      <trkpt lat="46.15718" lon="2.46685">
        <ele>448</ele>
        <time>2015-04-08T13:03:44Z</time>
      </trkpt>
      <trkpt lat="46.1572" lon="2.46682">
        <ele>447</ele>
        <time>2015-04-08T13:03:46Z</time>
      </trkpt>
      <trkpt lat="46.15723" lon="2.46679">
        <ele>447</ele>
        <time>2015-04-08T13:03:48Z</time>
      </trkpt>
      <trkpt lat="46.15726" lon="2.46677">
        <ele>446</ele>
        <time>2015-04-08T13:03:50Z</time>
      </trkpt>
      <trkpt lat="46.15729" lon="2.46675">
        <ele>446</ele>
        <time>2015-04-08T13:03:52Z</time>
      </trkpt>
      <trkpt lat="46.15732" lon="2.46673">
        <ele>446</ele>
        <time>2015-04-08T13:03:54Z</time>
      </trkpt>
      <trkpt lat="46.15734" lon="2.46671">
        <ele>446</ele>
        <time>2015-04-08T13:03:56Z</time>
      </trkpt>
      <trkpt lat="46.15737" lon="2.46669">
        <ele>446</ele>
        <time>2015-04-08T13:03:58Z</time>
      </trkpt>
      <trkpt lat="46.1574" lon="2.46666">
        <ele>446</ele>
        <time>2015-04-08T13:04:00Z</time>
      </trkpt>
      <trkpt lat="46.15743" lon="2.46664">
        <ele>446</ele>
        <time>2015-04-08T13:04:02Z</time>
      </trkpt>
      <trkpt lat="46.15746" lon="2.46661">
        <ele>446</ele>
        <time>2015-04-08T13:04:04Z</time>
      </trkpt>
      <trkpt lat="46.15749" lon="2.46658">
        <ele>446</ele>
        <time>2015-04-08T13:04:06Z</time>
      </trkpt>
      <trkpt lat="46.15752" lon="2.46655">
        <ele>446</ele>
        <time>2015-04-08T13:04:09Z</time>
      </trkpt>
      <trkpt lat="46.15754" lon="2.46653">
        <ele>446</ele>
        <time>2015-04-08T13:04:11Z</time>
      </trkpt>
      <trkpt lat="46.15757" lon="2.46651">
        <ele>446</ele>
        <time>2015-04-08T13:04:13Z</time>
      </trkpt>
      <trkpt lat="46.1576" lon="2.46649">
        <ele>446</ele>
        <time>2015-04-08T13:04:15Z</time>
      </trkpt>
      <trkpt lat="46.15763" lon="2.46646">
        <ele>446</ele>
        <time>2015-04-08T13:04:17Z</time>
      </trkpt>
      <trkpt lat="46.15766" lon="2.46644">
        <ele>446</ele>
        <time>2015-04-08T13:04:19Z</time>
      </trkpt>
      <trkpt lat="46.15768" lon="2.46641">
        <ele>446</ele>
        <time>2015-04-08T13:04:21Z</time>
      </trkpt>
      <trkpt lat="46.15771" lon="2.46639">
        <ele>446</ele>
        <time>2015-04-08T13:04:23Z</time>
      </trkpt>
      <trkpt lat="46.15774" lon="2.46637">
        <ele>446</ele>
        <time>2015-04-08T13:04:25Z</time>
      </trkpt>
      <trkpt lat="46.15776" lon="2.46635">
        <ele>446</ele>
        <time>2015-04-08T13:04:27Z</time>
      </trkpt>
      <trkpt lat="46.15779" lon="2.46633">
        <ele>446</ele>
        <time>2015-04-08T13:04:29Z</time>
      </trkpt>
      <trkpt lat="46.15781" lon="2.46631">
        <ele>446</ele>
        <time>2015-04-08T13:04:31Z</time>
      </trkpt>
      <trkpt lat="46.15784" lon="2.46629">
        <ele>446</ele>
        <time>2015-04-08T13:04:33Z</time>
      </trkpt>
      <trkpt lat="46.15787" lon="2.46626">
        <ele>446</ele>
        <time>2015-04-08T13:04:35Z</time>
      </trkpt>
      <trkpt lat="46.1579" lon="2.46624">
        <ele>446</ele>
        <time>2015-04-08T13:04:37Z</time>
      </trkpt>
      <trkpt lat="46.15792" lon="2.46622">
        <ele>446</ele>
        <time>2015-04-08T13:04:39Z</time>
      </trkpt>
      <trkpt lat="46.15795" lon="2.4662">
        <ele>447</ele>
        <time>2015-04-08T13:04:41Z</time>
      </trkpt>
      <trkpt lat="46.15797" lon="2.46618">
        <ele>447</ele>
        <time>2015-04-08T13:04:43Z</time>
      </trkpt>
      <trkpt lat="46.158" lon="2.46616">
        <ele>447</ele>
        <time>2015-04-08T13:04:45Z</time>
      </trkpt>
      <trkpt lat="46.15803" lon="2.46613">
        <ele>447</ele>
        <time>2015-04-08T13:04:47Z</time>
      </trkpt>
      <trkpt lat="46.15806" lon="2.46611">
        <ele>447</ele>
        <time>2015-04-08T13:04:49Z</time>
      </trkpt>
      <trkpt lat="46.15809" lon="2.46609">
        <ele>447</ele>
        <time>2015-04-08T13:04:51Z</time>
      </trkpt>
      <trkpt lat="46.15811" lon="2.46607">
        <ele>447</ele>
        <time>2015-04-08T13:04:53Z</time>
      </trkpt>
      <trkpt lat="46.15814" lon="2.46605">
        <ele>447</ele>
        <time>2015-04-08T13:04:55Z</time>
      </trkpt>
      <trkpt lat="46.15817" lon="2.46604">
        <ele>447</ele>
        <time>2015-04-08T13:04:57Z</time>
      </trkpt>
      <trkpt lat="46.1582" lon="2.46602">
        <ele>447</ele>
        <time>2015-04-08T13:04:59Z</time>
      </trkpt>
      <trkpt lat="46.15822" lon="2.46601">
        <ele>447</ele>
        <time>2015-04-08T13:05:01Z</time>
      </trkpt>
      <trkpt lat="46.15825" lon="2.466">
        <ele>447</ele>
        <time>2015-04-08T13:05:03Z</time>
      </trkpt>
      <trkpt lat="46.15827" lon="2.46598">
        <ele>447</ele>
        <time>2015-04-08T13:05:05Z</time>
      </trkpt>
      <trkpt lat="46.15829" lon="2.46597">
        <ele>447</ele>
        <time>2015-04-08T13:05:07Z</time>
      </trkpt>
      <trkpt lat="46.15832" lon="2.46596">
        <ele>447</ele>
        <time>2015-04-08T13:05:09Z</time>
      </trkpt>
      <trkpt lat="46.15835" lon="2.46594">
        <ele>447</ele>
        <time>2015-04-08T13:05:11Z</time>
      </trkpt>
      <trkpt lat="46.15837" lon="2.46592">
        <ele>447</ele>
        <time>2015-04-08T13:05:13Z</time>
      </trkpt>
      <trkpt lat="46.1584" lon="2.46591">
        <ele>447</ele>
        <time>2015-04-08T13:05:15Z</time>
      </trkpt>
      <trkpt lat="46.15843" lon="2.46589">
        <ele>447</ele>
        <time>2015-04-08T13:05:17Z</time>
      </trkpt>
      <trkpt lat="46.15845" lon="2.46587">
        <ele>447</ele>
        <time>2015-04-08T13:05:19Z</time>
      </trkpt>
      <trkpt lat="46.15848" lon="2.46586">
        <ele>447</ele>
        <time>2015-04-08T13:05:21Z</time>
      </trkpt>
      <trkpt lat="46.15851" lon="2.46585">
        <ele>447</ele>
        <time>2015-04-08T13:05:23Z</time>
      </trkpt>
      <trkpt lat="46.15853" lon="2.46584">
        <ele>447</ele>
        <time>2015-04-08T13:05:25Z</time>
      </trkpt>
      <trkpt lat="46.15856" lon="2.46582">
        <ele>447</ele>
        <time>2015-04-08T13:05:27Z</time>
      </trkpt>
      <trkpt lat="46.15859" lon="2.46581">
        <ele>447</ele>
        <time>2015-04-08T13:05:29Z</time>
      </trkpt>
      <trkpt lat="46.15862" lon="2.4658">
        <ele>447</ele>
        <time>2015-04-08T13:05:31Z</time>
      </trkpt>
      <trkpt lat="46.15865" lon="2.46579">
        <ele>447</ele>
        <time>2015-04-08T13:05:33Z</time>
      </trkpt>
      <trkpt lat="46.15868" lon="2.46579">
        <ele>447</ele>
        <time>2015-04-08T13:05:35Z</time>
      </trkpt>
      <trkpt lat="46.15871" lon="2.46579">
        <ele>447</ele>
        <time>2015-04-08T13:05:37Z</time>
      </trkpt>
      <trkpt lat="46.15874" lon="2.46579">
        <ele>447</ele>
        <time>2015-04-08T13:05:39Z</time>
      </trkpt>
      <trkpt lat="46.15877" lon="2.4658">
        <ele>447</ele>
        <time>2015-04-08T13:05:41Z</time>
      </trkpt>
      <trkpt lat="46.15879" lon="2.46581">
        <ele>447</ele>
        <time>2015-04-08T13:05:43Z</time>
      </trkpt>
      <trkpt lat="46.15882" lon="2.4658">
        <ele>448</ele>
        <time>2015-04-08T13:05:45Z</time>
      </trkpt>
      <trkpt lat="46.15885" lon="2.46579">
        <ele>448</ele>
        <time>2015-04-08T13:05:47Z</time>
      </trkpt>
      <trkpt lat="46.15887" lon="2.46576">
        <ele>449</ele>
        <time>2015-04-08T13:05:49Z</time>
      </trkpt>
      <trkpt lat="46.15889" lon="2.46573">
        <ele>449</ele>
        <time>2015-04-08T13:05:51Z</time>
      </trkpt>
      <trkpt lat="46.15891" lon="2.46569">
        <ele>449</ele>
        <time>2015-04-08T13:05:53Z</time>
      </trkpt>
      <trkpt lat="46.15893" lon="2.46566">
        <ele>449</ele>
        <time>2015-04-08T13:05:55Z</time>
      </trkpt>
      <trkpt lat="46.15895" lon="2.46563">
        <ele>449</ele>
        <time>2015-04-08T13:05:57Z</time>
      </trkpt>
      <trkpt lat="46.15898" lon="2.46561">
        <ele>449</ele>
        <time>2015-04-08T13:05:59Z</time>
      </trkpt>
      <trkpt lat="46.15901" lon="2.46558">
        <ele>449</ele>
        <time>2015-04-08T13:06:01Z</time>
      </trkpt>
      <trkpt lat="46.15903" lon="2.46555">
        <ele>449</ele>
        <time>2015-04-08T13:06:03Z</time>
      </trkpt>
      <trkpt lat="46.15906" lon="2.46551">
        <ele>449</ele>
        <time>2015-04-08T13:06:06Z</time>
      </trkpt>
      <trkpt lat="46.15908" lon="2.46549">
        <ele>449</ele>
        <time>2015-04-08T13:06:08Z</time>
      </trkpt>
      <trkpt lat="46.15911" lon="2.46547">
        <ele>449</ele>
        <time>2015-04-08T13:06:10Z</time>
      </trkpt>
      <trkpt lat="46.15914" lon="2.46543">
        <ele>449</ele>
        <time>2015-04-08T13:06:13Z</time>
      </trkpt>
      <trkpt lat="46.15916" lon="2.4654">
        <ele>449</ele>
        <time>2015-04-08T13:06:15Z</time>
      </trkpt>
      <trkpt lat="46.15918" lon="2.46537">
        <ele>449</ele>
        <time>2015-04-08T13:06:17Z</time>
      </trkpt>
      <trkpt lat="46.15921" lon="2.46534">
        <ele>449</ele>
        <time>2015-04-08T13:06:19Z</time>
      </trkpt>
      <trkpt lat="46.15923" lon="2.4653">
        <ele>449</ele>
        <time>2015-04-08T13:06:22Z</time>
      </trkpt>
      <trkpt lat="46.15925" lon="2.46526">
        <ele>449</ele>
        <time>2015-04-08T13:06:24Z</time>
      </trkpt>
      <trkpt lat="46.15927" lon="2.46523">
        <ele>449</ele>
        <time>2015-04-08T13:06:26Z</time>
      </trkpt>
      <trkpt lat="46.15929" lon="2.4652">
        <ele>449</ele>
        <time>2015-04-08T13:06:28Z</time>
      </trkpt>
      <trkpt lat="46.15931" lon="2.46517">
        <ele>449</ele>
        <time>2015-04-08T13:06:30Z</time>
      </trkpt>
      <trkpt lat="46.15932" lon="2.46514">
        <ele>449</ele>
        <time>2015-04-08T13:06:32Z</time>
      </trkpt>
      <trkpt lat="46.15934" lon="2.4651">
        <ele>449</ele>
        <time>2015-04-08T13:06:34Z</time>
      </trkpt>
      <trkpt lat="46.15935" lon="2.46506">
        <ele>449</ele>
        <time>2015-04-08T13:06:36Z</time>
      </trkpt>
      <trkpt lat="46.15936" lon="2.46502">
        <ele>449</ele>
        <time>2015-04-08T13:06:38Z</time>
      </trkpt>
      <trkpt lat="46.15937" lon="2.46499">
        <ele>449</ele>
        <time>2015-04-08T13:06:40Z</time>
      </trkpt>
      <trkpt lat="46.15939" lon="2.46495">
        <ele>449</ele>
        <time>2015-04-08T13:06:42Z</time>
      </trkpt>
      <trkpt lat="46.15939" lon="2.46491">
        <ele>449</ele>
        <time>2015-04-08T13:06:44Z</time>
      </trkpt>
      <trkpt lat="46.1594" lon="2.46487">
        <ele>449</ele>
        <time>2015-04-08T13:06:46Z</time>
      </trkpt>
      <trkpt lat="46.15941" lon="2.46483">
        <ele>449</ele>
        <time>2015-04-08T13:06:48Z</time>
      </trkpt>
      <trkpt lat="46.15942" lon="2.46479">
        <ele>449</ele>
        <time>2015-04-08T13:06:50Z</time>
      </trkpt>
      <trkpt lat="46.15942" lon="2.46475">
        <ele>449</ele>
        <time>2015-04-08T13:06:52Z</time>
      </trkpt>
      <trkpt lat="46.15942" lon="2.4647">
        <ele>449</ele>
        <time>2015-04-08T13:06:54Z</time>
      </trkpt>
      <trkpt lat="46.15942" lon="2.46466">
        <ele>449</ele>
        <time>2015-04-08T13:06:56Z</time>
      </trkpt>
      <trkpt lat="46.15942" lon="2.46462">
        <ele>449</ele>
        <time>2015-04-08T13:06:58Z</time>
      </trkpt>
      <trkpt lat="46.15942" lon="2.46459">
        <ele>449</ele>
        <time>2015-04-08T13:07:00Z</time>
      </trkpt>
      <trkpt lat="46.15942" lon="2.46455">
        <ele>449</ele>
        <time>2015-04-08T13:07:02Z</time>
      </trkpt>
      <trkpt lat="46.15943" lon="2.46451">
        <ele>449</ele>
        <time>2015-04-08T13:07:04Z</time>
      </trkpt>
      <trkpt lat="46.15944" lon="2.46448">
        <ele>448</ele>
        <time>2015-04-08T13:07:06Z</time>
      </trkpt>
      <trkpt lat="46.15946" lon="2.46445">
        <ele>448</ele>
        <time>2015-04-08T13:07:08Z</time>
      </trkpt>
      <trkpt lat="46.15948" lon="2.46442">
        <ele>448</ele>
        <time>2015-04-08T13:07:10Z</time>
      </trkpt>
      <trkpt lat="46.1595" lon="2.4644">
        <ele>447</ele>
        <time>2015-04-08T13:07:12Z</time>
      </trkpt>
      <trkpt lat="46.15953" lon="2.46438">
        <ele>447</ele>
        <time>2015-04-08T13:07:14Z</time>
      </trkpt>
      <trkpt lat="46.15955" lon="2.46436">
        <ele>447</ele>
        <time>2015-04-08T13:07:16Z</time>
      </trkpt>
      <trkpt lat="46.15958" lon="2.46434">
        <ele>446</ele>
        <time>2015-04-08T13:07:18Z</time>
      </trkpt>
      <trkpt lat="46.1596" lon="2.46432">
        <ele>446</ele>
        <time>2015-04-08T13:07:20Z</time>
      </trkpt>
      <trkpt lat="46.15963" lon="2.4643">
        <ele>446</ele>
        <time>2015-04-08T13:07:22Z</time>
      </trkpt>
      <trkpt lat="46.15965" lon="2.46428">
        <ele>446</ele>
        <time>2015-04-08T13:07:24Z</time>
      </trkpt>
      <trkpt lat="46.15968" lon="2.46426">
        <ele>446</ele>
        <time>2015-04-08T13:07:26Z</time>
      </trkpt>
      <trkpt lat="46.1597" lon="2.46423">
        <ele>446</ele>
        <time>2015-04-08T13:07:28Z</time>
      </trkpt>
      <trkpt lat="46.15973" lon="2.4642">
        <ele>446</ele>
        <time>2015-04-08T13:07:30Z</time>
      </trkpt>
      <trkpt lat="46.15975" lon="2.46417">
        <ele>445</ele>
        <time>2015-04-08T13:07:32Z</time>
      </trkpt>
      <trkpt lat="46.15977" lon="2.46414">
        <ele>445</ele>
        <time>2015-04-08T13:07:34Z</time>
      </trkpt>
      <trkpt lat="46.1598" lon="2.46411">
        <ele>444</ele>
        <time>2015-04-08T13:07:36Z</time>
      </trkpt>
      <trkpt lat="46.15982" lon="2.46409">
        <ele>444</ele>
        <time>2015-04-08T13:07:38Z</time>
      </trkpt>
      <trkpt lat="46.15985" lon="2.46406">
        <ele>443</ele>
        <time>2015-04-08T13:07:40Z</time>
      </trkpt>
      <trkpt lat="46.15987" lon="2.46403">
        <ele>443</ele>
        <time>2015-04-08T13:07:42Z</time>
      </trkpt>
      <trkpt lat="46.1599" lon="2.464">
        <ele>442</ele>
        <time>2015-04-08T13:07:44Z</time>
      </trkpt>
      <trkpt lat="46.15993" lon="2.46397">
        <ele>442</ele>
        <time>2015-04-08T13:07:46Z</time>
      </trkpt>
      <trkpt lat="46.15995" lon="2.46394">
        <ele>442</ele>
        <time>2015-04-08T13:07:48Z</time>
      </trkpt>
      <trkpt lat="46.15998" lon="2.46392">
        <ele>442</ele>
        <time>2015-04-08T13:07:50Z</time>
      </trkpt>
      <trkpt lat="46.16" lon="2.4639">
        <ele>441</ele>
        <time>2015-04-08T13:07:52Z</time>
      </trkpt>
      <trkpt lat="46.16003" lon="2.46387">
        <ele>441</ele>
        <time>2015-04-08T13:07:54Z</time>
      </trkpt>
      <trkpt lat="46.16006" lon="2.46385">
        <ele>441</ele>
        <time>2015-04-08T13:07:56Z</time>
      </trkpt>
      <trkpt lat="46.16008" lon="2.46382">
        <ele>441</ele>
        <time>2015-04-08T13:07:58Z</time>
      </trkpt>
      <trkpt lat="46.16011" lon="2.4638">
        <ele>440</ele>
        <time>2015-04-08T13:08:00Z</time>
      </trkpt>
      <trkpt lat="46.16013" lon="2.46378">
        <ele>440</ele>
        <time>2015-04-08T13:08:02Z</time>
      </trkpt>
      <trkpt lat="46.16016" lon="2.46376">
        <ele>440</ele>
        <time>2015-04-08T13:08:04Z</time>
      </trkpt>
      <trkpt lat="46.16019" lon="2.46374">
        <ele>440</ele>
        <time>2015-04-08T13:08:06Z</time>
      </trkpt>
      <trkpt lat="46.16021" lon="2.46371">
        <ele>439</ele>
        <time>2015-04-08T13:08:08Z</time>
      </trkpt>
      <trkpt lat="46.16024" lon="2.46369">
        <ele>439</ele>
        <time>2015-04-08T13:08:10Z</time>
      </trkpt>
      <trkpt lat="46.16026" lon="2.46366">
        <ele>439</ele>
        <time>2015-04-08T13:08:12Z</time>
      </trkpt>
      <trkpt lat="46.16029" lon="2.46363">
        <ele>439</ele>
        <time>2015-04-08T13:08:14Z</time>
      </trkpt>
      <trkpt lat="46.16031" lon="2.46361">
        <ele>439</ele>
        <time>2015-04-08T13:08:16Z</time>
      </trkpt>
      <trkpt lat="46.16034" lon="2.46358">
        <ele>439</ele>
        <time>2015-04-08T13:08:18Z</time>
      </trkpt>
      <trkpt lat="46.16036" lon="2.46355">
        <ele>439</ele>
        <time>2015-04-08T13:08:20Z</time>
      </trkpt>
      <trkpt lat="46.16037" lon="2.46352">
        <ele>438</ele>
        <time>2015-04-08T13:08:22Z</time>
      </trkpt>
      <trkpt lat="46.16039" lon="2.46348">
        <ele>438</ele>
        <time>2015-04-08T13:08:24Z</time>
      </trkpt>
      <trkpt lat="46.1604" lon="2.46344">
        <ele>438</ele>
        <time>2015-04-08T13:08:26Z</time>
      </trkpt>
      <trkpt lat="46.16041" lon="2.4634">
        <ele>438</ele>
        <time>2015-04-08T13:08:28Z</time>
      </trkpt>
      <trkpt lat="46.16042" lon="2.46336">
        <ele>438</ele>
        <time>2015-04-08T13:08:30Z</time>
      </trkpt>
      <trkpt lat="46.16043" lon="2.46332">
        <ele>438</ele>
        <time>2015-04-08T13:08:32Z</time>
      </trkpt>
      <trkpt lat="46.16043" lon="2.46328">
        <ele>438</ele>
        <time>2015-04-08T13:08:34Z</time>
      </trkpt>
      <trkpt lat="46.16044" lon="2.46325">
        <ele>438</ele>
        <time>2015-04-08T13:08:36Z</time>
      </trkpt>
      <trkpt lat="46.16045" lon="2.46321">
        <ele>438</ele>
        <time>2015-04-08T13:08:38Z</time>
      </trkpt>
      <trkpt lat="46.16046" lon="2.46317">
        <ele>438</ele>
        <time>2015-04-08T13:08:40Z</time>
      </trkpt>
      <trkpt lat="46.16048" lon="2.46312">
        <ele>437</ele>
        <time>2015-04-08T13:08:42Z</time>
      </trkpt>
      <trkpt lat="46.16049" lon="2.46308">
        <ele>437</ele>
        <time>2015-04-08T13:08:44Z</time>
      </trkpt>
      <trkpt lat="46.1605" lon="2.46304">
        <ele>437</ele>
        <time>2015-04-08T13:08:46Z</time>
      </trkpt>
      <trkpt lat="46.16052" lon="2.46301">
        <ele>437</ele>
        <time>2015-04-08T13:08:48Z</time>
      </trkpt>
      <trkpt lat="46.16053" lon="2.46297">
        <ele>436</ele>
        <time>2015-04-08T13:08:50Z</time>
      </trkpt>
      <trkpt lat="46.16055" lon="2.46294">
        <ele>436</ele>
        <time>2015-04-08T13:08:52Z</time>
      </trkpt>
      <trkpt lat="46.16057" lon="2.4629">
        <ele>436</ele>
        <time>2015-04-08T13:08:54Z</time>
      </trkpt>
      <trkpt lat="46.16059" lon="2.46287">
        <ele>436</ele>
        <time>2015-04-08T13:08:56Z</time>
      </trkpt>
      <trkpt lat="46.16061" lon="2.46285">
        <ele>436</ele>
        <time>2015-04-08T13:08:58Z</time>
      </trkpt>
      <trkpt lat="46.16064" lon="2.46283">
        <ele>436</ele>
        <time>2015-04-08T13:09:00Z</time>
      </trkpt>
      <trkpt lat="46.16067" lon="2.4628">
        <ele>436</ele>
        <time>2015-04-08T13:09:02Z</time>
      </trkpt>
      <trkpt lat="46.16069" lon="2.46277">
        <ele>435</ele>
        <time>2015-04-08T13:09:04Z</time>
      </trkpt>
      <trkpt lat="46.16071" lon="2.46274">
        <ele>435</ele>
        <time>2015-04-08T13:09:06Z</time>
      </trkpt>
      <trkpt lat="46.16073" lon="2.4627">
        <ele>435</ele>
        <time>2015-04-08T13:09:08Z</time>
      </trkpt>
      <trkpt lat="46.16075" lon="2.46267">
        <ele>435</ele>
        <time>2015-04-08T13:09:10Z</time>
      </trkpt>
      <trkpt lat="46.16077" lon="2.46264">
        <ele>435</ele>
        <time>2015-04-08T13:09:12Z</time>
      </trkpt>
      <trkpt lat="46.16079" lon="2.4626">
        <ele>435</ele>
        <time>2015-04-08T13:09:14Z</time>
      </trkpt>
      <trkpt lat="46.16081" lon="2.46257">
        <ele>435</ele>
        <time>2015-04-08T13:09:16Z</time>
      </trkpt>
      <trkpt lat="46.16083" lon="2.46254">
        <ele>435</ele>
        <time>2015-04-08T13:09:18Z</time>
      </trkpt>
      <trkpt lat="46.16085" lon="2.4625">
        <ele>435</ele>
        <time>2015-04-08T13:09:20Z</time>
      </trkpt>
      <trkpt lat="46.16086" lon="2.46247">
        <ele>435</ele>
        <time>2015-04-08T13:09:22Z</time>
      </trkpt>
      <trkpt lat="46.16088" lon="2.46243">
        <ele>435</ele>
        <time>2015-04-08T13:09:24Z</time>
      </trkpt>
      <trkpt lat="46.1609" lon="2.4624">
        <ele>434</ele>
        <time>2015-04-08T13:09:26Z</time>
      </trkpt>
      <trkpt lat="46.16092" lon="2.46237">
        <ele>434</ele>
        <time>2015-04-08T13:09:28Z</time>
      </trkpt>
      <trkpt lat="46.16094" lon="2.46234">
        <ele>434</ele>
        <time>2015-04-08T13:09:30Z</time>
      </trkpt>
      <trkpt lat="46.16095" lon="2.4623">
        <ele>434</ele>
        <time>2015-04-08T13:09:32Z</time>
      </trkpt>
      <trkpt lat="46.16097" lon="2.46227">
        <ele>433</ele>
        <time>2015-04-08T13:09:34Z</time>
      </trkpt>
      <trkpt lat="46.16098" lon="2.46223">
        <ele>433</ele>
        <time>2015-04-08T13:09:36Z</time>
      </trkpt>
      <trkpt lat="46.161" lon="2.46218">
        <ele>433</ele>
        <time>2015-04-08T13:09:38Z</time>
      </trkpt>
      <trkpt lat="46.16101" lon="2.46214">
        <ele>432</ele>
        <time>2015-04-08T13:09:40Z</time>
      </trkpt>
      <trkpt lat="46.16103" lon="2.4621">
        <ele>432</ele>
        <time>2015-04-08T13:09:42Z</time>
      </trkpt>
      <trkpt lat="46.16104" lon="2.46206">
        <ele>431</ele>
        <time>2015-04-08T13:09:44Z</time>
      </trkpt>
      <trkpt lat="46.16105" lon="2.46201">
        <ele>431</ele>
        <time>2015-04-08T13:09:46Z</time>
      </trkpt>
      <trkpt lat="46.16106" lon="2.46197">
        <ele>431</ele>
        <time>2015-04-08T13:09:48Z</time>
      </trkpt>
      <trkpt lat="46.16107" lon="2.46193">
        <ele>431</ele>
        <time>2015-04-08T13:09:50Z</time>
      </trkpt>
      <trkpt lat="46.16108" lon="2.46189">
        <ele>431</ele>
        <time>2015-04-08T13:09:52Z</time>
      </trkpt>
      <trkpt lat="46.16108" lon="2.46185">
        <ele>431</ele>
        <time>2015-04-08T13:09:54Z</time>
      </trkpt>
      <trkpt lat="46.1611" lon="2.46181">
        <ele>431</ele>
        <time>2015-04-08T13:09:56Z</time>
      </trkpt>
      <trkpt lat="46.16111" lon="2.46177">
        <ele>431</ele>
        <time>2015-04-08T13:09:58Z</time>
      </trkpt>
      <trkpt lat="46.16111" lon="2.46172">
        <ele>431</ele>
        <time>2015-04-08T13:10:00Z</time>
      </trkpt>
      <trkpt lat="46.16113" lon="2.46167">
        <ele>431</ele>
        <time>2015-04-08T13:10:02Z</time>
      </trkpt>
      <trkpt lat="46.16113" lon="2.46163">
        <ele>431</ele>
        <time>2015-04-08T13:10:04Z</time>
      </trkpt>
      <trkpt lat="46.16113" lon="2.46157">
        <ele>430</ele>
        <time>2015-04-08T13:10:06Z</time>
      </trkpt>
      <trkpt lat="46.16113" lon="2.46153">
        <ele>430</ele>
        <time>2015-04-08T13:10:08Z</time>
      </trkpt>
      <trkpt lat="46.16114" lon="2.46149">
        <ele>430</ele>
        <time>2015-04-08T13:10:10Z</time>
      </trkpt>
      <trkpt lat="46.16114" lon="2.46145">
        <ele>430</ele>
        <time>2015-04-08T13:10:12Z</time>
      </trkpt>
      <trkpt lat="46.16114" lon="2.46141">
        <ele>430</ele>
        <time>2015-04-08T13:10:14Z</time>
      </trkpt>
      <trkpt lat="46.16114" lon="2.46136">
        <ele>430</ele>
        <time>2015-04-08T13:10:16Z</time>
      </trkpt>
      <trkpt lat="46.16113" lon="2.46131">
        <ele>430</ele>
        <time>2015-04-08T13:10:18Z</time>
      </trkpt>
      <trkpt lat="46.16113" lon="2.46128">
        <ele>430</ele>
        <time>2015-04-08T13:10:20Z</time>
      </trkpt>
      <trkpt lat="46.16111" lon="2.46124">
        <ele>430</ele>
        <time>2015-04-08T13:10:22Z</time>
      </trkpt>
      <trkpt lat="46.16109" lon="2.4612">
        <ele>430</ele>
        <time>2015-04-08T13:10:24Z</time>
      </trkpt>
      <trkpt lat="46.16107" lon="2.46115">
        <ele>430</ele>
        <time>2015-04-08T13:10:26Z</time>
      </trkpt>
      <trkpt lat="46.16105" lon="2.46111">
        <ele>430</ele>
        <time>2015-04-08T13:10:28Z</time>
      </trkpt>
      <trkpt lat="46.16103" lon="2.46107">
        <ele>430</ele>
        <time>2015-04-08T13:10:30Z</time>
      </trkpt>
      <trkpt lat="46.161" lon="2.46104">
        <ele>430</ele>
        <time>2015-04-08T13:10:32Z</time>
      </trkpt>
      <trkpt lat="46.16098" lon="2.461">
        <ele>429</ele>
        <time>2015-04-08T13:10:35Z</time>
      </trkpt>
      <trkpt lat="46.16096" lon="2.46097">
        <ele>429</ele>
        <time>2015-04-08T13:10:37Z</time>
      </trkpt>
      <trkpt lat="46.16094" lon="2.46096">
        <ele>429</ele>
        <time>2015-04-08T13:10:39Z</time>
      </trkpt>
      <trkpt lat="46.16091" lon="2.46093">
        <ele>429</ele>
        <time>2015-04-08T13:10:41Z</time>
      </trkpt>
      <trkpt lat="46.16087" lon="2.46091">
        <ele>429</ele>
        <time>2015-04-08T13:10:43Z</time>
      </trkpt>
      <trkpt lat="46.16083" lon="2.46089">
        <ele>429</ele>
        <time>2015-04-08T13:10:45Z</time>
      </trkpt>
      <trkpt lat="46.1608" lon="2.46088">
        <ele>429</ele>
        <time>2015-04-08T13:10:47Z</time>
      </trkpt>
      <trkpt lat="46.16078" lon="2.46087">
        <ele>429</ele>
        <time>2015-04-08T13:10:49Z</time>
      </trkpt>
      <trkpt lat="46.16075" lon="2.46086">
        <ele>428</ele>
        <time>2015-04-08T13:10:51Z</time>
      </trkpt>
      <trkpt lat="46.16072" lon="2.46086">
        <ele>427</ele>
        <time>2015-04-08T13:10:53Z</time>
      </trkpt>
      <trkpt lat="46.1607" lon="2.46087">
        <ele>427</ele>
        <time>2015-04-08T13:10:55Z</time>
      </trkpt>
      <trkpt lat="46.16069" lon="2.46087">
        <ele>426</ele>
        <time>2015-04-08T13:10:57Z</time>
      </trkpt>
      <trkpt lat="46.16066" lon="2.46087">
        <ele>425</ele>
        <time>2015-04-08T13:10:59Z</time>
      </trkpt>
      <trkpt lat="46.16063" lon="2.46085">
        <ele>425</ele>
        <time>2015-04-08T13:11:01Z</time>
      </trkpt>
      <trkpt lat="46.16059" lon="2.46085">
        <ele>425</ele>
        <time>2015-04-08T13:11:03Z</time>
      </trkpt>
      <trkpt lat="46.16057" lon="2.46085">
        <ele>425</ele>
        <time>2015-04-08T13:11:05Z</time>
      </trkpt>
      <trkpt lat="46.16055" lon="2.46086">
        <ele>425</ele>
        <time>2015-04-08T13:11:07Z</time>
      </trkpt>
      <trkpt lat="46.16051" lon="2.46085">
        <ele>424</ele>
        <time>2015-04-08T13:11:09Z</time>
      </trkpt>
      <trkpt lat="46.16047" lon="2.46083">
        <ele>424</ele>
        <time>2015-04-08T13:11:11Z</time>
      </trkpt>
      <trkpt lat="46.16044" lon="2.46083">
        <ele>424</ele>
        <time>2015-04-08T13:11:13Z</time>
      </trkpt>
      <trkpt lat="46.1604" lon="2.46083">
        <ele>424</ele>
        <time>2015-04-08T13:11:15Z</time>
      </trkpt>
      <trkpt lat="46.16037" lon="2.46082">
        <ele>424</ele>
        <time>2015-04-08T13:11:17Z</time>
      </trkpt>
      <trkpt lat="46.16034" lon="2.46081">
        <ele>424</ele>
        <time>2015-04-08T13:11:19Z</time>
      </trkpt>
      <trkpt lat="46.16031" lon="2.4608">
        <ele>424</ele>
        <time>2015-04-08T13:11:21Z</time>
      </trkpt>
      <trkpt lat="46.16028" lon="2.46079">
        <ele>424</ele>
        <time>2015-04-08T13:11:23Z</time>
      </trkpt>
      <trkpt lat="46.16026" lon="2.46079">
        <ele>424</ele>
        <time>2015-04-08T13:11:25Z</time>
      </trkpt>
      <trkpt lat="46.16023" lon="2.46078">
        <ele>424</ele>
        <time>2015-04-08T13:11:27Z</time>
      </trkpt>
      <trkpt lat="46.1602" lon="2.46078">
        <ele>424</ele>
        <time>2015-04-08T13:11:29Z</time>
      </trkpt>
      <trkpt lat="46.16017" lon="2.46078">
        <ele>424</ele>
        <time>2015-04-08T13:11:31Z</time>
      </trkpt>
      <trkpt lat="46.16012" lon="2.46076">
        <ele>424</ele>
        <time>2015-04-08T13:11:34Z</time>
      </trkpt>
      <trkpt lat="46.16006" lon="2.46074">
        <ele>424</ele>
        <time>2015-04-08T13:11:36Z</time>
      </trkpt>
      <trkpt lat="46.16002" lon="2.46073">
        <ele>424</ele>
        <time>2015-04-08T13:11:38Z</time>
      </trkpt>
      <trkpt lat="46.15998" lon="2.46072">
        <ele>424</ele>
        <time>2015-04-08T13:11:40Z</time>
      </trkpt>
      <trkpt lat="46.15995" lon="2.46071">
        <ele>424</ele>
        <time>2015-04-08T13:11:42Z</time>
      </trkpt>
      <trkpt lat="46.15992" lon="2.46071">
        <ele>424</ele>
        <time>2015-04-08T13:11:44Z</time>
      </trkpt>
      <trkpt lat="46.15989" lon="2.4607">
        <ele>424</ele>
        <time>2015-04-08T13:11:46Z</time>
      </trkpt>
      <trkpt lat="46.15987" lon="2.46069">
        <ele>424</ele>
        <time>2015-04-08T13:11:48Z</time>
      </trkpt>
      <trkpt lat="46.15984" lon="2.46069">
        <ele>424</ele>
        <time>2015-04-08T13:11:50Z</time>
      </trkpt>
      <trkpt lat="46.15982" lon="2.46069">
        <ele>424</ele>
        <time>2015-04-08T13:11:52Z</time>
      </trkpt>
      <trkpt lat="46.15979" lon="2.46069">
        <ele>424</ele>
        <time>2015-04-08T13:11:54Z</time>
      </trkpt>
      <trkpt lat="46.15975" lon="2.46069">
        <ele>424</ele>
        <time>2015-04-08T13:11:56Z</time>
      </trkpt>
      <trkpt lat="46.15971" lon="2.46068">
        <ele>424</ele>
        <time>2015-04-08T13:11:58Z</time>
      </trkpt>
      <trkpt lat="46.15968" lon="2.46066">
        <ele>424</ele>
        <time>2015-04-08T13:12:00Z</time>
      </trkpt>
      <trkpt lat="46.15966" lon="2.46065">
        <ele>424</ele>
        <time>2015-04-08T13:12:02Z</time>
      </trkpt>
      <trkpt lat="46.15963" lon="2.46064">
        <ele>424</ele>
        <time>2015-04-08T13:12:04Z</time>
      </trkpt>
      <trkpt lat="46.15959" lon="2.46062">
        <ele>423</ele>
        <time>2015-04-08T13:12:07Z</time>
      </trkpt>
      <trkpt lat="46.15956" lon="2.46061">
        <ele>423</ele>
        <time>2015-04-08T13:12:09Z</time>
      </trkpt>
      <trkpt lat="46.15953" lon="2.4606">
        <ele>422</ele>
        <time>2015-04-08T13:12:11Z</time>
      </trkpt>
      <trkpt lat="46.15949" lon="2.46059">
        <ele>422</ele>
        <time>2015-04-08T13:12:14Z</time>
      </trkpt>
      <trkpt lat="46.15947" lon="2.46059">
        <ele>422</ele>
        <time>2015-04-08T13:12:16Z</time>
      </trkpt>
      <trkpt lat="46.15945" lon="2.4606">
        <ele>422</ele>
        <time>2015-04-08T13:12:18Z</time>
      </trkpt>
      <trkpt lat="46.15942" lon="2.4606">
        <ele>422</ele>
        <time>2015-04-08T13:12:20Z</time>
      </trkpt>
      <trkpt lat="46.15939" lon="2.4606">
        <ele>422</ele>
        <time>2015-04-08T13:12:22Z</time>
      </trkpt>
      <trkpt lat="46.15935" lon="2.46059">
        <ele>421</ele>
        <time>2015-04-08T13:12:24Z</time>
      </trkpt>
      <trkpt lat="46.15931" lon="2.46058">
        <ele>421</ele>
        <time>2015-04-08T13:12:26Z</time>
      </trkpt>
      <trkpt lat="46.15928" lon="2.46057">
        <ele>421</ele>
        <time>2015-04-08T13:12:28Z</time>
      </trkpt>
      <trkpt lat="46.15927" lon="2.46058">
        <ele>421</ele>
        <time>2015-04-08T13:12:30Z</time>
      </trkpt>
      <trkpt lat="46.15924" lon="2.46056">
        <ele>421</ele>
        <time>2015-04-08T13:12:32Z</time>
      </trkpt>
      <trkpt lat="46.15921" lon="2.46054">
        <ele>421</ele>
        <time>2015-04-08T13:12:35Z</time>
      </trkpt>
      <trkpt lat="46.15919" lon="2.4605">
        <ele>421</ele>
        <time>2015-04-08T13:12:37Z</time>
      </trkpt>
      <trkpt lat="46.15917" lon="2.46046">
        <ele>421</ele>
        <time>2015-04-08T13:12:39Z</time>
      </trkpt>
      <trkpt lat="46.15918" lon="2.46043">
        <ele>421</ele>
        <time>2015-04-08T13:12:41Z</time>
      </trkpt>
      <trkpt lat="46.15918" lon="2.46039">
        <ele>421</ele>
        <time>2015-04-08T13:12:43Z</time>
      </trkpt>
      <trkpt lat="46.15919" lon="2.46036">
        <ele>421</ele>
        <time>2015-04-08T13:12:45Z</time>
      </trkpt>
      <trkpt lat="46.1592" lon="2.46032">
        <ele>420</ele>
        <time>2015-04-08T13:12:47Z</time>
      </trkpt>
      <trkpt lat="46.15921" lon="2.4603">
        <ele>418</ele>
        <time>2015-04-08T13:12:49Z</time>
      </trkpt>
      <trkpt lat="46.15923" lon="2.4603">
        <ele>417</ele>
        <time>2015-04-08T13:12:51Z</time>
      </trkpt>
      <trkpt lat="46.15925" lon="2.46029">
        <ele>415</ele>
        <time>2015-04-08T13:12:53Z</time>
      </trkpt>
      <trkpt lat="46.15928" lon="2.4603">
        <ele>414</ele>
        <time>2015-04-08T13:12:56Z</time>
      </trkpt>
      <trkpt lat="46.1593" lon="2.46031">
        <ele>413</ele>
        <time>2015-04-08T13:12:58Z</time>
      </trkpt>
      <trkpt lat="46.15932" lon="2.46032">
        <ele>412</ele>
        <time>2015-04-08T13:13:00Z</time>
      </trkpt>
      <trkpt lat="46.15936" lon="2.46032">
        <ele>411</ele>
        <time>2015-04-08T13:13:03Z</time>
      </trkpt>
      <trkpt lat="46.15937" lon="2.4603">
        <ele>411</ele>
        <time>2015-04-08T13:13:05Z</time>
      </trkpt>
      <trkpt lat="46.15938" lon="2.46028">
        <ele>411</ele>
        <time>2015-04-08T13:13:07Z</time>
      </trkpt>
      <trkpt lat="46.1594" lon="2.46026">
        <ele>411</ele>
        <time>2015-04-08T13:13:09Z</time>
      </trkpt>
      <trkpt lat="46.15942" lon="2.46024">
        <ele>411</ele>
        <time>2015-04-08T13:13:11Z</time>
      </trkpt>
      <trkpt lat="46.15943" lon="2.46025">
        <ele>411</ele>
        <time>2015-04-08T13:13:13Z</time>
      </trkpt>
      <trkpt lat="46.15946" lon="2.46027">
        <ele>411</ele>
        <time>2015-04-08T13:13:16Z</time>
      </trkpt>
      <trkpt lat="46.15948" lon="2.46028">
        <ele>411</ele>
        <time>2015-04-08T13:13:18Z</time>
      </trkpt>
      <trkpt lat="46.15951" lon="2.46029">
        <ele>411</ele>
        <time>2015-04-08T13:13:21Z</time>
      </trkpt>
      <trkpt lat="46.15953" lon="2.46027">
        <ele>411</ele>
        <time>2015-04-08T13:13:23Z</time>
      </trkpt>
      <trkpt lat="46.15955" lon="2.46025">
        <ele>411</ele>
        <time>2015-04-08T13:13:25Z</time>
      </trkpt>
      <trkpt lat="46.15958" lon="2.46022">
        <ele>411</ele>
        <time>2015-04-08T13:13:27Z</time>
      </trkpt>
      <trkpt lat="46.1596" lon="2.46019">
        <ele>411</ele>
        <time>2015-04-08T13:13:29Z</time>
      </trkpt>
      <trkpt lat="46.15963" lon="2.46016">
        <ele>411</ele>
        <time>2015-04-08T13:13:31Z</time>
      </trkpt>
      <trkpt lat="46.15965" lon="2.46013">
        <ele>411</ele>
        <time>2015-04-08T13:13:33Z</time>
      </trkpt>
      <trkpt lat="46.15968" lon="2.4601">
        <ele>413</ele>
        <time>2015-04-08T13:13:35Z</time>
      </trkpt>
      <trkpt lat="46.15968" lon="2.46006">
        <ele>414</ele>
        <time>2015-04-08T13:13:37Z</time>
      </trkpt>
      <trkpt lat="46.15969" lon="2.46003">
        <ele>414</ele>
        <time>2015-04-08T13:13:39Z</time>
      </trkpt>
      <trkpt lat="46.15971" lon="2.46">
        <ele>414</ele>
        <time>2015-04-08T13:13:41Z</time>
      </trkpt>
      <trkpt lat="46.15974" lon="2.45996">
        <ele>414</ele>
        <time>2015-04-08T13:13:44Z</time>
      </trkpt>
      <trkpt lat="46.15976" lon="2.45993">
        <ele>414</ele>
        <time>2015-04-08T13:13:46Z</time>
      </trkpt>
      <trkpt lat="46.15977" lon="2.45991">
        <ele>414</ele>
        <time>2015-04-08T13:13:48Z</time>
      </trkpt>
      <trkpt lat="46.15979" lon="2.45988">
        <ele>414</ele>
        <time>2015-04-08T13:13:50Z</time>
      </trkpt>
      <trkpt lat="46.1598" lon="2.45984">
        <ele>414</ele>
        <time>2015-04-08T13:13:52Z</time>
      </trkpt>
      <trkpt lat="46.15982" lon="2.45982">
        <ele>414</ele>
        <time>2015-04-08T13:13:54Z</time>
      </trkpt>
      <trkpt lat="46.15983" lon="2.45978">
        <ele>414</ele>
        <time>2015-04-08T13:13:56Z</time>
      </trkpt>
      <trkpt lat="46.15984" lon="2.45975">
        <ele>414</ele>
        <time>2015-04-08T13:13:58Z</time>
      </trkpt>
      <trkpt lat="46.15985" lon="2.45972">
        <ele>413</ele>
        <time>2015-04-08T13:14:00Z</time>
      </trkpt>
      <trkpt lat="46.15986" lon="2.45969">
        <ele>413</ele>
        <time>2015-04-08T13:14:02Z</time>
      </trkpt>
      <trkpt lat="46.15987" lon="2.45966">
        <ele>413</ele>
        <time>2015-04-08T13:14:04Z</time>
      </trkpt>
      <trkpt lat="46.15989" lon="2.45963">
        <ele>413</ele>
        <time>2015-04-08T13:14:06Z</time>
      </trkpt>
      <trkpt lat="46.15989" lon="2.45959">
        <ele>413</ele>
        <time>2015-04-08T13:14:08Z</time>
      </trkpt>
      <trkpt lat="46.15991" lon="2.45956">
        <ele>413</ele>
        <time>2015-04-08T13:14:10Z</time>
      </trkpt>
      <trkpt lat="46.15992" lon="2.45953">
        <ele>413</ele>
        <time>2015-04-08T13:14:12Z</time>
      </trkpt>
      <trkpt lat="46.15993" lon="2.45949">
        <ele>413</ele>
        <time>2015-04-08T13:14:14Z</time>
      </trkpt>
      <trkpt lat="46.15994" lon="2.45944">
        <ele>413</ele>
        <time>2015-04-08T13:14:17Z</time>
      </trkpt>
      <trkpt lat="46.15994" lon="2.45941">
        <ele>413</ele>
        <time>2015-04-08T13:14:19Z</time>
      </trkpt>
      <trkpt lat="46.15995" lon="2.45938">
        <ele>413</ele>
        <time>2015-04-08T13:14:21Z</time>
      </trkpt>
      <trkpt lat="46.15995" lon="2.45934">
        <ele>413</ele>
        <time>2015-04-08T13:14:23Z</time>
      </trkpt>
      <trkpt lat="46.15996" lon="2.45931">
        <ele>414</ele>
        <time>2015-04-08T13:14:25Z</time>
      </trkpt>
      <trkpt lat="46.15997" lon="2.45928">
        <ele>415</ele>
        <time>2015-04-08T13:14:27Z</time>
      </trkpt>
      <trkpt lat="46.16" lon="2.45924">
        <ele>416</ele>
        <time>2015-04-08T13:14:30Z</time>
      </trkpt>
      <trkpt lat="46.16002" lon="2.45921">
        <ele>416</ele>
        <time>2015-04-08T13:14:32Z</time>
      </trkpt>
      <trkpt lat="46.16003" lon="2.45918">
        <ele>417</ele>
        <time>2015-04-08T13:14:34Z</time>
      </trkpt>
      <trkpt lat="46.16004" lon="2.45914">
        <ele>417</ele>
        <time>2015-04-08T13:14:36Z</time>
      </trkpt>
      <trkpt lat="46.16005" lon="2.4591">
        <ele>417</ele>
        <time>2015-04-08T13:14:38Z</time>
      </trkpt>
      <trkpt lat="46.16007" lon="2.45906">
        <ele>418</ele>
        <time>2015-04-08T13:14:40Z</time>
      </trkpt>
      <trkpt lat="46.16008" lon="2.45903">
        <ele>418</ele>
        <time>2015-04-08T13:14:42Z</time>
      </trkpt>
      <trkpt lat="46.16008" lon="2.45899">
        <ele>418</ele>
        <time>2015-04-08T13:14:44Z</time>
      </trkpt>
      <trkpt lat="46.16009" lon="2.45895">
        <ele>418</ele>
        <time>2015-04-08T13:14:46Z</time>
      </trkpt>
      <trkpt lat="46.16011" lon="2.45891">
        <ele>419</ele>
        <time>2015-04-08T13:14:48Z</time>
      </trkpt>
      <trkpt lat="46.16011" lon="2.45887">
        <ele>419</ele>
        <time>2015-04-08T13:14:50Z</time>
      </trkpt>
      <trkpt lat="46.16012" lon="2.45884">
        <ele>420</ele>
        <time>2015-04-08T13:14:52Z</time>
      </trkpt>
      <trkpt lat="46.16013" lon="2.45881">
        <ele>420</ele>
        <time>2015-04-08T13:14:54Z</time>
      </trkpt>
      <trkpt lat="46.16014" lon="2.45878">
        <ele>421</ele>
        <time>2015-04-08T13:14:56Z</time>
      </trkpt>
      <trkpt lat="46.16016" lon="2.45874">
        <ele>421</ele>
        <time>2015-04-08T13:14:58Z</time>
      </trkpt>
      <trkpt lat="46.16018" lon="2.45871">
        <ele>422</ele>
        <time>2015-04-08T13:15:00Z</time>
      </trkpt>
      <trkpt lat="46.1602" lon="2.45869">
        <ele>422</ele>
        <time>2015-04-08T13:15:02Z</time>
      </trkpt>
      <trkpt lat="46.1602" lon="2.45866">
        <ele>422</ele>
        <time>2015-04-08T13:15:04Z</time>
      </trkpt>
      <trkpt lat="46.16021" lon="2.45865">
        <ele>422</ele>
        <time>2015-04-08T13:15:06Z</time>
      </trkpt>
      <trkpt lat="46.16023" lon="2.45863">
        <ele>422</ele>
        <time>2015-04-08T13:15:08Z</time>
      </trkpt>
      <trkpt lat="46.16027" lon="2.4586">
        <ele>422</ele>
        <time>2015-04-08T13:15:12Z</time>
      </trkpt>
      <trkpt lat="46.16028" lon="2.45859">
        <ele>422</ele>
        <time>2015-04-08T13:15:14Z</time>
      </trkpt>
      <trkpt lat="46.16031" lon="2.45858">
        <ele>422</ele>
        <time>2015-04-08T13:15:16Z</time>
      </trkpt>
      <trkpt lat="46.16033" lon="2.45858">
        <ele>422</ele>
        <time>2015-04-08T13:15:18Z</time>
      </trkpt>
      <trkpt lat="46.16035" lon="2.45857">
        <ele>422</ele>
        <time>2015-04-08T13:15:20Z</time>
      </trkpt>
      <trkpt lat="46.16038" lon="2.45857">
        <ele>422</ele>
        <time>2015-04-08T13:15:22Z</time>
      </trkpt>
      <trkpt lat="46.16041" lon="2.45856">
        <ele>422</ele>
        <time>2015-04-08T13:15:24Z</time>
      </trkpt>
      <trkpt lat="46.16043" lon="2.45855">
        <ele>422</ele>
        <time>2015-04-08T13:15:26Z</time>
      </trkpt>
      <trkpt lat="46.16046" lon="2.45855">
        <ele>422</ele>
        <time>2015-04-08T13:15:28Z</time>
      </trkpt>
      <trkpt lat="46.16049" lon="2.45853">
        <ele>422</ele>
        <time>2015-04-08T13:15:30Z</time>
      </trkpt>
      <trkpt lat="46.16051" lon="2.45852">
        <ele>422</ele>
        <time>2015-04-08T13:15:32Z</time>
      </trkpt>
      <trkpt lat="46.16055" lon="2.45851">
        <ele>422</ele>
        <time>2015-04-08T13:15:34Z</time>
      </trkpt>
      <trkpt lat="46.16057" lon="2.4585">
        <ele>422</ele>
        <time>2015-04-08T13:15:36Z</time>
      </trkpt>
      <trkpt lat="46.1606" lon="2.45849">
        <ele>422</ele>
        <time>2015-04-08T13:15:38Z</time>
      </trkpt>
      <trkpt lat="46.16063" lon="2.45847">
        <ele>422</ele>
        <time>2015-04-08T13:15:40Z</time>
      </trkpt>
      <trkpt lat="46.16066" lon="2.45846">
        <ele>422</ele>
        <time>2015-04-08T13:15:42Z</time>
      </trkpt>
      <trkpt lat="46.16069" lon="2.45845">
        <ele>422</ele>
        <time>2015-04-08T13:15:44Z</time>
      </trkpt>
      <trkpt lat="46.16071" lon="2.45844">
        <ele>422</ele>
        <time>2015-04-08T13:15:46Z</time>
      </trkpt>
      <trkpt lat="46.16074" lon="2.45843">
        <ele>422</ele>
        <time>2015-04-08T13:15:48Z</time>
      </trkpt>
      <trkpt lat="46.16077" lon="2.45841">
        <ele>422</ele>
        <time>2015-04-08T13:15:50Z</time>
      </trkpt>
      <trkpt lat="46.16079" lon="2.4584">
        <ele>422</ele>
        <time>2015-04-08T13:15:52Z</time>
      </trkpt>
      <trkpt lat="46.16082" lon="2.45838">
        <ele>422</ele>
        <time>2015-04-08T13:15:54Z</time>
      </trkpt>
      <trkpt lat="46.16085" lon="2.45837">
        <ele>422</ele>
        <time>2015-04-08T13:15:56Z</time>
      </trkpt>
      <trkpt lat="46.16087" lon="2.45836">
        <ele>422</ele>
        <time>2015-04-08T13:15:58Z</time>
      </trkpt>
      <trkpt lat="46.1609" lon="2.45834">
        <ele>422</ele>
        <time>2015-04-08T13:16:00Z</time>
      </trkpt>
      <trkpt lat="46.16093" lon="2.45833">
        <ele>422</ele>
        <time>2015-04-08T13:16:02Z</time>
      </trkpt>
      <trkpt lat="46.16095" lon="2.45831">
        <ele>422</ele>
        <time>2015-04-08T13:16:04Z</time>
      </trkpt>
      <trkpt lat="46.16098" lon="2.4583">
        <ele>423</ele>
        <time>2015-04-08T13:16:06Z</time>
      </trkpt>
      <trkpt lat="46.16101" lon="2.45829">
        <ele>423</ele>
        <time>2015-04-08T13:16:08Z</time>
      </trkpt>
      <trkpt lat="46.16104" lon="2.45828">
        <ele>424</ele>
        <time>2015-04-08T13:16:10Z</time>
      </trkpt>
      <trkpt lat="46.16106" lon="2.45826">
        <ele>424</ele>
        <time>2015-04-08T13:16:12Z</time>
      </trkpt>
      <trkpt lat="46.16109" lon="2.45825">
        <ele>424</ele>
        <time>2015-04-08T13:16:14Z</time>
      </trkpt>
      <trkpt lat="46.16112" lon="2.45823">
        <ele>424</ele>
        <time>2015-04-08T13:16:16Z</time>
      </trkpt>
      <trkpt lat="46.16115" lon="2.45822">
        <ele>424</ele>
        <time>2015-04-08T13:16:18Z</time>
      </trkpt>
      <trkpt lat="46.16117" lon="2.4582">
        <ele>425</ele>
        <time>2015-04-08T13:16:20Z</time>
      </trkpt>
      <trkpt lat="46.1612" lon="2.45819">
        <ele>425</ele>
        <time>2015-04-08T13:16:22Z</time>
      </trkpt>
      <trkpt lat="46.16123" lon="2.45818">
        <ele>425</ele>
        <time>2015-04-08T13:16:24Z</time>
      </trkpt>
      <trkpt lat="46.16126" lon="2.45816">
        <ele>425</ele>
        <time>2015-04-08T13:16:26Z</time>
      </trkpt>
      <trkpt lat="46.16129" lon="2.45815">
        <ele>425</ele>
        <time>2015-04-08T13:16:28Z</time>
      </trkpt>
      <trkpt lat="46.16132" lon="2.45815">
        <ele>425</ele>
        <time>2015-04-08T13:16:30Z</time>
      </trkpt>
      <trkpt lat="46.16134" lon="2.45813">
        <ele>425</ele>
        <time>2015-04-08T13:16:32Z</time>
      </trkpt>
      <trkpt lat="46.16137" lon="2.45813">
        <ele>425</ele>
        <time>2015-04-08T13:16:34Z</time>
      </trkpt>
      <trkpt lat="46.1614" lon="2.45812">
        <ele>425</ele>
        <time>2015-04-08T13:16:36Z</time>
      </trkpt>
      <trkpt lat="46.16143" lon="2.45811">
        <ele>425</ele>
        <time>2015-04-08T13:16:38Z</time>
      </trkpt>
      <trkpt lat="46.16145" lon="2.4581">
        <ele>425</ele>
        <time>2015-04-08T13:16:40Z</time>
      </trkpt>
      <trkpt lat="46.16148" lon="2.45808">
        <ele>425</ele>
        <time>2015-04-08T13:16:42Z</time>
      </trkpt>
      <trkpt lat="46.16151" lon="2.45806">
        <ele>425</ele>
        <time>2015-04-08T13:16:44Z</time>
      </trkpt>
      <trkpt lat="46.16154" lon="2.45804">
        <ele>425</ele>
        <time>2015-04-08T13:16:46Z</time>
      </trkpt>
      <trkpt lat="46.16156" lon="2.45802">
        <ele>425</ele>
        <time>2015-04-08T13:16:48Z</time>
      </trkpt>
      <trkpt lat="46.16159" lon="2.45801">
        <ele>425</ele>
        <time>2015-04-08T13:16:50Z</time>
      </trkpt>
      <trkpt lat="46.16162" lon="2.45798">
        <ele>425</ele>
        <time>2015-04-08T13:16:52Z</time>
      </trkpt>
      <trkpt lat="46.16164" lon="2.45796">
        <ele>425</ele>
        <time>2015-04-08T13:16:54Z</time>
      </trkpt>
      <trkpt lat="46.16167" lon="2.45794">
        <ele>425</ele>
        <time>2015-04-08T13:16:56Z</time>
      </trkpt>
      <trkpt lat="46.16169" lon="2.45792">
        <ele>425</ele>
        <time>2015-04-08T13:16:58Z</time>
      </trkpt>
      <trkpt lat="46.16172" lon="2.4579">
        <ele>425</ele>
        <time>2015-04-08T13:17:00Z</time>
      </trkpt>
      <trkpt lat="46.16174" lon="2.45788">
        <ele>425</ele>
        <time>2015-04-08T13:17:02Z</time>
      </trkpt>
      <trkpt lat="46.16177" lon="2.45786">
        <ele>425</ele>
        <time>2015-04-08T13:17:04Z</time>
      </trkpt>
      <trkpt lat="46.1618" lon="2.45783">
        <ele>425</ele>
        <time>2015-04-08T13:17:06Z</time>
      </trkpt>
      <trkpt lat="46.16182" lon="2.45781">
        <ele>425</ele>
        <time>2015-04-08T13:17:08Z</time>
      </trkpt>
      <trkpt lat="46.16185" lon="2.45777">
        <ele>425</ele>
        <time>2015-04-08T13:17:11Z</time>
      </trkpt>
      <trkpt lat="46.16187" lon="2.45775">
        <ele>425</ele>
        <time>2015-04-08T13:17:13Z</time>
      </trkpt>
      <trkpt lat="46.1619" lon="2.45772">
        <ele>425</ele>
        <time>2015-04-08T13:17:15Z</time>
      </trkpt>
      <trkpt lat="46.16193" lon="2.45768">
        <ele>425</ele>
        <time>2015-04-08T13:17:18Z</time>
      </trkpt>
      <trkpt lat="46.16195" lon="2.45765">
        <ele>425</ele>
        <time>2015-04-08T13:17:20Z</time>
      </trkpt>
      <trkpt lat="46.16197" lon="2.45763">
        <ele>425</ele>
        <time>2015-04-08T13:17:22Z</time>
      </trkpt>
      <trkpt lat="46.16199" lon="2.45761">
        <ele>425</ele>
        <time>2015-04-08T13:17:24Z</time>
      </trkpt>
      <trkpt lat="46.16201" lon="2.45758">
        <ele>425</ele>
        <time>2015-04-08T13:17:26Z</time>
      </trkpt>
      <trkpt lat="46.16204" lon="2.45756">
        <ele>425</ele>
        <time>2015-04-08T13:17:28Z</time>
      </trkpt>
      <trkpt lat="46.16208" lon="2.45751">
        <ele>425</ele>
        <time>2015-04-08T13:17:32Z</time>
      </trkpt>
      <trkpt lat="46.1621" lon="2.45748">
        <ele>425</ele>
        <time>2015-04-08T13:17:34Z</time>
      </trkpt>
      <trkpt lat="46.16212" lon="2.45746">
        <ele>425</ele>
        <time>2015-04-08T13:17:36Z</time>
      </trkpt>
      <trkpt lat="46.16216" lon="2.45742">
        <ele>425</ele>
        <time>2015-04-08T13:17:39Z</time>
      </trkpt>
      <trkpt lat="46.16219" lon="2.45738">
        <ele>425</ele>
        <time>2015-04-08T13:17:42Z</time>
      </trkpt>
      <trkpt lat="46.1622" lon="2.45735">
        <ele>425</ele>
        <time>2015-04-08T13:17:44Z</time>
      </trkpt>
      <trkpt lat="46.16223" lon="2.45731">
        <ele>425</ele>
        <time>2015-04-08T13:17:47Z</time>
      </trkpt>
      <trkpt lat="46.16225" lon="2.45728">
        <ele>425</ele>
        <time>2015-04-08T13:17:49Z</time>
      </trkpt>
      <trkpt lat="46.16228" lon="2.45724">
        <ele>425</ele>
        <time>2015-04-08T13:17:52Z</time>
      </trkpt>
      <trkpt lat="46.16229" lon="2.45721">
        <ele>425</ele>
        <time>2015-04-08T13:17:54Z</time>
      </trkpt>
      <trkpt lat="46.1623" lon="2.45717">
        <ele>425</ele>
        <time>2015-04-08T13:17:56Z</time>
      </trkpt>
      <trkpt lat="46.16232" lon="2.45714">
        <ele>425</ele>
        <time>2015-04-08T13:17:58Z</time>
      </trkpt>
      <trkpt lat="46.16234" lon="2.45708">
        <ele>425</ele>
        <time>2015-04-08T13:18:01Z</time>
      </trkpt>
      <trkpt lat="46.16235" lon="2.45704">
        <ele>425</ele>
        <time>2015-04-08T13:18:03Z</time>
      </trkpt>
      <trkpt lat="46.16237" lon="2.45701">
        <ele>425</ele>
        <time>2015-04-08T13:18:05Z</time>
      </trkpt>
      <trkpt lat="46.16238" lon="2.45697">
        <ele>425</ele>
        <time>2015-04-08T13:18:07Z</time>
      </trkpt>
      <trkpt lat="46.1624" lon="2.45694">
        <ele>426</ele>
        <time>2015-04-08T13:18:09Z</time>
      </trkpt>
      <trkpt lat="46.16242" lon="2.4569">
        <ele>426</ele>
        <time>2015-04-08T13:18:11Z</time>
      </trkpt>
      <trkpt lat="46.16244" lon="2.45687">
        <ele>426</ele>
        <time>2015-04-08T13:18:13Z</time>
      </trkpt>
      <trkpt lat="46.16246" lon="2.45684">
        <ele>427</ele>
        <time>2015-04-08T13:18:15Z</time>
      </trkpt>
      <trkpt lat="46.16247" lon="2.45681">
        <ele>427</ele>
        <time>2015-04-08T13:18:17Z</time>
      </trkpt>
      <trkpt lat="46.16248" lon="2.45677">
        <ele>428</ele>
        <time>2015-04-08T13:18:19Z</time>
      </trkpt>
      <trkpt lat="46.1625" lon="2.45673">
        <ele>428</ele>
        <time>2015-04-08T13:18:21Z</time>
      </trkpt>
      <trkpt lat="46.16251" lon="2.45669">
        <ele>429</ele>
        <time>2015-04-08T13:18:24Z</time>
      </trkpt>
      <trkpt lat="46.16253" lon="2.45666">
        <ele>429</ele>
        <time>2015-04-08T13:18:26Z</time>
      </trkpt>
      <trkpt lat="46.16254" lon="2.45662">
        <ele>429</ele>
        <time>2015-04-08T13:18:28Z</time>
      </trkpt>
      <trkpt lat="46.16256" lon="2.45658">
        <ele>430</ele>
        <time>2015-04-08T13:18:30Z</time>
      </trkpt>
      <trkpt lat="46.16257" lon="2.45655">
        <ele>430</ele>
        <time>2015-04-08T13:18:32Z</time>
      </trkpt>
      <trkpt lat="46.16258" lon="2.45652">
        <ele>431</ele>
        <time>2015-04-08T13:18:34Z</time>
      </trkpt>
      <trkpt lat="46.16259" lon="2.45649">
        <ele>431</ele>
        <time>2015-04-08T13:18:36Z</time>
      </trkpt>
      <trkpt lat="46.1626" lon="2.45645">
        <ele>431</ele>
        <time>2015-04-08T13:18:38Z</time>
      </trkpt>
      <trkpt lat="46.16261" lon="2.45642">
        <ele>431</ele>
        <time>2015-04-08T13:18:40Z</time>
      </trkpt>
      <trkpt lat="46.16262" lon="2.45639">
        <ele>431</ele>
        <time>2015-04-08T13:18:42Z</time>
      </trkpt>
      <trkpt lat="46.16263" lon="2.45636">
        <ele>432</ele>
        <time>2015-04-08T13:18:44Z</time>
      </trkpt>
      <trkpt lat="46.16264" lon="2.45632">
        <ele>432</ele>
        <time>2015-04-08T13:18:46Z</time>
      </trkpt>
      <trkpt lat="46.16265" lon="2.45629">
        <ele>432</ele>
        <time>2015-04-08T13:18:48Z</time>
      </trkpt>
      <trkpt lat="46.16266" lon="2.45626">
        <ele>432</ele>
        <time>2015-04-08T13:18:50Z</time>
      </trkpt>
      <trkpt lat="46.16268" lon="2.45623">
        <ele>433</ele>
        <time>2015-04-08T13:18:52Z</time>
      </trkpt>
      <trkpt lat="46.16269" lon="2.4562">
        <ele>433</ele>
        <time>2015-04-08T13:18:54Z</time>
      </trkpt>
      <trkpt lat="46.1627" lon="2.45617">
        <ele>434</ele>
        <time>2015-04-08T13:18:56Z</time>
      </trkpt>
      <trkpt lat="46.16271" lon="2.45614">
        <ele>434</ele>
        <time>2015-04-08T13:18:58Z</time>
      </trkpt>
      <trkpt lat="46.16273" lon="2.4561">
        <ele>435</ele>
        <time>2015-04-08T13:19:00Z</time>
      </trkpt>
      <trkpt lat="46.16274" lon="2.45606">
        <ele>435</ele>
        <time>2015-04-08T13:19:02Z</time>
      </trkpt>
      <trkpt lat="46.16275" lon="2.45603">
        <ele>435</ele>
        <time>2015-04-08T13:19:04Z</time>
      </trkpt>
      <trkpt lat="46.16277" lon="2.456">
        <ele>436</ele>
        <time>2015-04-08T13:19:06Z</time>
      </trkpt>
      <trkpt lat="46.16278" lon="2.45597">
        <ele>436</ele>
        <time>2015-04-08T13:19:08Z</time>
      </trkpt>
      <trkpt lat="46.16279" lon="2.45594">
        <ele>437</ele>
        <time>2015-04-08T13:19:10Z</time>
      </trkpt>
      <trkpt lat="46.1628" lon="2.45591">
        <ele>438</ele>
        <time>2015-04-08T13:19:12Z</time>
      </trkpt>
      <trkpt lat="46.16282" lon="2.45587">
        <ele>438</ele>
        <time>2015-04-08T13:19:14Z</time>
      </trkpt>
      <trkpt lat="46.16283" lon="2.45584">
        <ele>438</ele>
        <time>2015-04-08T13:19:16Z</time>
      </trkpt>
      <trkpt lat="46.16284" lon="2.45581">
        <ele>439</ele>
        <time>2015-04-08T13:19:18Z</time>
      </trkpt>
      <trkpt lat="46.16285" lon="2.45577">
        <ele>439</ele>
        <time>2015-04-08T13:19:20Z</time>
      </trkpt>
      <trkpt lat="46.16286" lon="2.45573">
        <ele>439</ele>
        <time>2015-04-08T13:19:22Z</time>
      </trkpt>
      <trkpt lat="46.16288" lon="2.4557">
        <ele>439</ele>
        <time>2015-04-08T13:19:24Z</time>
      </trkpt>
      <trkpt lat="46.16289" lon="2.45567">
        <ele>439</ele>
        <time>2015-04-08T13:19:26Z</time>
      </trkpt>
      <trkpt lat="46.16291" lon="2.45563">
        <ele>440</ele>
        <time>2015-04-08T13:19:28Z</time>
      </trkpt>
      <trkpt lat="46.16292" lon="2.4556">
        <ele>440</ele>
        <time>2015-04-08T13:19:30Z</time>
      </trkpt>
      <trkpt lat="46.16293" lon="2.45556">
        <ele>440</ele>
        <time>2015-04-08T13:19:32Z</time>
      </trkpt>
      <trkpt lat="46.16294" lon="2.45553">
        <ele>440</ele>
        <time>2015-04-08T13:19:34Z</time>
      </trkpt>
      <trkpt lat="46.16296" lon="2.4555">
        <ele>440</ele>
        <time>2015-04-08T13:19:37Z</time>
      </trkpt>
      <trkpt lat="46.16296" lon="2.45551">
        <ele>443</ele>
        <time>2015-04-08T13:20:17Z</time>
      </trkpt>
      <trkpt lat="46.16297" lon="2.45552">
        <ele>444</ele>
        <time>2015-04-08T13:21:13Z</time>
      </trkpt>
      <trkpt lat="46.16297" lon="2.4555">
        <ele>444</ele>
        <time>2015-04-08T13:21:43Z</time>
      </trkpt>
      <trkpt lat="46.16299" lon="2.45546">
        <ele>444</ele>
        <time>2015-04-08T13:21:46Z</time>
      </trkpt>
      <trkpt lat="46.16299" lon="2.45542">
        <ele>444</ele>
        <time>2015-04-08T13:21:48Z</time>
      </trkpt>
      <trkpt lat="46.16301" lon="2.45537">
        <ele>444</ele>
        <time>2015-04-08T13:21:51Z</time>
      </trkpt>
      <trkpt lat="46.16301" lon="2.45533">
        <ele>444</ele>
        <time>2015-04-08T13:21:53Z</time>
      </trkpt>
      <trkpt lat="46.16301" lon="2.45526">
        <ele>444</ele>
        <time>2015-04-08T13:21:56Z</time>
      </trkpt>
      <trkpt lat="46.16301" lon="2.45522">
        <ele>444</ele>
        <time>2015-04-08T13:21:58Z</time>
      </trkpt>
      <trkpt lat="46.16299" lon="2.45516">
        <ele>444</ele>
        <time>2015-04-08T13:22:01Z</time>
      </trkpt>
      <trkpt lat="46.16297" lon="2.45512">
        <ele>444</ele>
        <time>2015-04-08T13:22:04Z</time>
      </trkpt>
      <trkpt lat="46.16293" lon="2.45507">
        <ele>444</ele>
        <time>2015-04-08T13:22:07Z</time>
      </trkpt>
      <trkpt lat="46.16291" lon="2.45505">
        <ele>444</ele>
        <time>2015-04-08T13:22:09Z</time>
      </trkpt>
      <trkpt lat="46.16287" lon="2.45503">
        <ele>444</ele>
        <time>2015-04-08T13:22:12Z</time>
      </trkpt>
      <trkpt lat="46.16284" lon="2.45501">
        <ele>444</ele>
        <time>2015-04-08T13:22:14Z</time>
      </trkpt>
      <trkpt lat="46.16281" lon="2.45498">
        <ele>444</ele>
        <time>2015-04-08T13:22:17Z</time>
      </trkpt>
      <trkpt lat="46.16278" lon="2.45496">
        <ele>444</ele>
        <time>2015-04-08T13:22:19Z</time>
      </trkpt>
      <trkpt lat="46.16274" lon="2.45493">
        <ele>444</ele>
        <time>2015-04-08T13:22:22Z</time>
      </trkpt>
      <trkpt lat="46.1627" lon="2.4549">
        <ele>444</ele>
        <time>2015-04-08T13:22:25Z</time>
      </trkpt>
      <trkpt lat="46.16266" lon="2.45487">
        <ele>445</ele>
        <time>2015-04-08T13:22:28Z</time>
      </trkpt>
      <trkpt lat="46.16264" lon="2.45485">
        <ele>445</ele>
        <time>2015-04-08T13:22:30Z</time>
      </trkpt>
      <trkpt lat="46.16259" lon="2.45483">
        <ele>445</ele>
        <time>2015-04-08T13:22:33Z</time>
      </trkpt>
      <trkpt lat="46.16257" lon="2.45481">
        <ele>445</ele>
        <time>2015-04-08T13:22:35Z</time>
      </trkpt>
      <trkpt lat="46.16253" lon="2.45478">
        <ele>445</ele>
        <time>2015-04-08T13:22:38Z</time>
      </trkpt>
      <trkpt lat="46.16251" lon="2.45476">
        <ele>445</ele>
        <time>2015-04-08T13:22:40Z</time>
      </trkpt>
      <trkpt lat="46.16248" lon="2.45474">
        <ele>445</ele>
        <time>2015-04-08T13:22:42Z</time>
      </trkpt>
      <trkpt lat="46.16246" lon="2.45472">
        <ele>445</ele>
        <time>2015-04-08T13:22:44Z</time>
      </trkpt>
      <trkpt lat="46.16243" lon="2.45469">
        <ele>445</ele>
        <time>2015-04-08T13:22:47Z</time>
      </trkpt>
      <trkpt lat="46.1624" lon="2.45467">
        <ele>446</ele>
        <time>2015-04-08T13:22:49Z</time>
      </trkpt>
      <trkpt lat="46.16237" lon="2.45465">
        <ele>446</ele>
        <time>2015-04-08T13:22:51Z</time>
      </trkpt>
      <trkpt lat="46.16234" lon="2.45462">
        <ele>446</ele>
        <time>2015-04-08T13:22:53Z</time>
      </trkpt>
      <trkpt lat="46.16232" lon="2.4546">
        <ele>446</ele>
        <time>2015-04-08T13:22:55Z</time>
      </trkpt>
      <trkpt lat="46.16228" lon="2.45457">
        <ele>446</ele>
        <time>2015-04-08T13:22:58Z</time>
      </trkpt>
      <trkpt lat="46.16225" lon="2.45455">
        <ele>446</ele>
        <time>2015-04-08T13:23:00Z</time>
      </trkpt>
      <trkpt lat="46.16222" lon="2.45453">
        <ele>446</ele>
        <time>2015-04-08T13:23:03Z</time>
      </trkpt>
      <trkpt lat="46.16219" lon="2.45451">
        <ele>447</ele>
        <time>2015-04-08T13:23:05Z</time>
      </trkpt>
      <trkpt lat="46.16216" lon="2.45447">
        <ele>447</ele>
        <time>2015-04-08T13:23:08Z</time>
      </trkpt>
      <trkpt lat="46.16213" lon="2.45444">
        <ele>447</ele>
        <time>2015-04-08T13:23:10Z</time>
      </trkpt>
      <trkpt lat="46.16209" lon="2.4544">
        <ele>447</ele>
        <time>2015-04-08T13:23:13Z</time>
      </trkpt>
      <trkpt lat="46.16207" lon="2.45437">
        <ele>447</ele>
        <time>2015-04-08T13:23:15Z</time>
      </trkpt>
      <trkpt lat="46.16204" lon="2.45433">
        <ele>447</ele>
        <time>2015-04-08T13:23:18Z</time>
      </trkpt>
      <trkpt lat="46.16202" lon="2.4543">
        <ele>447</ele>
        <time>2015-04-08T13:23:20Z</time>
      </trkpt>
      <trkpt lat="46.162" lon="2.45427">
        <ele>447</ele>
        <time>2015-04-08T13:23:22Z</time>
      </trkpt>
      <trkpt lat="46.16198" lon="2.45424">
        <ele>447</ele>
        <time>2015-04-08T13:23:24Z</time>
      </trkpt>
      <trkpt lat="46.16196" lon="2.45421">
        <ele>447</ele>
        <time>2015-04-08T13:23:26Z</time>
      </trkpt>
      <trkpt lat="46.16194" lon="2.45418">
        <ele>447</ele>
        <time>2015-04-08T13:23:28Z</time>
      </trkpt>
      <trkpt lat="46.16192" lon="2.45414">
        <ele>448</ele>
        <time>2015-04-08T13:23:30Z</time>
      </trkpt>
      <trkpt lat="46.1619" lon="2.4541">
        <ele>448</ele>
        <time>2015-04-08T13:23:33Z</time>
      </trkpt>
      <trkpt lat="46.16188" lon="2.45406">
        <ele>448</ele>
        <time>2015-04-08T13:23:35Z</time>
      </trkpt>
      <trkpt lat="46.16186" lon="2.45401">
        <ele>448</ele>
        <time>2015-04-08T13:23:38Z</time>
      </trkpt>
      <trkpt lat="46.16184" lon="2.45397">
        <ele>448</ele>
        <time>2015-04-08T13:23:40Z</time>
      </trkpt>
      <trkpt lat="46.16181" lon="2.45392">
        <ele>448</ele>
        <time>2015-04-08T13:23:43Z</time>
      </trkpt>
      <trkpt lat="46.1618" lon="2.45388">
        <ele>448</ele>
        <time>2015-04-08T13:23:45Z</time>
      </trkpt>
      <trkpt lat="46.16177" lon="2.45383">
        <ele>448</ele>
        <time>2015-04-08T13:23:48Z</time>
      </trkpt>
      <trkpt lat="46.16175" lon="2.45379">
        <ele>448</ele>
        <time>2015-04-08T13:23:50Z</time>
      </trkpt>
      <trkpt lat="46.16172" lon="2.45374">
        <ele>448</ele>
        <time>2015-04-08T13:23:53Z</time>
      </trkpt>
      <trkpt lat="46.16171" lon="2.4537">
        <ele>448</ele>
        <time>2015-04-08T13:23:55Z</time>
      </trkpt>
      <trkpt lat="46.16168" lon="2.45365">
        <ele>448</ele>
        <time>2015-04-08T13:23:58Z</time>
      </trkpt>
      <trkpt lat="46.16166" lon="2.45361">
        <ele>448</ele>
        <time>2015-04-08T13:24:00Z</time>
      </trkpt>
      <trkpt lat="46.16164" lon="2.45355">
        <ele>448</ele>
        <time>2015-04-08T13:24:03Z</time>
      </trkpt>
      <trkpt lat="46.16162" lon="2.45352">
        <ele>448</ele>
        <time>2015-04-08T13:24:05Z</time>
      </trkpt>
      <trkpt lat="46.16159" lon="2.45345">
        <ele>448</ele>
        <time>2015-04-08T13:24:08Z</time>
      </trkpt>
      <trkpt lat="46.16157" lon="2.45341">
        <ele>448</ele>
        <time>2015-04-08T13:24:10Z</time>
      </trkpt>
      <trkpt lat="46.16154" lon="2.45336">
        <ele>448</ele>
        <time>2015-04-08T13:24:13Z</time>
      </trkpt>
      <trkpt lat="46.16153" lon="2.45333">
        <ele>448</ele>
        <time>2015-04-08T13:24:15Z</time>
      </trkpt>
      <trkpt lat="46.1615" lon="2.45327">
        <ele>448</ele>
        <time>2015-04-08T13:24:18Z</time>
      </trkpt>
      <trkpt lat="46.16148" lon="2.45323">
        <ele>448</ele>
        <time>2015-04-08T13:24:20Z</time>
      </trkpt>
      <trkpt lat="46.16145" lon="2.45318">
        <ele>448</ele>
        <time>2015-04-08T13:24:23Z</time>
      </trkpt>
      <trkpt lat="46.16143" lon="2.45315">
        <ele>448</ele>
        <time>2015-04-08T13:24:25Z</time>
      </trkpt>
      <trkpt lat="46.1614" lon="2.45311">
        <ele>448</ele>
        <time>2015-04-08T13:24:28Z</time>
      </trkpt>
      <trkpt lat="46.16137" lon="2.45308">
        <ele>448</ele>
        <time>2015-04-08T13:24:30Z</time>
      </trkpt>
      <trkpt lat="46.16133" lon="2.45304">
        <ele>448</ele>
        <time>2015-04-08T13:24:34Z</time>
      </trkpt>
      <trkpt lat="46.16131" lon="2.45301">
        <ele>448</ele>
        <time>2015-04-08T13:24:36Z</time>
      </trkpt>
      <trkpt lat="46.16129" lon="2.45299">
        <ele>448</ele>
        <time>2015-04-08T13:24:38Z</time>
      </trkpt>
      <trkpt lat="46.16126" lon="2.45297">
        <ele>448</ele>
        <time>2015-04-08T13:24:40Z</time>
      </trkpt>
      <trkpt lat="46.16124" lon="2.45294">
        <ele>448</ele>
        <time>2015-04-08T13:24:42Z</time>
      </trkpt>
      <trkpt lat="46.16121" lon="2.45292">
        <ele>448</ele>
        <time>2015-04-08T13:24:44Z</time>
      </trkpt>
      <trkpt lat="46.16118" lon="2.4529">
        <ele>448</ele>
        <time>2015-04-08T13:24:46Z</time>
      </trkpt>
      <trkpt lat="46.16116" lon="2.45288">
        <ele>448</ele>
        <time>2015-04-08T13:24:48Z</time>
      </trkpt>
      <trkpt lat="46.16113" lon="2.45286">
        <ele>448</ele>
        <time>2015-04-08T13:24:50Z</time>
      </trkpt>
      <trkpt lat="46.16109" lon="2.45284">
        <ele>448</ele>
        <time>2015-04-08T13:24:53Z</time>
      </trkpt>
      <trkpt lat="46.16106" lon="2.45283">
        <ele>448</ele>
        <time>2015-04-08T13:24:55Z</time>
      </trkpt>
      <trkpt lat="46.16103" lon="2.45281">
        <ele>448</ele>
        <time>2015-04-08T13:24:57Z</time>
      </trkpt>
      <trkpt lat="46.161" lon="2.4528">
        <ele>448</ele>
        <time>2015-04-08T13:24:59Z</time>
      </trkpt>
      <trkpt lat="46.16098" lon="2.45278">
        <ele>448</ele>
        <time>2015-04-08T13:25:01Z</time>
      </trkpt>
      <trkpt lat="46.16095" lon="2.45276">
        <ele>448</ele>
        <time>2015-04-08T13:25:03Z</time>
      </trkpt>
      <trkpt lat="46.16092" lon="2.45275">
        <ele>448</ele>
        <time>2015-04-08T13:25:05Z</time>
      </trkpt>
      <trkpt lat="46.16089" lon="2.45274">
        <ele>448</ele>
        <time>2015-04-08T13:25:07Z</time>
      </trkpt>
      <trkpt lat="46.16086" lon="2.45272">
        <ele>448</ele>
        <time>2015-04-08T13:25:09Z</time>
      </trkpt>
      <trkpt lat="46.16083" lon="2.45269">
        <ele>448</ele>
        <time>2015-04-08T13:25:11Z</time>
      </trkpt>
      <trkpt lat="46.1608" lon="2.45268">
        <ele>448</ele>
        <time>2015-04-08T13:25:13Z</time>
      </trkpt>
      <trkpt lat="46.16078" lon="2.45266">
        <ele>448</ele>
        <time>2015-04-08T13:25:15Z</time>
      </trkpt>
      <trkpt lat="46.16075" lon="2.45264">
        <ele>448</ele>
        <time>2015-04-08T13:25:17Z</time>
      </trkpt>
      <trkpt lat="46.16072" lon="2.45263">
        <ele>448</ele>
        <time>2015-04-08T13:25:19Z</time>
      </trkpt>
      <trkpt lat="46.16069" lon="2.45262">
        <ele>449</ele>
        <time>2015-04-08T13:25:21Z</time>
      </trkpt>
      <trkpt lat="46.16067" lon="2.4526">
        <ele>449</ele>
        <time>2015-04-08T13:25:23Z</time>
      </trkpt>
      <trkpt lat="46.16064" lon="2.45259">
        <ele>449</ele>
        <time>2015-04-08T13:25:25Z</time>
      </trkpt>
      <trkpt lat="46.16061" lon="2.45257">
        <ele>449</ele>
        <time>2015-04-08T13:25:27Z</time>
      </trkpt>
      <trkpt lat="46.16059" lon="2.45256">
        <ele>449</ele>
        <time>2015-04-08T13:25:29Z</time>
      </trkpt>
      <trkpt lat="46.16056" lon="2.45255">
        <ele>449</ele>
        <time>2015-04-08T13:25:31Z</time>
      </trkpt>
      <trkpt lat="46.16053" lon="2.45253">
        <ele>449</ele>
        <time>2015-04-08T13:25:33Z</time>
      </trkpt>
      <trkpt lat="46.1605" lon="2.45251">
        <ele>449</ele>
        <time>2015-04-08T13:25:35Z</time>
      </trkpt>
      <trkpt lat="46.16048" lon="2.4525">
        <ele>449</ele>
        <time>2015-04-08T13:25:37Z</time>
      </trkpt>
      <trkpt lat="46.16045" lon="2.45248">
        <ele>450</ele>
        <time>2015-04-08T13:25:39Z</time>
      </trkpt>
      <trkpt lat="46.16042" lon="2.45247">
        <ele>450</ele>
        <time>2015-04-08T13:25:41Z</time>
      </trkpt>
      <trkpt lat="46.1604" lon="2.45245">
        <ele>450</ele>
        <time>2015-04-08T13:25:43Z</time>
      </trkpt>
      <trkpt lat="46.16037" lon="2.45244">
        <ele>450</ele>
        <time>2015-04-08T13:25:45Z</time>
      </trkpt>
      <trkpt lat="46.16034" lon="2.45242">
        <ele>450</ele>
        <time>2015-04-08T13:25:47Z</time>
      </trkpt>
      <trkpt lat="46.16031" lon="2.45241">
        <ele>450</ele>
        <time>2015-04-08T13:25:49Z</time>
      </trkpt>
      <trkpt lat="46.16029" lon="2.45239">
        <ele>450</ele>
        <time>2015-04-08T13:25:51Z</time>
      </trkpt>
      <trkpt lat="46.16026" lon="2.45238">
        <ele>450</ele>
        <time>2015-04-08T13:25:53Z</time>
      </trkpt>
      <trkpt lat="46.16024" lon="2.45236">
        <ele>451</ele>
        <time>2015-04-08T13:25:55Z</time>
      </trkpt>
      <trkpt lat="46.16021" lon="2.45235">
        <ele>451</ele>
        <time>2015-04-08T13:25:57Z</time>
      </trkpt>
      <trkpt lat="46.16019" lon="2.45234">
        <ele>451</ele>
        <time>2015-04-08T13:25:59Z</time>
      </trkpt>
      <trkpt lat="46.16016" lon="2.45232">
        <ele>451</ele>
        <time>2015-04-08T13:26:01Z</time>
      </trkpt>
      <trkpt lat="46.16013" lon="2.45229">
        <ele>451</ele>
        <time>2015-04-08T13:26:03Z</time>
      </trkpt>
      <trkpt lat="46.1601" lon="2.45227">
        <ele>452</ele>
        <time>2015-04-08T13:26:05Z</time>
      </trkpt>
      <trkpt lat="46.16007" lon="2.45225">
        <ele>453</ele>
        <time>2015-04-08T13:26:07Z</time>
      </trkpt>
      <trkpt lat="46.16004" lon="2.45223">
        <ele>453</ele>
        <time>2015-04-08T13:26:09Z</time>
      </trkpt>
      <trkpt lat="46.16002" lon="2.45221">
        <ele>453</ele>
        <time>2015-04-08T13:26:11Z</time>
      </trkpt>
      <trkpt lat="46.15999" lon="2.4522">
        <ele>454</ele>
        <time>2015-04-08T13:26:13Z</time>
      </trkpt>
      <trkpt lat="46.15996" lon="2.45218">
        <ele>454</ele>
        <time>2015-04-08T13:26:15Z</time>
      </trkpt>
      <trkpt lat="46.15993" lon="2.45217">
        <ele>454</ele>
        <time>2015-04-08T13:26:17Z</time>
      </trkpt>
      <trkpt lat="46.15991" lon="2.45215">
        <ele>454</ele>
        <time>2015-04-08T13:26:19Z</time>
      </trkpt>
      <trkpt lat="46.15988" lon="2.45214">
        <ele>454</ele>
        <time>2015-04-08T13:26:21Z</time>
      </trkpt>
      <trkpt lat="46.15985" lon="2.45212">
        <ele>454</ele>
        <time>2015-04-08T13:26:23Z</time>
      </trkpt>
      <trkpt lat="46.15982" lon="2.4521">
        <ele>454</ele>
        <time>2015-04-08T13:26:25Z</time>
      </trkpt>
      <trkpt lat="46.1598" lon="2.45208">
        <ele>454</ele>
        <time>2015-04-08T13:26:27Z</time>
      </trkpt>
      <trkpt lat="46.15977" lon="2.45207">
        <ele>455</ele>
        <time>2015-04-08T13:26:29Z</time>
      </trkpt>
      <trkpt lat="46.15974" lon="2.45205">
        <ele>455</ele>
        <time>2015-04-08T13:26:31Z</time>
      </trkpt>
      <trkpt lat="46.15971" lon="2.45204">
        <ele>455</ele>
        <time>2015-04-08T13:26:33Z</time>
      </trkpt>
      <trkpt lat="46.15969" lon="2.45202">
        <ele>455</ele>
        <time>2015-04-08T13:26:35Z</time>
      </trkpt>
      <trkpt lat="46.15966" lon="2.45201">
        <ele>455</ele>
        <time>2015-04-08T13:26:37Z</time>
      </trkpt>
      <trkpt lat="46.15963" lon="2.45199">
        <ele>455</ele>
        <time>2015-04-08T13:26:39Z</time>
      </trkpt>
      <trkpt lat="46.1596" lon="2.45197">
        <ele>455</ele>
        <time>2015-04-08T13:26:41Z</time>
      </trkpt>
      <trkpt lat="46.15957" lon="2.45196">
        <ele>455</ele>
        <time>2015-04-08T13:26:43Z</time>
      </trkpt>
      <trkpt lat="46.15954" lon="2.45194">
        <ele>455</ele>
        <time>2015-04-08T13:26:45Z</time>
      </trkpt>
      <trkpt lat="46.15951" lon="2.45192">
        <ele>455</ele>
        <time>2015-04-08T13:26:47Z</time>
      </trkpt>
      <trkpt lat="46.15948" lon="2.45191">
        <ele>455</ele>
        <time>2015-04-08T13:26:49Z</time>
      </trkpt>
      <trkpt lat="46.15946" lon="2.45189">
        <ele>455</ele>
        <time>2015-04-08T13:26:51Z</time>
      </trkpt>
      <trkpt lat="46.15943" lon="2.45188">
        <ele>455</ele>
        <time>2015-04-08T13:26:53Z</time>
      </trkpt>
      <trkpt lat="46.1594" lon="2.45186">
        <ele>455</ele>
        <time>2015-04-08T13:26:55Z</time>
      </trkpt>
      <trkpt lat="46.15938" lon="2.45185">
        <ele>456</ele>
        <time>2015-04-08T13:26:57Z</time>
      </trkpt>
      <trkpt lat="46.15935" lon="2.45183">
        <ele>456</ele>
        <time>2015-04-08T13:26:59Z</time>
      </trkpt>
      <trkpt lat="46.15932" lon="2.45182">
        <ele>456</ele>
        <time>2015-04-08T13:27:01Z</time>
      </trkpt>
      <trkpt lat="46.15929" lon="2.4518">
        <ele>456</ele>
        <time>2015-04-08T13:27:03Z</time>
      </trkpt>
      <trkpt lat="46.15926" lon="2.45179">
        <ele>456</ele>
        <time>2015-04-08T13:27:05Z</time>
      </trkpt>
      <trkpt lat="46.15923" lon="2.45177">
        <ele>456</ele>
        <time>2015-04-08T13:27:07Z</time>
      </trkpt>
      <trkpt lat="46.15921" lon="2.45176">
        <ele>456</ele>
        <time>2015-04-08T13:27:09Z</time>
      </trkpt>
      <trkpt lat="46.15918" lon="2.45174">
        <ele>456</ele>
        <time>2015-04-08T13:27:11Z</time>
      </trkpt>
      <trkpt lat="46.15915" lon="2.45172">
        <ele>456</ele>
        <time>2015-04-08T13:27:13Z</time>
      </trkpt>
      <trkpt lat="46.15912" lon="2.45171">
        <ele>456</ele>
        <time>2015-04-08T13:27:15Z</time>
      </trkpt>
      <trkpt lat="46.15909" lon="2.45169">
        <ele>456</ele>
        <time>2015-04-08T13:27:17Z</time>
      </trkpt>
      <trkpt lat="46.15906" lon="2.45167">
        <ele>456</ele>
        <time>2015-04-08T13:27:19Z</time>
      </trkpt>
      <trkpt lat="46.15903" lon="2.45165">
        <ele>456</ele>
        <time>2015-04-08T13:27:21Z</time>
      </trkpt>
      <trkpt lat="46.159" lon="2.45164">
        <ele>456</ele>
        <time>2015-04-08T13:27:23Z</time>
      </trkpt>
      <trkpt lat="46.15898" lon="2.45162">
        <ele>456</ele>
        <time>2015-04-08T13:27:25Z</time>
      </trkpt>
      <trkpt lat="46.15895" lon="2.45161">
        <ele>456</ele>
        <time>2015-04-08T13:27:27Z</time>
      </trkpt>
      <trkpt lat="46.15892" lon="2.45159">
        <ele>456</ele>
        <time>2015-04-08T13:27:29Z</time>
      </trkpt>
      <trkpt lat="46.15889" lon="2.45158">
        <ele>456</ele>
        <time>2015-04-08T13:27:31Z</time>
      </trkpt>
      <trkpt lat="46.15886" lon="2.45156">
        <ele>456</ele>
        <time>2015-04-08T13:27:33Z</time>
      </trkpt>
      <trkpt lat="46.15883" lon="2.45155">
        <ele>456</ele>
        <time>2015-04-08T13:27:35Z</time>
      </trkpt>
      <trkpt lat="46.15881" lon="2.45153">
        <ele>456</ele>
        <time>2015-04-08T13:27:37Z</time>
      </trkpt>
      <trkpt lat="46.15878" lon="2.45151">
        <ele>456</ele>
        <time>2015-04-08T13:27:39Z</time>
      </trkpt>
      <trkpt lat="46.15875" lon="2.4515">
        <ele>456</ele>
        <time>2015-04-08T13:27:41Z</time>
      </trkpt>
      <trkpt lat="46.15872" lon="2.45148">
        <ele>456</ele>
        <time>2015-04-08T13:27:43Z</time>
      </trkpt>
      <trkpt lat="46.15869" lon="2.45147">
        <ele>456</ele>
        <time>2015-04-08T13:27:45Z</time>
      </trkpt>
      <trkpt lat="46.15866" lon="2.45145">
        <ele>456</ele>
        <time>2015-04-08T13:27:47Z</time>
      </trkpt>
      <trkpt lat="46.15863" lon="2.45143">
        <ele>456</ele>
        <time>2015-04-08T13:27:49Z</time>
      </trkpt>
      <trkpt lat="46.1586" lon="2.45142">
        <ele>456</ele>
        <time>2015-04-08T13:27:51Z</time>
      </trkpt>
      <trkpt lat="46.15857" lon="2.4514">
        <ele>456</ele>
        <time>2015-04-08T13:27:53Z</time>
      </trkpt>
      <trkpt lat="46.15855" lon="2.45138">
        <ele>456</ele>
        <time>2015-04-08T13:27:55Z</time>
      </trkpt>
      <trkpt lat="46.15852" lon="2.45136">
        <ele>456</ele>
        <time>2015-04-08T13:27:57Z</time>
      </trkpt>
      <trkpt lat="46.15849" lon="2.45134">
        <ele>456</ele>
        <time>2015-04-08T13:27:59Z</time>
      </trkpt>
      <trkpt lat="46.15847" lon="2.45132">
        <ele>456</ele>
        <time>2015-04-08T13:28:01Z</time>
      </trkpt>
      <trkpt lat="46.15843" lon="2.45129">
        <ele>456</ele>
        <time>2015-04-08T13:28:03Z</time>
      </trkpt>
      <trkpt lat="46.1584" lon="2.45127">
        <ele>456</ele>
        <time>2015-04-08T13:28:05Z</time>
      </trkpt>
      <trkpt lat="46.15838" lon="2.45124">
        <ele>456</ele>
        <time>2015-04-08T13:28:07Z</time>
      </trkpt>
      <trkpt lat="46.15836" lon="2.45122">
        <ele>456</ele>
        <time>2015-04-08T13:28:09Z</time>
      </trkpt>
      <trkpt lat="46.15833" lon="2.4512">
        <ele>456</ele>
        <time>2015-04-08T13:28:11Z</time>
      </trkpt>
      <trkpt lat="46.15831" lon="2.45118">
        <ele>456</ele>
        <time>2015-04-08T13:28:13Z</time>
      </trkpt>
      <trkpt lat="46.15828" lon="2.45116">
        <ele>456</ele>
        <time>2015-04-08T13:28:15Z</time>
      </trkpt>
      <trkpt lat="46.15826" lon="2.45114">
        <ele>456</ele>
        <time>2015-04-08T13:28:17Z</time>
      </trkpt>
      <trkpt lat="46.15824" lon="2.45111">
        <ele>456</ele>
        <time>2015-04-08T13:28:19Z</time>
      </trkpt>
      <trkpt lat="46.15823" lon="2.45106">
        <ele>456</ele>
        <time>2015-04-08T13:28:21Z</time>
      </trkpt>
      <trkpt lat="46.15823" lon="2.45101">
        <ele>456</ele>
        <time>2015-04-08T13:28:23Z</time>
      </trkpt>
      <trkpt lat="46.15823" lon="2.45097">
        <ele>456</ele>
        <time>2015-04-08T13:28:25Z</time>
      </trkpt>
      <trkpt lat="46.15824" lon="2.45092">
        <ele>456</ele>
        <time>2015-04-08T13:28:27Z</time>
      </trkpt>
      <trkpt lat="46.15825" lon="2.45088">
        <ele>456</ele>
        <time>2015-04-08T13:28:29Z</time>
      </trkpt>
      <trkpt lat="46.15825" lon="2.45083">
        <ele>456</ele>
        <time>2015-04-08T13:28:31Z</time>
      </trkpt>
      <trkpt lat="46.15827" lon="2.45079">
        <ele>456</ele>
        <time>2015-04-08T13:28:33Z</time>
      </trkpt>
      <trkpt lat="46.15827" lon="2.45074">
        <ele>456</ele>
        <time>2015-04-08T13:28:35Z</time>
      </trkpt>
      <trkpt lat="46.15828" lon="2.4507">
        <ele>456</ele>
        <time>2015-04-08T13:28:37Z</time>
      </trkpt>
      <trkpt lat="46.15829" lon="2.45066">
        <ele>456</ele>
        <time>2015-04-08T13:28:39Z</time>
      </trkpt>
      <trkpt lat="46.1583" lon="2.45062">
        <ele>456</ele>
        <time>2015-04-08T13:28:41Z</time>
      </trkpt>
      <trkpt lat="46.15831" lon="2.45058">
        <ele>456</ele>
        <time>2015-04-08T13:28:43Z</time>
      </trkpt>
      <trkpt lat="46.15832" lon="2.45053">
        <ele>456</ele>
        <time>2015-04-08T13:28:45Z</time>
      </trkpt>
      <trkpt lat="46.15833" lon="2.45049">
        <ele>456</ele>
        <time>2015-04-08T13:28:47Z</time>
      </trkpt>
      <trkpt lat="46.15834" lon="2.45044">
        <ele>456</ele>
        <time>2015-04-08T13:28:49Z</time>
      </trkpt>
      <trkpt lat="46.15834" lon="2.4504">
        <ele>456</ele>
        <time>2015-04-08T13:28:51Z</time>
      </trkpt>
      <trkpt lat="46.15835" lon="2.45036">
        <ele>456</ele>
        <time>2015-04-08T13:28:53Z</time>
      </trkpt>
      <trkpt lat="46.15836" lon="2.45032">
        <ele>456</ele>
        <time>2015-04-08T13:28:55Z</time>
      </trkpt>
      <trkpt lat="46.15837" lon="2.45028">
        <ele>456</ele>
        <time>2015-04-08T13:28:57Z</time>
      </trkpt>
      <trkpt lat="46.15837" lon="2.45023">
        <ele>456</ele>
        <time>2015-04-08T13:28:59Z</time>
      </trkpt>
      <trkpt lat="46.15838" lon="2.45019">
        <ele>456</ele>
        <time>2015-04-08T13:29:01Z</time>
      </trkpt>
      <trkpt lat="46.15839" lon="2.45015">
        <ele>456</ele>
        <time>2015-04-08T13:29:03Z</time>
      </trkpt>
      <trkpt lat="46.1584" lon="2.4501">
        <ele>456</ele>
        <time>2015-04-08T13:29:05Z</time>
      </trkpt>
      <trkpt lat="46.15841" lon="2.45006">
        <ele>456</ele>
        <time>2015-04-08T13:29:07Z</time>
      </trkpt>
      <trkpt lat="46.15842" lon="2.45003">
        <ele>456</ele>
        <time>2015-04-08T13:29:09Z</time>
      </trkpt>
      <trkpt lat="46.15843" lon="2.44999">
        <ele>456</ele>
        <time>2015-04-08T13:29:11Z</time>
      </trkpt>
      <trkpt lat="46.15843" lon="2.44994">
        <ele>456</ele>
        <time>2015-04-08T13:29:13Z</time>
      </trkpt>
      <trkpt lat="46.15843" lon="2.4499">
        <ele>456</ele>
        <time>2015-04-08T13:29:15Z</time>
      </trkpt>
      <trkpt lat="46.15844" lon="2.44987">
        <ele>456</ele>
        <time>2015-04-08T13:29:17Z</time>
      </trkpt>
      <trkpt lat="46.15844" lon="2.44983">
        <ele>456</ele>
        <time>2015-04-08T13:29:19Z</time>
      </trkpt>
      <trkpt lat="46.15845" lon="2.44978">
        <ele>456</ele>
        <time>2015-04-08T13:29:21Z</time>
      </trkpt>
      <trkpt lat="46.15845" lon="2.44974">
        <ele>456</ele>
        <time>2015-04-08T13:29:23Z</time>
      </trkpt>
      <trkpt lat="46.15846" lon="2.44971">
        <ele>456</ele>
        <time>2015-04-08T13:29:25Z</time>
      </trkpt>
      <trkpt lat="46.15847" lon="2.44967">
        <ele>456</ele>
        <time>2015-04-08T13:29:27Z</time>
      </trkpt>
      <trkpt lat="46.15847" lon="2.44963">
        <ele>456</ele>
        <time>2015-04-08T13:29:29Z</time>
      </trkpt>
      <trkpt lat="46.15847" lon="2.44959">
        <ele>456</ele>
        <time>2015-04-08T13:29:31Z</time>
      </trkpt>
      <trkpt lat="46.15847" lon="2.44955">
        <ele>456</ele>
        <time>2015-04-08T13:29:33Z</time>
      </trkpt>
      <trkpt lat="46.15847" lon="2.44951">
        <ele>457</ele>
        <time>2015-04-08T13:29:35Z</time>
      </trkpt>
      <trkpt lat="46.15847" lon="2.44947">
        <ele>457</ele>
        <time>2015-04-08T13:29:37Z</time>
      </trkpt>
      <trkpt lat="46.15847" lon="2.44943">
        <ele>457</ele>
        <time>2015-04-08T13:29:39Z</time>
      </trkpt>
      <trkpt lat="46.15846" lon="2.44939">
        <ele>457</ele>
        <time>2015-04-08T13:29:41Z</time>
      </trkpt>
      <trkpt lat="46.15843" lon="2.44934">
        <ele>457</ele>
        <time>2015-04-08T13:29:44Z</time>
      </trkpt>
      <trkpt lat="46.15841" lon="2.4493">
        <ele>457</ele>
        <time>2015-04-08T13:29:47Z</time>
      </trkpt>
      <trkpt lat="46.15839" lon="2.44927">
        <ele>457</ele>
        <time>2015-04-08T13:29:49Z</time>
      </trkpt>
      <trkpt lat="46.15837" lon="2.44925">
        <ele>457</ele>
        <time>2015-04-08T13:29:51Z</time>
      </trkpt>
      <trkpt lat="46.15835" lon="2.44922">
        <ele>457</ele>
        <time>2015-04-08T13:29:53Z</time>
      </trkpt>
      <trkpt lat="46.15833" lon="2.4492">
        <ele>457</ele>
        <time>2015-04-08T13:29:55Z</time>
      </trkpt>
      <trkpt lat="46.15831" lon="2.44917">
        <ele>457</ele>
        <time>2015-04-08T13:29:57Z</time>
      </trkpt>
      <trkpt lat="46.15828" lon="2.44915">
        <ele>457</ele>
        <time>2015-04-08T13:29:59Z</time>
      </trkpt>
      <trkpt lat="46.15826" lon="2.44913">
        <ele>457</ele>
        <time>2015-04-08T13:30:01Z</time>
      </trkpt>
      <trkpt lat="46.15823" lon="2.44909">
        <ele>457</ele>
        <time>2015-04-08T13:30:04Z</time>
      </trkpt>
      <trkpt lat="46.1582" lon="2.44905">
        <ele>457</ele>
        <time>2015-04-08T13:30:07Z</time>
      </trkpt>
      <trkpt lat="46.15818" lon="2.44902">
        <ele>457</ele>
        <time>2015-04-08T13:30:09Z</time>
      </trkpt>
      <trkpt lat="46.15816" lon="2.449">
        <ele>457</ele>
        <time>2015-04-08T13:30:11Z</time>
      </trkpt>
      <trkpt lat="46.15813" lon="2.44897">
        <ele>457</ele>
        <time>2015-04-08T13:30:13Z</time>
      </trkpt>
      <trkpt lat="46.15812" lon="2.44893">
        <ele>458</ele>
        <time>2015-04-08T13:30:15Z</time>
      </trkpt>
      <trkpt lat="46.15809" lon="2.4489">
        <ele>458</ele>
        <time>2015-04-08T13:30:17Z</time>
      </trkpt>
      <trkpt lat="46.15807" lon="2.44887">
        <ele>459</ele>
        <time>2015-04-08T13:30:19Z</time>
      </trkpt>
      <trkpt lat="46.15805" lon="2.44884">
        <ele>459</ele>
        <time>2015-04-08T13:30:21Z</time>
      </trkpt>
      <trkpt lat="46.15802" lon="2.44882">
        <ele>460</ele>
        <time>2015-04-08T13:30:23Z</time>
      </trkpt>
      <trkpt lat="46.15799" lon="2.44878">
        <ele>460</ele>
        <time>2015-04-08T13:30:26Z</time>
      </trkpt>
      <trkpt lat="46.15797" lon="2.44875">
        <ele>460</ele>
        <time>2015-04-08T13:30:28Z</time>
      </trkpt>
      <trkpt lat="46.15794" lon="2.44872">
        <ele>460</ele>
        <time>2015-04-08T13:30:30Z</time>
      </trkpt>
      <trkpt lat="46.15792" lon="2.44869">
        <ele>461</ele>
        <time>2015-04-08T13:30:32Z</time>
      </trkpt>
      <trkpt lat="46.15789" lon="2.44866">
        <ele>461</ele>
        <time>2015-04-08T13:30:35Z</time>
      </trkpt>
      <trkpt lat="46.15787" lon="2.44864">
        <ele>461</ele>
        <time>2015-04-08T13:30:37Z</time>
      </trkpt>
      <trkpt lat="46.15785" lon="2.44862">
        <ele>461</ele>
        <time>2015-04-08T13:30:39Z</time>
      </trkpt>
      <trkpt lat="46.15782" lon="2.44861">
        <ele>461</ele>
        <time>2015-04-08T13:30:42Z</time>
      </trkpt>
      <trkpt lat="46.15781" lon="2.4486">
        <ele>461</ele>
        <time>2015-04-08T13:30:44Z</time>
      </trkpt>
      <trkpt lat="46.15779" lon="2.44858">
        <ele>461</ele>
        <time>2015-04-08T13:30:46Z</time>
      </trkpt>
      <trkpt lat="46.15777" lon="2.44856">
        <ele>461</ele>
        <time>2015-04-08T13:30:48Z</time>
      </trkpt>
      <trkpt lat="46.15776" lon="2.44854">
        <ele>461</ele>
        <time>2015-04-08T13:30:50Z</time>
      </trkpt>
      <trkpt lat="46.15774" lon="2.44852">
        <ele>461</ele>
        <time>2015-04-08T13:30:52Z</time>
      </trkpt>
      <trkpt lat="46.15773" lon="2.4485">
        <ele>461</ele>
        <time>2015-04-08T13:30:54Z</time>
      </trkpt>
      <trkpt lat="46.15772" lon="2.44849">
        <ele>461</ele>
        <time>2015-04-08T13:30:58Z</time>
      </trkpt>
      <trkpt lat="46.1577" lon="2.44848">
        <ele>461</ele>
        <time>2015-04-08T13:31:09Z</time>
      </trkpt>
      <trkpt lat="46.15768" lon="2.44848">
        <ele>461</ele>
        <time>2015-04-08T13:31:11Z</time>
      </trkpt>
      <trkpt lat="46.15766" lon="2.4485">
        <ele>461</ele>
        <time>2015-04-08T13:31:13Z</time>
      </trkpt>
      <trkpt lat="46.15764" lon="2.44852">
        <ele>461</ele>
        <time>2015-04-08T13:31:15Z</time>
      </trkpt>
      <trkpt lat="46.15761" lon="2.44854">
        <ele>461</ele>
        <time>2015-04-08T13:31:17Z</time>
      </trkpt>
      <trkpt lat="46.15759" lon="2.44856">
        <ele>461</ele>
        <time>2015-04-08T13:31:19Z</time>
      </trkpt>
      <trkpt lat="46.15755" lon="2.44857">
        <ele>461</ele>
        <time>2015-04-08T13:31:21Z</time>
      </trkpt>
      <trkpt lat="46.15753" lon="2.44859">
        <ele>461</ele>
        <time>2015-04-08T13:31:23Z</time>
      </trkpt>
      <trkpt lat="46.1575" lon="2.44861">
        <ele>461</ele>
        <time>2015-04-08T13:31:25Z</time>
      </trkpt>
      <trkpt lat="46.15747" lon="2.44862">
        <ele>461</ele>
        <time>2015-04-08T13:31:27Z</time>
      </trkpt>
      <trkpt lat="46.15745" lon="2.44864">
        <ele>461</ele>
        <time>2015-04-08T13:31:29Z</time>
      </trkpt>
      <trkpt lat="46.15742" lon="2.44865">
        <ele>461</ele>
        <time>2015-04-08T13:31:31Z</time>
      </trkpt>
      <trkpt lat="46.1574" lon="2.44866">
        <ele>461</ele>
        <time>2015-04-08T13:31:33Z</time>
      </trkpt>
      <trkpt lat="46.15738" lon="2.44867">
        <ele>461</ele>
        <time>2015-04-08T13:31:35Z</time>
      </trkpt>
      <trkpt lat="46.15736" lon="2.44869">
        <ele>461</ele>
        <time>2015-04-08T13:31:37Z</time>
      </trkpt>
      <trkpt lat="46.15732" lon="2.44872">
        <ele>461</ele>
        <time>2015-04-08T13:31:40Z</time>
      </trkpt>
      <trkpt lat="46.1573" lon="2.44874">
        <ele>461</ele>
        <time>2015-04-08T13:31:42Z</time>
      </trkpt>
      <trkpt lat="46.15728" lon="2.44876">
        <ele>461</ele>
        <time>2015-04-08T13:31:44Z</time>
      </trkpt>
      <trkpt lat="46.15725" lon="2.44879">
        <ele>461</ele>
        <time>2015-04-08T13:31:46Z</time>
      </trkpt>
      <trkpt lat="46.15723" lon="2.44881">
        <ele>461</ele>
        <time>2015-04-08T13:31:48Z</time>
      </trkpt>
      <trkpt lat="46.1572" lon="2.44883">
        <ele>461</ele>
        <time>2015-04-08T13:31:50Z</time>
      </trkpt>
      <trkpt lat="46.15718" lon="2.44886">
        <ele>461</ele>
        <time>2015-04-08T13:31:52Z</time>
      </trkpt>
      <trkpt lat="46.15716" lon="2.44888">
        <ele>461</ele>
        <time>2015-04-08T13:31:54Z</time>
      </trkpt>
      <trkpt lat="46.15712" lon="2.44892">
        <ele>461</ele>
        <time>2015-04-08T13:31:57Z</time>
      </trkpt>
      <trkpt lat="46.1571" lon="2.44894">
        <ele>461</ele>
        <time>2015-04-08T13:31:59Z</time>
      </trkpt>
      <trkpt lat="46.15708" lon="2.44896">
        <ele>461</ele>
        <time>2015-04-08T13:32:01Z</time>
      </trkpt>
      <trkpt lat="46.15705" lon="2.44896">
        <ele>461</ele>
        <time>2015-04-08T13:32:04Z</time>
      </trkpt>
      <trkpt lat="46.15702" lon="2.44896">
        <ele>461</ele>
        <time>2015-04-08T13:32:07Z</time>
      </trkpt>
      <trkpt lat="46.15701" lon="2.44894">
        <ele>461</ele>
        <time>2015-04-08T13:32:19Z</time>
      </trkpt>
      <trkpt lat="46.15699" lon="2.44892">
        <ele>461</ele>
        <time>2015-04-08T13:32:21Z</time>
      </trkpt>
      <trkpt lat="46.15697" lon="2.4489">
        <ele>461</ele>
        <time>2015-04-08T13:32:23Z</time>
      </trkpt>
      <trkpt lat="46.15695" lon="2.44891">
        <ele>461</ele>
        <time>2015-04-08T13:32:25Z</time>
      </trkpt>
      <trkpt lat="46.15691" lon="2.44893">
        <ele>461</ele>
        <time>2015-04-08T13:32:28Z</time>
      </trkpt>
      <trkpt lat="46.15688" lon="2.44896">
        <ele>461</ele>
        <time>2015-04-08T13:32:31Z</time>
      </trkpt>
      <trkpt lat="46.15687" lon="2.44897">
        <ele>460</ele>
        <time>2015-04-08T13:32:33Z</time>
      </trkpt>
      <trkpt lat="46.15684" lon="2.44897">
        <ele>460</ele>
        <time>2015-04-08T13:32:35Z</time>
      </trkpt>
      <trkpt lat="46.15682" lon="2.44899">
        <ele>460</ele>
        <time>2015-04-08T13:32:37Z</time>
      </trkpt>
      <trkpt lat="46.1568" lon="2.449">
        <ele>460</ele>
        <time>2015-04-08T13:32:39Z</time>
      </trkpt>
      <trkpt lat="46.15677" lon="2.44899">
        <ele>460</ele>
        <time>2015-04-08T13:32:52Z</time>
      </trkpt>
      <trkpt lat="46.15675" lon="2.449">
        <ele>460</ele>
        <time>2015-04-08T13:32:55Z</time>
      </trkpt>
      <trkpt lat="46.15674" lon="2.449">
        <ele>460</ele>
        <time>2015-04-08T13:32:57Z</time>
      </trkpt>
      <trkpt lat="46.15676" lon="2.449">
        <ele>460</ele>
        <time>2015-04-08T13:33:02Z</time>
      </trkpt>
      <trkpt lat="46.15678" lon="2.44898">
        <ele>460</ele>
        <time>2015-04-08T13:33:04Z</time>
      </trkpt>
      <trkpt lat="46.15679" lon="2.44897">
        <ele>460</ele>
        <time>2015-04-08T13:33:06Z</time>
      </trkpt>
      <trkpt lat="46.15678" lon="2.44894">
        <ele>460</ele>
        <time>2015-04-08T13:33:08Z</time>
      </trkpt>
      <trkpt lat="46.15676" lon="2.44894">
        <ele>460</ele>
        <time>2015-04-08T13:33:10Z</time>
      </trkpt>
      <trkpt lat="46.15675" lon="2.44893">
        <ele>460</ele>
        <time>2015-04-08T13:33:20Z</time>
      </trkpt>
      <trkpt lat="46.15673" lon="2.44892">
        <ele>460</ele>
        <time>2015-04-08T13:33:22Z</time>
      </trkpt>
      <trkpt lat="46.15671" lon="2.4489">
        <ele>460</ele>
        <time>2015-04-08T13:33:24Z</time>
      </trkpt>
      <trkpt lat="46.15669" lon="2.44887">
        <ele>460</ele>
        <time>2015-04-08T13:33:26Z</time>
      </trkpt>
      <trkpt lat="46.15667" lon="2.44885">
        <ele>460</ele>
        <time>2015-04-08T13:33:28Z</time>
      </trkpt>
      <trkpt lat="46.15664" lon="2.44881">
        <ele>460</ele>
        <time>2015-04-08T13:33:31Z</time>
      </trkpt>
      <trkpt lat="46.15662" lon="2.44879">
        <ele>460</ele>
        <time>2015-04-08T13:33:33Z</time>
      </trkpt>
      <trkpt lat="46.15659" lon="2.44877">
        <ele>460</ele>
        <time>2015-04-08T13:33:35Z</time>
      </trkpt>
      <trkpt lat="46.15657" lon="2.44875">
        <ele>460</ele>
        <time>2015-04-08T13:33:37Z</time>
      </trkpt>
      <trkpt lat="46.15654" lon="2.44873">
        <ele>460</ele>
        <time>2015-04-08T13:33:39Z</time>
      </trkpt>
      <trkpt lat="46.15652" lon="2.44873">
        <ele>460</ele>
        <time>2015-04-08T13:33:41Z</time>
      </trkpt>
      <trkpt lat="46.1565" lon="2.44872">
        <ele>460</ele>
        <time>2015-04-08T13:33:43Z</time>
      </trkpt>
      <trkpt lat="46.15647" lon="2.4487">
        <ele>460</ele>
        <time>2015-04-08T13:33:46Z</time>
      </trkpt>
      <trkpt lat="46.15645" lon="2.44868">
        <ele>460</ele>
        <time>2015-04-08T13:33:48Z</time>
      </trkpt>
      <trkpt lat="46.15643" lon="2.44867">
        <ele>460</ele>
        <time>2015-04-08T13:33:50Z</time>
      </trkpt>
      <trkpt lat="46.15641" lon="2.44865">
        <ele>460</ele>
        <time>2015-04-08T13:33:52Z</time>
      </trkpt>
      <trkpt lat="46.15639" lon="2.44864">
        <ele>460</ele>
        <time>2015-04-08T13:33:54Z</time>
      </trkpt>
      <trkpt lat="46.15637" lon="2.44863">
        <ele>460</ele>
        <time>2015-04-08T13:33:56Z</time>
      </trkpt>
      <trkpt lat="46.15635" lon="2.44862">
        <ele>460</ele>
        <time>2015-04-08T13:33:58Z</time>
      </trkpt>
      <trkpt lat="46.15633" lon="2.44861">
        <ele>460</ele>
        <time>2015-04-08T13:34:00Z</time>
      </trkpt>
      <trkpt lat="46.1563" lon="2.44859">
        <ele>460</ele>
        <time>2015-04-08T13:34:02Z</time>
      </trkpt>
      <trkpt lat="46.15628" lon="2.44858">
        <ele>460</ele>
        <time>2015-04-08T13:34:04Z</time>
      </trkpt>
      <trkpt lat="46.15625" lon="2.44857">
        <ele>460</ele>
        <time>2015-04-08T13:34:06Z</time>
      </trkpt>
      <trkpt lat="46.15622" lon="2.44855">
        <ele>460</ele>
        <time>2015-04-08T13:34:08Z</time>
      </trkpt>
      <trkpt lat="46.1562" lon="2.44854">
        <ele>460</ele>
        <time>2015-04-08T13:34:10Z</time>
      </trkpt>
      <trkpt lat="46.15617" lon="2.44853">
        <ele>460</ele>
        <time>2015-04-08T13:34:12Z</time>
      </trkpt>
      <trkpt lat="46.15615" lon="2.44852">
        <ele>460</ele>
        <time>2015-04-08T13:34:14Z</time>
      </trkpt>
      <trkpt lat="46.15612" lon="2.4485">
        <ele>460</ele>
        <time>2015-04-08T13:34:16Z</time>
      </trkpt>
      <trkpt lat="46.15609" lon="2.44848">
        <ele>460</ele>
        <time>2015-04-08T13:34:19Z</time>
      </trkpt>
      <trkpt lat="46.15606" lon="2.44846">
        <ele>460</ele>
        <time>2015-04-08T13:34:22Z</time>
      </trkpt>
      <trkpt lat="46.15603" lon="2.44846">
        <ele>460</ele>
        <time>2015-04-08T13:34:24Z</time>
      </trkpt>
      <trkpt lat="46.15601" lon="2.44845">
        <ele>460</ele>
        <time>2015-04-08T13:34:26Z</time>
      </trkpt>
      <trkpt lat="46.15599" lon="2.44843">
        <ele>460</ele>
        <time>2015-04-08T13:34:28Z</time>
      </trkpt>
      <trkpt lat="46.15596" lon="2.44841">
        <ele>460</ele>
        <time>2015-04-08T13:34:30Z</time>
      </trkpt>
      <trkpt lat="46.15594" lon="2.44839">
        <ele>460</ele>
        <time>2015-04-08T13:34:32Z</time>
      </trkpt>
      <trkpt lat="46.15591" lon="2.44837">
        <ele>460</ele>
        <time>2015-04-08T13:34:35Z</time>
      </trkpt>
      <trkpt lat="46.15589" lon="2.44837">
        <ele>460</ele>
        <time>2015-04-08T13:34:37Z</time>
      </trkpt>
      <trkpt lat="46.15587" lon="2.44837">
        <ele>460</ele>
        <time>2015-04-08T13:34:39Z</time>
      </trkpt>
      <trkpt lat="46.15586" lon="2.44838">
        <ele>460</ele>
        <time>2015-04-08T13:34:41Z</time>
      </trkpt>
      <trkpt lat="46.15585" lon="2.4484">
        <ele>460</ele>
        <time>2015-04-08T13:34:43Z</time>
      </trkpt>
      <trkpt lat="46.15584" lon="2.4484">
        <ele>460</ele>
        <time>2015-04-08T13:34:45Z</time>
      </trkpt>
      <trkpt lat="46.15581" lon="2.4484">
        <ele>460</ele>
        <time>2015-04-08T13:34:47Z</time>
      </trkpt>
      <trkpt lat="46.15579" lon="2.44839">
        <ele>460</ele>
        <time>2015-04-08T13:34:49Z</time>
      </trkpt>
      <trkpt lat="46.15576" lon="2.44834">
        <ele>460</ele>
        <time>2015-04-08T13:34:51Z</time>
      </trkpt>
      <trkpt lat="46.15574" lon="2.44829">
        <ele>460</ele>
        <time>2015-04-08T13:34:53Z</time>
      </trkpt>
      <trkpt lat="46.15573" lon="2.44826">
        <ele>460</ele>
        <time>2015-04-08T13:34:55Z</time>
      </trkpt>
      <trkpt lat="46.15573" lon="2.44825">
        <ele>461</ele>
        <time>2015-04-08T13:34:57Z</time>
      </trkpt>
      <trkpt lat="46.15572" lon="2.44823">
        <ele>461</ele>
        <time>2015-04-08T13:34:59Z</time>
      </trkpt>
      <trkpt lat="46.15572" lon="2.44819">
        <ele>462</ele>
        <time>2015-04-08T13:35:02Z</time>
      </trkpt>
      <trkpt lat="46.15571" lon="2.44817">
        <ele>462</ele>
        <time>2015-04-08T13:35:04Z</time>
      </trkpt>
      <trkpt lat="46.1557" lon="2.44815">
        <ele>463</ele>
        <time>2015-04-08T13:35:06Z</time>
      </trkpt>
      <trkpt lat="46.15567" lon="2.44815">
        <ele>464</ele>
        <time>2015-04-08T13:35:09Z</time>
      </trkpt>
      <trkpt lat="46.15566" lon="2.44815">
        <ele>464</ele>
        <time>2015-04-08T13:35:11Z</time>
      </trkpt>
      <trkpt lat="46.15564" lon="2.44814">
        <ele>464</ele>
        <time>2015-04-08T13:35:13Z</time>
      </trkpt>
      <trkpt lat="46.15563" lon="2.44813">
        <ele>464</ele>
        <time>2015-04-08T13:35:15Z</time>
      </trkpt>
      <trkpt lat="46.1556" lon="2.44811">
        <ele>464</ele>
        <time>2015-04-08T13:35:17Z</time>
      </trkpt>
      <trkpt lat="46.15557" lon="2.44808">
        <ele>464</ele>
        <time>2015-04-08T13:35:20Z</time>
      </trkpt>
      <trkpt lat="46.15552" lon="2.44804">
        <ele>464</ele>
        <time>2015-04-08T13:35:23Z</time>
      </trkpt>
      <trkpt lat="46.15549" lon="2.44802">
        <ele>464</ele>
        <time>2015-04-08T13:35:26Z</time>
      </trkpt>
      <trkpt lat="46.15548" lon="2.44801">
        <ele>464</ele>
        <time>2015-04-08T13:35:28Z</time>
      </trkpt>
      <trkpt lat="46.15547" lon="2.44801">
        <ele>464</ele>
        <time>2015-04-08T13:35:30Z</time>
      </trkpt>
      <trkpt lat="46.15545" lon="2.44801">
        <ele>464</ele>
        <time>2015-04-08T13:35:32Z</time>
      </trkpt>
      <trkpt lat="46.15543" lon="2.44801">
        <ele>464</ele>
        <time>2015-04-08T13:35:34Z</time>
      </trkpt>
      <trkpt lat="46.15542" lon="2.44802">
        <ele>464</ele>
        <time>2015-04-08T13:35:36Z</time>
      </trkpt>
      <trkpt lat="46.1554" lon="2.44804">
        <ele>464</ele>
        <time>2015-04-08T13:35:39Z</time>
      </trkpt>
      <trkpt lat="46.15539" lon="2.44805">
        <ele>464</ele>
        <time>2015-04-08T13:35:41Z</time>
      </trkpt>
      <trkpt lat="46.15537" lon="2.44806">
        <ele>464</ele>
        <time>2015-04-08T13:35:43Z</time>
      </trkpt>
      <trkpt lat="46.15535" lon="2.44805">
        <ele>464</ele>
        <time>2015-04-08T13:35:45Z</time>
      </trkpt>
      <trkpt lat="46.15533" lon="2.44802">
        <ele>464</ele>
        <time>2015-04-08T13:35:48Z</time>
      </trkpt>
      <trkpt lat="46.15529" lon="2.448">
        <ele>464</ele>
        <time>2015-04-08T13:35:51Z</time>
      </trkpt>
      <trkpt lat="46.15527" lon="2.448">
        <ele>464</ele>
        <time>2015-04-08T13:35:53Z</time>
      </trkpt>
      <trkpt lat="46.15524" lon="2.44799">
        <ele>464</ele>
        <time>2015-04-08T13:35:55Z</time>
      </trkpt>
      <trkpt lat="46.15521" lon="2.44796">
        <ele>464</ele>
        <time>2015-04-08T13:35:58Z</time>
      </trkpt>
      <trkpt lat="46.15518" lon="2.44793">
        <ele>464</ele>
        <time>2015-04-08T13:36:01Z</time>
      </trkpt>
      <trkpt lat="46.15517" lon="2.4479">
        <ele>466</ele>
        <time>2015-04-08T13:36:04Z</time>
      </trkpt>
      <trkpt lat="46.15514" lon="2.44788">
        <ele>466</ele>
        <time>2015-04-08T13:36:07Z</time>
      </trkpt>
      <trkpt lat="46.15511" lon="2.44788">
        <ele>466</ele>
        <time>2015-04-08T13:36:09Z</time>
      </trkpt>
      <trkpt lat="46.15509" lon="2.44787">
        <ele>466</ele>
        <time>2015-04-08T13:36:11Z</time>
      </trkpt>
      <trkpt lat="46.15505" lon="2.44786">
        <ele>466</ele>
        <time>2015-04-08T13:36:14Z</time>
      </trkpt>
      <trkpt lat="46.15503" lon="2.44787">
        <ele>466</ele>
        <time>2015-04-08T13:36:16Z</time>
      </trkpt>
      <trkpt lat="46.15501" lon="2.44788">
        <ele>466</ele>
        <time>2015-04-08T13:36:18Z</time>
      </trkpt>
      <trkpt lat="46.15499" lon="2.44789">
        <ele>466</ele>
        <time>2015-04-08T13:36:20Z</time>
      </trkpt>
      <trkpt lat="46.15497" lon="2.44789">
        <ele>466</ele>
        <time>2015-04-08T13:36:22Z</time>
      </trkpt>
      <trkpt lat="46.15494" lon="2.44789">
        <ele>466</ele>
        <time>2015-04-08T13:36:24Z</time>
      </trkpt>
      <trkpt lat="46.1549" lon="2.44789">
        <ele>466</ele>
        <time>2015-04-08T13:36:27Z</time>
      </trkpt>
      <trkpt lat="46.15488" lon="2.44788">
        <ele>466</ele>
        <time>2015-04-08T13:36:29Z</time>
      </trkpt>
      <trkpt lat="46.15485" lon="2.44788">
        <ele>466</ele>
        <time>2015-04-08T13:36:31Z</time>
      </trkpt>
      <trkpt lat="46.15481" lon="2.44788">
        <ele>466</ele>
        <time>2015-04-08T13:36:34Z</time>
      </trkpt>
      <trkpt lat="46.15479" lon="2.4479">
        <ele>466</ele>
        <time>2015-04-08T13:36:37Z</time>
      </trkpt>
      <trkpt lat="46.15477" lon="2.4479">
        <ele>466</ele>
        <time>2015-04-08T13:36:39Z</time>
      </trkpt>
      <trkpt lat="46.15475" lon="2.4479">
        <ele>466</ele>
        <time>2015-04-08T13:36:41Z</time>
      </trkpt>
      <trkpt lat="46.15472" lon="2.44791">
        <ele>466</ele>
        <time>2015-04-08T13:36:44Z</time>
      </trkpt>
      <trkpt lat="46.1547" lon="2.44791">
        <ele>466</ele>
        <time>2015-04-08T13:36:46Z</time>
      </trkpt>
      <trkpt lat="46.15467" lon="2.4479">
        <ele>466</ele>
        <time>2015-04-08T13:36:49Z</time>
      </trkpt>
      <trkpt lat="46.15464" lon="2.44788">
        <ele>466</ele>
        <time>2015-04-08T13:36:51Z</time>
      </trkpt>
      <trkpt lat="46.15461" lon="2.44788">
        <ele>466</ele>
        <time>2015-04-08T13:36:53Z</time>
      </trkpt>
      <trkpt lat="46.15459" lon="2.44789">
        <ele>466</ele>
        <time>2015-04-08T13:36:55Z</time>
      </trkpt>
      <trkpt lat="46.15455" lon="2.4479">
        <ele>466</ele>
        <time>2015-04-08T13:36:57Z</time>
      </trkpt>
      <trkpt lat="46.15452" lon="2.4479">
        <ele>466</ele>
        <time>2015-04-08T13:36:59Z</time>
      </trkpt>
      <trkpt lat="46.15449" lon="2.44791">
        <ele>466</ele>
        <time>2015-04-08T13:37:01Z</time>
      </trkpt>
      <trkpt lat="46.15446" lon="2.44791">
        <ele>466</ele>
        <time>2015-04-08T13:37:03Z</time>
      </trkpt>
      <trkpt lat="46.15445" lon="2.4479">
        <ele>466</ele>
        <time>2015-04-08T13:37:05Z</time>
      </trkpt>
      <trkpt lat="46.15442" lon="2.44786">
        <ele>466</ele>
        <time>2015-04-08T13:37:08Z</time>
      </trkpt>
      <trkpt lat="46.15439" lon="2.44782">
        <ele>468</ele>
        <time>2015-04-08T13:37:11Z</time>
      </trkpt>
      <trkpt lat="46.15438" lon="2.4478">
        <ele>470</ele>
        <time>2015-04-08T13:37:13Z</time>
      </trkpt>
      <trkpt lat="46.15435" lon="2.4478">
        <ele>472</ele>
        <time>2015-04-08T13:37:16Z</time>
      </trkpt>
      <trkpt lat="46.15432" lon="2.44781">
        <ele>472</ele>
        <time>2015-04-08T13:37:19Z</time>
      </trkpt>
      <trkpt lat="46.1543" lon="2.44779">
        <ele>472</ele>
        <time>2015-04-08T13:37:21Z</time>
      </trkpt>
      <trkpt lat="46.15426" lon="2.44777">
        <ele>472</ele>
        <time>2015-04-08T13:37:23Z</time>
      </trkpt>
      <trkpt lat="46.15422" lon="2.44777">
        <ele>472</ele>
        <time>2015-04-08T13:37:26Z</time>
      </trkpt>
      <trkpt lat="46.1542" lon="2.44776">
        <ele>473</ele>
        <time>2015-04-08T13:37:28Z</time>
      </trkpt>
      <trkpt lat="46.15419" lon="2.44775">
        <ele>473</ele>
        <time>2015-04-08T13:37:30Z</time>
      </trkpt>
      <trkpt lat="46.15417" lon="2.44776">
        <ele>473</ele>
        <time>2015-04-08T13:37:32Z</time>
      </trkpt>
      <trkpt lat="46.15415" lon="2.44777">
        <ele>474</ele>
        <time>2015-04-08T13:37:35Z</time>
      </trkpt>
      <trkpt lat="46.15412" lon="2.44777">
        <ele>474</ele>
        <time>2015-04-08T13:37:37Z</time>
      </trkpt>
      <trkpt lat="46.15409" lon="2.44778">
        <ele>474</ele>
        <time>2015-04-08T13:37:39Z</time>
      </trkpt>
      <trkpt lat="46.15408" lon="2.44778">
        <ele>474</ele>
        <time>2015-04-08T13:37:41Z</time>
      </trkpt>
      <trkpt lat="46.15406" lon="2.44776">
        <ele>474</ele>
        <time>2015-04-08T13:37:43Z</time>
      </trkpt>
      <trkpt lat="46.15403" lon="2.44777">
        <ele>474</ele>
        <time>2015-04-08T13:37:45Z</time>
      </trkpt>
      <trkpt lat="46.15401" lon="2.44777">
        <ele>474</ele>
        <time>2015-04-08T13:37:47Z</time>
      </trkpt>
      <trkpt lat="46.15398" lon="2.44775">
        <ele>474</ele>
        <time>2015-04-08T13:37:49Z</time>
      </trkpt>
      <trkpt lat="46.15395" lon="2.44772">
        <ele>474</ele>
        <time>2015-04-08T13:37:51Z</time>
      </trkpt>
      <trkpt lat="46.15393" lon="2.44773">
        <ele>474</ele>
        <time>2015-04-08T13:37:53Z</time>
      </trkpt>
      <trkpt lat="46.15392" lon="2.44773">
        <ele>474</ele>
        <time>2015-04-08T13:37:55Z</time>
      </trkpt>
      <trkpt lat="46.15389" lon="2.44772">
        <ele>474</ele>
        <time>2015-04-08T13:37:57Z</time>
      </trkpt>
      <trkpt lat="46.15387" lon="2.44772">
        <ele>474</ele>
        <time>2015-04-08T13:37:59Z</time>
      </trkpt>
      <trkpt lat="46.15384" lon="2.44772">
        <ele>474</ele>
        <time>2015-04-08T13:38:02Z</time>
      </trkpt>
      <trkpt lat="46.15382" lon="2.44771">
        <ele>474</ele>
        <time>2015-04-08T13:38:04Z</time>
      </trkpt>
      <trkpt lat="46.1538" lon="2.44771">
        <ele>474</ele>
        <time>2015-04-08T13:38:06Z</time>
      </trkpt>
      <trkpt lat="46.15378" lon="2.4477">
        <ele>474</ele>
        <time>2015-04-08T13:38:08Z</time>
      </trkpt>
      <trkpt lat="46.15376" lon="2.4477">
        <ele>474</ele>
        <time>2015-04-08T13:38:10Z</time>
      </trkpt>
      <trkpt lat="46.15373" lon="2.4477">
        <ele>474</ele>
        <time>2015-04-08T13:38:12Z</time>
      </trkpt>
      <trkpt lat="46.15371" lon="2.44769">
        <ele>474</ele>
        <time>2015-04-08T13:38:14Z</time>
      </trkpt>
      <trkpt lat="46.15369" lon="2.44769">
        <ele>473</ele>
        <time>2015-04-08T13:38:16Z</time>
      </trkpt>
      <trkpt lat="46.15366" lon="2.44768">
        <ele>471</ele>
        <time>2015-04-08T13:38:18Z</time>
      </trkpt>
      <trkpt lat="46.15364" lon="2.44768">
        <ele>471</ele>
        <time>2015-04-08T13:38:20Z</time>
      </trkpt>
      <trkpt lat="46.15361" lon="2.44768">
        <ele>470</ele>
        <time>2015-04-08T13:38:23Z</time>
      </trkpt>
      <trkpt lat="46.15359" lon="2.44769">
        <ele>470</ele>
        <time>2015-04-08T13:38:25Z</time>
      </trkpt>
      <trkpt lat="46.15358" lon="2.44768">
        <ele>470</ele>
        <time>2015-04-08T13:38:27Z</time>
      </trkpt>
      <trkpt lat="46.15356" lon="2.44766">
        <ele>469</ele>
        <time>2015-04-08T13:38:29Z</time>
      </trkpt>
      <trkpt lat="46.15354" lon="2.44764">
        <ele>469</ele>
        <time>2015-04-08T13:38:31Z</time>
      </trkpt>
      <trkpt lat="46.1535" lon="2.4476">
        <ele>469</ele>
        <time>2015-04-08T13:38:34Z</time>
      </trkpt>
      <trkpt lat="46.15348" lon="2.44758">
        <ele>469</ele>
        <time>2015-04-08T13:38:36Z</time>
      </trkpt>
      <trkpt lat="46.15345" lon="2.44755">
        <ele>469</ele>
        <time>2015-04-08T13:38:38Z</time>
      </trkpt>
      <trkpt lat="46.15343" lon="2.44753">
        <ele>469</ele>
        <time>2015-04-08T13:38:40Z</time>
      </trkpt>
      <trkpt lat="46.15341" lon="2.4475">
        <ele>469</ele>
        <time>2015-04-08T13:38:42Z</time>
      </trkpt>
      <trkpt lat="46.15338" lon="2.44746">
        <ele>469</ele>
        <time>2015-04-08T13:38:44Z</time>
      </trkpt>
      <trkpt lat="46.15335" lon="2.44743">
        <ele>469</ele>
        <time>2015-04-08T13:38:47Z</time>
      </trkpt>
      <trkpt lat="46.15334" lon="2.44741">
        <ele>469</ele>
        <time>2015-04-08T13:38:49Z</time>
      </trkpt>
      <trkpt lat="46.15332" lon="2.44737">
        <ele>469</ele>
        <time>2015-04-08T13:38:51Z</time>
      </trkpt>
      <trkpt lat="46.15329" lon="2.44733">
        <ele>469</ele>
        <time>2015-04-08T13:38:54Z</time>
      </trkpt>
      <trkpt lat="46.15327" lon="2.4473">
        <ele>469</ele>
        <time>2015-04-08T13:38:56Z</time>
      </trkpt>
      <trkpt lat="46.15325" lon="2.44728">
        <ele>469</ele>
        <time>2015-04-08T13:38:58Z</time>
      </trkpt>
      <trkpt lat="46.15323" lon="2.44725">
        <ele>469</ele>
        <time>2015-04-08T13:39:00Z</time>
      </trkpt>
      <trkpt lat="46.15321" lon="2.44723">
        <ele>469</ele>
        <time>2015-04-08T13:39:02Z</time>
      </trkpt>
      <trkpt lat="46.15319" lon="2.44721">
        <ele>469</ele>
        <time>2015-04-08T13:39:04Z</time>
      </trkpt>
      <trkpt lat="46.15316" lon="2.44718">
        <ele>469</ele>
        <time>2015-04-08T13:39:07Z</time>
      </trkpt>
      <trkpt lat="46.15314" lon="2.44715">
        <ele>469</ele>
        <time>2015-04-08T13:39:09Z</time>
      </trkpt>
      <trkpt lat="46.15311" lon="2.44711">
        <ele>469</ele>
        <time>2015-04-08T13:39:11Z</time>
      </trkpt>
      <trkpt lat="46.15307" lon="2.44706">
        <ele>470</ele>
        <time>2015-04-08T13:39:13Z</time>
      </trkpt>
      <trkpt lat="46.15305" lon="2.44702">
        <ele>472</ele>
        <time>2015-04-08T13:39:15Z</time>
      </trkpt>
      <trkpt lat="46.15302" lon="2.44698">
        <ele>474</ele>
        <time>2015-04-08T13:39:17Z</time>
      </trkpt>
      <trkpt lat="46.15298" lon="2.44694">
        <ele>477</ele>
        <time>2015-04-08T13:39:20Z</time>
      </trkpt>
      <trkpt lat="46.15295" lon="2.44691">
        <ele>478</ele>
        <time>2015-04-08T13:39:22Z</time>
      </trkpt>
      <trkpt lat="46.15293" lon="2.44687">
        <ele>479</ele>
        <time>2015-04-08T13:39:24Z</time>
      </trkpt>
      <trkpt lat="46.15292" lon="2.44684">
        <ele>480</ele>
        <time>2015-04-08T13:39:26Z</time>
      </trkpt>
      <trkpt lat="46.1529" lon="2.44682">
        <ele>481</ele>
        <time>2015-04-08T13:39:28Z</time>
      </trkpt>
      <trkpt lat="46.15287" lon="2.44678">
        <ele>482</ele>
        <time>2015-04-08T13:39:31Z</time>
      </trkpt>
      <trkpt lat="46.15284" lon="2.44676">
        <ele>482</ele>
        <time>2015-04-08T13:39:33Z</time>
      </trkpt>
      <trkpt lat="46.15282" lon="2.44675">
        <ele>482</ele>
        <time>2015-04-08T13:39:35Z</time>
      </trkpt>
      <trkpt lat="46.1528" lon="2.44673">
        <ele>482</ele>
        <time>2015-04-08T13:39:38Z</time>
      </trkpt>
      <trkpt lat="46.15277" lon="2.44671">
        <ele>482</ele>
        <time>2015-04-08T13:39:40Z</time>
      </trkpt>
      <trkpt lat="46.15274" lon="2.44668">
        <ele>482</ele>
        <time>2015-04-08T13:39:43Z</time>
      </trkpt>
      <trkpt lat="46.15271" lon="2.44666">
        <ele>482</ele>
        <time>2015-04-08T13:39:45Z</time>
      </trkpt>
      <trkpt lat="46.15269" lon="2.44665">
        <ele>482</ele>
        <time>2015-04-08T13:39:47Z</time>
      </trkpt>
      <trkpt lat="46.15267" lon="2.44662">
        <ele>482</ele>
        <time>2015-04-08T13:39:50Z</time>
      </trkpt>
      <trkpt lat="46.15265" lon="2.44661">
        <ele>482</ele>
        <time>2015-04-08T13:39:52Z</time>
      </trkpt>
      <trkpt lat="46.15262" lon="2.44657">
        <ele>482</ele>
        <time>2015-04-08T13:39:54Z</time>
      </trkpt>
      <trkpt lat="46.1526" lon="2.44655">
        <ele>482</ele>
        <time>2015-04-08T13:39:56Z</time>
      </trkpt>
      <trkpt lat="46.15258" lon="2.44654">
        <ele>482</ele>
        <time>2015-04-08T13:39:59Z</time>
      </trkpt>
      <trkpt lat="46.15257" lon="2.44653">
        <ele>483</ele>
        <time>2015-04-08T13:40:02Z</time>
      </trkpt>
      <trkpt lat="46.15255" lon="2.44652">
        <ele>483</ele>
        <time>2015-04-08T13:40:04Z</time>
      </trkpt>
      <trkpt lat="46.15252" lon="2.44652">
        <ele>483</ele>
        <time>2015-04-08T13:40:07Z</time>
      </trkpt>
      <trkpt lat="46.15249" lon="2.44651">
        <ele>483</ele>
        <time>2015-04-08T13:40:09Z</time>
      </trkpt>
      <trkpt lat="46.15245" lon="2.4465">
        <ele>483</ele>
        <time>2015-04-08T13:40:12Z</time>
      </trkpt>
      <trkpt lat="46.15242" lon="2.44649">
        <ele>483</ele>
        <time>2015-04-08T13:40:14Z</time>
      </trkpt>
      <trkpt lat="46.15239" lon="2.44649">
        <ele>483</ele>
        <time>2015-04-08T13:40:16Z</time>
      </trkpt>
      <trkpt lat="46.15237" lon="2.44649">
        <ele>482</ele>
        <time>2015-04-08T13:40:18Z</time>
      </trkpt>
      <trkpt lat="46.15234" lon="2.44648">
        <ele>481</ele>
        <time>2015-04-08T13:40:20Z</time>
      </trkpt>
      <trkpt lat="46.15232" lon="2.44648">
        <ele>480</ele>
        <time>2015-04-08T13:40:22Z</time>
      </trkpt>
      <trkpt lat="46.15229" lon="2.44648">
        <ele>479</ele>
        <time>2015-04-08T13:40:24Z</time>
      </trkpt>
      <trkpt lat="46.15227" lon="2.44647">
        <ele>476</ele>
        <time>2015-04-08T13:40:27Z</time>
      </trkpt>
      <trkpt lat="46.15224" lon="2.44646">
        <ele>476</ele>
        <time>2015-04-08T13:40:29Z</time>
      </trkpt>
      <trkpt lat="46.15222" lon="2.44644">
        <ele>476</ele>
        <time>2015-04-08T13:40:31Z</time>
      </trkpt>
      <trkpt lat="46.15218" lon="2.44641">
        <ele>475</ele>
        <time>2015-04-08T13:40:34Z</time>
      </trkpt>
      <trkpt lat="46.15216" lon="2.44641">
        <ele>474</ele>
        <time>2015-04-08T13:40:36Z</time>
      </trkpt>
      <trkpt lat="46.15212" lon="2.4464">
        <ele>473</ele>
        <time>2015-04-08T13:40:38Z</time>
      </trkpt>
      <trkpt lat="46.1521" lon="2.44639">
        <ele>472</ele>
        <time>2015-04-08T13:40:40Z</time>
      </trkpt>
      <trkpt lat="46.15207" lon="2.44637">
        <ele>471</ele>
        <time>2015-04-08T13:40:42Z</time>
      </trkpt>
      <trkpt lat="46.15204" lon="2.44635">
        <ele>470</ele>
        <time>2015-04-08T13:40:44Z</time>
      </trkpt>
      <trkpt lat="46.152" lon="2.44633">
        <ele>469</ele>
        <time>2015-04-08T13:40:46Z</time>
      </trkpt>
      <trkpt lat="46.15197" lon="2.44629">
        <ele>469</ele>
        <time>2015-04-08T13:40:48Z</time>
      </trkpt>
      <trkpt lat="46.15193" lon="2.44623">
        <ele>468</ele>
        <time>2015-04-08T13:40:50Z</time>
      </trkpt>
      <trkpt lat="46.1519" lon="2.4462">
        <ele>468</ele>
        <time>2015-04-08T13:40:52Z</time>
      </trkpt>
      <trkpt lat="46.15188" lon="2.44618">
        <ele>468</ele>
        <time>2015-04-08T13:40:54Z</time>
      </trkpt>
      <trkpt lat="46.15186" lon="2.44614">
        <ele>468</ele>
        <time>2015-04-08T13:40:56Z</time>
      </trkpt>
      <trkpt lat="46.15183" lon="2.44611">
        <ele>468</ele>
        <time>2015-04-08T13:40:58Z</time>
      </trkpt>
      <trkpt lat="46.1518" lon="2.44605">
        <ele>468</ele>
        <time>2015-04-08T13:41:01Z</time>
      </trkpt>
      <trkpt lat="46.15177" lon="2.44601">
        <ele>468</ele>
        <time>2015-04-08T13:41:03Z</time>
      </trkpt>
      <trkpt lat="46.15174" lon="2.44595">
        <ele>468</ele>
        <time>2015-04-08T13:41:05Z</time>
      </trkpt>
      <trkpt lat="46.15172" lon="2.4459">
        <ele>468</ele>
        <time>2015-04-08T13:41:07Z</time>
      </trkpt>
      <trkpt lat="46.15171" lon="2.44585">
        <ele>469</ele>
        <time>2015-04-08T13:41:09Z</time>
      </trkpt>
      <trkpt lat="46.15169" lon="2.44583">
        <ele>470</ele>
        <time>2015-04-08T13:41:11Z</time>
      </trkpt>
      <trkpt lat="46.15167" lon="2.44581">
        <ele>470</ele>
        <time>2015-04-08T13:41:13Z</time>
      </trkpt>
      <trkpt lat="46.15165" lon="2.44577">
        <ele>471</ele>
        <time>2015-04-08T13:41:15Z</time>
      </trkpt>
      <trkpt lat="46.15162" lon="2.44572">
        <ele>471</ele>
        <time>2015-04-08T13:41:17Z</time>
      </trkpt>
      <trkpt lat="46.15162" lon="2.44568">
        <ele>473</ele>
        <time>2015-04-08T13:41:19Z</time>
      </trkpt>
      <trkpt lat="46.1516" lon="2.44563">
        <ele>474</ele>
        <time>2015-04-08T13:41:21Z</time>
      </trkpt>
      <trkpt lat="46.15156" lon="2.44559">
        <ele>475</ele>
        <time>2015-04-08T13:41:24Z</time>
      </trkpt>
      <trkpt lat="46.15154" lon="2.44554">
        <ele>476</ele>
        <time>2015-04-08T13:41:26Z</time>
      </trkpt>
      <trkpt lat="46.15151" lon="2.4455">
        <ele>477</ele>
        <time>2015-04-08T13:41:28Z</time>
      </trkpt>
      <trkpt lat="46.15149" lon="2.44548">
        <ele>477</ele>
        <time>2015-04-08T13:41:30Z</time>
      </trkpt>
      <trkpt lat="46.15147" lon="2.44546">
        <ele>478</ele>
        <time>2015-04-08T13:41:32Z</time>
      </trkpt>
      <trkpt lat="46.15146" lon="2.44545">
        <ele>479</ele>
        <time>2015-04-08T13:41:36Z</time>
      </trkpt>
      <trkpt lat="46.15144" lon="2.44545">
        <ele>480</ele>
        <time>2015-04-08T13:41:38Z</time>
      </trkpt>
      <trkpt lat="46.15143" lon="2.44543">
        <ele>480</ele>
        <time>2015-04-08T13:41:43Z</time>
      </trkpt>
      <trkpt lat="46.15143" lon="2.44541">
        <ele>480</ele>
        <time>2015-04-08T13:41:45Z</time>
      </trkpt>
      <trkpt lat="46.15142" lon="2.4454">
        <ele>480</ele>
        <time>2015-04-08T13:41:47Z</time>
      </trkpt>
      <trkpt lat="46.1514" lon="2.44537">
        <ele>480</ele>
        <time>2015-04-08T13:41:49Z</time>
      </trkpt>
      <trkpt lat="46.15138" lon="2.44535">
        <ele>480</ele>
        <time>2015-04-08T13:41:51Z</time>
      </trkpt>
      <trkpt lat="46.15136" lon="2.44532">
        <ele>480</ele>
        <time>2015-04-08T13:41:54Z</time>
      </trkpt>
      <trkpt lat="46.15136" lon="2.44533">
        <ele>480</ele>
        <time>2015-04-08T13:42:00Z</time>
      </trkpt>
      <trkpt lat="46.15135" lon="2.44532">
        <ele>478</ele>
        <time>2015-04-08T13:42:12Z</time>
      </trkpt>
      <trkpt lat="46.15134" lon="2.4453">
        <ele>478</ele>
        <time>2015-04-08T13:42:14Z</time>
      </trkpt>
      <trkpt lat="46.15132" lon="2.4453">
        <ele>478</ele>
        <time>2015-04-08T13:42:16Z</time>
      </trkpt>
      <trkpt lat="46.15129" lon="2.44528">
        <ele>477</ele>
        <time>2015-04-08T13:42:19Z</time>
      </trkpt>
      <trkpt lat="46.15128" lon="2.44527">
        <ele>477</ele>
        <time>2015-04-08T13:42:21Z</time>
      </trkpt>
      <trkpt lat="46.15126" lon="2.44527">
        <ele>477</ele>
        <time>2015-04-08T13:42:23Z</time>
      </trkpt>
      <trkpt lat="46.15125" lon="2.44527">
        <ele>476</ele>
        <time>2015-04-08T13:42:27Z</time>
      </trkpt>
      <trkpt lat="46.15123" lon="2.44525">
        <ele>476</ele>
        <time>2015-04-08T13:42:32Z</time>
      </trkpt>
      <trkpt lat="46.15122" lon="2.44523">
        <ele>476</ele>
        <time>2015-04-08T13:42:34Z</time>
      </trkpt>
      <trkpt lat="46.15121" lon="2.44525">
        <ele>476</ele>
        <time>2015-04-08T13:42:38Z</time>
      </trkpt>
      <trkpt lat="46.1512" lon="2.44526">
        <ele>476</ele>
        <time>2015-04-08T13:42:45Z</time>
      </trkpt>
      <trkpt lat="46.15118" lon="2.44525">
        <ele>476</ele>
        <time>2015-04-08T13:42:48Z</time>
      </trkpt>
      <trkpt lat="46.15117" lon="2.44523">
        <ele>476</ele>
        <time>2015-04-08T13:42:50Z</time>
      </trkpt>
      <trkpt lat="46.15115" lon="2.44523">
        <ele>476</ele>
        <time>2015-04-08T13:42:55Z</time>
      </trkpt>
      <trkpt lat="46.15114" lon="2.44522">
        <ele>476</ele>
        <time>2015-04-08T13:42:58Z</time>
      </trkpt>
      <trkpt lat="46.15114" lon="2.4452">
        <ele>476</ele>
        <time>2015-04-08T13:43:01Z</time>
      </trkpt>
      <trkpt lat="46.15112" lon="2.44518">
        <ele>476</ele>
        <time>2015-04-08T13:43:04Z</time>
      </trkpt>
      <trkpt lat="46.15111" lon="2.44517">
        <ele>476</ele>
        <time>2015-04-08T13:43:07Z</time>
      </trkpt>
      <trkpt lat="46.15109" lon="2.44515">
        <ele>476</ele>
        <time>2015-04-08T13:43:09Z</time>
      </trkpt>
      <trkpt lat="46.15107" lon="2.44514">
        <ele>475</ele>
        <time>2015-04-08T13:43:11Z</time>
      </trkpt>
      <trkpt lat="46.15105" lon="2.44512">
        <ele>475</ele>
        <time>2015-04-08T13:43:13Z</time>
      </trkpt>
      <trkpt lat="46.15102" lon="2.44511">
        <ele>474</ele>
        <time>2015-04-08T13:43:15Z</time>
      </trkpt>
      <trkpt lat="46.151" lon="2.44508">
        <ele>474</ele>
        <time>2015-04-08T13:43:17Z</time>
      </trkpt>
      <trkpt lat="46.15096" lon="2.44506">
        <ele>474</ele>
        <time>2015-04-08T13:43:19Z</time>
      </trkpt>
      <trkpt lat="46.15094" lon="2.44506">
        <ele>474</ele>
        <time>2015-04-08T13:43:21Z</time>
      </trkpt>
      <trkpt lat="46.15092" lon="2.44505">
        <ele>474</ele>
        <time>2015-04-08T13:43:23Z</time>
      </trkpt>
      <trkpt lat="46.1509" lon="2.44505">
        <ele>474</ele>
        <time>2015-04-08T13:43:25Z</time>
      </trkpt>
      <trkpt lat="46.15088" lon="2.44505">
        <ele>474</ele>
        <time>2015-04-08T13:43:27Z</time>
      </trkpt>
      <trkpt lat="46.15086" lon="2.44504">
        <ele>474</ele>
        <time>2015-04-08T13:43:29Z</time>
      </trkpt>
      <trkpt lat="46.15082" lon="2.44504">
        <ele>473</ele>
        <time>2015-04-08T13:43:31Z</time>
      </trkpt>
      <trkpt lat="46.15079" lon="2.44504">
        <ele>472</ele>
        <time>2015-04-08T13:43:33Z</time>
      </trkpt>
      <trkpt lat="46.15076" lon="2.44503">
        <ele>472</ele>
        <time>2015-04-08T13:43:35Z</time>
      </trkpt>
      <trkpt lat="46.15073" lon="2.44501">
        <ele>472</ele>
        <time>2015-04-08T13:43:37Z</time>
      </trkpt>
      <trkpt lat="46.1507" lon="2.445">
        <ele>472</ele>
        <time>2015-04-08T13:43:39Z</time>
      </trkpt>
      <trkpt lat="46.15069" lon="2.445">
        <ele>472</ele>
        <time>2015-04-08T13:43:41Z</time>
      </trkpt>
      <trkpt lat="46.15069" lon="2.44498">
        <ele>472</ele>
        <time>2015-04-08T13:43:44Z</time>
      </trkpt>
      <trkpt lat="46.15067" lon="2.44497">
        <ele>472</ele>
        <time>2015-04-08T13:43:46Z</time>
      </trkpt>
      <trkpt lat="46.15065" lon="2.44498">
        <ele>472</ele>
        <time>2015-04-08T13:43:48Z</time>
      </trkpt>
      <trkpt lat="46.15062" lon="2.44499">
        <ele>472</ele>
        <time>2015-04-08T13:43:50Z</time>
      </trkpt>
      <trkpt lat="46.1506" lon="2.44501">
        <ele>472</ele>
        <time>2015-04-08T13:43:52Z</time>
      </trkpt>
      <trkpt lat="46.15057" lon="2.44501">
        <ele>472</ele>
        <time>2015-04-08T13:43:54Z</time>
      </trkpt>
      <trkpt lat="46.15053" lon="2.44501">
        <ele>472</ele>
        <time>2015-04-08T13:43:56Z</time>
      </trkpt>
      <trkpt lat="46.1505" lon="2.44502">
        <ele>472</ele>
        <time>2015-04-08T13:43:59Z</time>
      </trkpt>
      <trkpt lat="46.15047" lon="2.44503">
        <ele>472</ele>
        <time>2015-04-08T13:44:01Z</time>
      </trkpt>
      <trkpt lat="46.15044" lon="2.44503">
        <ele>472</ele>
        <time>2015-04-08T13:44:03Z</time>
      </trkpt>
      <trkpt lat="46.1504" lon="2.44503">
        <ele>472</ele>
        <time>2015-04-08T13:44:06Z</time>
      </trkpt>
      <trkpt lat="46.15038" lon="2.44504">
        <ele>472</ele>
        <time>2015-04-08T13:44:08Z</time>
      </trkpt>
      <trkpt lat="46.15035" lon="2.44504">
        <ele>472</ele>
        <time>2015-04-08T13:44:10Z</time>
      </trkpt>
      <trkpt lat="46.15031" lon="2.44504">
        <ele>472</ele>
        <time>2015-04-08T13:44:13Z</time>
      </trkpt>
      <trkpt lat="46.15028" lon="2.44507">
        <ele>472</ele>
        <time>2015-04-08T13:44:16Z</time>
      </trkpt>
      <trkpt lat="46.15025" lon="2.44508">
        <ele>472</ele>
        <time>2015-04-08T13:44:18Z</time>
      </trkpt>
      <trkpt lat="46.15022" lon="2.4451">
        <ele>472</ele>
        <time>2015-04-08T13:44:20Z</time>
      </trkpt>
      <trkpt lat="46.1502" lon="2.44511">
        <ele>472</ele>
        <time>2015-04-08T13:44:22Z</time>
      </trkpt>
      <trkpt lat="46.15017" lon="2.44512">
        <ele>472</ele>
        <time>2015-04-08T13:44:24Z</time>
      </trkpt>
      <trkpt lat="46.15014" lon="2.44514">
        <ele>472</ele>
        <time>2015-04-08T13:44:27Z</time>
      </trkpt>
      <trkpt lat="46.15011" lon="2.44515">
        <ele>472</ele>
        <time>2015-04-08T13:44:29Z</time>
      </trkpt>
      <trkpt lat="46.15008" lon="2.44517">
        <ele>472</ele>
        <time>2015-04-08T13:44:31Z</time>
      </trkpt>
      <trkpt lat="46.15005" lon="2.44518">
        <ele>472</ele>
        <time>2015-04-08T13:44:33Z</time>
      </trkpt>
      <trkpt lat="46.15002" lon="2.44519">
        <ele>472</ele>
        <time>2015-04-08T13:44:35Z</time>
      </trkpt>
      <trkpt lat="46.15" lon="2.44519">
        <ele>472</ele>
        <time>2015-04-08T13:44:37Z</time>
      </trkpt>
      <trkpt lat="46.14997" lon="2.4452">
        <ele>472</ele>
        <time>2015-04-08T13:44:39Z</time>
      </trkpt>
      <trkpt lat="46.14995" lon="2.44521">
        <ele>472</ele>
        <time>2015-04-08T13:44:41Z</time>
      </trkpt>
      <trkpt lat="46.14993" lon="2.4452">
        <ele>472</ele>
        <time>2015-04-08T13:44:43Z</time>
      </trkpt>
      <trkpt lat="46.14989" lon="2.44519">
        <ele>472</ele>
        <time>2015-04-08T13:44:46Z</time>
      </trkpt>
      <trkpt lat="46.14987" lon="2.4452">
        <ele>472</ele>
        <time>2015-04-08T13:44:48Z</time>
      </trkpt>
      <trkpt lat="46.14984" lon="2.44521">
        <ele>472</ele>
        <time>2015-04-08T13:44:50Z</time>
      </trkpt>
      <trkpt lat="46.14981" lon="2.44522">
        <ele>472</ele>
        <time>2015-04-08T13:44:52Z</time>
      </trkpt>
      <trkpt lat="46.14978" lon="2.44522">
        <ele>472</ele>
        <time>2015-04-08T13:44:54Z</time>
      </trkpt>
      <trkpt lat="46.14975" lon="2.44524">
        <ele>472</ele>
        <time>2015-04-08T13:44:56Z</time>
      </trkpt>
      <trkpt lat="46.14973" lon="2.44525">
        <ele>472</ele>
        <time>2015-04-08T13:44:58Z</time>
      </trkpt>
      <trkpt lat="46.1497" lon="2.44526">
        <ele>472</ele>
        <time>2015-04-08T13:45:00Z</time>
      </trkpt>
      <trkpt lat="46.14967" lon="2.44526">
        <ele>472</ele>
        <time>2015-04-08T13:45:02Z</time>
      </trkpt>
      <trkpt lat="46.14965" lon="2.44528">
        <ele>472</ele>
        <time>2015-04-08T13:45:04Z</time>
      </trkpt>
      <trkpt lat="46.14962" lon="2.4453">
        <ele>472</ele>
        <time>2015-04-08T13:45:06Z</time>
      </trkpt>
      <trkpt lat="46.14959" lon="2.44531">
        <ele>472</ele>
        <time>2015-04-08T13:45:08Z</time>
      </trkpt>
      <trkpt lat="46.14956" lon="2.44532">
        <ele>472</ele>
        <time>2015-04-08T13:45:10Z</time>
      </trkpt>
      <trkpt lat="46.14954" lon="2.44534">
        <ele>472</ele>
        <time>2015-04-08T13:45:12Z</time>
      </trkpt>
      <trkpt lat="46.14951" lon="2.44535">
        <ele>472</ele>
        <time>2015-04-08T13:45:14Z</time>
      </trkpt>
      <trkpt lat="46.14948" lon="2.44537">
        <ele>473</ele>
        <time>2015-04-08T13:45:16Z</time>
      </trkpt>
      <trkpt lat="46.14946" lon="2.44539">
        <ele>473</ele>
        <time>2015-04-08T13:45:18Z</time>
      </trkpt>
      <trkpt lat="46.14943" lon="2.44541">
        <ele>473</ele>
        <time>2015-04-08T13:45:20Z</time>
      </trkpt>
      <trkpt lat="46.14941" lon="2.44542">
        <ele>473</ele>
        <time>2015-04-08T13:45:22Z</time>
      </trkpt>
      <trkpt lat="46.14938" lon="2.44543">
        <ele>474</ele>
        <time>2015-04-08T13:45:24Z</time>
      </trkpt>
      <trkpt lat="46.14935" lon="2.44545">
        <ele>474</ele>
        <time>2015-04-08T13:45:26Z</time>
      </trkpt>
      <trkpt lat="46.14932" lon="2.44547">
        <ele>474</ele>
        <time>2015-04-08T13:45:28Z</time>
      </trkpt>
      <trkpt lat="46.1493" lon="2.44549">
        <ele>474</ele>
        <time>2015-04-08T13:45:30Z</time>
      </trkpt>
      <trkpt lat="46.14927" lon="2.44551">
        <ele>474</ele>
        <time>2015-04-08T13:45:32Z</time>
      </trkpt>
      <trkpt lat="46.14925" lon="2.44552">
        <ele>474</ele>
        <time>2015-04-08T13:45:34Z</time>
      </trkpt>
      <trkpt lat="46.14922" lon="2.44554">
        <ele>474</ele>
        <time>2015-04-08T13:45:36Z</time>
      </trkpt>
      <trkpt lat="46.14919" lon="2.44555">
        <ele>474</ele>
        <time>2015-04-08T13:45:39Z</time>
      </trkpt>
      <trkpt lat="46.14916" lon="2.44556">
        <ele>474</ele>
        <time>2015-04-08T13:45:41Z</time>
      </trkpt>
      <trkpt lat="46.14913" lon="2.44556">
        <ele>474</ele>
        <time>2015-04-08T13:45:43Z</time>
      </trkpt>
      <trkpt lat="46.14909" lon="2.44558">
        <ele>474</ele>
        <time>2015-04-08T13:45:46Z</time>
      </trkpt>
      <trkpt lat="46.14907" lon="2.44559">
        <ele>474</ele>
        <time>2015-04-08T13:45:48Z</time>
      </trkpt>
      <trkpt lat="46.14904" lon="2.44559">
        <ele>474</ele>
        <time>2015-04-08T13:45:50Z</time>
      </trkpt>
      <trkpt lat="46.14902" lon="2.44559">
        <ele>475</ele>
        <time>2015-04-08T13:45:52Z</time>
      </trkpt>
      <trkpt lat="46.14899" lon="2.4456">
        <ele>475</ele>
        <time>2015-04-08T13:45:54Z</time>
      </trkpt>
      <trkpt lat="46.14897" lon="2.4456">
        <ele>475</ele>
        <time>2015-04-08T13:45:56Z</time>
      </trkpt>
      <trkpt lat="46.14893" lon="2.4456">
        <ele>475</ele>
        <time>2015-04-08T13:45:59Z</time>
      </trkpt>
      <trkpt lat="46.14891" lon="2.4456">
        <ele>476</ele>
        <time>2015-04-08T13:46:01Z</time>
      </trkpt>
      <trkpt lat="46.14889" lon="2.4456">
        <ele>476</ele>
        <time>2015-04-08T13:46:03Z</time>
      </trkpt>
      <trkpt lat="46.14887" lon="2.4456">
        <ele>476</ele>
        <time>2015-04-08T13:46:05Z</time>
      </trkpt>
      <trkpt lat="46.14886" lon="2.44561">
        <ele>477</ele>
        <time>2015-04-08T13:46:08Z</time>
      </trkpt>
      <trkpt lat="46.14884" lon="2.44559">
        <ele>480</ele>
        <time>2015-04-08T13:46:17Z</time>
      </trkpt>
      <trkpt lat="46.14883" lon="2.44556">
        <ele>480</ele>
        <time>2015-04-08T13:46:19Z</time>
      </trkpt>
      <trkpt lat="46.14883" lon="2.44553">
        <ele>480</ele>
        <time>2015-04-08T13:46:21Z</time>
      </trkpt>
      <trkpt lat="46.14881" lon="2.44552">
        <ele>480</ele>
        <time>2015-04-08T13:46:24Z</time>
      </trkpt>
      <trkpt lat="46.1488" lon="2.44549">
        <ele>481</ele>
        <time>2015-04-08T13:46:30Z</time>
      </trkpt>
      <trkpt lat="46.1488" lon="2.44547">
        <ele>481</ele>
        <time>2015-04-08T13:46:32Z</time>
      </trkpt>
      <trkpt lat="46.14879" lon="2.44543">
        <ele>481</ele>
        <time>2015-04-08T13:46:35Z</time>
      </trkpt>
      <trkpt lat="46.14877" lon="2.4454">
        <ele>481</ele>
        <time>2015-04-08T13:46:37Z</time>
      </trkpt>
      <trkpt lat="46.14876" lon="2.44539">
        <ele>481</ele>
        <time>2015-04-08T13:46:39Z</time>
      </trkpt>
      <trkpt lat="46.14875" lon="2.44538">
        <ele>481</ele>
        <time>2015-04-08T13:46:41Z</time>
      </trkpt>
      <trkpt lat="46.14873" lon="2.44535">
        <ele>482</ele>
        <time>2015-04-08T13:46:45Z</time>
      </trkpt>
      <trkpt lat="46.14872" lon="2.44534">
        <ele>482</ele>
        <time>2015-04-08T13:46:47Z</time>
      </trkpt>
      <trkpt lat="46.14872" lon="2.44531">
        <ele>482</ele>
        <time>2015-04-08T13:46:49Z</time>
      </trkpt>
      <trkpt lat="46.1487" lon="2.44527">
        <ele>482</ele>
        <time>2015-04-08T13:46:51Z</time>
      </trkpt>
      <trkpt lat="46.1487" lon="2.44524">
        <ele>482</ele>
        <time>2015-04-08T13:46:53Z</time>
      </trkpt>
      <trkpt lat="46.14869" lon="2.44521">
        <ele>482</ele>
        <time>2015-04-08T13:46:55Z</time>
      </trkpt>
      <trkpt lat="46.14868" lon="2.44518">
        <ele>482</ele>
        <time>2015-04-08T13:46:57Z</time>
      </trkpt>
      <trkpt lat="46.14868" lon="2.44515">
        <ele>482</ele>
        <time>2015-04-08T13:46:59Z</time>
      </trkpt>
      <trkpt lat="46.14868" lon="2.44513">
        <ele>482</ele>
        <time>2015-04-08T13:47:01Z</time>
      </trkpt>
      <trkpt lat="46.14866" lon="2.44511">
        <ele>482</ele>
        <time>2015-04-08T13:47:03Z</time>
      </trkpt>
      <trkpt lat="46.14865" lon="2.44509">
        <ele>482</ele>
        <time>2015-04-08T13:47:05Z</time>
      </trkpt>
      <trkpt lat="46.14865" lon="2.44505">
        <ele>482</ele>
        <time>2015-04-08T13:47:07Z</time>
      </trkpt>
      <trkpt lat="46.14864" lon="2.445">
        <ele>482</ele>
        <time>2015-04-08T13:47:10Z</time>
      </trkpt>
      <trkpt lat="46.14864" lon="2.44497">
        <ele>482</ele>
        <time>2015-04-08T13:47:12Z</time>
      </trkpt>
      <trkpt lat="46.14865" lon="2.44493">
        <ele>484</ele>
        <time>2015-04-08T13:47:15Z</time>
      </trkpt>
      <trkpt lat="46.14864" lon="2.44492">
        <ele>486</ele>
        <time>2015-04-08T13:47:17Z</time>
      </trkpt>
      <trkpt lat="46.14863" lon="2.44489">
        <ele>487</ele>
        <time>2015-04-08T13:47:19Z</time>
      </trkpt>
      <trkpt lat="46.14862" lon="2.44483">
        <ele>487</ele>
        <time>2015-04-08T13:47:21Z</time>
      </trkpt>
      <trkpt lat="46.14861" lon="2.44478">
        <ele>487</ele>
        <time>2015-04-08T13:47:24Z</time>
      </trkpt>
      <trkpt lat="46.14859" lon="2.44474">
        <ele>487</ele>
        <time>2015-04-08T13:47:27Z</time>
      </trkpt>
      <trkpt lat="46.14858" lon="2.44471">
        <ele>487</ele>
        <time>2015-04-08T13:47:29Z</time>
      </trkpt>
      <trkpt lat="46.14857" lon="2.44466">
        <ele>487</ele>
        <time>2015-04-08T13:47:31Z</time>
      </trkpt>
      <trkpt lat="46.14855" lon="2.44462">
        <ele>487</ele>
        <time>2015-04-08T13:47:33Z</time>
      </trkpt>
      <trkpt lat="46.14854" lon="2.44459">
        <ele>487</ele>
        <time>2015-04-08T13:47:35Z</time>
      </trkpt>
      <trkpt lat="46.14852" lon="2.44456">
        <ele>487</ele>
        <time>2015-04-08T13:47:37Z</time>
      </trkpt>
      <trkpt lat="46.14851" lon="2.44452">
        <ele>487</ele>
        <time>2015-04-08T13:47:39Z</time>
      </trkpt>
      <trkpt lat="46.1485" lon="2.44448">
        <ele>487</ele>
        <time>2015-04-08T13:47:41Z</time>
      </trkpt>
      <trkpt lat="46.14849" lon="2.44445">
        <ele>487</ele>
        <time>2015-04-08T13:47:43Z</time>
      </trkpt>
      <trkpt lat="46.14848" lon="2.44442">
        <ele>487</ele>
        <time>2015-04-08T13:47:45Z</time>
      </trkpt>
      <trkpt lat="46.14849" lon="2.44439">
        <ele>487</ele>
        <time>2015-04-08T13:47:47Z</time>
      </trkpt>
      <trkpt lat="46.14848" lon="2.44435">
        <ele>487</ele>
        <time>2015-04-08T13:47:49Z</time>
      </trkpt>
      <trkpt lat="46.14847" lon="2.4443">
        <ele>487</ele>
        <time>2015-04-08T13:47:51Z</time>
      </trkpt>
      <trkpt lat="46.14848" lon="2.44426">
        <ele>487</ele>
        <time>2015-04-08T13:47:53Z</time>
      </trkpt>
      <trkpt lat="46.14846" lon="2.44422">
        <ele>487</ele>
        <time>2015-04-08T13:47:55Z</time>
      </trkpt>
      <trkpt lat="46.14845" lon="2.44418">
        <ele>487</ele>
        <time>2015-04-08T13:47:57Z</time>
      </trkpt>
      <trkpt lat="46.14843" lon="2.44413">
        <ele>487</ele>
        <time>2015-04-08T13:47:59Z</time>
      </trkpt>
      <trkpt lat="46.14842" lon="2.44408">
        <ele>487</ele>
        <time>2015-04-08T13:48:01Z</time>
      </trkpt>
      <trkpt lat="46.14842" lon="2.44403">
        <ele>487</ele>
        <time>2015-04-08T13:48:03Z</time>
      </trkpt>
      <trkpt lat="46.14841" lon="2.44398">
        <ele>487</ele>
        <time>2015-04-08T13:48:05Z</time>
      </trkpt>
      <trkpt lat="46.1484" lon="2.44394">
        <ele>487</ele>
        <time>2015-04-08T13:48:07Z</time>
      </trkpt>
      <trkpt lat="46.14838" lon="2.44391">
        <ele>487</ele>
        <time>2015-04-08T13:48:09Z</time>
      </trkpt>
      <trkpt lat="46.14837" lon="2.44386">
        <ele>487</ele>
        <time>2015-04-08T13:48:11Z</time>
      </trkpt>
      <trkpt lat="46.14836" lon="2.44382">
        <ele>487</ele>
        <time>2015-04-08T13:48:13Z</time>
      </trkpt>
      <trkpt lat="46.14834" lon="2.44378">
        <ele>487</ele>
        <time>2015-04-08T13:48:15Z</time>
      </trkpt>
      <trkpt lat="46.14833" lon="2.44374">
        <ele>487</ele>
        <time>2015-04-08T13:48:18Z</time>
      </trkpt>
      <trkpt lat="46.14831" lon="2.44371">
        <ele>487</ele>
        <time>2015-04-08T13:48:21Z</time>
      </trkpt>
      <trkpt lat="46.1483" lon="2.44368">
        <ele>487</ele>
        <time>2015-04-08T13:48:23Z</time>
      </trkpt>
      <trkpt lat="46.14829" lon="2.44365">
        <ele>487</ele>
        <time>2015-04-08T13:48:25Z</time>
      </trkpt>
      <trkpt lat="46.14827" lon="2.4436">
        <ele>487</ele>
        <time>2015-04-08T13:48:28Z</time>
      </trkpt>
      <trkpt lat="46.14827" lon="2.44359">
        <ele>487</ele>
        <time>2015-04-08T13:48:30Z</time>
      </trkpt>
      <trkpt lat="46.14826" lon="2.44355">
        <ele>487</ele>
        <time>2015-04-08T13:48:32Z</time>
      </trkpt>
      <trkpt lat="46.14825" lon="2.4435">
        <ele>487</ele>
        <time>2015-04-08T13:48:34Z</time>
      </trkpt>
      <trkpt lat="46.14825" lon="2.44346">
        <ele>487</ele>
        <time>2015-04-08T13:48:36Z</time>
      </trkpt>
      <trkpt lat="46.14825" lon="2.44342">
        <ele>487</ele>
        <time>2015-04-08T13:48:38Z</time>
      </trkpt>
      <trkpt lat="46.14825" lon="2.44339">
        <ele>487</ele>
        <time>2015-04-08T13:48:40Z</time>
      </trkpt>
      <trkpt lat="46.14823" lon="2.44335">
        <ele>487</ele>
        <time>2015-04-08T13:48:42Z</time>
      </trkpt>
      <trkpt lat="46.14821" lon="2.44331">
        <ele>487</ele>
        <time>2015-04-08T13:48:44Z</time>
      </trkpt>
      <trkpt lat="46.14819" lon="2.44326">
        <ele>487</ele>
        <time>2015-04-08T13:48:47Z</time>
      </trkpt>
      <trkpt lat="46.14818" lon="2.44322">
        <ele>487</ele>
        <time>2015-04-08T13:48:49Z</time>
      </trkpt>
      <trkpt lat="46.14818" lon="2.44318">
        <ele>487</ele>
        <time>2015-04-08T13:48:52Z</time>
      </trkpt>
      <trkpt lat="46.14816" lon="2.44313">
        <ele>487</ele>
        <time>2015-04-08T13:48:55Z</time>
      </trkpt>
      <trkpt lat="46.14815" lon="2.4431">
        <ele>487</ele>
        <time>2015-04-08T13:48:57Z</time>
      </trkpt>
      <trkpt lat="46.14814" lon="2.44307">
        <ele>487</ele>
        <time>2015-04-08T13:48:59Z</time>
      </trkpt>
      <trkpt lat="46.14812" lon="2.44303">
        <ele>487</ele>
        <time>2015-04-08T13:49:02Z</time>
      </trkpt>
      <trkpt lat="46.14811" lon="2.44299">
        <ele>487</ele>
        <time>2015-04-08T13:49:04Z</time>
      </trkpt>
      <trkpt lat="46.1481" lon="2.44296">
        <ele>487</ele>
        <time>2015-04-08T13:49:06Z</time>
      </trkpt>
      <trkpt lat="46.14809" lon="2.44292">
        <ele>487</ele>
        <time>2015-04-08T13:49:08Z</time>
      </trkpt>
      <trkpt lat="46.14808" lon="2.44289">
        <ele>487</ele>
        <time>2015-04-08T13:49:10Z</time>
      </trkpt>
      <trkpt lat="46.14808" lon="2.44286">
        <ele>487</ele>
        <time>2015-04-08T13:49:12Z</time>
      </trkpt>
      <trkpt lat="46.14808" lon="2.44282">
        <ele>487</ele>
        <time>2015-04-08T13:49:15Z</time>
      </trkpt>
      <trkpt lat="46.14808" lon="2.44278">
        <ele>487</ele>
        <time>2015-04-08T13:49:18Z</time>
      </trkpt>
      <trkpt lat="46.14807" lon="2.44275">
        <ele>487</ele>
        <time>2015-04-08T13:49:20Z</time>
      </trkpt>
      <trkpt lat="46.14808" lon="2.44271">
        <ele>487</ele>
        <time>2015-04-08T13:49:22Z</time>
      </trkpt>
      <trkpt lat="46.14809" lon="2.44266">
        <ele>488</ele>
        <time>2015-04-08T13:49:25Z</time>
      </trkpt>
      <trkpt lat="46.14808" lon="2.44263">
        <ele>489</ele>
        <time>2015-04-08T13:49:27Z</time>
      </trkpt>
      <trkpt lat="46.14806" lon="2.4426">
        <ele>490</ele>
        <time>2015-04-08T13:49:29Z</time>
      </trkpt>
      <trkpt lat="46.14804" lon="2.44256">
        <ele>491</ele>
        <time>2015-04-08T13:49:31Z</time>
      </trkpt>
      <trkpt lat="46.14803" lon="2.44252">
        <ele>491</ele>
        <time>2015-04-08T13:49:33Z</time>
      </trkpt>
      <trkpt lat="46.14802" lon="2.4425">
        <ele>491</ele>
        <time>2015-04-08T13:49:35Z</time>
      </trkpt>
      <trkpt lat="46.14801" lon="2.44247">
        <ele>491</ele>
        <time>2015-04-08T13:49:37Z</time>
      </trkpt>
      <trkpt lat="46.14799" lon="2.44243">
        <ele>492</ele>
        <time>2015-04-08T13:49:39Z</time>
      </trkpt>
      <trkpt lat="46.14798" lon="2.44239">
        <ele>492</ele>
        <time>2015-04-08T13:49:41Z</time>
      </trkpt>
      <trkpt lat="46.14797" lon="2.44236">
        <ele>492</ele>
        <time>2015-04-08T13:49:43Z</time>
      </trkpt>
      <trkpt lat="46.14797" lon="2.44232">
        <ele>492</ele>
        <time>2015-04-08T13:49:45Z</time>
      </trkpt>
      <trkpt lat="46.14796" lon="2.44228">
        <ele>492</ele>
        <time>2015-04-08T13:49:48Z</time>
      </trkpt>
      <trkpt lat="46.14795" lon="2.44225">
        <ele>492</ele>
        <time>2015-04-08T13:49:50Z</time>
      </trkpt>
      <trkpt lat="46.14795" lon="2.4422">
        <ele>492</ele>
        <time>2015-04-08T13:49:53Z</time>
      </trkpt>
      <trkpt lat="46.14795" lon="2.44218">
        <ele>492</ele>
        <time>2015-04-08T13:49:55Z</time>
      </trkpt>
      <trkpt lat="46.14796" lon="2.44216">
        <ele>492</ele>
        <time>2015-04-08T13:49:57Z</time>
      </trkpt>
      <trkpt lat="46.14797" lon="2.44213">
        <ele>492</ele>
        <time>2015-04-08T13:49:59Z</time>
      </trkpt>
      <trkpt lat="46.14797" lon="2.44211">
        <ele>492</ele>
        <time>2015-04-08T13:50:01Z</time>
      </trkpt>
      <trkpt lat="46.14796" lon="2.44207">
        <ele>492</ele>
        <time>2015-04-08T13:50:04Z</time>
      </trkpt>
      <trkpt lat="46.14795" lon="2.44202">
        <ele>492</ele>
        <time>2015-04-08T13:50:06Z</time>
      </trkpt>
      <trkpt lat="46.14794" lon="2.44199">
        <ele>492</ele>
        <time>2015-04-08T13:50:08Z</time>
      </trkpt>
      <trkpt lat="46.14793" lon="2.44196">
        <ele>492</ele>
        <time>2015-04-08T13:50:10Z</time>
      </trkpt>
      <trkpt lat="46.14791" lon="2.44192">
        <ele>492</ele>
        <time>2015-04-08T13:50:13Z</time>
      </trkpt>
      <trkpt lat="46.1479" lon="2.44189">
        <ele>492</ele>
        <time>2015-04-08T13:50:15Z</time>
      </trkpt>
      <trkpt lat="46.14789" lon="2.44188">
        <ele>492</ele>
        <time>2015-04-08T13:50:17Z</time>
      </trkpt>
      <trkpt lat="46.14788" lon="2.44185">
        <ele>492</ele>
        <time>2015-04-08T13:50:20Z</time>
      </trkpt>
      <trkpt lat="46.14788" lon="2.44182">
        <ele>492</ele>
        <time>2015-04-08T13:50:22Z</time>
      </trkpt>
      <trkpt lat="46.14788" lon="2.4418">
        <ele>492</ele>
        <time>2015-04-08T13:50:25Z</time>
      </trkpt>
      <trkpt lat="46.14787" lon="2.44178">
        <ele>492</ele>
        <time>2015-04-08T13:50:27Z</time>
      </trkpt>
      <trkpt lat="46.14786" lon="2.44174">
        <ele>492</ele>
        <time>2015-04-08T13:50:29Z</time>
      </trkpt>
      <trkpt lat="46.14784" lon="2.44172">
        <ele>492</ele>
        <time>2015-04-08T13:50:31Z</time>
      </trkpt>
      <trkpt lat="46.14782" lon="2.44168">
        <ele>492</ele>
        <time>2015-04-08T13:50:34Z</time>
      </trkpt>
      <trkpt lat="46.14778" lon="2.44163">
        <ele>492</ele>
        <time>2015-04-08T13:50:37Z</time>
      </trkpt>
      <trkpt lat="46.14775" lon="2.44159">
        <ele>492</ele>
        <time>2015-04-08T13:50:39Z</time>
      </trkpt>
      <trkpt lat="46.14772" lon="2.44156">
        <ele>491</ele>
        <time>2015-04-08T13:50:41Z</time>
      </trkpt>
      <trkpt lat="46.14771" lon="2.44151">
        <ele>491</ele>
        <time>2015-04-08T13:50:43Z</time>
      </trkpt>
      <trkpt lat="46.14768" lon="2.44149">
        <ele>491</ele>
        <time>2015-04-08T13:50:45Z</time>
      </trkpt>
      <trkpt lat="46.14764" lon="2.44147">
        <ele>490</ele>
        <time>2015-04-08T13:50:47Z</time>
      </trkpt>
      <trkpt lat="46.14761" lon="2.44145">
        <ele>490</ele>
        <time>2015-04-08T13:50:50Z</time>
      </trkpt>
      <trkpt lat="46.14759" lon="2.44142">
        <ele>490</ele>
        <time>2015-04-08T13:50:52Z</time>
      </trkpt>
      <trkpt lat="46.14756" lon="2.4414">
        <ele>490</ele>
        <time>2015-04-08T13:50:55Z</time>
      </trkpt>
      <trkpt lat="46.14755" lon="2.44138">
        <ele>490</ele>
        <time>2015-04-08T13:50:57Z</time>
      </trkpt>
      <trkpt lat="46.14752" lon="2.44134">
        <ele>490</ele>
        <time>2015-04-08T13:51:00Z</time>
      </trkpt>
      <trkpt lat="46.1475" lon="2.44133">
        <ele>490</ele>
        <time>2015-04-08T13:51:02Z</time>
      </trkpt>
      <trkpt lat="46.14749" lon="2.44131">
        <ele>490</ele>
        <time>2015-04-08T13:51:04Z</time>
      </trkpt>
      <trkpt lat="46.14747" lon="2.4413">
        <ele>490</ele>
        <time>2015-04-08T13:51:06Z</time>
      </trkpt>
      <trkpt lat="46.14745" lon="2.44128">
        <ele>489</ele>
        <time>2015-04-08T13:51:08Z</time>
      </trkpt>
      <trkpt lat="46.14745" lon="2.44127">
        <ele>489</ele>
        <time>2015-04-08T13:51:10Z</time>
      </trkpt>
      <trkpt lat="46.14742" lon="2.44125">
        <ele>489</ele>
        <time>2015-04-08T13:51:12Z</time>
      </trkpt>
      <trkpt lat="46.14739" lon="2.44122">
        <ele>489</ele>
        <time>2015-04-08T13:51:14Z</time>
      </trkpt>
      <trkpt lat="46.14736" lon="2.44121">
        <ele>489</ele>
        <time>2015-04-08T13:51:17Z</time>
      </trkpt>
      <trkpt lat="46.14735" lon="2.44119">
        <ele>489</ele>
        <time>2015-04-08T13:51:19Z</time>
      </trkpt>
      <trkpt lat="46.14734" lon="2.44117">
        <ele>489</ele>
        <time>2015-04-08T13:51:21Z</time>
      </trkpt>
      <trkpt lat="46.14732" lon="2.44114">
        <ele>489</ele>
        <time>2015-04-08T13:51:23Z</time>
      </trkpt>
      <trkpt lat="46.14731" lon="2.44111">
        <ele>489</ele>
        <time>2015-04-08T13:51:25Z</time>
      </trkpt>
      <trkpt lat="46.14729" lon="2.44108">
        <ele>489</ele>
        <time>2015-04-08T13:51:27Z</time>
      </trkpt>
      <trkpt lat="46.14728" lon="2.44103">
        <ele>489</ele>
        <time>2015-04-08T13:51:29Z</time>
      </trkpt>
      <trkpt lat="46.14727" lon="2.44099">
        <ele>489</ele>
        <time>2015-04-08T13:51:31Z</time>
      </trkpt>
      <trkpt lat="46.14725" lon="2.44093">
        <ele>490</ele>
        <time>2015-04-08T13:51:33Z</time>
      </trkpt>
      <trkpt lat="46.14724" lon="2.4409">
        <ele>491</ele>
        <time>2015-04-08T13:51:35Z</time>
      </trkpt>
      <trkpt lat="46.14724" lon="2.44086">
        <ele>493</ele>
        <time>2015-04-08T13:51:37Z</time>
      </trkpt>
      <trkpt lat="46.14722" lon="2.44083">
        <ele>495</ele>
        <time>2015-04-08T13:51:39Z</time>
      </trkpt>
      <trkpt lat="46.14722" lon="2.4408">
        <ele>496</ele>
        <time>2015-04-08T13:51:41Z</time>
      </trkpt>
      <trkpt lat="46.1472" lon="2.44076">
        <ele>497</ele>
        <time>2015-04-08T13:51:43Z</time>
      </trkpt>
      <trkpt lat="46.14719" lon="2.44073">
        <ele>497</ele>
        <time>2015-04-08T13:51:45Z</time>
      </trkpt>
      <trkpt lat="46.14718" lon="2.4407">
        <ele>497</ele>
        <time>2015-04-08T13:51:47Z</time>
      </trkpt>
      <trkpt lat="46.14717" lon="2.44067">
        <ele>498</ele>
        <time>2015-04-08T13:51:50Z</time>
      </trkpt>
      <trkpt lat="46.14716" lon="2.44064">
        <ele>499</ele>
        <time>2015-04-08T13:51:52Z</time>
      </trkpt>
      <trkpt lat="46.14714" lon="2.4406">
        <ele>499</ele>
        <time>2015-04-08T13:51:55Z</time>
      </trkpt>
      <trkpt lat="46.14714" lon="2.44057">
        <ele>499</ele>
        <time>2015-04-08T13:51:57Z</time>
      </trkpt>
      <trkpt lat="46.14714" lon="2.44055">
        <ele>499</ele>
        <time>2015-04-08T13:51:59Z</time>
      </trkpt>
      <trkpt lat="46.14713" lon="2.44052">
        <ele>499</ele>
        <time>2015-04-08T13:52:01Z</time>
      </trkpt>
      <trkpt lat="46.14713" lon="2.44049">
        <ele>499</ele>
        <time>2015-04-08T13:52:03Z</time>
      </trkpt>
      <trkpt lat="46.14713" lon="2.44045">
        <ele>499</ele>
        <time>2015-04-08T13:52:05Z</time>
      </trkpt>
      <trkpt lat="46.14712" lon="2.44042">
        <ele>499</ele>
        <time>2015-04-08T13:52:07Z</time>
      </trkpt>
      <trkpt lat="46.14711" lon="2.44039">
        <ele>499</ele>
        <time>2015-04-08T13:52:09Z</time>
      </trkpt>
      <trkpt lat="46.14711" lon="2.44036">
        <ele>499</ele>
        <time>2015-04-08T13:52:11Z</time>
      </trkpt>
      <trkpt lat="46.1471" lon="2.44031">
        <ele>500</ele>
        <time>2015-04-08T13:52:14Z</time>
      </trkpt>
      <trkpt lat="46.14709" lon="2.44027">
        <ele>500</ele>
        <time>2015-04-08T13:52:16Z</time>
      </trkpt>
      <trkpt lat="46.14709" lon="2.44024">
        <ele>500</ele>
        <time>2015-04-08T13:52:18Z</time>
      </trkpt>
      <trkpt lat="46.14709" lon="2.44021">
        <ele>500</ele>
        <time>2015-04-08T13:52:20Z</time>
      </trkpt>
      <trkpt lat="46.14709" lon="2.44017">
        <ele>501</ele>
        <time>2015-04-08T13:52:22Z</time>
      </trkpt>
      <trkpt lat="46.14709" lon="2.44013">
        <ele>501</ele>
        <time>2015-04-08T13:52:24Z</time>
      </trkpt>
      <trkpt lat="46.14708" lon="2.44009">
        <ele>501</ele>
        <time>2015-04-08T13:52:26Z</time>
      </trkpt>
      <trkpt lat="46.14707" lon="2.44006">
        <ele>501</ele>
        <time>2015-04-08T13:52:28Z</time>
      </trkpt>
      <trkpt lat="46.14706" lon="2.44003">
        <ele>501</ele>
        <time>2015-04-08T13:52:30Z</time>
      </trkpt>
      <trkpt lat="46.14705" lon="2.43999">
        <ele>501</ele>
        <time>2015-04-08T13:52:32Z</time>
      </trkpt>
      <trkpt lat="46.14704" lon="2.43995">
        <ele>501</ele>
        <time>2015-04-08T13:52:34Z</time>
      </trkpt>
      <trkpt lat="46.14704" lon="2.4399">
        <ele>501</ele>
        <time>2015-04-08T13:52:37Z</time>
      </trkpt>
      <trkpt lat="46.14703" lon="2.43987">
        <ele>501</ele>
        <time>2015-04-08T13:52:39Z</time>
      </trkpt>
      <trkpt lat="46.14703" lon="2.43984">
        <ele>501</ele>
        <time>2015-04-08T13:52:41Z</time>
      </trkpt>
      <trkpt lat="46.14703" lon="2.4398">
        <ele>501</ele>
        <time>2015-04-08T13:52:43Z</time>
      </trkpt>
      <trkpt lat="46.14703" lon="2.43976">
        <ele>501</ele>
        <time>2015-04-08T13:52:45Z</time>
      </trkpt>
      <trkpt lat="46.14703" lon="2.43972">
        <ele>501</ele>
        <time>2015-04-08T13:52:47Z</time>
      </trkpt>
      <trkpt lat="46.14702" lon="2.43967">
        <ele>502</ele>
        <time>2015-04-08T13:52:49Z</time>
      </trkpt>
      <trkpt lat="46.14702" lon="2.43964">
        <ele>502</ele>
        <time>2015-04-08T13:52:51Z</time>
      </trkpt>
      <trkpt lat="46.14702" lon="2.4396">
        <ele>503</ele>
        <time>2015-04-08T13:52:53Z</time>
      </trkpt>
      <trkpt lat="46.14702" lon="2.43956">
        <ele>503</ele>
        <time>2015-04-08T13:52:55Z</time>
      </trkpt>
      <trkpt lat="46.14703" lon="2.43951">
        <ele>503</ele>
        <time>2015-04-08T13:52:58Z</time>
      </trkpt>
      <trkpt lat="46.14703" lon="2.43947">
        <ele>503</ele>
        <time>2015-04-08T13:53:00Z</time>
      </trkpt>
      <trkpt lat="46.14705" lon="2.43942">
        <ele>503</ele>
        <time>2015-04-08T13:53:02Z</time>
      </trkpt>
      <trkpt lat="46.14706" lon="2.43939">
        <ele>503</ele>
        <time>2015-04-08T13:53:04Z</time>
      </trkpt>
      <trkpt lat="46.14708" lon="2.43934">
        <ele>504</ele>
        <time>2015-04-08T13:53:06Z</time>
      </trkpt>
      <trkpt lat="46.14709" lon="2.4393">
        <ele>504</ele>
        <time>2015-04-08T13:53:08Z</time>
      </trkpt>
      <trkpt lat="46.14709" lon="2.43926">
        <ele>504</ele>
        <time>2015-04-08T13:53:10Z</time>
      </trkpt>
      <trkpt lat="46.14709" lon="2.43922">
        <ele>504</ele>
        <time>2015-04-08T13:53:12Z</time>
      </trkpt>
      <trkpt lat="46.14709" lon="2.43918">
        <ele>504</ele>
        <time>2015-04-08T13:53:14Z</time>
      </trkpt>
      <trkpt lat="46.14709" lon="2.43915">
        <ele>504</ele>
        <time>2015-04-08T13:53:16Z</time>
      </trkpt>
      <trkpt lat="46.1471" lon="2.43913">
        <ele>504</ele>
        <time>2015-04-08T13:53:18Z</time>
      </trkpt>
      <trkpt lat="46.1471" lon="2.43909">
        <ele>504</ele>
        <time>2015-04-08T13:53:20Z</time>
      </trkpt>
      <trkpt lat="46.14711" lon="2.43906">
        <ele>504</ele>
        <time>2015-04-08T13:53:22Z</time>
      </trkpt>
      <trkpt lat="46.14711" lon="2.43902">
        <ele>504</ele>
        <time>2015-04-08T13:53:24Z</time>
      </trkpt>
      <trkpt lat="46.1471" lon="2.43898">
        <ele>504</ele>
        <time>2015-04-08T13:53:26Z</time>
      </trkpt>
      <trkpt lat="46.14711" lon="2.43894">
        <ele>504</ele>
        <time>2015-04-08T13:53:29Z</time>
      </trkpt>
      <trkpt lat="46.14711" lon="2.43892">
        <ele>505</ele>
        <time>2015-04-08T13:53:32Z</time>
      </trkpt>
      <trkpt lat="46.1471" lon="2.43893">
        <ele>505</ele>
        <time>2015-04-08T13:53:37Z</time>
      </trkpt>
      <trkpt lat="46.14708" lon="2.43894">
        <ele>505</ele>
        <time>2015-04-08T13:53:41Z</time>
      </trkpt>
      <trkpt lat="46.14707" lon="2.43892">
        <ele>505</ele>
        <time>2015-04-08T13:53:43Z</time>
      </trkpt>
      <trkpt lat="46.14707" lon="2.43889">
        <ele>505</ele>
        <time>2015-04-08T13:53:45Z</time>
      </trkpt>
      <trkpt lat="46.14707" lon="2.43887">
        <ele>505</ele>
        <time>2015-04-08T13:53:47Z</time>
      </trkpt>
      <trkpt lat="46.14706" lon="2.43885">
        <ele>505</ele>
        <time>2015-04-08T13:53:50Z</time>
      </trkpt>
      <trkpt lat="46.14708" lon="2.43884">
        <ele>505</ele>
        <time>2015-04-08T13:53:55Z</time>
      </trkpt>
      <trkpt lat="46.14709" lon="2.43884">
        <ele>509</ele>
        <time>2015-04-08T13:54:00Z</time>
      </trkpt>
      <trkpt lat="46.14711" lon="2.43884">
        <ele>512</ele>
        <time>2015-04-08T13:54:03Z</time>
      </trkpt>
      <trkpt lat="46.14712" lon="2.43884">
        <ele>514</ele>
        <time>2015-04-08T13:54:06Z</time>
      </trkpt>
      <trkpt lat="46.14713" lon="2.43882">
        <ele>517</ele>
        <time>2015-04-08T13:54:11Z</time>
      </trkpt>
      <trkpt lat="46.14712" lon="2.43879">
        <ele>518</ele>
        <time>2015-04-08T13:54:13Z</time>
      </trkpt>
      <trkpt lat="46.14711" lon="2.43875">
        <ele>518</ele>
        <time>2015-04-08T13:54:15Z</time>
      </trkpt>
      <trkpt lat="46.14711" lon="2.43872">
        <ele>518</ele>
        <time>2015-04-08T13:54:17Z</time>
      </trkpt>
      <trkpt lat="46.1471" lon="2.43869">
        <ele>518</ele>
        <time>2015-04-08T13:54:19Z</time>
      </trkpt>
      <trkpt lat="46.14709" lon="2.43868">
        <ele>518</ele>
        <time>2015-04-08T13:54:21Z</time>
      </trkpt>
      <trkpt lat="46.14709" lon="2.4387">
        <ele>518</ele>
        <time>2015-04-08T13:54:26Z</time>
      </trkpt>
      <trkpt lat="46.14709" lon="2.43873">
        <ele>518</ele>
        <time>2015-04-08T13:54:28Z</time>
      </trkpt>
      <trkpt lat="46.14709" lon="2.43874">
        <ele>518</ele>
        <time>2015-04-08T13:54:30Z</time>
      </trkpt>
      <trkpt lat="46.1471" lon="2.43877">
        <ele>518</ele>
        <time>2015-04-08T13:54:38Z</time>
      </trkpt>
      <trkpt lat="46.1471" lon="2.43879">
        <ele>518</ele>
        <time>2015-04-08T13:54:40Z</time>
      </trkpt>
      <trkpt lat="46.1471" lon="2.43882">
        <ele>517</ele>
        <time>2015-04-08T13:54:42Z</time>
      </trkpt>
      <trkpt lat="46.14713" lon="2.43883">
        <ele>517</ele>
        <time>2015-04-08T13:54:44Z</time>
      </trkpt>
      <trkpt lat="46.14715" lon="2.43884">
        <ele>517</ele>
        <time>2015-04-08T13:54:46Z</time>
      </trkpt>
      <trkpt lat="46.14719" lon="2.43885">
        <ele>517</ele>
        <time>2015-04-08T13:54:48Z</time>
      </trkpt>
      <trkpt lat="46.14722" lon="2.43885">
        <ele>517</ele>
        <time>2015-04-08T13:54:50Z</time>
      </trkpt>
      <trkpt lat="46.14724" lon="2.43886">
        <ele>517</ele>
        <time>2015-04-08T13:54:52Z</time>
      </trkpt>
      <trkpt lat="46.14727" lon="2.43886">
        <ele>517</ele>
        <time>2015-04-08T13:54:54Z</time>
      </trkpt>
      <trkpt lat="46.14729" lon="2.43886">
        <ele>517</ele>
        <time>2015-04-08T13:54:56Z</time>
      </trkpt>
      <trkpt lat="46.14732" lon="2.43886">
        <ele>517</ele>
        <time>2015-04-08T13:54:58Z</time>
      </trkpt>
      <trkpt lat="46.14735" lon="2.43888">
        <ele>517</ele>
        <time>2015-04-08T13:55:00Z</time>
      </trkpt>
      <trkpt lat="46.14737" lon="2.43887">
        <ele>517</ele>
        <time>2015-04-08T13:55:02Z</time>
      </trkpt>
      <trkpt lat="46.14739" lon="2.43885">
        <ele>517</ele>
        <time>2015-04-08T13:55:04Z</time>
      </trkpt>
      <trkpt lat="46.14742" lon="2.43884">
        <ele>517</ele>
        <time>2015-04-08T13:55:06Z</time>
      </trkpt>
      <trkpt lat="46.14744" lon="2.43882">
        <ele>517</ele>
        <time>2015-04-08T13:55:08Z</time>
      </trkpt>
      <trkpt lat="46.14746" lon="2.43883">
        <ele>517</ele>
        <time>2015-04-08T13:55:10Z</time>
      </trkpt>
      <trkpt lat="46.1475" lon="2.43883">
        <ele>517</ele>
        <time>2015-04-08T13:55:12Z</time>
      </trkpt>
      <trkpt lat="46.14752" lon="2.43882">
        <ele>517</ele>
        <time>2015-04-08T13:55:14Z</time>
      </trkpt>
      <trkpt lat="46.14754" lon="2.4388">
        <ele>517</ele>
        <time>2015-04-08T13:55:16Z</time>
      </trkpt>
      <trkpt lat="46.14757" lon="2.43879">
        <ele>517</ele>
        <time>2015-04-08T13:55:18Z</time>
      </trkpt>
      <trkpt lat="46.14759" lon="2.43878">
        <ele>517</ele>
        <time>2015-04-08T13:55:20Z</time>
      </trkpt>
      <trkpt lat="46.14761" lon="2.43876">
        <ele>517</ele>
        <time>2015-04-08T13:55:22Z</time>
      </trkpt>
      <trkpt lat="46.14764" lon="2.43875">
        <ele>517</ele>
        <time>2015-04-08T13:55:24Z</time>
      </trkpt>
      <trkpt lat="46.14767" lon="2.43872">
        <ele>517</ele>
        <time>2015-04-08T13:55:27Z</time>
      </trkpt>
      <trkpt lat="46.14769" lon="2.4387">
        <ele>517</ele>
        <time>2015-04-08T13:55:29Z</time>
      </trkpt>
      <trkpt lat="46.14772" lon="2.43869">
        <ele>517</ele>
        <time>2015-04-08T13:55:31Z</time>
      </trkpt>
      <trkpt lat="46.14774" lon="2.43868">
        <ele>517</ele>
        <time>2015-04-08T13:55:33Z</time>
      </trkpt>
      <trkpt lat="46.14779" lon="2.43867">
        <ele>517</ele>
        <time>2015-04-08T13:55:35Z</time>
      </trkpt>
      <trkpt lat="46.14782" lon="2.43867">
        <ele>517</ele>
        <time>2015-04-08T13:55:37Z</time>
      </trkpt>
      <trkpt lat="46.14784" lon="2.43866">
        <ele>517</ele>
        <time>2015-04-08T13:55:39Z</time>
      </trkpt>
      <trkpt lat="46.14787" lon="2.43866">
        <ele>517</ele>
        <time>2015-04-08T13:55:41Z</time>
      </trkpt>
      <trkpt lat="46.1479" lon="2.43866">
        <ele>517</ele>
        <time>2015-04-08T13:55:43Z</time>
      </trkpt>
      <trkpt lat="46.14792" lon="2.43866">
        <ele>517</ele>
        <time>2015-04-08T13:55:45Z</time>
      </trkpt>
      <trkpt lat="46.14795" lon="2.43866">
        <ele>517</ele>
        <time>2015-04-08T13:55:47Z</time>
      </trkpt>
      <trkpt lat="46.14797" lon="2.43864">
        <ele>517</ele>
        <time>2015-04-08T13:55:49Z</time>
      </trkpt>
      <trkpt lat="46.148" lon="2.43864">
        <ele>517</ele>
        <time>2015-04-08T13:55:51Z</time>
      </trkpt>
      <trkpt lat="46.14803" lon="2.43863">
        <ele>517</ele>
        <time>2015-04-08T13:55:53Z</time>
      </trkpt>
      <trkpt lat="46.14804" lon="2.43862">
        <ele>517</ele>
        <time>2015-04-08T13:55:55Z</time>
      </trkpt>
      <trkpt lat="46.14808" lon="2.43862">
        <ele>517</ele>
        <time>2015-04-08T13:55:57Z</time>
      </trkpt>
      <trkpt lat="46.14809" lon="2.43862">
        <ele>517</ele>
        <time>2015-04-08T13:55:59Z</time>
      </trkpt>
      <trkpt lat="46.14812" lon="2.43863">
        <ele>517</ele>
        <time>2015-04-08T13:56:01Z</time>
      </trkpt>
      <trkpt lat="46.14815" lon="2.43862">
        <ele>517</ele>
        <time>2015-04-08T13:56:03Z</time>
      </trkpt>
      <trkpt lat="46.14818" lon="2.43861">
        <ele>517</ele>
        <time>2015-04-08T13:56:05Z</time>
      </trkpt>
      <trkpt lat="46.1482" lon="2.43859">
        <ele>517</ele>
        <time>2015-04-08T13:56:07Z</time>
      </trkpt>
      <trkpt lat="46.14824" lon="2.43859">
        <ele>517</ele>
        <time>2015-04-08T13:56:09Z</time>
      </trkpt>
      <trkpt lat="46.14826" lon="2.43859">
        <ele>517</ele>
        <time>2015-04-08T13:56:11Z</time>
      </trkpt>
      <trkpt lat="46.14829" lon="2.43859">
        <ele>517</ele>
        <time>2015-04-08T13:56:13Z</time>
      </trkpt>
      <trkpt lat="46.14832" lon="2.43858">
        <ele>517</ele>
        <time>2015-04-08T13:56:15Z</time>
      </trkpt>
      <trkpt lat="46.14835" lon="2.43857">
        <ele>517</ele>
        <time>2015-04-08T13:56:17Z</time>
      </trkpt>
      <trkpt lat="46.14837" lon="2.43855">
        <ele>517</ele>
        <time>2015-04-08T13:56:19Z</time>
      </trkpt>
      <trkpt lat="46.1484" lon="2.43853">
        <ele>517</ele>
        <time>2015-04-08T13:56:22Z</time>
      </trkpt>
      <trkpt lat="46.14841" lon="2.43851">
        <ele>517</ele>
        <time>2015-04-08T13:56:24Z</time>
      </trkpt>
      <trkpt lat="46.14843" lon="2.43849">
        <ele>517</ele>
        <time>2015-04-08T13:56:26Z</time>
      </trkpt>
      <trkpt lat="46.14844" lon="2.43847">
        <ele>517</ele>
        <time>2015-04-08T13:56:28Z</time>
      </trkpt>
      <trkpt lat="46.14848" lon="2.43844">
        <ele>517</ele>
        <time>2015-04-08T13:56:31Z</time>
      </trkpt>
      <trkpt lat="46.14849" lon="2.43842">
        <ele>517</ele>
        <time>2015-04-08T13:56:33Z</time>
      </trkpt>
      <trkpt lat="46.1485" lon="2.43837">
        <ele>517</ele>
        <time>2015-04-08T13:56:35Z</time>
      </trkpt>
      <trkpt lat="46.14851" lon="2.43834">
        <ele>517</ele>
        <time>2015-04-08T13:56:37Z</time>
      </trkpt>
      <trkpt lat="46.14854" lon="2.43832">
        <ele>517</ele>
        <time>2015-04-08T13:56:39Z</time>
      </trkpt>
      <trkpt lat="46.14856" lon="2.43829">
        <ele>517</ele>
        <time>2015-04-08T13:56:42Z</time>
      </trkpt>
      <trkpt lat="46.14858" lon="2.43827">
        <ele>517</ele>
        <time>2015-04-08T13:56:44Z</time>
      </trkpt>
      <trkpt lat="46.14859" lon="2.43824">
        <ele>517</ele>
        <time>2015-04-08T13:56:46Z</time>
      </trkpt>
      <trkpt lat="46.14861" lon="2.43822">
        <ele>517</ele>
        <time>2015-04-08T13:56:48Z</time>
      </trkpt>
      <trkpt lat="46.14863" lon="2.43819">
        <ele>517</ele>
        <time>2015-04-08T13:56:50Z</time>
      </trkpt>
      <trkpt lat="46.14866" lon="2.43816">
        <ele>517</ele>
        <time>2015-04-08T13:56:53Z</time>
      </trkpt>
      <trkpt lat="46.14867" lon="2.43811">
        <ele>517</ele>
        <time>2015-04-08T13:56:55Z</time>
      </trkpt>
      <trkpt lat="46.14869" lon="2.43808">
        <ele>517</ele>
        <time>2015-04-08T13:56:57Z</time>
      </trkpt>
      <trkpt lat="46.14871" lon="2.43803">
        <ele>516</ele>
        <time>2015-04-08T13:56:59Z</time>
      </trkpt>
      <trkpt lat="46.14873" lon="2.438">
        <ele>515</ele>
        <time>2015-04-08T13:57:01Z</time>
      </trkpt>
      <trkpt lat="46.14875" lon="2.43796">
        <ele>515</ele>
        <time>2015-04-08T13:57:03Z</time>
      </trkpt>
      <trkpt lat="46.14876" lon="2.43794">
        <ele>514</ele>
        <time>2015-04-08T13:57:05Z</time>
      </trkpt>
      <trkpt lat="46.14877" lon="2.4379">
        <ele>512</ele>
        <time>2015-04-08T13:57:08Z</time>
      </trkpt>
      <trkpt lat="46.14877" lon="2.43786">
        <ele>511</ele>
        <time>2015-04-08T13:57:10Z</time>
      </trkpt>
      <trkpt lat="46.14877" lon="2.43782">
        <ele>511</ele>
        <time>2015-04-08T13:57:12Z</time>
      </trkpt>
      <trkpt lat="46.14875" lon="2.43781">
        <ele>511</ele>
        <time>2015-04-08T13:57:14Z</time>
      </trkpt>
      <trkpt lat="46.14877" lon="2.43779">
        <ele>513</ele>
        <time>2015-04-08T13:57:26Z</time>
      </trkpt>
      <trkpt lat="46.14879" lon="2.43778">
        <ele>514</ele>
        <time>2015-04-08T13:57:28Z</time>
      </trkpt>
      <trkpt lat="46.1488" lon="2.43776">
        <ele>514</ele>
        <time>2015-04-08T13:57:30Z</time>
      </trkpt>
      <trkpt lat="46.14881" lon="2.43774">
        <ele>514</ele>
        <time>2015-04-08T13:57:32Z</time>
      </trkpt>
      <trkpt lat="46.14883" lon="2.43772">
        <ele>514</ele>
        <time>2015-04-08T13:57:34Z</time>
      </trkpt>
      <trkpt lat="46.14885" lon="2.43769">
        <ele>514</ele>
        <time>2015-04-08T13:57:36Z</time>
      </trkpt>
      <trkpt lat="46.14888" lon="2.43766">
        <ele>514</ele>
        <time>2015-04-08T13:57:38Z</time>
      </trkpt>
      <trkpt lat="46.14891" lon="2.43764">
        <ele>514</ele>
        <time>2015-04-08T13:57:40Z</time>
      </trkpt>
      <trkpt lat="46.14893" lon="2.43762">
        <ele>514</ele>
        <time>2015-04-08T13:57:42Z</time>
      </trkpt>
      <trkpt lat="46.14895" lon="2.43761">
        <ele>514</ele>
        <time>2015-04-08T13:57:44Z</time>
      </trkpt>
      <trkpt lat="46.14898" lon="2.43759">
        <ele>514</ele>
        <time>2015-04-08T13:57:47Z</time>
      </trkpt>
      <trkpt lat="46.14902" lon="2.43759">
        <ele>514</ele>
        <time>2015-04-08T13:57:49Z</time>
      </trkpt>
      <trkpt lat="46.14904" lon="2.43757">
        <ele>514</ele>
        <time>2015-04-08T13:57:51Z</time>
      </trkpt>
      <trkpt lat="46.14906" lon="2.43756">
        <ele>514</ele>
        <time>2015-04-08T13:57:53Z</time>
      </trkpt>
      <trkpt lat="46.14908" lon="2.43756">
        <ele>514</ele>
        <time>2015-04-08T13:57:55Z</time>
      </trkpt>
      <trkpt lat="46.14911" lon="2.43756">
        <ele>514</ele>
        <time>2015-04-08T13:57:57Z</time>
      </trkpt>
      <trkpt lat="46.14915" lon="2.43753">
        <ele>514</ele>
        <time>2015-04-08T13:57:59Z</time>
      </trkpt>
      <trkpt lat="46.14917" lon="2.4375">
        <ele>514</ele>
        <time>2015-04-08T13:58:01Z</time>
      </trkpt>
      <trkpt lat="46.1492" lon="2.43748">
        <ele>514</ele>
        <time>2015-04-08T13:58:04Z</time>
      </trkpt>
      <trkpt lat="46.14922" lon="2.43746">
        <ele>514</ele>
        <time>2015-04-08T13:58:06Z</time>
      </trkpt>
      <trkpt lat="46.14925" lon="2.43744">
        <ele>514</ele>
        <time>2015-04-08T13:58:08Z</time>
      </trkpt>
      <trkpt lat="46.14928" lon="2.43741">
        <ele>514</ele>
        <time>2015-04-08T13:58:11Z</time>
      </trkpt>
      <trkpt lat="46.14931" lon="2.43739">
        <ele>514</ele>
        <time>2015-04-08T13:58:13Z</time>
      </trkpt>
      <trkpt lat="46.14934" lon="2.43737">
        <ele>514</ele>
        <time>2015-04-08T13:58:15Z</time>
      </trkpt>
      <trkpt lat="46.14938" lon="2.43735">
        <ele>514</ele>
        <time>2015-04-08T13:58:17Z</time>
      </trkpt>
      <trkpt lat="46.14941" lon="2.43734">
        <ele>514</ele>
        <time>2015-04-08T13:58:19Z</time>
      </trkpt>
      <trkpt lat="46.14944" lon="2.43732">
        <ele>514</ele>
        <time>2015-04-08T13:58:21Z</time>
      </trkpt>
      <trkpt lat="46.14947" lon="2.43729">
        <ele>514</ele>
        <time>2015-04-08T13:58:23Z</time>
      </trkpt>
      <trkpt lat="46.1495" lon="2.43727">
        <ele>514</ele>
        <time>2015-04-08T13:58:25Z</time>
      </trkpt>
      <trkpt lat="46.14952" lon="2.43725">
        <ele>514</ele>
        <time>2015-04-08T13:58:27Z</time>
      </trkpt>
      <trkpt lat="46.14953" lon="2.43722">
        <ele>514</ele>
        <time>2015-04-08T13:58:29Z</time>
      </trkpt>
      <trkpt lat="46.14955" lon="2.4372">
        <ele>514</ele>
        <time>2015-04-08T13:58:31Z</time>
      </trkpt>
      <trkpt lat="46.14957" lon="2.43718">
        <ele>514</ele>
        <time>2015-04-08T13:58:33Z</time>
      </trkpt>
      <trkpt lat="46.14959" lon="2.43717">
        <ele>514</ele>
        <time>2015-04-08T13:58:35Z</time>
      </trkpt>
      <trkpt lat="46.14961" lon="2.43714">
        <ele>514</ele>
        <time>2015-04-08T13:58:37Z</time>
      </trkpt>
      <trkpt lat="46.14963" lon="2.43713">
        <ele>514</ele>
        <time>2015-04-08T13:58:39Z</time>
      </trkpt>
      <trkpt lat="46.14965" lon="2.43711">
        <ele>514</ele>
        <time>2015-04-08T13:58:41Z</time>
      </trkpt>
      <trkpt lat="46.14967" lon="2.43709">
        <ele>514</ele>
        <time>2015-04-08T13:58:43Z</time>
      </trkpt>
      <trkpt lat="46.14968" lon="2.43706">
        <ele>514</ele>
        <time>2015-04-08T13:58:45Z</time>
      </trkpt>
      <trkpt lat="46.1497" lon="2.43704">
        <ele>514</ele>
        <time>2015-04-08T13:58:47Z</time>
      </trkpt>
      <trkpt lat="46.14973" lon="2.437">
        <ele>514</ele>
        <time>2015-04-08T13:58:50Z</time>
      </trkpt>
      <trkpt lat="46.14976" lon="2.43697">
        <ele>514</ele>
        <time>2015-04-08T13:58:52Z</time>
      </trkpt>
      <trkpt lat="46.14977" lon="2.43694">
        <ele>514</ele>
        <time>2015-04-08T13:58:54Z</time>
      </trkpt>
      <trkpt lat="46.1498" lon="2.43691">
        <ele>514</ele>
        <time>2015-04-08T13:58:56Z</time>
      </trkpt>
      <trkpt lat="46.14981" lon="2.43688">
        <ele>514</ele>
        <time>2015-04-08T13:58:58Z</time>
      </trkpt>
      <trkpt lat="46.14983" lon="2.43685">
        <ele>514</ele>
        <time>2015-04-08T13:59:00Z</time>
      </trkpt>
      <trkpt lat="46.14985" lon="2.43681">
        <ele>513</ele>
        <time>2015-04-08T13:59:02Z</time>
      </trkpt>
      <trkpt lat="46.14987" lon="2.43678">
        <ele>513</ele>
        <time>2015-04-08T13:59:04Z</time>
      </trkpt>
      <trkpt lat="46.14991" lon="2.43675">
        <ele>513</ele>
        <time>2015-04-08T13:59:06Z</time>
      </trkpt>
      <trkpt lat="46.14993" lon="2.43672">
        <ele>513</ele>
        <time>2015-04-08T13:59:08Z</time>
      </trkpt>
      <trkpt lat="46.14994" lon="2.43668">
        <ele>513</ele>
        <time>2015-04-08T13:59:10Z</time>
      </trkpt>
      <trkpt lat="46.14996" lon="2.43664">
        <ele>513</ele>
        <time>2015-04-08T13:59:13Z</time>
      </trkpt>
      <trkpt lat="46.14999" lon="2.43662">
        <ele>513</ele>
        <time>2015-04-08T13:59:15Z</time>
      </trkpt>
      <trkpt lat="46.15001" lon="2.43659">
        <ele>513</ele>
        <time>2015-04-08T13:59:17Z</time>
      </trkpt>
      <trkpt lat="46.15002" lon="2.43657">
        <ele>513</ele>
        <time>2015-04-08T13:59:19Z</time>
      </trkpt>
      <trkpt lat="46.15005" lon="2.43656">
        <ele>513</ele>
        <time>2015-04-08T13:59:21Z</time>
      </trkpt>
      <trkpt lat="46.15006" lon="2.43654">
        <ele>513</ele>
        <time>2015-04-08T13:59:23Z</time>
      </trkpt>
      <trkpt lat="46.15009" lon="2.43653">
        <ele>513</ele>
        <time>2015-04-08T13:59:25Z</time>
      </trkpt>
      <trkpt lat="46.15011" lon="2.43651">
        <ele>513</ele>
        <time>2015-04-08T13:59:27Z</time>
      </trkpt>
      <trkpt lat="46.15014" lon="2.43649">
        <ele>513</ele>
        <time>2015-04-08T13:59:29Z</time>
      </trkpt>
      <trkpt lat="46.15016" lon="2.43648">
        <ele>513</ele>
        <time>2015-04-08T13:59:31Z</time>
      </trkpt>
      <trkpt lat="46.15017" lon="2.43646">
        <ele>513</ele>
        <time>2015-04-08T13:59:33Z</time>
      </trkpt>
      <trkpt lat="46.1502" lon="2.43645">
        <ele>513</ele>
        <time>2015-04-08T13:59:35Z</time>
      </trkpt>
      <trkpt lat="46.15023" lon="2.43644">
        <ele>513</ele>
        <time>2015-04-08T13:59:37Z</time>
      </trkpt>
      <trkpt lat="46.15027" lon="2.43642">
        <ele>513</ele>
        <time>2015-04-08T13:59:40Z</time>
      </trkpt>
      <trkpt lat="46.1503" lon="2.43639">
        <ele>513</ele>
        <time>2015-04-08T13:59:43Z</time>
      </trkpt>
      <trkpt lat="46.15032" lon="2.43638">
        <ele>513</ele>
        <time>2015-04-08T13:59:45Z</time>
      </trkpt>
      <trkpt lat="46.15034" lon="2.43636">
        <ele>513</ele>
        <time>2015-04-08T13:59:47Z</time>
      </trkpt>
      <trkpt lat="46.15037" lon="2.43635">
        <ele>513</ele>
        <time>2015-04-08T13:59:49Z</time>
      </trkpt>
      <trkpt lat="46.1504" lon="2.43635">
        <ele>513</ele>
        <time>2015-04-08T13:59:51Z</time>
      </trkpt>
      <trkpt lat="46.15044" lon="2.43635">
        <ele>513</ele>
        <time>2015-04-08T13:59:53Z</time>
      </trkpt>
      <trkpt lat="46.15047" lon="2.43634">
        <ele>513</ele>
        <time>2015-04-08T13:59:55Z</time>
      </trkpt>
      <trkpt lat="46.1505" lon="2.43634">
        <ele>513</ele>
        <time>2015-04-08T13:59:57Z</time>
      </trkpt>
      <trkpt lat="46.15052" lon="2.4363">
        <ele>514</ele>
        <time>2015-04-08T14:00:00Z</time>
      </trkpt>
      <trkpt lat="46.15054" lon="2.43629">
        <ele>514</ele>
        <time>2015-04-08T14:00:02Z</time>
      </trkpt>
      <trkpt lat="46.15055" lon="2.43627">
        <ele>514</ele>
        <time>2015-04-08T14:00:04Z</time>
      </trkpt>
      <trkpt lat="46.15057" lon="2.43624">
        <ele>514</ele>
        <time>2015-04-08T14:00:06Z</time>
      </trkpt>
      <trkpt lat="46.15061" lon="2.43624">
        <ele>514</ele>
        <time>2015-04-08T14:00:09Z</time>
      </trkpt>
      <trkpt lat="46.15065" lon="2.43623">
        <ele>514</ele>
        <time>2015-04-08T14:00:11Z</time>
      </trkpt>
      <trkpt lat="46.15067" lon="2.4362">
        <ele>515</ele>
        <time>2015-04-08T14:00:13Z</time>
      </trkpt>
      <trkpt lat="46.15069" lon="2.43616">
        <ele>515</ele>
        <time>2015-04-08T14:00:15Z</time>
      </trkpt>
      <trkpt lat="46.15071" lon="2.43613">
        <ele>515</ele>
        <time>2015-04-08T14:00:17Z</time>
      </trkpt>
      <trkpt lat="46.15074" lon="2.43611">
        <ele>515</ele>
        <time>2015-04-08T14:00:20Z</time>
      </trkpt>
      <trkpt lat="46.15076" lon="2.43609">
        <ele>515</ele>
        <time>2015-04-08T14:00:22Z</time>
      </trkpt>
      <trkpt lat="46.15078" lon="2.43607">
        <ele>515</ele>
        <time>2015-04-08T14:00:24Z</time>
      </trkpt>
      <trkpt lat="46.1508" lon="2.43603">
        <ele>514</ele>
        <time>2015-04-08T14:00:27Z</time>
      </trkpt>
      <trkpt lat="46.15081" lon="2.43602">
        <ele>513</ele>
        <time>2015-04-08T14:00:29Z</time>
      </trkpt>
      <trkpt lat="46.15084" lon="2.43601">
        <ele>513</ele>
        <time>2015-04-08T14:00:31Z</time>
      </trkpt>
      <trkpt lat="46.15087" lon="2.43598">
        <ele>512</ele>
        <time>2015-04-08T14:00:33Z</time>
      </trkpt>
      <trkpt lat="46.15089" lon="2.43595">
        <ele>512</ele>
        <time>2015-04-08T14:00:35Z</time>
      </trkpt>
      <trkpt lat="46.15092" lon="2.43591">
        <ele>512</ele>
        <time>2015-04-08T14:00:37Z</time>
      </trkpt>
      <trkpt lat="46.15094" lon="2.43589">
        <ele>512</ele>
        <time>2015-04-08T14:00:39Z</time>
      </trkpt>
      <trkpt lat="46.15096" lon="2.43587">
        <ele>512</ele>
        <time>2015-04-08T14:00:41Z</time>
      </trkpt>
      <trkpt lat="46.15097" lon="2.43585">
        <ele>511</ele>
        <time>2015-04-08T14:00:43Z</time>
      </trkpt>
      <trkpt lat="46.151" lon="2.43583">
        <ele>511</ele>
        <time>2015-04-08T14:00:45Z</time>
      </trkpt>
      <trkpt lat="46.15102" lon="2.43581">
        <ele>511</ele>
        <time>2015-04-08T14:00:47Z</time>
      </trkpt>
      <trkpt lat="46.15104" lon="2.43578">
        <ele>511</ele>
        <time>2015-04-08T14:00:49Z</time>
      </trkpt>
      <trkpt lat="46.15105" lon="2.43575">
        <ele>511</ele>
        <time>2015-04-08T14:00:51Z</time>
      </trkpt>
      <trkpt lat="46.15105" lon="2.43571">
        <ele>511</ele>
        <time>2015-04-08T14:00:53Z</time>
      </trkpt>
      <trkpt lat="46.15106" lon="2.43567">
        <ele>511</ele>
        <time>2015-04-08T14:00:55Z</time>
      </trkpt>
      <trkpt lat="46.15107" lon="2.43563">
        <ele>511</ele>
        <time>2015-04-08T14:00:57Z</time>
      </trkpt>
      <trkpt lat="46.15109" lon="2.4356">
        <ele>511</ele>
        <time>2015-04-08T14:00:59Z</time>
      </trkpt>
      <trkpt lat="46.15112" lon="2.43557">
        <ele>511</ele>
        <time>2015-04-08T14:01:01Z</time>
      </trkpt>
      <trkpt lat="46.15114" lon="2.43553">
        <ele>511</ele>
        <time>2015-04-08T14:01:03Z</time>
      </trkpt>
      <trkpt lat="46.15116" lon="2.4355">
        <ele>511</ele>
        <time>2015-04-08T14:01:05Z</time>
      </trkpt>
      <trkpt lat="46.15118" lon="2.43546">
        <ele>511</ele>
        <time>2015-04-08T14:01:07Z</time>
      </trkpt>
      <trkpt lat="46.15121" lon="2.43541">
        <ele>511</ele>
        <time>2015-04-08T14:01:10Z</time>
      </trkpt>
      <trkpt lat="46.15123" lon="2.43538">
        <ele>511</ele>
        <time>2015-04-08T14:01:12Z</time>
      </trkpt>
      <trkpt lat="46.15125" lon="2.43535">
        <ele>511</ele>
        <time>2015-04-08T14:01:14Z</time>
      </trkpt>
      <trkpt lat="46.15125" lon="2.43531">
        <ele>511</ele>
        <time>2015-04-08T14:01:17Z</time>
      </trkpt>
      <trkpt lat="46.15125" lon="2.43529">
        <ele>511</ele>
        <time>2015-04-08T14:01:19Z</time>
      </trkpt>
      <trkpt lat="46.15126" lon="2.43528">
        <ele>511</ele>
        <time>2015-04-08T14:01:23Z</time>
      </trkpt>
      <trkpt lat="46.15129" lon="2.43526">
        <ele>511</ele>
        <time>2015-04-08T14:01:26Z</time>
      </trkpt>
      <trkpt lat="46.15132" lon="2.43525">
        <ele>511</ele>
        <time>2015-04-08T14:01:28Z</time>
      </trkpt>
      <trkpt lat="46.15134" lon="2.43524">
        <ele>511</ele>
        <time>2015-04-08T14:01:30Z</time>
      </trkpt>
      <trkpt lat="46.15136" lon="2.43522">
        <ele>511</ele>
        <time>2015-04-08T14:01:32Z</time>
      </trkpt>
      <trkpt lat="46.1514" lon="2.4352">
        <ele>511</ele>
        <time>2015-04-08T14:01:35Z</time>
      </trkpt>
      <trkpt lat="46.15143" lon="2.43517">
        <ele>511</ele>
        <time>2015-04-08T14:01:38Z</time>
      </trkpt>
      <trkpt lat="46.15144" lon="2.43515">
        <ele>511</ele>
        <time>2015-04-08T14:01:40Z</time>
      </trkpt>
      <trkpt lat="46.15146" lon="2.43514">
        <ele>511</ele>
        <time>2015-04-08T14:01:42Z</time>
      </trkpt>
      <trkpt lat="46.15147" lon="2.43513">
        <ele>511</ele>
        <time>2015-04-08T14:01:44Z</time>
      </trkpt>
      <trkpt lat="46.1515" lon="2.4351">
        <ele>511</ele>
        <time>2015-04-08T14:01:46Z</time>
      </trkpt>
      <trkpt lat="46.15153" lon="2.43506">
        <ele>511</ele>
        <time>2015-04-08T14:01:49Z</time>
      </trkpt>
      <trkpt lat="46.15155" lon="2.43505">
        <ele>511</ele>
        <time>2015-04-08T14:01:51Z</time>
      </trkpt>
      <trkpt lat="46.15157" lon="2.43502">
        <ele>511</ele>
        <time>2015-04-08T14:01:53Z</time>
      </trkpt>
      <trkpt lat="46.1516" lon="2.43498">
        <ele>511</ele>
        <time>2015-04-08T14:01:56Z</time>
      </trkpt>
      <trkpt lat="46.15162" lon="2.43495">
        <ele>511</ele>
        <time>2015-04-08T14:01:58Z</time>
      </trkpt>
      <trkpt lat="46.15164" lon="2.43493">
        <ele>511</ele>
        <time>2015-04-08T14:02:00Z</time>
      </trkpt>
      <trkpt lat="46.15165" lon="2.4349">
        <ele>511</ele>
        <time>2015-04-08T14:02:02Z</time>
      </trkpt>
      <trkpt lat="46.15167" lon="2.43486">
        <ele>511</ele>
        <time>2015-04-08T14:02:04Z</time>
      </trkpt>
      <trkpt lat="46.15169" lon="2.43483">
        <ele>511</ele>
        <time>2015-04-08T14:02:06Z</time>
      </trkpt>
      <trkpt lat="46.1517" lon="2.4348">
        <ele>510</ele>
        <time>2015-04-08T14:02:08Z</time>
      </trkpt>
      <trkpt lat="46.15172" lon="2.43476">
        <ele>509</ele>
        <time>2015-04-08T14:02:11Z</time>
      </trkpt>
      <trkpt lat="46.15173" lon="2.43473">
        <ele>509</ele>
        <time>2015-04-08T14:02:13Z</time>
      </trkpt>
      <trkpt lat="46.15176" lon="2.4347">
        <ele>509</ele>
        <time>2015-04-08T14:02:15Z</time>
      </trkpt>
      <trkpt lat="46.15178" lon="2.43467">
        <ele>509</ele>
        <time>2015-04-08T14:02:17Z</time>
      </trkpt>
      <trkpt lat="46.1518" lon="2.43463">
        <ele>509</ele>
        <time>2015-04-08T14:02:19Z</time>
      </trkpt>
      <trkpt lat="46.15181" lon="2.4346">
        <ele>509</ele>
        <time>2015-04-08T14:02:21Z</time>
      </trkpt>
      <trkpt lat="46.15182" lon="2.43456">
        <ele>509</ele>
        <time>2015-04-08T14:02:23Z</time>
      </trkpt>
      <trkpt lat="46.15186" lon="2.43453">
        <ele>509</ele>
        <time>2015-04-08T14:02:25Z</time>
      </trkpt>
      <trkpt lat="46.15187" lon="2.43451">
        <ele>509</ele>
        <time>2015-04-08T14:02:27Z</time>
      </trkpt>
      <trkpt lat="46.15189" lon="2.43447">
        <ele>509</ele>
        <time>2015-04-08T14:02:29Z</time>
      </trkpt>
      <trkpt lat="46.15191" lon="2.43444">
        <ele>508</ele>
        <time>2015-04-08T14:02:31Z</time>
      </trkpt>
      <trkpt lat="46.15193" lon="2.43441">
        <ele>507</ele>
        <time>2015-04-08T14:02:33Z</time>
      </trkpt>
      <trkpt lat="46.15195" lon="2.43438">
        <ele>505</ele>
        <time>2015-04-08T14:02:35Z</time>
      </trkpt>
      <trkpt lat="46.15198" lon="2.43435">
        <ele>505</ele>
        <time>2015-04-08T14:02:37Z</time>
      </trkpt>
      <trkpt lat="46.15202" lon="2.43433">
        <ele>504</ele>
        <time>2015-04-08T14:02:39Z</time>
      </trkpt>
      <trkpt lat="46.15205" lon="2.43431">
        <ele>504</ele>
        <time>2015-04-08T14:02:42Z</time>
      </trkpt>
      <trkpt lat="46.15208" lon="2.43428">
        <ele>504</ele>
        <time>2015-04-08T14:02:44Z</time>
      </trkpt>
      <trkpt lat="46.1521" lon="2.43424">
        <ele>503</ele>
        <time>2015-04-08T14:02:46Z</time>
      </trkpt>
      <trkpt lat="46.15212" lon="2.43422">
        <ele>502</ele>
        <time>2015-04-08T14:02:48Z</time>
      </trkpt>
      <trkpt lat="46.15215" lon="2.43419">
        <ele>500</ele>
        <time>2015-04-08T14:02:50Z</time>
      </trkpt>
      <trkpt lat="46.15217" lon="2.43416">
        <ele>499</ele>
        <time>2015-04-08T14:02:52Z</time>
      </trkpt>
      <trkpt lat="46.15219" lon="2.43414">
        <ele>498</ele>
        <time>2015-04-08T14:02:54Z</time>
      </trkpt>
      <trkpt lat="46.1522" lon="2.43411">
        <ele>497</ele>
        <time>2015-04-08T14:02:56Z</time>
      </trkpt>
      <trkpt lat="46.15223" lon="2.43409">
        <ele>497</ele>
        <time>2015-04-08T14:02:58Z</time>
      </trkpt>
      <trkpt lat="46.15225" lon="2.43407">
        <ele>497</ele>
        <time>2015-04-08T14:03:00Z</time>
      </trkpt>
      <trkpt lat="46.15228" lon="2.43406">
        <ele>497</ele>
        <time>2015-04-08T14:03:02Z</time>
      </trkpt>
      <trkpt lat="46.15229" lon="2.43404">
        <ele>497</ele>
        <time>2015-04-08T14:03:04Z</time>
      </trkpt>
      <trkpt lat="46.15231" lon="2.43401">
        <ele>497</ele>
        <time>2015-04-08T14:03:06Z</time>
      </trkpt>
      <trkpt lat="46.15234" lon="2.43399">
        <ele>497</ele>
        <time>2015-04-08T14:03:08Z</time>
      </trkpt>
      <trkpt lat="46.15236" lon="2.43398">
        <ele>497</ele>
        <time>2015-04-08T14:03:10Z</time>
      </trkpt>
      <trkpt lat="46.15238" lon="2.43397">
        <ele>497</ele>
        <time>2015-04-08T14:03:12Z</time>
      </trkpt>
      <trkpt lat="46.15239" lon="2.43394">
        <ele>497</ele>
        <time>2015-04-08T14:03:14Z</time>
      </trkpt>
      <trkpt lat="46.15241" lon="2.43392">
        <ele>497</ele>
        <time>2015-04-08T14:03:16Z</time>
      </trkpt>
      <trkpt lat="46.15242" lon="2.43388">
        <ele>497</ele>
        <time>2015-04-08T14:03:18Z</time>
      </trkpt>
      <trkpt lat="46.15244" lon="2.43385">
        <ele>497</ele>
        <time>2015-04-08T14:03:20Z</time>
      </trkpt>
      <trkpt lat="46.15247" lon="2.43381">
        <ele>497</ele>
        <time>2015-04-08T14:03:23Z</time>
      </trkpt>
      <trkpt lat="46.15248" lon="2.43379">
        <ele>497</ele>
        <time>2015-04-08T14:03:25Z</time>
      </trkpt>
      <trkpt lat="46.1525" lon="2.43376">
        <ele>497</ele>
        <time>2015-04-08T14:03:27Z</time>
      </trkpt>
      <trkpt lat="46.15252" lon="2.43372">
        <ele>497</ele>
        <time>2015-04-08T14:03:29Z</time>
      </trkpt>
      <trkpt lat="46.15253" lon="2.43369">
        <ele>496</ele>
        <time>2015-04-08T14:03:31Z</time>
      </trkpt>
      <trkpt lat="46.15257" lon="2.43365">
        <ele>495</ele>
        <time>2015-04-08T14:03:34Z</time>
      </trkpt>
      <trkpt lat="46.15259" lon="2.43362">
        <ele>495</ele>
        <time>2015-04-08T14:03:36Z</time>
      </trkpt>
      <trkpt lat="46.1526" lon="2.4336">
        <ele>495</ele>
        <time>2015-04-08T14:03:38Z</time>
      </trkpt>
      <trkpt lat="46.15261" lon="2.43358">
        <ele>495</ele>
        <time>2015-04-08T14:03:40Z</time>
      </trkpt>
      <trkpt lat="46.15263" lon="2.43354">
        <ele>495</ele>
        <time>2015-04-08T14:03:42Z</time>
      </trkpt>
      <trkpt lat="46.15265" lon="2.43349">
        <ele>495</ele>
        <time>2015-04-08T14:03:45Z</time>
      </trkpt>
      <trkpt lat="46.15266" lon="2.43345">
        <ele>495</ele>
        <time>2015-04-08T14:03:47Z</time>
      </trkpt>
      <trkpt lat="46.15268" lon="2.4334">
        <ele>495</ele>
        <time>2015-04-08T14:03:49Z</time>
      </trkpt>
      <trkpt lat="46.15271" lon="2.43337">
        <ele>495</ele>
        <time>2015-04-08T14:03:52Z</time>
      </trkpt>
      <trkpt lat="46.15274" lon="2.43334">
        <ele>495</ele>
        <time>2015-04-08T14:03:54Z</time>
      </trkpt>
      <trkpt lat="46.15276" lon="2.43331">
        <ele>495</ele>
        <time>2015-04-08T14:03:56Z</time>
      </trkpt>
      <trkpt lat="46.15277" lon="2.43327">
        <ele>495</ele>
        <time>2015-04-08T14:03:58Z</time>
      </trkpt>
      <trkpt lat="46.15279" lon="2.43323">
        <ele>495</ele>
        <time>2015-04-08T14:04:00Z</time>
      </trkpt>
      <trkpt lat="46.1528" lon="2.4332">
        <ele>495</ele>
        <time>2015-04-08T14:04:02Z</time>
      </trkpt>
      <trkpt lat="46.15283" lon="2.43317">
        <ele>494</ele>
        <time>2015-04-08T14:04:04Z</time>
      </trkpt>
      <trkpt lat="46.15284" lon="2.43314">
        <ele>493</ele>
        <time>2015-04-08T14:04:06Z</time>
      </trkpt>
      <trkpt lat="46.15287" lon="2.43311">
        <ele>493</ele>
        <time>2015-04-08T14:04:08Z</time>
      </trkpt>
      <trkpt lat="46.1529" lon="2.43308">
        <ele>493</ele>
        <time>2015-04-08T14:04:10Z</time>
      </trkpt>
      <trkpt lat="46.15291" lon="2.43305">
        <ele>492</ele>
        <time>2015-04-08T14:04:12Z</time>
      </trkpt>
      <trkpt lat="46.15293" lon="2.43303">
        <ele>492</ele>
        <time>2015-04-08T14:04:14Z</time>
      </trkpt>
      <trkpt lat="46.15295" lon="2.43302">
        <ele>491</ele>
        <time>2015-04-08T14:04:16Z</time>
      </trkpt>
      <trkpt lat="46.15299" lon="2.433">
        <ele>490</ele>
        <time>2015-04-08T14:04:18Z</time>
      </trkpt>
      <trkpt lat="46.15301" lon="2.43297">
        <ele>490</ele>
        <time>2015-04-08T14:04:20Z</time>
      </trkpt>
      <trkpt lat="46.15303" lon="2.43296">
        <ele>489</ele>
        <time>2015-04-08T14:04:22Z</time>
      </trkpt>
      <trkpt lat="46.15306" lon="2.43295">
        <ele>489</ele>
        <time>2015-04-08T14:04:24Z</time>
      </trkpt>
      <trkpt lat="46.15309" lon="2.43293">
        <ele>489</ele>
        <time>2015-04-08T14:04:26Z</time>
      </trkpt>
      <trkpt lat="46.15313" lon="2.43292">
        <ele>489</ele>
        <time>2015-04-08T14:04:28Z</time>
      </trkpt>
      <trkpt lat="46.15315" lon="2.43289">
        <ele>489</ele>
        <time>2015-04-08T14:04:30Z</time>
      </trkpt>
      <trkpt lat="46.15318" lon="2.43288">
        <ele>489</ele>
        <time>2015-04-08T14:04:32Z</time>
      </trkpt>
      <trkpt lat="46.1532" lon="2.43286">
        <ele>490</ele>
        <time>2015-04-08T14:04:34Z</time>
      </trkpt>
      <trkpt lat="46.15322" lon="2.43284">
        <ele>490</ele>
        <time>2015-04-08T14:04:36Z</time>
      </trkpt>
      <trkpt lat="46.15325" lon="2.43284">
        <ele>490</ele>
        <time>2015-04-08T14:04:38Z</time>
      </trkpt>
      <trkpt lat="46.15327" lon="2.43282">
        <ele>490</ele>
        <time>2015-04-08T14:04:40Z</time>
      </trkpt>
      <trkpt lat="46.15331" lon="2.4328">
        <ele>491</ele>
        <time>2015-04-08T14:04:43Z</time>
      </trkpt>
      <trkpt lat="46.15334" lon="2.43278">
        <ele>491</ele>
        <time>2015-04-08T14:04:45Z</time>
      </trkpt>
      <trkpt lat="46.15337" lon="2.43277">
        <ele>492</ele>
        <time>2015-04-08T14:04:48Z</time>
      </trkpt>
      <trkpt lat="46.15341" lon="2.43275">
        <ele>493</ele>
        <time>2015-04-08T14:04:50Z</time>
      </trkpt>
      <trkpt lat="46.15345" lon="2.43274">
        <ele>493</ele>
        <time>2015-04-08T14:04:52Z</time>
      </trkpt>
      <trkpt lat="46.15347" lon="2.43272">
        <ele>493</ele>
        <time>2015-04-08T14:04:54Z</time>
      </trkpt>
      <trkpt lat="46.15349" lon="2.4327">
        <ele>493</ele>
        <time>2015-04-08T14:04:56Z</time>
      </trkpt>
      <trkpt lat="46.15352" lon="2.43268">
        <ele>493</ele>
        <time>2015-04-08T14:04:58Z</time>
      </trkpt>
      <trkpt lat="46.15354" lon="2.43265">
        <ele>493</ele>
        <time>2015-04-08T14:05:00Z</time>
      </trkpt>
      <trkpt lat="46.15357" lon="2.43262">
        <ele>493</ele>
        <time>2015-04-08T14:05:03Z</time>
      </trkpt>
      <trkpt lat="46.15359" lon="2.4326">
        <ele>492</ele>
        <time>2015-04-08T14:05:05Z</time>
      </trkpt>
      <trkpt lat="46.15361" lon="2.43256">
        <ele>491</ele>
        <time>2015-04-08T14:05:07Z</time>
      </trkpt>
      <trkpt lat="46.15363" lon="2.43253">
        <ele>490</ele>
        <time>2015-04-08T14:05:09Z</time>
      </trkpt>
      <trkpt lat="46.15366" lon="2.43249">
        <ele>487</ele>
        <time>2015-04-08T14:05:12Z</time>
      </trkpt>
      <trkpt lat="46.15367" lon="2.43246">
        <ele>486</ele>
        <time>2015-04-08T14:05:14Z</time>
      </trkpt>
      <trkpt lat="46.15371" lon="2.43243">
        <ele>485</ele>
        <time>2015-04-08T14:05:17Z</time>
      </trkpt>
      <trkpt lat="46.15374" lon="2.4324">
        <ele>485</ele>
        <time>2015-04-08T14:05:19Z</time>
      </trkpt>
      <trkpt lat="46.15376" lon="2.43238">
        <ele>485</ele>
        <time>2015-04-08T14:05:21Z</time>
      </trkpt>
      <trkpt lat="46.15379" lon="2.43235">
        <ele>485</ele>
        <time>2015-04-08T14:05:24Z</time>
      </trkpt>
      <trkpt lat="46.15383" lon="2.43232">
        <ele>485</ele>
        <time>2015-04-08T14:05:26Z</time>
      </trkpt>
      <trkpt lat="46.15385" lon="2.4323">
        <ele>485</ele>
        <time>2015-04-08T14:05:28Z</time>
      </trkpt>
      <trkpt lat="46.15387" lon="2.43228">
        <ele>485</ele>
        <time>2015-04-08T14:05:30Z</time>
      </trkpt>
      <trkpt lat="46.1539" lon="2.43226">
        <ele>484</ele>
        <time>2015-04-08T14:05:32Z</time>
      </trkpt>
      <trkpt lat="46.15393" lon="2.43223">
        <ele>483</ele>
        <time>2015-04-08T14:05:34Z</time>
      </trkpt>
      <trkpt lat="46.15395" lon="2.43219">
        <ele>482</ele>
        <time>2015-04-08T14:05:36Z</time>
      </trkpt>
      <trkpt lat="46.15397" lon="2.43216">
        <ele>481</ele>
        <time>2015-04-08T14:05:38Z</time>
      </trkpt>
      <trkpt lat="46.154" lon="2.43215">
        <ele>480</ele>
        <time>2015-04-08T14:05:40Z</time>
      </trkpt>
      <trkpt lat="46.15402" lon="2.43213">
        <ele>479</ele>
        <time>2015-04-08T14:05:42Z</time>
      </trkpt>
      <trkpt lat="46.15405" lon="2.43212">
        <ele>478</ele>
        <time>2015-04-08T14:05:44Z</time>
      </trkpt>
      <trkpt lat="46.15408" lon="2.43211">
        <ele>477</ele>
        <time>2015-04-08T14:05:47Z</time>
      </trkpt>
      <trkpt lat="46.15411" lon="2.43211">
        <ele>477</ele>
        <time>2015-04-08T14:05:49Z</time>
      </trkpt>
      <trkpt lat="46.15415" lon="2.43209">
        <ele>477</ele>
        <time>2015-04-08T14:05:52Z</time>
      </trkpt>
      <trkpt lat="46.15417" lon="2.43208">
        <ele>476</ele>
        <time>2015-04-08T14:05:54Z</time>
      </trkpt>
      <trkpt lat="46.15419" lon="2.43207">
        <ele>475</ele>
        <time>2015-04-08T14:05:56Z</time>
      </trkpt>
      <trkpt lat="46.15423" lon="2.43206">
        <ele>474</ele>
        <time>2015-04-08T14:05:58Z</time>
      </trkpt>
      <trkpt lat="46.15426" lon="2.43205">
        <ele>474</ele>
        <time>2015-04-08T14:06:00Z</time>
      </trkpt>
      <trkpt lat="46.1543" lon="2.43204">
        <ele>474</ele>
        <time>2015-04-08T14:06:02Z</time>
      </trkpt>
      <trkpt lat="46.15432" lon="2.43204">
        <ele>474</ele>
        <time>2015-04-08T14:06:04Z</time>
      </trkpt>
      <trkpt lat="46.15436" lon="2.43204">
        <ele>474</ele>
        <time>2015-04-08T14:06:06Z</time>
      </trkpt>
      <trkpt lat="46.15439" lon="2.43204">
        <ele>474</ele>
        <time>2015-04-08T14:06:08Z</time>
      </trkpt>
      <trkpt lat="46.15442" lon="2.43202">
        <ele>474</ele>
        <time>2015-04-08T14:06:10Z</time>
      </trkpt>
      <trkpt lat="46.15445" lon="2.43201">
        <ele>474</ele>
        <time>2015-04-08T14:06:12Z</time>
      </trkpt>
      <trkpt lat="46.15448" lon="2.43199">
        <ele>474</ele>
        <time>2015-04-08T14:06:14Z</time>
      </trkpt>
      <trkpt lat="46.15451" lon="2.43198">
        <ele>474</ele>
        <time>2015-04-08T14:06:17Z</time>
      </trkpt>
      <trkpt lat="46.15454" lon="2.43197">
        <ele>473</ele>
        <time>2015-04-08T14:06:19Z</time>
      </trkpt>
      <trkpt lat="46.15458" lon="2.43196">
        <ele>473</ele>
        <time>2015-04-08T14:06:21Z</time>
      </trkpt>
      <trkpt lat="46.15461" lon="2.43194">
        <ele>473</ele>
        <time>2015-04-08T14:06:24Z</time>
      </trkpt>
      <trkpt lat="46.15464" lon="2.43194">
        <ele>473</ele>
        <time>2015-04-08T14:06:26Z</time>
      </trkpt>
      <trkpt lat="46.15467" lon="2.43192">
        <ele>473</ele>
        <time>2015-04-08T14:06:28Z</time>
      </trkpt>
      <trkpt lat="46.1547" lon="2.43191">
        <ele>473</ele>
        <time>2015-04-08T14:06:30Z</time>
      </trkpt>
      <trkpt lat="46.15473" lon="2.4319">
        <ele>473</ele>
        <time>2015-04-08T14:06:32Z</time>
      </trkpt>
      <trkpt lat="46.15476" lon="2.43188">
        <ele>473</ele>
        <time>2015-04-08T14:06:34Z</time>
      </trkpt>
      <trkpt lat="46.15479" lon="2.43185">
        <ele>473</ele>
        <time>2015-04-08T14:06:37Z</time>
      </trkpt>
      <trkpt lat="46.15482" lon="2.43183">
        <ele>473</ele>
        <time>2015-04-08T14:06:39Z</time>
      </trkpt>
      <trkpt lat="46.15484" lon="2.43181">
        <ele>473</ele>
        <time>2015-04-08T14:06:41Z</time>
      </trkpt>
      <trkpt lat="46.15487" lon="2.4318">
        <ele>473</ele>
        <time>2015-04-08T14:06:43Z</time>
      </trkpt>
      <trkpt lat="46.15489" lon="2.43178">
        <ele>473</ele>
        <time>2015-04-08T14:06:45Z</time>
      </trkpt>
      <trkpt lat="46.15492" lon="2.43176">
        <ele>473</ele>
        <time>2015-04-08T14:06:47Z</time>
      </trkpt>
      <trkpt lat="46.15495" lon="2.43175">
        <ele>473</ele>
        <time>2015-04-08T14:06:49Z</time>
      </trkpt>
      <trkpt lat="46.15498" lon="2.43173">
        <ele>473</ele>
        <time>2015-04-08T14:06:52Z</time>
      </trkpt>
      <trkpt lat="46.15499" lon="2.43171">
        <ele>473</ele>
        <time>2015-04-08T14:06:54Z</time>
      </trkpt>
      <trkpt lat="46.15501" lon="2.4317">
        <ele>473</ele>
        <time>2015-04-08T14:07:01Z</time>
      </trkpt>
      <trkpt lat="46.15502" lon="2.4317">
        <ele>473</ele>
        <time>2015-04-08T14:07:06Z</time>
      </trkpt>
      <trkpt lat="46.15501" lon="2.43171">
        <ele>473</ele>
        <time>2015-04-08T14:07:28Z</time>
      </trkpt>
      <trkpt lat="46.15501" lon="2.4317">
        <ele>470</ele>
        <time>2015-04-08T14:07:43Z</time>
      </trkpt>
      <trkpt lat="46.15499" lon="2.4317">
        <ele>470</ele>
        <time>2015-04-08T14:07:45Z</time>
      </trkpt>
      <trkpt lat="46.15497" lon="2.43171">
        <ele>470</ele>
        <time>2015-04-08T14:07:47Z</time>
      </trkpt>
      <trkpt lat="46.15495" lon="2.43173">
        <ele>470</ele>
        <time>2015-04-08T14:07:49Z</time>
      </trkpt>
      <trkpt lat="46.15493" lon="2.43174">
        <ele>470</ele>
        <time>2015-04-08T14:07:51Z</time>
      </trkpt>
      <trkpt lat="46.1549" lon="2.43174">
        <ele>470</ele>
        <time>2015-04-08T14:07:53Z</time>
      </trkpt>
      <trkpt lat="46.15487" lon="2.43177">
        <ele>470</ele>
        <time>2015-04-08T14:07:56Z</time>
      </trkpt>
      <trkpt lat="46.15486" lon="2.43176">
        <ele>470</ele>
        <time>2015-04-08T14:08:01Z</time>
      </trkpt>
      <trkpt lat="46.15488" lon="2.43175">
        <ele>470</ele>
        <time>2015-04-08T14:08:03Z</time>
      </trkpt>
      <trkpt lat="46.1549" lon="2.43175">
        <ele>470</ele>
        <time>2015-04-08T14:08:05Z</time>
      </trkpt>
      <trkpt lat="46.15493" lon="2.43174">
        <ele>470</ele>
        <time>2015-04-08T14:08:08Z</time>
      </trkpt>
      <trkpt lat="46.15495" lon="2.43173">
        <ele>470</ele>
        <time>2015-04-08T14:08:10Z</time>
      </trkpt>
      <trkpt lat="46.15497" lon="2.43172">
        <ele>470</ele>
        <time>2015-04-08T14:08:12Z</time>
      </trkpt>
      <trkpt lat="46.15499" lon="2.4317">
        <ele>470</ele>
        <time>2015-04-08T14:08:14Z</time>
      </trkpt>
      <trkpt lat="46.15501" lon="2.43168">
        <ele>470</ele>
        <time>2015-04-08T14:08:16Z</time>
      </trkpt>
      <trkpt lat="46.15504" lon="2.43166">
        <ele>470</ele>
        <time>2015-04-08T14:08:18Z</time>
      </trkpt>
      <trkpt lat="46.15508" lon="2.43165">
        <ele>470</ele>
        <time>2015-04-08T14:08:21Z</time>
      </trkpt>
      <trkpt lat="46.1551" lon="2.43164">
        <ele>470</ele>
        <time>2015-04-08T14:08:23Z</time>
      </trkpt>
      <trkpt lat="46.15513" lon="2.43162">
        <ele>470</ele>
        <time>2015-04-08T14:08:26Z</time>
      </trkpt>
      <trkpt lat="46.15515" lon="2.4316">
        <ele>470</ele>
        <time>2015-04-08T14:08:28Z</time>
      </trkpt>
      <trkpt lat="46.15517" lon="2.43158">
        <ele>470</ele>
        <time>2015-04-08T14:08:30Z</time>
      </trkpt>
      <trkpt lat="46.15518" lon="2.43157">
        <ele>470</ele>
        <time>2015-04-08T14:08:32Z</time>
      </trkpt>
      <trkpt lat="46.1552" lon="2.43156">
        <ele>470</ele>
        <time>2015-04-08T14:08:34Z</time>
      </trkpt>
      <trkpt lat="46.15522" lon="2.43155">
        <ele>470</ele>
        <time>2015-04-08T14:08:36Z</time>
      </trkpt>
      <trkpt lat="46.15523" lon="2.43154">
        <ele>469</ele>
        <time>2015-04-08T14:08:38Z</time>
      </trkpt>
      <trkpt lat="46.15525" lon="2.43153">
        <ele>469</ele>
        <time>2015-04-08T14:08:50Z</time>
      </trkpt>
      <trkpt lat="46.15527" lon="2.43151">
        <ele>468</ele>
        <time>2015-04-08T14:08:52Z</time>
      </trkpt>
      <trkpt lat="46.1553" lon="2.4315">
        <ele>468</ele>
        <time>2015-04-08T14:08:54Z</time>
      </trkpt>
      <trkpt lat="46.15533" lon="2.43149">
        <ele>468</ele>
        <time>2015-04-08T14:08:56Z</time>
      </trkpt>
      <trkpt lat="46.15536" lon="2.43147">
        <ele>468</ele>
        <time>2015-04-08T14:08:58Z</time>
      </trkpt>
      <trkpt lat="46.15539" lon="2.43145">
        <ele>468</ele>
        <time>2015-04-08T14:09:00Z</time>
      </trkpt>
      <trkpt lat="46.15543" lon="2.43144">
        <ele>468</ele>
        <time>2015-04-08T14:09:02Z</time>
      </trkpt>
      <trkpt lat="46.15545" lon="2.43142">
        <ele>467</ele>
        <time>2015-04-08T14:09:04Z</time>
      </trkpt>
      <trkpt lat="46.15549" lon="2.43139">
        <ele>467</ele>
        <time>2015-04-08T14:09:07Z</time>
      </trkpt>
      <trkpt lat="46.15552" lon="2.43137">
        <ele>467</ele>
        <time>2015-04-08T14:09:09Z</time>
      </trkpt>
      <trkpt lat="46.15556" lon="2.43135">
        <ele>467</ele>
        <time>2015-04-08T14:09:11Z</time>
      </trkpt>
      <trkpt lat="46.15559" lon="2.43133">
        <ele>467</ele>
        <time>2015-04-08T14:09:13Z</time>
      </trkpt>
      <trkpt lat="46.15563" lon="2.43129">
        <ele>467</ele>
        <time>2015-04-08T14:09:16Z</time>
      </trkpt>
      <trkpt lat="46.15566" lon="2.43127">
        <ele>467</ele>
        <time>2015-04-08T14:09:18Z</time>
      </trkpt>
      <trkpt lat="46.15569" lon="2.43125">
        <ele>467</ele>
        <time>2015-04-08T14:09:20Z</time>
      </trkpt>
      <trkpt lat="46.15573" lon="2.43122">
        <ele>466</ele>
        <time>2015-04-08T14:09:22Z</time>
      </trkpt>
      <trkpt lat="46.15575" lon="2.4312">
        <ele>466</ele>
        <time>2015-04-08T14:09:24Z</time>
      </trkpt>
      <trkpt lat="46.15579" lon="2.43118">
        <ele>466</ele>
        <time>2015-04-08T14:09:26Z</time>
      </trkpt>
      <trkpt lat="46.15583" lon="2.43116">
        <ele>466</ele>
        <time>2015-04-08T14:09:28Z</time>
      </trkpt>
      <trkpt lat="46.15587" lon="2.43114">
        <ele>466</ele>
        <time>2015-04-08T14:09:30Z</time>
      </trkpt>
      <trkpt lat="46.1559" lon="2.43113">
        <ele>466</ele>
        <time>2015-04-08T14:09:32Z</time>
      </trkpt>
      <trkpt lat="46.15592" lon="2.4311">
        <ele>466</ele>
        <time>2015-04-08T14:09:34Z</time>
      </trkpt>
      <trkpt lat="46.15596" lon="2.43107">
        <ele>466</ele>
        <time>2015-04-08T14:09:36Z</time>
      </trkpt>
      <trkpt lat="46.15598" lon="2.43105">
        <ele>465</ele>
        <time>2015-04-08T14:09:38Z</time>
      </trkpt>
      <trkpt lat="46.15601" lon="2.43104">
        <ele>465</ele>
        <time>2015-04-08T14:09:40Z</time>
      </trkpt>
      <trkpt lat="46.15604" lon="2.43102">
        <ele>465</ele>
        <time>2015-04-08T14:09:42Z</time>
      </trkpt>
      <trkpt lat="46.15607" lon="2.43101">
        <ele>465</ele>
        <time>2015-04-08T14:09:44Z</time>
      </trkpt>
      <trkpt lat="46.1561" lon="2.43099">
        <ele>465</ele>
        <time>2015-04-08T14:09:46Z</time>
      </trkpt>
      <trkpt lat="46.15612" lon="2.43097">
        <ele>465</ele>
        <time>2015-04-08T14:09:48Z</time>
      </trkpt>
      <trkpt lat="46.15616" lon="2.43095">
        <ele>465</ele>
        <time>2015-04-08T14:09:50Z</time>
      </trkpt>
      <trkpt lat="46.15619" lon="2.43093">
        <ele>464</ele>
        <time>2015-04-08T14:09:52Z</time>
      </trkpt>
      <trkpt lat="46.15622" lon="2.43092">
        <ele>464</ele>
        <time>2015-04-08T14:09:54Z</time>
      </trkpt>
      <trkpt lat="46.15625" lon="2.4309">
        <ele>464</ele>
        <time>2015-04-08T14:09:56Z</time>
      </trkpt>
      <trkpt lat="46.15628" lon="2.43087">
        <ele>464</ele>
        <time>2015-04-08T14:09:58Z</time>
      </trkpt>
      <trkpt lat="46.15631" lon="2.43085">
        <ele>463</ele>
        <time>2015-04-08T14:10:00Z</time>
      </trkpt>
      <trkpt lat="46.15633" lon="2.43083">
        <ele>463</ele>
        <time>2015-04-08T14:10:02Z</time>
      </trkpt>
      <trkpt lat="46.15635" lon="2.4308">
        <ele>463</ele>
        <time>2015-04-08T14:10:04Z</time>
      </trkpt>
      <trkpt lat="46.15637" lon="2.43076">
        <ele>463</ele>
        <time>2015-04-08T14:10:06Z</time>
      </trkpt>
      <trkpt lat="46.1564" lon="2.43074">
        <ele>463</ele>
        <time>2015-04-08T14:10:08Z</time>
      </trkpt>
      <trkpt lat="46.15642" lon="2.4307">
        <ele>462</ele>
        <time>2015-04-08T14:10:10Z</time>
      </trkpt>
      <trkpt lat="46.15644" lon="2.43067">
        <ele>462</ele>
        <time>2015-04-08T14:10:12Z</time>
      </trkpt>
      <trkpt lat="46.15646" lon="2.43063">
        <ele>462</ele>
        <time>2015-04-08T14:10:14Z</time>
      </trkpt>
      <trkpt lat="46.15649" lon="2.4306">
        <ele>462</ele>
        <time>2015-04-08T14:10:16Z</time>
      </trkpt>
      <trkpt lat="46.15651" lon="2.43056">
        <ele>462</ele>
        <time>2015-04-08T14:10:18Z</time>
      </trkpt>
      <trkpt lat="46.15653" lon="2.43053">
        <ele>461</ele>
        <time>2015-04-08T14:10:20Z</time>
      </trkpt>
      <trkpt lat="46.15655" lon="2.43049">
        <ele>461</ele>
        <time>2015-04-08T14:10:22Z</time>
      </trkpt>
      <trkpt lat="46.15657" lon="2.43045">
        <ele>461</ele>
        <time>2015-04-08T14:10:24Z</time>
      </trkpt>
      <trkpt lat="46.15659" lon="2.43042">
        <ele>460</ele>
        <time>2015-04-08T14:10:26Z</time>
      </trkpt>
      <trkpt lat="46.15661" lon="2.43038">
        <ele>460</ele>
        <time>2015-04-08T14:10:28Z</time>
      </trkpt>
      <trkpt lat="46.15663" lon="2.43035">
        <ele>460</ele>
        <time>2015-04-08T14:10:30Z</time>
      </trkpt>
      <trkpt lat="46.15665" lon="2.43031">
        <ele>459</ele>
        <time>2015-04-08T14:10:32Z</time>
      </trkpt>
      <trkpt lat="46.15667" lon="2.43027">
        <ele>459</ele>
        <time>2015-04-08T14:10:34Z</time>
      </trkpt>
      <trkpt lat="46.1567" lon="2.43024">
        <ele>459</ele>
        <time>2015-04-08T14:10:36Z</time>
      </trkpt>
      <trkpt lat="46.15673" lon="2.43021">
        <ele>459</ele>
        <time>2015-04-08T14:10:38Z</time>
      </trkpt>
      <trkpt lat="46.15675" lon="2.43017">
        <ele>459</ele>
        <time>2015-04-08T14:10:40Z</time>
      </trkpt>
      <trkpt lat="46.15677" lon="2.43014">
        <ele>458</ele>
        <time>2015-04-08T14:10:42Z</time>
      </trkpt>
      <trkpt lat="46.15678" lon="2.4301">
        <ele>458</ele>
        <time>2015-04-08T14:10:44Z</time>
      </trkpt>
      <trkpt lat="46.1568" lon="2.43006">
        <ele>458</ele>
        <time>2015-04-08T14:10:46Z</time>
      </trkpt>
      <trkpt lat="46.15683" lon="2.43003">
        <ele>458</ele>
        <time>2015-04-08T14:10:48Z</time>
      </trkpt>
      <trkpt lat="46.15685" lon="2.43">
        <ele>458</ele>
        <time>2015-04-08T14:10:50Z</time>
      </trkpt>
      <trkpt lat="46.15686" lon="2.42997">
        <ele>458</ele>
        <time>2015-04-08T14:10:52Z</time>
      </trkpt>
      <trkpt lat="46.15689" lon="2.42994">
        <ele>458</ele>
        <time>2015-04-08T14:10:54Z</time>
      </trkpt>
      <trkpt lat="46.15691" lon="2.4299">
        <ele>458</ele>
        <time>2015-04-08T14:10:56Z</time>
      </trkpt>
      <trkpt lat="46.15694" lon="2.42986">
        <ele>458</ele>
        <time>2015-04-08T14:10:59Z</time>
      </trkpt>
      <trkpt lat="46.15696" lon="2.42982">
        <ele>458</ele>
        <time>2015-04-08T14:11:01Z</time>
      </trkpt>
      <trkpt lat="46.15699" lon="2.42977">
        <ele>458</ele>
        <time>2015-04-08T14:11:04Z</time>
      </trkpt>
      <trkpt lat="46.157" lon="2.42974">
        <ele>458</ele>
        <time>2015-04-08T14:11:06Z</time>
      </trkpt>
      <trkpt lat="46.15702" lon="2.4297">
        <ele>458</ele>
        <time>2015-04-08T14:11:08Z</time>
      </trkpt>
      <trkpt lat="46.15702" lon="2.42966">
        <ele>458</ele>
        <time>2015-04-08T14:11:10Z</time>
      </trkpt>
      <trkpt lat="46.15703" lon="2.42962">
        <ele>458</ele>
        <time>2015-04-08T14:11:12Z</time>
      </trkpt>
      <trkpt lat="46.15704" lon="2.42957">
        <ele>458</ele>
        <time>2015-04-08T14:11:14Z</time>
      </trkpt>
      <trkpt lat="46.15704" lon="2.42953">
        <ele>458</ele>
        <time>2015-04-08T14:11:16Z</time>
      </trkpt>
      <trkpt lat="46.15704" lon="2.42949">
        <ele>458</ele>
        <time>2015-04-08T14:11:18Z</time>
      </trkpt>
      <trkpt lat="46.15704" lon="2.42944">
        <ele>458</ele>
        <time>2015-04-08T14:11:20Z</time>
      </trkpt>
      <trkpt lat="46.15704" lon="2.4294">
        <ele>458</ele>
        <time>2015-04-08T14:11:22Z</time>
      </trkpt>
      <trkpt lat="46.15704" lon="2.42935">
        <ele>458</ele>
        <time>2015-04-08T14:11:24Z</time>
      </trkpt>
      <trkpt lat="46.15704" lon="2.42931">
        <ele>458</ele>
        <time>2015-04-08T14:11:26Z</time>
      </trkpt>
      <trkpt lat="46.15704" lon="2.42926">
        <ele>458</ele>
        <time>2015-04-08T14:11:28Z</time>
      </trkpt>
      <trkpt lat="46.15704" lon="2.42922">
        <ele>458</ele>
        <time>2015-04-08T14:11:30Z</time>
      </trkpt>
      <trkpt lat="46.15705" lon="2.42917">
        <ele>458</ele>
        <time>2015-04-08T14:11:32Z</time>
      </trkpt>
      <trkpt lat="46.15706" lon="2.42914">
        <ele>458</ele>
        <time>2015-04-08T14:11:34Z</time>
      </trkpt>
      <trkpt lat="46.15708" lon="2.4291">
        <ele>458</ele>
        <time>2015-04-08T14:11:36Z</time>
      </trkpt>
      <trkpt lat="46.1571" lon="2.42906">
        <ele>458</ele>
        <time>2015-04-08T14:11:38Z</time>
      </trkpt>
      <trkpt lat="46.15712" lon="2.42902">
        <ele>458</ele>
        <time>2015-04-08T14:11:40Z</time>
      </trkpt>
      <trkpt lat="46.15713" lon="2.42899">
        <ele>458</ele>
        <time>2015-04-08T14:11:42Z</time>
      </trkpt>
      <trkpt lat="46.15715" lon="2.42895">
        <ele>458</ele>
        <time>2015-04-08T14:11:44Z</time>
      </trkpt>
      <trkpt lat="46.15717" lon="2.42892">
        <ele>458</ele>
        <time>2015-04-08T14:11:46Z</time>
      </trkpt>
      <trkpt lat="46.15719" lon="2.42887">
        <ele>457</ele>
        <time>2015-04-08T14:11:48Z</time>
      </trkpt>
      <trkpt lat="46.1572" lon="2.42884">
        <ele>457</ele>
        <time>2015-04-08T14:11:50Z</time>
      </trkpt>
      <trkpt lat="46.15722" lon="2.4288">
        <ele>457</ele>
        <time>2015-04-08T14:11:52Z</time>
      </trkpt>
      <trkpt lat="46.15724" lon="2.42875">
        <ele>457</ele>
        <time>2015-04-08T14:11:54Z</time>
      </trkpt>
      <trkpt lat="46.15726" lon="2.42871">
        <ele>457</ele>
        <time>2015-04-08T14:11:56Z</time>
      </trkpt>
      <trkpt lat="46.15728" lon="2.42866">
        <ele>457</ele>
        <time>2015-04-08T14:11:58Z</time>
      </trkpt>
      <trkpt lat="46.1573" lon="2.42862">
        <ele>457</ele>
        <time>2015-04-08T14:12:00Z</time>
      </trkpt>
      <trkpt lat="46.15731" lon="2.42858">
        <ele>457</ele>
        <time>2015-04-08T14:12:02Z</time>
      </trkpt>
      <trkpt lat="46.15733" lon="2.42854">
        <ele>457</ele>
        <time>2015-04-08T14:12:04Z</time>
      </trkpt>
      <trkpt lat="46.15735" lon="2.4285">
        <ele>457</ele>
        <time>2015-04-08T14:12:06Z</time>
      </trkpt>
      <trkpt lat="46.15736" lon="2.42847">
        <ele>457</ele>
        <time>2015-04-08T14:12:08Z</time>
      </trkpt>
      <trkpt lat="46.15739" lon="2.42844">
        <ele>457</ele>
        <time>2015-04-08T14:12:10Z</time>
      </trkpt>
      <trkpt lat="46.15742" lon="2.4284">
        <ele>456</ele>
        <time>2015-04-08T14:12:13Z</time>
      </trkpt>
      <trkpt lat="46.15745" lon="2.42836">
        <ele>456</ele>
        <time>2015-04-08T14:12:15Z</time>
      </trkpt>
      <trkpt lat="46.15747" lon="2.42833">
        <ele>456</ele>
        <time>2015-04-08T14:12:17Z</time>
      </trkpt>
      <trkpt lat="46.15749" lon="2.42829">
        <ele>456</ele>
        <time>2015-04-08T14:12:19Z</time>
      </trkpt>
      <trkpt lat="46.15751" lon="2.42826">
        <ele>456</ele>
        <time>2015-04-08T14:12:21Z</time>
      </trkpt>
      <trkpt lat="46.15752" lon="2.42823">
        <ele>456</ele>
        <time>2015-04-08T14:12:23Z</time>
      </trkpt>
      <trkpt lat="46.15755" lon="2.4282">
        <ele>456</ele>
        <time>2015-04-08T14:12:25Z</time>
      </trkpt>
      <trkpt lat="46.15756" lon="2.42816">
        <ele>456</ele>
        <time>2015-04-08T14:12:27Z</time>
      </trkpt>
      <trkpt lat="46.15758" lon="2.42813">
        <ele>456</ele>
        <time>2015-04-08T14:12:29Z</time>
      </trkpt>
      <trkpt lat="46.1576" lon="2.4281">
        <ele>456</ele>
        <time>2015-04-08T14:12:31Z</time>
      </trkpt>
      <trkpt lat="46.15761" lon="2.42806">
        <ele>456</ele>
        <time>2015-04-08T14:12:33Z</time>
      </trkpt>
      <trkpt lat="46.15763" lon="2.42803">
        <ele>456</ele>
        <time>2015-04-08T14:12:35Z</time>
      </trkpt>
      <trkpt lat="46.15764" lon="2.42798">
        <ele>456</ele>
        <time>2015-04-08T14:12:38Z</time>
      </trkpt>
      <trkpt lat="46.15765" lon="2.42796">
        <ele>456</ele>
        <time>2015-04-08T14:12:40Z</time>
      </trkpt>
      <trkpt lat="46.15768" lon="2.42794">
        <ele>456</ele>
        <time>2015-04-08T14:12:42Z</time>
      </trkpt>
      <trkpt lat="46.1577" lon="2.42792">
        <ele>456</ele>
        <time>2015-04-08T14:12:44Z</time>
      </trkpt>
      <trkpt lat="46.15773" lon="2.42791">
        <ele>456</ele>
        <time>2015-04-08T14:12:46Z</time>
      </trkpt>
      <trkpt lat="46.15775" lon="2.4279">
        <ele>456</ele>
        <time>2015-04-08T14:12:48Z</time>
      </trkpt>
      <trkpt lat="46.15778" lon="2.42789">
        <ele>456</ele>
        <time>2015-04-08T14:12:50Z</time>
      </trkpt>
      <trkpt lat="46.15781" lon="2.42788">
        <ele>456</ele>
        <time>2015-04-08T14:12:53Z</time>
      </trkpt>
      <trkpt lat="46.15782" lon="2.42788">
        <ele>456</ele>
        <time>2015-04-08T14:12:55Z</time>
      </trkpt>
      <trkpt lat="46.15783" lon="2.42787">
        <ele>456</ele>
        <time>2015-04-08T14:13:07Z</time>
      </trkpt>
      <trkpt lat="46.15783" lon="2.42785">
        <ele>456</ele>
        <time>2015-04-08T14:13:09Z</time>
      </trkpt>
      <trkpt lat="46.15784" lon="2.42783">
        <ele>456</ele>
        <time>2015-04-08T14:13:11Z</time>
      </trkpt>
      <trkpt lat="46.15785" lon="2.42781">
        <ele>456</ele>
        <time>2015-04-08T14:13:14Z</time>
      </trkpt>
      <trkpt lat="46.15786" lon="2.42779">
        <ele>456</ele>
        <time>2015-04-08T14:13:20Z</time>
      </trkpt>
      <trkpt lat="46.15786" lon="2.42778">
        <ele>456</ele>
        <time>2015-04-08T14:13:23Z</time>
      </trkpt>
      <trkpt lat="46.15788" lon="2.42777">
        <ele>456</ele>
        <time>2015-04-08T14:13:28Z</time>
      </trkpt>
      <trkpt lat="46.15789" lon="2.42777">
        <ele>456</ele>
        <time>2015-04-08T14:13:30Z</time>
      </trkpt>
      <trkpt lat="46.15791" lon="2.42778">
        <ele>456</ele>
        <time>2015-04-08T14:13:39Z</time>
      </trkpt>
      <trkpt lat="46.15792" lon="2.42779">
        <ele>456</ele>
        <time>2015-04-08T14:13:44Z</time>
      </trkpt>
      <trkpt lat="46.15794" lon="2.4278">
        <ele>455</ele>
        <time>2015-04-08T14:14:07Z</time>
      </trkpt>
      <trkpt lat="46.15795" lon="2.42779">
        <ele>458</ele>
        <time>2015-04-08T14:14:13Z</time>
      </trkpt>
      <trkpt lat="46.15794" lon="2.42779">
        <ele>459</ele>
        <time>2015-04-08T14:14:39Z</time>
      </trkpt>
      <trkpt lat="46.15792" lon="2.42778">
        <ele>457</ele>
        <time>2015-04-08T14:15:18Z</time>
      </trkpt>
      <trkpt lat="46.15791" lon="2.42779">
        <ele>454</ele>
        <time>2015-04-08T14:15:25Z</time>
      </trkpt>
      <trkpt lat="46.1579" lon="2.4278">
        <ele>454</ele>
        <time>2015-04-08T14:15:39Z</time>
      </trkpt>
      <trkpt lat="46.1579" lon="2.42782">
        <ele>454</ele>
        <time>2015-04-08T14:15:41Z</time>
      </trkpt>
      <trkpt lat="46.15789" lon="2.42782">
        <ele>455</ele>
        <time>2015-04-08T14:15:55Z</time>
      </trkpt>
      <trkpt lat="46.15788" lon="2.42783">
        <ele>456</ele>
        <time>2015-04-08T14:15:59Z</time>
      </trkpt>
      <trkpt lat="46.15786" lon="2.42784">
        <ele>456</ele>
        <time>2015-04-08T14:16:01Z</time>
      </trkpt>
      <trkpt lat="46.15784" lon="2.42786">
        <ele>456</ele>
        <time>2015-04-08T14:16:03Z</time>
      </trkpt>
      <trkpt lat="46.15783" lon="2.42787">
        <ele>456</ele>
        <time>2015-04-08T14:16:28Z</time>
      </trkpt>
      <trkpt lat="46.1578" lon="2.42788">
        <ele>456</ele>
        <time>2015-04-08T14:16:30Z</time>
      </trkpt>
      <trkpt lat="46.15778" lon="2.42789">
        <ele>456</ele>
        <time>2015-04-08T14:16:32Z</time>
      </trkpt>
      <trkpt lat="46.15776" lon="2.4279">
        <ele>456</ele>
        <time>2015-04-08T14:16:34Z</time>
      </trkpt>
      <trkpt lat="46.15772" lon="2.42792">
        <ele>456</ele>
        <time>2015-04-08T14:16:37Z</time>
      </trkpt>
      <trkpt lat="46.1577" lon="2.42794">
        <ele>456</ele>
        <time>2015-04-08T14:16:39Z</time>
      </trkpt>
      <trkpt lat="46.15767" lon="2.42796">
        <ele>456</ele>
        <time>2015-04-08T14:16:41Z</time>
      </trkpt>
      <trkpt lat="46.15764" lon="2.42799">
        <ele>456</ele>
        <time>2015-04-08T14:16:44Z</time>
      </trkpt>
      <trkpt lat="46.15763" lon="2.42801">
        <ele>456</ele>
        <time>2015-04-08T14:16:46Z</time>
      </trkpt>
      <trkpt lat="46.15763" lon="2.42799">
        <ele>456</ele>
        <time>2015-04-08T14:17:00Z</time>
      </trkpt>
      <trkpt lat="46.15765" lon="2.42798">
        <ele>456</ele>
        <time>2015-04-08T14:17:02Z</time>
      </trkpt>
      <trkpt lat="46.15763" lon="2.42799">
        <ele>456</ele>
        <time>2015-04-08T14:17:08Z</time>
      </trkpt>
      <trkpt lat="46.15762" lon="2.42803">
        <ele>456</ele>
        <time>2015-04-08T14:17:10Z</time>
      </trkpt>
      <trkpt lat="46.1576" lon="2.42807">
        <ele>456</ele>
        <time>2015-04-08T14:17:12Z</time>
      </trkpt>
      <trkpt lat="46.15758" lon="2.4281">
        <ele>456</ele>
        <time>2015-04-08T14:17:14Z</time>
      </trkpt>
      <trkpt lat="46.15756" lon="2.42813">
        <ele>456</ele>
        <time>2015-04-08T14:17:16Z</time>
      </trkpt>
      <trkpt lat="46.15754" lon="2.42818">
        <ele>456</ele>
        <time>2015-04-08T14:17:19Z</time>
      </trkpt>
      <trkpt lat="46.15752" lon="2.42821">
        <ele>456</ele>
        <time>2015-04-08T14:17:21Z</time>
      </trkpt>
      <trkpt lat="46.1575" lon="2.42824">
        <ele>456</ele>
        <time>2015-04-08T14:17:23Z</time>
      </trkpt>
      <trkpt lat="46.15749" lon="2.42827">
        <ele>456</ele>
        <time>2015-04-08T14:17:25Z</time>
      </trkpt>
      <trkpt lat="46.15749" lon="2.42828">
        <ele>456</ele>
        <time>2015-04-08T14:17:27Z</time>
      </trkpt>
      <trkpt lat="46.15748" lon="2.4283">
        <ele>456</ele>
        <time>2015-04-08T14:17:31Z</time>
      </trkpt>
      <trkpt lat="46.15746" lon="2.42833">
        <ele>456</ele>
        <time>2015-04-08T14:17:33Z</time>
      </trkpt>
      <trkpt lat="46.15744" lon="2.42837">
        <ele>456</ele>
        <time>2015-04-08T14:17:35Z</time>
      </trkpt>
      <trkpt lat="46.15743" lon="2.42841">
        <ele>456</ele>
        <time>2015-04-08T14:17:37Z</time>
      </trkpt>
      <trkpt lat="46.15741" lon="2.42845">
        <ele>456</ele>
        <time>2015-04-08T14:17:39Z</time>
      </trkpt>
      <trkpt lat="46.1574" lon="2.42849">
        <ele>456</ele>
        <time>2015-04-08T14:17:41Z</time>
      </trkpt>
      <trkpt lat="46.15738" lon="2.42852">
        <ele>456</ele>
        <time>2015-04-08T14:17:43Z</time>
      </trkpt>
      <trkpt lat="46.15736" lon="2.42856">
        <ele>456</ele>
        <time>2015-04-08T14:17:45Z</time>
      </trkpt>
      <trkpt lat="46.15734" lon="2.4286">
        <ele>456</ele>
        <time>2015-04-08T14:17:47Z</time>
      </trkpt>
      <trkpt lat="46.15733" lon="2.42863">
        <ele>456</ele>
        <time>2015-04-08T14:17:49Z</time>
      </trkpt>
      <trkpt lat="46.1573" lon="2.42867">
        <ele>456</ele>
        <time>2015-04-08T14:17:51Z</time>
      </trkpt>
      <trkpt lat="46.15728" lon="2.42872">
        <ele>456</ele>
        <time>2015-04-08T14:17:53Z</time>
      </trkpt>
      <trkpt lat="46.15725" lon="2.42877">
        <ele>456</ele>
        <time>2015-04-08T14:17:55Z</time>
      </trkpt>
      <trkpt lat="46.15723" lon="2.42881">
        <ele>456</ele>
        <time>2015-04-08T14:17:57Z</time>
      </trkpt>
      <trkpt lat="46.15721" lon="2.42885">
        <ele>456</ele>
        <time>2015-04-08T14:17:59Z</time>
      </trkpt>
      <trkpt lat="46.1572" lon="2.42888">
        <ele>456</ele>
        <time>2015-04-08T14:18:01Z</time>
      </trkpt>
      <trkpt lat="46.15718" lon="2.42891">
        <ele>456</ele>
        <time>2015-04-08T14:18:03Z</time>
      </trkpt>
      <trkpt lat="46.15715" lon="2.42895">
        <ele>456</ele>
        <time>2015-04-08T14:18:06Z</time>
      </trkpt>
      <trkpt lat="46.15714" lon="2.42899">
        <ele>456</ele>
        <time>2015-04-08T14:18:08Z</time>
      </trkpt>
      <trkpt lat="46.15711" lon="2.42903">
        <ele>456</ele>
        <time>2015-04-08T14:18:11Z</time>
      </trkpt>
      <trkpt lat="46.15709" lon="2.42905">
        <ele>456</ele>
        <time>2015-04-08T14:18:13Z</time>
      </trkpt>
      <trkpt lat="46.15707" lon="2.42909">
        <ele>456</ele>
        <time>2015-04-08T14:18:15Z</time>
      </trkpt>
      <trkpt lat="46.15705" lon="2.42913">
        <ele>456</ele>
        <time>2015-04-08T14:18:17Z</time>
      </trkpt>
      <trkpt lat="46.15703" lon="2.42916">
        <ele>456</ele>
        <time>2015-04-08T14:18:19Z</time>
      </trkpt>
      <trkpt lat="46.15702" lon="2.42921">
        <ele>456</ele>
        <time>2015-04-08T14:18:21Z</time>
      </trkpt>
      <trkpt lat="46.15702" lon="2.42926">
        <ele>456</ele>
        <time>2015-04-08T14:18:23Z</time>
      </trkpt>
      <trkpt lat="46.15702" lon="2.4293">
        <ele>456</ele>
        <time>2015-04-08T14:18:25Z</time>
      </trkpt>
      <trkpt lat="46.15702" lon="2.42934">
        <ele>456</ele>
        <time>2015-04-08T14:18:27Z</time>
      </trkpt>
      <trkpt lat="46.15703" lon="2.42938">
        <ele>456</ele>
        <time>2015-04-08T14:18:29Z</time>
      </trkpt>
      <trkpt lat="46.15703" lon="2.42942">
        <ele>457</ele>
        <time>2015-04-08T14:18:31Z</time>
      </trkpt>
      <trkpt lat="46.15703" lon="2.42946">
        <ele>457</ele>
        <time>2015-04-08T14:18:33Z</time>
      </trkpt>
      <trkpt lat="46.15703" lon="2.4295">
        <ele>457</ele>
        <time>2015-04-08T14:18:35Z</time>
      </trkpt>
      <trkpt lat="46.15702" lon="2.42954">
        <ele>457</ele>
        <time>2015-04-08T14:18:37Z</time>
      </trkpt>
      <trkpt lat="46.15701" lon="2.42958">
        <ele>457</ele>
        <time>2015-04-08T14:18:39Z</time>
      </trkpt>
      <trkpt lat="46.157" lon="2.42962">
        <ele>457</ele>
        <time>2015-04-08T14:18:41Z</time>
      </trkpt>
      <trkpt lat="46.15699" lon="2.42966">
        <ele>457</ele>
        <time>2015-04-08T14:18:43Z</time>
      </trkpt>
      <trkpt lat="46.15699" lon="2.42969">
        <ele>457</ele>
        <time>2015-04-08T14:18:45Z</time>
      </trkpt>
      <trkpt lat="46.15697" lon="2.42973">
        <ele>457</ele>
        <time>2015-04-08T14:18:47Z</time>
      </trkpt>
      <trkpt lat="46.15699" lon="2.42976">
        <ele>457</ele>
        <time>2015-04-08T14:18:49Z</time>
      </trkpt>
      <trkpt lat="46.157" lon="2.42979">
        <ele>457</ele>
        <time>2015-04-08T14:18:51Z</time>
      </trkpt>
      <trkpt lat="46.157" lon="2.42982">
        <ele>457</ele>
        <time>2015-04-08T14:18:53Z</time>
      </trkpt>
      <trkpt lat="46.15699" lon="2.42984">
        <ele>457</ele>
        <time>2015-04-08T14:18:55Z</time>
      </trkpt>
      <trkpt lat="46.15699" lon="2.42986">
        <ele>457</ele>
        <time>2015-04-08T14:18:57Z</time>
      </trkpt>
      <trkpt lat="46.15699" lon="2.42989">
        <ele>457</ele>
        <time>2015-04-08T14:18:59Z</time>
      </trkpt>
      <trkpt lat="46.15699" lon="2.42991">
        <ele>457</ele>
        <time>2015-04-08T14:19:01Z</time>
      </trkpt>
      <trkpt lat="46.15701" lon="2.42996">
        <ele>457</ele>
        <time>2015-04-08T14:19:04Z</time>
      </trkpt>
      <trkpt lat="46.15702" lon="2.42999">
        <ele>457</ele>
        <time>2015-04-08T14:19:06Z</time>
      </trkpt>
      <trkpt lat="46.15703" lon="2.43003">
        <ele>457</ele>
        <time>2015-04-08T14:19:08Z</time>
      </trkpt>
      <trkpt lat="46.15704" lon="2.43006">
        <ele>457</ele>
        <time>2015-04-08T14:19:10Z</time>
      </trkpt>
      <trkpt lat="46.15705" lon="2.43009">
        <ele>457</ele>
        <time>2015-04-08T14:19:12Z</time>
      </trkpt>
      <trkpt lat="46.15706" lon="2.43013">
        <ele>457</ele>
        <time>2015-04-08T14:19:14Z</time>
      </trkpt>
      <trkpt lat="46.15707" lon="2.43017">
        <ele>457</ele>
        <time>2015-04-08T14:19:16Z</time>
      </trkpt>
      <trkpt lat="46.15707" lon="2.43021">
        <ele>457</ele>
        <time>2015-04-08T14:19:18Z</time>
      </trkpt>
      <trkpt lat="46.15708" lon="2.43024">
        <ele>457</ele>
        <time>2015-04-08T14:19:20Z</time>
      </trkpt>
      <trkpt lat="46.15708" lon="2.43028">
        <ele>457</ele>
        <time>2015-04-08T14:19:22Z</time>
      </trkpt>
      <trkpt lat="46.15709" lon="2.43032">
        <ele>457</ele>
        <time>2015-04-08T14:19:24Z</time>
      </trkpt>
      <trkpt lat="46.15709" lon="2.43036">
        <ele>457</ele>
        <time>2015-04-08T14:19:26Z</time>
      </trkpt>
      <trkpt lat="46.1571" lon="2.43039">
        <ele>457</ele>
        <time>2015-04-08T14:19:28Z</time>
      </trkpt>
      <trkpt lat="46.1571" lon="2.43044">
        <ele>457</ele>
        <time>2015-04-08T14:19:30Z</time>
      </trkpt>
      <trkpt lat="46.15711" lon="2.43048">
        <ele>457</ele>
        <time>2015-04-08T14:19:32Z</time>
      </trkpt>
      <trkpt lat="46.15712" lon="2.43052">
        <ele>456</ele>
        <time>2015-04-08T14:19:35Z</time>
      </trkpt>
      <trkpt lat="46.15712" lon="2.43056">
        <ele>456</ele>
        <time>2015-04-08T14:19:37Z</time>
      </trkpt>
      <trkpt lat="46.15713" lon="2.43059">
        <ele>455</ele>
        <time>2015-04-08T14:19:39Z</time>
      </trkpt>
      <trkpt lat="46.15713" lon="2.43064">
        <ele>455</ele>
        <time>2015-04-08T14:19:41Z</time>
      </trkpt>
      <trkpt lat="46.15713" lon="2.43068">
        <ele>454</ele>
        <time>2015-04-08T14:19:43Z</time>
      </trkpt>
      <trkpt lat="46.15714" lon="2.43073">
        <ele>454</ele>
        <time>2015-04-08T14:19:45Z</time>
      </trkpt>
      <trkpt lat="46.15713" lon="2.43078">
        <ele>453</ele>
        <time>2015-04-08T14:19:47Z</time>
      </trkpt>
      <trkpt lat="46.15713" lon="2.43082">
        <ele>453</ele>
        <time>2015-04-08T14:19:49Z</time>
      </trkpt>
      <trkpt lat="46.15713" lon="2.43086">
        <ele>453</ele>
        <time>2015-04-08T14:19:51Z</time>
      </trkpt>
      <trkpt lat="46.15713" lon="2.4309">
        <ele>453</ele>
        <time>2015-04-08T14:19:53Z</time>
      </trkpt>
      <trkpt lat="46.15714" lon="2.43095">
        <ele>453</ele>
        <time>2015-04-08T14:19:55Z</time>
      </trkpt>
      <trkpt lat="46.15714" lon="2.43099">
        <ele>453</ele>
        <time>2015-04-08T14:19:57Z</time>
      </trkpt>
      <trkpt lat="46.15714" lon="2.43102">
        <ele>453</ele>
        <time>2015-04-08T14:19:59Z</time>
      </trkpt>
      <trkpt lat="46.15715" lon="2.43106">
        <ele>453</ele>
        <time>2015-04-08T14:20:01Z</time>
      </trkpt>
      <trkpt lat="46.15715" lon="2.4311">
        <ele>453</ele>
        <time>2015-04-08T14:20:03Z</time>
      </trkpt>
      <trkpt lat="46.15715" lon="2.43113">
        <ele>453</ele>
        <time>2015-04-08T14:20:05Z</time>
      </trkpt>
      <trkpt lat="46.15716" lon="2.43117">
        <ele>453</ele>
        <time>2015-04-08T14:20:07Z</time>
      </trkpt>
      <trkpt lat="46.15717" lon="2.4312">
        <ele>452</ele>
        <time>2015-04-08T14:20:09Z</time>
      </trkpt>
      <trkpt lat="46.15717" lon="2.43124">
        <ele>452</ele>
        <time>2015-04-08T14:20:11Z</time>
      </trkpt>
      <trkpt lat="46.15718" lon="2.43128">
        <ele>452</ele>
        <time>2015-04-08T14:20:13Z</time>
      </trkpt>
      <trkpt lat="46.15718" lon="2.43131">
        <ele>452</ele>
        <time>2015-04-08T14:20:15Z</time>
      </trkpt>
      <trkpt lat="46.15719" lon="2.43135">
        <ele>452</ele>
        <time>2015-04-08T14:20:17Z</time>
      </trkpt>
      <trkpt lat="46.15719" lon="2.4314">
        <ele>452</ele>
        <time>2015-04-08T14:20:19Z</time>
      </trkpt>
      <trkpt lat="46.15719" lon="2.43143">
        <ele>452</ele>
        <time>2015-04-08T14:20:21Z</time>
      </trkpt>
      <trkpt lat="46.15719" lon="2.43146">
        <ele>451</ele>
        <time>2015-04-08T14:20:23Z</time>
      </trkpt>
      <trkpt lat="46.15719" lon="2.4315">
        <ele>451</ele>
        <time>2015-04-08T14:20:25Z</time>
      </trkpt>
      <trkpt lat="46.15719" lon="2.43154">
        <ele>451</ele>
        <time>2015-04-08T14:20:27Z</time>
      </trkpt>
      <trkpt lat="46.15719" lon="2.43157">
        <ele>451</ele>
        <time>2015-04-08T14:20:29Z</time>
      </trkpt>
      <trkpt lat="46.1572" lon="2.43161">
        <ele>451</ele>
        <time>2015-04-08T14:20:31Z</time>
      </trkpt>
      <trkpt lat="46.1572" lon="2.43164">
        <ele>451</ele>
        <time>2015-04-08T14:20:33Z</time>
      </trkpt>
      <trkpt lat="46.15721" lon="2.43168">
        <ele>451</ele>
        <time>2015-04-08T14:20:35Z</time>
      </trkpt>
      <trkpt lat="46.15721" lon="2.43173">
        <ele>451</ele>
        <time>2015-04-08T14:20:37Z</time>
      </trkpt>
      <trkpt lat="46.15721" lon="2.43177">
        <ele>451</ele>
        <time>2015-04-08T14:20:39Z</time>
      </trkpt>
      <trkpt lat="46.1572" lon="2.43183">
        <ele>451</ele>
        <time>2015-04-08T14:20:41Z</time>
      </trkpt>
      <trkpt lat="46.1572" lon="2.43188">
        <ele>451</ele>
        <time>2015-04-08T14:20:43Z</time>
      </trkpt>
      <trkpt lat="46.1572" lon="2.43192">
        <ele>451</ele>
        <time>2015-04-08T14:20:45Z</time>
      </trkpt>
      <trkpt lat="46.15719" lon="2.43195">
        <ele>451</ele>
        <time>2015-04-08T14:20:47Z</time>
      </trkpt>
      <trkpt lat="46.15719" lon="2.43199">
        <ele>451</ele>
        <time>2015-04-08T14:20:49Z</time>
      </trkpt>
      <trkpt lat="46.15718" lon="2.43203">
        <ele>451</ele>
        <time>2015-04-08T14:20:51Z</time>
      </trkpt>
      <trkpt lat="46.15717" lon="2.43207">
        <ele>451</ele>
        <time>2015-04-08T14:20:53Z</time>
      </trkpt>
      <trkpt lat="46.15718" lon="2.4321">
        <ele>451</ele>
        <time>2015-04-08T14:20:55Z</time>
      </trkpt>
      <trkpt lat="46.15716" lon="2.43215">
        <ele>451</ele>
        <time>2015-04-08T14:20:57Z</time>
      </trkpt>
      <trkpt lat="46.15715" lon="2.43219">
        <ele>451</ele>
        <time>2015-04-08T14:20:59Z</time>
      </trkpt>
      <trkpt lat="46.15715" lon="2.43223">
        <ele>451</ele>
        <time>2015-04-08T14:21:01Z</time>
      </trkpt>
      <trkpt lat="46.15715" lon="2.43227">
        <ele>451</ele>
        <time>2015-04-08T14:21:03Z</time>
      </trkpt>
      <trkpt lat="46.15715" lon="2.43231">
        <ele>451</ele>
        <time>2015-04-08T14:21:05Z</time>
      </trkpt>
      <trkpt lat="46.15714" lon="2.43234">
        <ele>451</ele>
        <time>2015-04-08T14:21:07Z</time>
      </trkpt>
      <trkpt lat="46.15714" lon="2.43239">
        <ele>451</ele>
        <time>2015-04-08T14:21:09Z</time>
      </trkpt>
      <trkpt lat="46.15713" lon="2.43243">
        <ele>451</ele>
        <time>2015-04-08T14:21:11Z</time>
      </trkpt>
      <trkpt lat="46.15712" lon="2.43248">
        <ele>451</ele>
        <time>2015-04-08T14:21:14Z</time>
      </trkpt>
      <trkpt lat="46.15712" lon="2.43252">
        <ele>451</ele>
        <time>2015-04-08T14:21:16Z</time>
      </trkpt>
      <trkpt lat="46.15712" lon="2.43255">
        <ele>451</ele>
        <time>2015-04-08T14:21:18Z</time>
      </trkpt>
      <trkpt lat="46.15712" lon="2.43259">
        <ele>451</ele>
        <time>2015-04-08T14:21:20Z</time>
      </trkpt>
      <trkpt lat="46.15712" lon="2.43263">
        <ele>451</ele>
        <time>2015-04-08T14:21:22Z</time>
      </trkpt>
      <trkpt lat="46.15712" lon="2.43266">
        <ele>451</ele>
        <time>2015-04-08T14:21:24Z</time>
      </trkpt>
      <trkpt lat="46.15712" lon="2.43271">
        <ele>451</ele>
        <time>2015-04-08T14:21:26Z</time>
      </trkpt>
      <trkpt lat="46.15712" lon="2.43274">
        <ele>451</ele>
        <time>2015-04-08T14:21:28Z</time>
      </trkpt>
      <trkpt lat="46.15712" lon="2.43277">
        <ele>451</ele>
        <time>2015-04-08T14:21:30Z</time>
      </trkpt>
      <trkpt lat="46.15712" lon="2.43281">
        <ele>451</ele>
        <time>2015-04-08T14:21:32Z</time>
      </trkpt>
      <trkpt lat="46.15711" lon="2.43287">
        <ele>451</ele>
        <time>2015-04-08T14:21:34Z</time>
      </trkpt>
      <trkpt lat="46.1571" lon="2.43291">
        <ele>451</ele>
        <time>2015-04-08T14:21:36Z</time>
      </trkpt>
      <trkpt lat="46.1571" lon="2.43296">
        <ele>453</ele>
        <time>2015-04-08T14:21:38Z</time>
      </trkpt>
      <trkpt lat="46.1571" lon="2.433">
        <ele>455</ele>
        <time>2015-04-08T14:21:40Z</time>
      </trkpt>
      <trkpt lat="46.15709" lon="2.43303">
        <ele>455</ele>
        <time>2015-04-08T14:21:42Z</time>
      </trkpt>
      <trkpt lat="46.1571" lon="2.43307">
        <ele>456</ele>
        <time>2015-04-08T14:21:44Z</time>
      </trkpt>
      <trkpt lat="46.1571" lon="2.4331">
        <ele>457</ele>
        <time>2015-04-08T14:21:46Z</time>
      </trkpt>
      <trkpt lat="46.1571" lon="2.43314">
        <ele>457</ele>
        <time>2015-04-08T14:21:48Z</time>
      </trkpt>
      <trkpt lat="46.15709" lon="2.43318">
        <ele>459</ele>
        <time>2015-04-08T14:21:51Z</time>
      </trkpt>
      <trkpt lat="46.15708" lon="2.4332">
        <ele>464</ele>
        <time>2015-04-08T14:21:56Z</time>
      </trkpt>
      <trkpt lat="46.15707" lon="2.43321">
        <ele>468</ele>
        <time>2015-04-08T14:22:00Z</time>
      </trkpt>
      <trkpt lat="46.15708" lon="2.43323">
        <ele>470</ele>
        <time>2015-04-08T14:22:03Z</time>
      </trkpt>
      <trkpt lat="46.1571" lon="2.43326">
        <ele>471</ele>
        <time>2015-04-08T14:22:05Z</time>
      </trkpt>
      <trkpt lat="46.15713" lon="2.43328">
        <ele>471</ele>
        <time>2015-04-08T14:22:08Z</time>
      </trkpt>
      <trkpt lat="46.15715" lon="2.43328">
        <ele>471</ele>
        <time>2015-04-08T14:22:10Z</time>
      </trkpt>
      <trkpt lat="46.15718" lon="2.43329">
        <ele>471</ele>
        <time>2015-04-08T14:22:13Z</time>
      </trkpt>
      <trkpt lat="46.15721" lon="2.4333">
        <ele>471</ele>
        <time>2015-04-08T14:22:15Z</time>
      </trkpt>
      <trkpt lat="46.15725" lon="2.43331">
        <ele>471</ele>
        <time>2015-04-08T14:22:18Z</time>
      </trkpt>
      <trkpt lat="46.15727" lon="2.43331">
        <ele>471</ele>
        <time>2015-04-08T14:22:20Z</time>
      </trkpt>
      <trkpt lat="46.1573" lon="2.43331">
        <ele>471</ele>
        <time>2015-04-08T14:22:22Z</time>
      </trkpt>
      <trkpt lat="46.15732" lon="2.43331">
        <ele>471</ele>
        <time>2015-04-08T14:22:24Z</time>
      </trkpt>
      <trkpt lat="46.15735" lon="2.43332">
        <ele>471</ele>
        <time>2015-04-08T14:22:26Z</time>
      </trkpt>
      <trkpt lat="46.15738" lon="2.43332">
        <ele>471</ele>
        <time>2015-04-08T14:22:28Z</time>
      </trkpt>
      <trkpt lat="46.15741" lon="2.43333">
        <ele>471</ele>
        <time>2015-04-08T14:22:30Z</time>
      </trkpt>
      <trkpt lat="46.15743" lon="2.43334">
        <ele>471</ele>
        <time>2015-04-08T14:22:32Z</time>
      </trkpt>
      <trkpt lat="46.15746" lon="2.43334">
        <ele>471</ele>
        <time>2015-04-08T14:22:34Z</time>
      </trkpt>
      <trkpt lat="46.15749" lon="2.43335">
        <ele>471</ele>
        <time>2015-04-08T14:22:36Z</time>
      </trkpt>
      <trkpt lat="46.15752" lon="2.43336">
        <ele>471</ele>
        <time>2015-04-08T14:22:38Z</time>
      </trkpt>
      <trkpt lat="46.15755" lon="2.43336">
        <ele>470</ele>
        <time>2015-04-08T14:22:40Z</time>
      </trkpt>
      <trkpt lat="46.15758" lon="2.43337">
        <ele>470</ele>
        <time>2015-04-08T14:22:42Z</time>
      </trkpt>
      <trkpt lat="46.1576" lon="2.43337">
        <ele>470</ele>
        <time>2015-04-08T14:22:44Z</time>
      </trkpt>
      <trkpt lat="46.15763" lon="2.43335">
        <ele>470</ele>
        <time>2015-04-08T14:22:46Z</time>
      </trkpt>
      <trkpt lat="46.15766" lon="2.43332">
        <ele>470</ele>
        <time>2015-04-08T14:22:48Z</time>
      </trkpt>
      <trkpt lat="46.15768" lon="2.4333">
        <ele>470</ele>
        <time>2015-04-08T14:22:50Z</time>
      </trkpt>
      <trkpt lat="46.15771" lon="2.43327">
        <ele>470</ele>
        <time>2015-04-08T14:22:52Z</time>
      </trkpt>
      <trkpt lat="46.15773" lon="2.43325">
        <ele>470</ele>
        <time>2015-04-08T14:22:54Z</time>
      </trkpt>
      <trkpt lat="46.15776" lon="2.43322">
        <ele>470</ele>
        <time>2015-04-08T14:22:56Z</time>
      </trkpt>
      <trkpt lat="46.15778" lon="2.4332">
        <ele>470</ele>
        <time>2015-04-08T14:22:58Z</time>
      </trkpt>
      <trkpt lat="46.15781" lon="2.43316">
        <ele>470</ele>
        <time>2015-04-08T14:23:01Z</time>
      </trkpt>
      <trkpt lat="46.15783" lon="2.43313">
        <ele>470</ele>
        <time>2015-04-08T14:23:03Z</time>
      </trkpt>
      <trkpt lat="46.15786" lon="2.4331">
        <ele>470</ele>
        <time>2015-04-08T14:23:05Z</time>
      </trkpt>
      <trkpt lat="46.15788" lon="2.43307">
        <ele>470</ele>
        <time>2015-04-08T14:23:07Z</time>
      </trkpt>
      <trkpt lat="46.15789" lon="2.43304">
        <ele>470</ele>
        <time>2015-04-08T14:23:09Z</time>
      </trkpt>
      <trkpt lat="46.15791" lon="2.43302">
        <ele>470</ele>
        <time>2015-04-08T14:23:11Z</time>
      </trkpt>
      <trkpt lat="46.15794" lon="2.433">
        <ele>470</ele>
        <time>2015-04-08T14:23:13Z</time>
      </trkpt>
      <trkpt lat="46.15796" lon="2.43297">
        <ele>470</ele>
        <time>2015-04-08T14:23:15Z</time>
      </trkpt>
      <trkpt lat="46.15799" lon="2.43293">
        <ele>470</ele>
        <time>2015-04-08T14:23:18Z</time>
      </trkpt>
      <trkpt lat="46.15801" lon="2.4329">
        <ele>469</ele>
        <time>2015-04-08T14:23:20Z</time>
      </trkpt>
      <trkpt lat="46.15804" lon="2.43286">
        <ele>469</ele>
        <time>2015-04-08T14:23:23Z</time>
      </trkpt>
      <trkpt lat="46.15807" lon="2.43284">
        <ele>469</ele>
        <time>2015-04-08T14:23:25Z</time>
      </trkpt>
      <trkpt lat="46.15808" lon="2.43281">
        <ele>469</ele>
        <time>2015-04-08T14:23:27Z</time>
      </trkpt>
      <trkpt lat="46.1581" lon="2.43278">
        <ele>469</ele>
        <time>2015-04-08T14:23:29Z</time>
      </trkpt>
      <trkpt lat="46.15812" lon="2.43275">
        <ele>469</ele>
        <time>2015-04-08T14:23:31Z</time>
      </trkpt>
      <trkpt lat="46.15814" lon="2.43271">
        <ele>469</ele>
        <time>2015-04-08T14:23:33Z</time>
      </trkpt>
      <trkpt lat="46.15816" lon="2.43268">
        <ele>469</ele>
        <time>2015-04-08T14:23:35Z</time>
      </trkpt>
      <trkpt lat="46.15818" lon="2.43265">
        <ele>469</ele>
        <time>2015-04-08T14:23:37Z</time>
      </trkpt>
      <trkpt lat="46.15819" lon="2.43262">
        <ele>469</ele>
        <time>2015-04-08T14:23:39Z</time>
      </trkpt>
      <trkpt lat="46.15821" lon="2.43259">
        <ele>469</ele>
        <time>2015-04-08T14:23:41Z</time>
      </trkpt>
      <trkpt lat="46.15823" lon="2.43256">
        <ele>469</ele>
        <time>2015-04-08T14:23:43Z</time>
      </trkpt>
      <trkpt lat="46.15825" lon="2.43253">
        <ele>468</ele>
        <time>2015-04-08T14:23:45Z</time>
      </trkpt>
      <trkpt lat="46.15826" lon="2.4325">
        <ele>468</ele>
        <time>2015-04-08T14:23:47Z</time>
      </trkpt>
      <trkpt lat="46.15828" lon="2.43247">
        <ele>468</ele>
        <time>2015-04-08T14:23:49Z</time>
      </trkpt>
      <trkpt lat="46.15829" lon="2.43243">
        <ele>468</ele>
        <time>2015-04-08T14:23:51Z</time>
      </trkpt>
      <trkpt lat="46.15831" lon="2.4324">
        <ele>468</ele>
        <time>2015-04-08T14:23:53Z</time>
      </trkpt>
      <trkpt lat="46.15833" lon="2.43237">
        <ele>468</ele>
        <time>2015-04-08T14:23:55Z</time>
      </trkpt>
      <trkpt lat="46.15835" lon="2.43234">
        <ele>468</ele>
        <time>2015-04-08T14:23:57Z</time>
      </trkpt>
      <trkpt lat="46.15836" lon="2.43231">
        <ele>467</ele>
        <time>2015-04-08T14:23:59Z</time>
      </trkpt>
      <trkpt lat="46.15838" lon="2.43228">
        <ele>467</ele>
        <time>2015-04-08T14:24:01Z</time>
      </trkpt>
      <trkpt lat="46.1584" lon="2.43224">
        <ele>467</ele>
        <time>2015-04-08T14:24:04Z</time>
      </trkpt>
      <trkpt lat="46.15842" lon="2.43221">
        <ele>467</ele>
        <time>2015-04-08T14:24:06Z</time>
      </trkpt>
      <trkpt lat="46.15844" lon="2.43218">
        <ele>467</ele>
        <time>2015-04-08T14:24:08Z</time>
      </trkpt>
      <trkpt lat="46.15846" lon="2.43214">
        <ele>467</ele>
        <time>2015-04-08T14:24:11Z</time>
      </trkpt>
      <trkpt lat="46.15847" lon="2.43211">
        <ele>467</ele>
        <time>2015-04-08T14:24:13Z</time>
      </trkpt>
      <trkpt lat="46.15849" lon="2.43208">
        <ele>467</ele>
        <time>2015-04-08T14:24:15Z</time>
      </trkpt>
      <trkpt lat="46.15851" lon="2.43205">
        <ele>467</ele>
        <time>2015-04-08T14:24:17Z</time>
      </trkpt>
      <trkpt lat="46.15853" lon="2.43201">
        <ele>467</ele>
        <time>2015-04-08T14:24:20Z</time>
      </trkpt>
      <trkpt lat="46.15855" lon="2.43198">
        <ele>466</ele>
        <time>2015-04-08T14:24:22Z</time>
      </trkpt>
      <trkpt lat="46.15857" lon="2.43194">
        <ele>466</ele>
        <time>2015-04-08T14:24:24Z</time>
      </trkpt>
      <trkpt lat="46.15858" lon="2.43191">
        <ele>466</ele>
        <time>2015-04-08T14:24:26Z</time>
      </trkpt>
      <trkpt lat="46.1586" lon="2.43188">
        <ele>466</ele>
        <time>2015-04-08T14:24:28Z</time>
      </trkpt>
      <trkpt lat="46.15863" lon="2.43184">
        <ele>465</ele>
        <time>2015-04-08T14:24:31Z</time>
      </trkpt>
      <trkpt lat="46.15865" lon="2.43181">
        <ele>465</ele>
        <time>2015-04-08T14:24:33Z</time>
      </trkpt>
      <trkpt lat="46.15867" lon="2.43178">
        <ele>465</ele>
        <time>2015-04-08T14:24:35Z</time>
      </trkpt>
      <trkpt lat="46.15869" lon="2.43174">
        <ele>465</ele>
        <time>2015-04-08T14:24:37Z</time>
      </trkpt>
      <trkpt lat="46.15871" lon="2.43171">
        <ele>465</ele>
        <time>2015-04-08T14:24:39Z</time>
      </trkpt>
      <trkpt lat="46.15873" lon="2.43168">
        <ele>465</ele>
        <time>2015-04-08T14:24:41Z</time>
      </trkpt>
      <trkpt lat="46.15876" lon="2.43165">
        <ele>465</ele>
        <time>2015-04-08T14:24:43Z</time>
      </trkpt>
      <trkpt lat="46.15878" lon="2.43162">
        <ele>465</ele>
        <time>2015-04-08T14:24:45Z</time>
      </trkpt>
      <trkpt lat="46.15879" lon="2.43158">
        <ele>465</ele>
        <time>2015-04-08T14:24:47Z</time>
      </trkpt>
      <trkpt lat="46.15881" lon="2.43154">
        <ele>465</ele>
        <time>2015-04-08T14:24:49Z</time>
      </trkpt>
      <trkpt lat="46.15884" lon="2.43151">
        <ele>465</ele>
        <time>2015-04-08T14:24:51Z</time>
      </trkpt>
      <trkpt lat="46.15886" lon="2.43148">
        <ele>465</ele>
        <time>2015-04-08T14:24:53Z</time>
      </trkpt>
      <trkpt lat="46.15888" lon="2.43145">
        <ele>465</ele>
        <time>2015-04-08T14:24:55Z</time>
      </trkpt>
      <trkpt lat="46.1589" lon="2.43141">
        <ele>465</ele>
        <time>2015-04-08T14:24:57Z</time>
      </trkpt>
      <trkpt lat="46.15892" lon="2.43138">
        <ele>465</ele>
        <time>2015-04-08T14:24:59Z</time>
      </trkpt>
      <trkpt lat="46.15894" lon="2.43134">
        <ele>465</ele>
        <time>2015-04-08T14:25:01Z</time>
      </trkpt>
      <trkpt lat="46.15897" lon="2.43131">
        <ele>465</ele>
        <time>2015-04-08T14:25:03Z</time>
      </trkpt>
      <trkpt lat="46.159" lon="2.43127">
        <ele>464</ele>
        <time>2015-04-08T14:25:06Z</time>
      </trkpt>
      <trkpt lat="46.15903" lon="2.43123">
        <ele>464</ele>
        <time>2015-04-08T14:25:09Z</time>
      </trkpt>
      <trkpt lat="46.15906" lon="2.43118">
        <ele>463</ele>
        <time>2015-04-08T14:25:12Z</time>
      </trkpt>
      <trkpt lat="46.15909" lon="2.43115">
        <ele>463</ele>
        <time>2015-04-08T14:25:14Z</time>
      </trkpt>
      <trkpt lat="46.15912" lon="2.43111">
        <ele>462</ele>
        <time>2015-04-08T14:25:17Z</time>
      </trkpt>
      <trkpt lat="46.15915" lon="2.43108">
        <ele>462</ele>
        <time>2015-04-08T14:25:20Z</time>
      </trkpt>
      <trkpt lat="46.15917" lon="2.43106">
        <ele>461</ele>
        <time>2015-04-08T14:25:22Z</time>
      </trkpt>
      <trkpt lat="46.1592" lon="2.43103">
        <ele>461</ele>
        <time>2015-04-08T14:25:24Z</time>
      </trkpt>
      <trkpt lat="46.15922" lon="2.43101">
        <ele>461</ele>
        <time>2015-04-08T14:25:26Z</time>
      </trkpt>
      <trkpt lat="46.15924" lon="2.43098">
        <ele>461</ele>
        <time>2015-04-08T14:25:28Z</time>
      </trkpt>
      <trkpt lat="46.15927" lon="2.43095">
        <ele>461</ele>
        <time>2015-04-08T14:25:30Z</time>
      </trkpt>
      <trkpt lat="46.15929" lon="2.43093">
        <ele>460</ele>
        <time>2015-04-08T14:25:32Z</time>
      </trkpt>
      <trkpt lat="46.15931" lon="2.43092">
        <ele>460</ele>
        <time>2015-04-08T14:25:34Z</time>
      </trkpt>
      <trkpt lat="46.15934" lon="2.4309">
        <ele>460</ele>
        <time>2015-04-08T14:25:36Z</time>
      </trkpt>
      <trkpt lat="46.15936" lon="2.43089">
        <ele>460</ele>
        <time>2015-04-08T14:25:38Z</time>
      </trkpt>
      <trkpt lat="46.15939" lon="2.43088">
        <ele>460</ele>
        <time>2015-04-08T14:25:40Z</time>
      </trkpt>
      <trkpt lat="46.15941" lon="2.43087">
        <ele>460</ele>
        <time>2015-04-08T14:25:42Z</time>
      </trkpt>
      <trkpt lat="46.15944" lon="2.43087">
        <ele>459</ele>
        <time>2015-04-08T14:25:44Z</time>
      </trkpt>
      <trkpt lat="46.15946" lon="2.43086">
        <ele>459</ele>
        <time>2015-04-08T14:25:46Z</time>
      </trkpt>
      <trkpt lat="46.15949" lon="2.43086">
        <ele>459</ele>
        <time>2015-04-08T14:25:48Z</time>
      </trkpt>
      <trkpt lat="46.15951" lon="2.43085">
        <ele>459</ele>
        <time>2015-04-08T14:25:50Z</time>
      </trkpt>
      <trkpt lat="46.15954" lon="2.43084">
        <ele>459</ele>
        <time>2015-04-08T14:25:52Z</time>
      </trkpt>
      <trkpt lat="46.15956" lon="2.43084">
        <ele>459</ele>
        <time>2015-04-08T14:25:54Z</time>
      </trkpt>
      <trkpt lat="46.15959" lon="2.43083">
        <ele>459</ele>
        <time>2015-04-08T14:25:56Z</time>
      </trkpt>
      <trkpt lat="46.15962" lon="2.43082">
        <ele>459</ele>
        <time>2015-04-08T14:25:58Z</time>
      </trkpt>
      <trkpt lat="46.15965" lon="2.43083">
        <ele>459</ele>
        <time>2015-04-08T14:26:00Z</time>
      </trkpt>
      <trkpt lat="46.15967" lon="2.43084">
        <ele>459</ele>
        <time>2015-04-08T14:26:02Z</time>
      </trkpt>
      <trkpt lat="46.1597" lon="2.43084">
        <ele>458</ele>
        <time>2015-04-08T14:26:04Z</time>
      </trkpt>
      <trkpt lat="46.15972" lon="2.43083">
        <ele>458</ele>
        <time>2015-04-08T14:26:06Z</time>
      </trkpt>
      <trkpt lat="46.15975" lon="2.43083">
        <ele>458</ele>
        <time>2015-04-08T14:26:08Z</time>
      </trkpt>
      <trkpt lat="46.15977" lon="2.43083">
        <ele>458</ele>
        <time>2015-04-08T14:26:10Z</time>
      </trkpt>
      <trkpt lat="46.15981" lon="2.43083">
        <ele>458</ele>
        <time>2015-04-08T14:26:12Z</time>
      </trkpt>
      <trkpt lat="46.15983" lon="2.43082">
        <ele>458</ele>
        <time>2015-04-08T14:26:14Z</time>
      </trkpt>
      <trkpt lat="46.15986" lon="2.43082">
        <ele>458</ele>
        <time>2015-04-08T14:26:16Z</time>
      </trkpt>
      <trkpt lat="46.15988" lon="2.43082">
        <ele>457</ele>
        <time>2015-04-08T14:26:18Z</time>
      </trkpt>
      <trkpt lat="46.15992" lon="2.43082">
        <ele>457</ele>
        <time>2015-04-08T14:26:21Z</time>
      </trkpt>
      <trkpt lat="46.15995" lon="2.43082">
        <ele>456</ele>
        <time>2015-04-08T14:26:23Z</time>
      </trkpt>
      <trkpt lat="46.15998" lon="2.43082">
        <ele>456</ele>
        <time>2015-04-08T14:26:25Z</time>
      </trkpt>
      <trkpt lat="46.16002" lon="2.43081">
        <ele>456</ele>
        <time>2015-04-08T14:26:27Z</time>
      </trkpt>
      <trkpt lat="46.16007" lon="2.43081">
        <ele>455</ele>
        <time>2015-04-08T14:26:30Z</time>
      </trkpt>
      <trkpt lat="46.1601" lon="2.43081">
        <ele>455</ele>
        <time>2015-04-08T14:26:32Z</time>
      </trkpt>
      <trkpt lat="46.16013" lon="2.4308">
        <ele>455</ele>
        <time>2015-04-08T14:26:34Z</time>
      </trkpt>
      <trkpt lat="46.16016" lon="2.4308">
        <ele>455</ele>
        <time>2015-04-08T14:26:36Z</time>
      </trkpt>
      <trkpt lat="46.16019" lon="2.4308">
        <ele>454</ele>
        <time>2015-04-08T14:26:38Z</time>
      </trkpt>
      <trkpt lat="46.16022" lon="2.43079">
        <ele>454</ele>
        <time>2015-04-08T14:26:40Z</time>
      </trkpt>
      <trkpt lat="46.16026" lon="2.43079">
        <ele>454</ele>
        <time>2015-04-08T14:26:42Z</time>
      </trkpt>
      <trkpt lat="46.16029" lon="2.43078">
        <ele>453</ele>
        <time>2015-04-08T14:26:44Z</time>
      </trkpt>
      <trkpt lat="46.16032" lon="2.43077">
        <ele>453</ele>
        <time>2015-04-08T14:26:46Z</time>
      </trkpt>
      <trkpt lat="46.16035" lon="2.43075">
        <ele>453</ele>
        <time>2015-04-08T14:26:48Z</time>
      </trkpt>
      <trkpt lat="46.16038" lon="2.43074">
        <ele>453</ele>
        <time>2015-04-08T14:26:50Z</time>
      </trkpt>
      <trkpt lat="46.16041" lon="2.43073">
        <ele>453</ele>
        <time>2015-04-08T14:26:52Z</time>
      </trkpt>
      <trkpt lat="46.16044" lon="2.43072">
        <ele>453</ele>
        <time>2015-04-08T14:26:54Z</time>
      </trkpt>
      <trkpt lat="46.16047" lon="2.43071">
        <ele>453</ele>
        <time>2015-04-08T14:26:56Z</time>
      </trkpt>
      <trkpt lat="46.1605" lon="2.4307">
        <ele>453</ele>
        <time>2015-04-08T14:26:58Z</time>
      </trkpt>
      <trkpt lat="46.16053" lon="2.4307">
        <ele>453</ele>
        <time>2015-04-08T14:27:00Z</time>
      </trkpt>
      <trkpt lat="46.16056" lon="2.43069">
        <ele>453</ele>
        <time>2015-04-08T14:27:02Z</time>
      </trkpt>
      <trkpt lat="46.1606" lon="2.43069">
        <ele>453</ele>
        <time>2015-04-08T14:27:04Z</time>
      </trkpt>
      <trkpt lat="46.16063" lon="2.4307">
        <ele>453</ele>
        <time>2015-04-08T14:27:06Z</time>
      </trkpt>
      <trkpt lat="46.16067" lon="2.4307">
        <ele>453</ele>
        <time>2015-04-08T14:27:08Z</time>
      </trkpt>
      <trkpt lat="46.1607" lon="2.43071">
        <ele>453</ele>
        <time>2015-04-08T14:27:10Z</time>
      </trkpt>
      <trkpt lat="46.16073" lon="2.43071">
        <ele>453</ele>
        <time>2015-04-08T14:27:12Z</time>
      </trkpt>
      <trkpt lat="46.16076" lon="2.43071">
        <ele>453</ele>
        <time>2015-04-08T14:27:14Z</time>
      </trkpt>
      <trkpt lat="46.16079" lon="2.43072">
        <ele>453</ele>
        <time>2015-04-08T14:27:16Z</time>
      </trkpt>
      <trkpt lat="46.16083" lon="2.43072">
        <ele>453</ele>
        <time>2015-04-08T14:27:18Z</time>
      </trkpt>
      <trkpt lat="46.16086" lon="2.43072">
        <ele>453</ele>
        <time>2015-04-08T14:27:20Z</time>
      </trkpt>
      <trkpt lat="46.16089" lon="2.43073">
        <ele>453</ele>
        <time>2015-04-08T14:27:22Z</time>
      </trkpt>
      <trkpt lat="46.16091" lon="2.43073">
        <ele>453</ele>
        <time>2015-04-08T14:27:24Z</time>
      </trkpt>
      <trkpt lat="46.16095" lon="2.43074">
        <ele>453</ele>
        <time>2015-04-08T14:27:26Z</time>
      </trkpt>
      <trkpt lat="46.16098" lon="2.43074">
        <ele>453</ele>
        <time>2015-04-08T14:27:28Z</time>
      </trkpt>
      <trkpt lat="46.16101" lon="2.43075">
        <ele>453</ele>
        <time>2015-04-08T14:27:30Z</time>
      </trkpt>
      <trkpt lat="46.16104" lon="2.43076">
        <ele>453</ele>
        <time>2015-04-08T14:27:32Z</time>
      </trkpt>
      <trkpt lat="46.16107" lon="2.43077">
        <ele>453</ele>
        <time>2015-04-08T14:27:34Z</time>
      </trkpt>
      <trkpt lat="46.16111" lon="2.43077">
        <ele>453</ele>
        <time>2015-04-08T14:27:36Z</time>
      </trkpt>
      <trkpt lat="46.16114" lon="2.43078">
        <ele>453</ele>
        <time>2015-04-08T14:27:38Z</time>
      </trkpt>
      <trkpt lat="46.16117" lon="2.43078">
        <ele>453</ele>
        <time>2015-04-08T14:27:40Z</time>
      </trkpt>
      <trkpt lat="46.1612" lon="2.43079">
        <ele>453</ele>
        <time>2015-04-08T14:27:42Z</time>
      </trkpt>
      <trkpt lat="46.16123" lon="2.4308">
        <ele>453</ele>
        <time>2015-04-08T14:27:44Z</time>
      </trkpt>
      <trkpt lat="46.16126" lon="2.43081">
        <ele>453</ele>
        <time>2015-04-08T14:27:46Z</time>
      </trkpt>
      <trkpt lat="46.16129" lon="2.43081">
        <ele>453</ele>
        <time>2015-04-08T14:27:48Z</time>
      </trkpt>
      <trkpt lat="46.16132" lon="2.43082">
        <ele>453</ele>
        <time>2015-04-08T14:27:50Z</time>
      </trkpt>
      <trkpt lat="46.16135" lon="2.43084">
        <ele>453</ele>
        <time>2015-04-08T14:27:52Z</time>
      </trkpt>
      <trkpt lat="46.16138" lon="2.43085">
        <ele>453</ele>
        <time>2015-04-08T14:27:54Z</time>
      </trkpt>
      <trkpt lat="46.1614" lon="2.43086">
        <ele>453</ele>
        <time>2015-04-08T14:27:56Z</time>
      </trkpt>
      <trkpt lat="46.16143" lon="2.43088">
        <ele>453</ele>
        <time>2015-04-08T14:27:58Z</time>
      </trkpt>
      <trkpt lat="46.16146" lon="2.43089">
        <ele>453</ele>
        <time>2015-04-08T14:28:00Z</time>
      </trkpt>
      <trkpt lat="46.1615" lon="2.4309">
        <ele>453</ele>
        <time>2015-04-08T14:28:02Z</time>
      </trkpt>
      <trkpt lat="46.16153" lon="2.43091">
        <ele>453</ele>
        <time>2015-04-08T14:28:04Z</time>
      </trkpt>
      <trkpt lat="46.16155" lon="2.43091">
        <ele>453</ele>
        <time>2015-04-08T14:28:06Z</time>
      </trkpt>
      <trkpt lat="46.16157" lon="2.43091">
        <ele>453</ele>
        <time>2015-04-08T14:28:08Z</time>
      </trkpt>
      <trkpt lat="46.1616" lon="2.43091">
        <ele>453</ele>
        <time>2015-04-08T14:28:10Z</time>
      </trkpt>
      <trkpt lat="46.16163" lon="2.43091">
        <ele>453</ele>
        <time>2015-04-08T14:28:12Z</time>
      </trkpt>
      <trkpt lat="46.16166" lon="2.4309">
        <ele>453</ele>
        <time>2015-04-08T14:28:14Z</time>
      </trkpt>
      <trkpt lat="46.16169" lon="2.43088">
        <ele>453</ele>
        <time>2015-04-08T14:28:16Z</time>
      </trkpt>
      <trkpt lat="46.1617" lon="2.43086">
        <ele>453</ele>
        <time>2015-04-08T14:28:18Z</time>
      </trkpt>
      <trkpt lat="46.16172" lon="2.43084">
        <ele>453</ele>
        <time>2015-04-08T14:28:20Z</time>
      </trkpt>
      <trkpt lat="46.16175" lon="2.43082">
        <ele>453</ele>
        <time>2015-04-08T14:28:23Z</time>
      </trkpt>
      <trkpt lat="46.16176" lon="2.43082">
        <ele>453</ele>
        <time>2015-04-08T14:28:26Z</time>
      </trkpt>
      <trkpt lat="46.16179" lon="2.43082">
        <ele>453</ele>
        <time>2015-04-08T14:28:28Z</time>
      </trkpt>
      <trkpt lat="46.16182" lon="2.43083">
        <ele>453</ele>
        <time>2015-04-08T14:28:30Z</time>
      </trkpt>
      <trkpt lat="46.16184" lon="2.43085">
        <ele>453</ele>
        <time>2015-04-08T14:28:32Z</time>
      </trkpt>
      <trkpt lat="46.16186" lon="2.43088">
        <ele>453</ele>
        <time>2015-04-08T14:28:34Z</time>
      </trkpt>
      <trkpt lat="46.16189" lon="2.43091">
        <ele>453</ele>
        <time>2015-04-08T14:28:36Z</time>
      </trkpt>
      <trkpt lat="46.16192" lon="2.43094">
        <ele>453</ele>
        <time>2015-04-08T14:28:39Z</time>
      </trkpt>
      <trkpt lat="46.16195" lon="2.43098">
        <ele>453</ele>
        <time>2015-04-08T14:28:42Z</time>
      </trkpt>
      <trkpt lat="46.16198" lon="2.43101">
        <ele>453</ele>
        <time>2015-04-08T14:28:44Z</time>
      </trkpt>
      <trkpt lat="46.162" lon="2.43104">
        <ele>453</ele>
        <time>2015-04-08T14:28:46Z</time>
      </trkpt>
      <trkpt lat="46.16202" lon="2.43106">
        <ele>453</ele>
        <time>2015-04-08T14:28:48Z</time>
      </trkpt>
      <trkpt lat="46.16205" lon="2.43109">
        <ele>453</ele>
        <time>2015-04-08T14:28:50Z</time>
      </trkpt>
      <trkpt lat="46.16207" lon="2.43112">
        <ele>453</ele>
        <time>2015-04-08T14:28:52Z</time>
      </trkpt>
      <trkpt lat="46.16209" lon="2.43116">
        <ele>453</ele>
        <time>2015-04-08T14:28:54Z</time>
      </trkpt>
      <trkpt lat="46.16211" lon="2.43119">
        <ele>453</ele>
        <time>2015-04-08T14:28:56Z</time>
      </trkpt>
      <trkpt lat="46.16214" lon="2.43124">
        <ele>453</ele>
        <time>2015-04-08T14:28:59Z</time>
      </trkpt>
      <trkpt lat="46.16217" lon="2.43127">
        <ele>453</ele>
        <time>2015-04-08T14:29:01Z</time>
      </trkpt>
      <trkpt lat="46.16219" lon="2.43129">
        <ele>453</ele>
        <time>2015-04-08T14:29:03Z</time>
      </trkpt>
      <trkpt lat="46.16221" lon="2.43132">
        <ele>453</ele>
        <time>2015-04-08T14:29:05Z</time>
      </trkpt>
      <trkpt lat="46.16223" lon="2.43135">
        <ele>453</ele>
        <time>2015-04-08T14:29:07Z</time>
      </trkpt>
      <trkpt lat="46.16226" lon="2.43139">
        <ele>453</ele>
        <time>2015-04-08T14:29:10Z</time>
      </trkpt>
      <trkpt lat="46.16228" lon="2.43142">
        <ele>453</ele>
        <time>2015-04-08T14:29:12Z</time>
      </trkpt>
      <trkpt lat="46.1623" lon="2.43145">
        <ele>453</ele>
        <time>2015-04-08T14:29:14Z</time>
      </trkpt>
      <trkpt lat="46.16232" lon="2.43148">
        <ele>453</ele>
        <time>2015-04-08T14:29:16Z</time>
      </trkpt>
      <trkpt lat="46.16235" lon="2.43153">
        <ele>453</ele>
        <time>2015-04-08T14:29:19Z</time>
      </trkpt>
      <trkpt lat="46.16237" lon="2.43156">
        <ele>453</ele>
        <time>2015-04-08T14:29:21Z</time>
      </trkpt>
      <trkpt lat="46.16238" lon="2.43159">
        <ele>453</ele>
        <time>2015-04-08T14:29:23Z</time>
      </trkpt>
      <trkpt lat="46.16241" lon="2.43164">
        <ele>453</ele>
        <time>2015-04-08T14:29:26Z</time>
      </trkpt>
      <trkpt lat="46.16243" lon="2.43167">
        <ele>453</ele>
        <time>2015-04-08T14:29:28Z</time>
      </trkpt>
      <trkpt lat="46.16246" lon="2.43172">
        <ele>453</ele>
        <time>2015-04-08T14:29:31Z</time>
      </trkpt>
      <trkpt lat="46.16249" lon="2.43177">
        <ele>453</ele>
        <time>2015-04-08T14:29:34Z</time>
      </trkpt>
      <trkpt lat="46.16251" lon="2.4318">
        <ele>453</ele>
        <time>2015-04-08T14:29:36Z</time>
      </trkpt>
      <trkpt lat="46.16254" lon="2.43183">
        <ele>453</ele>
        <time>2015-04-08T14:29:38Z</time>
      </trkpt>
      <trkpt lat="46.16255" lon="2.43186">
        <ele>453</ele>
        <time>2015-04-08T14:29:40Z</time>
      </trkpt>
      <trkpt lat="46.16258" lon="2.43191">
        <ele>453</ele>
        <time>2015-04-08T14:29:43Z</time>
      </trkpt>
      <trkpt lat="46.16262" lon="2.43197">
        <ele>453</ele>
        <time>2015-04-08T14:29:47Z</time>
      </trkpt>
      <trkpt lat="46.16266" lon="2.43202">
        <ele>453</ele>
        <time>2015-04-08T14:29:50Z</time>
      </trkpt>
      <trkpt lat="46.16268" lon="2.43205">
        <ele>453</ele>
        <time>2015-04-08T14:29:52Z</time>
      </trkpt>
      <trkpt lat="46.1627" lon="2.43208">
        <ele>453</ele>
        <time>2015-04-08T14:29:54Z</time>
      </trkpt>
      <trkpt lat="46.16272" lon="2.43211">
        <ele>453</ele>
        <time>2015-04-08T14:29:56Z</time>
      </trkpt>
      <trkpt lat="46.16273" lon="2.43215">
        <ele>453</ele>
        <time>2015-04-08T14:29:58Z</time>
      </trkpt>
      <trkpt lat="46.16275" lon="2.43218">
        <ele>453</ele>
        <time>2015-04-08T14:30:00Z</time>
      </trkpt>
      <trkpt lat="46.16277" lon="2.43222">
        <ele>453</ele>
        <time>2015-04-08T14:30:02Z</time>
      </trkpt>
      <trkpt lat="46.16278" lon="2.43226">
        <ele>453</ele>
        <time>2015-04-08T14:30:04Z</time>
      </trkpt>
      <trkpt lat="46.1628" lon="2.4323">
        <ele>453</ele>
        <time>2015-04-08T14:30:06Z</time>
      </trkpt>
      <trkpt lat="46.16282" lon="2.43236">
        <ele>453</ele>
        <time>2015-04-08T14:30:09Z</time>
      </trkpt>
      <trkpt lat="46.16284" lon="2.43242">
        <ele>453</ele>
        <time>2015-04-08T14:30:12Z</time>
      </trkpt>
      <trkpt lat="46.16285" lon="2.43246">
        <ele>453</ele>
        <time>2015-04-08T14:30:14Z</time>
      </trkpt>
      <trkpt lat="46.16286" lon="2.4325">
        <ele>453</ele>
        <time>2015-04-08T14:30:16Z</time>
      </trkpt>
      <trkpt lat="46.16288" lon="2.43256">
        <ele>453</ele>
        <time>2015-04-08T14:30:19Z</time>
      </trkpt>
      <trkpt lat="46.1629" lon="2.43261">
        <ele>453</ele>
        <time>2015-04-08T14:30:21Z</time>
      </trkpt>
      <trkpt lat="46.16291" lon="2.43265">
        <ele>453</ele>
        <time>2015-04-08T14:30:23Z</time>
      </trkpt>
      <trkpt lat="46.16293" lon="2.43269">
        <ele>453</ele>
        <time>2015-04-08T14:30:25Z</time>
      </trkpt>
      <trkpt lat="46.16293" lon="2.43273">
        <ele>453</ele>
        <time>2015-04-08T14:30:27Z</time>
      </trkpt>
      <trkpt lat="46.16295" lon="2.43279">
        <ele>453</ele>
        <time>2015-04-08T14:30:30Z</time>
      </trkpt>
      <trkpt lat="46.16297" lon="2.43283">
        <ele>453</ele>
        <time>2015-04-08T14:30:32Z</time>
      </trkpt>
      <trkpt lat="46.16298" lon="2.43287">
        <ele>453</ele>
        <time>2015-04-08T14:30:34Z</time>
      </trkpt>
      <trkpt lat="46.16299" lon="2.43291">
        <ele>453</ele>
        <time>2015-04-08T14:30:36Z</time>
      </trkpt>
      <trkpt lat="46.163" lon="2.43295">
        <ele>453</ele>
        <time>2015-04-08T14:30:38Z</time>
      </trkpt>
      <trkpt lat="46.16302" lon="2.43301">
        <ele>453</ele>
        <time>2015-04-08T14:30:41Z</time>
      </trkpt>
      <trkpt lat="46.16304" lon="2.43305">
        <ele>453</ele>
        <time>2015-04-08T14:30:43Z</time>
      </trkpt>
      <trkpt lat="46.16305" lon="2.43309">
        <ele>453</ele>
        <time>2015-04-08T14:30:45Z</time>
      </trkpt>
      <trkpt lat="46.16306" lon="2.43314">
        <ele>453</ele>
        <time>2015-04-08T14:30:47Z</time>
      </trkpt>
      <trkpt lat="46.16308" lon="2.4332">
        <ele>453</ele>
        <time>2015-04-08T14:30:50Z</time>
      </trkpt>
      <trkpt lat="46.16309" lon="2.43324">
        <ele>453</ele>
        <time>2015-04-08T14:30:52Z</time>
      </trkpt>
      <trkpt lat="46.1631" lon="2.43328">
        <ele>453</ele>
        <time>2015-04-08T14:30:54Z</time>
      </trkpt>
      <trkpt lat="46.16312" lon="2.43334">
        <ele>453</ele>
        <time>2015-04-08T14:30:57Z</time>
      </trkpt>
      <trkpt lat="46.16313" lon="2.43338">
        <ele>453</ele>
        <time>2015-04-08T14:30:59Z</time>
      </trkpt>
      <trkpt lat="46.16314" lon="2.43345">
        <ele>453</ele>
        <time>2015-04-08T14:31:02Z</time>
      </trkpt>
      <trkpt lat="46.16315" lon="2.43349">
        <ele>453</ele>
        <time>2015-04-08T14:31:04Z</time>
      </trkpt>
      <trkpt lat="46.16316" lon="2.43353">
        <ele>453</ele>
        <time>2015-04-08T14:31:06Z</time>
      </trkpt>
      <trkpt lat="46.16317" lon="2.43359">
        <ele>453</ele>
        <time>2015-04-08T14:31:09Z</time>
      </trkpt>
      <trkpt lat="46.16318" lon="2.43363">
        <ele>453</ele>
        <time>2015-04-08T14:31:11Z</time>
      </trkpt>
      <trkpt lat="46.1632" lon="2.4337">
        <ele>453</ele>
        <time>2015-04-08T14:31:14Z</time>
      </trkpt>
      <trkpt lat="46.1632" lon="2.43374">
        <ele>453</ele>
        <time>2015-04-08T14:31:16Z</time>
      </trkpt>
      <trkpt lat="46.16321" lon="2.43379">
        <ele>453</ele>
        <time>2015-04-08T14:31:18Z</time>
      </trkpt>
      <trkpt lat="46.16322" lon="2.43383">
        <ele>453</ele>
        <time>2015-04-08T14:31:20Z</time>
      </trkpt>
      <trkpt lat="46.16323" lon="2.43388">
        <ele>454</ele>
        <time>2015-04-08T14:31:22Z</time>
      </trkpt>
      <trkpt lat="46.16324" lon="2.43393">
        <ele>454</ele>
        <time>2015-04-08T14:31:25Z</time>
      </trkpt>
      <trkpt lat="46.16325" lon="2.43397">
        <ele>454</ele>
        <time>2015-04-08T14:31:27Z</time>
      </trkpt>
      <trkpt lat="46.16326" lon="2.43402">
        <ele>454</ele>
        <time>2015-04-08T14:31:29Z</time>
      </trkpt>
      <trkpt lat="46.16327" lon="2.43406">
        <ele>454</ele>
        <time>2015-04-08T14:31:31Z</time>
      </trkpt>
      <trkpt lat="46.16328" lon="2.4341">
        <ele>454</ele>
        <time>2015-04-08T14:31:33Z</time>
      </trkpt>
      <trkpt lat="46.16328" lon="2.43414">
        <ele>454</ele>
        <time>2015-04-08T14:31:35Z</time>
      </trkpt>
      <trkpt lat="46.1633" lon="2.43419">
        <ele>454</ele>
        <time>2015-04-08T14:31:37Z</time>
      </trkpt>
      <trkpt lat="46.1633" lon="2.43423">
        <ele>454</ele>
        <time>2015-04-08T14:31:39Z</time>
      </trkpt>
      <trkpt lat="46.16331" lon="2.43427">
        <ele>454</ele>
        <time>2015-04-08T14:31:41Z</time>
      </trkpt>
      <trkpt lat="46.16333" lon="2.43431">
        <ele>454</ele>
        <time>2015-04-08T14:31:43Z</time>
      </trkpt>
      <trkpt lat="46.16333" lon="2.43436">
        <ele>454</ele>
        <time>2015-04-08T14:31:45Z</time>
      </trkpt>
      <trkpt lat="46.16335" lon="2.43441">
        <ele>454</ele>
        <time>2015-04-08T14:31:47Z</time>
      </trkpt>
      <trkpt lat="46.16336" lon="2.43444">
        <ele>454</ele>
        <time>2015-04-08T14:31:49Z</time>
      </trkpt>
      <trkpt lat="46.16336" lon="2.43451">
        <ele>454</ele>
        <time>2015-04-08T14:31:52Z</time>
      </trkpt>
      <trkpt lat="46.16337" lon="2.43455">
        <ele>454</ele>
        <time>2015-04-08T14:31:54Z</time>
      </trkpt>
      <trkpt lat="46.16338" lon="2.43461">
        <ele>455</ele>
        <time>2015-04-08T14:31:57Z</time>
      </trkpt>
      <trkpt lat="46.16339" lon="2.43465">
        <ele>455</ele>
        <time>2015-04-08T14:31:59Z</time>
      </trkpt>
      <trkpt lat="46.1634" lon="2.43471">
        <ele>455</ele>
        <time>2015-04-08T14:32:02Z</time>
      </trkpt>
      <trkpt lat="46.16341" lon="2.43475">
        <ele>455</ele>
        <time>2015-04-08T14:32:04Z</time>
      </trkpt>
      <trkpt lat="46.16342" lon="2.43481">
        <ele>455</ele>
        <time>2015-04-08T14:32:07Z</time>
      </trkpt>
      <trkpt lat="46.16343" lon="2.43485">
        <ele>455</ele>
        <time>2015-04-08T14:32:09Z</time>
      </trkpt>
      <trkpt lat="46.16343" lon="2.4349">
        <ele>455</ele>
        <time>2015-04-08T14:32:11Z</time>
      </trkpt>
      <trkpt lat="46.16344" lon="2.43496">
        <ele>456</ele>
        <time>2015-04-08T14:32:14Z</time>
      </trkpt>
      <trkpt lat="46.16345" lon="2.435">
        <ele>456</ele>
        <time>2015-04-08T14:32:16Z</time>
      </trkpt>
      <trkpt lat="46.16346" lon="2.43504">
        <ele>456</ele>
        <time>2015-04-08T14:32:18Z</time>
      </trkpt>
      <trkpt lat="46.16347" lon="2.4351">
        <ele>456</ele>
        <time>2015-04-08T14:32:21Z</time>
      </trkpt>
      <trkpt lat="46.16348" lon="2.43514">
        <ele>456</ele>
        <time>2015-04-08T14:32:23Z</time>
      </trkpt>
      <trkpt lat="46.16349" lon="2.4352">
        <ele>456</ele>
        <time>2015-04-08T14:32:26Z</time>
      </trkpt>
      <trkpt lat="46.16349" lon="2.43525">
        <ele>456</ele>
        <time>2015-04-08T14:32:28Z</time>
      </trkpt>
      <trkpt lat="46.1635" lon="2.43529">
        <ele>456</ele>
        <time>2015-04-08T14:32:30Z</time>
      </trkpt>
      <trkpt lat="46.16351" lon="2.43533">
        <ele>456</ele>
        <time>2015-04-08T14:32:32Z</time>
      </trkpt>
      <trkpt lat="46.16352" lon="2.4354">
        <ele>456</ele>
        <time>2015-04-08T14:32:35Z</time>
      </trkpt>
      <trkpt lat="46.16352" lon="2.43544">
        <ele>456</ele>
        <time>2015-04-08T14:32:37Z</time>
      </trkpt>
      <trkpt lat="46.16353" lon="2.4355">
        <ele>456</ele>
        <time>2015-04-08T14:32:40Z</time>
      </trkpt>
      <trkpt lat="46.16354" lon="2.43556">
        <ele>456</ele>
        <time>2015-04-08T14:32:43Z</time>
      </trkpt>
      <trkpt lat="46.16355" lon="2.4356">
        <ele>456</ele>
        <time>2015-04-08T14:32:45Z</time>
      </trkpt>
      <trkpt lat="46.16356" lon="2.43565">
        <ele>456</ele>
        <time>2015-04-08T14:32:47Z</time>
      </trkpt>
      <trkpt lat="46.16356" lon="2.43569">
        <ele>456</ele>
        <time>2015-04-08T14:32:49Z</time>
      </trkpt>
      <trkpt lat="46.16357" lon="2.43575">
        <ele>456</ele>
        <time>2015-04-08T14:32:52Z</time>
      </trkpt>
      <trkpt lat="46.16358" lon="2.43579">
        <ele>456</ele>
        <time>2015-04-08T14:32:54Z</time>
      </trkpt>
      <trkpt lat="46.16359" lon="2.43583">
        <ele>456</ele>
        <time>2015-04-08T14:32:56Z</time>
      </trkpt>
      <trkpt lat="46.16359" lon="2.43586">
        <ele>456</ele>
        <time>2015-04-08T14:32:58Z</time>
      </trkpt>
      <trkpt lat="46.1636" lon="2.43593">
        <ele>456</ele>
        <time>2015-04-08T14:33:01Z</time>
      </trkpt>
      <trkpt lat="46.16361" lon="2.43597">
        <ele>456</ele>
        <time>2015-04-08T14:33:03Z</time>
      </trkpt>
      <trkpt lat="46.16362" lon="2.43601">
        <ele>456</ele>
        <time>2015-04-08T14:33:05Z</time>
      </trkpt>
      <trkpt lat="46.16362" lon="2.43605">
        <ele>456</ele>
        <time>2015-04-08T14:33:07Z</time>
      </trkpt>
      <trkpt lat="46.16363" lon="2.43611">
        <ele>456</ele>
        <time>2015-04-08T14:33:10Z</time>
      </trkpt>
      <trkpt lat="46.16364" lon="2.43615">
        <ele>456</ele>
        <time>2015-04-08T14:33:12Z</time>
      </trkpt>
      <trkpt lat="46.16365" lon="2.43621">
        <ele>456</ele>
        <time>2015-04-08T14:33:15Z</time>
      </trkpt>
      <trkpt lat="46.16366" lon="2.43625">
        <ele>456</ele>
        <time>2015-04-08T14:33:17Z</time>
      </trkpt>
      <trkpt lat="46.16366" lon="2.43629">
        <ele>456</ele>
        <time>2015-04-08T14:33:19Z</time>
      </trkpt>
      <trkpt lat="46.16367" lon="2.43635">
        <ele>456</ele>
        <time>2015-04-08T14:33:22Z</time>
      </trkpt>
      <trkpt lat="46.16368" lon="2.43639">
        <ele>456</ele>
        <time>2015-04-08T14:33:24Z</time>
      </trkpt>
      <trkpt lat="46.1637" lon="2.43645">
        <ele>456</ele>
        <time>2015-04-08T14:33:27Z</time>
      </trkpt>
      <trkpt lat="46.16371" lon="2.43649">
        <ele>456</ele>
        <time>2015-04-08T14:33:29Z</time>
      </trkpt>
      <trkpt lat="46.16372" lon="2.43652">
        <ele>456</ele>
        <time>2015-04-08T14:33:31Z</time>
      </trkpt>
      <trkpt lat="46.16371" lon="2.43656">
        <ele>456</ele>
        <time>2015-04-08T14:33:33Z</time>
      </trkpt>
      <trkpt lat="46.16371" lon="2.4366">
        <ele>456</ele>
        <time>2015-04-08T14:33:35Z</time>
      </trkpt>
      <trkpt lat="46.16373" lon="2.43665">
        <ele>456</ele>
        <time>2015-04-08T14:33:37Z</time>
      </trkpt>
      <trkpt lat="46.16374" lon="2.43669">
        <ele>456</ele>
        <time>2015-04-08T14:33:39Z</time>
      </trkpt>
      <trkpt lat="46.16376" lon="2.43673">
        <ele>456</ele>
        <time>2015-04-08T14:33:41Z</time>
      </trkpt>
      <trkpt lat="46.16378" lon="2.43676">
        <ele>456</ele>
        <time>2015-04-08T14:33:43Z</time>
      </trkpt>
      <trkpt lat="46.1638" lon="2.43681">
        <ele>456</ele>
        <time>2015-04-08T14:33:46Z</time>
      </trkpt>
      <trkpt lat="46.16382" lon="2.43685">
        <ele>456</ele>
        <time>2015-04-08T14:33:48Z</time>
      </trkpt>
      <trkpt lat="46.16384" lon="2.43688">
        <ele>456</ele>
        <time>2015-04-08T14:33:50Z</time>
      </trkpt>
      <trkpt lat="46.16387" lon="2.43693">
        <ele>457</ele>
        <time>2015-04-08T14:33:53Z</time>
      </trkpt>
      <trkpt lat="46.16389" lon="2.43696">
        <ele>457</ele>
        <time>2015-04-08T14:33:55Z</time>
      </trkpt>
      <trkpt lat="46.16391" lon="2.43699">
        <ele>457</ele>
        <time>2015-04-08T14:33:57Z</time>
      </trkpt>
      <trkpt lat="46.16394" lon="2.43702">
        <ele>457</ele>
        <time>2015-04-08T14:33:59Z</time>
      </trkpt>
      <trkpt lat="46.16396" lon="2.43704">
        <ele>457</ele>
        <time>2015-04-08T14:34:01Z</time>
      </trkpt>
      <trkpt lat="46.16399" lon="2.43707">
        <ele>458</ele>
        <time>2015-04-08T14:34:03Z</time>
      </trkpt>
      <trkpt lat="46.16401" lon="2.43709">
        <ele>458</ele>
        <time>2015-04-08T14:34:05Z</time>
      </trkpt>
      <trkpt lat="46.16405" lon="2.43713">
        <ele>458</ele>
        <time>2015-04-08T14:34:08Z</time>
      </trkpt>
      <trkpt lat="46.16408" lon="2.43715">
        <ele>458</ele>
        <time>2015-04-08T14:34:10Z</time>
      </trkpt>
      <trkpt lat="46.16411" lon="2.43717">
        <ele>458</ele>
        <time>2015-04-08T14:34:12Z</time>
      </trkpt>
      <trkpt lat="46.16415" lon="2.43719">
        <ele>458</ele>
        <time>2015-04-08T14:34:15Z</time>
      </trkpt>
      <trkpt lat="46.16418" lon="2.4372">
        <ele>459</ele>
        <time>2015-04-08T14:34:17Z</time>
      </trkpt>
      <trkpt lat="46.16422" lon="2.43722">
        <ele>459</ele>
        <time>2015-04-08T14:34:20Z</time>
      </trkpt>
      <trkpt lat="46.16425" lon="2.43724">
        <ele>459</ele>
        <time>2015-04-08T14:34:22Z</time>
      </trkpt>
      <trkpt lat="46.16428" lon="2.43725">
        <ele>459</ele>
        <time>2015-04-08T14:34:24Z</time>
      </trkpt>
      <trkpt lat="46.16431" lon="2.43727">
        <ele>459</ele>
        <time>2015-04-08T14:34:26Z</time>
      </trkpt>
      <trkpt lat="46.16436" lon="2.43728">
        <ele>459</ele>
        <time>2015-04-08T14:34:29Z</time>
      </trkpt>
      <trkpt lat="46.1644" lon="2.4373">
        <ele>459</ele>
        <time>2015-04-08T14:34:32Z</time>
      </trkpt>
      <trkpt lat="46.16443" lon="2.43731">
        <ele>459</ele>
        <time>2015-04-08T14:34:34Z</time>
      </trkpt>
      <trkpt lat="46.16448" lon="2.43733">
        <ele>459</ele>
        <time>2015-04-08T14:34:37Z</time>
      </trkpt>
      <trkpt lat="46.16452" lon="2.43735">
        <ele>459</ele>
        <time>2015-04-08T14:34:40Z</time>
      </trkpt>
      <trkpt lat="46.16455" lon="2.43736">
        <ele>459</ele>
        <time>2015-04-08T14:34:42Z</time>
      </trkpt>
      <trkpt lat="46.1646" lon="2.43737">
        <ele>459</ele>
        <time>2015-04-08T14:34:45Z</time>
      </trkpt>
      <trkpt lat="46.16463" lon="2.43738">
        <ele>459</ele>
        <time>2015-04-08T14:34:47Z</time>
      </trkpt>
      <trkpt lat="46.16466" lon="2.43739">
        <ele>459</ele>
        <time>2015-04-08T14:34:49Z</time>
      </trkpt>
      <trkpt lat="46.16471" lon="2.43741">
        <ele>459</ele>
        <time>2015-04-08T14:34:52Z</time>
      </trkpt>
      <trkpt lat="46.16474" lon="2.43742">
        <ele>460</ele>
        <time>2015-04-08T14:34:54Z</time>
      </trkpt>
      <trkpt lat="46.16477" lon="2.43744">
        <ele>460</ele>
        <time>2015-04-08T14:34:56Z</time>
      </trkpt>
      <trkpt lat="46.1648" lon="2.43745">
        <ele>460</ele>
        <time>2015-04-08T14:34:58Z</time>
      </trkpt>
      <trkpt lat="46.16484" lon="2.43746">
        <ele>460</ele>
        <time>2015-04-08T14:35:01Z</time>
      </trkpt>
      <trkpt lat="46.16487" lon="2.43748">
        <ele>460</ele>
        <time>2015-04-08T14:35:03Z</time>
      </trkpt>
      <trkpt lat="46.1649" lon="2.43749">
        <ele>460</ele>
        <time>2015-04-08T14:35:05Z</time>
      </trkpt>
      <trkpt lat="46.16493" lon="2.43751">
        <ele>460</ele>
        <time>2015-04-08T14:35:07Z</time>
      </trkpt>
      <trkpt lat="46.16496" lon="2.43752">
        <ele>460</ele>
        <time>2015-04-08T14:35:09Z</time>
      </trkpt>
      <trkpt lat="46.16501" lon="2.43754">
        <ele>460</ele>
        <time>2015-04-08T14:35:12Z</time>
      </trkpt>
      <trkpt lat="46.16504" lon="2.43755">
        <ele>460</ele>
        <time>2015-04-08T14:35:14Z</time>
      </trkpt>
      <trkpt lat="46.16509" lon="2.43758">
        <ele>460</ele>
        <time>2015-04-08T14:35:17Z</time>
      </trkpt>
      <trkpt lat="46.16512" lon="2.43759">
        <ele>460</ele>
        <time>2015-04-08T14:35:19Z</time>
      </trkpt>
      <trkpt lat="46.16515" lon="2.4376">
        <ele>460</ele>
        <time>2015-04-08T14:35:21Z</time>
      </trkpt>
      <trkpt lat="46.16518" lon="2.43762">
        <ele>460</ele>
        <time>2015-04-08T14:35:23Z</time>
      </trkpt>
      <trkpt lat="46.16521" lon="2.43763">
        <ele>460</ele>
        <time>2015-04-08T14:35:25Z</time>
      </trkpt>
      <trkpt lat="46.16526" lon="2.43765">
        <ele>460</ele>
        <time>2015-04-08T14:35:28Z</time>
      </trkpt>
      <trkpt lat="46.1653" lon="2.43766">
        <ele>460</ele>
        <time>2015-04-08T14:35:31Z</time>
      </trkpt>
      <trkpt lat="46.16534" lon="2.43768">
        <ele>460</ele>
        <time>2015-04-08T14:35:34Z</time>
      </trkpt>
      <trkpt lat="46.16538" lon="2.43769">
        <ele>460</ele>
        <time>2015-04-08T14:35:36Z</time>
      </trkpt>
      <trkpt lat="46.16541" lon="2.4377">
        <ele>460</ele>
        <time>2015-04-08T14:35:38Z</time>
      </trkpt>
      <trkpt lat="46.16545" lon="2.43772">
        <ele>460</ele>
        <time>2015-04-08T14:35:41Z</time>
      </trkpt>
      <trkpt lat="46.1655" lon="2.43773">
        <ele>460</ele>
        <time>2015-04-08T14:35:44Z</time>
      </trkpt>
      <trkpt lat="46.16554" lon="2.43775">
        <ele>460</ele>
        <time>2015-04-08T14:35:47Z</time>
      </trkpt>
      <trkpt lat="46.16559" lon="2.43777">
        <ele>460</ele>
        <time>2015-04-08T14:35:50Z</time>
      </trkpt>
      <trkpt lat="46.16562" lon="2.43777">
        <ele>460</ele>
        <time>2015-04-08T14:35:52Z</time>
      </trkpt>
      <trkpt lat="46.16565" lon="2.43778">
        <ele>460</ele>
        <time>2015-04-08T14:35:54Z</time>
      </trkpt>
      <trkpt lat="46.16568" lon="2.43779">
        <ele>460</ele>
        <time>2015-04-08T14:35:56Z</time>
      </trkpt>
      <trkpt lat="46.16571" lon="2.4378">
        <ele>460</ele>
        <time>2015-04-08T14:35:58Z</time>
      </trkpt>
      <trkpt lat="46.16573" lon="2.43781">
        <ele>460</ele>
        <time>2015-04-08T14:36:00Z</time>
      </trkpt>
      <trkpt lat="46.16576" lon="2.43782">
        <ele>460</ele>
        <time>2015-04-08T14:36:02Z</time>
      </trkpt>
      <trkpt lat="46.16581" lon="2.43784">
        <ele>460</ele>
        <time>2015-04-08T14:36:05Z</time>
      </trkpt>
      <trkpt lat="46.16584" lon="2.43784">
        <ele>460</ele>
        <time>2015-04-08T14:36:07Z</time>
      </trkpt>
      <trkpt lat="46.16588" lon="2.43786">
        <ele>460</ele>
        <time>2015-04-08T14:36:10Z</time>
      </trkpt>
      <trkpt lat="46.16591" lon="2.43787">
        <ele>460</ele>
        <time>2015-04-08T14:36:12Z</time>
      </trkpt>
      <trkpt lat="46.16595" lon="2.43789">
        <ele>460</ele>
        <time>2015-04-08T14:36:15Z</time>
      </trkpt>
      <trkpt lat="46.16598" lon="2.4379">
        <ele>460</ele>
        <time>2015-04-08T14:36:17Z</time>
      </trkpt>
      <trkpt lat="46.16602" lon="2.43792">
        <ele>460</ele>
        <time>2015-04-08T14:36:20Z</time>
      </trkpt>
      <trkpt lat="46.16606" lon="2.43793">
        <ele>460</ele>
        <time>2015-04-08T14:36:23Z</time>
      </trkpt>
      <trkpt lat="46.1661" lon="2.43795">
        <ele>460</ele>
        <time>2015-04-08T14:36:26Z</time>
      </trkpt>
      <trkpt lat="46.16615" lon="2.43797">
        <ele>460</ele>
        <time>2015-04-08T14:36:29Z</time>
      </trkpt>
      <trkpt lat="46.16619" lon="2.43798">
        <ele>460</ele>
        <time>2015-04-08T14:36:32Z</time>
      </trkpt>
      <trkpt lat="46.16622" lon="2.43799">
        <ele>460</ele>
        <time>2015-04-08T14:36:34Z</time>
      </trkpt>
      <trkpt lat="46.16626" lon="2.43801">
        <ele>460</ele>
        <time>2015-04-08T14:36:37Z</time>
      </trkpt>
      <trkpt lat="46.16629" lon="2.43802">
        <ele>460</ele>
        <time>2015-04-08T14:36:39Z</time>
      </trkpt>
      <trkpt lat="46.16633" lon="2.43804">
        <ele>460</ele>
        <time>2015-04-08T14:36:42Z</time>
      </trkpt>
      <trkpt lat="46.16636" lon="2.43805">
        <ele>460</ele>
        <time>2015-04-08T14:36:44Z</time>
      </trkpt>
      <trkpt lat="46.1664" lon="2.43806">
        <ele>460</ele>
        <time>2015-04-08T14:36:47Z</time>
      </trkpt>
      <trkpt lat="46.16642" lon="2.43807">
        <ele>460</ele>
        <time>2015-04-08T14:36:49Z</time>
      </trkpt>
      <trkpt lat="46.16646" lon="2.43808">
        <ele>460</ele>
        <time>2015-04-08T14:36:52Z</time>
      </trkpt>
      <trkpt lat="46.16649" lon="2.43809">
        <ele>460</ele>
        <time>2015-04-08T14:36:54Z</time>
      </trkpt>
      <trkpt lat="46.16653" lon="2.43811">
        <ele>460</ele>
        <time>2015-04-08T14:36:57Z</time>
      </trkpt>
      <trkpt lat="46.16656" lon="2.43812">
        <ele>460</ele>
        <time>2015-04-08T14:36:59Z</time>
      </trkpt>
      <trkpt lat="46.1666" lon="2.43814">
        <ele>460</ele>
        <time>2015-04-08T14:37:02Z</time>
      </trkpt>
      <trkpt lat="46.16664" lon="2.43815">
        <ele>460</ele>
        <time>2015-04-08T14:37:05Z</time>
      </trkpt>
      <trkpt lat="46.16667" lon="2.43817">
        <ele>460</ele>
        <time>2015-04-08T14:37:07Z</time>
      </trkpt>
      <trkpt lat="46.1667" lon="2.43818">
        <ele>460</ele>
        <time>2015-04-08T14:37:09Z</time>
      </trkpt>
      <trkpt lat="46.16673" lon="2.43819">
        <ele>460</ele>
        <time>2015-04-08T14:37:11Z</time>
      </trkpt>
      <trkpt lat="46.16676" lon="2.4382">
        <ele>460</ele>
        <time>2015-04-08T14:37:13Z</time>
      </trkpt>
      <trkpt lat="46.16681" lon="2.43822">
        <ele>460</ele>
        <time>2015-04-08T14:37:16Z</time>
      </trkpt>
      <trkpt lat="46.16684" lon="2.43823">
        <ele>460</ele>
        <time>2015-04-08T14:37:18Z</time>
      </trkpt>
      <trkpt lat="46.16687" lon="2.43824">
        <ele>460</ele>
        <time>2015-04-08T14:37:20Z</time>
      </trkpt>
      <trkpt lat="46.1669" lon="2.43825">
        <ele>460</ele>
        <time>2015-04-08T14:37:22Z</time>
      </trkpt>
      <trkpt lat="46.16695" lon="2.43827">
        <ele>461</ele>
        <time>2015-04-08T14:37:25Z</time>
      </trkpt>
      <trkpt lat="46.16697" lon="2.43828">
        <ele>461</ele>
        <time>2015-04-08T14:37:27Z</time>
      </trkpt>
      <trkpt lat="46.167" lon="2.43829">
        <ele>461</ele>
        <time>2015-04-08T14:37:29Z</time>
      </trkpt>
      <trkpt lat="46.16705" lon="2.43831">
        <ele>461</ele>
        <time>2015-04-08T14:37:32Z</time>
      </trkpt>
      <trkpt lat="46.1671" lon="2.43833">
        <ele>461</ele>
        <time>2015-04-08T14:37:35Z</time>
      </trkpt>
      <trkpt lat="46.16713" lon="2.43834">
        <ele>461</ele>
        <time>2015-04-08T14:37:37Z</time>
      </trkpt>
      <trkpt lat="46.16717" lon="2.43836">
        <ele>461</ele>
        <time>2015-04-08T14:37:40Z</time>
      </trkpt>
      <trkpt lat="46.16721" lon="2.43837">
        <ele>461</ele>
        <time>2015-04-08T14:37:43Z</time>
      </trkpt>
      <trkpt lat="46.16725" lon="2.43839">
        <ele>461</ele>
        <time>2015-04-08T14:37:46Z</time>
      </trkpt>
      <trkpt lat="46.16728" lon="2.4384">
        <ele>461</ele>
        <time>2015-04-08T14:37:48Z</time>
      </trkpt>
      <trkpt lat="46.16732" lon="2.43841">
        <ele>461</ele>
        <time>2015-04-08T14:37:51Z</time>
      </trkpt>
      <trkpt lat="46.16735" lon="2.43843">
        <ele>461</ele>
        <time>2015-04-08T14:37:53Z</time>
      </trkpt>
      <trkpt lat="46.1674" lon="2.43844">
        <ele>461</ele>
        <time>2015-04-08T14:37:56Z</time>
      </trkpt>
      <trkpt lat="46.16743" lon="2.43845">
        <ele>461</ele>
        <time>2015-04-08T14:37:58Z</time>
      </trkpt>
      <trkpt lat="46.16747" lon="2.43847">
        <ele>461</ele>
        <time>2015-04-08T14:38:01Z</time>
      </trkpt>
      <trkpt lat="46.16751" lon="2.43848">
        <ele>461</ele>
        <time>2015-04-08T14:38:04Z</time>
      </trkpt>
      <trkpt lat="46.16756" lon="2.4385">
        <ele>461</ele>
        <time>2015-04-08T14:38:07Z</time>
      </trkpt>
      <trkpt lat="46.16759" lon="2.43851">
        <ele>461</ele>
        <time>2015-04-08T14:38:09Z</time>
      </trkpt>
      <trkpt lat="46.16761" lon="2.43852">
        <ele>461</ele>
        <time>2015-04-08T14:38:11Z</time>
      </trkpt>
      <trkpt lat="46.16764" lon="2.43853">
        <ele>461</ele>
        <time>2015-04-08T14:38:13Z</time>
      </trkpt>
      <trkpt lat="46.16767" lon="2.43854">
        <ele>461</ele>
        <time>2015-04-08T14:38:15Z</time>
      </trkpt>
      <trkpt lat="46.16771" lon="2.43856">
        <ele>461</ele>
        <time>2015-04-08T14:38:18Z</time>
      </trkpt>
      <trkpt lat="46.16774" lon="2.43858">
        <ele>461</ele>
        <time>2015-04-08T14:38:20Z</time>
      </trkpt>
      <trkpt lat="46.16777" lon="2.43859">
        <ele>461</ele>
        <time>2015-04-08T14:38:22Z</time>
      </trkpt>
      <trkpt lat="46.1678" lon="2.4386">
        <ele>461</ele>
        <time>2015-04-08T14:38:24Z</time>
      </trkpt>
      <trkpt lat="46.16783" lon="2.43861">
        <ele>461</ele>
        <time>2015-04-08T14:38:26Z</time>
      </trkpt>
      <trkpt lat="46.16786" lon="2.43863">
        <ele>461</ele>
        <time>2015-04-08T14:38:28Z</time>
      </trkpt>
      <trkpt lat="46.16789" lon="2.43864">
        <ele>461</ele>
        <time>2015-04-08T14:38:30Z</time>
      </trkpt>
      <trkpt lat="46.16793" lon="2.43865">
        <ele>461</ele>
        <time>2015-04-08T14:38:32Z</time>
      </trkpt>
      <trkpt lat="46.16798" lon="2.43867">
        <ele>461</ele>
        <time>2015-04-08T14:38:35Z</time>
      </trkpt>
      <trkpt lat="46.16801" lon="2.43868">
        <ele>461</ele>
        <time>2015-04-08T14:38:37Z</time>
      </trkpt>
      <trkpt lat="46.16804" lon="2.43869">
        <ele>461</ele>
        <time>2015-04-08T14:38:39Z</time>
      </trkpt>
      <trkpt lat="46.16807" lon="2.4387">
        <ele>461</ele>
        <time>2015-04-08T14:38:41Z</time>
      </trkpt>
      <trkpt lat="46.1681" lon="2.43871">
        <ele>461</ele>
        <time>2015-04-08T14:38:43Z</time>
      </trkpt>
      <trkpt lat="46.16815" lon="2.43873">
        <ele>461</ele>
        <time>2015-04-08T14:38:46Z</time>
      </trkpt>
      <trkpt lat="46.16818" lon="2.43875">
        <ele>461</ele>
        <time>2015-04-08T14:38:48Z</time>
      </trkpt>
      <trkpt lat="46.16822" lon="2.43877">
        <ele>461</ele>
        <time>2015-04-08T14:38:51Z</time>
      </trkpt>
      <trkpt lat="46.16826" lon="2.43878">
        <ele>461</ele>
        <time>2015-04-08T14:38:53Z</time>
      </trkpt>
      <trkpt lat="46.1683" lon="2.4388">
        <ele>461</ele>
        <time>2015-04-08T14:38:56Z</time>
      </trkpt>
      <trkpt lat="46.16833" lon="2.43881">
        <ele>461</ele>
        <time>2015-04-08T14:38:58Z</time>
      </trkpt>
      <trkpt lat="46.16838" lon="2.43883">
        <ele>461</ele>
        <time>2015-04-08T14:39:01Z</time>
      </trkpt>
      <trkpt lat="46.16841" lon="2.43883">
        <ele>461</ele>
        <time>2015-04-08T14:39:03Z</time>
      </trkpt>
      <trkpt lat="46.16845" lon="2.43885">
        <ele>461</ele>
        <time>2015-04-08T14:39:06Z</time>
      </trkpt>
      <trkpt lat="46.16848" lon="2.43886">
        <ele>461</ele>
        <time>2015-04-08T14:39:08Z</time>
      </trkpt>
      <trkpt lat="46.16853" lon="2.43888">
        <ele>461</ele>
        <time>2015-04-08T14:39:11Z</time>
      </trkpt>
      <trkpt lat="46.16856" lon="2.4389">
        <ele>461</ele>
        <time>2015-04-08T14:39:13Z</time>
      </trkpt>
      <trkpt lat="46.16861" lon="2.43892">
        <ele>461</ele>
        <time>2015-04-08T14:39:16Z</time>
      </trkpt>
      <trkpt lat="46.16866" lon="2.43893">
        <ele>461</ele>
        <time>2015-04-08T14:39:19Z</time>
      </trkpt>
      <trkpt lat="46.1687" lon="2.43895">
        <ele>461</ele>
        <time>2015-04-08T14:39:22Z</time>
      </trkpt>
      <trkpt lat="46.16874" lon="2.43896">
        <ele>461</ele>
        <time>2015-04-08T14:39:24Z</time>
      </trkpt>
      <trkpt lat="46.16879" lon="2.43898">
        <ele>461</ele>
        <time>2015-04-08T14:39:27Z</time>
      </trkpt>
      <trkpt lat="46.16882" lon="2.43899">
        <ele>461</ele>
        <time>2015-04-08T14:39:29Z</time>
      </trkpt>
      <trkpt lat="46.16886" lon="2.43901">
        <ele>461</ele>
        <time>2015-04-08T14:39:32Z</time>
      </trkpt>
      <trkpt lat="46.1689" lon="2.43902">
        <ele>461</ele>
        <time>2015-04-08T14:39:34Z</time>
      </trkpt>
      <trkpt lat="46.16894" lon="2.43904">
        <ele>460</ele>
        <time>2015-04-08T14:39:37Z</time>
      </trkpt>
      <trkpt lat="46.16897" lon="2.43906">
        <ele>460</ele>
        <time>2015-04-08T14:39:39Z</time>
      </trkpt>
      <trkpt lat="46.169" lon="2.43907">
        <ele>460</ele>
        <time>2015-04-08T14:39:41Z</time>
      </trkpt>
      <trkpt lat="46.16903" lon="2.43909">
        <ele>460</ele>
        <time>2015-04-08T14:39:43Z</time>
      </trkpt>
      <trkpt lat="46.16907" lon="2.4391">
        <ele>460</ele>
        <time>2015-04-08T14:39:46Z</time>
      </trkpt>
      <trkpt lat="46.1691" lon="2.43912">
        <ele>460</ele>
        <time>2015-04-08T14:39:48Z</time>
      </trkpt>
      <trkpt lat="46.16913" lon="2.43913">
        <ele>459</ele>
        <time>2015-04-08T14:39:50Z</time>
      </trkpt>
      <trkpt lat="46.16918" lon="2.43915">
        <ele>459</ele>
        <time>2015-04-08T14:39:53Z</time>
      </trkpt>
      <trkpt lat="46.16921" lon="2.43916">
        <ele>459</ele>
        <time>2015-04-08T14:39:55Z</time>
      </trkpt>
      <trkpt lat="46.16926" lon="2.43918">
        <ele>459</ele>
        <time>2015-04-08T14:39:58Z</time>
      </trkpt>
      <trkpt lat="46.16929" lon="2.43919">
        <ele>459</ele>
        <time>2015-04-08T14:40:00Z</time>
      </trkpt>
      <trkpt lat="46.16934" lon="2.43921">
        <ele>459</ele>
        <time>2015-04-08T14:40:03Z</time>
      </trkpt>
      <trkpt lat="46.16937" lon="2.43923">
        <ele>459</ele>
        <time>2015-04-08T14:40:05Z</time>
      </trkpt>
      <trkpt lat="46.1694" lon="2.43924">
        <ele>459</ele>
        <time>2015-04-08T14:40:07Z</time>
      </trkpt>
      <trkpt lat="46.16943" lon="2.43926">
        <ele>459</ele>
        <time>2015-04-08T14:40:09Z</time>
      </trkpt>
      <trkpt lat="46.16946" lon="2.43927">
        <ele>458</ele>
        <time>2015-04-08T14:40:11Z</time>
      </trkpt>
      <trkpt lat="46.16949" lon="2.43927">
        <ele>458</ele>
        <time>2015-04-08T14:40:13Z</time>
      </trkpt>
      <trkpt lat="46.16954" lon="2.43928">
        <ele>458</ele>
        <time>2015-04-08T14:40:16Z</time>
      </trkpt>
      <trkpt lat="46.16957" lon="2.43929">
        <ele>458</ele>
        <time>2015-04-08T14:40:18Z</time>
      </trkpt>
      <trkpt lat="46.16961" lon="2.43929">
        <ele>458</ele>
        <time>2015-04-08T14:40:20Z</time>
      </trkpt>
      <trkpt lat="46.16964" lon="2.43929">
        <ele>458</ele>
        <time>2015-04-08T14:40:22Z</time>
      </trkpt>
      <trkpt lat="46.16967" lon="2.4393">
        <ele>458</ele>
        <time>2015-04-08T14:40:24Z</time>
      </trkpt>
      <trkpt lat="46.16971" lon="2.4393">
        <ele>458</ele>
        <time>2015-04-08T14:40:26Z</time>
      </trkpt>
      <trkpt lat="46.16974" lon="2.4393">
        <ele>458</ele>
        <time>2015-04-08T14:40:28Z</time>
      </trkpt>
      <trkpt lat="46.16977" lon="2.4393">
        <ele>458</ele>
        <time>2015-04-08T14:40:30Z</time>
      </trkpt>
      <trkpt lat="46.16981" lon="2.4393">
        <ele>458</ele>
        <time>2015-04-08T14:40:32Z</time>
      </trkpt>
      <trkpt lat="46.16986" lon="2.4393">
        <ele>458</ele>
        <time>2015-04-08T14:40:35Z</time>
      </trkpt>
      <trkpt lat="46.16991" lon="2.4393">
        <ele>458</ele>
        <time>2015-04-08T14:40:38Z</time>
      </trkpt>
      <trkpt lat="46.16996" lon="2.4393">
        <ele>458</ele>
        <time>2015-04-08T14:40:41Z</time>
      </trkpt>
      <trkpt lat="46.16999" lon="2.43929">
        <ele>457</ele>
        <time>2015-04-08T14:40:43Z</time>
      </trkpt>
      <trkpt lat="46.17002" lon="2.43929">
        <ele>457</ele>
        <time>2015-04-08T14:40:45Z</time>
      </trkpt>
      <trkpt lat="46.17005" lon="2.43928">
        <ele>457</ele>
        <time>2015-04-08T14:40:47Z</time>
      </trkpt>
      <trkpt lat="46.17009" lon="2.43927">
        <ele>456</ele>
        <time>2015-04-08T14:40:49Z</time>
      </trkpt>
      <trkpt lat="46.17013" lon="2.43927">
        <ele>456</ele>
        <time>2015-04-08T14:40:52Z</time>
      </trkpt>
      <trkpt lat="46.17016" lon="2.43926">
        <ele>456</ele>
        <time>2015-04-08T14:40:54Z</time>
      </trkpt>
      <trkpt lat="46.1702" lon="2.43925">
        <ele>456</ele>
        <time>2015-04-08T14:40:57Z</time>
      </trkpt>
      <trkpt lat="46.17023" lon="2.43925">
        <ele>456</ele>
        <time>2015-04-08T14:40:59Z</time>
      </trkpt>
      <trkpt lat="46.17028" lon="2.43924">
        <ele>456</ele>
        <time>2015-04-08T14:41:02Z</time>
      </trkpt>
      <trkpt lat="46.1703" lon="2.43923">
        <ele>456</ele>
        <time>2015-04-08T14:41:04Z</time>
      </trkpt>
      <trkpt lat="46.17035" lon="2.43922">
        <ele>456</ele>
        <time>2015-04-08T14:41:07Z</time>
      </trkpt>
      <trkpt lat="46.17038" lon="2.43921">
        <ele>455</ele>
        <time>2015-04-08T14:41:09Z</time>
      </trkpt>
      <trkpt lat="46.1704" lon="2.4392">
        <ele>455</ele>
        <time>2015-04-08T14:41:11Z</time>
      </trkpt>
      <trkpt lat="46.17045" lon="2.43919">
        <ele>455</ele>
        <time>2015-04-08T14:41:14Z</time>
      </trkpt>
      <trkpt lat="46.17048" lon="2.43918">
        <ele>455</ele>
        <time>2015-04-08T14:41:16Z</time>
      </trkpt>
      <trkpt lat="46.17051" lon="2.43917">
        <ele>455</ele>
        <time>2015-04-08T14:41:18Z</time>
      </trkpt>
      <trkpt lat="46.17054" lon="2.43915">
        <ele>455</ele>
        <time>2015-04-08T14:41:20Z</time>
      </trkpt>
      <trkpt lat="46.17058" lon="2.43914">
        <ele>455</ele>
        <time>2015-04-08T14:41:23Z</time>
      </trkpt>
      <trkpt lat="46.17062" lon="2.43911">
        <ele>455</ele>
        <time>2015-04-08T14:41:26Z</time>
      </trkpt>
      <trkpt lat="46.17066" lon="2.4391">
        <ele>454</ele>
        <time>2015-04-08T14:41:29Z</time>
      </trkpt>
      <trkpt lat="46.17069" lon="2.43908">
        <ele>454</ele>
        <time>2015-04-08T14:41:31Z</time>
      </trkpt>
      <trkpt lat="46.17073" lon="2.43906">
        <ele>454</ele>
        <time>2015-04-08T14:41:34Z</time>
      </trkpt>
      <trkpt lat="46.17078" lon="2.43903">
        <ele>454</ele>
        <time>2015-04-08T14:41:37Z</time>
      </trkpt>
      <trkpt lat="46.17082" lon="2.43901">
        <ele>454</ele>
        <time>2015-04-08T14:41:40Z</time>
      </trkpt>
      <trkpt lat="46.17085" lon="2.43899">
        <ele>454</ele>
        <time>2015-04-08T14:41:42Z</time>
      </trkpt>
      <trkpt lat="46.17089" lon="2.43897">
        <ele>454</ele>
        <time>2015-04-08T14:41:45Z</time>
      </trkpt>
      <trkpt lat="46.17092" lon="2.43895">
        <ele>454</ele>
        <time>2015-04-08T14:41:47Z</time>
      </trkpt>
      <trkpt lat="46.17096" lon="2.43892">
        <ele>454</ele>
        <time>2015-04-08T14:41:50Z</time>
      </trkpt>
      <trkpt lat="46.17098" lon="2.4389">
        <ele>454</ele>
        <time>2015-04-08T14:41:52Z</time>
      </trkpt>
      <trkpt lat="46.17102" lon="2.43887">
        <ele>454</ele>
        <time>2015-04-08T14:41:55Z</time>
      </trkpt>
      <trkpt lat="46.17105" lon="2.43885">
        <ele>454</ele>
        <time>2015-04-08T14:41:57Z</time>
      </trkpt>
      <trkpt lat="46.17109" lon="2.43882">
        <ele>453</ele>
        <time>2015-04-08T14:42:00Z</time>
      </trkpt>
      <trkpt lat="46.17113" lon="2.43878">
        <ele>453</ele>
        <time>2015-04-08T14:42:03Z</time>
      </trkpt>
      <trkpt lat="46.17117" lon="2.43875">
        <ele>453</ele>
        <time>2015-04-08T14:42:06Z</time>
      </trkpt>
      <trkpt lat="46.17119" lon="2.43873">
        <ele>453</ele>
        <time>2015-04-08T14:42:08Z</time>
      </trkpt>
      <trkpt lat="46.17123" lon="2.43869">
        <ele>452</ele>
        <time>2015-04-08T14:42:11Z</time>
      </trkpt>
      <trkpt lat="46.17125" lon="2.43868">
        <ele>452</ele>
        <time>2015-04-08T14:42:13Z</time>
      </trkpt>
      <trkpt lat="46.17128" lon="2.43867">
        <ele>452</ele>
        <time>2015-04-08T14:42:17Z</time>
      </trkpt>
      <trkpt lat="46.17129" lon="2.43867">
        <ele>452</ele>
        <time>2015-04-08T14:42:19Z</time>
      </trkpt>
      <trkpt lat="46.17132" lon="2.43869">
        <ele>452</ele>
        <time>2015-04-08T14:42:22Z</time>
      </trkpt>
      <trkpt lat="46.17135" lon="2.43872">
        <ele>452</ele>
        <time>2015-04-08T14:42:25Z</time>
      </trkpt>
      <trkpt lat="46.17135" lon="2.43875">
        <ele>452</ele>
        <time>2015-04-08T14:42:27Z</time>
      </trkpt>
      <trkpt lat="46.17134" lon="2.43874">
        <ele>452</ele>
        <time>2015-04-08T14:42:45Z</time>
      </trkpt>
      <trkpt lat="46.17135" lon="2.43873">
        <ele>453</ele>
        <time>2015-04-08T14:43:02Z</time>
      </trkpt>
      <trkpt lat="46.17139" lon="2.43899">
        <ele>458</ele>
        <time>2015-04-08T14:43:07Z</time>
      </trkpt>
      <trkpt lat="46.17139" lon="2.43903">
        <ele>458</ele>
        <time>2015-04-08T14:43:09Z</time>
      </trkpt>
      <trkpt lat="46.1714" lon="2.43908">
        <ele>458</ele>
        <time>2015-04-08T14:43:11Z</time>
      </trkpt>
      <trkpt lat="46.17141" lon="2.43912">
        <ele>458</ele>
        <time>2015-04-08T14:43:13Z</time>
      </trkpt>
      <trkpt lat="46.17141" lon="2.43919">
        <ele>457</ele>
        <time>2015-04-08T14:43:16Z</time>
      </trkpt>
      <trkpt lat="46.17142" lon="2.43924">
        <ele>457</ele>
        <time>2015-04-08T14:43:18Z</time>
      </trkpt>
      <trkpt lat="46.17143" lon="2.43932">
        <ele>456</ele>
        <time>2015-04-08T14:43:21Z</time>
      </trkpt>
      <trkpt lat="46.17144" lon="2.43938">
        <ele>455</ele>
        <time>2015-04-08T14:43:24Z</time>
      </trkpt>
      <trkpt lat="46.17146" lon="2.43944">
        <ele>455</ele>
        <time>2015-04-08T14:43:27Z</time>
      </trkpt>
      <trkpt lat="46.17147" lon="2.43951">
        <ele>455</ele>
        <time>2015-04-08T14:43:30Z</time>
      </trkpt>
      <trkpt lat="46.17147" lon="2.43954">
        <ele>455</ele>
        <time>2015-04-08T14:43:32Z</time>
      </trkpt>
      <trkpt lat="46.17149" lon="2.43958">
        <ele>454</ele>
        <time>2015-04-08T14:43:34Z</time>
      </trkpt>
      <trkpt lat="46.17149" lon="2.43961">
        <ele>454</ele>
        <time>2015-04-08T14:43:36Z</time>
      </trkpt>
      <trkpt lat="46.17151" lon="2.43966">
        <ele>454</ele>
        <time>2015-04-08T14:43:39Z</time>
      </trkpt>
      <trkpt lat="46.17154" lon="2.4397">
        <ele>454</ele>
        <time>2015-04-08T14:43:42Z</time>
      </trkpt>
      <trkpt lat="46.17155" lon="2.43973">
        <ele>454</ele>
        <time>2015-04-08T14:43:44Z</time>
      </trkpt>
      <trkpt lat="46.17157" lon="2.43975">
        <ele>454</ele>
        <time>2015-04-08T14:43:46Z</time>
      </trkpt>
      <trkpt lat="46.17161" lon="2.43979">
        <ele>453</ele>
        <time>2015-04-08T14:43:50Z</time>
      </trkpt>
      <trkpt lat="46.17163" lon="2.4398">
        <ele>453</ele>
        <time>2015-04-08T14:43:52Z</time>
      </trkpt>
      <trkpt lat="46.17166" lon="2.43981">
        <ele>453</ele>
        <time>2015-04-08T14:43:54Z</time>
      </trkpt>
      <trkpt lat="46.17168" lon="2.43982">
        <ele>453</ele>
        <time>2015-04-08T14:43:56Z</time>
      </trkpt>
      <trkpt lat="46.17173" lon="2.43984">
        <ele>453</ele>
        <time>2015-04-08T14:43:59Z</time>
      </trkpt>
      <trkpt lat="46.17175" lon="2.43984">
        <ele>453</ele>
        <time>2015-04-08T14:44:01Z</time>
      </trkpt>
      <trkpt lat="46.17179" lon="2.43985">
        <ele>453</ele>
        <time>2015-04-08T14:44:04Z</time>
      </trkpt>
      <trkpt lat="46.17182" lon="2.43986">
        <ele>453</ele>
        <time>2015-04-08T14:44:06Z</time>
      </trkpt>
      <trkpt lat="46.17186" lon="2.43987">
        <ele>453</ele>
        <time>2015-04-08T14:44:09Z</time>
      </trkpt>
      <trkpt lat="46.17189" lon="2.43988">
        <ele>453</ele>
        <time>2015-04-08T14:44:11Z</time>
      </trkpt>
      <trkpt lat="46.17193" lon="2.4399">
        <ele>453</ele>
        <time>2015-04-08T14:44:14Z</time>
      </trkpt>
      <trkpt lat="46.17196" lon="2.43992">
        <ele>453</ele>
        <time>2015-04-08T14:44:16Z</time>
      </trkpt>
      <trkpt lat="46.172" lon="2.43994">
        <ele>453</ele>
        <time>2015-04-08T14:44:19Z</time>
      </trkpt>
      <trkpt lat="46.17203" lon="2.43996">
        <ele>453</ele>
        <time>2015-04-08T14:44:21Z</time>
      </trkpt>
      <trkpt lat="46.17207" lon="2.43999">
        <ele>453</ele>
        <time>2015-04-08T14:44:24Z</time>
      </trkpt>
      <trkpt lat="46.1721" lon="2.44001">
        <ele>453</ele>
        <time>2015-04-08T14:44:26Z</time>
      </trkpt>
      <trkpt lat="46.17213" lon="2.44005">
        <ele>453</ele>
        <time>2015-04-08T14:44:29Z</time>
      </trkpt>
      <trkpt lat="46.17216" lon="2.44007">
        <ele>453</ele>
        <time>2015-04-08T14:44:31Z</time>
      </trkpt>
      <trkpt lat="46.1722" lon="2.4401">
        <ele>453</ele>
        <time>2015-04-08T14:44:34Z</time>
      </trkpt>
      <trkpt lat="46.17223" lon="2.44012">
        <ele>453</ele>
        <time>2015-04-08T14:44:36Z</time>
      </trkpt>
      <trkpt lat="46.17226" lon="2.44017">
        <ele>453</ele>
        <time>2015-04-08T14:44:39Z</time>
      </trkpt>
      <trkpt lat="46.17228" lon="2.44019">
        <ele>453</ele>
        <time>2015-04-08T14:44:41Z</time>
      </trkpt>
      <trkpt lat="46.1723" lon="2.44024">
        <ele>453</ele>
        <time>2015-04-08T14:44:44Z</time>
      </trkpt>
      <trkpt lat="46.17231" lon="2.44029">
        <ele>452</ele>
        <time>2015-04-08T14:44:46Z</time>
      </trkpt>
      <trkpt lat="46.17233" lon="2.44035">
        <ele>452</ele>
        <time>2015-04-08T14:44:49Z</time>
      </trkpt>
      <trkpt lat="46.17235" lon="2.44038">
        <ele>451</ele>
        <time>2015-04-08T14:44:51Z</time>
      </trkpt>
      <trkpt lat="46.17237" lon="2.44044">
        <ele>451</ele>
        <time>2015-04-08T14:44:54Z</time>
      </trkpt>
      <trkpt lat="46.17239" lon="2.44047">
        <ele>450</ele>
        <time>2015-04-08T14:44:56Z</time>
      </trkpt>
      <trkpt lat="46.17241" lon="2.44053">
        <ele>450</ele>
        <time>2015-04-08T14:44:59Z</time>
      </trkpt>
      <trkpt lat="46.17243" lon="2.44057">
        <ele>450</ele>
        <time>2015-04-08T14:45:01Z</time>
      </trkpt>
      <trkpt lat="46.17246" lon="2.44061">
        <ele>450</ele>
        <time>2015-04-08T14:45:04Z</time>
      </trkpt>
      <trkpt lat="46.17249" lon="2.44063">
        <ele>450</ele>
        <time>2015-04-08T14:45:06Z</time>
      </trkpt>
      <trkpt lat="46.17253" lon="2.44065">
        <ele>450</ele>
        <time>2015-04-08T14:45:09Z</time>
      </trkpt>
      <trkpt lat="46.17255" lon="2.44068">
        <ele>450</ele>
        <time>2015-04-08T14:45:11Z</time>
      </trkpt>
      <trkpt lat="46.17258" lon="2.4407">
        <ele>450</ele>
        <time>2015-04-08T14:45:13Z</time>
      </trkpt>
      <trkpt lat="46.1726" lon="2.44073">
        <ele>450</ele>
        <time>2015-04-08T14:45:15Z</time>
      </trkpt>
      <trkpt lat="46.17262" lon="2.44076">
        <ele>450</ele>
        <time>2015-04-08T14:45:17Z</time>
      </trkpt>
      <trkpt lat="46.17263" lon="2.4408">
        <ele>450</ele>
        <time>2015-04-08T14:45:19Z</time>
      </trkpt>
      <trkpt lat="46.17265" lon="2.44083">
        <ele>450</ele>
        <time>2015-04-08T14:45:21Z</time>
      </trkpt>
      <trkpt lat="46.17269" lon="2.44088">
        <ele>450</ele>
        <time>2015-04-08T14:45:24Z</time>
      </trkpt>
      <trkpt lat="46.17271" lon="2.44091">
        <ele>450</ele>
        <time>2015-04-08T14:45:26Z</time>
      </trkpt>
      <trkpt lat="46.17273" lon="2.44095">
        <ele>450</ele>
        <time>2015-04-08T14:45:28Z</time>
      </trkpt>
      <trkpt lat="46.17275" lon="2.44098">
        <ele>450</ele>
        <time>2015-04-08T14:45:30Z</time>
      </trkpt>
      <trkpt lat="46.17276" lon="2.44102">
        <ele>450</ele>
        <time>2015-04-08T14:45:32Z</time>
      </trkpt>
      <trkpt lat="46.17278" lon="2.44106">
        <ele>450</ele>
        <time>2015-04-08T14:45:34Z</time>
      </trkpt>
      <trkpt lat="46.17279" lon="2.4411">
        <ele>450</ele>
        <time>2015-04-08T14:45:36Z</time>
      </trkpt>
      <trkpt lat="46.17281" lon="2.44116">
        <ele>450</ele>
        <time>2015-04-08T14:45:39Z</time>
      </trkpt>
      <trkpt lat="46.17282" lon="2.44121">
        <ele>450</ele>
        <time>2015-04-08T14:45:41Z</time>
      </trkpt>
      <trkpt lat="46.17284" lon="2.44126">
        <ele>450</ele>
        <time>2015-04-08T14:45:44Z</time>
      </trkpt>
      <trkpt lat="46.17284" lon="2.44131">
        <ele>450</ele>
        <time>2015-04-08T14:45:46Z</time>
      </trkpt>
      <trkpt lat="46.17286" lon="2.44135">
        <ele>450</ele>
        <time>2015-04-08T14:45:48Z</time>
      </trkpt>
      <trkpt lat="46.17287" lon="2.44139">
        <ele>450</ele>
        <time>2015-04-08T14:45:50Z</time>
      </trkpt>
      <trkpt lat="46.17287" lon="2.44143">
        <ele>450</ele>
        <time>2015-04-08T14:45:52Z</time>
      </trkpt>
      <trkpt lat="46.17289" lon="2.44147">
        <ele>450</ele>
        <time>2015-04-08T14:45:54Z</time>
      </trkpt>
      <trkpt lat="46.1729" lon="2.44152">
        <ele>450</ele>
        <time>2015-04-08T14:45:56Z</time>
      </trkpt>
      <trkpt lat="46.17291" lon="2.44158">
        <ele>450</ele>
        <time>2015-04-08T14:45:59Z</time>
      </trkpt>
      <trkpt lat="46.17292" lon="2.44162">
        <ele>450</ele>
        <time>2015-04-08T14:46:01Z</time>
      </trkpt>
      <trkpt lat="46.17294" lon="2.44167">
        <ele>450</ele>
        <time>2015-04-08T14:46:04Z</time>
      </trkpt>
      <trkpt lat="46.17295" lon="2.44171">
        <ele>450</ele>
        <time>2015-04-08T14:46:06Z</time>
      </trkpt>
      <trkpt lat="46.17298" lon="2.44176">
        <ele>450</ele>
        <time>2015-04-08T14:46:09Z</time>
      </trkpt>
      <trkpt lat="46.173" lon="2.44179">
        <ele>450</ele>
        <time>2015-04-08T14:46:11Z</time>
      </trkpt>
      <trkpt lat="46.17302" lon="2.44181">
        <ele>450</ele>
        <time>2015-04-08T14:46:13Z</time>
      </trkpt>
      <trkpt lat="46.17305" lon="2.44182">
        <ele>450</ele>
        <time>2015-04-08T14:46:15Z</time>
      </trkpt>
      <trkpt lat="46.17308" lon="2.44183">
        <ele>450</ele>
        <time>2015-04-08T14:46:17Z</time>
      </trkpt>
      <trkpt lat="46.17311" lon="2.44183">
        <ele>450</ele>
        <time>2015-04-08T14:46:19Z</time>
      </trkpt>
      <trkpt lat="46.17314" lon="2.44184">
        <ele>450</ele>
        <time>2015-04-08T14:46:21Z</time>
      </trkpt>
      <trkpt lat="46.17318" lon="2.44186">
        <ele>450</ele>
        <time>2015-04-08T14:46:24Z</time>
      </trkpt>
      <trkpt lat="46.1732" lon="2.4419">
        <ele>450</ele>
        <time>2015-04-08T14:46:26Z</time>
      </trkpt>
      <trkpt lat="46.17321" lon="2.44194">
        <ele>450</ele>
        <time>2015-04-08T14:46:28Z</time>
      </trkpt>
      <trkpt lat="46.17321" lon="2.44199">
        <ele>450</ele>
        <time>2015-04-08T14:46:30Z</time>
      </trkpt>
      <trkpt lat="46.17322" lon="2.44203">
        <ele>450</ele>
        <time>2015-04-08T14:46:32Z</time>
      </trkpt>
      <trkpt lat="46.17322" lon="2.44208">
        <ele>450</ele>
        <time>2015-04-08T14:46:34Z</time>
      </trkpt>
      <trkpt lat="46.17322" lon="2.44212">
        <ele>450</ele>
        <time>2015-04-08T14:46:36Z</time>
      </trkpt>
      <trkpt lat="46.17324" lon="2.44217">
        <ele>450</ele>
        <time>2015-04-08T14:46:39Z</time>
      </trkpt>
      <trkpt lat="46.17326" lon="2.4422">
        <ele>450</ele>
        <time>2015-04-08T14:46:41Z</time>
      </trkpt>
      <trkpt lat="46.17329" lon="2.44222">
        <ele>450</ele>
        <time>2015-04-08T14:46:43Z</time>
      </trkpt>
      <trkpt lat="46.17331" lon="2.44225">
        <ele>450</ele>
        <time>2015-04-08T14:46:45Z</time>
      </trkpt>
      <trkpt lat="46.17334" lon="2.44226">
        <ele>450</ele>
        <time>2015-04-08T14:46:47Z</time>
      </trkpt>
      <trkpt lat="46.17337" lon="2.44227">
        <ele>450</ele>
        <time>2015-04-08T14:46:49Z</time>
      </trkpt>
      <trkpt lat="46.1734" lon="2.44228">
        <ele>450</ele>
        <time>2015-04-08T14:46:51Z</time>
      </trkpt>
      <trkpt lat="46.17342" lon="2.44229">
        <ele>450</ele>
        <time>2015-04-08T14:46:53Z</time>
      </trkpt>
      <trkpt lat="46.17345" lon="2.4423">
        <ele>451</ele>
        <time>2015-04-08T14:46:55Z</time>
      </trkpt>
      <trkpt lat="46.17348" lon="2.4423">
        <ele>451</ele>
        <time>2015-04-08T14:46:57Z</time>
      </trkpt>
      <trkpt lat="46.17351" lon="2.44231">
        <ele>451</ele>
        <time>2015-04-08T14:46:59Z</time>
      </trkpt>
      <trkpt lat="46.17354" lon="2.44232">
        <ele>451</ele>
        <time>2015-04-08T14:47:01Z</time>
      </trkpt>
      <trkpt lat="46.17357" lon="2.44233">
        <ele>451</ele>
        <time>2015-04-08T14:47:03Z</time>
      </trkpt>
      <trkpt lat="46.1736" lon="2.44234">
        <ele>451</ele>
        <time>2015-04-08T14:47:05Z</time>
      </trkpt>
      <trkpt lat="46.17362" lon="2.44235">
        <ele>451</ele>
        <time>2015-04-08T14:47:07Z</time>
      </trkpt>
      <trkpt lat="46.17365" lon="2.44236">
        <ele>451</ele>
        <time>2015-04-08T14:47:09Z</time>
      </trkpt>
      <trkpt lat="46.17368" lon="2.44236">
        <ele>451</ele>
        <time>2015-04-08T14:47:11Z</time>
      </trkpt>
      <trkpt lat="46.17371" lon="2.44237">
        <ele>451</ele>
        <time>2015-04-08T14:47:13Z</time>
      </trkpt>
      <trkpt lat="46.17374" lon="2.44238">
        <ele>451</ele>
        <time>2015-04-08T14:47:15Z</time>
      </trkpt>
      <trkpt lat="46.17376" lon="2.44238">
        <ele>451</ele>
        <time>2015-04-08T14:47:17Z</time>
      </trkpt>
      <trkpt lat="46.17379" lon="2.44239">
        <ele>451</ele>
        <time>2015-04-08T14:47:19Z</time>
      </trkpt>
      <trkpt lat="46.17382" lon="2.4424">
        <ele>451</ele>
        <time>2015-04-08T14:47:21Z</time>
      </trkpt>
      <trkpt lat="46.17386" lon="2.44241">
        <ele>452</ele>
        <time>2015-04-08T14:47:24Z</time>
      </trkpt>
      <trkpt lat="46.17389" lon="2.44242">
        <ele>452</ele>
        <time>2015-04-08T14:47:26Z</time>
      </trkpt>
      <trkpt lat="46.17392" lon="2.44243">
        <ele>452</ele>
        <time>2015-04-08T14:47:28Z</time>
      </trkpt>
      <trkpt lat="46.17394" lon="2.44244">
        <ele>452</ele>
        <time>2015-04-08T14:47:30Z</time>
      </trkpt>
      <trkpt lat="46.17397" lon="2.44244">
        <ele>452</ele>
        <time>2015-04-08T14:47:32Z</time>
      </trkpt>
      <trkpt lat="46.174" lon="2.44245">
        <ele>452</ele>
        <time>2015-04-08T14:47:34Z</time>
      </trkpt>
      <trkpt lat="46.17403" lon="2.44246">
        <ele>452</ele>
        <time>2015-04-08T14:47:36Z</time>
      </trkpt>
      <trkpt lat="46.17406" lon="2.44246">
        <ele>452</ele>
        <time>2015-04-08T14:47:38Z</time>
      </trkpt>
      <trkpt lat="46.17409" lon="2.44247">
        <ele>452</ele>
        <time>2015-04-08T14:47:40Z</time>
      </trkpt>
      <trkpt lat="46.17412" lon="2.44248">
        <ele>452</ele>
        <time>2015-04-08T14:47:42Z</time>
      </trkpt>
      <trkpt lat="46.17415" lon="2.44249">
        <ele>452</ele>
        <time>2015-04-08T14:47:44Z</time>
      </trkpt>
      <trkpt lat="46.17418" lon="2.4425">
        <ele>452</ele>
        <time>2015-04-08T14:47:46Z</time>
      </trkpt>
      <trkpt lat="46.17421" lon="2.4425">
        <ele>452</ele>
        <time>2015-04-08T14:47:48Z</time>
      </trkpt>
      <trkpt lat="46.17424" lon="2.44251">
        <ele>452</ele>
        <time>2015-04-08T14:47:50Z</time>
      </trkpt>
      <trkpt lat="46.17427" lon="2.44252">
        <ele>452</ele>
        <time>2015-04-08T14:47:52Z</time>
      </trkpt>
      <trkpt lat="46.1743" lon="2.44253">
        <ele>452</ele>
        <time>2015-04-08T14:47:54Z</time>
      </trkpt>
      <trkpt lat="46.17432" lon="2.44254">
        <ele>452</ele>
        <time>2015-04-08T14:47:56Z</time>
      </trkpt>
      <trkpt lat="46.17437" lon="2.44257">
        <ele>452</ele>
        <time>2015-04-08T14:47:59Z</time>
      </trkpt>
      <trkpt lat="46.17439" lon="2.44258">
        <ele>452</ele>
        <time>2015-04-08T14:48:01Z</time>
      </trkpt>
      <trkpt lat="46.17443" lon="2.44261">
        <ele>452</ele>
        <time>2015-04-08T14:48:04Z</time>
      </trkpt>
      <trkpt lat="46.17445" lon="2.44262">
        <ele>452</ele>
        <time>2015-04-08T14:48:06Z</time>
      </trkpt>
      <trkpt lat="46.17446" lon="2.44263">
        <ele>452</ele>
        <time>2015-04-08T14:48:12Z</time>
      </trkpt>
      <trkpt lat="46.17448" lon="2.44263">
        <ele>452</ele>
        <time>2015-04-08T14:48:14Z</time>
      </trkpt>
      <trkpt lat="46.17449" lon="2.44263">
        <ele>452</ele>
        <time>2015-04-08T14:48:32Z</time>
      </trkpt>
      <trkpt lat="46.17451" lon="2.44265">
        <ele>452</ele>
        <time>2015-04-08T14:48:34Z</time>
      </trkpt>
      <trkpt lat="46.17453" lon="2.44267">
        <ele>452</ele>
        <time>2015-04-08T14:48:36Z</time>
      </trkpt>
      <trkpt lat="46.17456" lon="2.44269">
        <ele>452</ele>
        <time>2015-04-08T14:48:38Z</time>
      </trkpt>
      <trkpt lat="46.17458" lon="2.44272">
        <ele>452</ele>
        <time>2015-04-08T14:48:40Z</time>
      </trkpt>
      <trkpt lat="46.17461" lon="2.44274">
        <ele>452</ele>
        <time>2015-04-08T14:48:42Z</time>
      </trkpt>
      <trkpt lat="46.17464" lon="2.44277">
        <ele>452</ele>
        <time>2015-04-08T14:48:44Z</time>
      </trkpt>
      <trkpt lat="46.17466" lon="2.44279">
        <ele>452</ele>
        <time>2015-04-08T14:48:46Z</time>
      </trkpt>
      <trkpt lat="46.17469" lon="2.44281">
        <ele>452</ele>
        <time>2015-04-08T14:48:48Z</time>
      </trkpt>
      <trkpt lat="46.17472" lon="2.44283">
        <ele>452</ele>
        <time>2015-04-08T14:48:50Z</time>
      </trkpt>
      <trkpt lat="46.17474" lon="2.44285">
        <ele>452</ele>
        <time>2015-04-08T14:48:52Z</time>
      </trkpt>
      <trkpt lat="46.17477" lon="2.44288">
        <ele>452</ele>
        <time>2015-04-08T14:48:54Z</time>
      </trkpt>
      <trkpt lat="46.1748" lon="2.4429">
        <ele>452</ele>
        <time>2015-04-08T14:48:56Z</time>
      </trkpt>
      <trkpt lat="46.17482" lon="2.44292">
        <ele>452</ele>
        <time>2015-04-08T14:48:58Z</time>
      </trkpt>
      <trkpt lat="46.17485" lon="2.44294">
        <ele>452</ele>
        <time>2015-04-08T14:49:00Z</time>
      </trkpt>
      <trkpt lat="46.17488" lon="2.44296">
        <ele>452</ele>
        <time>2015-04-08T14:49:02Z</time>
      </trkpt>
      <trkpt lat="46.17491" lon="2.44298">
        <ele>452</ele>
        <time>2015-04-08T14:49:04Z</time>
      </trkpt>
      <trkpt lat="46.17494" lon="2.443">
        <ele>452</ele>
        <time>2015-04-08T14:49:06Z</time>
      </trkpt>
      <trkpt lat="46.17496" lon="2.44302">
        <ele>452</ele>
        <time>2015-04-08T14:49:08Z</time>
      </trkpt>
      <trkpt lat="46.175" lon="2.44305">
        <ele>452</ele>
        <time>2015-04-08T14:49:11Z</time>
      </trkpt>
      <trkpt lat="46.17503" lon="2.44307">
        <ele>452</ele>
        <time>2015-04-08T14:49:13Z</time>
      </trkpt>
      <trkpt lat="46.17507" lon="2.44309">
        <ele>452</ele>
        <time>2015-04-08T14:49:16Z</time>
      </trkpt>
      <trkpt lat="46.1751" lon="2.44311">
        <ele>452</ele>
        <time>2015-04-08T14:49:18Z</time>
      </trkpt>
      <trkpt lat="46.17515" lon="2.44314">
        <ele>451</ele>
        <time>2015-04-08T14:49:21Z</time>
      </trkpt>
      <trkpt lat="46.17518" lon="2.44315">
        <ele>451</ele>
        <time>2015-04-08T14:49:23Z</time>
      </trkpt>
      <trkpt lat="46.17521" lon="2.44317">
        <ele>451</ele>
        <time>2015-04-08T14:49:25Z</time>
      </trkpt>
      <trkpt lat="46.17524" lon="2.44319">
        <ele>451</ele>
        <time>2015-04-08T14:49:27Z</time>
      </trkpt>
      <trkpt lat="46.17527" lon="2.4432">
        <ele>450</ele>
        <time>2015-04-08T14:49:29Z</time>
      </trkpt>
      <trkpt lat="46.1753" lon="2.44321">
        <ele>450</ele>
        <time>2015-04-08T14:49:31Z</time>
      </trkpt>
      <trkpt lat="46.17533" lon="2.44322">
        <ele>450</ele>
        <time>2015-04-08T14:49:33Z</time>
      </trkpt>
      <trkpt lat="46.17537" lon="2.44324">
        <ele>449</ele>
        <time>2015-04-08T14:49:36Z</time>
      </trkpt>
      <trkpt lat="46.1754" lon="2.44325">
        <ele>449</ele>
        <time>2015-04-08T14:49:38Z</time>
      </trkpt>
      <trkpt lat="46.17543" lon="2.44327">
        <ele>449</ele>
        <time>2015-04-08T14:49:40Z</time>
      </trkpt>
      <trkpt lat="46.17546" lon="2.44328">
        <ele>449</ele>
        <time>2015-04-08T14:49:42Z</time>
      </trkpt>
      <trkpt lat="46.17549" lon="2.44329">
        <ele>448</ele>
        <time>2015-04-08T14:49:44Z</time>
      </trkpt>
      <trkpt lat="46.17552" lon="2.44331">
        <ele>448</ele>
        <time>2015-04-08T14:49:46Z</time>
      </trkpt>
      <trkpt lat="46.17555" lon="2.44332">
        <ele>448</ele>
        <time>2015-04-08T14:49:48Z</time>
      </trkpt>
      <trkpt lat="46.17558" lon="2.44333">
        <ele>448</ele>
        <time>2015-04-08T14:49:50Z</time>
      </trkpt>
      <trkpt lat="46.17561" lon="2.44334">
        <ele>448</ele>
        <time>2015-04-08T14:49:52Z</time>
      </trkpt>
      <trkpt lat="46.17564" lon="2.44335">
        <ele>447</ele>
        <time>2015-04-08T14:49:54Z</time>
      </trkpt>
      <trkpt lat="46.17567" lon="2.44336">
        <ele>447</ele>
        <time>2015-04-08T14:49:56Z</time>
      </trkpt>
      <trkpt lat="46.17569" lon="2.44338">
        <ele>447</ele>
        <time>2015-04-08T14:49:58Z</time>
      </trkpt>
      <trkpt lat="46.17572" lon="2.44339">
        <ele>447</ele>
        <time>2015-04-08T14:50:00Z</time>
      </trkpt>
      <trkpt lat="46.17575" lon="2.4434">
        <ele>447</ele>
        <time>2015-04-08T14:50:02Z</time>
      </trkpt>
      <trkpt lat="46.17578" lon="2.44341">
        <ele>447</ele>
        <time>2015-04-08T14:50:04Z</time>
      </trkpt>
      <trkpt lat="46.17581" lon="2.44342">
        <ele>447</ele>
        <time>2015-04-08T14:50:06Z</time>
      </trkpt>
      <trkpt lat="46.17584" lon="2.44343">
        <ele>447</ele>
        <time>2015-04-08T14:50:08Z</time>
      </trkpt>
      <trkpt lat="46.17587" lon="2.44344">
        <ele>447</ele>
        <time>2015-04-08T14:50:10Z</time>
      </trkpt>
      <trkpt lat="46.1759" lon="2.44345">
        <ele>446</ele>
        <time>2015-04-08T14:50:12Z</time>
      </trkpt>
      <trkpt lat="46.17593" lon="2.44347">
        <ele>446</ele>
        <time>2015-04-08T14:50:14Z</time>
      </trkpt>
      <trkpt lat="46.17595" lon="2.44348">
        <ele>446</ele>
        <time>2015-04-08T14:50:16Z</time>
      </trkpt>
      <trkpt lat="46.17598" lon="2.44349">
        <ele>446</ele>
        <time>2015-04-08T14:50:18Z</time>
      </trkpt>
      <trkpt lat="46.17601" lon="2.4435">
        <ele>446</ele>
        <time>2015-04-08T14:50:20Z</time>
      </trkpt>
      <trkpt lat="46.17604" lon="2.44352">
        <ele>445</ele>
        <time>2015-04-08T14:50:22Z</time>
      </trkpt>
      <trkpt lat="46.17606" lon="2.44353">
        <ele>445</ele>
        <time>2015-04-08T14:50:24Z</time>
      </trkpt>
      <trkpt lat="46.17609" lon="2.44355">
        <ele>445</ele>
        <time>2015-04-08T14:50:26Z</time>
      </trkpt>
      <trkpt lat="46.17612" lon="2.44357">
        <ele>445</ele>
        <time>2015-04-08T14:50:28Z</time>
      </trkpt>
      <trkpt lat="46.17615" lon="2.44358">
        <ele>445</ele>
        <time>2015-04-08T14:50:30Z</time>
      </trkpt>
      <trkpt lat="46.17617" lon="2.4436">
        <ele>444</ele>
        <time>2015-04-08T14:50:32Z</time>
      </trkpt>
      <trkpt lat="46.17619" lon="2.44361">
        <ele>444</ele>
        <time>2015-04-08T14:50:34Z</time>
      </trkpt>
      <trkpt lat="46.17622" lon="2.44362">
        <ele>444</ele>
        <time>2015-04-08T14:50:36Z</time>
      </trkpt>
      <trkpt lat="46.17625" lon="2.44362">
        <ele>444</ele>
        <time>2015-04-08T14:50:39Z</time>
      </trkpt>
      <trkpt lat="46.17623" lon="2.44361">
        <ele>444</ele>
        <time>2015-04-08T14:51:02Z</time>
      </trkpt>
      <trkpt lat="46.17622" lon="2.44363">
        <ele>444</ele>
        <time>2015-04-08T14:51:11Z</time>
      </trkpt>
      <trkpt lat="46.17622" lon="2.44366">
        <ele>444</ele>
        <time>2015-04-08T14:51:13Z</time>
      </trkpt>
      <trkpt lat="46.17622" lon="2.4437">
        <ele>444</ele>
        <time>2015-04-08T14:51:15Z</time>
      </trkpt>
      <trkpt lat="46.17623" lon="2.44374">
        <ele>444</ele>
        <time>2015-04-08T14:51:17Z</time>
      </trkpt>
      <trkpt lat="46.17624" lon="2.44378">
        <ele>444</ele>
        <time>2015-04-08T14:51:19Z</time>
      </trkpt>
      <trkpt lat="46.17625" lon="2.44381">
        <ele>444</ele>
        <time>2015-04-08T14:51:21Z</time>
      </trkpt>
      <trkpt lat="46.17625" lon="2.44386">
        <ele>444</ele>
        <time>2015-04-08T14:51:23Z</time>
      </trkpt>
      <trkpt lat="46.17626" lon="2.4439">
        <ele>444</ele>
        <time>2015-04-08T14:51:25Z</time>
      </trkpt>
      <trkpt lat="46.17627" lon="2.44394">
        <ele>444</ele>
        <time>2015-04-08T14:51:27Z</time>
      </trkpt>
      <trkpt lat="46.17628" lon="2.44398">
        <ele>444</ele>
        <time>2015-04-08T14:51:29Z</time>
      </trkpt>
      <trkpt lat="46.17629" lon="2.44403">
        <ele>444</ele>
        <time>2015-04-08T14:51:31Z</time>
      </trkpt>
      <trkpt lat="46.1763" lon="2.44407">
        <ele>444</ele>
        <time>2015-04-08T14:51:33Z</time>
      </trkpt>
      <trkpt lat="46.17631" lon="2.44411">
        <ele>444</ele>
        <time>2015-04-08T14:51:35Z</time>
      </trkpt>
      <trkpt lat="46.17632" lon="2.44415">
        <ele>444</ele>
        <time>2015-04-08T14:51:37Z</time>
      </trkpt>
      <trkpt lat="46.17633" lon="2.4442">
        <ele>444</ele>
        <time>2015-04-08T14:51:39Z</time>
      </trkpt>
      <trkpt lat="46.17634" lon="2.44424">
        <ele>444</ele>
        <time>2015-04-08T14:51:41Z</time>
      </trkpt>
      <trkpt lat="46.17635" lon="2.44428">
        <ele>444</ele>
        <time>2015-04-08T14:51:43Z</time>
      </trkpt>
      <trkpt lat="46.17635" lon="2.44432">
        <ele>444</ele>
        <time>2015-04-08T14:51:45Z</time>
      </trkpt>
      <trkpt lat="46.17636" lon="2.44437">
        <ele>444</ele>
        <time>2015-04-08T14:51:47Z</time>
      </trkpt>
      <trkpt lat="46.17638" lon="2.44441">
        <ele>444</ele>
        <time>2015-04-08T14:51:49Z</time>
      </trkpt>
      <trkpt lat="46.17638" lon="2.44445">
        <ele>444</ele>
        <time>2015-04-08T14:51:51Z</time>
      </trkpt>
      <trkpt lat="46.1764" lon="2.44452">
        <ele>444</ele>
        <time>2015-04-08T14:51:54Z</time>
      </trkpt>
      <trkpt lat="46.17641" lon="2.44456">
        <ele>444</ele>
        <time>2015-04-08T14:51:56Z</time>
      </trkpt>
      <trkpt lat="46.17641" lon="2.44461">
        <ele>444</ele>
        <time>2015-04-08T14:51:58Z</time>
      </trkpt>
      <trkpt lat="46.17642" lon="2.44465">
        <ele>444</ele>
        <time>2015-04-08T14:52:00Z</time>
      </trkpt>
      <trkpt lat="46.17643" lon="2.44469">
        <ele>444</ele>
        <time>2015-04-08T14:52:02Z</time>
      </trkpt>
      <trkpt lat="46.17644" lon="2.44473">
        <ele>444</ele>
        <time>2015-04-08T14:52:04Z</time>
      </trkpt>
      <trkpt lat="46.17645" lon="2.44477">
        <ele>444</ele>
        <time>2015-04-08T14:52:06Z</time>
      </trkpt>
      <trkpt lat="46.17646" lon="2.44482">
        <ele>444</ele>
        <time>2015-04-08T14:52:08Z</time>
      </trkpt>
      <trkpt lat="46.17647" lon="2.44486">
        <ele>444</ele>
        <time>2015-04-08T14:52:10Z</time>
      </trkpt>
      <trkpt lat="46.17648" lon="2.4449">
        <ele>444</ele>
        <time>2015-04-08T14:52:12Z</time>
      </trkpt>
      <trkpt lat="46.17649" lon="2.44494">
        <ele>444</ele>
        <time>2015-04-08T14:52:14Z</time>
      </trkpt>
      <trkpt lat="46.1765" lon="2.44498">
        <ele>444</ele>
        <time>2015-04-08T14:52:16Z</time>
      </trkpt>
      <trkpt lat="46.17651" lon="2.44502">
        <ele>443</ele>
        <time>2015-04-08T14:52:18Z</time>
      </trkpt>
      <trkpt lat="46.17651" lon="2.44507">
        <ele>443</ele>
        <time>2015-04-08T14:52:20Z</time>
      </trkpt>
      <trkpt lat="46.17652" lon="2.44511">
        <ele>443</ele>
        <time>2015-04-08T14:52:22Z</time>
      </trkpt>
      <trkpt lat="46.17653" lon="2.44515">
        <ele>443</ele>
        <time>2015-04-08T14:52:24Z</time>
      </trkpt>
      <trkpt lat="46.17654" lon="2.44519">
        <ele>443</ele>
        <time>2015-04-08T14:52:26Z</time>
      </trkpt>
      <trkpt lat="46.17655" lon="2.44524">
        <ele>443</ele>
        <time>2015-04-08T14:52:28Z</time>
      </trkpt>
      <trkpt lat="46.17656" lon="2.44528">
        <ele>443</ele>
        <time>2015-04-08T14:52:30Z</time>
      </trkpt>
      <trkpt lat="46.17657" lon="2.44532">
        <ele>443</ele>
        <time>2015-04-08T14:52:32Z</time>
      </trkpt>
      <trkpt lat="46.17658" lon="2.44536">
        <ele>443</ele>
        <time>2015-04-08T14:52:34Z</time>
      </trkpt>
      <trkpt lat="46.17659" lon="2.4454">
        <ele>442</ele>
        <time>2015-04-08T14:52:36Z</time>
      </trkpt>
      <trkpt lat="46.17659" lon="2.44544">
        <ele>442</ele>
        <time>2015-04-08T14:52:38Z</time>
      </trkpt>
      <trkpt lat="46.1766" lon="2.44548">
        <ele>441</ele>
        <time>2015-04-08T14:52:40Z</time>
      </trkpt>
      <trkpt lat="46.17661" lon="2.44552">
        <ele>441</ele>
        <time>2015-04-08T14:52:42Z</time>
      </trkpt>
      <trkpt lat="46.17662" lon="2.44556">
        <ele>441</ele>
        <time>2015-04-08T14:52:44Z</time>
      </trkpt>
      <trkpt lat="46.17663" lon="2.4456">
        <ele>441</ele>
        <time>2015-04-08T14:52:46Z</time>
      </trkpt>
      <trkpt lat="46.17664" lon="2.44564">
        <ele>440</ele>
        <time>2015-04-08T14:52:48Z</time>
      </trkpt>
      <trkpt lat="46.17665" lon="2.44568">
        <ele>440</ele>
        <time>2015-04-08T14:52:50Z</time>
      </trkpt>
      <trkpt lat="46.17666" lon="2.44572">
        <ele>439</ele>
        <time>2015-04-08T14:52:52Z</time>
      </trkpt>
      <trkpt lat="46.17667" lon="2.44576">
        <ele>439</ele>
        <time>2015-04-08T14:52:54Z</time>
      </trkpt>
      <trkpt lat="46.17668" lon="2.4458">
        <ele>439</ele>
        <time>2015-04-08T14:52:56Z</time>
      </trkpt>
      <trkpt lat="46.17669" lon="2.44584">
        <ele>438</ele>
        <time>2015-04-08T14:52:58Z</time>
      </trkpt>
      <trkpt lat="46.17671" lon="2.44587">
        <ele>438</ele>
        <time>2015-04-08T14:53:00Z</time>
      </trkpt>
      <trkpt lat="46.17672" lon="2.44591">
        <ele>438</ele>
        <time>2015-04-08T14:53:02Z</time>
      </trkpt>
      <trkpt lat="46.17674" lon="2.44595">
        <ele>438</ele>
        <time>2015-04-08T14:53:04Z</time>
      </trkpt>
      <trkpt lat="46.17676" lon="2.44599">
        <ele>437</ele>
        <time>2015-04-08T14:53:06Z</time>
      </trkpt>
      <trkpt lat="46.17678" lon="2.44602">
        <ele>437</ele>
        <time>2015-04-08T14:53:08Z</time>
      </trkpt>
      <trkpt lat="46.1768" lon="2.44606">
        <ele>437</ele>
        <time>2015-04-08T14:53:10Z</time>
      </trkpt>
      <trkpt lat="46.17682" lon="2.4461">
        <ele>437</ele>
        <time>2015-04-08T14:53:12Z</time>
      </trkpt>
      <trkpt lat="46.17683" lon="2.44613">
        <ele>437</ele>
        <time>2015-04-08T14:53:14Z</time>
      </trkpt>
      <trkpt lat="46.17685" lon="2.44616">
        <ele>436</ele>
        <time>2015-04-08T14:53:16Z</time>
      </trkpt>
      <trkpt lat="46.17687" lon="2.44619">
        <ele>436</ele>
        <time>2015-04-08T14:53:18Z</time>
      </trkpt>
      <trkpt lat="46.17689" lon="2.44623">
        <ele>435</ele>
        <time>2015-04-08T14:53:20Z</time>
      </trkpt>
      <trkpt lat="46.17691" lon="2.44626">
        <ele>435</ele>
        <time>2015-04-08T14:53:22Z</time>
      </trkpt>
      <trkpt lat="46.17693" lon="2.4463">
        <ele>434</ele>
        <time>2015-04-08T14:53:24Z</time>
      </trkpt>
      <trkpt lat="46.17694" lon="2.44633">
        <ele>434</ele>
        <time>2015-04-08T14:53:26Z</time>
      </trkpt>
      <trkpt lat="46.17696" lon="2.44637">
        <ele>434</ele>
        <time>2015-04-08T14:53:28Z</time>
      </trkpt>
      <trkpt lat="46.17698" lon="2.44641">
        <ele>434</ele>
        <time>2015-04-08T14:53:30Z</time>
      </trkpt>
      <trkpt lat="46.17699" lon="2.44645">
        <ele>434</ele>
        <time>2015-04-08T14:53:32Z</time>
      </trkpt>
      <trkpt lat="46.17701" lon="2.44649">
        <ele>434</ele>
        <time>2015-04-08T14:53:34Z</time>
      </trkpt>
      <trkpt lat="46.17702" lon="2.44653">
        <ele>434</ele>
        <time>2015-04-08T14:53:36Z</time>
      </trkpt>
      <trkpt lat="46.17702" lon="2.44657">
        <ele>433</ele>
        <time>2015-04-08T14:53:38Z</time>
      </trkpt>
      <trkpt lat="46.17703" lon="2.44662">
        <ele>433</ele>
        <time>2015-04-08T14:53:40Z</time>
      </trkpt>
      <trkpt lat="46.17702" lon="2.44667">
        <ele>433</ele>
        <time>2015-04-08T14:53:42Z</time>
      </trkpt>
      <trkpt lat="46.17702" lon="2.44671">
        <ele>433</ele>
        <time>2015-04-08T14:53:44Z</time>
      </trkpt>
      <trkpt lat="46.17701" lon="2.44675">
        <ele>433</ele>
        <time>2015-04-08T14:53:46Z</time>
      </trkpt>
      <trkpt lat="46.177" lon="2.44679">
        <ele>432</ele>
        <time>2015-04-08T14:53:48Z</time>
      </trkpt>
      <trkpt lat="46.17698" lon="2.44683">
        <ele>432</ele>
        <time>2015-04-08T14:53:50Z</time>
      </trkpt>
      <trkpt lat="46.17697" lon="2.44687">
        <ele>432</ele>
        <time>2015-04-08T14:53:52Z</time>
      </trkpt>
      <trkpt lat="46.17695" lon="2.4469">
        <ele>432</ele>
        <time>2015-04-08T14:53:54Z</time>
      </trkpt>
      <trkpt lat="46.17694" lon="2.44695">
        <ele>432</ele>
        <time>2015-04-08T14:53:56Z</time>
      </trkpt>
      <trkpt lat="46.17692" lon="2.44699">
        <ele>432</ele>
        <time>2015-04-08T14:53:58Z</time>
      </trkpt>
      <trkpt lat="46.1769" lon="2.44703">
        <ele>432</ele>
        <time>2015-04-08T14:54:00Z</time>
      </trkpt>
      <trkpt lat="46.17688" lon="2.44706">
        <ele>432</ele>
        <time>2015-04-08T14:54:02Z</time>
      </trkpt>
      <trkpt lat="46.17686" lon="2.4471">
        <ele>432</ele>
        <time>2015-04-08T14:54:04Z</time>
      </trkpt>
      <trkpt lat="46.17684" lon="2.44714">
        <ele>432</ele>
        <time>2015-04-08T14:54:06Z</time>
      </trkpt>
      <trkpt lat="46.17682" lon="2.44718">
        <ele>432</ele>
        <time>2015-04-08T14:54:08Z</time>
      </trkpt>
      <trkpt lat="46.1768" lon="2.44722">
        <ele>432</ele>
        <time>2015-04-08T14:54:10Z</time>
      </trkpt>
      <trkpt lat="46.17678" lon="2.44725">
        <ele>432</ele>
        <time>2015-04-08T14:54:12Z</time>
      </trkpt>
      <trkpt lat="46.17676" lon="2.44729">
        <ele>432</ele>
        <time>2015-04-08T14:54:14Z</time>
      </trkpt>
      <trkpt lat="46.17675" lon="2.44733">
        <ele>432</ele>
        <time>2015-04-08T14:54:16Z</time>
      </trkpt>
      <trkpt lat="46.17673" lon="2.44737">
        <ele>432</ele>
        <time>2015-04-08T14:54:18Z</time>
      </trkpt>
      <trkpt lat="46.17671" lon="2.44741">
        <ele>432</ele>
        <time>2015-04-08T14:54:20Z</time>
      </trkpt>
      <trkpt lat="46.17669" lon="2.44744">
        <ele>432</ele>
        <time>2015-04-08T14:54:22Z</time>
      </trkpt>
      <trkpt lat="46.17667" lon="2.44748">
        <ele>432</ele>
        <time>2015-04-08T14:54:24Z</time>
      </trkpt>
      <trkpt lat="46.17666" lon="2.44753">
        <ele>432</ele>
        <time>2015-04-08T14:54:26Z</time>
      </trkpt>
      <trkpt lat="46.17665" lon="2.44757">
        <ele>432</ele>
        <time>2015-04-08T14:54:28Z</time>
      </trkpt>
      <trkpt lat="46.17664" lon="2.44761">
        <ele>432</ele>
        <time>2015-04-08T14:54:30Z</time>
      </trkpt>
      <trkpt lat="46.17662" lon="2.44765">
        <ele>432</ele>
        <time>2015-04-08T14:54:32Z</time>
      </trkpt>
      <trkpt lat="46.17661" lon="2.44769">
        <ele>432</ele>
        <time>2015-04-08T14:54:34Z</time>
      </trkpt>
      <trkpt lat="46.1766" lon="2.44773">
        <ele>432</ele>
        <time>2015-04-08T14:54:36Z</time>
      </trkpt>
      <trkpt lat="46.17659" lon="2.44777">
        <ele>432</ele>
        <time>2015-04-08T14:54:38Z</time>
      </trkpt>
      <trkpt lat="46.17659" lon="2.44782">
        <ele>432</ele>
        <time>2015-04-08T14:54:40Z</time>
      </trkpt>
      <trkpt lat="46.17658" lon="2.44786">
        <ele>432</ele>
        <time>2015-04-08T14:54:42Z</time>
      </trkpt>
      <trkpt lat="46.17657" lon="2.4479">
        <ele>432</ele>
        <time>2015-04-08T14:54:44Z</time>
      </trkpt>
      <trkpt lat="46.17656" lon="2.44794">
        <ele>432</ele>
        <time>2015-04-08T14:54:46Z</time>
      </trkpt>
      <trkpt lat="46.17654" lon="2.44797">
        <ele>432</ele>
        <time>2015-04-08T14:54:48Z</time>
      </trkpt>
      <trkpt lat="46.17653" lon="2.44801">
        <ele>432</ele>
        <time>2015-04-08T14:54:50Z</time>
      </trkpt>
      <trkpt lat="46.17652" lon="2.44805">
        <ele>432</ele>
        <time>2015-04-08T14:54:52Z</time>
      </trkpt>
      <trkpt lat="46.1765" lon="2.44808">
        <ele>432</ele>
        <time>2015-04-08T14:54:54Z</time>
      </trkpt>
      <trkpt lat="46.17648" lon="2.44812">
        <ele>432</ele>
        <time>2015-04-08T14:54:56Z</time>
      </trkpt>
      <trkpt lat="46.17647" lon="2.44815">
        <ele>432</ele>
        <time>2015-04-08T14:54:58Z</time>
      </trkpt>
      <trkpt lat="46.17645" lon="2.44818">
        <ele>432</ele>
        <time>2015-04-08T14:55:00Z</time>
      </trkpt>
      <trkpt lat="46.17644" lon="2.44822">
        <ele>432</ele>
        <time>2015-04-08T14:55:02Z</time>
      </trkpt>
      <trkpt lat="46.17642" lon="2.44826">
        <ele>432</ele>
        <time>2015-04-08T14:55:04Z</time>
      </trkpt>
      <trkpt lat="46.1764" lon="2.4483">
        <ele>432</ele>
        <time>2015-04-08T14:55:06Z</time>
      </trkpt>
      <trkpt lat="46.17638" lon="2.44833">
        <ele>432</ele>
        <time>2015-04-08T14:55:08Z</time>
      </trkpt>
      <trkpt lat="46.17636" lon="2.44836">
        <ele>432</ele>
        <time>2015-04-08T14:55:10Z</time>
      </trkpt>
      <trkpt lat="46.17634" lon="2.4484">
        <ele>432</ele>
        <time>2015-04-08T14:55:12Z</time>
      </trkpt>
      <trkpt lat="46.17633" lon="2.44843">
        <ele>432</ele>
        <time>2015-04-08T14:55:14Z</time>
      </trkpt>
      <trkpt lat="46.17631" lon="2.44847">
        <ele>432</ele>
        <time>2015-04-08T14:55:16Z</time>
      </trkpt>
      <trkpt lat="46.17629" lon="2.44849">
        <ele>432</ele>
        <time>2015-04-08T14:55:18Z</time>
      </trkpt>
      <trkpt lat="46.17627" lon="2.44852">
        <ele>432</ele>
        <time>2015-04-08T14:55:20Z</time>
      </trkpt>
      <trkpt lat="46.17625" lon="2.44855">
        <ele>432</ele>
        <time>2015-04-08T14:55:22Z</time>
      </trkpt>
      <trkpt lat="46.17624" lon="2.44857">
        <ele>432</ele>
        <time>2015-04-08T14:55:24Z</time>
      </trkpt>
      <trkpt lat="46.17623" lon="2.4486">
        <ele>432</ele>
        <time>2015-04-08T14:55:26Z</time>
      </trkpt>
      <trkpt lat="46.17621" lon="2.44862">
        <ele>432</ele>
        <time>2015-04-08T14:55:28Z</time>
      </trkpt>
      <trkpt lat="46.17619" lon="2.44864">
        <ele>432</ele>
        <time>2015-04-08T14:55:30Z</time>
      </trkpt>
      <trkpt lat="46.17618" lon="2.44867">
        <ele>432</ele>
        <time>2015-04-08T14:55:32Z</time>
      </trkpt>
      <trkpt lat="46.17616" lon="2.44871">
        <ele>432</ele>
        <time>2015-04-08T14:55:34Z</time>
      </trkpt>
      <trkpt lat="46.17614" lon="2.44875">
        <ele>432</ele>
        <time>2015-04-08T14:55:36Z</time>
      </trkpt>
      <trkpt lat="46.17612" lon="2.44878">
        <ele>432</ele>
        <time>2015-04-08T14:55:38Z</time>
      </trkpt>
      <trkpt lat="46.17611" lon="2.44881">
        <ele>432</ele>
        <time>2015-04-08T14:55:40Z</time>
      </trkpt>
      <trkpt lat="46.17608" lon="2.44884">
        <ele>432</ele>
        <time>2015-04-08T14:55:42Z</time>
      </trkpt>
      <trkpt lat="46.17606" lon="2.44888">
        <ele>432</ele>
        <time>2015-04-08T14:55:44Z</time>
      </trkpt>
      <trkpt lat="46.17604" lon="2.44891">
        <ele>432</ele>
        <time>2015-04-08T14:55:46Z</time>
      </trkpt>
      <trkpt lat="46.17603" lon="2.44894">
        <ele>432</ele>
        <time>2015-04-08T14:55:48Z</time>
      </trkpt>
      <trkpt lat="46.17601" lon="2.44898">
        <ele>432</ele>
        <time>2015-04-08T14:55:50Z</time>
      </trkpt>
      <trkpt lat="46.17599" lon="2.44901">
        <ele>432</ele>
        <time>2015-04-08T14:55:52Z</time>
      </trkpt>
      <trkpt lat="46.17597" lon="2.44904">
        <ele>432</ele>
        <time>2015-04-08T14:55:54Z</time>
      </trkpt>
      <trkpt lat="46.17595" lon="2.44908">
        <ele>432</ele>
        <time>2015-04-08T14:55:56Z</time>
      </trkpt>
      <trkpt lat="46.17593" lon="2.44911">
        <ele>432</ele>
        <time>2015-04-08T14:55:58Z</time>
      </trkpt>
      <trkpt lat="46.1759" lon="2.44915">
        <ele>432</ele>
        <time>2015-04-08T14:56:01Z</time>
      </trkpt>
      <trkpt lat="46.17587" lon="2.44917">
        <ele>432</ele>
        <time>2015-04-08T14:56:03Z</time>
      </trkpt>
      <trkpt lat="46.17585" lon="2.44919">
        <ele>432</ele>
        <time>2015-04-08T14:56:05Z</time>
      </trkpt>
      <trkpt lat="46.17582" lon="2.4492">
        <ele>432</ele>
        <time>2015-04-08T14:56:07Z</time>
      </trkpt>
      <trkpt lat="46.1758" lon="2.44922">
        <ele>432</ele>
        <time>2015-04-08T14:56:09Z</time>
      </trkpt>
      <trkpt lat="46.17577" lon="2.44923">
        <ele>432</ele>
        <time>2015-04-08T14:56:11Z</time>
      </trkpt>
      <trkpt lat="46.17574" lon="2.44924">
        <ele>432</ele>
        <time>2015-04-08T14:56:13Z</time>
      </trkpt>
      <trkpt lat="46.17571" lon="2.44925">
        <ele>432</ele>
        <time>2015-04-08T14:56:15Z</time>
      </trkpt>
      <trkpt lat="46.17568" lon="2.44926">
        <ele>432</ele>
        <time>2015-04-08T14:56:17Z</time>
      </trkpt>
      <trkpt lat="46.17565" lon="2.44926">
        <ele>432</ele>
        <time>2015-04-08T14:56:19Z</time>
      </trkpt>
      <trkpt lat="46.17562" lon="2.44926">
        <ele>432</ele>
        <time>2015-04-08T14:56:21Z</time>
      </trkpt>
      <trkpt lat="46.17559" lon="2.44927">
        <ele>432</ele>
        <time>2015-04-08T14:56:23Z</time>
      </trkpt>
      <trkpt lat="46.17556" lon="2.44928">
        <ele>432</ele>
        <time>2015-04-08T14:56:25Z</time>
      </trkpt>
      <trkpt lat="46.17553" lon="2.44929">
        <ele>432</ele>
        <time>2015-04-08T14:56:27Z</time>
      </trkpt>
      <trkpt lat="46.17551" lon="2.44931">
        <ele>432</ele>
        <time>2015-04-08T14:56:29Z</time>
      </trkpt>
      <trkpt lat="46.17548" lon="2.44933">
        <ele>432</ele>
        <time>2015-04-08T14:56:31Z</time>
      </trkpt>
      <trkpt lat="46.17546" lon="2.44935">
        <ele>433</ele>
        <time>2015-04-08T14:56:33Z</time>
      </trkpt>
      <trkpt lat="46.17544" lon="2.44938">
        <ele>433</ele>
        <time>2015-04-08T14:56:35Z</time>
      </trkpt>
      <trkpt lat="46.17543" lon="2.44942">
        <ele>433</ele>
        <time>2015-04-08T14:56:37Z</time>
      </trkpt>
      <trkpt lat="46.17543" lon="2.44946">
        <ele>433</ele>
        <time>2015-04-08T14:56:39Z</time>
      </trkpt>
      <trkpt lat="46.17543" lon="2.4495">
        <ele>434</ele>
        <time>2015-04-08T14:56:41Z</time>
      </trkpt>
      <trkpt lat="46.17544" lon="2.44953">
        <ele>434</ele>
        <time>2015-04-08T14:56:43Z</time>
      </trkpt>
      <trkpt lat="46.17545" lon="2.44957">
        <ele>434</ele>
        <time>2015-04-08T14:56:45Z</time>
      </trkpt>
      <trkpt lat="46.17546" lon="2.44961">
        <ele>434</ele>
        <time>2015-04-08T14:56:47Z</time>
      </trkpt>
      <trkpt lat="46.17547" lon="2.44964">
        <ele>434</ele>
        <time>2015-04-08T14:56:49Z</time>
      </trkpt>
      <trkpt lat="46.17548" lon="2.44968">
        <ele>434</ele>
        <time>2015-04-08T14:56:51Z</time>
      </trkpt>
      <trkpt lat="46.1755" lon="2.44972">
        <ele>434</ele>
        <time>2015-04-08T14:56:53Z</time>
      </trkpt>
      <trkpt lat="46.17551" lon="2.44975">
        <ele>434</ele>
        <time>2015-04-08T14:56:55Z</time>
      </trkpt>
      <trkpt lat="46.17551" lon="2.44979">
        <ele>434</ele>
        <time>2015-04-08T14:56:57Z</time>
      </trkpt>
      <trkpt lat="46.17553" lon="2.44983">
        <ele>434</ele>
        <time>2015-04-08T14:56:59Z</time>
      </trkpt>
      <trkpt lat="46.17554" lon="2.44986">
        <ele>434</ele>
        <time>2015-04-08T14:57:01Z</time>
      </trkpt>
      <trkpt lat="46.17555" lon="2.4499">
        <ele>434</ele>
        <time>2015-04-08T14:57:03Z</time>
      </trkpt>
      <trkpt lat="46.17556" lon="2.44993">
        <ele>434</ele>
        <time>2015-04-08T14:57:05Z</time>
      </trkpt>
      <trkpt lat="46.17557" lon="2.44997">
        <ele>434</ele>
        <time>2015-04-08T14:57:07Z</time>
      </trkpt>
      <trkpt lat="46.17558" lon="2.45">
        <ele>434</ele>
        <time>2015-04-08T14:57:09Z</time>
      </trkpt>
      <trkpt lat="46.17559" lon="2.45004">
        <ele>434</ele>
        <time>2015-04-08T14:57:11Z</time>
      </trkpt>
      <trkpt lat="46.1756" lon="2.45008">
        <ele>434</ele>
        <time>2015-04-08T14:57:13Z</time>
      </trkpt>
      <trkpt lat="46.17561" lon="2.45012">
        <ele>434</ele>
        <time>2015-04-08T14:57:15Z</time>
      </trkpt>
      <trkpt lat="46.17563" lon="2.45015">
        <ele>434</ele>
        <time>2015-04-08T14:57:17Z</time>
      </trkpt>
      <trkpt lat="46.17564" lon="2.45019">
        <ele>434</ele>
        <time>2015-04-08T14:57:19Z</time>
      </trkpt>
      <trkpt lat="46.17565" lon="2.45023">
        <ele>434</ele>
        <time>2015-04-08T14:57:21Z</time>
      </trkpt>
      <trkpt lat="46.17567" lon="2.45027">
        <ele>434</ele>
        <time>2015-04-08T14:57:23Z</time>
      </trkpt>
      <trkpt lat="46.17569" lon="2.45031">
        <ele>434</ele>
        <time>2015-04-08T14:57:25Z</time>
      </trkpt>
      <trkpt lat="46.1757" lon="2.45035">
        <ele>434</ele>
        <time>2015-04-08T14:57:27Z</time>
      </trkpt>
      <trkpt lat="46.17572" lon="2.45039">
        <ele>434</ele>
        <time>2015-04-08T14:57:29Z</time>
      </trkpt>
      <trkpt lat="46.17573" lon="2.45043">
        <ele>434</ele>
        <time>2015-04-08T14:57:31Z</time>
      </trkpt>
      <trkpt lat="46.17575" lon="2.45046">
        <ele>434</ele>
        <time>2015-04-08T14:57:33Z</time>
      </trkpt>
      <trkpt lat="46.17577" lon="2.4505">
        <ele>434</ele>
        <time>2015-04-08T14:57:35Z</time>
      </trkpt>
      <trkpt lat="46.17578" lon="2.45053">
        <ele>434</ele>
        <time>2015-04-08T14:57:37Z</time>
      </trkpt>
      <trkpt lat="46.1758" lon="2.45056">
        <ele>434</ele>
        <time>2015-04-08T14:57:39Z</time>
      </trkpt>
      <trkpt lat="46.17581" lon="2.4506">
        <ele>434</ele>
        <time>2015-04-08T14:57:41Z</time>
      </trkpt>
      <trkpt lat="46.17583" lon="2.45063">
        <ele>434</ele>
        <time>2015-04-08T14:57:43Z</time>
      </trkpt>
      <trkpt lat="46.17585" lon="2.45067">
        <ele>434</ele>
        <time>2015-04-08T14:57:45Z</time>
      </trkpt>
      <trkpt lat="46.17586" lon="2.4507">
        <ele>434</ele>
        <time>2015-04-08T14:57:47Z</time>
      </trkpt>
      <trkpt lat="46.17588" lon="2.45074">
        <ele>434</ele>
        <time>2015-04-08T14:57:49Z</time>
      </trkpt>
      <trkpt lat="46.17589" lon="2.45077">
        <ele>434</ele>
        <time>2015-04-08T14:57:51Z</time>
      </trkpt>
      <trkpt lat="46.17591" lon="2.45081">
        <ele>434</ele>
        <time>2015-04-08T14:57:53Z</time>
      </trkpt>
      <trkpt lat="46.17593" lon="2.45084">
        <ele>434</ele>
        <time>2015-04-08T14:57:55Z</time>
      </trkpt>
      <trkpt lat="46.17594" lon="2.45088">
        <ele>434</ele>
        <time>2015-04-08T14:57:57Z</time>
      </trkpt>
      <trkpt lat="46.17596" lon="2.45092">
        <ele>435</ele>
        <time>2015-04-08T14:57:59Z</time>
      </trkpt>
      <trkpt lat="46.17597" lon="2.45096">
        <ele>435</ele>
        <time>2015-04-08T14:58:01Z</time>
      </trkpt>
      <trkpt lat="46.17599" lon="2.45099">
        <ele>436</ele>
        <time>2015-04-08T14:58:03Z</time>
      </trkpt>
      <trkpt lat="46.17601" lon="2.45103">
        <ele>436</ele>
        <time>2015-04-08T14:58:05Z</time>
      </trkpt>
      <trkpt lat="46.17602" lon="2.45106">
        <ele>436</ele>
        <time>2015-04-08T14:58:07Z</time>
      </trkpt>
      <trkpt lat="46.17604" lon="2.45109">
        <ele>436</ele>
        <time>2015-04-08T14:58:09Z</time>
      </trkpt>
      <trkpt lat="46.17605" lon="2.45113">
        <ele>436</ele>
        <time>2015-04-08T14:58:11Z</time>
      </trkpt>
      <trkpt lat="46.17606" lon="2.45116">
        <ele>436</ele>
        <time>2015-04-08T14:58:13Z</time>
      </trkpt>
      <trkpt lat="46.17607" lon="2.4512">
        <ele>436</ele>
        <time>2015-04-08T14:58:15Z</time>
      </trkpt>
      <trkpt lat="46.17609" lon="2.45124">
        <ele>436</ele>
        <time>2015-04-08T14:58:17Z</time>
      </trkpt>
      <trkpt lat="46.1761" lon="2.45127">
        <ele>436</ele>
        <time>2015-04-08T14:58:19Z</time>
      </trkpt>
      <trkpt lat="46.17611" lon="2.4513">
        <ele>436</ele>
        <time>2015-04-08T14:58:21Z</time>
      </trkpt>
      <trkpt lat="46.17612" lon="2.45134">
        <ele>436</ele>
        <time>2015-04-08T14:58:23Z</time>
      </trkpt>
      <trkpt lat="46.17613" lon="2.45137">
        <ele>436</ele>
        <time>2015-04-08T14:58:25Z</time>
      </trkpt>
      <trkpt lat="46.17614" lon="2.45141">
        <ele>436</ele>
        <time>2015-04-08T14:58:27Z</time>
      </trkpt>
      <trkpt lat="46.17615" lon="2.45145">
        <ele>436</ele>
        <time>2015-04-08T14:58:29Z</time>
      </trkpt>
      <trkpt lat="46.17616" lon="2.45148">
        <ele>436</ele>
        <time>2015-04-08T14:58:31Z</time>
      </trkpt>
      <trkpt lat="46.17617" lon="2.45152">
        <ele>436</ele>
        <time>2015-04-08T14:58:33Z</time>
      </trkpt>
      <trkpt lat="46.17618" lon="2.45156">
        <ele>436</ele>
        <time>2015-04-08T14:58:35Z</time>
      </trkpt>
      <trkpt lat="46.17619" lon="2.45159">
        <ele>436</ele>
        <time>2015-04-08T14:58:37Z</time>
      </trkpt>
      <trkpt lat="46.1762" lon="2.45163">
        <ele>436</ele>
        <time>2015-04-08T14:58:39Z</time>
      </trkpt>
      <trkpt lat="46.17622" lon="2.45167">
        <ele>436</ele>
        <time>2015-04-08T14:58:41Z</time>
      </trkpt>
      <trkpt lat="46.17622" lon="2.45171">
        <ele>436</ele>
        <time>2015-04-08T14:58:43Z</time>
      </trkpt>
      <trkpt lat="46.17624" lon="2.45175">
        <ele>436</ele>
        <time>2015-04-08T14:58:45Z</time>
      </trkpt>
      <trkpt lat="46.17625" lon="2.45179">
        <ele>436</ele>
        <time>2015-04-08T14:58:47Z</time>
      </trkpt>
      <trkpt lat="46.17625" lon="2.45183">
        <ele>436</ele>
        <time>2015-04-08T14:58:49Z</time>
      </trkpt>
      <trkpt lat="46.17626" lon="2.45187">
        <ele>436</ele>
        <time>2015-04-08T14:58:51Z</time>
      </trkpt>
      <trkpt lat="46.17627" lon="2.45191">
        <ele>436</ele>
        <time>2015-04-08T14:58:53Z</time>
      </trkpt>
      <trkpt lat="46.17628" lon="2.45195">
        <ele>436</ele>
        <time>2015-04-08T14:58:55Z</time>
      </trkpt>
      <trkpt lat="46.1763" lon="2.45199">
        <ele>436</ele>
        <time>2015-04-08T14:58:57Z</time>
      </trkpt>
      <trkpt lat="46.17631" lon="2.45202">
        <ele>436</ele>
        <time>2015-04-08T14:58:59Z</time>
      </trkpt>
      <trkpt lat="46.17632" lon="2.45206">
        <ele>436</ele>
        <time>2015-04-08T14:59:01Z</time>
      </trkpt>
      <trkpt lat="46.17633" lon="2.45211">
        <ele>436</ele>
        <time>2015-04-08T14:59:03Z</time>
      </trkpt>
      <trkpt lat="46.17633" lon="2.45215">
        <ele>436</ele>
        <time>2015-04-08T14:59:05Z</time>
      </trkpt>
      <trkpt lat="46.17635" lon="2.45219">
        <ele>436</ele>
        <time>2015-04-08T14:59:07Z</time>
      </trkpt>
      <trkpt lat="46.17635" lon="2.45223">
        <ele>436</ele>
        <time>2015-04-08T14:59:09Z</time>
      </trkpt>
      <trkpt lat="46.17636" lon="2.45227">
        <ele>436</ele>
        <time>2015-04-08T14:59:11Z</time>
      </trkpt>
      <trkpt lat="46.17637" lon="2.45231">
        <ele>436</ele>
        <time>2015-04-08T14:59:13Z</time>
      </trkpt>
      <trkpt lat="46.17638" lon="2.45234">
        <ele>436</ele>
        <time>2015-04-08T14:59:15Z</time>
      </trkpt>
      <trkpt lat="46.17638" lon="2.45238">
        <ele>436</ele>
        <time>2015-04-08T14:59:17Z</time>
      </trkpt>
      <trkpt lat="46.1764" lon="2.45243">
        <ele>436</ele>
        <time>2015-04-08T14:59:19Z</time>
      </trkpt>
      <trkpt lat="46.17641" lon="2.45247">
        <ele>436</ele>
        <time>2015-04-08T14:59:21Z</time>
      </trkpt>
      <trkpt lat="46.17642" lon="2.45251">
        <ele>436</ele>
        <time>2015-04-08T14:59:23Z</time>
      </trkpt>
      <trkpt lat="46.17643" lon="2.45255">
        <ele>436</ele>
        <time>2015-04-08T14:59:25Z</time>
      </trkpt>
      <trkpt lat="46.17643" lon="2.45259">
        <ele>436</ele>
        <time>2015-04-08T14:59:27Z</time>
      </trkpt>
      <trkpt lat="46.17644" lon="2.45263">
        <ele>436</ele>
        <time>2015-04-08T14:59:29Z</time>
      </trkpt>
      <trkpt lat="46.17645" lon="2.45268">
        <ele>436</ele>
        <time>2015-04-08T14:59:31Z</time>
      </trkpt>
      <trkpt lat="46.17646" lon="2.45272">
        <ele>436</ele>
        <time>2015-04-08T14:59:33Z</time>
      </trkpt>
      <trkpt lat="46.17647" lon="2.45276">
        <ele>436</ele>
        <time>2015-04-08T14:59:35Z</time>
      </trkpt>
      <trkpt lat="46.17648" lon="2.45281">
        <ele>436</ele>
        <time>2015-04-08T14:59:37Z</time>
      </trkpt>
      <trkpt lat="46.17649" lon="2.45285">
        <ele>436</ele>
        <time>2015-04-08T14:59:39Z</time>
      </trkpt>
      <trkpt lat="46.17649" lon="2.45289">
        <ele>436</ele>
        <time>2015-04-08T14:59:41Z</time>
      </trkpt>
      <trkpt lat="46.1765" lon="2.45293">
        <ele>436</ele>
        <time>2015-04-08T14:59:43Z</time>
      </trkpt>
      <trkpt lat="46.17651" lon="2.45297">
        <ele>436</ele>
        <time>2015-04-08T14:59:45Z</time>
      </trkpt>
      <trkpt lat="46.17652" lon="2.45301">
        <ele>436</ele>
        <time>2015-04-08T14:59:47Z</time>
      </trkpt>
      <trkpt lat="46.17653" lon="2.45305">
        <ele>436</ele>
        <time>2015-04-08T14:59:49Z</time>
      </trkpt>
      <trkpt lat="46.17654" lon="2.45309">
        <ele>436</ele>
        <time>2015-04-08T14:59:51Z</time>
      </trkpt>
      <trkpt lat="46.17654" lon="2.45313">
        <ele>436</ele>
        <time>2015-04-08T14:59:53Z</time>
      </trkpt>
      <trkpt lat="46.17655" lon="2.45317">
        <ele>436</ele>
        <time>2015-04-08T14:59:55Z</time>
      </trkpt>
      <trkpt lat="46.17656" lon="2.45321">
        <ele>436</ele>
        <time>2015-04-08T14:59:57Z</time>
      </trkpt>
      <trkpt lat="46.17656" lon="2.45325">
        <ele>436</ele>
        <time>2015-04-08T14:59:59Z</time>
      </trkpt>
      <trkpt lat="46.17657" lon="2.45329">
        <ele>436</ele>
        <time>2015-04-08T15:00:01Z</time>
      </trkpt>
      <trkpt lat="46.17658" lon="2.45333">
        <ele>436</ele>
        <time>2015-04-08T15:00:03Z</time>
      </trkpt>
      <trkpt lat="46.17659" lon="2.45338">
        <ele>436</ele>
        <time>2015-04-08T15:00:05Z</time>
      </trkpt>
      <trkpt lat="46.17659" lon="2.45342">
        <ele>436</ele>
        <time>2015-04-08T15:00:07Z</time>
      </trkpt>
      <trkpt lat="46.1766" lon="2.45346">
        <ele>436</ele>
        <time>2015-04-08T15:00:09Z</time>
      </trkpt>
      <trkpt lat="46.1766" lon="2.4535">
        <ele>436</ele>
        <time>2015-04-08T15:00:11Z</time>
      </trkpt>
      <trkpt lat="46.17661" lon="2.45355">
        <ele>436</ele>
        <time>2015-04-08T15:00:13Z</time>
      </trkpt>
      <trkpt lat="46.17661" lon="2.45359">
        <ele>436</ele>
        <time>2015-04-08T15:00:15Z</time>
      </trkpt>
      <trkpt lat="46.17661" lon="2.45363">
        <ele>436</ele>
        <time>2015-04-08T15:00:17Z</time>
      </trkpt>
      <trkpt lat="46.17662" lon="2.45368">
        <ele>436</ele>
        <time>2015-04-08T15:00:19Z</time>
      </trkpt>
      <trkpt lat="46.17662" lon="2.45372">
        <ele>436</ele>
        <time>2015-04-08T15:00:21Z</time>
      </trkpt>
      <trkpt lat="46.17662" lon="2.45376">
        <ele>436</ele>
        <time>2015-04-08T15:00:23Z</time>
      </trkpt>
      <trkpt lat="46.17662" lon="2.4538">
        <ele>436</ele>
        <time>2015-04-08T15:00:25Z</time>
      </trkpt>
      <trkpt lat="46.17662" lon="2.45384">
        <ele>436</ele>
        <time>2015-04-08T15:00:27Z</time>
      </trkpt>
      <trkpt lat="46.17662" lon="2.45388">
        <ele>436</ele>
        <time>2015-04-08T15:00:29Z</time>
      </trkpt>
      <trkpt lat="46.17662" lon="2.45392">
        <ele>436</ele>
        <time>2015-04-08T15:00:31Z</time>
      </trkpt>
      <trkpt lat="46.17662" lon="2.45396">
        <ele>436</ele>
        <time>2015-04-08T15:00:33Z</time>
      </trkpt>
      <trkpt lat="46.17661" lon="2.454">
        <ele>436</ele>
        <time>2015-04-08T15:00:35Z</time>
      </trkpt>
      <trkpt lat="46.17661" lon="2.45404">
        <ele>436</ele>
        <time>2015-04-08T15:00:37Z</time>
      </trkpt>
      <trkpt lat="46.1766" lon="2.45409">
        <ele>436</ele>
        <time>2015-04-08T15:00:39Z</time>
      </trkpt>
      <trkpt lat="46.1766" lon="2.45413">
        <ele>436</ele>
        <time>2015-04-08T15:00:41Z</time>
      </trkpt>
      <trkpt lat="46.17659" lon="2.45417">
        <ele>436</ele>
        <time>2015-04-08T15:00:43Z</time>
      </trkpt>
      <trkpt lat="46.17659" lon="2.45421">
        <ele>436</ele>
        <time>2015-04-08T15:00:45Z</time>
      </trkpt>
      <trkpt lat="46.17659" lon="2.45426">
        <ele>436</ele>
        <time>2015-04-08T15:00:47Z</time>
      </trkpt>
      <trkpt lat="46.17659" lon="2.4543">
        <ele>436</ele>
        <time>2015-04-08T15:00:49Z</time>
      </trkpt>
      <trkpt lat="46.1766" lon="2.45434">
        <ele>436</ele>
        <time>2015-04-08T15:00:51Z</time>
      </trkpt>
      <trkpt lat="46.1766" lon="2.45438">
        <ele>436</ele>
        <time>2015-04-08T15:00:53Z</time>
      </trkpt>
      <trkpt lat="46.17661" lon="2.45442">
        <ele>436</ele>
        <time>2015-04-08T15:00:55Z</time>
      </trkpt>
      <trkpt lat="46.17661" lon="2.45446">
        <ele>436</ele>
        <time>2015-04-08T15:00:57Z</time>
      </trkpt>
      <trkpt lat="46.17662" lon="2.45449">
        <ele>436</ele>
        <time>2015-04-08T15:00:59Z</time>
      </trkpt>
      <trkpt lat="46.17663" lon="2.45453">
        <ele>436</ele>
        <time>2015-04-08T15:01:01Z</time>
      </trkpt>
      <trkpt lat="46.17664" lon="2.45457">
        <ele>436</ele>
        <time>2015-04-08T15:01:03Z</time>
      </trkpt>
      <trkpt lat="46.17664" lon="2.4546">
        <ele>436</ele>
        <time>2015-04-08T15:01:05Z</time>
      </trkpt>
      <trkpt lat="46.17665" lon="2.45464">
        <ele>436</ele>
        <time>2015-04-08T15:01:07Z</time>
      </trkpt>
      <trkpt lat="46.17666" lon="2.45468">
        <ele>436</ele>
        <time>2015-04-08T15:01:09Z</time>
      </trkpt>
      <trkpt lat="46.17667" lon="2.45472">
        <ele>436</ele>
        <time>2015-04-08T15:01:11Z</time>
      </trkpt>
      <trkpt lat="46.17668" lon="2.45475">
        <ele>436</ele>
        <time>2015-04-08T15:01:13Z</time>
      </trkpt>
      <trkpt lat="46.17669" lon="2.45479">
        <ele>436</ele>
        <time>2015-04-08T15:01:15Z</time>
      </trkpt>
      <trkpt lat="46.1767" lon="2.45483">
        <ele>436</ele>
        <time>2015-04-08T15:01:17Z</time>
      </trkpt>
      <trkpt lat="46.1767" lon="2.45488">
        <ele>436</ele>
        <time>2015-04-08T15:01:20Z</time>
      </trkpt>
      <trkpt lat="46.1767" lon="2.45489">
        <ele>436</ele>
        <time>2015-04-08T15:01:27Z</time>
      </trkpt>
      <trkpt lat="46.1767" lon="2.45491">
        <ele>437</ele>
        <time>2015-04-08T15:01:42Z</time>
      </trkpt>
      <trkpt lat="46.1767" lon="2.45492">
        <ele>437</ele>
        <time>2015-04-08T15:01:58Z</time>
      </trkpt>
      <trkpt lat="46.17671" lon="2.45495">
        <ele>437</ele>
        <time>2015-04-08T15:02:00Z</time>
      </trkpt>
      <trkpt lat="46.17672" lon="2.45498">
        <ele>437</ele>
        <time>2015-04-08T15:02:02Z</time>
      </trkpt>
      <trkpt lat="46.17673" lon="2.45502">
        <ele>437</ele>
        <time>2015-04-08T15:02:05Z</time>
      </trkpt>
      <trkpt lat="46.17675" lon="2.45504">
        <ele>437</ele>
        <time>2015-04-08T15:02:07Z</time>
      </trkpt>
      <trkpt lat="46.17676" lon="2.45505">
        <ele>437</ele>
        <time>2015-04-08T15:02:09Z</time>
      </trkpt>
      <trkpt lat="46.17677" lon="2.45507">
        <ele>437</ele>
        <time>2015-04-08T15:02:11Z</time>
      </trkpt>
      <trkpt lat="46.17677" lon="2.45509">
        <ele>437</ele>
        <time>2015-04-08T15:02:13Z</time>
      </trkpt>
      <trkpt lat="46.17678" lon="2.4551">
        <ele>437</ele>
        <time>2015-04-08T15:02:16Z</time>
      </trkpt>
      <trkpt lat="46.17679" lon="2.45512">
        <ele>437</ele>
        <time>2015-04-08T15:02:25Z</time>
      </trkpt>
      <trkpt lat="46.17681" lon="2.45514">
        <ele>437</ele>
        <time>2015-04-08T15:02:27Z</time>
      </trkpt>
      <trkpt lat="46.17683" lon="2.45517">
        <ele>437</ele>
        <time>2015-04-08T15:02:29Z</time>
      </trkpt>
      <trkpt lat="46.17684" lon="2.45519">
        <ele>437</ele>
        <time>2015-04-08T15:02:31Z</time>
      </trkpt>
      <trkpt lat="46.17685" lon="2.45522">
        <ele>437</ele>
        <time>2015-04-08T15:02:33Z</time>
      </trkpt>
      <trkpt lat="46.17687" lon="2.45523">
        <ele>437</ele>
        <time>2015-04-08T15:02:35Z</time>
      </trkpt>
      <trkpt lat="46.17688" lon="2.45525">
        <ele>437</ele>
        <time>2015-04-08T15:02:49Z</time>
      </trkpt>
      <trkpt lat="46.1769" lon="2.45527">
        <ele>437</ele>
        <time>2015-04-08T15:02:51Z</time>
      </trkpt>
      <trkpt lat="46.17692" lon="2.45529">
        <ele>437</ele>
        <time>2015-04-08T15:02:53Z</time>
      </trkpt>
      <trkpt lat="46.17694" lon="2.45532">
        <ele>437</ele>
        <time>2015-04-08T15:02:55Z</time>
      </trkpt>
      <trkpt lat="46.17696" lon="2.45534">
        <ele>437</ele>
        <time>2015-04-08T15:02:57Z</time>
      </trkpt>
      <trkpt lat="46.17698" lon="2.45537">
        <ele>437</ele>
        <time>2015-04-08T15:02:59Z</time>
      </trkpt>
      <trkpt lat="46.177" lon="2.4554">
        <ele>437</ele>
        <time>2015-04-08T15:03:01Z</time>
      </trkpt>
      <trkpt lat="46.17702" lon="2.45543">
        <ele>437</ele>
        <time>2015-04-08T15:03:03Z</time>
      </trkpt>
      <trkpt lat="46.17704" lon="2.45545">
        <ele>437</ele>
        <time>2015-04-08T15:03:05Z</time>
      </trkpt>
      <trkpt lat="46.17706" lon="2.45548">
        <ele>437</ele>
        <time>2015-04-08T15:03:07Z</time>
      </trkpt>
      <trkpt lat="46.17708" lon="2.45551">
        <ele>437</ele>
        <time>2015-04-08T15:03:09Z</time>
      </trkpt>
      <trkpt lat="46.1771" lon="2.45554">
        <ele>437</ele>
        <time>2015-04-08T15:03:11Z</time>
      </trkpt>
      <trkpt lat="46.17713" lon="2.45557">
        <ele>437</ele>
        <time>2015-04-08T15:03:13Z</time>
      </trkpt>
      <trkpt lat="46.17715" lon="2.4556">
        <ele>437</ele>
        <time>2015-04-08T15:03:15Z</time>
      </trkpt>
      <trkpt lat="46.17717" lon="2.45563">
        <ele>437</ele>
        <time>2015-04-08T15:03:17Z</time>
      </trkpt>
      <trkpt lat="46.17719" lon="2.45566">
        <ele>437</ele>
        <time>2015-04-08T15:03:19Z</time>
      </trkpt>
      <trkpt lat="46.17722" lon="2.45568">
        <ele>437</ele>
        <time>2015-04-08T15:03:21Z</time>
      </trkpt>
      <trkpt lat="46.17724" lon="2.45571">
        <ele>437</ele>
        <time>2015-04-08T15:03:23Z</time>
      </trkpt>
      <trkpt lat="46.17726" lon="2.45574">
        <ele>437</ele>
        <time>2015-04-08T15:03:25Z</time>
      </trkpt>
      <trkpt lat="46.17728" lon="2.45578">
        <ele>437</ele>
        <time>2015-04-08T15:03:27Z</time>
      </trkpt>
      <trkpt lat="46.1773" lon="2.45581">
        <ele>437</ele>
        <time>2015-04-08T15:03:29Z</time>
      </trkpt>
      <trkpt lat="46.17732" lon="2.45585">
        <ele>437</ele>
        <time>2015-04-08T15:03:31Z</time>
      </trkpt>
      <trkpt lat="46.17733" lon="2.45589">
        <ele>437</ele>
        <time>2015-04-08T15:03:33Z</time>
      </trkpt>
      <trkpt lat="46.17735" lon="2.45592">
        <ele>437</ele>
        <time>2015-04-08T15:03:35Z</time>
      </trkpt>
      <trkpt lat="46.17736" lon="2.45596">
        <ele>437</ele>
        <time>2015-04-08T15:03:37Z</time>
      </trkpt>
      <trkpt lat="46.17738" lon="2.45601">
        <ele>437</ele>
        <time>2015-04-08T15:03:39Z</time>
      </trkpt>
      <trkpt lat="46.17738" lon="2.45605">
        <ele>437</ele>
        <time>2015-04-08T15:03:41Z</time>
      </trkpt>
      <trkpt lat="46.17739" lon="2.45609">
        <ele>437</ele>
        <time>2015-04-08T15:03:43Z</time>
      </trkpt>
      <trkpt lat="46.17741" lon="2.45614">
        <ele>437</ele>
        <time>2015-04-08T15:03:45Z</time>
      </trkpt>
      <trkpt lat="46.17741" lon="2.45618">
        <ele>437</ele>
        <time>2015-04-08T15:03:47Z</time>
      </trkpt>
      <trkpt lat="46.17742" lon="2.45623">
        <ele>437</ele>
        <time>2015-04-08T15:03:49Z</time>
      </trkpt>
      <trkpt lat="46.17744" lon="2.45627">
        <ele>437</ele>
        <time>2015-04-08T15:03:51Z</time>
      </trkpt>
      <trkpt lat="46.17744" lon="2.45632">
        <ele>437</ele>
        <time>2015-04-08T15:03:53Z</time>
      </trkpt>
      <trkpt lat="46.17745" lon="2.45636">
        <ele>437</ele>
        <time>2015-04-08T15:03:55Z</time>
      </trkpt>
      <trkpt lat="46.17746" lon="2.4564">
        <ele>437</ele>
        <time>2015-04-08T15:03:57Z</time>
      </trkpt>
      <trkpt lat="46.17747" lon="2.45644">
        <ele>437</ele>
        <time>2015-04-08T15:03:59Z</time>
      </trkpt>
      <trkpt lat="46.17748" lon="2.45649">
        <ele>437</ele>
        <time>2015-04-08T15:04:01Z</time>
      </trkpt>
      <trkpt lat="46.17749" lon="2.45653">
        <ele>437</ele>
        <time>2015-04-08T15:04:03Z</time>
      </trkpt>
      <trkpt lat="46.17749" lon="2.45656">
        <ele>437</ele>
        <time>2015-04-08T15:04:05Z</time>
      </trkpt>
      <trkpt lat="46.1775" lon="2.4566">
        <ele>437</ele>
        <time>2015-04-08T15:04:07Z</time>
      </trkpt>
      <trkpt lat="46.17751" lon="2.45664">
        <ele>437</ele>
        <time>2015-04-08T15:04:09Z</time>
      </trkpt>
      <trkpt lat="46.17751" lon="2.45669">
        <ele>437</ele>
        <time>2015-04-08T15:04:11Z</time>
      </trkpt>
      <trkpt lat="46.17751" lon="2.45673">
        <ele>437</ele>
        <time>2015-04-08T15:04:13Z</time>
      </trkpt>
      <trkpt lat="46.17751" lon="2.45677">
        <ele>437</ele>
        <time>2015-04-08T15:04:15Z</time>
      </trkpt>
      <trkpt lat="46.17751" lon="2.45682">
        <ele>437</ele>
        <time>2015-04-08T15:04:17Z</time>
      </trkpt>
      <trkpt lat="46.17751" lon="2.45686">
        <ele>437</ele>
        <time>2015-04-08T15:04:19Z</time>
      </trkpt>
      <trkpt lat="46.17749" lon="2.4569">
        <ele>437</ele>
        <time>2015-04-08T15:04:21Z</time>
      </trkpt>
      <trkpt lat="46.17748" lon="2.45694">
        <ele>437</ele>
        <time>2015-04-08T15:04:23Z</time>
      </trkpt>
      <trkpt lat="46.17747" lon="2.45698">
        <ele>437</ele>
        <time>2015-04-08T15:04:25Z</time>
      </trkpt>
      <trkpt lat="46.17745" lon="2.45702">
        <ele>437</ele>
        <time>2015-04-08T15:04:27Z</time>
      </trkpt>
      <trkpt lat="46.17743" lon="2.45705">
        <ele>437</ele>
        <time>2015-04-08T15:04:29Z</time>
      </trkpt>
      <trkpt lat="46.1774" lon="2.45709">
        <ele>437</ele>
        <time>2015-04-08T15:04:31Z</time>
      </trkpt>
      <trkpt lat="46.17738" lon="2.45712">
        <ele>437</ele>
        <time>2015-04-08T15:04:33Z</time>
      </trkpt>
      <trkpt lat="46.17735" lon="2.45715">
        <ele>437</ele>
        <time>2015-04-08T15:04:35Z</time>
      </trkpt>
      <trkpt lat="46.17733" lon="2.45718">
        <ele>437</ele>
        <time>2015-04-08T15:04:37Z</time>
      </trkpt>
      <trkpt lat="46.1773" lon="2.4572">
        <ele>437</ele>
        <time>2015-04-08T15:04:39Z</time>
      </trkpt>
      <trkpt lat="46.17727" lon="2.45723">
        <ele>437</ele>
        <time>2015-04-08T15:04:41Z</time>
      </trkpt>
      <trkpt lat="46.17725" lon="2.45725">
        <ele>437</ele>
        <time>2015-04-08T15:04:43Z</time>
      </trkpt>
      <trkpt lat="46.17722" lon="2.45727">
        <ele>437</ele>
        <time>2015-04-08T15:04:45Z</time>
      </trkpt>
      <trkpt lat="46.1772" lon="2.45729">
        <ele>437</ele>
        <time>2015-04-08T15:04:47Z</time>
      </trkpt>
      <trkpt lat="46.17717" lon="2.45731">
        <ele>437</ele>
        <time>2015-04-08T15:04:49Z</time>
      </trkpt>
      <trkpt lat="46.17714" lon="2.45732">
        <ele>437</ele>
        <time>2015-04-08T15:04:51Z</time>
      </trkpt>
      <trkpt lat="46.17711" lon="2.45733">
        <ele>437</ele>
        <time>2015-04-08T15:04:53Z</time>
      </trkpt>
      <trkpt lat="46.17707" lon="2.45733">
        <ele>437</ele>
        <time>2015-04-08T15:04:55Z</time>
      </trkpt>
      <trkpt lat="46.17704" lon="2.45733">
        <ele>437</ele>
        <time>2015-04-08T15:04:57Z</time>
      </trkpt>
      <trkpt lat="46.17701" lon="2.45733">
        <ele>437</ele>
        <time>2015-04-08T15:04:59Z</time>
      </trkpt>
      <trkpt lat="46.17698" lon="2.45733">
        <ele>437</ele>
        <time>2015-04-08T15:05:01Z</time>
      </trkpt>
      <trkpt lat="46.17696" lon="2.45733">
        <ele>437</ele>
        <time>2015-04-08T15:05:03Z</time>
      </trkpt>
      <trkpt lat="46.17693" lon="2.45732">
        <ele>437</ele>
        <time>2015-04-08T15:05:05Z</time>
      </trkpt>
      <trkpt lat="46.1769" lon="2.45732">
        <ele>437</ele>
        <time>2015-04-08T15:05:07Z</time>
      </trkpt>
      <trkpt lat="46.17687" lon="2.45732">
        <ele>437</ele>
        <time>2015-04-08T15:05:09Z</time>
      </trkpt>
      <trkpt lat="46.17684" lon="2.45731">
        <ele>437</ele>
        <time>2015-04-08T15:05:11Z</time>
      </trkpt>
      <trkpt lat="46.17681" lon="2.45731">
        <ele>437</ele>
        <time>2015-04-08T15:05:13Z</time>
      </trkpt>
      <trkpt lat="46.17678" lon="2.4573">
        <ele>437</ele>
        <time>2015-04-08T15:05:15Z</time>
      </trkpt>
      <trkpt lat="46.17675" lon="2.4573">
        <ele>437</ele>
        <time>2015-04-08T15:05:17Z</time>
      </trkpt>
      <trkpt lat="46.17672" lon="2.45729">
        <ele>437</ele>
        <time>2015-04-08T15:05:19Z</time>
      </trkpt>
      <trkpt lat="46.17669" lon="2.45728">
        <ele>437</ele>
        <time>2015-04-08T15:05:21Z</time>
      </trkpt>
      <trkpt lat="46.17666" lon="2.45728">
        <ele>437</ele>
        <time>2015-04-08T15:05:23Z</time>
      </trkpt>
      <trkpt lat="46.17663" lon="2.45728">
        <ele>437</ele>
        <time>2015-04-08T15:05:25Z</time>
      </trkpt>
      <trkpt lat="46.1766" lon="2.45728">
        <ele>437</ele>
        <time>2015-04-08T15:05:27Z</time>
      </trkpt>
      <trkpt lat="46.17657" lon="2.45728">
        <ele>437</ele>
        <time>2015-04-08T15:05:29Z</time>
      </trkpt>
      <trkpt lat="46.17654" lon="2.4573">
        <ele>437</ele>
        <time>2015-04-08T15:05:31Z</time>
      </trkpt>
      <trkpt lat="46.17652" lon="2.45733">
        <ele>437</ele>
        <time>2015-04-08T15:05:33Z</time>
      </trkpt>
      <trkpt lat="46.17649" lon="2.45736">
        <ele>437</ele>
        <time>2015-04-08T15:05:35Z</time>
      </trkpt>
      <trkpt lat="46.17647" lon="2.45738">
        <ele>437</ele>
        <time>2015-04-08T15:05:37Z</time>
      </trkpt>
      <trkpt lat="46.17645" lon="2.4574">
        <ele>437</ele>
        <time>2015-04-08T15:05:39Z</time>
      </trkpt>
      <trkpt lat="46.17641" lon="2.45744">
        <ele>437</ele>
        <time>2015-04-08T15:05:42Z</time>
      </trkpt>
      <trkpt lat="46.17638" lon="2.45747">
        <ele>437</ele>
        <time>2015-04-08T15:05:44Z</time>
      </trkpt>
      <trkpt lat="46.17636" lon="2.45749">
        <ele>437</ele>
        <time>2015-04-08T15:05:46Z</time>
      </trkpt>
      <trkpt lat="46.17633" lon="2.45752">
        <ele>437</ele>
        <time>2015-04-08T15:05:48Z</time>
      </trkpt>
      <trkpt lat="46.17631" lon="2.45755">
        <ele>437</ele>
        <time>2015-04-08T15:05:50Z</time>
      </trkpt>
      <trkpt lat="46.17629" lon="2.45757">
        <ele>437</ele>
        <time>2015-04-08T15:05:52Z</time>
      </trkpt>
      <trkpt lat="46.17628" lon="2.4576">
        <ele>437</ele>
        <time>2015-04-08T15:05:54Z</time>
      </trkpt>
      <trkpt lat="46.17627" lon="2.45765">
        <ele>437</ele>
        <time>2015-04-08T15:05:56Z</time>
      </trkpt>
      <trkpt lat="46.17627" lon="2.45769">
        <ele>437</ele>
        <time>2015-04-08T15:05:58Z</time>
      </trkpt>
      <trkpt lat="46.17628" lon="2.45773">
        <ele>437</ele>
        <time>2015-04-08T15:06:00Z</time>
      </trkpt>
      <trkpt lat="46.1763" lon="2.45777">
        <ele>437</ele>
        <time>2015-04-08T15:06:02Z</time>
      </trkpt>
      <trkpt lat="46.17631" lon="2.45781">
        <ele>437</ele>
        <time>2015-04-08T15:06:04Z</time>
      </trkpt>
      <trkpt lat="46.17632" lon="2.45784">
        <ele>437</ele>
        <time>2015-04-08T15:06:06Z</time>
      </trkpt>
      <trkpt lat="46.17634" lon="2.45788">
        <ele>437</ele>
        <time>2015-04-08T15:06:08Z</time>
      </trkpt>
      <trkpt lat="46.17636" lon="2.45791">
        <ele>437</ele>
        <time>2015-04-08T15:06:10Z</time>
      </trkpt>
      <trkpt lat="46.17637" lon="2.45794">
        <ele>437</ele>
        <time>2015-04-08T15:06:12Z</time>
      </trkpt>
      <trkpt lat="46.17639" lon="2.45797">
        <ele>437</ele>
        <time>2015-04-08T15:06:14Z</time>
      </trkpt>
      <trkpt lat="46.1764" lon="2.45801">
        <ele>437</ele>
        <time>2015-04-08T15:06:16Z</time>
      </trkpt>
      <trkpt lat="46.17642" lon="2.45805">
        <ele>437</ele>
        <time>2015-04-08T15:06:18Z</time>
      </trkpt>
      <trkpt lat="46.17643" lon="2.4581">
        <ele>437</ele>
        <time>2015-04-08T15:06:20Z</time>
      </trkpt>
      <trkpt lat="46.17644" lon="2.45814">
        <ele>437</ele>
        <time>2015-04-08T15:06:22Z</time>
      </trkpt>
      <trkpt lat="46.17646" lon="2.45818">
        <ele>437</ele>
        <time>2015-04-08T15:06:24Z</time>
      </trkpt>
      <trkpt lat="46.17647" lon="2.45822">
        <ele>437</ele>
        <time>2015-04-08T15:06:26Z</time>
      </trkpt>
      <trkpt lat="46.17648" lon="2.45825">
        <ele>437</ele>
        <time>2015-04-08T15:06:28Z</time>
      </trkpt>
      <trkpt lat="46.17649" lon="2.45829">
        <ele>437</ele>
        <time>2015-04-08T15:06:30Z</time>
      </trkpt>
      <trkpt lat="46.1765" lon="2.45833">
        <ele>437</ele>
        <time>2015-04-08T15:06:32Z</time>
      </trkpt>
      <trkpt lat="46.1765" lon="2.45837">
        <ele>437</ele>
        <time>2015-04-08T15:06:34Z</time>
      </trkpt>
      <trkpt lat="46.17651" lon="2.45841">
        <ele>437</ele>
        <time>2015-04-08T15:06:36Z</time>
      </trkpt>
      <trkpt lat="46.17651" lon="2.45844">
        <ele>437</ele>
        <time>2015-04-08T15:06:38Z</time>
      </trkpt>
      <trkpt lat="46.17651" lon="2.45848">
        <ele>437</ele>
        <time>2015-04-08T15:06:50Z</time>
      </trkpt>
      <trkpt lat="46.17651" lon="2.4585">
        <ele>437</ele>
        <time>2015-04-08T15:06:52Z</time>
      </trkpt>
      <trkpt lat="46.17651" lon="2.45853">
        <ele>437</ele>
        <time>2015-04-08T15:06:54Z</time>
      </trkpt>
      <trkpt lat="46.17651" lon="2.45857">
        <ele>437</ele>
        <time>2015-04-08T15:06:56Z</time>
      </trkpt>
      <trkpt lat="46.1765" lon="2.4586">
        <ele>437</ele>
        <time>2015-04-08T15:06:58Z</time>
      </trkpt>
      <trkpt lat="46.1765" lon="2.45864">
        <ele>437</ele>
        <time>2015-04-08T15:07:01Z</time>
      </trkpt>
      <trkpt lat="46.1765" lon="2.45866">
        <ele>437</ele>
        <time>2015-04-08T15:07:08Z</time>
      </trkpt>
      <trkpt lat="46.17649" lon="2.4587">
        <ele>437</ele>
        <time>2015-04-08T15:07:10Z</time>
      </trkpt>
      <trkpt lat="46.17649" lon="2.45875">
        <ele>437</ele>
        <time>2015-04-08T15:07:12Z</time>
      </trkpt>
      <trkpt lat="46.17649" lon="2.45879">
        <ele>437</ele>
        <time>2015-04-08T15:07:14Z</time>
      </trkpt>
      <trkpt lat="46.17648" lon="2.45883">
        <ele>437</ele>
        <time>2015-04-08T15:07:16Z</time>
      </trkpt>
      <trkpt lat="46.17648" lon="2.45887">
        <ele>437</ele>
        <time>2015-04-08T15:07:18Z</time>
      </trkpt>
      <trkpt lat="46.17648" lon="2.45891">
        <ele>437</ele>
        <time>2015-04-08T15:07:20Z</time>
      </trkpt>
      <trkpt lat="46.17648" lon="2.45896">
        <ele>437</ele>
        <time>2015-04-08T15:07:22Z</time>
      </trkpt>
      <trkpt lat="46.17647" lon="2.459">
        <ele>437</ele>
        <time>2015-04-08T15:07:24Z</time>
      </trkpt>
      <trkpt lat="46.17647" lon="2.45903">
        <ele>436</ele>
        <time>2015-04-08T15:07:26Z</time>
      </trkpt>
      <trkpt lat="46.17646" lon="2.45907">
        <ele>436</ele>
        <time>2015-04-08T15:07:28Z</time>
      </trkpt>
      <trkpt lat="46.17645" lon="2.45911">
        <ele>435</ele>
        <time>2015-04-08T15:07:30Z</time>
      </trkpt>
      <trkpt lat="46.17643" lon="2.45915">
        <ele>435</ele>
        <time>2015-04-08T15:07:32Z</time>
      </trkpt>
      <trkpt lat="46.17643" lon="2.45919">
        <ele>435</ele>
        <time>2015-04-08T15:07:34Z</time>
      </trkpt>
      <trkpt lat="46.17641" lon="2.45923">
        <ele>435</ele>
        <time>2015-04-08T15:07:36Z</time>
      </trkpt>
      <trkpt lat="46.1764" lon="2.45928">
        <ele>435</ele>
        <time>2015-04-08T15:07:38Z</time>
      </trkpt>
      <trkpt lat="46.17639" lon="2.45932">
        <ele>435</ele>
        <time>2015-04-08T15:07:40Z</time>
      </trkpt>
      <trkpt lat="46.17638" lon="2.45936">
        <ele>435</ele>
        <time>2015-04-08T15:07:42Z</time>
      </trkpt>
      <trkpt lat="46.17636" lon="2.4594">
        <ele>435</ele>
        <time>2015-04-08T15:07:44Z</time>
      </trkpt>
      <trkpt lat="46.17635" lon="2.45944">
        <ele>435</ele>
        <time>2015-04-08T15:07:46Z</time>
      </trkpt>
      <trkpt lat="46.17633" lon="2.45948">
        <ele>435</ele>
        <time>2015-04-08T15:07:48Z</time>
      </trkpt>
      <trkpt lat="46.17632" lon="2.45952">
        <ele>435</ele>
        <time>2015-04-08T15:07:50Z</time>
      </trkpt>
      <trkpt lat="46.17631" lon="2.45955">
        <ele>434</ele>
        <time>2015-04-08T15:07:52Z</time>
      </trkpt>
      <trkpt lat="46.1763" lon="2.45959">
        <ele>434</ele>
        <time>2015-04-08T15:07:54Z</time>
      </trkpt>
      <trkpt lat="46.17628" lon="2.45964">
        <ele>434</ele>
        <time>2015-04-08T15:07:56Z</time>
      </trkpt>
      <trkpt lat="46.17627" lon="2.45968">
        <ele>434</ele>
        <time>2015-04-08T15:07:58Z</time>
      </trkpt>
      <trkpt lat="46.17625" lon="2.45971">
        <ele>433</ele>
        <time>2015-04-08T15:08:00Z</time>
      </trkpt>
      <trkpt lat="46.17624" lon="2.45975">
        <ele>433</ele>
        <time>2015-04-08T15:08:02Z</time>
      </trkpt>
      <trkpt lat="46.17623" lon="2.45979">
        <ele>433</ele>
        <time>2015-04-08T15:08:04Z</time>
      </trkpt>
      <trkpt lat="46.17622" lon="2.45984">
        <ele>433</ele>
        <time>2015-04-08T15:08:06Z</time>
      </trkpt>
      <trkpt lat="46.1762" lon="2.45987">
        <ele>433</ele>
        <time>2015-04-08T15:08:08Z</time>
      </trkpt>
      <trkpt lat="46.17619" lon="2.45991">
        <ele>432</ele>
        <time>2015-04-08T15:08:10Z</time>
      </trkpt>
      <trkpt lat="46.17618" lon="2.45996">
        <ele>432</ele>
        <time>2015-04-08T15:08:12Z</time>
      </trkpt>
      <trkpt lat="46.17617" lon="2.46">
        <ele>432</ele>
        <time>2015-04-08T15:08:14Z</time>
      </trkpt>
      <trkpt lat="46.17616" lon="2.46004">
        <ele>432</ele>
        <time>2015-04-08T15:08:16Z</time>
      </trkpt>
      <trkpt lat="46.17615" lon="2.46008">
        <ele>431</ele>
        <time>2015-04-08T15:08:18Z</time>
      </trkpt>
      <trkpt lat="46.17614" lon="2.46012">
        <ele>431</ele>
        <time>2015-04-08T15:08:20Z</time>
      </trkpt>
      <trkpt lat="46.17613" lon="2.46016">
        <ele>430</ele>
        <time>2015-04-08T15:08:22Z</time>
      </trkpt>
      <trkpt lat="46.17612" lon="2.4602">
        <ele>430</ele>
        <time>2015-04-08T15:08:24Z</time>
      </trkpt>
      <trkpt lat="46.17612" lon="2.46024">
        <ele>429</ele>
        <time>2015-04-08T15:08:26Z</time>
      </trkpt>
      <trkpt lat="46.17611" lon="2.46028">
        <ele>429</ele>
        <time>2015-04-08T15:08:28Z</time>
      </trkpt>
      <trkpt lat="46.17611" lon="2.46033">
        <ele>428</ele>
        <time>2015-04-08T15:08:30Z</time>
      </trkpt>
      <trkpt lat="46.1761" lon="2.46037">
        <ele>428</ele>
        <time>2015-04-08T15:08:32Z</time>
      </trkpt>
      <trkpt lat="46.17609" lon="2.46041">
        <ele>427</ele>
        <time>2015-04-08T15:08:34Z</time>
      </trkpt>
      <trkpt lat="46.17608" lon="2.46045">
        <ele>427</ele>
        <time>2015-04-08T15:08:36Z</time>
      </trkpt>
      <trkpt lat="46.17607" lon="2.46049">
        <ele>426</ele>
        <time>2015-04-08T15:08:38Z</time>
      </trkpt>
      <trkpt lat="46.17606" lon="2.46053">
        <ele>426</ele>
        <time>2015-04-08T15:08:40Z</time>
      </trkpt>
      <trkpt lat="46.17606" lon="2.46057">
        <ele>426</ele>
        <time>2015-04-08T15:08:42Z</time>
      </trkpt>
      <trkpt lat="46.17605" lon="2.46061">
        <ele>426</ele>
        <time>2015-04-08T15:08:44Z</time>
      </trkpt>
      <trkpt lat="46.17604" lon="2.46065">
        <ele>426</ele>
        <time>2015-04-08T15:08:46Z</time>
      </trkpt>
      <trkpt lat="46.17603" lon="2.4607">
        <ele>426</ele>
        <time>2015-04-08T15:08:48Z</time>
      </trkpt>
      <trkpt lat="46.17603" lon="2.46074">
        <ele>426</ele>
        <time>2015-04-08T15:08:50Z</time>
      </trkpt>
      <trkpt lat="46.17602" lon="2.46078">
        <ele>426</ele>
        <time>2015-04-08T15:08:52Z</time>
      </trkpt>
      <trkpt lat="46.17601" lon="2.46082">
        <ele>426</ele>
        <time>2015-04-08T15:08:54Z</time>
      </trkpt>
      <trkpt lat="46.17601" lon="2.46086">
        <ele>426</ele>
        <time>2015-04-08T15:08:56Z</time>
      </trkpt>
      <trkpt lat="46.176" lon="2.46091">
        <ele>426</ele>
        <time>2015-04-08T15:08:58Z</time>
      </trkpt>
      <trkpt lat="46.17599" lon="2.46094">
        <ele>426</ele>
        <time>2015-04-08T15:09:00Z</time>
      </trkpt>
      <trkpt lat="46.17598" lon="2.46098">
        <ele>426</ele>
        <time>2015-04-08T15:09:02Z</time>
      </trkpt>
      <trkpt lat="46.17597" lon="2.46102">
        <ele>426</ele>
        <time>2015-04-08T15:09:04Z</time>
      </trkpt>
      <trkpt lat="46.17595" lon="2.46106">
        <ele>426</ele>
        <time>2015-04-08T15:09:07Z</time>
      </trkpt>
      <trkpt lat="46.17594" lon="2.4611">
        <ele>426</ele>
        <time>2015-04-08T15:09:09Z</time>
      </trkpt>
      <trkpt lat="46.17593" lon="2.46114">
        <ele>426</ele>
        <time>2015-04-08T15:09:11Z</time>
      </trkpt>
      <trkpt lat="46.17592" lon="2.46117">
        <ele>426</ele>
        <time>2015-04-08T15:09:13Z</time>
      </trkpt>
      <trkpt lat="46.1759" lon="2.46122">
        <ele>425</ele>
        <time>2015-04-08T15:09:16Z</time>
      </trkpt>
      <trkpt lat="46.17589" lon="2.46126">
        <ele>425</ele>
        <time>2015-04-08T15:09:18Z</time>
      </trkpt>
      <trkpt lat="46.17587" lon="2.4613">
        <ele>424</ele>
        <time>2015-04-08T15:09:20Z</time>
      </trkpt>
      <trkpt lat="46.17586" lon="2.46134">
        <ele>424</ele>
        <time>2015-04-08T15:09:22Z</time>
      </trkpt>
      <trkpt lat="46.17585" lon="2.46138">
        <ele>423</ele>
        <time>2015-04-08T15:09:24Z</time>
      </trkpt>
      <trkpt lat="46.17584" lon="2.46142">
        <ele>422</ele>
        <time>2015-04-08T15:09:26Z</time>
      </trkpt>
      <trkpt lat="46.17583" lon="2.46147">
        <ele>422</ele>
        <time>2015-04-08T15:09:28Z</time>
      </trkpt>
      <trkpt lat="46.17581" lon="2.46151">
        <ele>422</ele>
        <time>2015-04-08T15:09:30Z</time>
      </trkpt>
      <trkpt lat="46.1758" lon="2.46155">
        <ele>422</ele>
        <time>2015-04-08T15:09:32Z</time>
      </trkpt>
      <trkpt lat="46.17579" lon="2.46158">
        <ele>422</ele>
        <time>2015-04-08T15:09:34Z</time>
      </trkpt>
      <trkpt lat="46.17578" lon="2.46162">
        <ele>421</ele>
        <time>2015-04-08T15:09:36Z</time>
      </trkpt>
      <trkpt lat="46.17577" lon="2.46165">
        <ele>421</ele>
        <time>2015-04-08T15:09:38Z</time>
      </trkpt>
      <trkpt lat="46.17575" lon="2.46169">
        <ele>420</ele>
        <time>2015-04-08T15:09:40Z</time>
      </trkpt>
      <trkpt lat="46.17574" lon="2.46173">
        <ele>420</ele>
        <time>2015-04-08T15:09:42Z</time>
      </trkpt>
      <trkpt lat="46.17573" lon="2.46176">
        <ele>420</ele>
        <time>2015-04-08T15:09:44Z</time>
      </trkpt>
      <trkpt lat="46.17571" lon="2.4618">
        <ele>420</ele>
        <time>2015-04-08T15:09:46Z</time>
      </trkpt>
      <trkpt lat="46.17569" lon="2.46184">
        <ele>420</ele>
        <time>2015-04-08T15:09:48Z</time>
      </trkpt>
      <trkpt lat="46.17568" lon="2.46188">
        <ele>420</ele>
        <time>2015-04-08T15:09:50Z</time>
      </trkpt>
      <trkpt lat="46.17566" lon="2.46192">
        <ele>420</ele>
        <time>2015-04-08T15:09:52Z</time>
      </trkpt>
      <trkpt lat="46.17564" lon="2.46197">
        <ele>420</ele>
        <time>2015-04-08T15:09:54Z</time>
      </trkpt>
      <trkpt lat="46.17563" lon="2.46201">
        <ele>420</ele>
        <time>2015-04-08T15:09:56Z</time>
      </trkpt>
      <trkpt lat="46.17563" lon="2.46204">
        <ele>420</ele>
        <time>2015-04-08T15:09:58Z</time>
      </trkpt>
      <trkpt lat="46.17561" lon="2.46207">
        <ele>420</ele>
        <time>2015-04-08T15:10:00Z</time>
      </trkpt>
      <trkpt lat="46.1756" lon="2.46211">
        <ele>420</ele>
        <time>2015-04-08T15:10:02Z</time>
      </trkpt>
      <trkpt lat="46.17559" lon="2.46215">
        <ele>420</ele>
        <time>2015-04-08T15:10:04Z</time>
      </trkpt>
      <trkpt lat="46.17557" lon="2.46219">
        <ele>420</ele>
        <time>2015-04-08T15:10:06Z</time>
      </trkpt>
      <trkpt lat="46.17556" lon="2.46222">
        <ele>420</ele>
        <time>2015-04-08T15:10:08Z</time>
      </trkpt>
      <trkpt lat="46.17554" lon="2.46225">
        <ele>420</ele>
        <time>2015-04-08T15:10:10Z</time>
      </trkpt>
      <trkpt lat="46.17552" lon="2.46229">
        <ele>420</ele>
        <time>2015-04-08T15:10:12Z</time>
      </trkpt>
      <trkpt lat="46.17551" lon="2.46232">
        <ele>420</ele>
        <time>2015-04-08T15:10:14Z</time>
      </trkpt>
      <trkpt lat="46.17549" lon="2.46236">
        <ele>419</ele>
        <time>2015-04-08T15:10:16Z</time>
      </trkpt>
      <trkpt lat="46.17548" lon="2.46239">
        <ele>419</ele>
        <time>2015-04-08T15:10:18Z</time>
      </trkpt>
      <trkpt lat="46.17546" lon="2.46243">
        <ele>418</ele>
        <time>2015-04-08T15:10:20Z</time>
      </trkpt>
      <trkpt lat="46.17545" lon="2.46247">
        <ele>418</ele>
        <time>2015-04-08T15:10:22Z</time>
      </trkpt>
      <trkpt lat="46.17543" lon="2.4625">
        <ele>417</ele>
        <time>2015-04-08T15:10:24Z</time>
      </trkpt>
      <trkpt lat="46.17541" lon="2.46253">
        <ele>417</ele>
        <time>2015-04-08T15:10:26Z</time>
      </trkpt>
      <trkpt lat="46.1754" lon="2.46256">
        <ele>416</ele>
        <time>2015-04-08T15:10:28Z</time>
      </trkpt>
      <trkpt lat="46.17538" lon="2.46259">
        <ele>416</ele>
        <time>2015-04-08T15:10:30Z</time>
      </trkpt>
      <trkpt lat="46.17537" lon="2.46263">
        <ele>416</ele>
        <time>2015-04-08T15:10:32Z</time>
      </trkpt>
      <trkpt lat="46.17536" lon="2.46267">
        <ele>416</ele>
        <time>2015-04-08T15:10:34Z</time>
      </trkpt>
      <trkpt lat="46.17534" lon="2.4627">
        <ele>416</ele>
        <time>2015-04-08T15:10:36Z</time>
      </trkpt>
      <trkpt lat="46.17533" lon="2.46273">
        <ele>415</ele>
        <time>2015-04-08T15:10:38Z</time>
      </trkpt>
      <trkpt lat="46.17532" lon="2.46277">
        <ele>415</ele>
        <time>2015-04-08T15:10:40Z</time>
      </trkpt>
      <trkpt lat="46.1753" lon="2.4628">
        <ele>414</ele>
        <time>2015-04-08T15:10:42Z</time>
      </trkpt>
      <trkpt lat="46.1753" lon="2.46284">
        <ele>414</ele>
        <time>2015-04-08T15:10:44Z</time>
      </trkpt>
      <trkpt lat="46.17528" lon="2.46287">
        <ele>414</ele>
        <time>2015-04-08T15:10:46Z</time>
      </trkpt>
      <trkpt lat="46.17526" lon="2.4629">
        <ele>414</ele>
        <time>2015-04-08T15:10:48Z</time>
      </trkpt>
      <trkpt lat="46.17524" lon="2.46293">
        <ele>414</ele>
        <time>2015-04-08T15:10:50Z</time>
      </trkpt>
      <trkpt lat="46.17523" lon="2.46296">
        <ele>414</ele>
        <time>2015-04-08T15:10:52Z</time>
      </trkpt>
      <trkpt lat="46.17522" lon="2.463">
        <ele>413</ele>
        <time>2015-04-08T15:10:54Z</time>
      </trkpt>
      <trkpt lat="46.1752" lon="2.46303">
        <ele>413</ele>
        <time>2015-04-08T15:10:56Z</time>
      </trkpt>
      <trkpt lat="46.17519" lon="2.46306">
        <ele>412</ele>
        <time>2015-04-08T15:10:58Z</time>
      </trkpt>
      <trkpt lat="46.17517" lon="2.46309">
        <ele>412</ele>
        <time>2015-04-08T15:11:00Z</time>
      </trkpt>
      <trkpt lat="46.17515" lon="2.46313">
        <ele>412</ele>
        <time>2015-04-08T15:11:03Z</time>
      </trkpt>
      <trkpt lat="46.17512" lon="2.46317">
        <ele>411</ele>
        <time>2015-04-08T15:11:06Z</time>
      </trkpt>
      <trkpt lat="46.1751" lon="2.46321">
        <ele>411</ele>
        <time>2015-04-08T15:11:09Z</time>
      </trkpt>
      <trkpt lat="46.17508" lon="2.46323">
        <ele>410</ele>
        <time>2015-04-08T15:11:11Z</time>
      </trkpt>
      <trkpt lat="46.17506" lon="2.46326">
        <ele>410</ele>
        <time>2015-04-08T15:11:13Z</time>
      </trkpt>
      <trkpt lat="46.17504" lon="2.46328">
        <ele>409</ele>
        <time>2015-04-08T15:11:15Z</time>
      </trkpt>
      <trkpt lat="46.17502" lon="2.4633">
        <ele>409</ele>
        <time>2015-04-08T15:11:17Z</time>
      </trkpt>
      <trkpt lat="46.17501" lon="2.46332">
        <ele>408</ele>
        <time>2015-04-08T15:11:19Z</time>
      </trkpt>
      <trkpt lat="46.17498" lon="2.46334">
        <ele>408</ele>
        <time>2015-04-08T15:11:21Z</time>
      </trkpt>
      <trkpt lat="46.17496" lon="2.46336">
        <ele>408</ele>
        <time>2015-04-08T15:11:23Z</time>
      </trkpt>
      <trkpt lat="46.17495" lon="2.46338">
        <ele>408</ele>
        <time>2015-04-08T15:11:25Z</time>
      </trkpt>
      <trkpt lat="46.17493" lon="2.46339">
        <ele>408</ele>
        <time>2015-04-08T15:11:27Z</time>
      </trkpt>
      <trkpt lat="46.17492" lon="2.46341">
        <ele>408</ele>
        <time>2015-04-08T15:11:29Z</time>
      </trkpt>
      <trkpt lat="46.17491" lon="2.46343">
        <ele>408</ele>
        <time>2015-04-08T15:11:31Z</time>
      </trkpt>
      <trkpt lat="46.17489" lon="2.46345">
        <ele>408</ele>
        <time>2015-04-08T15:11:33Z</time>
      </trkpt>
      <trkpt lat="46.17488" lon="2.46347">
        <ele>408</ele>
        <time>2015-04-08T15:11:35Z</time>
      </trkpt>
      <trkpt lat="46.17487" lon="2.46351">
        <ele>408</ele>
        <time>2015-04-08T15:11:37Z</time>
      </trkpt>
      <trkpt lat="46.17485" lon="2.46353">
        <ele>408</ele>
        <time>2015-04-08T15:11:39Z</time>
      </trkpt>
      <trkpt lat="46.17484" lon="2.46355">
        <ele>408</ele>
        <time>2015-04-08T15:11:41Z</time>
      </trkpt>
      <trkpt lat="46.17483" lon="2.46357">
        <ele>408</ele>
        <time>2015-04-08T15:11:43Z</time>
      </trkpt>
      <trkpt lat="46.17481" lon="2.46359">
        <ele>408</ele>
        <time>2015-04-08T15:11:45Z</time>
      </trkpt>
      <trkpt lat="46.17479" lon="2.46362">
        <ele>408</ele>
        <time>2015-04-08T15:11:47Z</time>
      </trkpt>
      <trkpt lat="46.17477" lon="2.46367">
        <ele>408</ele>
        <time>2015-04-08T15:11:49Z</time>
      </trkpt>
      <trkpt lat="46.17474" lon="2.46371">
        <ele>408</ele>
        <time>2015-04-08T15:11:51Z</time>
      </trkpt>
      <trkpt lat="46.17472" lon="2.46375">
        <ele>408</ele>
        <time>2015-04-08T15:11:54Z</time>
      </trkpt>
      <trkpt lat="46.17469" lon="2.46378">
        <ele>408</ele>
        <time>2015-04-08T15:11:56Z</time>
      </trkpt>
      <trkpt lat="46.17467" lon="2.46384">
        <ele>408</ele>
        <time>2015-04-08T15:11:59Z</time>
      </trkpt>
      <trkpt lat="46.17466" lon="2.46388">
        <ele>408</ele>
        <time>2015-04-08T15:12:01Z</time>
      </trkpt>
      <trkpt lat="46.17466" lon="2.46393">
        <ele>408</ele>
        <time>2015-04-08T15:12:04Z</time>
      </trkpt>
      <trkpt lat="46.17465" lon="2.46395">
        <ele>408</ele>
        <time>2015-04-08T15:12:06Z</time>
      </trkpt>
      <trkpt lat="46.17464" lon="2.46398">
        <ele>408</ele>
        <time>2015-04-08T15:12:08Z</time>
      </trkpt>
      <trkpt lat="46.17464" lon="2.46401">
        <ele>408</ele>
        <time>2015-04-08T15:12:10Z</time>
      </trkpt>
      <trkpt lat="46.17463" lon="2.46405">
        <ele>408</ele>
        <time>2015-04-08T15:12:12Z</time>
      </trkpt>
      <trkpt lat="46.17461" lon="2.46408">
        <ele>408</ele>
        <time>2015-04-08T15:12:14Z</time>
      </trkpt>
      <trkpt lat="46.1746" lon="2.46411">
        <ele>408</ele>
        <time>2015-04-08T15:12:17Z</time>
      </trkpt>
      <trkpt lat="46.1746" lon="2.46414">
        <ele>408</ele>
        <time>2015-04-08T15:12:19Z</time>
      </trkpt>
      <trkpt lat="46.17459" lon="2.46417">
        <ele>408</ele>
        <time>2015-04-08T15:12:21Z</time>
      </trkpt>
      <trkpt lat="46.17458" lon="2.46419">
        <ele>408</ele>
        <time>2015-04-08T15:12:23Z</time>
      </trkpt>
      <trkpt lat="46.17456" lon="2.46422">
        <ele>408</ele>
        <time>2015-04-08T15:12:25Z</time>
      </trkpt>
      <trkpt lat="46.17456" lon="2.46426">
        <ele>408</ele>
        <time>2015-04-08T15:12:28Z</time>
      </trkpt>
      <trkpt lat="46.17457" lon="2.46428">
        <ele>407</ele>
        <time>2015-04-08T15:12:30Z</time>
      </trkpt>
      <trkpt lat="46.17458" lon="2.46431">
        <ele>407</ele>
        <time>2015-04-08T15:12:32Z</time>
      </trkpt>
      <trkpt lat="46.1746" lon="2.46434">
        <ele>407</ele>
        <time>2015-04-08T15:12:36Z</time>
      </trkpt>
      <trkpt lat="46.1746" lon="2.46437">
        <ele>407</ele>
        <time>2015-04-08T15:12:38Z</time>
      </trkpt>
      <trkpt lat="46.17463" lon="2.46441">
        <ele>407</ele>
        <time>2015-04-08T15:12:41Z</time>
      </trkpt>
      <trkpt lat="46.17464" lon="2.46444">
        <ele>407</ele>
        <time>2015-04-08T15:12:43Z</time>
      </trkpt>
      <trkpt lat="46.17462" lon="2.46448">
        <ele>407</ele>
        <time>2015-04-08T15:12:45Z</time>
      </trkpt>
      <trkpt lat="46.1746" lon="2.46451">
        <ele>407</ele>
        <time>2015-04-08T15:12:47Z</time>
      </trkpt>
      <trkpt lat="46.17458" lon="2.46454">
        <ele>407</ele>
        <time>2015-04-08T15:12:49Z</time>
      </trkpt>
      <trkpt lat="46.17455" lon="2.46459">
        <ele>407</ele>
        <time>2015-04-08T15:12:51Z</time>
      </trkpt>
      <trkpt lat="46.17455" lon="2.46461">
        <ele>406</ele>
        <time>2015-04-08T15:12:53Z</time>
      </trkpt>
      <trkpt lat="46.17454" lon="2.46464">
        <ele>406</ele>
        <time>2015-04-08T15:12:55Z</time>
      </trkpt>
      <trkpt lat="46.17453" lon="2.46467">
        <ele>406</ele>
        <time>2015-04-08T15:12:57Z</time>
      </trkpt>
      <trkpt lat="46.17453" lon="2.46471">
        <ele>406</ele>
        <time>2015-04-08T15:13:00Z</time>
      </trkpt>
      <trkpt lat="46.17453" lon="2.46475">
        <ele>406</ele>
        <time>2015-04-08T15:13:02Z</time>
      </trkpt>
      <trkpt lat="46.17453" lon="2.46476">
        <ele>406</ele>
        <time>2015-04-08T15:13:04Z</time>
      </trkpt>
      <trkpt lat="46.17452" lon="2.4648">
        <ele>406</ele>
        <time>2015-04-08T15:13:06Z</time>
      </trkpt>
      <trkpt lat="46.17451" lon="2.46481">
        <ele>406</ele>
        <time>2015-04-08T15:13:10Z</time>
      </trkpt>
      <trkpt lat="46.17449" lon="2.46485">
        <ele>406</ele>
        <time>2015-04-08T15:13:12Z</time>
      </trkpt>
      <trkpt lat="46.17447" lon="2.4649">
        <ele>404</ele>
        <time>2015-04-08T15:13:14Z</time>
      </trkpt>
      <trkpt lat="46.17446" lon="2.46493">
        <ele>403</ele>
        <time>2015-04-08T15:13:16Z</time>
      </trkpt>
      <trkpt lat="46.17445" lon="2.46498">
        <ele>401</ele>
        <time>2015-04-08T15:13:18Z</time>
      </trkpt>
      <trkpt lat="46.17445" lon="2.46501">
        <ele>400</ele>
        <time>2015-04-08T15:13:20Z</time>
      </trkpt>
      <trkpt lat="46.17444" lon="2.46505">
        <ele>398</ele>
        <time>2015-04-08T15:13:23Z</time>
      </trkpt>
      <trkpt lat="46.17444" lon="2.46508">
        <ele>396</ele>
        <time>2015-04-08T15:13:26Z</time>
      </trkpt>
      <trkpt lat="46.17443" lon="2.46511">
        <ele>394</ele>
        <time>2015-04-08T15:13:28Z</time>
      </trkpt>
      <trkpt lat="46.17442" lon="2.46515">
        <ele>393</ele>
        <time>2015-04-08T15:13:31Z</time>
      </trkpt>
      <trkpt lat="46.1744" lon="2.46517">
        <ele>392</ele>
        <time>2015-04-08T15:13:33Z</time>
      </trkpt>
      <trkpt lat="46.17439" lon="2.46519">
        <ele>391</ele>
        <time>2015-04-08T15:13:35Z</time>
      </trkpt>
      <trkpt lat="46.17438" lon="2.46521">
        <ele>390</ele>
        <time>2015-04-08T15:13:37Z</time>
      </trkpt>
      <trkpt lat="46.17436" lon="2.46523">
        <ele>389</ele>
        <time>2015-04-08T15:13:39Z</time>
      </trkpt>
      <trkpt lat="46.17436" lon="2.46524">
        <ele>388</ele>
        <time>2015-04-08T15:13:42Z</time>
      </trkpt>
      <trkpt lat="46.17435" lon="2.46527">
        <ele>386</ele>
        <time>2015-04-08T15:13:47Z</time>
      </trkpt>
      <trkpt lat="46.17433" lon="2.46526">
        <ele>386</ele>
        <time>2015-04-08T15:13:50Z</time>
      </trkpt>
      <trkpt lat="46.17432" lon="2.46526">
        <ele>385</ele>
        <time>2015-04-08T15:13:52Z</time>
      </trkpt>
      <trkpt lat="46.1743" lon="2.46526">
        <ele>385</ele>
        <time>2015-04-08T15:13:54Z</time>
      </trkpt>
      <trkpt lat="46.17429" lon="2.46527">
        <ele>383</ele>
        <time>2015-04-08T15:13:57Z</time>
      </trkpt>
      <trkpt lat="46.17427" lon="2.46528">
        <ele>382</ele>
        <time>2015-04-08T15:13:59Z</time>
      </trkpt>
      <trkpt lat="46.17426" lon="2.4653">
        <ele>381</ele>
        <time>2015-04-08T15:14:01Z</time>
      </trkpt>
      <trkpt lat="46.17425" lon="2.46532">
        <ele>380</ele>
        <time>2015-04-08T15:14:03Z</time>
      </trkpt>
      <trkpt lat="46.17423" lon="2.46532">
        <ele>379</ele>
        <time>2015-04-08T15:14:06Z</time>
      </trkpt>
      <trkpt lat="46.17421" lon="2.46534">
        <ele>378</ele>
        <time>2015-04-08T15:14:08Z</time>
      </trkpt>
      <trkpt lat="46.17419" lon="2.46534">
        <ele>377</ele>
        <time>2015-04-08T15:14:11Z</time>
      </trkpt>
      <trkpt lat="46.17417" lon="2.46534">
        <ele>377</ele>
        <time>2015-04-08T15:14:13Z</time>
      </trkpt>
      <trkpt lat="46.17416" lon="2.46534">
        <ele>375</ele>
        <time>2015-04-08T15:14:16Z</time>
      </trkpt>
      <trkpt lat="46.17414" lon="2.46536">
        <ele>374</ele>
        <time>2015-04-08T15:14:19Z</time>
      </trkpt>
      <trkpt lat="46.17414" lon="2.46538">
        <ele>374</ele>
        <time>2015-04-08T15:14:21Z</time>
      </trkpt>
      <trkpt lat="46.17413" lon="2.46538">
        <ele>374</ele>
        <time>2015-04-08T15:14:24Z</time>
      </trkpt>
      <trkpt lat="46.17411" lon="2.46538">
        <ele>374</ele>
        <time>2015-04-08T15:14:26Z</time>
      </trkpt>
      <trkpt lat="46.1741" lon="2.46541">
        <ele>374</ele>
        <time>2015-04-08T15:14:32Z</time>
      </trkpt>
      <trkpt lat="46.17409" lon="2.46545">
        <ele>376</ele>
        <time>2015-04-08T15:14:34Z</time>
      </trkpt>
      <trkpt lat="46.17407" lon="2.46547">
        <ele>378</ele>
        <time>2015-04-08T15:14:36Z</time>
      </trkpt>
      <trkpt lat="46.17405" lon="2.46548">
        <ele>380</ele>
        <time>2015-04-08T15:14:38Z</time>
      </trkpt>
      <trkpt lat="46.17402" lon="2.46549">
        <ele>386</ele>
        <time>2015-04-08T15:14:45Z</time>
      </trkpt>
      <trkpt lat="46.174" lon="2.46551">
        <ele>388</ele>
        <time>2015-04-08T15:14:47Z</time>
      </trkpt>
      <trkpt lat="46.174" lon="2.46555">
        <ele>390</ele>
        <time>2015-04-08T15:14:50Z</time>
      </trkpt>
      <trkpt lat="46.17401" lon="2.46558">
        <ele>392</ele>
        <time>2015-04-08T15:14:52Z</time>
      </trkpt>
      <trkpt lat="46.17403" lon="2.46562">
        <ele>395</ele>
        <time>2015-04-08T15:14:55Z</time>
      </trkpt>
      <trkpt lat="46.17405" lon="2.46563">
        <ele>398</ele>
        <time>2015-04-08T15:14:58Z</time>
      </trkpt>
      <trkpt lat="46.17406" lon="2.46564">
        <ele>401</ele>
        <time>2015-04-08T15:15:01Z</time>
      </trkpt>
      <trkpt lat="46.17405" lon="2.46563">
        <ele>402</ele>
        <time>2015-04-08T15:15:03Z</time>
      </trkpt>
      <trkpt lat="46.17403" lon="2.46566">
        <ele>403</ele>
        <time>2015-04-08T15:15:06Z</time>
      </trkpt>
      <trkpt lat="46.17403" lon="2.46568">
        <ele>403</ele>
        <time>2015-04-08T15:15:08Z</time>
      </trkpt>
      <trkpt lat="46.17402" lon="2.4657">
        <ele>402</ele>
        <time>2015-04-08T15:15:12Z</time>
      </trkpt>
      <trkpt lat="46.174" lon="2.46571">
        <ele>401</ele>
        <time>2015-04-08T15:15:14Z</time>
      </trkpt>
      <trkpt lat="46.17397" lon="2.46573">
        <ele>399</ele>
        <time>2015-04-08T15:15:16Z</time>
      </trkpt>
      <trkpt lat="46.17395" lon="2.46574">
        <ele>397</ele>
        <time>2015-04-08T15:15:18Z</time>
      </trkpt>
      <trkpt lat="46.17391" lon="2.46579">
        <ele>394</ele>
        <time>2015-04-08T15:15:21Z</time>
      </trkpt>
      <trkpt lat="46.1739" lon="2.46582">
        <ele>394</ele>
        <time>2015-04-08T15:15:23Z</time>
      </trkpt>
      <trkpt lat="46.17388" lon="2.46586">
        <ele>394</ele>
        <time>2015-04-08T15:15:26Z</time>
      </trkpt>
      <trkpt lat="46.17389" lon="2.46586">
        <ele>393</ele>
        <time>2015-04-08T15:15:30Z</time>
      </trkpt>
      <trkpt lat="46.17389" lon="2.46588">
        <ele>391</ele>
        <time>2015-04-08T15:15:33Z</time>
      </trkpt>
      <trkpt lat="46.17391" lon="2.46589">
        <ele>390</ele>
        <time>2015-04-08T15:15:35Z</time>
      </trkpt>
      <trkpt lat="46.1739" lon="2.46591">
        <ele>386</ele>
        <time>2015-04-08T15:15:39Z</time>
      </trkpt>
      <trkpt lat="46.17389" lon="2.46592">
        <ele>385</ele>
        <time>2015-04-08T15:15:41Z</time>
      </trkpt>
      <trkpt lat="46.1739" lon="2.46595">
        <ele>383</ele>
        <time>2015-04-08T15:15:43Z</time>
      </trkpt>
      <trkpt lat="46.17392" lon="2.46598">
        <ele>380</ele>
        <time>2015-04-08T15:15:46Z</time>
      </trkpt>
      <trkpt lat="46.17395" lon="2.46603">
        <ele>377</ele>
        <time>2015-04-08T15:15:50Z</time>
      </trkpt>
      <trkpt lat="46.17396" lon="2.46604">
        <ele>376</ele>
        <time>2015-04-08T15:15:52Z</time>
      </trkpt>
      <trkpt lat="46.17397" lon="2.46606">
        <ele>375</ele>
        <time>2015-04-08T15:15:54Z</time>
      </trkpt>
      <trkpt lat="46.17397" lon="2.46609">
        <ele>374</ele>
        <time>2015-04-08T15:15:56Z</time>
      </trkpt>
      <trkpt lat="46.17397" lon="2.4661">
        <ele>374</ele>
        <time>2015-04-08T15:15:58Z</time>
      </trkpt>
      <trkpt lat="46.17399" lon="2.46612">
        <ele>374</ele>
        <time>2015-04-08T15:16:00Z</time>
      </trkpt>
      <trkpt lat="46.17401" lon="2.46613">
        <ele>373</ele>
        <time>2015-04-08T15:16:02Z</time>
      </trkpt>
      <trkpt lat="46.17403" lon="2.46613">
        <ele>373</ele>
        <time>2015-04-08T15:16:04Z</time>
      </trkpt>
      <trkpt lat="46.17404" lon="2.46615">
        <ele>373</ele>
        <time>2015-04-08T15:16:06Z</time>
      </trkpt>
      <trkpt lat="46.17406" lon="2.46616">
        <ele>373</ele>
        <time>2015-04-08T15:16:08Z</time>
      </trkpt>
      <trkpt lat="46.17409" lon="2.46618">
        <ele>372</ele>
        <time>2015-04-08T15:16:10Z</time>
      </trkpt>
      <trkpt lat="46.17412" lon="2.4662">
        <ele>371</ele>
        <time>2015-04-08T15:16:13Z</time>
      </trkpt>
      <trkpt lat="46.17414" lon="2.46621">
        <ele>371</ele>
        <time>2015-04-08T15:16:16Z</time>
      </trkpt>
      <trkpt lat="46.17416" lon="2.46622">
        <ele>371</ele>
        <time>2015-04-08T15:16:18Z</time>
      </trkpt>
      <trkpt lat="46.17418" lon="2.46623">
        <ele>371</ele>
        <time>2015-04-08T15:16:20Z</time>
      </trkpt>
      <trkpt lat="46.1742" lon="2.46623">
        <ele>371</ele>
        <time>2015-04-08T15:16:22Z</time>
      </trkpt>
      <trkpt lat="46.17423" lon="2.46625">
        <ele>371</ele>
        <time>2015-04-08T15:16:24Z</time>
      </trkpt>
      <trkpt lat="46.17425" lon="2.46626">
        <ele>371</ele>
        <time>2015-04-08T15:16:26Z</time>
      </trkpt>
      <trkpt lat="46.17427" lon="2.46627">
        <ele>371</ele>
        <time>2015-04-08T15:16:28Z</time>
      </trkpt>
      <trkpt lat="46.17429" lon="2.46628">
        <ele>371</ele>
        <time>2015-04-08T15:16:30Z</time>
      </trkpt>
      <trkpt lat="46.17431" lon="2.46628">
        <ele>371</ele>
        <time>2015-04-08T15:16:32Z</time>
      </trkpt>
      <trkpt lat="46.17432" lon="2.46629">
        <ele>371</ele>
        <time>2015-04-08T15:16:34Z</time>
      </trkpt>
      <trkpt lat="46.17433" lon="2.46631">
        <ele>370</ele>
        <time>2015-04-08T15:16:37Z</time>
      </trkpt>
      <trkpt lat="46.17434" lon="2.46632">
        <ele>370</ele>
        <time>2015-04-08T15:16:40Z</time>
      </trkpt>
      <trkpt lat="46.17435" lon="2.46634">
        <ele>370</ele>
        <time>2015-04-08T15:16:47Z</time>
      </trkpt>
      <trkpt lat="46.17436" lon="2.46634">
        <ele>370</ele>
        <time>2015-04-08T15:16:59Z</time>
      </trkpt>
      <trkpt lat="46.17437" lon="2.46636">
        <ele>370</ele>
        <time>2015-04-08T15:17:02Z</time>
      </trkpt>
      <trkpt lat="46.17437" lon="2.46637">
        <ele>370</ele>
        <time>2015-04-08T15:17:04Z</time>
      </trkpt>
      <trkpt lat="46.17439" lon="2.46637">
        <ele>370</ele>
        <time>2015-04-08T15:17:07Z</time>
      </trkpt>
      <trkpt lat="46.17441" lon="2.46637">
        <ele>370</ele>
        <time>2015-04-08T15:17:09Z</time>
      </trkpt>
      <trkpt lat="46.17442" lon="2.46635">
        <ele>370</ele>
        <time>2015-04-08T15:17:12Z</time>
      </trkpt>
      <trkpt lat="46.17444" lon="2.46634">
        <ele>370</ele>
        <time>2015-04-08T15:17:14Z</time>
      </trkpt>
      <trkpt lat="46.17445" lon="2.46633">
        <ele>370</ele>
        <time>2015-04-08T15:17:16Z</time>
      </trkpt>
      <trkpt lat="46.17447" lon="2.46633">
        <ele>370</ele>
        <time>2015-04-08T15:17:18Z</time>
      </trkpt>
      <trkpt lat="46.1745" lon="2.46632">
        <ele>370</ele>
        <time>2015-04-08T15:17:20Z</time>
      </trkpt>
      <trkpt lat="46.17451" lon="2.4663">
        <ele>370</ele>
        <time>2015-04-08T15:17:22Z</time>
      </trkpt>
      <trkpt lat="46.17453" lon="2.4663">
        <ele>370</ele>
        <time>2015-04-08T15:17:24Z</time>
      </trkpt>
      <trkpt lat="46.17456" lon="2.46627">
        <ele>370</ele>
        <time>2015-04-08T15:17:27Z</time>
      </trkpt>
      <trkpt lat="46.17458" lon="2.46627">
        <ele>370</ele>
        <time>2015-04-08T15:17:29Z</time>
      </trkpt>
      <trkpt lat="46.17459" lon="2.46627">
        <ele>370</ele>
        <time>2015-04-08T15:17:31Z</time>
      </trkpt>
      <trkpt lat="46.1746" lon="2.46625">
        <ele>370</ele>
        <time>2015-04-08T15:17:33Z</time>
      </trkpt>
      <trkpt lat="46.17458" lon="2.46624">
        <ele>370</ele>
        <time>2015-04-08T15:17:35Z</time>
      </trkpt>
      <trkpt lat="46.17455" lon="2.46621">
        <ele>370</ele>
        <time>2015-04-08T15:17:39Z</time>
      </trkpt>
      <trkpt lat="46.17456" lon="2.4662">
        <ele>372</ele>
        <time>2015-04-08T15:17:47Z</time>
      </trkpt>
      <trkpt lat="46.17458" lon="2.4662">
        <ele>372</ele>
        <time>2015-04-08T15:18:04Z</time>
      </trkpt>
      <trkpt lat="46.17459" lon="2.4662">
        <ele>371</ele>
        <time>2015-04-08T15:18:06Z</time>
      </trkpt>
      <trkpt lat="46.1746" lon="2.4662">
        <ele>371</ele>
        <time>2015-04-08T15:18:08Z</time>
      </trkpt>
      <trkpt lat="46.17461" lon="2.46621">
        <ele>371</ele>
        <time>2015-04-08T15:18:10Z</time>
      </trkpt>
      <trkpt lat="46.17462" lon="2.46623">
        <ele>370</ele>
        <time>2015-04-08T15:18:13Z</time>
      </trkpt>
      <trkpt lat="46.17464" lon="2.46623">
        <ele>370</ele>
        <time>2015-04-08T15:18:18Z</time>
      </trkpt>
      <trkpt lat="46.17466" lon="2.46622">
        <ele>370</ele>
        <time>2015-04-08T15:18:20Z</time>
      </trkpt>
      <trkpt lat="46.17467" lon="2.46621">
        <ele>370</ele>
        <time>2015-04-08T15:18:22Z</time>
      </trkpt>
      <trkpt lat="46.17469" lon="2.4662">
        <ele>370</ele>
        <time>2015-04-08T15:18:24Z</time>
      </trkpt>
      <trkpt lat="46.17471" lon="2.46619">
        <ele>370</ele>
        <time>2015-04-08T15:18:26Z</time>
      </trkpt>
      <trkpt lat="46.17473" lon="2.46619">
        <ele>370</ele>
        <time>2015-04-08T15:18:28Z</time>
      </trkpt>
      <trkpt lat="46.17476" lon="2.46619">
        <ele>370</ele>
        <time>2015-04-08T15:18:30Z</time>
      </trkpt>
      <trkpt lat="46.17478" lon="2.46618">
        <ele>370</ele>
        <time>2015-04-08T15:18:32Z</time>
      </trkpt>
      <trkpt lat="46.1748" lon="2.46619">
        <ele>370</ele>
        <time>2015-04-08T15:18:34Z</time>
      </trkpt>
      <trkpt lat="46.17484" lon="2.46618">
        <ele>370</ele>
        <time>2015-04-08T15:18:37Z</time>
      </trkpt>
      <trkpt lat="46.17485" lon="2.46617">
        <ele>370</ele>
        <time>2015-04-08T15:18:39Z</time>
      </trkpt>
      <trkpt lat="46.17487" lon="2.46618">
        <ele>370</ele>
        <time>2015-04-08T15:18:42Z</time>
      </trkpt>
      <trkpt lat="46.17489" lon="2.46618">
        <ele>371</ele>
        <time>2015-04-08T15:18:44Z</time>
      </trkpt>
      <trkpt lat="46.17491" lon="2.46619">
        <ele>372</ele>
        <time>2015-04-08T15:18:46Z</time>
      </trkpt>
      <trkpt lat="46.17493" lon="2.46619">
        <ele>372</ele>
        <time>2015-04-08T15:18:48Z</time>
      </trkpt>
      <trkpt lat="46.17497" lon="2.4662">
        <ele>373</ele>
        <time>2015-04-08T15:18:50Z</time>
      </trkpt>
      <trkpt lat="46.175" lon="2.46618">
        <ele>373</ele>
        <time>2015-04-08T15:18:53Z</time>
      </trkpt>
      <trkpt lat="46.17501" lon="2.46617">
        <ele>373</ele>
        <time>2015-04-08T15:18:55Z</time>
      </trkpt>
      <trkpt lat="46.17504" lon="2.46616">
        <ele>375</ele>
        <time>2015-04-08T15:18:58Z</time>
      </trkpt>
      <trkpt lat="46.17506" lon="2.46614">
        <ele>376</ele>
        <time>2015-04-08T15:19:00Z</time>
      </trkpt>
      <trkpt lat="46.17508" lon="2.46615">
        <ele>377</ele>
        <time>2015-04-08T15:19:03Z</time>
      </trkpt>
      <trkpt lat="46.17511" lon="2.46615">
        <ele>378</ele>
        <time>2015-04-08T15:19:05Z</time>
      </trkpt>
      <trkpt lat="46.17512" lon="2.46614">
        <ele>379</ele>
        <time>2015-04-08T15:19:07Z</time>
      </trkpt>
      <trkpt lat="46.17514" lon="2.46613">
        <ele>380</ele>
        <time>2015-04-08T15:19:09Z</time>
      </trkpt>
      <trkpt lat="46.17516" lon="2.46613">
        <ele>381</ele>
        <time>2015-04-08T15:19:11Z</time>
      </trkpt>
      <trkpt lat="46.17519" lon="2.46612">
        <ele>382</ele>
        <time>2015-04-08T15:19:14Z</time>
      </trkpt>
      <trkpt lat="46.17522" lon="2.46613">
        <ele>382</ele>
        <time>2015-04-08T15:19:17Z</time>
      </trkpt>
      <trkpt lat="46.17524" lon="2.46614">
        <ele>382</ele>
        <time>2015-04-08T15:19:19Z</time>
      </trkpt>
      <trkpt lat="46.17527" lon="2.46617">
        <ele>382</ele>
        <time>2015-04-08T15:19:21Z</time>
      </trkpt>
      <trkpt lat="46.17531" lon="2.46621">
        <ele>382</ele>
        <time>2015-04-08T15:19:24Z</time>
      </trkpt>
      <trkpt lat="46.17534" lon="2.46619">
        <ele>382</ele>
        <time>2015-04-08T15:19:27Z</time>
      </trkpt>
      <trkpt lat="46.17536" lon="2.46622">
        <ele>382</ele>
        <time>2015-04-08T15:19:32Z</time>
      </trkpt>
      <trkpt lat="46.17535" lon="2.46622">
        <ele>382</ele>
        <time>2015-04-08T15:19:34Z</time>
      </trkpt>
      <trkpt lat="46.17534" lon="2.46623">
        <ele>382</ele>
        <time>2015-04-08T15:19:36Z</time>
      </trkpt>
      <trkpt lat="46.17532" lon="2.46623">
        <ele>383</ele>
        <time>2015-04-08T15:19:38Z</time>
      </trkpt>
      <trkpt lat="46.17529" lon="2.46623">
        <ele>383</ele>
        <time>2015-04-08T15:19:41Z</time>
      </trkpt>
      <trkpt lat="46.17527" lon="2.46623">
        <ele>384</ele>
        <time>2015-04-08T15:19:43Z</time>
      </trkpt>
      <trkpt lat="46.17526" lon="2.46623">
        <ele>384</ele>
        <time>2015-04-08T15:19:45Z</time>
      </trkpt>
      <trkpt lat="46.17522" lon="2.46625">
        <ele>384</ele>
        <time>2015-04-08T15:19:48Z</time>
      </trkpt>
      <trkpt lat="46.1752" lon="2.46625">
        <ele>384</ele>
        <time>2015-04-08T15:19:50Z</time>
      </trkpt>
      <trkpt lat="46.17517" lon="2.46625">
        <ele>384</ele>
        <time>2015-04-08T15:19:52Z</time>
      </trkpt>
      <trkpt lat="46.17514" lon="2.46626">
        <ele>384</ele>
        <time>2015-04-08T15:19:54Z</time>
      </trkpt>
      <trkpt lat="46.17511" lon="2.46627">
        <ele>384</ele>
        <time>2015-04-08T15:19:57Z</time>
      </trkpt>
      <trkpt lat="46.1751" lon="2.46629">
        <ele>384</ele>
        <time>2015-04-08T15:19:59Z</time>
      </trkpt>
      <trkpt lat="46.1751" lon="2.46631">
        <ele>384</ele>
        <time>2015-04-08T15:20:01Z</time>
      </trkpt>
      <trkpt lat="46.17512" lon="2.46632">
        <ele>386</ele>
        <time>2015-04-08T15:20:04Z</time>
      </trkpt>
      <trkpt lat="46.17513" lon="2.46633">
        <ele>387</ele>
        <time>2015-04-08T15:20:06Z</time>
      </trkpt>
      <trkpt lat="46.17515" lon="2.46633">
        <ele>388</ele>
        <time>2015-04-08T15:20:08Z</time>
      </trkpt>
      <trkpt lat="46.17516" lon="2.46632">
        <ele>389</ele>
        <time>2015-04-08T15:20:10Z</time>
      </trkpt>
      <trkpt lat="46.17518" lon="2.46634">
        <ele>390</ele>
        <time>2015-04-08T15:20:12Z</time>
      </trkpt>
      <trkpt lat="46.1752" lon="2.46636">
        <ele>390</ele>
        <time>2015-04-08T15:20:14Z</time>
      </trkpt>
      <trkpt lat="46.17521" lon="2.46637">
        <ele>390</ele>
        <time>2015-04-08T15:20:16Z</time>
      </trkpt>
      <trkpt lat="46.17523" lon="2.46637">
        <ele>390</ele>
        <time>2015-04-08T15:20:19Z</time>
      </trkpt>
      <trkpt lat="46.17527" lon="2.4664">
        <ele>390</ele>
        <time>2015-04-08T15:20:24Z</time>
      </trkpt>
      <trkpt lat="46.17529" lon="2.46643">
        <ele>390</ele>
        <time>2015-04-08T15:20:26Z</time>
      </trkpt>
      <trkpt lat="46.1753" lon="2.46643">
        <ele>390</ele>
        <time>2015-04-08T15:20:28Z</time>
      </trkpt>
      <trkpt lat="46.17532" lon="2.46644">
        <ele>391</ele>
        <time>2015-04-08T15:20:31Z</time>
      </trkpt>
      <trkpt lat="46.17533" lon="2.46644">
        <ele>391</ele>
        <time>2015-04-08T15:20:33Z</time>
      </trkpt>
      <trkpt lat="46.17535" lon="2.46645">
        <ele>392</ele>
        <time>2015-04-08T15:20:35Z</time>
      </trkpt>
      <trkpt lat="46.17538" lon="2.46646">
        <ele>392</ele>
        <time>2015-04-08T15:20:37Z</time>
      </trkpt>
      <trkpt lat="46.17541" lon="2.46649">
        <ele>392</ele>
        <time>2015-04-08T15:20:40Z</time>
      </trkpt>
      <trkpt lat="46.17541" lon="2.4665">
        <ele>392</ele>
        <time>2015-04-08T15:20:43Z</time>
      </trkpt>
      <trkpt lat="46.17543" lon="2.46652">
        <ele>392</ele>
        <time>2015-04-08T15:20:45Z</time>
      </trkpt>
      <trkpt lat="46.17544" lon="2.46653">
        <ele>393</ele>
        <time>2015-04-08T15:20:47Z</time>
      </trkpt>
      <trkpt lat="46.17547" lon="2.46654">
        <ele>394</ele>
        <time>2015-04-08T15:20:50Z</time>
      </trkpt>
      <trkpt lat="46.17551" lon="2.46655">
        <ele>395</ele>
        <time>2015-04-08T15:20:52Z</time>
      </trkpt>
      <trkpt lat="46.17555" lon="2.46654">
        <ele>396</ele>
        <time>2015-04-08T15:20:54Z</time>
      </trkpt>
      <trkpt lat="46.17558" lon="2.46654">
        <ele>398</ele>
        <time>2015-04-08T15:20:56Z</time>
      </trkpt>
      <trkpt lat="46.17561" lon="2.46653">
        <ele>400</ele>
        <time>2015-04-08T15:20:58Z</time>
      </trkpt>
      <trkpt lat="46.17563" lon="2.46655">
        <ele>401</ele>
        <time>2015-04-08T15:21:01Z</time>
      </trkpt>
      <trkpt lat="46.17564" lon="2.46656">
        <ele>401</ele>
        <time>2015-04-08T15:21:03Z</time>
      </trkpt>
      <trkpt lat="46.17566" lon="2.46658">
        <ele>401</ele>
        <time>2015-04-08T15:21:05Z</time>
      </trkpt>
      <trkpt lat="46.17567" lon="2.4666">
        <ele>401</ele>
        <time>2015-04-08T15:21:07Z</time>
      </trkpt>
      <trkpt lat="46.17568" lon="2.46662">
        <ele>401</ele>
        <time>2015-04-08T15:21:09Z</time>
      </trkpt>
      <trkpt lat="46.17568" lon="2.46664">
        <ele>401</ele>
        <time>2015-04-08T15:21:11Z</time>
      </trkpt>
      <trkpt lat="46.17569" lon="2.46666">
        <ele>401</ele>
        <time>2015-04-08T15:21:13Z</time>
      </trkpt>
      <trkpt lat="46.17569" lon="2.46668">
        <ele>401</ele>
        <time>2015-04-08T15:21:15Z</time>
      </trkpt>
      <trkpt lat="46.1757" lon="2.4667">
        <ele>401</ele>
        <time>2015-04-08T15:21:17Z</time>
      </trkpt>
      <trkpt lat="46.17571" lon="2.46673">
        <ele>401</ele>
        <time>2015-04-08T15:21:19Z</time>
      </trkpt>
      <trkpt lat="46.17572" lon="2.46676">
        <ele>401</ele>
        <time>2015-04-08T15:21:21Z</time>
      </trkpt>
      <trkpt lat="46.17572" lon="2.4668">
        <ele>401</ele>
        <time>2015-04-08T15:21:23Z</time>
      </trkpt>
      <trkpt lat="46.17572" lon="2.46684">
        <ele>401</ele>
        <time>2015-04-08T15:21:25Z</time>
      </trkpt>
      <trkpt lat="46.17573" lon="2.46687">
        <ele>401</ele>
        <time>2015-04-08T15:21:27Z</time>
      </trkpt>
      <trkpt lat="46.17574" lon="2.46691">
        <ele>401</ele>
        <time>2015-04-08T15:21:29Z</time>
      </trkpt>
      <trkpt lat="46.17576" lon="2.46695">
        <ele>401</ele>
        <time>2015-04-08T15:21:32Z</time>
      </trkpt>
      <trkpt lat="46.17578" lon="2.46697">
        <ele>401</ele>
        <time>2015-04-08T15:21:34Z</time>
      </trkpt>
      <trkpt lat="46.17579" lon="2.467">
        <ele>401</ele>
        <time>2015-04-08T15:21:36Z</time>
      </trkpt>
      <trkpt lat="46.1758" lon="2.46702">
        <ele>401</ele>
        <time>2015-04-08T15:21:38Z</time>
      </trkpt>
      <trkpt lat="46.17581" lon="2.46707">
        <ele>401</ele>
        <time>2015-04-08T15:21:41Z</time>
      </trkpt>
      <trkpt lat="46.17582" lon="2.4671">
        <ele>401</ele>
        <time>2015-04-08T15:21:43Z</time>
      </trkpt>
      <trkpt lat="46.17583" lon="2.46712">
        <ele>401</ele>
        <time>2015-04-08T15:21:45Z</time>
      </trkpt>
      <trkpt lat="46.17585" lon="2.46715">
        <ele>402</ele>
        <time>2015-04-08T15:21:47Z</time>
      </trkpt>
      <trkpt lat="46.17585" lon="2.46717">
        <ele>402</ele>
        <time>2015-04-08T15:21:49Z</time>
      </trkpt>
      <trkpt lat="46.17587" lon="2.46719">
        <ele>403</ele>
        <time>2015-04-08T15:21:51Z</time>
      </trkpt>
      <trkpt lat="46.17588" lon="2.4672">
        <ele>403</ele>
        <time>2015-04-08T15:21:53Z</time>
      </trkpt>
      <trkpt lat="46.1759" lon="2.46723">
        <ele>404</ele>
        <time>2015-04-08T15:21:55Z</time>
      </trkpt>
      <trkpt lat="46.17591" lon="2.46725">
        <ele>404</ele>
        <time>2015-04-08T15:21:57Z</time>
      </trkpt>
      <trkpt lat="46.17592" lon="2.46727">
        <ele>405</ele>
        <time>2015-04-08T15:21:59Z</time>
      </trkpt>
      <trkpt lat="46.17592" lon="2.46729">
        <ele>405</ele>
        <time>2015-04-08T15:22:01Z</time>
      </trkpt>
      <trkpt lat="46.17593" lon="2.46732">
        <ele>405</ele>
        <time>2015-04-08T15:22:03Z</time>
      </trkpt>
      <trkpt lat="46.17592" lon="2.46735">
        <ele>405</ele>
        <time>2015-04-08T15:22:05Z</time>
      </trkpt>
      <trkpt lat="46.17592" lon="2.46737">
        <ele>405</ele>
        <time>2015-04-08T15:22:07Z</time>
      </trkpt>
      <trkpt lat="46.17592" lon="2.46741">
        <ele>405</ele>
        <time>2015-04-08T15:22:10Z</time>
      </trkpt>
      <trkpt lat="46.17591" lon="2.46745">
        <ele>405</ele>
        <time>2015-04-08T15:22:12Z</time>
      </trkpt>
      <trkpt lat="46.1759" lon="2.46748">
        <ele>405</ele>
        <time>2015-04-08T15:22:15Z</time>
      </trkpt>
      <trkpt lat="46.1759" lon="2.46751">
        <ele>405</ele>
        <time>2015-04-08T15:22:17Z</time>
      </trkpt>
      <trkpt lat="46.1759" lon="2.46753">
        <ele>406</ele>
        <time>2015-04-08T15:22:19Z</time>
      </trkpt>
      <trkpt lat="46.1759" lon="2.46756">
        <ele>406</ele>
        <time>2015-04-08T15:22:21Z</time>
      </trkpt>
      <trkpt lat="46.1759" lon="2.46761">
        <ele>406</ele>
        <time>2015-04-08T15:22:24Z</time>
      </trkpt>
      <trkpt lat="46.17589" lon="2.46764">
        <ele>406</ele>
        <time>2015-04-08T15:22:26Z</time>
      </trkpt>
      <trkpt lat="46.17588" lon="2.46767">
        <ele>406</ele>
        <time>2015-04-08T15:22:28Z</time>
      </trkpt>
      <trkpt lat="46.17588" lon="2.46769">
        <ele>406</ele>
        <time>2015-04-08T15:22:30Z</time>
      </trkpt>
      <trkpt lat="46.17588" lon="2.46773">
        <ele>407</ele>
        <time>2015-04-08T15:22:33Z</time>
      </trkpt>
      <trkpt lat="46.17588" lon="2.46775">
        <ele>408</ele>
        <time>2015-04-08T15:22:35Z</time>
      </trkpt>
      <trkpt lat="46.17588" lon="2.46778">
        <ele>408</ele>
        <time>2015-04-08T15:22:37Z</time>
      </trkpt>
      <trkpt lat="46.17587" lon="2.46781">
        <ele>409</ele>
        <time>2015-04-08T15:22:39Z</time>
      </trkpt>
      <trkpt lat="46.17587" lon="2.46783">
        <ele>409</ele>
        <time>2015-04-08T15:22:41Z</time>
      </trkpt>
      <trkpt lat="46.17587" lon="2.46786">
        <ele>410</ele>
        <time>2015-04-08T15:22:43Z</time>
      </trkpt>
      <trkpt lat="46.17586" lon="2.4679">
        <ele>410</ele>
        <time>2015-04-08T15:22:45Z</time>
      </trkpt>
      <trkpt lat="46.17586" lon="2.46793">
        <ele>411</ele>
        <time>2015-04-08T15:22:47Z</time>
      </trkpt>
      <trkpt lat="46.17586" lon="2.46796">
        <ele>411</ele>
        <time>2015-04-08T15:22:49Z</time>
      </trkpt>
      <trkpt lat="46.17586" lon="2.468">
        <ele>412</ele>
        <time>2015-04-08T15:22:52Z</time>
      </trkpt>
      <trkpt lat="46.17585" lon="2.46803">
        <ele>412</ele>
        <time>2015-04-08T15:22:54Z</time>
      </trkpt>
      <trkpt lat="46.17585" lon="2.46807">
        <ele>412</ele>
        <time>2015-04-08T15:22:56Z</time>
      </trkpt>
      <trkpt lat="46.17585" lon="2.46809">
        <ele>413</ele>
        <time>2015-04-08T15:22:58Z</time>
      </trkpt>
      <trkpt lat="46.17584" lon="2.46813">
        <ele>413</ele>
        <time>2015-04-08T15:23:01Z</time>
      </trkpt>
      <trkpt lat="46.17584" lon="2.46815">
        <ele>413</ele>
        <time>2015-04-08T15:23:03Z</time>
      </trkpt>
      <trkpt lat="46.17584" lon="2.46819">
        <ele>413</ele>
        <time>2015-04-08T15:23:06Z</time>
      </trkpt>
      <trkpt lat="46.17583" lon="2.46822">
        <ele>413</ele>
        <time>2015-04-08T15:23:08Z</time>
      </trkpt>
      <trkpt lat="46.17583" lon="2.46825">
        <ele>414</ele>
        <time>2015-04-08T15:23:10Z</time>
      </trkpt>
      <trkpt lat="46.17583" lon="2.46829">
        <ele>415</ele>
        <time>2015-04-08T15:23:13Z</time>
      </trkpt>
      <trkpt lat="46.17583" lon="2.46831">
        <ele>415</ele>
        <time>2015-04-08T15:23:15Z</time>
      </trkpt>
      <trkpt lat="46.17583" lon="2.46834">
        <ele>416</ele>
        <time>2015-04-08T15:23:17Z</time>
      </trkpt>
      <trkpt lat="46.17583" lon="2.46837">
        <ele>416</ele>
        <time>2015-04-08T15:23:20Z</time>
      </trkpt>
      <trkpt lat="46.17583" lon="2.46839">
        <ele>417</ele>
        <time>2015-04-08T15:23:24Z</time>
      </trkpt>
      <trkpt lat="46.17585" lon="2.46841">
        <ele>419</ele>
        <time>2015-04-08T15:23:45Z</time>
      </trkpt>
      <trkpt lat="46.17585" lon="2.46843">
        <ele>419</ele>
        <time>2015-04-08T15:23:47Z</time>
      </trkpt>
      <trkpt lat="46.17584" lon="2.46846">
        <ele>419</ele>
        <time>2015-04-08T15:23:49Z</time>
      </trkpt>
      <trkpt lat="46.17584" lon="2.46848">
        <ele>419</ele>
        <time>2015-04-08T15:23:51Z</time>
      </trkpt>
      <trkpt lat="46.17584" lon="2.46851">
        <ele>420</ele>
        <time>2015-04-08T15:23:53Z</time>
      </trkpt>
      <trkpt lat="46.17584" lon="2.46855">
        <ele>420</ele>
        <time>2015-04-08T15:23:56Z</time>
      </trkpt>
      <trkpt lat="46.17584" lon="2.46859">
        <ele>421</ele>
        <time>2015-04-08T15:23:59Z</time>
      </trkpt>
      <trkpt lat="46.17584" lon="2.46862">
        <ele>421</ele>
        <time>2015-04-08T15:24:01Z</time>
      </trkpt>
      <trkpt lat="46.17584" lon="2.46865">
        <ele>422</ele>
        <time>2015-04-08T15:24:03Z</time>
      </trkpt>
      <trkpt lat="46.17584" lon="2.46867">
        <ele>422</ele>
        <time>2015-04-08T15:24:05Z</time>
      </trkpt>
      <trkpt lat="46.17584" lon="2.4687">
        <ele>423</ele>
        <time>2015-04-08T15:24:07Z</time>
      </trkpt>
      <trkpt lat="46.17584" lon="2.46872">
        <ele>423</ele>
        <time>2015-04-08T15:24:09Z</time>
      </trkpt>
      <trkpt lat="46.17584" lon="2.46875">
        <ele>423</ele>
        <time>2015-04-08T15:24:11Z</time>
      </trkpt>
      <trkpt lat="46.17584" lon="2.46878">
        <ele>424</ele>
        <time>2015-04-08T15:24:13Z</time>
      </trkpt>
      <trkpt lat="46.17584" lon="2.46882">
        <ele>424</ele>
        <time>2015-04-08T15:24:16Z</time>
      </trkpt>
      <trkpt lat="46.17584" lon="2.46884">
        <ele>425</ele>
        <time>2015-04-08T15:24:18Z</time>
      </trkpt>
      <trkpt lat="46.17584" lon="2.46888">
        <ele>425</ele>
        <time>2015-04-08T15:24:21Z</time>
      </trkpt>
      <trkpt lat="46.17584" lon="2.46891">
        <ele>426</ele>
        <time>2015-04-08T15:24:23Z</time>
      </trkpt>
      <trkpt lat="46.17584" lon="2.46894">
        <ele>426</ele>
        <time>2015-04-08T15:24:25Z</time>
      </trkpt>
      <trkpt lat="46.17584" lon="2.46897">
        <ele>427</ele>
        <time>2015-04-08T15:24:27Z</time>
      </trkpt>
      <trkpt lat="46.17584" lon="2.469">
        <ele>427</ele>
        <time>2015-04-08T15:24:29Z</time>
      </trkpt>
      <trkpt lat="46.17584" lon="2.46902">
        <ele>427</ele>
        <time>2015-04-08T15:24:31Z</time>
      </trkpt>
      <trkpt lat="46.17584" lon="2.46906">
        <ele>427</ele>
        <time>2015-04-08T15:24:34Z</time>
      </trkpt>
      <trkpt lat="46.17584" lon="2.46909">
        <ele>428</ele>
        <time>2015-04-08T15:24:36Z</time>
      </trkpt>
      <trkpt lat="46.17585" lon="2.46912">
        <ele>428</ele>
        <time>2015-04-08T15:24:38Z</time>
      </trkpt>
      <trkpt lat="46.17585" lon="2.46914">
        <ele>428</ele>
        <time>2015-04-08T15:24:40Z</time>
      </trkpt>
      <trkpt lat="46.17585" lon="2.46918">
        <ele>428</ele>
        <time>2015-04-08T15:24:43Z</time>
      </trkpt>
      <trkpt lat="46.17584" lon="2.46921">
        <ele>428</ele>
        <time>2015-04-08T15:24:45Z</time>
      </trkpt>
      <trkpt lat="46.17585" lon="2.46925">
        <ele>429</ele>
        <time>2015-04-08T15:24:48Z</time>
      </trkpt>
      <trkpt lat="46.17585" lon="2.46928">
        <ele>429</ele>
        <time>2015-04-08T15:24:50Z</time>
      </trkpt>
      <trkpt lat="46.17585" lon="2.46931">
        <ele>429</ele>
        <time>2015-04-08T15:24:52Z</time>
      </trkpt>
      <trkpt lat="46.17585" lon="2.46935">
        <ele>430</ele>
        <time>2015-04-08T15:24:54Z</time>
      </trkpt>
      <trkpt lat="46.17586" lon="2.46937">
        <ele>430</ele>
        <time>2015-04-08T15:24:56Z</time>
      </trkpt>
      <trkpt lat="46.17587" lon="2.46939">
        <ele>430</ele>
        <time>2015-04-08T15:25:00Z</time>
      </trkpt>
      <trkpt lat="46.17586" lon="2.4694">
        <ele>431</ele>
        <time>2015-04-08T15:25:18Z</time>
      </trkpt>
      <trkpt lat="46.17587" lon="2.46943">
        <ele>431</ele>
        <time>2015-04-08T15:25:20Z</time>
      </trkpt>
      <trkpt lat="46.17588" lon="2.46947">
        <ele>431</ele>
        <time>2015-04-08T15:25:22Z</time>
      </trkpt>
      <trkpt lat="46.17588" lon="2.46951">
        <ele>431</ele>
        <time>2015-04-08T15:25:24Z</time>
      </trkpt>
      <trkpt lat="46.17588" lon="2.46954">
        <ele>431</ele>
        <time>2015-04-08T15:25:26Z</time>
      </trkpt>
      <trkpt lat="46.17588" lon="2.46958">
        <ele>431</ele>
        <time>2015-04-08T15:25:28Z</time>
      </trkpt>
      <trkpt lat="46.17588" lon="2.46961">
        <ele>432</ele>
        <time>2015-04-08T15:25:30Z</time>
      </trkpt>
      <trkpt lat="46.17589" lon="2.46965">
        <ele>432</ele>
        <time>2015-04-08T15:25:32Z</time>
      </trkpt>
      <trkpt lat="46.1759" lon="2.46968">
        <ele>432</ele>
        <time>2015-04-08T15:25:34Z</time>
      </trkpt>
      <trkpt lat="46.1759" lon="2.46972">
        <ele>433</ele>
        <time>2015-04-08T15:25:36Z</time>
      </trkpt>
      <trkpt lat="46.1759" lon="2.46975">
        <ele>433</ele>
        <time>2015-04-08T15:25:38Z</time>
      </trkpt>
      <trkpt lat="46.17591" lon="2.46979">
        <ele>433</ele>
        <time>2015-04-08T15:25:40Z</time>
      </trkpt>
      <trkpt lat="46.17591" lon="2.46982">
        <ele>433</ele>
        <time>2015-04-08T15:25:42Z</time>
      </trkpt>
      <trkpt lat="46.17592" lon="2.46985">
        <ele>434</ele>
        <time>2015-04-08T15:25:44Z</time>
      </trkpt>
      <trkpt lat="46.17592" lon="2.46989">
        <ele>434</ele>
        <time>2015-04-08T15:25:46Z</time>
      </trkpt>
      <trkpt lat="46.17593" lon="2.46992">
        <ele>434</ele>
        <time>2015-04-08T15:25:48Z</time>
      </trkpt>
      <trkpt lat="46.17593" lon="2.46995">
        <ele>434</ele>
        <time>2015-04-08T15:25:50Z</time>
      </trkpt>
      <trkpt lat="46.17593" lon="2.46999">
        <ele>434</ele>
        <time>2015-04-08T15:25:52Z</time>
      </trkpt>
      <trkpt lat="46.17593" lon="2.47003">
        <ele>435</ele>
        <time>2015-04-08T15:25:54Z</time>
      </trkpt>
      <trkpt lat="46.17593" lon="2.47006">
        <ele>435</ele>
        <time>2015-04-08T15:25:56Z</time>
      </trkpt>
      <trkpt lat="46.17593" lon="2.4701">
        <ele>435</ele>
        <time>2015-04-08T15:25:58Z</time>
      </trkpt>
      <trkpt lat="46.17593" lon="2.47013">
        <ele>435</ele>
        <time>2015-04-08T15:26:00Z</time>
      </trkpt>
      <trkpt lat="46.17593" lon="2.47017">
        <ele>435</ele>
        <time>2015-04-08T15:26:02Z</time>
      </trkpt>
      <trkpt lat="46.17593" lon="2.47021">
        <ele>435</ele>
        <time>2015-04-08T15:26:04Z</time>
      </trkpt>
      <trkpt lat="46.17594" lon="2.47024">
        <ele>435</ele>
        <time>2015-04-08T15:26:06Z</time>
      </trkpt>
      <trkpt lat="46.17594" lon="2.47028">
        <ele>435</ele>
        <time>2015-04-08T15:26:08Z</time>
      </trkpt>
      <trkpt lat="46.17594" lon="2.47031">
        <ele>435</ele>
        <time>2015-04-08T15:26:10Z</time>
      </trkpt>
      <trkpt lat="46.17594" lon="2.47035">
        <ele>435</ele>
        <time>2015-04-08T15:26:12Z</time>
      </trkpt>
      <trkpt lat="46.17594" lon="2.47038">
        <ele>435</ele>
        <time>2015-04-08T15:26:14Z</time>
      </trkpt>
      <trkpt lat="46.17595" lon="2.47042">
        <ele>435</ele>
        <time>2015-04-08T15:26:16Z</time>
      </trkpt>
      <trkpt lat="46.17595" lon="2.47045">
        <ele>435</ele>
        <time>2015-04-08T15:26:18Z</time>
      </trkpt>
      <trkpt lat="46.17595" lon="2.47048">
        <ele>435</ele>
        <time>2015-04-08T15:26:20Z</time>
      </trkpt>
      <trkpt lat="46.17595" lon="2.47051">
        <ele>435</ele>
        <time>2015-04-08T15:26:22Z</time>
      </trkpt>
      <trkpt lat="46.17595" lon="2.47054">
        <ele>435</ele>
        <time>2015-04-08T15:26:24Z</time>
      </trkpt>
      <trkpt lat="46.17595" lon="2.47058">
        <ele>435</ele>
        <time>2015-04-08T15:26:26Z</time>
      </trkpt>
      <trkpt lat="46.17595" lon="2.47061">
        <ele>435</ele>
        <time>2015-04-08T15:26:28Z</time>
      </trkpt>
      <trkpt lat="46.17595" lon="2.47065">
        <ele>435</ele>
        <time>2015-04-08T15:26:30Z</time>
      </trkpt>
      <trkpt lat="46.17595" lon="2.47069">
        <ele>435</ele>
        <time>2015-04-08T15:26:32Z</time>
      </trkpt>
      <trkpt lat="46.17595" lon="2.47072">
        <ele>436</ele>
        <time>2015-04-08T15:26:34Z</time>
      </trkpt>
      <trkpt lat="46.17595" lon="2.47076">
        <ele>436</ele>
        <time>2015-04-08T15:26:36Z</time>
      </trkpt>
      <trkpt lat="46.17596" lon="2.4708">
        <ele>436</ele>
        <time>2015-04-08T15:26:38Z</time>
      </trkpt>
      <trkpt lat="46.17596" lon="2.47083">
        <ele>436</ele>
        <time>2015-04-08T15:26:40Z</time>
      </trkpt>
      <trkpt lat="46.17596" lon="2.47086">
        <ele>436</ele>
        <time>2015-04-08T15:26:42Z</time>
      </trkpt>
      <trkpt lat="46.17596" lon="2.4709">
        <ele>436</ele>
        <time>2015-04-08T15:26:44Z</time>
      </trkpt>
      <trkpt lat="46.17596" lon="2.47094">
        <ele>436</ele>
        <time>2015-04-08T15:26:46Z</time>
      </trkpt>
      <trkpt lat="46.17596" lon="2.47097">
        <ele>436</ele>
        <time>2015-04-08T15:26:48Z</time>
      </trkpt>
      <trkpt lat="46.17596" lon="2.47101">
        <ele>436</ele>
        <time>2015-04-08T15:26:50Z</time>
      </trkpt>
      <trkpt lat="46.17596" lon="2.47106">
        <ele>436</ele>
        <time>2015-04-08T15:26:52Z</time>
      </trkpt>
      <trkpt lat="46.17596" lon="2.4711">
        <ele>436</ele>
        <time>2015-04-08T15:26:54Z</time>
      </trkpt>
      <trkpt lat="46.17596" lon="2.47113">
        <ele>437</ele>
        <time>2015-04-08T15:26:56Z</time>
      </trkpt>
      <trkpt lat="46.17596" lon="2.47117">
        <ele>437</ele>
        <time>2015-04-08T15:26:58Z</time>
      </trkpt>
      <trkpt lat="46.17596" lon="2.47121">
        <ele>437</ele>
        <time>2015-04-08T15:27:00Z</time>
      </trkpt>
      <trkpt lat="46.17596" lon="2.47125">
        <ele>437</ele>
        <time>2015-04-08T15:27:02Z</time>
      </trkpt>
      <trkpt lat="46.17596" lon="2.47129">
        <ele>437</ele>
        <time>2015-04-08T15:27:04Z</time>
      </trkpt>
      <trkpt lat="46.17596" lon="2.47133">
        <ele>437</ele>
        <time>2015-04-08T15:27:06Z</time>
      </trkpt>
      <trkpt lat="46.17597" lon="2.47136">
        <ele>437</ele>
        <time>2015-04-08T15:27:08Z</time>
      </trkpt>
      <trkpt lat="46.17597" lon="2.4714">
        <ele>438</ele>
        <time>2015-04-08T15:27:10Z</time>
      </trkpt>
      <trkpt lat="46.17597" lon="2.47144">
        <ele>438</ele>
        <time>2015-04-08T15:27:12Z</time>
      </trkpt>
      <trkpt lat="46.17598" lon="2.47145">
        <ele>438</ele>
        <time>2015-04-08T15:27:14Z</time>
      </trkpt>
      <trkpt lat="46.17598" lon="2.47148">
        <ele>438</ele>
        <time>2015-04-08T15:27:16Z</time>
      </trkpt>
      <trkpt lat="46.17598" lon="2.47152">
        <ele>438</ele>
        <time>2015-04-08T15:27:18Z</time>
      </trkpt>
      <trkpt lat="46.17598" lon="2.47157">
        <ele>438</ele>
        <time>2015-04-08T15:27:20Z</time>
      </trkpt>
      <trkpt lat="46.17598" lon="2.4716">
        <ele>438</ele>
        <time>2015-04-08T15:27:22Z</time>
      </trkpt>
      <trkpt lat="46.17598" lon="2.47164">
        <ele>439</ele>
        <time>2015-04-08T15:27:24Z</time>
      </trkpt>
      <trkpt lat="46.17599" lon="2.47168">
        <ele>439</ele>
        <time>2015-04-08T15:27:26Z</time>
      </trkpt>
      <trkpt lat="46.17599" lon="2.47172">
        <ele>439</ele>
        <time>2015-04-08T15:27:28Z</time>
      </trkpt>
      <trkpt lat="46.17599" lon="2.47176">
        <ele>439</ele>
        <time>2015-04-08T15:27:30Z</time>
      </trkpt>
      <trkpt lat="46.176" lon="2.4718">
        <ele>439</ele>
        <time>2015-04-08T15:27:32Z</time>
      </trkpt>
      <trkpt lat="46.176" lon="2.47184">
        <ele>439</ele>
        <time>2015-04-08T15:27:34Z</time>
      </trkpt>
      <trkpt lat="46.17601" lon="2.47188">
        <ele>440</ele>
        <time>2015-04-08T15:27:36Z</time>
      </trkpt>
      <trkpt lat="46.17601" lon="2.47191">
        <ele>440</ele>
        <time>2015-04-08T15:27:38Z</time>
      </trkpt>
      <trkpt lat="46.17602" lon="2.47195">
        <ele>440</ele>
        <time>2015-04-08T15:27:40Z</time>
      </trkpt>
      <trkpt lat="46.17602" lon="2.47198">
        <ele>440</ele>
        <time>2015-04-08T15:27:42Z</time>
      </trkpt>
      <trkpt lat="46.17603" lon="2.47202">
        <ele>440</ele>
        <time>2015-04-08T15:27:44Z</time>
      </trkpt>
      <trkpt lat="46.17604" lon="2.47207">
        <ele>441</ele>
        <time>2015-04-08T15:27:47Z</time>
      </trkpt>
      <trkpt lat="46.17604" lon="2.4721">
        <ele>441</ele>
        <time>2015-04-08T15:27:49Z</time>
      </trkpt>
      <trkpt lat="46.17605" lon="2.47214">
        <ele>441</ele>
        <time>2015-04-08T15:27:51Z</time>
      </trkpt>
      <trkpt lat="46.17606" lon="2.47217">
        <ele>441</ele>
        <time>2015-04-08T15:27:53Z</time>
      </trkpt>
      <trkpt lat="46.17607" lon="2.4722">
        <ele>441</ele>
        <time>2015-04-08T15:27:55Z</time>
      </trkpt>
      <trkpt lat="46.17608" lon="2.47223">
        <ele>441</ele>
        <time>2015-04-08T15:27:57Z</time>
      </trkpt>
      <trkpt lat="46.17609" lon="2.47227">
        <ele>441</ele>
        <time>2015-04-08T15:27:59Z</time>
      </trkpt>
      <trkpt lat="46.17609" lon="2.4723">
        <ele>441</ele>
        <time>2015-04-08T15:28:01Z</time>
      </trkpt>
      <trkpt lat="46.1761" lon="2.47233">
        <ele>441</ele>
        <time>2015-04-08T15:28:03Z</time>
      </trkpt>
      <trkpt lat="46.17611" lon="2.47236">
        <ele>441</ele>
        <time>2015-04-08T15:28:05Z</time>
      </trkpt>
      <trkpt lat="46.17612" lon="2.4724">
        <ele>441</ele>
        <time>2015-04-08T15:28:07Z</time>
      </trkpt>
      <trkpt lat="46.17612" lon="2.47243">
        <ele>441</ele>
        <time>2015-04-08T15:28:09Z</time>
      </trkpt>
      <trkpt lat="46.17613" lon="2.47246">
        <ele>441</ele>
        <time>2015-04-08T15:28:11Z</time>
      </trkpt>
      <trkpt lat="46.17614" lon="2.47249">
        <ele>441</ele>
        <time>2015-04-08T15:28:13Z</time>
      </trkpt>
      <trkpt lat="46.17615" lon="2.47252">
        <ele>441</ele>
        <time>2015-04-08T15:28:15Z</time>
      </trkpt>
      <trkpt lat="46.17616" lon="2.47255">
        <ele>441</ele>
        <time>2015-04-08T15:28:17Z</time>
      </trkpt>
      <trkpt lat="46.17617" lon="2.47259">
        <ele>441</ele>
        <time>2015-04-08T15:28:19Z</time>
      </trkpt>
      <trkpt lat="46.17617" lon="2.47262">
        <ele>441</ele>
        <time>2015-04-08T15:28:21Z</time>
      </trkpt>
      <trkpt lat="46.17618" lon="2.47265">
        <ele>441</ele>
        <time>2015-04-08T15:28:23Z</time>
      </trkpt>
      <trkpt lat="46.17619" lon="2.47269">
        <ele>441</ele>
        <time>2015-04-08T15:28:25Z</time>
      </trkpt>
      <trkpt lat="46.1762" lon="2.47272">
        <ele>441</ele>
        <time>2015-04-08T15:28:27Z</time>
      </trkpt>
      <trkpt lat="46.1762" lon="2.47275">
        <ele>441</ele>
        <time>2015-04-08T15:28:29Z</time>
      </trkpt>
      <trkpt lat="46.17622" lon="2.47278">
        <ele>441</ele>
        <time>2015-04-08T15:28:31Z</time>
      </trkpt>
      <trkpt lat="46.17623" lon="2.47281">
        <ele>441</ele>
        <time>2015-04-08T15:28:33Z</time>
      </trkpt>
      <trkpt lat="46.17624" lon="2.47284">
        <ele>441</ele>
        <time>2015-04-08T15:28:35Z</time>
      </trkpt>
      <trkpt lat="46.17625" lon="2.47287">
        <ele>441</ele>
        <time>2015-04-08T15:28:37Z</time>
      </trkpt>
      <trkpt lat="46.17626" lon="2.4729">
        <ele>441</ele>
        <time>2015-04-08T15:28:39Z</time>
      </trkpt>
      <trkpt lat="46.17627" lon="2.47293">
        <ele>441</ele>
        <time>2015-04-08T15:28:41Z</time>
      </trkpt>
      <trkpt lat="46.17627" lon="2.47297">
        <ele>441</ele>
        <time>2015-04-08T15:28:43Z</time>
      </trkpt>
      <trkpt lat="46.17628" lon="2.473">
        <ele>441</ele>
        <time>2015-04-08T15:28:45Z</time>
      </trkpt>
      <trkpt lat="46.17629" lon="2.47304">
        <ele>441</ele>
        <time>2015-04-08T15:28:47Z</time>
      </trkpt>
      <trkpt lat="46.17629" lon="2.47307">
        <ele>441</ele>
        <time>2015-04-08T15:28:49Z</time>
      </trkpt>
      <trkpt lat="46.1763" lon="2.47311">
        <ele>441</ele>
        <time>2015-04-08T15:28:51Z</time>
      </trkpt>
      <trkpt lat="46.17631" lon="2.47315">
        <ele>441</ele>
        <time>2015-04-08T15:28:53Z</time>
      </trkpt>
      <trkpt lat="46.17633" lon="2.47318">
        <ele>441</ele>
        <time>2015-04-08T15:28:55Z</time>
      </trkpt>
      <trkpt lat="46.17634" lon="2.47322">
        <ele>441</ele>
        <time>2015-04-08T15:28:57Z</time>
      </trkpt>
      <trkpt lat="46.17635" lon="2.47325">
        <ele>441</ele>
        <time>2015-04-08T15:28:59Z</time>
      </trkpt>
      <trkpt lat="46.17635" lon="2.47329">
        <ele>441</ele>
        <time>2015-04-08T15:29:01Z</time>
      </trkpt>
      <trkpt lat="46.17636" lon="2.47333">
        <ele>441</ele>
        <time>2015-04-08T15:29:03Z</time>
      </trkpt>
      <trkpt lat="46.17637" lon="2.47337">
        <ele>441</ele>
        <time>2015-04-08T15:29:05Z</time>
      </trkpt>
      <trkpt lat="46.17638" lon="2.47341">
        <ele>441</ele>
        <time>2015-04-08T15:29:07Z</time>
      </trkpt>
      <trkpt lat="46.17638" lon="2.47344">
        <ele>441</ele>
        <time>2015-04-08T15:29:09Z</time>
      </trkpt>
      <trkpt lat="46.17639" lon="2.47348">
        <ele>441</ele>
        <time>2015-04-08T15:29:11Z</time>
      </trkpt>
      <trkpt lat="46.1764" lon="2.47352">
        <ele>441</ele>
        <time>2015-04-08T15:29:13Z</time>
      </trkpt>
      <trkpt lat="46.17641" lon="2.47356">
        <ele>441</ele>
        <time>2015-04-08T15:29:15Z</time>
      </trkpt>
      <trkpt lat="46.17642" lon="2.4736">
        <ele>441</ele>
        <time>2015-04-08T15:29:17Z</time>
      </trkpt>
      <trkpt lat="46.17643" lon="2.47364">
        <ele>441</ele>
        <time>2015-04-08T15:29:19Z</time>
      </trkpt>
      <trkpt lat="46.17644" lon="2.47367">
        <ele>441</ele>
        <time>2015-04-08T15:29:21Z</time>
      </trkpt>
      <trkpt lat="46.17645" lon="2.47371">
        <ele>441</ele>
        <time>2015-04-08T15:29:23Z</time>
      </trkpt>
      <trkpt lat="46.17646" lon="2.47375">
        <ele>441</ele>
        <time>2015-04-08T15:29:25Z</time>
      </trkpt>
      <trkpt lat="46.17646" lon="2.47379">
        <ele>441</ele>
        <time>2015-04-08T15:29:27Z</time>
      </trkpt>
      <trkpt lat="46.17647" lon="2.47383">
        <ele>441</ele>
        <time>2015-04-08T15:29:29Z</time>
      </trkpt>
      <trkpt lat="46.17648" lon="2.47387">
        <ele>441</ele>
        <time>2015-04-08T15:29:31Z</time>
      </trkpt>
      <trkpt lat="46.17649" lon="2.47391">
        <ele>441</ele>
        <time>2015-04-08T15:29:33Z</time>
      </trkpt>
      <trkpt lat="46.17649" lon="2.47395">
        <ele>441</ele>
        <time>2015-04-08T15:29:35Z</time>
      </trkpt>
      <trkpt lat="46.17649" lon="2.47399">
        <ele>442</ele>
        <time>2015-04-08T15:29:37Z</time>
      </trkpt>
      <trkpt lat="46.17649" lon="2.47403">
        <ele>442</ele>
        <time>2015-04-08T15:29:39Z</time>
      </trkpt>
      <trkpt lat="46.1765" lon="2.47407">
        <ele>442</ele>
        <time>2015-04-08T15:29:41Z</time>
      </trkpt>
      <trkpt lat="46.17651" lon="2.4741">
        <ele>442</ele>
        <time>2015-04-08T15:29:43Z</time>
      </trkpt>
      <trkpt lat="46.17651" lon="2.47414">
        <ele>442</ele>
        <time>2015-04-08T15:29:45Z</time>
      </trkpt>
      <trkpt lat="46.17652" lon="2.47418">
        <ele>442</ele>
        <time>2015-04-08T15:29:47Z</time>
      </trkpt>
      <trkpt lat="46.17653" lon="2.47423">
        <ele>442</ele>
        <time>2015-04-08T15:29:49Z</time>
      </trkpt>
      <trkpt lat="46.17654" lon="2.47427">
        <ele>442</ele>
        <time>2015-04-08T15:29:51Z</time>
      </trkpt>
      <trkpt lat="46.17656" lon="2.4743">
        <ele>442</ele>
        <time>2015-04-08T15:29:53Z</time>
      </trkpt>
      <trkpt lat="46.17657" lon="2.47434">
        <ele>442</ele>
        <time>2015-04-08T15:29:55Z</time>
      </trkpt>
      <trkpt lat="46.17659" lon="2.47438">
        <ele>442</ele>
        <time>2015-04-08T15:29:57Z</time>
      </trkpt>
      <trkpt lat="46.1766" lon="2.47441">
        <ele>442</ele>
        <time>2015-04-08T15:29:59Z</time>
      </trkpt>
      <trkpt lat="46.17662" lon="2.47446">
        <ele>442</ele>
        <time>2015-04-08T15:30:02Z</time>
      </trkpt>
      <trkpt lat="46.17664" lon="2.47449">
        <ele>442</ele>
        <time>2015-04-08T15:30:04Z</time>
      </trkpt>
      <trkpt lat="46.17665" lon="2.47452">
        <ele>442</ele>
        <time>2015-04-08T15:30:06Z</time>
      </trkpt>
      <trkpt lat="46.17667" lon="2.47456">
        <ele>442</ele>
        <time>2015-04-08T15:30:08Z</time>
      </trkpt>
      <trkpt lat="46.17668" lon="2.47459">
        <ele>442</ele>
        <time>2015-04-08T15:30:10Z</time>
      </trkpt>
      <trkpt lat="46.1767" lon="2.47463">
        <ele>442</ele>
        <time>2015-04-08T15:30:12Z</time>
      </trkpt>
      <trkpt lat="46.17671" lon="2.47466">
        <ele>442</ele>
        <time>2015-04-08T15:30:14Z</time>
      </trkpt>
      <trkpt lat="46.17673" lon="2.4747">
        <ele>442</ele>
        <time>2015-04-08T15:30:16Z</time>
      </trkpt>
      <trkpt lat="46.17674" lon="2.47473">
        <ele>442</ele>
        <time>2015-04-08T15:30:18Z</time>
      </trkpt>
      <trkpt lat="46.17675" lon="2.47477">
        <ele>442</ele>
        <time>2015-04-08T15:30:20Z</time>
      </trkpt>
      <trkpt lat="46.17677" lon="2.4748">
        <ele>442</ele>
        <time>2015-04-08T15:30:22Z</time>
      </trkpt>
      <trkpt lat="46.17678" lon="2.47483">
        <ele>442</ele>
        <time>2015-04-08T15:30:24Z</time>
      </trkpt>
      <trkpt lat="46.1768" lon="2.47487">
        <ele>442</ele>
        <time>2015-04-08T15:30:26Z</time>
      </trkpt>
      <trkpt lat="46.17681" lon="2.47491">
        <ele>442</ele>
        <time>2015-04-08T15:30:28Z</time>
      </trkpt>
      <trkpt lat="46.17682" lon="2.47494">
        <ele>442</ele>
        <time>2015-04-08T15:30:30Z</time>
      </trkpt>
      <trkpt lat="46.17683" lon="2.47498">
        <ele>442</ele>
        <time>2015-04-08T15:30:32Z</time>
      </trkpt>
      <trkpt lat="46.17684" lon="2.47502">
        <ele>442</ele>
        <time>2015-04-08T15:30:34Z</time>
      </trkpt>
      <trkpt lat="46.17685" lon="2.47505">
        <ele>442</ele>
        <time>2015-04-08T15:30:36Z</time>
      </trkpt>
      <trkpt lat="46.17686" lon="2.47509">
        <ele>442</ele>
        <time>2015-04-08T15:30:38Z</time>
      </trkpt>
      <trkpt lat="46.17688" lon="2.47513">
        <ele>442</ele>
        <time>2015-04-08T15:30:40Z</time>
      </trkpt>
      <trkpt lat="46.17689" lon="2.47517">
        <ele>442</ele>
        <time>2015-04-08T15:30:42Z</time>
      </trkpt>
      <trkpt lat="46.1769" lon="2.4752">
        <ele>442</ele>
        <time>2015-04-08T15:30:44Z</time>
      </trkpt>
      <trkpt lat="46.17691" lon="2.47524">
        <ele>443</ele>
        <time>2015-04-08T15:30:46Z</time>
      </trkpt>
      <trkpt lat="46.17692" lon="2.47528">
        <ele>443</ele>
        <time>2015-04-08T15:30:48Z</time>
      </trkpt>
      <trkpt lat="46.17693" lon="2.47531">
        <ele>443</ele>
        <time>2015-04-08T15:30:50Z</time>
      </trkpt>
      <trkpt lat="46.17695" lon="2.47534">
        <ele>443</ele>
        <time>2015-04-08T15:30:52Z</time>
      </trkpt>
      <trkpt lat="46.17696" lon="2.47538">
        <ele>443</ele>
        <time>2015-04-08T15:30:54Z</time>
      </trkpt>
      <trkpt lat="46.17697" lon="2.47541">
        <ele>444</ele>
        <time>2015-04-08T15:30:56Z</time>
      </trkpt>
      <trkpt lat="46.17698" lon="2.47545">
        <ele>444</ele>
        <time>2015-04-08T15:30:58Z</time>
      </trkpt>
      <trkpt lat="46.17699" lon="2.47549">
        <ele>444</ele>
        <time>2015-04-08T15:31:00Z</time>
      </trkpt>
      <trkpt lat="46.177" lon="2.47553">
        <ele>444</ele>
        <time>2015-04-08T15:31:02Z</time>
      </trkpt>
      <trkpt lat="46.17701" lon="2.47557">
        <ele>444</ele>
        <time>2015-04-08T15:31:04Z</time>
      </trkpt>
      <trkpt lat="46.17701" lon="2.4756">
        <ele>444</ele>
        <time>2015-04-08T15:31:06Z</time>
      </trkpt>
      <trkpt lat="46.17702" lon="2.47564">
        <ele>444</ele>
        <time>2015-04-08T15:31:08Z</time>
      </trkpt>
      <trkpt lat="46.17703" lon="2.47568">
        <ele>444</ele>
        <time>2015-04-08T15:31:10Z</time>
      </trkpt>
      <trkpt lat="46.17704" lon="2.47571">
        <ele>444</ele>
        <time>2015-04-08T15:31:12Z</time>
      </trkpt>
      <trkpt lat="46.17704" lon="2.47575">
        <ele>445</ele>
        <time>2015-04-08T15:31:14Z</time>
      </trkpt>
      <trkpt lat="46.17705" lon="2.47579">
        <ele>445</ele>
        <time>2015-04-08T15:31:16Z</time>
      </trkpt>
      <trkpt lat="46.17706" lon="2.47583">
        <ele>445</ele>
        <time>2015-04-08T15:31:18Z</time>
      </trkpt>
      <trkpt lat="46.17707" lon="2.47586">
        <ele>445</ele>
        <time>2015-04-08T15:31:20Z</time>
      </trkpt>
      <trkpt lat="46.17707" lon="2.4759">
        <ele>445</ele>
        <time>2015-04-08T15:31:22Z</time>
      </trkpt>
      <trkpt lat="46.17709" lon="2.47594">
        <ele>445</ele>
        <time>2015-04-08T15:31:24Z</time>
      </trkpt>
      <trkpt lat="46.17709" lon="2.47598">
        <ele>445</ele>
        <time>2015-04-08T15:31:26Z</time>
      </trkpt>
      <trkpt lat="46.1771" lon="2.47602">
        <ele>445</ele>
        <time>2015-04-08T15:31:28Z</time>
      </trkpt>
      <trkpt lat="46.1771" lon="2.47606">
        <ele>446</ele>
        <time>2015-04-08T15:31:30Z</time>
      </trkpt>
      <trkpt lat="46.17711" lon="2.4761">
        <ele>446</ele>
        <time>2015-04-08T15:31:32Z</time>
      </trkpt>
      <trkpt lat="46.17712" lon="2.47614">
        <ele>446</ele>
        <time>2015-04-08T15:31:34Z</time>
      </trkpt>
      <trkpt lat="46.17713" lon="2.47618">
        <ele>446</ele>
        <time>2015-04-08T15:31:36Z</time>
      </trkpt>
      <trkpt lat="46.17714" lon="2.47622">
        <ele>446</ele>
        <time>2015-04-08T15:31:38Z</time>
      </trkpt>
      <trkpt lat="46.17714" lon="2.47626">
        <ele>447</ele>
        <time>2015-04-08T15:31:40Z</time>
      </trkpt>
      <trkpt lat="46.17715" lon="2.4763">
        <ele>447</ele>
        <time>2015-04-08T15:31:42Z</time>
      </trkpt>
      <trkpt lat="46.17716" lon="2.47634">
        <ele>447</ele>
        <time>2015-04-08T15:31:44Z</time>
      </trkpt>
      <trkpt lat="46.17717" lon="2.47638">
        <ele>447</ele>
        <time>2015-04-08T15:31:46Z</time>
      </trkpt>
      <trkpt lat="46.17717" lon="2.47642">
        <ele>447</ele>
        <time>2015-04-08T15:31:48Z</time>
      </trkpt>
      <trkpt lat="46.17718" lon="2.47646">
        <ele>447</ele>
        <time>2015-04-08T15:31:50Z</time>
      </trkpt>
      <trkpt lat="46.17719" lon="2.47651">
        <ele>448</ele>
        <time>2015-04-08T15:31:52Z</time>
      </trkpt>
      <trkpt lat="46.1772" lon="2.47655">
        <ele>448</ele>
        <time>2015-04-08T15:31:54Z</time>
      </trkpt>
      <trkpt lat="46.1772" lon="2.47658">
        <ele>448</ele>
        <time>2015-04-08T15:31:56Z</time>
      </trkpt>
      <trkpt lat="46.17721" lon="2.47662">
        <ele>448</ele>
        <time>2015-04-08T15:31:58Z</time>
      </trkpt>
      <trkpt lat="46.17722" lon="2.47666">
        <ele>448</ele>
        <time>2015-04-08T15:32:00Z</time>
      </trkpt>
      <trkpt lat="46.17723" lon="2.47671">
        <ele>448</ele>
        <time>2015-04-08T15:32:02Z</time>
      </trkpt>
      <trkpt lat="46.17723" lon="2.47675">
        <ele>448</ele>
        <time>2015-04-08T15:32:04Z</time>
      </trkpt>
      <trkpt lat="46.17724" lon="2.47679">
        <ele>448</ele>
        <time>2015-04-08T15:32:06Z</time>
      </trkpt>
      <trkpt lat="46.17725" lon="2.47683">
        <ele>448</ele>
        <time>2015-04-08T15:32:08Z</time>
      </trkpt>
      <trkpt lat="46.17725" lon="2.47688">
        <ele>448</ele>
        <time>2015-04-08T15:32:10Z</time>
      </trkpt>
      <trkpt lat="46.17726" lon="2.47692">
        <ele>448</ele>
        <time>2015-04-08T15:32:12Z</time>
      </trkpt>
      <trkpt lat="46.17726" lon="2.47696">
        <ele>448</ele>
        <time>2015-04-08T15:32:14Z</time>
      </trkpt>
      <trkpt lat="46.17727" lon="2.47701">
        <ele>449</ele>
        <time>2015-04-08T15:32:16Z</time>
      </trkpt>
      <trkpt lat="46.17727" lon="2.47705">
        <ele>449</ele>
        <time>2015-04-08T15:32:18Z</time>
      </trkpt>
      <trkpt lat="46.17728" lon="2.4771">
        <ele>449</ele>
        <time>2015-04-08T15:32:20Z</time>
      </trkpt>
      <trkpt lat="46.17729" lon="2.47714">
        <ele>449</ele>
        <time>2015-04-08T15:32:22Z</time>
      </trkpt>
      <trkpt lat="46.17729" lon="2.47719">
        <ele>449</ele>
        <time>2015-04-08T15:32:24Z</time>
      </trkpt>
      <trkpt lat="46.1773" lon="2.47723">
        <ele>449</ele>
        <time>2015-04-08T15:32:26Z</time>
      </trkpt>
      <trkpt lat="46.1773" lon="2.47728">
        <ele>449</ele>
        <time>2015-04-08T15:32:28Z</time>
      </trkpt>
      <trkpt lat="46.1773" lon="2.47733">
        <ele>449</ele>
        <time>2015-04-08T15:32:30Z</time>
      </trkpt>
      <trkpt lat="46.17731" lon="2.47738">
        <ele>449</ele>
        <time>2015-04-08T15:32:32Z</time>
      </trkpt>
      <trkpt lat="46.17732" lon="2.47742">
        <ele>449</ele>
        <time>2015-04-08T15:32:34Z</time>
      </trkpt>
      <trkpt lat="46.17732" lon="2.47745">
        <ele>449</ele>
        <time>2015-04-08T15:32:36Z</time>
      </trkpt>
      <trkpt lat="46.17733" lon="2.4775">
        <ele>449</ele>
        <time>2015-04-08T15:32:38Z</time>
      </trkpt>
      <trkpt lat="46.17733" lon="2.47754">
        <ele>449</ele>
        <time>2015-04-08T15:32:40Z</time>
      </trkpt>
      <trkpt lat="46.17734" lon="2.47758">
        <ele>449</ele>
        <time>2015-04-08T15:32:42Z</time>
      </trkpt>
      <trkpt lat="46.17734" lon="2.47762">
        <ele>449</ele>
        <time>2015-04-08T15:32:44Z</time>
      </trkpt>
      <trkpt lat="46.17735" lon="2.47766">
        <ele>449</ele>
        <time>2015-04-08T15:32:46Z</time>
      </trkpt>
      <trkpt lat="46.17735" lon="2.47771">
        <ele>449</ele>
        <time>2015-04-08T15:32:48Z</time>
      </trkpt>
      <trkpt lat="46.17735" lon="2.47775">
        <ele>449</ele>
        <time>2015-04-08T15:32:50Z</time>
      </trkpt>
      <trkpt lat="46.17736" lon="2.47779">
        <ele>450</ele>
        <time>2015-04-08T15:32:52Z</time>
      </trkpt>
      <trkpt lat="46.17736" lon="2.47783">
        <ele>450</ele>
        <time>2015-04-08T15:32:54Z</time>
      </trkpt>
      <trkpt lat="46.17736" lon="2.47788">
        <ele>450</ele>
        <time>2015-04-08T15:32:56Z</time>
      </trkpt>
      <trkpt lat="46.17737" lon="2.47791">
        <ele>450</ele>
        <time>2015-04-08T15:32:58Z</time>
      </trkpt>
      <trkpt lat="46.17738" lon="2.47795">
        <ele>450</ele>
        <time>2015-04-08T15:33:00Z</time>
      </trkpt>
      <trkpt lat="46.17738" lon="2.47799">
        <ele>450</ele>
        <time>2015-04-08T15:33:02Z</time>
      </trkpt>
      <trkpt lat="46.17738" lon="2.47804">
        <ele>450</ele>
        <time>2015-04-08T15:33:04Z</time>
      </trkpt>
      <trkpt lat="46.17738" lon="2.47808">
        <ele>450</ele>
        <time>2015-04-08T15:33:06Z</time>
      </trkpt>
      <trkpt lat="46.17738" lon="2.47811">
        <ele>450</ele>
        <time>2015-04-08T15:33:08Z</time>
      </trkpt>
      <trkpt lat="46.17738" lon="2.47815">
        <ele>450</ele>
        <time>2015-04-08T15:33:10Z</time>
      </trkpt>
      <trkpt lat="46.17739" lon="2.47819">
        <ele>450</ele>
        <time>2015-04-08T15:33:12Z</time>
      </trkpt>
      <trkpt lat="46.17739" lon="2.47823">
        <ele>450</ele>
        <time>2015-04-08T15:33:14Z</time>
      </trkpt>
      <trkpt lat="46.17739" lon="2.47827">
        <ele>450</ele>
        <time>2015-04-08T15:33:16Z</time>
      </trkpt>
      <trkpt lat="46.17739" lon="2.47832">
        <ele>450</ele>
        <time>2015-04-08T15:33:18Z</time>
      </trkpt>
      <trkpt lat="46.17739" lon="2.47836">
        <ele>450</ele>
        <time>2015-04-08T15:33:20Z</time>
      </trkpt>
      <trkpt lat="46.17738" lon="2.4784">
        <ele>450</ele>
        <time>2015-04-08T15:33:22Z</time>
      </trkpt>
      <trkpt lat="46.17738" lon="2.47844">
        <ele>450</ele>
        <time>2015-04-08T15:33:24Z</time>
      </trkpt>
      <trkpt lat="46.17737" lon="2.47847">
        <ele>450</ele>
        <time>2015-04-08T15:33:26Z</time>
      </trkpt>
      <trkpt lat="46.17736" lon="2.47851">
        <ele>451</ele>
        <time>2015-04-08T15:33:28Z</time>
      </trkpt>
      <trkpt lat="46.17736" lon="2.47854">
        <ele>451</ele>
        <time>2015-04-08T15:33:30Z</time>
      </trkpt>
      <trkpt lat="46.17735" lon="2.47858">
        <ele>451</ele>
        <time>2015-04-08T15:33:32Z</time>
      </trkpt>
      <trkpt lat="46.17734" lon="2.47861">
        <ele>451</ele>
        <time>2015-04-08T15:33:34Z</time>
      </trkpt>
      <trkpt lat="46.17733" lon="2.47865">
        <ele>451</ele>
        <time>2015-04-08T15:33:36Z</time>
      </trkpt>
      <trkpt lat="46.17732" lon="2.47868">
        <ele>451</ele>
        <time>2015-04-08T15:33:38Z</time>
      </trkpt>
      <trkpt lat="46.17731" lon="2.47872">
        <ele>451</ele>
        <time>2015-04-08T15:33:40Z</time>
      </trkpt>
      <trkpt lat="46.1773" lon="2.47877">
        <ele>451</ele>
        <time>2015-04-08T15:33:43Z</time>
      </trkpt>
      <trkpt lat="46.17728" lon="2.4788">
        <ele>451</ele>
        <time>2015-04-08T15:33:45Z</time>
      </trkpt>
      <trkpt lat="46.17727" lon="2.47884">
        <ele>451</ele>
        <time>2015-04-08T15:33:47Z</time>
      </trkpt>
      <trkpt lat="46.17726" lon="2.47888">
        <ele>451</ele>
        <time>2015-04-08T15:33:49Z</time>
      </trkpt>
      <trkpt lat="46.17725" lon="2.47891">
        <ele>451</ele>
        <time>2015-04-08T15:33:51Z</time>
      </trkpt>
      <trkpt lat="46.17724" lon="2.47895">
        <ele>451</ele>
        <time>2015-04-08T15:33:53Z</time>
      </trkpt>
      <trkpt lat="46.17723" lon="2.47899">
        <ele>452</ele>
        <time>2015-04-08T15:33:55Z</time>
      </trkpt>
      <trkpt lat="46.17722" lon="2.47902">
        <ele>452</ele>
        <time>2015-04-08T15:33:57Z</time>
      </trkpt>
      <trkpt lat="46.1772" lon="2.47907">
        <ele>452</ele>
        <time>2015-04-08T15:33:59Z</time>
      </trkpt>
      <trkpt lat="46.17719" lon="2.47911">
        <ele>452</ele>
        <time>2015-04-08T15:34:01Z</time>
      </trkpt>
      <trkpt lat="46.17718" lon="2.47914">
        <ele>452</ele>
        <time>2015-04-08T15:34:03Z</time>
      </trkpt>
      <trkpt lat="46.17716" lon="2.47912">
        <ele>452</ele>
        <time>2015-04-08T15:34:16Z</time>
      </trkpt>
      <trkpt lat="46.17714" lon="2.47911">
        <ele>452</ele>
        <time>2015-04-08T15:34:18Z</time>
      </trkpt>
      <trkpt lat="46.17711" lon="2.47909">
        <ele>452</ele>
        <time>2015-04-08T15:34:20Z</time>
      </trkpt>
      <trkpt lat="46.17709" lon="2.47908">
        <ele>452</ele>
        <time>2015-04-08T15:34:22Z</time>
      </trkpt>
      <trkpt lat="46.17706" lon="2.47907">
        <ele>452</ele>
        <time>2015-04-08T15:34:24Z</time>
      </trkpt>
      <trkpt lat="46.17703" lon="2.47907">
        <ele>452</ele>
        <time>2015-04-08T15:34:26Z</time>
      </trkpt>
      <trkpt lat="46.177" lon="2.47906">
        <ele>452</ele>
        <time>2015-04-08T15:34:28Z</time>
      </trkpt>
      <trkpt lat="46.17698" lon="2.47905">
        <ele>452</ele>
        <time>2015-04-08T15:34:30Z</time>
      </trkpt>
      <trkpt lat="46.17695" lon="2.47905">
        <ele>452</ele>
        <time>2015-04-08T15:34:32Z</time>
      </trkpt>
      <trkpt lat="46.17692" lon="2.47904">
        <ele>452</ele>
        <time>2015-04-08T15:34:34Z</time>
      </trkpt>
      <trkpt lat="46.1769" lon="2.47903">
        <ele>452</ele>
        <time>2015-04-08T15:34:36Z</time>
      </trkpt>
      <trkpt lat="46.17687" lon="2.47903">
        <ele>453</ele>
        <time>2015-04-08T15:34:38Z</time>
      </trkpt>
      <trkpt lat="46.17684" lon="2.47902">
        <ele>453</ele>
        <time>2015-04-08T15:34:40Z</time>
      </trkpt>
      <trkpt lat="46.17681" lon="2.47902">
        <ele>453</ele>
        <time>2015-04-08T15:34:42Z</time>
      </trkpt>
      <trkpt lat="46.17679" lon="2.47901">
        <ele>453</ele>
        <time>2015-04-08T15:34:44Z</time>
      </trkpt>
      <trkpt lat="46.17676" lon="2.47901">
        <ele>453</ele>
        <time>2015-04-08T15:34:46Z</time>
      </trkpt>
      <trkpt lat="46.17673" lon="2.479">
        <ele>454</ele>
        <time>2015-04-08T15:34:48Z</time>
      </trkpt>
      <trkpt lat="46.17671" lon="2.479">
        <ele>454</ele>
        <time>2015-04-08T15:34:50Z</time>
      </trkpt>
      <trkpt lat="46.17668" lon="2.47899">
        <ele>454</ele>
        <time>2015-04-08T15:34:52Z</time>
      </trkpt>
      <trkpt lat="46.17666" lon="2.47898">
        <ele>454</ele>
        <time>2015-04-08T15:34:54Z</time>
      </trkpt>
      <trkpt lat="46.17663" lon="2.47898">
        <ele>455</ele>
        <time>2015-04-08T15:34:56Z</time>
      </trkpt>
      <trkpt lat="46.17661" lon="2.47897">
        <ele>455</ele>
        <time>2015-04-08T15:34:58Z</time>
      </trkpt>
      <trkpt lat="46.17658" lon="2.47897">
        <ele>455</ele>
        <time>2015-04-08T15:35:00Z</time>
      </trkpt>
      <trkpt lat="46.17655" lon="2.47896">
        <ele>455</ele>
        <time>2015-04-08T15:35:02Z</time>
      </trkpt>
      <trkpt lat="46.17653" lon="2.47895">
        <ele>455</ele>
        <time>2015-04-08T15:35:04Z</time>
      </trkpt>
      <trkpt lat="46.1765" lon="2.47895">
        <ele>455</ele>
        <time>2015-04-08T15:35:06Z</time>
      </trkpt>
      <trkpt lat="46.17648" lon="2.47894">
        <ele>455</ele>
        <time>2015-04-08T15:35:08Z</time>
      </trkpt>
      <trkpt lat="46.17645" lon="2.47893">
        <ele>455</ele>
        <time>2015-04-08T15:35:10Z</time>
      </trkpt>
      <trkpt lat="46.17643" lon="2.47893">
        <ele>456</ele>
        <time>2015-04-08T15:35:12Z</time>
      </trkpt>
      <trkpt lat="46.1764" lon="2.47892">
        <ele>456</ele>
        <time>2015-04-08T15:35:14Z</time>
      </trkpt>
      <trkpt lat="46.17637" lon="2.47892">
        <ele>456</ele>
        <time>2015-04-08T15:35:16Z</time>
      </trkpt>
      <trkpt lat="46.17634" lon="2.47891">
        <ele>456</ele>
        <time>2015-04-08T15:35:18Z</time>
      </trkpt>
      <trkpt lat="46.17632" lon="2.4789">
        <ele>456</ele>
        <time>2015-04-08T15:35:20Z</time>
      </trkpt>
      <trkpt lat="46.17629" lon="2.4789">
        <ele>456</ele>
        <time>2015-04-08T15:35:22Z</time>
      </trkpt>
      <trkpt lat="46.17626" lon="2.47889">
        <ele>456</ele>
        <time>2015-04-08T15:35:24Z</time>
      </trkpt>
      <trkpt lat="46.17623" lon="2.47887">
        <ele>456</ele>
        <time>2015-04-08T15:35:26Z</time>
      </trkpt>
      <trkpt lat="46.1762" lon="2.47886">
        <ele>456</ele>
        <time>2015-04-08T15:35:28Z</time>
      </trkpt>
      <trkpt lat="46.17618" lon="2.47885">
        <ele>456</ele>
        <time>2015-04-08T15:35:30Z</time>
      </trkpt>
      <trkpt lat="46.17615" lon="2.47883">
        <ele>456</ele>
        <time>2015-04-08T15:35:32Z</time>
      </trkpt>
      <trkpt lat="46.17613" lon="2.47882">
        <ele>456</ele>
        <time>2015-04-08T15:35:34Z</time>
      </trkpt>
      <trkpt lat="46.1761" lon="2.47879">
        <ele>456</ele>
        <time>2015-04-08T15:35:36Z</time>
      </trkpt>
      <trkpt lat="46.17608" lon="2.47876">
        <ele>456</ele>
        <time>2015-04-08T15:35:38Z</time>
      </trkpt>
      <trkpt lat="46.17606" lon="2.47874">
        <ele>456</ele>
        <time>2015-04-08T15:35:40Z</time>
      </trkpt>
      <trkpt lat="46.17602" lon="2.4787">
        <ele>456</ele>
        <time>2015-04-08T15:35:43Z</time>
      </trkpt>
      <trkpt lat="46.176" lon="2.47867">
        <ele>456</ele>
        <time>2015-04-08T15:35:45Z</time>
      </trkpt>
      <trkpt lat="46.17598" lon="2.47864">
        <ele>456</ele>
        <time>2015-04-08T15:35:47Z</time>
      </trkpt>
      <trkpt lat="46.17596" lon="2.47861">
        <ele>456</ele>
        <time>2015-04-08T15:35:49Z</time>
      </trkpt>
      <trkpt lat="46.17593" lon="2.47857">
        <ele>456</ele>
        <time>2015-04-08T15:35:52Z</time>
      </trkpt>
      <trkpt lat="46.17591" lon="2.47854">
        <ele>456</ele>
        <time>2015-04-08T15:35:54Z</time>
      </trkpt>
      <trkpt lat="46.17589" lon="2.47852">
        <ele>456</ele>
        <time>2015-04-08T15:35:56Z</time>
      </trkpt>
      <trkpt lat="46.17586" lon="2.4785">
        <ele>456</ele>
        <time>2015-04-08T15:35:58Z</time>
      </trkpt>
      <trkpt lat="46.17584" lon="2.47847">
        <ele>456</ele>
        <time>2015-04-08T15:36:00Z</time>
      </trkpt>
      <trkpt lat="46.17582" lon="2.47845">
        <ele>456</ele>
        <time>2015-04-08T15:36:02Z</time>
      </trkpt>
      <trkpt lat="46.17579" lon="2.47841">
        <ele>456</ele>
        <time>2015-04-08T15:36:05Z</time>
      </trkpt>
      <trkpt lat="46.17575" lon="2.47838">
        <ele>456</ele>
        <time>2015-04-08T15:36:08Z</time>
      </trkpt>
      <trkpt lat="46.17572" lon="2.47837">
        <ele>456</ele>
        <time>2015-04-08T15:36:10Z</time>
      </trkpt>
      <trkpt lat="46.17568" lon="2.47836">
        <ele>456</ele>
        <time>2015-04-08T15:36:13Z</time>
      </trkpt>
      <trkpt lat="46.17566" lon="2.47835">
        <ele>456</ele>
        <time>2015-04-08T15:36:15Z</time>
      </trkpt>
      <trkpt lat="46.17563" lon="2.47834">
        <ele>456</ele>
        <time>2015-04-08T15:36:17Z</time>
      </trkpt>
      <trkpt lat="46.17559" lon="2.47833">
        <ele>456</ele>
        <time>2015-04-08T15:36:20Z</time>
      </trkpt>
      <trkpt lat="46.17555" lon="2.47832">
        <ele>456</ele>
        <time>2015-04-08T15:36:23Z</time>
      </trkpt>
      <trkpt lat="46.17553" lon="2.47831">
        <ele>456</ele>
        <time>2015-04-08T15:36:25Z</time>
      </trkpt>
      <trkpt lat="46.1755" lon="2.4783">
        <ele>456</ele>
        <time>2015-04-08T15:36:27Z</time>
      </trkpt>
      <trkpt lat="46.17547" lon="2.47829">
        <ele>456</ele>
        <time>2015-04-08T15:36:29Z</time>
      </trkpt>
      <trkpt lat="46.17545" lon="2.47829">
        <ele>456</ele>
        <time>2015-04-08T15:36:31Z</time>
      </trkpt>
      <trkpt lat="46.17542" lon="2.47828">
        <ele>456</ele>
        <time>2015-04-08T15:36:33Z</time>
      </trkpt>
      <trkpt lat="46.17538" lon="2.47826">
        <ele>456</ele>
        <time>2015-04-08T15:36:36Z</time>
      </trkpt>
      <trkpt lat="46.17535" lon="2.47824">
        <ele>456</ele>
        <time>2015-04-08T15:36:38Z</time>
      </trkpt>
      <trkpt lat="46.17532" lon="2.47824">
        <ele>456</ele>
        <time>2015-04-08T15:36:40Z</time>
      </trkpt>
      <trkpt lat="46.1753" lon="2.47823">
        <ele>456</ele>
        <time>2015-04-08T15:36:42Z</time>
      </trkpt>
      <trkpt lat="46.17527" lon="2.47821">
        <ele>456</ele>
        <time>2015-04-08T15:36:44Z</time>
      </trkpt>
      <trkpt lat="46.17525" lon="2.47821">
        <ele>456</ele>
        <time>2015-04-08T15:36:46Z</time>
      </trkpt>
      <trkpt lat="46.17522" lon="2.4782">
        <ele>456</ele>
        <time>2015-04-08T15:36:48Z</time>
      </trkpt>
      <trkpt lat="46.17519" lon="2.47821">
        <ele>456</ele>
        <time>2015-04-08T15:36:50Z</time>
      </trkpt>
      <trkpt lat="46.17515" lon="2.47822">
        <ele>456</ele>
        <time>2015-04-08T15:36:53Z</time>
      </trkpt>
      <trkpt lat="46.17513" lon="2.47822">
        <ele>456</ele>
        <time>2015-04-08T15:36:55Z</time>
      </trkpt>
      <trkpt lat="46.1751" lon="2.47823">
        <ele>456</ele>
        <time>2015-04-08T15:36:57Z</time>
      </trkpt>
      <trkpt lat="46.17508" lon="2.47825">
        <ele>456</ele>
        <time>2015-04-08T15:36:59Z</time>
      </trkpt>
      <trkpt lat="46.17506" lon="2.47827">
        <ele>456</ele>
        <time>2015-04-08T15:37:01Z</time>
      </trkpt>
      <trkpt lat="46.17504" lon="2.47828">
        <ele>456</ele>
        <time>2015-04-08T15:37:03Z</time>
      </trkpt>
      <trkpt lat="46.17501" lon="2.47828">
        <ele>456</ele>
        <time>2015-04-08T15:37:05Z</time>
      </trkpt>
      <trkpt lat="46.17498" lon="2.4783">
        <ele>457</ele>
        <time>2015-04-08T15:37:08Z</time>
      </trkpt>
      <trkpt lat="46.17495" lon="2.47831">
        <ele>457</ele>
        <time>2015-04-08T15:37:10Z</time>
      </trkpt>
      <trkpt lat="46.17492" lon="2.47832">
        <ele>457</ele>
        <time>2015-04-08T15:37:13Z</time>
      </trkpt>
      <trkpt lat="46.17489" lon="2.47834">
        <ele>457</ele>
        <time>2015-04-08T15:37:15Z</time>
      </trkpt>
      <trkpt lat="46.17487" lon="2.47835">
        <ele>457</ele>
        <time>2015-04-08T15:37:17Z</time>
      </trkpt>
      <trkpt lat="46.17483" lon="2.47836">
        <ele>458</ele>
        <time>2015-04-08T15:37:20Z</time>
      </trkpt>
      <trkpt lat="46.17481" lon="2.47837">
        <ele>458</ele>
        <time>2015-04-08T15:37:22Z</time>
      </trkpt>
      <trkpt lat="46.17479" lon="2.47838">
        <ele>458</ele>
        <time>2015-04-08T15:37:24Z</time>
      </trkpt>
      <trkpt lat="46.17477" lon="2.4784">
        <ele>458</ele>
        <time>2015-04-08T15:37:26Z</time>
      </trkpt>
      <trkpt lat="46.17474" lon="2.47842">
        <ele>458</ele>
        <time>2015-04-08T15:37:28Z</time>
      </trkpt>
      <trkpt lat="46.17471" lon="2.47844">
        <ele>458</ele>
        <time>2015-04-08T15:37:30Z</time>
      </trkpt>
      <trkpt lat="46.17469" lon="2.47847">
        <ele>458</ele>
        <time>2015-04-08T15:37:32Z</time>
      </trkpt>
      <trkpt lat="46.17466" lon="2.47849">
        <ele>458</ele>
        <time>2015-04-08T15:37:34Z</time>
      </trkpt>
      <trkpt lat="46.17463" lon="2.47852">
        <ele>458</ele>
        <time>2015-04-08T15:37:36Z</time>
      </trkpt>
      <trkpt lat="46.1746" lon="2.47855">
        <ele>458</ele>
        <time>2015-04-08T15:37:38Z</time>
      </trkpt>
      <trkpt lat="46.17458" lon="2.47858">
        <ele>458</ele>
        <time>2015-04-08T15:37:40Z</time>
      </trkpt>
      <trkpt lat="46.17456" lon="2.47861">
        <ele>458</ele>
        <time>2015-04-08T15:37:42Z</time>
      </trkpt>
      <trkpt lat="46.17453" lon="2.47864">
        <ele>458</ele>
        <time>2015-04-08T15:37:44Z</time>
      </trkpt>
      <trkpt lat="46.17451" lon="2.47867">
        <ele>458</ele>
        <time>2015-04-08T15:37:46Z</time>
      </trkpt>
      <trkpt lat="46.1745" lon="2.47871">
        <ele>458</ele>
        <time>2015-04-08T15:37:48Z</time>
      </trkpt>
      <trkpt lat="46.17448" lon="2.47874">
        <ele>458</ele>
        <time>2015-04-08T15:37:50Z</time>
      </trkpt>
      <trkpt lat="46.17445" lon="2.47879">
        <ele>458</ele>
        <time>2015-04-08T15:37:53Z</time>
      </trkpt>
      <trkpt lat="46.17442" lon="2.47883">
        <ele>458</ele>
        <time>2015-04-08T15:37:55Z</time>
      </trkpt>
      <trkpt lat="46.1744" lon="2.47886">
        <ele>458</ele>
        <time>2015-04-08T15:37:57Z</time>
      </trkpt>
      <trkpt lat="46.17438" lon="2.47889">
        <ele>458</ele>
        <time>2015-04-08T15:37:59Z</time>
      </trkpt>
      <trkpt lat="46.17437" lon="2.47893">
        <ele>458</ele>
        <time>2015-04-08T15:38:01Z</time>
      </trkpt>
      <trkpt lat="46.17435" lon="2.47896">
        <ele>458</ele>
        <time>2015-04-08T15:38:03Z</time>
      </trkpt>
      <trkpt lat="46.17433" lon="2.479">
        <ele>458</ele>
        <time>2015-04-08T15:38:05Z</time>
      </trkpt>
      <trkpt lat="46.17432" lon="2.47903">
        <ele>458</ele>
        <time>2015-04-08T15:38:07Z</time>
      </trkpt>
      <trkpt lat="46.1743" lon="2.47906">
        <ele>458</ele>
        <time>2015-04-08T15:38:09Z</time>
      </trkpt>
      <trkpt lat="46.17428" lon="2.47909">
        <ele>459</ele>
        <time>2015-04-08T15:38:11Z</time>
      </trkpt>
      <trkpt lat="46.17426" lon="2.47913">
        <ele>459</ele>
        <time>2015-04-08T15:38:13Z</time>
      </trkpt>
      <trkpt lat="46.17425" lon="2.47916">
        <ele>459</ele>
        <time>2015-04-08T15:38:15Z</time>
      </trkpt>
      <trkpt lat="46.17423" lon="2.47919">
        <ele>460</ele>
        <time>2015-04-08T15:38:17Z</time>
      </trkpt>
      <trkpt lat="46.17421" lon="2.47924">
        <ele>460</ele>
        <time>2015-04-08T15:38:20Z</time>
      </trkpt>
      <trkpt lat="46.17419" lon="2.47928">
        <ele>460</ele>
        <time>2015-04-08T15:38:22Z</time>
      </trkpt>
      <trkpt lat="46.17418" lon="2.47931">
        <ele>460</ele>
        <time>2015-04-08T15:38:24Z</time>
      </trkpt>
      <trkpt lat="46.17417" lon="2.47934">
        <ele>461</ele>
        <time>2015-04-08T15:38:26Z</time>
      </trkpt>
      <trkpt lat="46.17415" lon="2.47937">
        <ele>461</ele>
        <time>2015-04-08T15:38:28Z</time>
      </trkpt>
      <trkpt lat="46.17413" lon="2.47941">
        <ele>461</ele>
        <time>2015-04-08T15:38:30Z</time>
      </trkpt>
      <trkpt lat="46.17412" lon="2.47944">
        <ele>462</ele>
        <time>2015-04-08T15:38:32Z</time>
      </trkpt>
      <trkpt lat="46.17411" lon="2.47947">
        <ele>462</ele>
        <time>2015-04-08T15:38:34Z</time>
      </trkpt>
      <trkpt lat="46.17408" lon="2.47952">
        <ele>462</ele>
        <time>2015-04-08T15:38:37Z</time>
      </trkpt>
      <trkpt lat="46.17407" lon="2.47955">
        <ele>462</ele>
        <time>2015-04-08T15:38:39Z</time>
      </trkpt>
      <trkpt lat="46.17404" lon="2.47959">
        <ele>463</ele>
        <time>2015-04-08T15:38:42Z</time>
      </trkpt>
      <trkpt lat="46.17403" lon="2.47963">
        <ele>463</ele>
        <time>2015-04-08T15:38:44Z</time>
      </trkpt>
      <trkpt lat="46.17401" lon="2.47966">
        <ele>464</ele>
        <time>2015-04-08T15:38:46Z</time>
      </trkpt>
      <trkpt lat="46.17399" lon="2.47971">
        <ele>464</ele>
        <time>2015-04-08T15:38:49Z</time>
      </trkpt>
      <trkpt lat="46.17398" lon="2.47976">
        <ele>464</ele>
        <time>2015-04-08T15:38:52Z</time>
      </trkpt>
      <trkpt lat="46.17398" lon="2.4798">
        <ele>465</ele>
        <time>2015-04-08T15:38:54Z</time>
      </trkpt>
      <trkpt lat="46.17398" lon="2.47985">
        <ele>465</ele>
        <time>2015-04-08T15:38:57Z</time>
      </trkpt>
      <trkpt lat="46.17397" lon="2.47989">
        <ele>465</ele>
        <time>2015-04-08T15:39:00Z</time>
      </trkpt>
      <trkpt lat="46.17396" lon="2.47992">
        <ele>465</ele>
        <time>2015-04-08T15:39:02Z</time>
      </trkpt>
      <trkpt lat="46.17395" lon="2.47998">
        <ele>466</ele>
        <time>2015-04-08T15:39:05Z</time>
      </trkpt>
      <trkpt lat="46.17395" lon="2.48004">
        <ele>466</ele>
        <time>2015-04-08T15:39:08Z</time>
      </trkpt>
      <trkpt lat="46.17395" lon="2.48008">
        <ele>466</ele>
        <time>2015-04-08T15:39:10Z</time>
      </trkpt>
      <trkpt lat="46.17395" lon="2.48014">
        <ele>466</ele>
        <time>2015-04-08T15:39:13Z</time>
      </trkpt>
      <trkpt lat="46.17396" lon="2.48019">
        <ele>466</ele>
        <time>2015-04-08T15:39:15Z</time>
      </trkpt>
      <trkpt lat="46.17396" lon="2.48024">
        <ele>466</ele>
        <time>2015-04-08T15:39:18Z</time>
      </trkpt>
      <trkpt lat="46.17396" lon="2.48028">
        <ele>466</ele>
        <time>2015-04-08T15:39:20Z</time>
      </trkpt>
      <trkpt lat="46.17397" lon="2.48032">
        <ele>466</ele>
        <time>2015-04-08T15:39:22Z</time>
      </trkpt>
      <trkpt lat="46.17398" lon="2.48035">
        <ele>466</ele>
        <time>2015-04-08T15:39:24Z</time>
      </trkpt>
      <trkpt lat="46.17399" lon="2.48039">
        <ele>466</ele>
        <time>2015-04-08T15:39:26Z</time>
      </trkpt>
      <trkpt lat="46.17401" lon="2.48044">
        <ele>466</ele>
        <time>2015-04-08T15:39:29Z</time>
      </trkpt>
      <trkpt lat="46.17402" lon="2.48047">
        <ele>466</ele>
        <time>2015-04-08T15:39:31Z</time>
      </trkpt>
      <trkpt lat="46.17403" lon="2.48052">
        <ele>466</ele>
        <time>2015-04-08T15:39:33Z</time>
      </trkpt>
      <trkpt lat="46.17404" lon="2.48056">
        <ele>466</ele>
        <time>2015-04-08T15:39:38Z</time>
      </trkpt>
      <trkpt lat="46.17404" lon="2.48058">
        <ele>466</ele>
        <time>2015-04-08T15:39:42Z</time>
      </trkpt>
      <trkpt lat="46.17404" lon="2.48061">
        <ele>466</ele>
        <time>2015-04-08T15:39:44Z</time>
      </trkpt>
      <trkpt lat="46.17405" lon="2.48068">
        <ele>466</ele>
        <time>2015-04-08T15:39:47Z</time>
      </trkpt>
      <trkpt lat="46.17406" lon="2.48072">
        <ele>466</ele>
        <time>2015-04-08T15:39:49Z</time>
      </trkpt>
      <trkpt lat="46.17407" lon="2.48076">
        <ele>466</ele>
        <time>2015-04-08T15:39:51Z</time>
      </trkpt>
      <trkpt lat="46.17408" lon="2.48082">
        <ele>466</ele>
        <time>2015-04-08T15:39:54Z</time>
      </trkpt>
      <trkpt lat="46.17408" lon="2.48086">
        <ele>466</ele>
        <time>2015-04-08T15:39:56Z</time>
      </trkpt>
      <trkpt lat="46.17409" lon="2.4809">
        <ele>466</ele>
        <time>2015-04-08T15:39:58Z</time>
      </trkpt>
      <trkpt lat="46.17411" lon="2.48095">
        <ele>466</ele>
        <time>2015-04-08T15:40:01Z</time>
      </trkpt>
      <trkpt lat="46.17412" lon="2.48102">
        <ele>466</ele>
        <time>2015-04-08T15:40:04Z</time>
      </trkpt>
      <trkpt lat="46.17413" lon="2.48106">
        <ele>466</ele>
        <time>2015-04-08T15:40:06Z</time>
      </trkpt>
      <trkpt lat="46.17413" lon="2.4811">
        <ele>466</ele>
        <time>2015-04-08T15:40:08Z</time>
      </trkpt>
      <trkpt lat="46.17413" lon="2.48114">
        <ele>466</ele>
        <time>2015-04-08T15:40:10Z</time>
      </trkpt>
      <trkpt lat="46.17414" lon="2.48118">
        <ele>466</ele>
        <time>2015-04-08T15:40:12Z</time>
      </trkpt>
      <trkpt lat="46.17413" lon="2.48124">
        <ele>466</ele>
        <time>2015-04-08T15:40:15Z</time>
      </trkpt>
      <trkpt lat="46.17413" lon="2.48129">
        <ele>466</ele>
        <time>2015-04-08T15:40:17Z</time>
      </trkpt>
      <trkpt lat="46.17413" lon="2.48133">
        <ele>466</ele>
        <time>2015-04-08T15:40:19Z</time>
      </trkpt>
      <trkpt lat="46.17413" lon="2.48137">
        <ele>466</ele>
        <time>2015-04-08T15:40:21Z</time>
      </trkpt>
      <trkpt lat="46.17413" lon="2.48143">
        <ele>466</ele>
        <time>2015-04-08T15:40:24Z</time>
      </trkpt>
      <trkpt lat="46.17413" lon="2.48147">
        <ele>466</ele>
        <time>2015-04-08T15:40:26Z</time>
      </trkpt>
      <trkpt lat="46.17413" lon="2.48153">
        <ele>466</ele>
        <time>2015-04-08T15:40:29Z</time>
      </trkpt>
      <trkpt lat="46.17413" lon="2.48157">
        <ele>466</ele>
        <time>2015-04-08T15:40:31Z</time>
      </trkpt>
      <trkpt lat="46.17413" lon="2.48163">
        <ele>466</ele>
        <time>2015-04-08T15:40:34Z</time>
      </trkpt>
      <trkpt lat="46.17413" lon="2.48167">
        <ele>466</ele>
        <time>2015-04-08T15:40:36Z</time>
      </trkpt>
      <trkpt lat="46.17412" lon="2.48173">
        <ele>466</ele>
        <time>2015-04-08T15:40:39Z</time>
      </trkpt>
      <trkpt lat="46.17412" lon="2.48176">
        <ele>466</ele>
        <time>2015-04-08T15:40:41Z</time>
      </trkpt>
      <trkpt lat="46.17411" lon="2.48183">
        <ele>466</ele>
        <time>2015-04-08T15:40:44Z</time>
      </trkpt>
      <trkpt lat="46.17411" lon="2.48187">
        <ele>466</ele>
        <time>2015-04-08T15:40:46Z</time>
      </trkpt>
      <trkpt lat="46.17409" lon="2.48193">
        <ele>466</ele>
        <time>2015-04-08T15:40:49Z</time>
      </trkpt>
      <trkpt lat="46.17409" lon="2.48197">
        <ele>466</ele>
        <time>2015-04-08T15:40:51Z</time>
      </trkpt>
      <trkpt lat="46.17408" lon="2.48202">
        <ele>466</ele>
        <time>2015-04-08T15:40:54Z</time>
      </trkpt>
      <trkpt lat="46.17407" lon="2.48205">
        <ele>466</ele>
        <time>2015-04-08T15:40:56Z</time>
      </trkpt>
      <trkpt lat="46.17407" lon="2.48211">
        <ele>466</ele>
        <time>2015-04-08T15:40:59Z</time>
      </trkpt>
      <trkpt lat="46.17407" lon="2.48214">
        <ele>466</ele>
        <time>2015-04-08T15:41:01Z</time>
      </trkpt>
      <trkpt lat="46.17406" lon="2.48216">
        <ele>466</ele>
        <time>2015-04-08T15:41:05Z</time>
      </trkpt>
      <trkpt lat="46.17405" lon="2.48218">
        <ele>466</ele>
        <time>2015-04-08T15:41:16Z</time>
      </trkpt>
      <trkpt lat="46.17406" lon="2.48219">
        <ele>466</ele>
        <time>2015-04-08T15:41:21Z</time>
      </trkpt>
      <trkpt lat="46.17409" lon="2.4822">
        <ele>466</ele>
        <time>2015-04-08T15:41:26Z</time>
      </trkpt>
      <trkpt lat="46.17411" lon="2.48221">
        <ele>466</ele>
        <time>2015-04-08T15:41:34Z</time>
      </trkpt>
      <trkpt lat="46.17411" lon="2.48219">
        <ele>466</ele>
        <time>2015-04-08T15:41:37Z</time>
      </trkpt>
      <trkpt lat="46.17409" lon="2.48218">
        <ele>466</ele>
        <time>2015-04-08T15:41:39Z</time>
      </trkpt>
      <trkpt lat="46.17405" lon="2.48216">
        <ele>466</ele>
        <time>2015-04-08T15:41:42Z</time>
      </trkpt>
      <trkpt lat="46.17402" lon="2.48216">
        <ele>466</ele>
        <time>2015-04-08T15:41:44Z</time>
      </trkpt>
      <trkpt lat="46.17397" lon="2.48215">
        <ele>466</ele>
        <time>2015-04-08T15:41:47Z</time>
      </trkpt>
      <trkpt lat="46.17394" lon="2.48214">
        <ele>466</ele>
        <time>2015-04-08T15:41:49Z</time>
      </trkpt>
      <trkpt lat="46.17387" lon="2.48212">
        <ele>466</ele>
        <time>2015-04-08T15:41:53Z</time>
      </trkpt>
      <trkpt lat="46.17385" lon="2.4821">
        <ele>466</ele>
        <time>2015-04-08T15:41:55Z</time>
      </trkpt>
      <trkpt lat="46.17381" lon="2.48209">
        <ele>466</ele>
        <time>2015-04-08T15:41:58Z</time>
      </trkpt>
      <trkpt lat="46.17378" lon="2.48207">
        <ele>466</ele>
        <time>2015-04-08T15:42:00Z</time>
      </trkpt>
      <trkpt lat="46.17377" lon="2.48206">
        <ele>466</ele>
        <time>2015-04-08T15:42:02Z</time>
      </trkpt>
      <trkpt lat="46.17374" lon="2.48206">
        <ele>466</ele>
        <time>2015-04-08T15:42:04Z</time>
      </trkpt>
      <trkpt lat="46.17369" lon="2.48204">
        <ele>465</ele>
        <time>2015-04-08T15:42:08Z</time>
      </trkpt>
      <trkpt lat="46.17366" lon="2.48203">
        <ele>465</ele>
        <time>2015-04-08T15:42:10Z</time>
      </trkpt>
      <trkpt lat="46.17364" lon="2.48202">
        <ele>464</ele>
        <time>2015-04-08T15:42:12Z</time>
      </trkpt>
      <trkpt lat="46.17363" lon="2.48201">
        <ele>463</ele>
        <time>2015-04-08T15:42:14Z</time>
      </trkpt>
      <trkpt lat="46.17359" lon="2.48202">
        <ele>463</ele>
        <time>2015-04-08T15:42:17Z</time>
      </trkpt>
      <trkpt lat="46.17356" lon="2.48203">
        <ele>463</ele>
        <time>2015-04-08T15:42:19Z</time>
      </trkpt>
      <trkpt lat="46.17354" lon="2.48203">
        <ele>463</ele>
        <time>2015-04-08T15:42:21Z</time>
      </trkpt>
      <trkpt lat="46.17352" lon="2.48203">
        <ele>462</ele>
        <time>2015-04-08T15:42:23Z</time>
      </trkpt>
      <trkpt lat="46.17348" lon="2.48205">
        <ele>461</ele>
        <time>2015-04-08T15:42:26Z</time>
      </trkpt>
      <trkpt lat="46.17345" lon="2.48206">
        <ele>460</ele>
        <time>2015-04-08T15:42:28Z</time>
      </trkpt>
      <trkpt lat="46.17343" lon="2.48208">
        <ele>459</ele>
        <time>2015-04-08T15:42:30Z</time>
      </trkpt>
      <trkpt lat="46.1734" lon="2.4821">
        <ele>459</ele>
        <time>2015-04-08T15:42:32Z</time>
      </trkpt>
      <trkpt lat="46.17338" lon="2.48211">
        <ele>458</ele>
        <time>2015-04-08T15:42:34Z</time>
      </trkpt>
      <trkpt lat="46.17334" lon="2.48212">
        <ele>458</ele>
        <time>2015-04-08T15:42:37Z</time>
      </trkpt>
      <trkpt lat="46.17332" lon="2.48213">
        <ele>458</ele>
        <time>2015-04-08T15:42:39Z</time>
      </trkpt>
      <trkpt lat="46.17329" lon="2.48213">
        <ele>458</ele>
        <time>2015-04-08T15:42:41Z</time>
      </trkpt>
      <trkpt lat="46.17326" lon="2.48214">
        <ele>458</ele>
        <time>2015-04-08T15:42:43Z</time>
      </trkpt>
      <trkpt lat="46.17324" lon="2.48214">
        <ele>458</ele>
        <time>2015-04-08T15:42:45Z</time>
      </trkpt>
      <trkpt lat="46.17321" lon="2.48215">
        <ele>458</ele>
        <time>2015-04-08T15:42:47Z</time>
      </trkpt>
      <trkpt lat="46.17318" lon="2.48215">
        <ele>458</ele>
        <time>2015-04-08T15:42:49Z</time>
      </trkpt>
      <trkpt lat="46.17314" lon="2.48216">
        <ele>458</ele>
        <time>2015-04-08T15:42:52Z</time>
      </trkpt>
      <trkpt lat="46.17311" lon="2.48216">
        <ele>458</ele>
        <time>2015-04-08T15:42:54Z</time>
      </trkpt>
      <trkpt lat="46.17307" lon="2.48217">
        <ele>458</ele>
        <time>2015-04-08T15:42:57Z</time>
      </trkpt>
      <trkpt lat="46.17304" lon="2.48217">
        <ele>458</ele>
        <time>2015-04-08T15:42:59Z</time>
      </trkpt>
      <trkpt lat="46.173" lon="2.48218">
        <ele>458</ele>
        <time>2015-04-08T15:43:02Z</time>
      </trkpt>
      <trkpt lat="46.17297" lon="2.48218">
        <ele>458</ele>
        <time>2015-04-08T15:43:04Z</time>
      </trkpt>
      <trkpt lat="46.17294" lon="2.4822">
        <ele>458</ele>
        <time>2015-04-08T15:43:06Z</time>
      </trkpt>
      <trkpt lat="46.17291" lon="2.48221">
        <ele>458</ele>
        <time>2015-04-08T15:43:08Z</time>
      </trkpt>
      <trkpt lat="46.17289" lon="2.48221">
        <ele>458</ele>
        <time>2015-04-08T15:43:10Z</time>
      </trkpt>
      <trkpt lat="46.17286" lon="2.48222">
        <ele>458</ele>
        <time>2015-04-08T15:43:12Z</time>
      </trkpt>
      <trkpt lat="46.17283" lon="2.48224">
        <ele>458</ele>
        <time>2015-04-08T15:43:14Z</time>
      </trkpt>
      <trkpt lat="46.17279" lon="2.48226">
        <ele>458</ele>
        <time>2015-04-08T15:43:17Z</time>
      </trkpt>
      <trkpt lat="46.17276" lon="2.48229">
        <ele>458</ele>
        <time>2015-04-08T15:43:19Z</time>
      </trkpt>
      <trkpt lat="46.17274" lon="2.48232">
        <ele>458</ele>
        <time>2015-04-08T15:43:21Z</time>
      </trkpt>
      <trkpt lat="46.17271" lon="2.48236">
        <ele>459</ele>
        <time>2015-04-08T15:43:24Z</time>
      </trkpt>
      <trkpt lat="46.17268" lon="2.48239">
        <ele>459</ele>
        <time>2015-04-08T15:43:27Z</time>
      </trkpt>
      <trkpt lat="46.17265" lon="2.48243">
        <ele>459</ele>
        <time>2015-04-08T15:43:30Z</time>
      </trkpt>
      <trkpt lat="46.1726" lon="2.48249">
        <ele>460</ele>
        <time>2015-04-08T15:43:34Z</time>
      </trkpt>
      <trkpt lat="46.17258" lon="2.48251">
        <ele>460</ele>
        <time>2015-04-08T15:43:36Z</time>
      </trkpt>
      <trkpt lat="46.17255" lon="2.48256">
        <ele>460</ele>
        <time>2015-04-08T15:43:39Z</time>
      </trkpt>
      <trkpt lat="46.17253" lon="2.48259">
        <ele>460</ele>
        <time>2015-04-08T15:43:41Z</time>
      </trkpt>
      <trkpt lat="46.17249" lon="2.48264">
        <ele>460</ele>
        <time>2015-04-08T15:43:44Z</time>
      </trkpt>
      <trkpt lat="46.17247" lon="2.48267">
        <ele>461</ele>
        <time>2015-04-08T15:43:46Z</time>
      </trkpt>
      <trkpt lat="46.17243" lon="2.4827">
        <ele>461</ele>
        <time>2015-04-08T15:43:49Z</time>
      </trkpt>
      <trkpt lat="46.17241" lon="2.48272">
        <ele>461</ele>
        <time>2015-04-08T15:43:51Z</time>
      </trkpt>
      <trkpt lat="46.17237" lon="2.48276">
        <ele>461</ele>
        <time>2015-04-08T15:43:54Z</time>
      </trkpt>
      <trkpt lat="46.17235" lon="2.48279">
        <ele>461</ele>
        <time>2015-04-08T15:43:56Z</time>
      </trkpt>
      <trkpt lat="46.17232" lon="2.48284">
        <ele>461</ele>
        <time>2015-04-08T15:43:59Z</time>
      </trkpt>
      <trkpt lat="46.17231" lon="2.48287">
        <ele>461</ele>
        <time>2015-04-08T15:44:01Z</time>
      </trkpt>
      <trkpt lat="46.17229" lon="2.48289">
        <ele>461</ele>
        <time>2015-04-08T15:44:03Z</time>
      </trkpt>
      <trkpt lat="46.17227" lon="2.48292">
        <ele>461</ele>
        <time>2015-04-08T15:44:05Z</time>
      </trkpt>
      <trkpt lat="46.17225" lon="2.48295">
        <ele>461</ele>
        <time>2015-04-08T15:44:07Z</time>
      </trkpt>
      <trkpt lat="46.17223" lon="2.48299">
        <ele>461</ele>
        <time>2015-04-08T15:44:09Z</time>
      </trkpt>
      <trkpt lat="46.17221" lon="2.48302">
        <ele>461</ele>
        <time>2015-04-08T15:44:11Z</time>
      </trkpt>
      <trkpt lat="46.17219" lon="2.48305">
        <ele>461</ele>
        <time>2015-04-08T15:44:13Z</time>
      </trkpt>
      <trkpt lat="46.17217" lon="2.48308">
        <ele>461</ele>
        <time>2015-04-08T15:44:15Z</time>
      </trkpt>
      <trkpt lat="46.17215" lon="2.48311">
        <ele>461</ele>
        <time>2015-04-08T15:44:17Z</time>
      </trkpt>
      <trkpt lat="46.17213" lon="2.48314">
        <ele>461</ele>
        <time>2015-04-08T15:44:19Z</time>
      </trkpt>
      <trkpt lat="46.17211" lon="2.48318">
        <ele>461</ele>
        <time>2015-04-08T15:44:21Z</time>
      </trkpt>
      <trkpt lat="46.17209" lon="2.48321">
        <ele>461</ele>
        <time>2015-04-08T15:44:23Z</time>
      </trkpt>
      <trkpt lat="46.17207" lon="2.48324">
        <ele>461</ele>
        <time>2015-04-08T15:44:25Z</time>
      </trkpt>
      <trkpt lat="46.17205" lon="2.48327">
        <ele>461</ele>
        <time>2015-04-08T15:44:27Z</time>
      </trkpt>
      <trkpt lat="46.17204" lon="2.4833">
        <ele>461</ele>
        <time>2015-04-08T15:44:29Z</time>
      </trkpt>
      <trkpt lat="46.17202" lon="2.48333">
        <ele>461</ele>
        <time>2015-04-08T15:44:31Z</time>
      </trkpt>
      <trkpt lat="46.172" lon="2.48337">
        <ele>461</ele>
        <time>2015-04-08T15:44:33Z</time>
      </trkpt>
      <trkpt lat="46.17198" lon="2.4834">
        <ele>461</ele>
        <time>2015-04-08T15:44:35Z</time>
      </trkpt>
      <trkpt lat="46.17196" lon="2.48343">
        <ele>461</ele>
        <time>2015-04-08T15:44:37Z</time>
      </trkpt>
      <trkpt lat="46.17194" lon="2.48346">
        <ele>461</ele>
        <time>2015-04-08T15:44:39Z</time>
      </trkpt>
      <trkpt lat="46.17192" lon="2.48349">
        <ele>461</ele>
        <time>2015-04-08T15:44:41Z</time>
      </trkpt>
      <trkpt lat="46.17189" lon="2.48354">
        <ele>461</ele>
        <time>2015-04-08T15:44:44Z</time>
      </trkpt>
      <trkpt lat="46.17187" lon="2.48357">
        <ele>461</ele>
        <time>2015-04-08T15:44:46Z</time>
      </trkpt>
      <trkpt lat="46.17186" lon="2.4836">
        <ele>461</ele>
        <time>2015-04-08T15:44:48Z</time>
      </trkpt>
      <trkpt lat="46.17184" lon="2.48363">
        <ele>461</ele>
        <time>2015-04-08T15:44:50Z</time>
      </trkpt>
      <trkpt lat="46.1718" lon="2.48367">
        <ele>461</ele>
        <time>2015-04-08T15:44:52Z</time>
      </trkpt>
      <trkpt lat="46.17178" lon="2.4837">
        <ele>461</ele>
        <time>2015-04-08T15:44:54Z</time>
      </trkpt>
      <trkpt lat="46.17176" lon="2.48373">
        <ele>461</ele>
        <time>2015-04-08T15:44:56Z</time>
      </trkpt>
      <trkpt lat="46.17174" lon="2.48376">
        <ele>461</ele>
        <time>2015-04-08T15:44:58Z</time>
      </trkpt>
      <trkpt lat="46.17172" lon="2.48379">
        <ele>461</ele>
        <time>2015-04-08T15:45:00Z</time>
      </trkpt>
      <trkpt lat="46.1717" lon="2.48382">
        <ele>461</ele>
        <time>2015-04-08T15:45:02Z</time>
      </trkpt>
      <trkpt lat="46.17168" lon="2.48385">
        <ele>462</ele>
        <time>2015-04-08T15:45:04Z</time>
      </trkpt>
      <trkpt lat="46.17166" lon="2.48388">
        <ele>462</ele>
        <time>2015-04-08T15:45:06Z</time>
      </trkpt>
      <trkpt lat="46.17163" lon="2.48393">
        <ele>462</ele>
        <time>2015-04-08T15:45:09Z</time>
      </trkpt>
      <trkpt lat="46.17162" lon="2.48397">
        <ele>462</ele>
        <time>2015-04-08T15:45:11Z</time>
      </trkpt>
      <trkpt lat="46.17161" lon="2.48402">
        <ele>463</ele>
        <time>2015-04-08T15:45:14Z</time>
      </trkpt>
      <trkpt lat="46.17161" lon="2.48406">
        <ele>463</ele>
        <time>2015-04-08T15:45:16Z</time>
      </trkpt>
      <trkpt lat="46.17162" lon="2.48411">
        <ele>463</ele>
        <time>2015-04-08T15:45:18Z</time>
      </trkpt>
      <trkpt lat="46.17163" lon="2.48414">
        <ele>463</ele>
        <time>2015-04-08T15:45:20Z</time>
      </trkpt>
      <trkpt lat="46.17166" lon="2.48416">
        <ele>463</ele>
        <time>2015-04-08T15:45:22Z</time>
      </trkpt>
      <trkpt lat="46.17169" lon="2.48418">
        <ele>463</ele>
        <time>2015-04-08T15:45:24Z</time>
      </trkpt>
      <trkpt lat="46.17172" lon="2.48421">
        <ele>463</ele>
        <time>2015-04-08T15:45:26Z</time>
      </trkpt>
      <trkpt lat="46.17175" lon="2.48422">
        <ele>463</ele>
        <time>2015-04-08T15:45:28Z</time>
      </trkpt>
      <trkpt lat="46.17178" lon="2.48423">
        <ele>463</ele>
        <time>2015-04-08T15:45:30Z</time>
      </trkpt>
      <trkpt lat="46.17181" lon="2.48425">
        <ele>463</ele>
        <time>2015-04-08T15:45:32Z</time>
      </trkpt>
      <trkpt lat="46.17184" lon="2.48427">
        <ele>463</ele>
        <time>2015-04-08T15:45:35Z</time>
      </trkpt>
      <trkpt lat="46.17187" lon="2.48428">
        <ele>463</ele>
        <time>2015-04-08T15:45:37Z</time>
      </trkpt>
      <trkpt lat="46.1719" lon="2.4843">
        <ele>463</ele>
        <time>2015-04-08T15:45:39Z</time>
      </trkpt>
      <trkpt lat="46.17192" lon="2.48432">
        <ele>463</ele>
        <time>2015-04-08T15:45:41Z</time>
      </trkpt>
      <trkpt lat="46.17196" lon="2.48433">
        <ele>463</ele>
        <time>2015-04-08T15:45:43Z</time>
      </trkpt>
      <trkpt lat="46.17198" lon="2.48435">
        <ele>462</ele>
        <time>2015-04-08T15:45:45Z</time>
      </trkpt>
      <trkpt lat="46.17201" lon="2.48436">
        <ele>462</ele>
        <time>2015-04-08T15:45:47Z</time>
      </trkpt>
      <trkpt lat="46.17203" lon="2.48437">
        <ele>462</ele>
        <time>2015-04-08T15:45:49Z</time>
      </trkpt>
      <trkpt lat="46.17207" lon="2.48439">
        <ele>461</ele>
        <time>2015-04-08T15:45:51Z</time>
      </trkpt>
      <trkpt lat="46.1721" lon="2.48442">
        <ele>461</ele>
        <time>2015-04-08T15:45:53Z</time>
      </trkpt>
      <trkpt lat="46.17213" lon="2.48444">
        <ele>461</ele>
        <time>2015-04-08T15:45:55Z</time>
      </trkpt>
      <trkpt lat="46.17216" lon="2.48446">
        <ele>461</ele>
        <time>2015-04-08T15:45:57Z</time>
      </trkpt>
      <trkpt lat="46.17219" lon="2.48447">
        <ele>461</ele>
        <time>2015-04-08T15:45:59Z</time>
      </trkpt>
      <trkpt lat="46.17222" lon="2.48449">
        <ele>461</ele>
        <time>2015-04-08T15:46:01Z</time>
      </trkpt>
      <trkpt lat="46.17225" lon="2.48452">
        <ele>461</ele>
        <time>2015-04-08T15:46:03Z</time>
      </trkpt>
      <trkpt lat="46.17227" lon="2.48455">
        <ele>461</ele>
        <time>2015-04-08T15:46:05Z</time>
      </trkpt>
      <trkpt lat="46.1723" lon="2.48457">
        <ele>461</ele>
        <time>2015-04-08T15:46:07Z</time>
      </trkpt>
      <trkpt lat="46.17233" lon="2.48458">
        <ele>461</ele>
        <time>2015-04-08T15:46:09Z</time>
      </trkpt>
      <trkpt lat="46.17236" lon="2.48459">
        <ele>461</ele>
        <time>2015-04-08T15:46:11Z</time>
      </trkpt>
      <trkpt lat="46.17239" lon="2.48461">
        <ele>461</ele>
        <time>2015-04-08T15:46:13Z</time>
      </trkpt>
      <trkpt lat="46.1724" lon="2.48464">
        <ele>461</ele>
        <time>2015-04-08T15:46:15Z</time>
      </trkpt>
      <trkpt lat="46.17241" lon="2.48467">
        <ele>461</ele>
        <time>2015-04-08T15:46:17Z</time>
      </trkpt>
      <trkpt lat="46.17242" lon="2.48472">
        <ele>461</ele>
        <time>2015-04-08T15:46:19Z</time>
      </trkpt>
      <trkpt lat="46.17244" lon="2.48475">
        <ele>461</ele>
        <time>2015-04-08T15:46:21Z</time>
      </trkpt>
      <trkpt lat="46.17247" lon="2.48479">
        <ele>461</ele>
        <time>2015-04-08T15:46:24Z</time>
      </trkpt>
      <trkpt lat="46.17249" lon="2.48481">
        <ele>460</ele>
        <time>2015-04-08T15:46:26Z</time>
      </trkpt>
      <trkpt lat="46.17251" lon="2.48482">
        <ele>460</ele>
        <time>2015-04-08T15:46:28Z</time>
      </trkpt>
      <trkpt lat="46.17253" lon="2.48484">
        <ele>459</ele>
        <time>2015-04-08T15:46:30Z</time>
      </trkpt>
      <trkpt lat="46.17255" lon="2.48485">
        <ele>459</ele>
        <time>2015-04-08T15:46:32Z</time>
      </trkpt>
      <trkpt lat="46.17258" lon="2.48487">
        <ele>459</ele>
        <time>2015-04-08T15:46:34Z</time>
      </trkpt>
      <trkpt lat="46.17261" lon="2.48489">
        <ele>459</ele>
        <time>2015-04-08T15:46:36Z</time>
      </trkpt>
      <trkpt lat="46.17264" lon="2.4849">
        <ele>459</ele>
        <time>2015-04-08T15:46:38Z</time>
      </trkpt>
      <trkpt lat="46.17267" lon="2.48492">
        <ele>459</ele>
        <time>2015-04-08T15:46:40Z</time>
      </trkpt>
      <trkpt lat="46.17269" lon="2.48495">
        <ele>459</ele>
        <time>2015-04-08T15:46:42Z</time>
      </trkpt>
      <trkpt lat="46.17272" lon="2.48496">
        <ele>459</ele>
        <time>2015-04-08T15:46:44Z</time>
      </trkpt>
      <trkpt lat="46.17274" lon="2.48498">
        <ele>459</ele>
        <time>2015-04-08T15:46:46Z</time>
      </trkpt>
      <trkpt lat="46.17278" lon="2.48499">
        <ele>459</ele>
        <time>2015-04-08T15:46:48Z</time>
      </trkpt>
      <trkpt lat="46.1728" lon="2.485">
        <ele>459</ele>
        <time>2015-04-08T15:46:50Z</time>
      </trkpt>
      <trkpt lat="46.17283" lon="2.48502">
        <ele>459</ele>
        <time>2015-04-08T15:46:52Z</time>
      </trkpt>
      <trkpt lat="46.17286" lon="2.48504">
        <ele>459</ele>
        <time>2015-04-08T15:46:54Z</time>
      </trkpt>
      <trkpt lat="46.17288" lon="2.48505">
        <ele>459</ele>
        <time>2015-04-08T15:46:56Z</time>
      </trkpt>
      <trkpt lat="46.17291" lon="2.48507">
        <ele>459</ele>
        <time>2015-04-08T15:46:58Z</time>
      </trkpt>
      <trkpt lat="46.17293" lon="2.48508">
        <ele>459</ele>
        <time>2015-04-08T15:47:00Z</time>
      </trkpt>
      <trkpt lat="46.17296" lon="2.4851">
        <ele>459</ele>
        <time>2015-04-08T15:47:02Z</time>
      </trkpt>
      <trkpt lat="46.17299" lon="2.48512">
        <ele>459</ele>
        <time>2015-04-08T15:47:04Z</time>
      </trkpt>
      <trkpt lat="46.17302" lon="2.48513">
        <ele>459</ele>
        <time>2015-04-08T15:47:06Z</time>
      </trkpt>
      <trkpt lat="46.17305" lon="2.48515">
        <ele>459</ele>
        <time>2015-04-08T15:47:08Z</time>
      </trkpt>
      <trkpt lat="46.17308" lon="2.48517">
        <ele>459</ele>
        <time>2015-04-08T15:47:10Z</time>
      </trkpt>
      <trkpt lat="46.17311" lon="2.48518">
        <ele>459</ele>
        <time>2015-04-08T15:47:12Z</time>
      </trkpt>
      <trkpt lat="46.17314" lon="2.48519">
        <ele>459</ele>
        <time>2015-04-08T15:47:14Z</time>
      </trkpt>
      <trkpt lat="46.17316" lon="2.48521">
        <ele>459</ele>
        <time>2015-04-08T15:47:16Z</time>
      </trkpt>
      <trkpt lat="46.17318" lon="2.48523">
        <ele>459</ele>
        <time>2015-04-08T15:47:18Z</time>
      </trkpt>
      <trkpt lat="46.17322" lon="2.48524">
        <ele>459</ele>
        <time>2015-04-08T15:47:21Z</time>
      </trkpt>
      <trkpt lat="46.17324" lon="2.48526">
        <ele>459</ele>
        <time>2015-04-08T15:47:23Z</time>
      </trkpt>
      <trkpt lat="46.17326" lon="2.48527">
        <ele>459</ele>
        <time>2015-04-08T15:47:25Z</time>
      </trkpt>
      <trkpt lat="46.17329" lon="2.48527">
        <ele>459</ele>
        <time>2015-04-08T15:47:27Z</time>
      </trkpt>
      <trkpt lat="46.17331" lon="2.48528">
        <ele>459</ele>
        <time>2015-04-08T15:47:29Z</time>
      </trkpt>
      <trkpt lat="46.17334" lon="2.48528">
        <ele>459</ele>
        <time>2015-04-08T15:47:31Z</time>
      </trkpt>
      <trkpt lat="46.17337" lon="2.48528">
        <ele>459</ele>
        <time>2015-04-08T15:47:33Z</time>
      </trkpt>
      <trkpt lat="46.17341" lon="2.48528">
        <ele>459</ele>
        <time>2015-04-08T15:47:35Z</time>
      </trkpt>
      <trkpt lat="46.17344" lon="2.48528">
        <ele>459</ele>
        <time>2015-04-08T15:47:37Z</time>
      </trkpt>
      <trkpt lat="46.17347" lon="2.48528">
        <ele>459</ele>
        <time>2015-04-08T15:47:39Z</time>
      </trkpt>
      <trkpt lat="46.1735" lon="2.48529">
        <ele>459</ele>
        <time>2015-04-08T15:47:41Z</time>
      </trkpt>
      <trkpt lat="46.17353" lon="2.48529">
        <ele>459</ele>
        <time>2015-04-08T15:47:43Z</time>
      </trkpt>
      <trkpt lat="46.17356" lon="2.48528">
        <ele>459</ele>
        <time>2015-04-08T15:47:45Z</time>
      </trkpt>
      <trkpt lat="46.17359" lon="2.48527">
        <ele>459</ele>
        <time>2015-04-08T15:47:47Z</time>
      </trkpt>
      <trkpt lat="46.17362" lon="2.48527">
        <ele>459</ele>
        <time>2015-04-08T15:47:49Z</time>
      </trkpt>
      <trkpt lat="46.17365" lon="2.48526">
        <ele>459</ele>
        <time>2015-04-08T15:47:51Z</time>
      </trkpt>
      <trkpt lat="46.17367" lon="2.48526">
        <ele>459</ele>
        <time>2015-04-08T15:47:53Z</time>
      </trkpt>
      <trkpt lat="46.1737" lon="2.48526">
        <ele>459</ele>
        <time>2015-04-08T15:47:55Z</time>
      </trkpt>
      <trkpt lat="46.17372" lon="2.48526">
        <ele>459</ele>
        <time>2015-04-08T15:47:57Z</time>
      </trkpt>
      <trkpt lat="46.17375" lon="2.48526">
        <ele>459</ele>
        <time>2015-04-08T15:47:59Z</time>
      </trkpt>
      <trkpt lat="46.17378" lon="2.48526">
        <ele>459</ele>
        <time>2015-04-08T15:48:03Z</time>
      </trkpt>
      <trkpt lat="46.17381" lon="2.48527">
        <ele>459</ele>
        <time>2015-04-08T15:48:05Z</time>
      </trkpt>
      <trkpt lat="46.17384" lon="2.48527">
        <ele>459</ele>
        <time>2015-04-08T15:48:07Z</time>
      </trkpt>
      <trkpt lat="46.17386" lon="2.48526">
        <ele>460</ele>
        <time>2015-04-08T15:48:10Z</time>
      </trkpt>
      <trkpt lat="46.17387" lon="2.48523">
        <ele>460</ele>
        <time>2015-04-08T15:48:12Z</time>
      </trkpt>
      <trkpt lat="46.17391" lon="2.48522">
        <ele>460</ele>
        <time>2015-04-08T15:48:14Z</time>
      </trkpt>
      <trkpt lat="46.17395" lon="2.48522">
        <ele>460</ele>
        <time>2015-04-08T15:48:16Z</time>
      </trkpt>
      <trkpt lat="46.17398" lon="2.48522">
        <ele>461</ele>
        <time>2015-04-08T15:48:18Z</time>
      </trkpt>
      <trkpt lat="46.17401" lon="2.48521">
        <ele>461</ele>
        <time>2015-04-08T15:48:20Z</time>
      </trkpt>
      <trkpt lat="46.17405" lon="2.48521">
        <ele>461</ele>
        <time>2015-04-08T15:48:22Z</time>
      </trkpt>
      <trkpt lat="46.17408" lon="2.48522">
        <ele>461</ele>
        <time>2015-04-08T15:48:24Z</time>
      </trkpt>
      <trkpt lat="46.17412" lon="2.48523">
        <ele>461</ele>
        <time>2015-04-08T15:48:26Z</time>
      </trkpt>
      <trkpt lat="46.17416" lon="2.48523">
        <ele>461</ele>
        <time>2015-04-08T15:48:29Z</time>
      </trkpt>
      <trkpt lat="46.17417" lon="2.48526">
        <ele>461</ele>
        <time>2015-04-08T15:48:31Z</time>
      </trkpt>
      <trkpt lat="46.17417" lon="2.48531">
        <ele>461</ele>
        <time>2015-04-08T15:48:33Z</time>
      </trkpt>
      <trkpt lat="46.17415" lon="2.48536">
        <ele>461</ele>
        <time>2015-04-08T15:48:35Z</time>
      </trkpt>
      <trkpt lat="46.17416" lon="2.48542">
        <ele>461</ele>
        <time>2015-04-08T15:48:37Z</time>
      </trkpt>
      <trkpt lat="46.17416" lon="2.48548">
        <ele>461</ele>
        <time>2015-04-08T15:48:39Z</time>
      </trkpt>
      <trkpt lat="46.17416" lon="2.48552">
        <ele>461</ele>
        <time>2015-04-08T15:48:41Z</time>
      </trkpt>
      <trkpt lat="46.17416" lon="2.48556">
        <ele>461</ele>
        <time>2015-04-08T15:48:43Z</time>
      </trkpt>
      <trkpt lat="46.17418" lon="2.48561">
        <ele>461</ele>
        <time>2015-04-08T15:48:45Z</time>
      </trkpt>
      <trkpt lat="46.17419" lon="2.48563">
        <ele>461</ele>
        <time>2015-04-08T15:48:47Z</time>
      </trkpt>
      <trkpt lat="46.17419" lon="2.48565">
        <ele>461</ele>
        <time>2015-04-08T15:48:49Z</time>
      </trkpt>
      <trkpt lat="46.17418" lon="2.48568">
        <ele>461</ele>
        <time>2015-04-08T15:48:51Z</time>
      </trkpt>
      <trkpt lat="46.17417" lon="2.48572">
        <ele>461</ele>
        <time>2015-04-08T15:48:53Z</time>
      </trkpt>
      <trkpt lat="46.17416" lon="2.48575">
        <ele>461</ele>
        <time>2015-04-08T15:48:55Z</time>
      </trkpt>
      <trkpt lat="46.17414" lon="2.48579">
        <ele>461</ele>
        <time>2015-04-08T15:48:57Z</time>
      </trkpt>
      <trkpt lat="46.17413" lon="2.48584">
        <ele>461</ele>
        <time>2015-04-08T15:48:59Z</time>
      </trkpt>
      <trkpt lat="46.17413" lon="2.48589">
        <ele>461</ele>
        <time>2015-04-08T15:49:01Z</time>
      </trkpt>
      <trkpt lat="46.17413" lon="2.48593">
        <ele>462</ele>
        <time>2015-04-08T15:49:03Z</time>
      </trkpt>
      <trkpt lat="46.17415" lon="2.48598">
        <ele>462</ele>
        <time>2015-04-08T15:49:05Z</time>
      </trkpt>
      <trkpt lat="46.17414" lon="2.48603">
        <ele>463</ele>
        <time>2015-04-08T15:49:07Z</time>
      </trkpt>
      <trkpt lat="46.17414" lon="2.48607">
        <ele>463</ele>
        <time>2015-04-08T15:49:09Z</time>
      </trkpt>
      <trkpt lat="46.17415" lon="2.4861">
        <ele>463</ele>
        <time>2015-04-08T15:49:11Z</time>
      </trkpt>
      <trkpt lat="46.17414" lon="2.48615">
        <ele>463</ele>
        <time>2015-04-08T15:49:13Z</time>
      </trkpt>
      <trkpt lat="46.17414" lon="2.4862">
        <ele>463</ele>
        <time>2015-04-08T15:49:15Z</time>
      </trkpt>
      <trkpt lat="46.17414" lon="2.48623">
        <ele>463</ele>
        <time>2015-04-08T15:49:17Z</time>
      </trkpt>
      <trkpt lat="46.17415" lon="2.48627">
        <ele>463</ele>
        <time>2015-04-08T15:49:19Z</time>
      </trkpt>
      <trkpt lat="46.17415" lon="2.48631">
        <ele>463</ele>
        <time>2015-04-08T15:49:21Z</time>
      </trkpt>
      <trkpt lat="46.17415" lon="2.48634">
        <ele>463</ele>
        <time>2015-04-08T15:49:23Z</time>
      </trkpt>
      <trkpt lat="46.17415" lon="2.48638">
        <ele>463</ele>
        <time>2015-04-08T15:49:25Z</time>
      </trkpt>
      <trkpt lat="46.17414" lon="2.48642">
        <ele>463</ele>
        <time>2015-04-08T15:49:27Z</time>
      </trkpt>
      <trkpt lat="46.17414" lon="2.48646">
        <ele>463</ele>
        <time>2015-04-08T15:49:29Z</time>
      </trkpt>
      <trkpt lat="46.17414" lon="2.4865">
        <ele>463</ele>
        <time>2015-04-08T15:49:31Z</time>
      </trkpt>
      <trkpt lat="46.17413" lon="2.48654">
        <ele>463</ele>
        <time>2015-04-08T15:49:33Z</time>
      </trkpt>
      <trkpt lat="46.17412" lon="2.48657">
        <ele>463</ele>
        <time>2015-04-08T15:49:35Z</time>
      </trkpt>
      <trkpt lat="46.17411" lon="2.48662">
        <ele>463</ele>
        <time>2015-04-08T15:49:37Z</time>
      </trkpt>
      <trkpt lat="46.1741" lon="2.48666">
        <ele>463</ele>
        <time>2015-04-08T15:49:39Z</time>
      </trkpt>
      <trkpt lat="46.17409" lon="2.4867">
        <ele>463</ele>
        <time>2015-04-08T15:49:41Z</time>
      </trkpt>
      <trkpt lat="46.17408" lon="2.48673">
        <ele>463</ele>
        <time>2015-04-08T15:49:43Z</time>
      </trkpt>
      <trkpt lat="46.17406" lon="2.48677">
        <ele>463</ele>
        <time>2015-04-08T15:49:45Z</time>
      </trkpt>
      <trkpt lat="46.17408" lon="2.48681">
        <ele>462</ele>
        <time>2015-04-08T15:49:47Z</time>
      </trkpt>
      <trkpt lat="46.17409" lon="2.48686">
        <ele>462</ele>
        <time>2015-04-08T15:49:49Z</time>
      </trkpt>
      <trkpt lat="46.17411" lon="2.4869">
        <ele>462</ele>
        <time>2015-04-08T15:49:52Z</time>
      </trkpt>
      <trkpt lat="46.17398" lon="2.48673">
        <ele>464</ele>
        <time>2015-04-08T15:49:58Z</time>
      </trkpt>
      <trkpt lat="46.17405" lon="2.48677">
        <ele>463</ele>
        <time>2015-04-08T15:50:00Z</time>
      </trkpt>
      <trkpt lat="46.1741" lon="2.48682">
        <ele>462</ele>
        <time>2015-04-08T15:50:02Z</time>
      </trkpt>
      <trkpt lat="46.17412" lon="2.48687">
        <ele>462</ele>
        <time>2015-04-08T15:50:04Z</time>
      </trkpt>
      <trkpt lat="46.17413" lon="2.48691">
        <ele>462</ele>
        <time>2015-04-08T15:50:06Z</time>
      </trkpt>
      <trkpt lat="46.17413" lon="2.48696">
        <ele>462</ele>
        <time>2015-04-08T15:50:08Z</time>
      </trkpt>
      <trkpt lat="46.17415" lon="2.487">
        <ele>462</ele>
        <time>2015-04-08T15:50:10Z</time>
      </trkpt>
      <trkpt lat="46.17416" lon="2.48704">
        <ele>462</ele>
        <time>2015-04-08T15:50:12Z</time>
      </trkpt>
      <trkpt lat="46.17417" lon="2.48707">
        <ele>462</ele>
        <time>2015-04-08T15:50:14Z</time>
      </trkpt>
      <trkpt lat="46.17417" lon="2.4871">
        <ele>462</ele>
        <time>2015-04-08T15:50:16Z</time>
      </trkpt>
      <trkpt lat="46.17418" lon="2.48714">
        <ele>464</ele>
        <time>2015-04-08T15:50:18Z</time>
      </trkpt>
      <trkpt lat="46.1742" lon="2.48716">
        <ele>466</ele>
        <time>2015-04-08T15:50:20Z</time>
      </trkpt>
      <trkpt lat="46.17422" lon="2.48716">
        <ele>468</ele>
        <time>2015-04-08T15:50:22Z</time>
      </trkpt>
      <trkpt lat="46.17425" lon="2.48717">
        <ele>468</ele>
        <time>2015-04-08T15:50:24Z</time>
      </trkpt>
      <trkpt lat="46.17429" lon="2.48717">
        <ele>468</ele>
        <time>2015-04-08T15:50:26Z</time>
      </trkpt>
      <trkpt lat="46.17433" lon="2.48719">
        <ele>468</ele>
        <time>2015-04-08T15:50:28Z</time>
      </trkpt>
      <trkpt lat="46.17437" lon="2.48719">
        <ele>468</ele>
        <time>2015-04-08T15:50:30Z</time>
      </trkpt>
      <trkpt lat="46.1744" lon="2.48721">
        <ele>468</ele>
        <time>2015-04-08T15:50:33Z</time>
      </trkpt>
      <trkpt lat="46.17443" lon="2.48723">
        <ele>468</ele>
        <time>2015-04-08T15:50:35Z</time>
      </trkpt>
      <trkpt lat="46.17446" lon="2.48726">
        <ele>468</ele>
        <time>2015-04-08T15:50:37Z</time>
      </trkpt>
      <trkpt lat="46.17449" lon="2.48727">
        <ele>468</ele>
        <time>2015-04-08T15:50:39Z</time>
      </trkpt>
      <trkpt lat="46.17452" lon="2.48728">
        <ele>468</ele>
        <time>2015-04-08T15:50:41Z</time>
      </trkpt>
      <trkpt lat="46.17456" lon="2.48731">
        <ele>466</ele>
        <time>2015-04-08T15:50:43Z</time>
      </trkpt>
      <trkpt lat="46.17459" lon="2.48732">
        <ele>464</ele>
        <time>2015-04-08T15:50:45Z</time>
      </trkpt>
      <trkpt lat="46.17462" lon="2.48732">
        <ele>464</ele>
        <time>2015-04-08T15:50:47Z</time>
      </trkpt>
      <trkpt lat="46.17466" lon="2.48732">
        <ele>463</ele>
        <time>2015-04-08T15:50:49Z</time>
      </trkpt>
      <trkpt lat="46.17469" lon="2.48732">
        <ele>463</ele>
        <time>2015-04-08T15:50:51Z</time>
      </trkpt>
      <trkpt lat="46.17472" lon="2.48733">
        <ele>462</ele>
        <time>2015-04-08T15:50:53Z</time>
      </trkpt>
      <trkpt lat="46.17474" lon="2.48733">
        <ele>461</ele>
        <time>2015-04-08T15:50:55Z</time>
      </trkpt>
      <trkpt lat="46.17476" lon="2.48733">
        <ele>461</ele>
        <time>2015-04-08T15:50:57Z</time>
      </trkpt>
      <trkpt lat="46.17478" lon="2.48733">
        <ele>460</ele>
        <time>2015-04-08T15:50:59Z</time>
      </trkpt>
      <trkpt lat="46.1748" lon="2.48733">
        <ele>460</ele>
        <time>2015-04-08T15:51:01Z</time>
      </trkpt>
      <trkpt lat="46.17481" lon="2.48733">
        <ele>459</ele>
        <time>2015-04-08T15:51:03Z</time>
      </trkpt>
      <trkpt lat="46.17483" lon="2.48731">
        <ele>459</ele>
        <time>2015-04-08T15:51:06Z</time>
      </trkpt>
      <trkpt lat="46.17486" lon="2.48731">
        <ele>458</ele>
        <time>2015-04-08T15:51:08Z</time>
      </trkpt>
      <trkpt lat="46.17489" lon="2.48732">
        <ele>458</ele>
        <time>2015-04-08T15:51:10Z</time>
      </trkpt>
      <trkpt lat="46.17492" lon="2.48732">
        <ele>458</ele>
        <time>2015-04-08T15:51:12Z</time>
      </trkpt>
      <trkpt lat="46.17494" lon="2.4873">
        <ele>457</ele>
        <time>2015-04-08T15:51:14Z</time>
      </trkpt>
      <trkpt lat="46.17497" lon="2.48729">
        <ele>456</ele>
        <time>2015-04-08T15:51:16Z</time>
      </trkpt>
      <trkpt lat="46.17502" lon="2.48727">
        <ele>456</ele>
        <time>2015-04-08T15:51:18Z</time>
      </trkpt>
      <trkpt lat="46.17505" lon="2.48725">
        <ele>456</ele>
        <time>2015-04-08T15:51:20Z</time>
      </trkpt>
      <trkpt lat="46.17507" lon="2.48721">
        <ele>456</ele>
        <time>2015-04-08T15:51:22Z</time>
      </trkpt>
      <trkpt lat="46.17509" lon="2.48718">
        <ele>456</ele>
        <time>2015-04-08T15:51:24Z</time>
      </trkpt>
      <trkpt lat="46.17513" lon="2.48715">
        <ele>456</ele>
        <time>2015-04-08T15:51:27Z</time>
      </trkpt>
      <trkpt lat="46.17516" lon="2.48714">
        <ele>456</ele>
        <time>2015-04-08T15:51:29Z</time>
      </trkpt>
      <trkpt lat="46.1752" lon="2.48711">
        <ele>456</ele>
        <time>2015-04-08T15:51:31Z</time>
      </trkpt>
      <trkpt lat="46.17522" lon="2.48708">
        <ele>456</ele>
        <time>2015-04-08T15:51:33Z</time>
      </trkpt>
      <trkpt lat="46.17526" lon="2.48706">
        <ele>456</ele>
        <time>2015-04-08T15:51:36Z</time>
      </trkpt>
      <trkpt lat="46.17528" lon="2.48702">
        <ele>456</ele>
        <time>2015-04-08T15:51:38Z</time>
      </trkpt>
      <trkpt lat="46.1753" lon="2.48701">
        <ele>455</ele>
        <time>2015-04-08T15:51:40Z</time>
      </trkpt>
      <trkpt lat="46.17533" lon="2.48702">
        <ele>455</ele>
        <time>2015-04-08T15:51:42Z</time>
      </trkpt>
      <trkpt lat="46.17537" lon="2.48702">
        <ele>454</ele>
        <time>2015-04-08T15:51:44Z</time>
      </trkpt>
      <trkpt lat="46.1754" lon="2.487">
        <ele>454</ele>
        <time>2015-04-08T15:51:46Z</time>
      </trkpt>
      <trkpt lat="46.17545" lon="2.48699">
        <ele>454</ele>
        <time>2015-04-08T15:51:48Z</time>
      </trkpt>
      <trkpt lat="46.17547" lon="2.48697">
        <ele>454</ele>
        <time>2015-04-08T15:51:50Z</time>
      </trkpt>
      <trkpt lat="46.17551" lon="2.48698">
        <ele>454</ele>
        <time>2015-04-08T15:51:52Z</time>
      </trkpt>
      <trkpt lat="46.17552" lon="2.48699">
        <ele>454</ele>
        <time>2015-04-08T15:51:54Z</time>
      </trkpt>
      <trkpt lat="46.17555" lon="2.48699">
        <ele>454</ele>
        <time>2015-04-08T15:51:56Z</time>
      </trkpt>
      <trkpt lat="46.17556" lon="2.48701">
        <ele>455</ele>
        <time>2015-04-08T15:52:03Z</time>
      </trkpt>
      <trkpt lat="46.17555" lon="2.487">
        <ele>457</ele>
        <time>2015-04-08T15:52:08Z</time>
      </trkpt>
      <trkpt lat="46.17558" lon="2.487">
        <ele>459</ele>
        <time>2015-04-08T15:52:11Z</time>
      </trkpt>
      <trkpt lat="46.17559" lon="2.48698">
        <ele>460</ele>
        <time>2015-04-08T15:52:14Z</time>
      </trkpt>
      <trkpt lat="46.17562" lon="2.48697">
        <ele>460</ele>
        <time>2015-04-08T15:52:16Z</time>
      </trkpt>
      <trkpt lat="46.17565" lon="2.48694">
        <ele>460</ele>
        <time>2015-04-08T15:52:19Z</time>
      </trkpt>
      <trkpt lat="46.17567" lon="2.48691">
        <ele>460</ele>
        <time>2015-04-08T15:52:22Z</time>
      </trkpt>
      <trkpt lat="46.1757" lon="2.48692">
        <ele>460</ele>
        <time>2015-04-08T15:52:24Z</time>
      </trkpt>
      <trkpt lat="46.17573" lon="2.48692">
        <ele>460</ele>
        <time>2015-04-08T15:52:26Z</time>
      </trkpt>
      <trkpt lat="46.17576" lon="2.4869">
        <ele>460</ele>
        <time>2015-04-08T15:52:28Z</time>
      </trkpt>
      <trkpt lat="46.17579" lon="2.48688">
        <ele>460</ele>
        <time>2015-04-08T15:52:31Z</time>
      </trkpt>
      <trkpt lat="46.17583" lon="2.48687">
        <ele>460</ele>
        <time>2015-04-08T15:52:33Z</time>
      </trkpt>
      <trkpt lat="46.17585" lon="2.48684">
        <ele>459</ele>
        <time>2015-04-08T15:52:36Z</time>
      </trkpt>
      <trkpt lat="46.17587" lon="2.48682">
        <ele>458</ele>
        <time>2015-04-08T15:52:38Z</time>
      </trkpt>
      <trkpt lat="46.17591" lon="2.48678">
        <ele>457</ele>
        <time>2015-04-08T15:52:41Z</time>
      </trkpt>
      <trkpt lat="46.17593" lon="2.48674">
        <ele>457</ele>
        <time>2015-04-08T15:52:43Z</time>
      </trkpt>
      <trkpt lat="46.17596" lon="2.4867">
        <ele>457</ele>
        <time>2015-04-08T15:52:45Z</time>
      </trkpt>
      <trkpt lat="46.17597" lon="2.48665">
        <ele>457</ele>
        <time>2015-04-08T15:52:47Z</time>
      </trkpt>
      <trkpt lat="46.17597" lon="2.48661">
        <ele>457</ele>
        <time>2015-04-08T15:52:49Z</time>
      </trkpt>
      <trkpt lat="46.17598" lon="2.48657">
        <ele>457</ele>
        <time>2015-04-08T15:52:51Z</time>
      </trkpt>
      <trkpt lat="46.17598" lon="2.48653">
        <ele>459</ele>
        <time>2015-04-08T15:52:53Z</time>
      </trkpt>
      <trkpt lat="46.17599" lon="2.48649">
        <ele>459</ele>
        <time>2015-04-08T15:52:55Z</time>
      </trkpt>
      <trkpt lat="46.17601" lon="2.48649">
        <ele>460</ele>
        <time>2015-04-08T15:53:00Z</time>
      </trkpt>
      <trkpt lat="46.17601" lon="2.48651">
        <ele>460</ele>
        <time>2015-04-08T15:53:02Z</time>
      </trkpt>
      <trkpt lat="46.17602" lon="2.4865">
        <ele>460</ele>
        <time>2015-04-08T15:53:04Z</time>
      </trkpt>
      <trkpt lat="46.17603" lon="2.48646">
        <ele>460</ele>
        <time>2015-04-08T15:53:06Z</time>
      </trkpt>
      <trkpt lat="46.17605" lon="2.48643">
        <ele>460</ele>
        <time>2015-04-08T15:53:08Z</time>
      </trkpt>
      <trkpt lat="46.17609" lon="2.48642">
        <ele>460</ele>
        <time>2015-04-08T15:53:10Z</time>
      </trkpt>
      <trkpt lat="46.17612" lon="2.4864">
        <ele>460</ele>
        <time>2015-04-08T15:53:12Z</time>
      </trkpt>
      <trkpt lat="46.17616" lon="2.48639">
        <ele>460</ele>
        <time>2015-04-08T15:53:14Z</time>
      </trkpt>
      <trkpt lat="46.17619" lon="2.48637">
        <ele>461</ele>
        <time>2015-04-08T15:53:16Z</time>
      </trkpt>
      <trkpt lat="46.17622" lon="2.48634">
        <ele>462</ele>
        <time>2015-04-08T15:53:18Z</time>
      </trkpt>
      <trkpt lat="46.17625" lon="2.48629">
        <ele>463</ele>
        <time>2015-04-08T15:53:21Z</time>
      </trkpt>
      <trkpt lat="46.17627" lon="2.48627">
        <ele>463</ele>
        <time>2015-04-08T15:53:23Z</time>
      </trkpt>
      <trkpt lat="46.1763" lon="2.48623">
        <ele>463</ele>
        <time>2015-04-08T15:53:26Z</time>
      </trkpt>
      <trkpt lat="46.17632" lon="2.48622">
        <ele>463</ele>
        <time>2015-04-08T15:53:28Z</time>
      </trkpt>
      <trkpt lat="46.17635" lon="2.48623">
        <ele>463</ele>
        <time>2015-04-08T15:53:30Z</time>
      </trkpt>
      <trkpt lat="46.17638" lon="2.48622">
        <ele>463</ele>
        <time>2015-04-08T15:53:32Z</time>
      </trkpt>
      <trkpt lat="46.17641" lon="2.48622">
        <ele>463</ele>
        <time>2015-04-08T15:53:34Z</time>
      </trkpt>
      <trkpt lat="46.17644" lon="2.48621">
        <ele>463</ele>
        <time>2015-04-08T15:53:36Z</time>
      </trkpt>
      <trkpt lat="46.17646" lon="2.48618">
        <ele>462</ele>
        <time>2015-04-08T15:53:39Z</time>
      </trkpt>
      <trkpt lat="46.17648" lon="2.48618">
        <ele>462</ele>
        <time>2015-04-08T15:53:41Z</time>
      </trkpt>
      <trkpt lat="46.1765" lon="2.48618">
        <ele>462</ele>
        <time>2015-04-08T15:53:43Z</time>
      </trkpt>
      <trkpt lat="46.17653" lon="2.48617">
        <ele>461</ele>
        <time>2015-04-08T15:53:45Z</time>
      </trkpt>
      <trkpt lat="46.17655" lon="2.48616">
        <ele>461</ele>
        <time>2015-04-08T15:53:47Z</time>
      </trkpt>
      <trkpt lat="46.17658" lon="2.48616">
        <ele>460</ele>
        <time>2015-04-08T15:53:49Z</time>
      </trkpt>
      <trkpt lat="46.17661" lon="2.48616">
        <ele>460</ele>
        <time>2015-04-08T15:53:51Z</time>
      </trkpt>
      <trkpt lat="46.17664" lon="2.48616">
        <ele>459</ele>
        <time>2015-04-08T15:53:53Z</time>
      </trkpt>
      <trkpt lat="46.17667" lon="2.48615">
        <ele>459</ele>
        <time>2015-04-08T15:53:55Z</time>
      </trkpt>
      <trkpt lat="46.17669" lon="2.48615">
        <ele>459</ele>
        <time>2015-04-08T15:53:57Z</time>
      </trkpt>
      <trkpt lat="46.17672" lon="2.48615">
        <ele>458</ele>
        <time>2015-04-08T15:53:59Z</time>
      </trkpt>
      <trkpt lat="46.17675" lon="2.48616">
        <ele>458</ele>
        <time>2015-04-08T15:54:01Z</time>
      </trkpt>
      <trkpt lat="46.17677" lon="2.48618">
        <ele>458</ele>
        <time>2015-04-08T15:54:03Z</time>
      </trkpt>
      <trkpt lat="46.17678" lon="2.48621">
        <ele>457</ele>
        <time>2015-04-08T15:54:05Z</time>
      </trkpt>
      <trkpt lat="46.1768" lon="2.48624">
        <ele>457</ele>
        <time>2015-04-08T15:54:07Z</time>
      </trkpt>
      <trkpt lat="46.1768" lon="2.48628">
        <ele>457</ele>
        <time>2015-04-08T15:54:09Z</time>
      </trkpt>
      <trkpt lat="46.17682" lon="2.48632">
        <ele>457</ele>
        <time>2015-04-08T15:54:11Z</time>
      </trkpt>
      <trkpt lat="46.17683" lon="2.48636">
        <ele>457</ele>
        <time>2015-04-08T15:54:13Z</time>
      </trkpt>
      <trkpt lat="46.17683" lon="2.4864">
        <ele>457</ele>
        <time>2015-04-08T15:54:15Z</time>
      </trkpt>
      <trkpt lat="46.17683" lon="2.48644">
        <ele>457</ele>
        <time>2015-04-08T15:54:17Z</time>
      </trkpt>
      <trkpt lat="46.17683" lon="2.48649">
        <ele>457</ele>
        <time>2015-04-08T15:54:19Z</time>
      </trkpt>
      <trkpt lat="46.17684" lon="2.48654">
        <ele>457</ele>
        <time>2015-04-08T15:54:21Z</time>
      </trkpt>
      <trkpt lat="46.17684" lon="2.48658">
        <ele>457</ele>
        <time>2015-04-08T15:54:23Z</time>
      </trkpt>
      <trkpt lat="46.17685" lon="2.48661">
        <ele>457</ele>
        <time>2015-04-08T15:54:25Z</time>
      </trkpt>
      <trkpt lat="46.17687" lon="2.48664">
        <ele>457</ele>
        <time>2015-04-08T15:54:28Z</time>
      </trkpt>
      <trkpt lat="46.17689" lon="2.48667">
        <ele>456</ele>
        <time>2015-04-08T15:54:30Z</time>
      </trkpt>
      <trkpt lat="46.17691" lon="2.48668">
        <ele>456</ele>
        <time>2015-04-08T15:54:32Z</time>
      </trkpt>
      <trkpt lat="46.17692" lon="2.4867">
        <ele>455</ele>
        <time>2015-04-08T15:54:34Z</time>
      </trkpt>
      <trkpt lat="46.17694" lon="2.48672">
        <ele>454</ele>
        <time>2015-04-08T15:54:36Z</time>
      </trkpt>
      <trkpt lat="46.17695" lon="2.48675">
        <ele>453</ele>
        <time>2015-04-08T15:54:38Z</time>
      </trkpt>
      <trkpt lat="46.17696" lon="2.48678">
        <ele>452</ele>
        <time>2015-04-08T15:54:40Z</time>
      </trkpt>
      <trkpt lat="46.17697" lon="2.48681">
        <ele>452</ele>
        <time>2015-04-08T15:54:42Z</time>
      </trkpt>
      <trkpt lat="46.17698" lon="2.48685">
        <ele>452</ele>
        <time>2015-04-08T15:54:44Z</time>
      </trkpt>
      <trkpt lat="46.17699" lon="2.48688">
        <ele>452</ele>
        <time>2015-04-08T15:54:46Z</time>
      </trkpt>
      <trkpt lat="46.17701" lon="2.4869">
        <ele>452</ele>
        <time>2015-04-08T15:54:48Z</time>
      </trkpt>
      <trkpt lat="46.17704" lon="2.48692">
        <ele>452</ele>
        <time>2015-04-08T15:54:51Z</time>
      </trkpt>
      <trkpt lat="46.17706" lon="2.48695">
        <ele>452</ele>
        <time>2015-04-08T15:54:53Z</time>
      </trkpt>
      <trkpt lat="46.17707" lon="2.48699">
        <ele>452</ele>
        <time>2015-04-08T15:54:55Z</time>
      </trkpt>
      <trkpt lat="46.17709" lon="2.48703">
        <ele>452</ele>
        <time>2015-04-08T15:54:57Z</time>
      </trkpt>
      <trkpt lat="46.1771" lon="2.48707">
        <ele>452</ele>
        <time>2015-04-08T15:54:59Z</time>
      </trkpt>
      <trkpt lat="46.1771" lon="2.48711">
        <ele>452</ele>
        <time>2015-04-08T15:55:01Z</time>
      </trkpt>
      <trkpt lat="46.1771" lon="2.48716">
        <ele>452</ele>
        <time>2015-04-08T15:55:03Z</time>
      </trkpt>
      <trkpt lat="46.1771" lon="2.48721">
        <ele>452</ele>
        <time>2015-04-08T15:55:05Z</time>
      </trkpt>
      <trkpt lat="46.1771" lon="2.48725">
        <ele>452</ele>
        <time>2015-04-08T15:55:07Z</time>
      </trkpt>
      <trkpt lat="46.17711" lon="2.48729">
        <ele>452</ele>
        <time>2015-04-08T15:55:09Z</time>
      </trkpt>
      <trkpt lat="46.17712" lon="2.48733">
        <ele>452</ele>
        <time>2015-04-08T15:55:11Z</time>
      </trkpt>
      <trkpt lat="46.17712" lon="2.48738">
        <ele>452</ele>
        <time>2015-04-08T15:55:13Z</time>
      </trkpt>
      <trkpt lat="46.17713" lon="2.48741">
        <ele>452</ele>
        <time>2015-04-08T15:55:15Z</time>
      </trkpt>
      <trkpt lat="46.17714" lon="2.48745">
        <ele>452</ele>
        <time>2015-04-08T15:55:17Z</time>
      </trkpt>
      <trkpt lat="46.17715" lon="2.48749">
        <ele>452</ele>
        <time>2015-04-08T15:55:19Z</time>
      </trkpt>
      <trkpt lat="46.17716" lon="2.48753">
        <ele>452</ele>
        <time>2015-04-08T15:55:21Z</time>
      </trkpt>
      <trkpt lat="46.17716" lon="2.48757">
        <ele>452</ele>
        <time>2015-04-08T15:55:23Z</time>
      </trkpt>
      <trkpt lat="46.17716" lon="2.48762">
        <ele>452</ele>
        <time>2015-04-08T15:55:25Z</time>
      </trkpt>
      <trkpt lat="46.17716" lon="2.48766">
        <ele>452</ele>
        <time>2015-04-08T15:55:27Z</time>
      </trkpt>
      <trkpt lat="46.17717" lon="2.4877">
        <ele>452</ele>
        <time>2015-04-08T15:55:29Z</time>
      </trkpt>
      <trkpt lat="46.17717" lon="2.48775">
        <ele>452</ele>
        <time>2015-04-08T15:55:31Z</time>
      </trkpt>
      <trkpt lat="46.17718" lon="2.48779">
        <ele>452</ele>
        <time>2015-04-08T15:55:33Z</time>
      </trkpt>
      <trkpt lat="46.17719" lon="2.48782">
        <ele>452</ele>
        <time>2015-04-08T15:55:35Z</time>
      </trkpt>
      <trkpt lat="46.1772" lon="2.48786">
        <ele>452</ele>
        <time>2015-04-08T15:55:37Z</time>
      </trkpt>
      <trkpt lat="46.1772" lon="2.4879">
        <ele>452</ele>
        <time>2015-04-08T15:55:39Z</time>
      </trkpt>
      <trkpt lat="46.1772" lon="2.48795">
        <ele>452</ele>
        <time>2015-04-08T15:55:41Z</time>
      </trkpt>
      <trkpt lat="46.17722" lon="2.48799">
        <ele>452</ele>
        <time>2015-04-08T15:55:43Z</time>
      </trkpt>
      <trkpt lat="46.17723" lon="2.48803">
        <ele>452</ele>
        <time>2015-04-08T15:55:45Z</time>
      </trkpt>
      <trkpt lat="46.17723" lon="2.48808">
        <ele>452</ele>
        <time>2015-04-08T15:55:47Z</time>
      </trkpt>
      <trkpt lat="46.17723" lon="2.48813">
        <ele>452</ele>
        <time>2015-04-08T15:55:49Z</time>
      </trkpt>
      <trkpt lat="46.17724" lon="2.48817">
        <ele>452</ele>
        <time>2015-04-08T15:55:51Z</time>
      </trkpt>
      <trkpt lat="46.17725" lon="2.48821">
        <ele>452</ele>
        <time>2015-04-08T15:55:53Z</time>
      </trkpt>
      <trkpt lat="46.17727" lon="2.48824">
        <ele>452</ele>
        <time>2015-04-08T15:55:55Z</time>
      </trkpt>
      <trkpt lat="46.17729" lon="2.48828">
        <ele>452</ele>
        <time>2015-04-08T15:55:57Z</time>
      </trkpt>
      <trkpt lat="46.1773" lon="2.48831">
        <ele>452</ele>
        <time>2015-04-08T15:55:59Z</time>
      </trkpt>
      <trkpt lat="46.17732" lon="2.48834">
        <ele>451</ele>
        <time>2015-04-08T15:56:01Z</time>
      </trkpt>
      <trkpt lat="46.17734" lon="2.48837">
        <ele>451</ele>
        <time>2015-04-08T15:56:03Z</time>
      </trkpt>
      <trkpt lat="46.17736" lon="2.4884">
        <ele>451</ele>
        <time>2015-04-08T15:56:05Z</time>
      </trkpt>
      <trkpt lat="46.17738" lon="2.48842">
        <ele>451</ele>
        <time>2015-04-08T15:56:07Z</time>
      </trkpt>
      <trkpt lat="46.17741" lon="2.48845">
        <ele>450</ele>
        <time>2015-04-08T15:56:09Z</time>
      </trkpt>
      <trkpt lat="46.17743" lon="2.48849">
        <ele>450</ele>
        <time>2015-04-08T15:56:11Z</time>
      </trkpt>
      <trkpt lat="46.17746" lon="2.48852">
        <ele>450</ele>
        <time>2015-04-08T15:56:13Z</time>
      </trkpt>
      <trkpt lat="46.17748" lon="2.48855">
        <ele>450</ele>
        <time>2015-04-08T15:56:15Z</time>
      </trkpt>
      <trkpt lat="46.1775" lon="2.48858">
        <ele>450</ele>
        <time>2015-04-08T15:56:17Z</time>
      </trkpt>
      <trkpt lat="46.17752" lon="2.4886">
        <ele>450</ele>
        <time>2015-04-08T15:56:19Z</time>
      </trkpt>
      <trkpt lat="46.17754" lon="2.48864">
        <ele>450</ele>
        <time>2015-04-08T15:56:21Z</time>
      </trkpt>
      <trkpt lat="46.17756" lon="2.48867">
        <ele>450</ele>
        <time>2015-04-08T15:56:23Z</time>
      </trkpt>
      <trkpt lat="46.17758" lon="2.4887">
        <ele>450</ele>
        <time>2015-04-08T15:56:25Z</time>
      </trkpt>
      <trkpt lat="46.1776" lon="2.48874">
        <ele>450</ele>
        <time>2015-04-08T15:56:27Z</time>
      </trkpt>
      <trkpt lat="46.17763" lon="2.48878">
        <ele>450</ele>
        <time>2015-04-08T15:56:29Z</time>
      </trkpt>
      <trkpt lat="46.17765" lon="2.48881">
        <ele>450</ele>
        <time>2015-04-08T15:56:31Z</time>
      </trkpt>
      <trkpt lat="46.17768" lon="2.48885">
        <ele>450</ele>
        <time>2015-04-08T15:56:34Z</time>
      </trkpt>
      <trkpt lat="46.17771" lon="2.48889">
        <ele>450</ele>
        <time>2015-04-08T15:56:36Z</time>
      </trkpt>
      <trkpt lat="46.17774" lon="2.48891">
        <ele>450</ele>
        <time>2015-04-08T15:56:38Z</time>
      </trkpt>
      <trkpt lat="46.17776" lon="2.48895">
        <ele>450</ele>
        <time>2015-04-08T15:56:41Z</time>
      </trkpt>
      <trkpt lat="46.17778" lon="2.489">
        <ele>450</ele>
        <time>2015-04-08T15:56:44Z</time>
      </trkpt>
      <trkpt lat="46.17778" lon="2.48903">
        <ele>450</ele>
        <time>2015-04-08T15:56:46Z</time>
      </trkpt>
      <trkpt lat="46.17779" lon="2.48908">
        <ele>450</ele>
        <time>2015-04-08T15:56:48Z</time>
      </trkpt>
      <trkpt lat="46.1778" lon="2.48912">
        <ele>450</ele>
        <time>2015-04-08T15:56:50Z</time>
      </trkpt>
      <trkpt lat="46.1778" lon="2.48917">
        <ele>450</ele>
        <time>2015-04-08T15:56:52Z</time>
      </trkpt>
      <trkpt lat="46.17781" lon="2.48921">
        <ele>450</ele>
        <time>2015-04-08T15:56:54Z</time>
      </trkpt>
      <trkpt lat="46.17781" lon="2.48926">
        <ele>450</ele>
        <time>2015-04-08T15:56:56Z</time>
      </trkpt>
      <trkpt lat="46.17782" lon="2.4893">
        <ele>450</ele>
        <time>2015-04-08T15:56:58Z</time>
      </trkpt>
      <trkpt lat="46.17782" lon="2.48935">
        <ele>450</ele>
        <time>2015-04-08T15:57:00Z</time>
      </trkpt>
      <trkpt lat="46.17782" lon="2.4894">
        <ele>450</ele>
        <time>2015-04-08T15:57:02Z</time>
      </trkpt>
      <trkpt lat="46.17781" lon="2.48944">
        <ele>450</ele>
        <time>2015-04-08T15:57:04Z</time>
      </trkpt>
      <trkpt lat="46.17782" lon="2.48949">
        <ele>450</ele>
        <time>2015-04-08T15:57:06Z</time>
      </trkpt>
      <trkpt lat="46.17783" lon="2.48953">
        <ele>450</ele>
        <time>2015-04-08T15:57:08Z</time>
      </trkpt>
      <trkpt lat="46.17784" lon="2.48958">
        <ele>450</ele>
        <time>2015-04-08T15:57:10Z</time>
      </trkpt>
      <trkpt lat="46.17784" lon="2.48962">
        <ele>450</ele>
        <time>2015-04-08T15:57:12Z</time>
      </trkpt>
      <trkpt lat="46.17785" lon="2.48967">
        <ele>450</ele>
        <time>2015-04-08T15:57:14Z</time>
      </trkpt>
      <trkpt lat="46.17787" lon="2.48971">
        <ele>450</ele>
        <time>2015-04-08T15:57:16Z</time>
      </trkpt>
      <trkpt lat="46.17788" lon="2.48975">
        <ele>450</ele>
        <time>2015-04-08T15:57:18Z</time>
      </trkpt>
      <trkpt lat="46.17789" lon="2.4898">
        <ele>450</ele>
        <time>2015-04-08T15:57:20Z</time>
      </trkpt>
      <trkpt lat="46.17789" lon="2.48984">
        <ele>450</ele>
        <time>2015-04-08T15:57:22Z</time>
      </trkpt>
      <trkpt lat="46.17791" lon="2.48988">
        <ele>450</ele>
        <time>2015-04-08T15:57:24Z</time>
      </trkpt>
      <trkpt lat="46.17793" lon="2.48991">
        <ele>450</ele>
        <time>2015-04-08T15:57:26Z</time>
      </trkpt>
      <trkpt lat="46.17795" lon="2.48994">
        <ele>450</ele>
        <time>2015-04-08T15:57:28Z</time>
      </trkpt>
      <trkpt lat="46.17797" lon="2.48997">
        <ele>450</ele>
        <time>2015-04-08T15:57:30Z</time>
      </trkpt>
      <trkpt lat="46.17799" lon="2.49">
        <ele>450</ele>
        <time>2015-04-08T15:57:32Z</time>
      </trkpt>
      <trkpt lat="46.17802" lon="2.49003">
        <ele>450</ele>
        <time>2015-04-08T15:57:34Z</time>
      </trkpt>
      <trkpt lat="46.17805" lon="2.49003">
        <ele>450</ele>
        <time>2015-04-08T15:57:36Z</time>
      </trkpt>
      <trkpt lat="46.17808" lon="2.49005">
        <ele>450</ele>
        <time>2015-04-08T15:57:38Z</time>
      </trkpt>
      <trkpt lat="46.17811" lon="2.49007">
        <ele>450</ele>
        <time>2015-04-08T15:57:40Z</time>
      </trkpt>
      <trkpt lat="46.17814" lon="2.49008">
        <ele>450</ele>
        <time>2015-04-08T15:57:42Z</time>
      </trkpt>
      <trkpt lat="46.17817" lon="2.4901">
        <ele>450</ele>
        <time>2015-04-08T15:57:44Z</time>
      </trkpt>
      <trkpt lat="46.1782" lon="2.49012">
        <ele>450</ele>
        <time>2015-04-08T15:57:46Z</time>
      </trkpt>
      <trkpt lat="46.17822" lon="2.49012">
        <ele>450</ele>
        <time>2015-04-08T15:57:48Z</time>
      </trkpt>
      <trkpt lat="46.17825" lon="2.49012">
        <ele>450</ele>
        <time>2015-04-08T15:57:50Z</time>
      </trkpt>
      <trkpt lat="46.17828" lon="2.49012">
        <ele>450</ele>
        <time>2015-04-08T15:57:52Z</time>
      </trkpt>
      <trkpt lat="46.17831" lon="2.49012">
        <ele>450</ele>
        <time>2015-04-08T15:57:54Z</time>
      </trkpt>
      <trkpt lat="46.17834" lon="2.49012">
        <ele>450</ele>
        <time>2015-04-08T15:57:56Z</time>
      </trkpt>
      <trkpt lat="46.17838" lon="2.49011">
        <ele>450</ele>
        <time>2015-04-08T15:57:58Z</time>
      </trkpt>
      <trkpt lat="46.1784" lon="2.4901">
        <ele>450</ele>
        <time>2015-04-08T15:58:00Z</time>
      </trkpt>
      <trkpt lat="46.17843" lon="2.49009">
        <ele>450</ele>
        <time>2015-04-08T15:58:02Z</time>
      </trkpt>
      <trkpt lat="46.17845" lon="2.49007">
        <ele>450</ele>
        <time>2015-04-08T15:58:04Z</time>
      </trkpt>
      <trkpt lat="46.17848" lon="2.49004">
        <ele>450</ele>
        <time>2015-04-08T15:58:06Z</time>
      </trkpt>
      <trkpt lat="46.1785" lon="2.49002">
        <ele>450</ele>
        <time>2015-04-08T15:58:08Z</time>
      </trkpt>
      <trkpt lat="46.17852" lon="2.49">
        <ele>449</ele>
        <time>2015-04-08T15:58:10Z</time>
      </trkpt>
      <trkpt lat="46.17854" lon="2.48997">
        <ele>449</ele>
        <time>2015-04-08T15:58:12Z</time>
      </trkpt>
      <trkpt lat="46.17856" lon="2.48994">
        <ele>449</ele>
        <time>2015-04-08T15:58:14Z</time>
      </trkpt>
      <trkpt lat="46.17859" lon="2.48991">
        <ele>449</ele>
        <time>2015-04-08T15:58:16Z</time>
      </trkpt>
      <trkpt lat="46.17861" lon="2.48989">
        <ele>449</ele>
        <time>2015-04-08T15:58:18Z</time>
      </trkpt>
      <trkpt lat="46.17863" lon="2.48986">
        <ele>449</ele>
        <time>2015-04-08T15:58:20Z</time>
      </trkpt>
      <trkpt lat="46.17864" lon="2.48983">
        <ele>449</ele>
        <time>2015-04-08T15:58:22Z</time>
      </trkpt>
      <trkpt lat="46.17866" lon="2.4898">
        <ele>449</ele>
        <time>2015-04-08T15:58:24Z</time>
      </trkpt>
      <trkpt lat="46.17868" lon="2.48977">
        <ele>449</ele>
        <time>2015-04-08T15:58:26Z</time>
      </trkpt>
      <trkpt lat="46.17869" lon="2.48973">
        <ele>449</ele>
        <time>2015-04-08T15:58:28Z</time>
      </trkpt>
      <trkpt lat="46.1787" lon="2.4897">
        <ele>449</ele>
        <time>2015-04-08T15:58:30Z</time>
      </trkpt>
      <trkpt lat="46.17871" lon="2.48966">
        <ele>449</ele>
        <time>2015-04-08T15:58:32Z</time>
      </trkpt>
      <trkpt lat="46.17871" lon="2.48963">
        <ele>449</ele>
        <time>2015-04-08T15:58:34Z</time>
      </trkpt>
      <trkpt lat="46.17871" lon="2.4896">
        <ele>449</ele>
        <time>2015-04-08T15:58:36Z</time>
      </trkpt>
      <trkpt lat="46.1787" lon="2.48957">
        <ele>449</ele>
        <time>2015-04-08T15:58:38Z</time>
      </trkpt>
      <trkpt lat="46.1787" lon="2.48954">
        <ele>449</ele>
        <time>2015-04-08T15:58:40Z</time>
      </trkpt>
      <trkpt lat="46.17869" lon="2.4895">
        <ele>449</ele>
        <time>2015-04-08T15:58:42Z</time>
      </trkpt>
      <trkpt lat="46.17869" lon="2.48946">
        <ele>449</ele>
        <time>2015-04-08T15:58:44Z</time>
      </trkpt>
      <trkpt lat="46.17868" lon="2.48943">
        <ele>449</ele>
        <time>2015-04-08T15:58:46Z</time>
      </trkpt>
      <trkpt lat="46.17867" lon="2.48939">
        <ele>449</ele>
        <time>2015-04-08T15:58:48Z</time>
      </trkpt>
      <trkpt lat="46.17866" lon="2.48936">
        <ele>449</ele>
        <time>2015-04-08T15:58:50Z</time>
      </trkpt>
      <trkpt lat="46.17866" lon="2.48933">
        <ele>449</ele>
        <time>2015-04-08T15:58:52Z</time>
      </trkpt>
      <trkpt lat="46.17866" lon="2.48929">
        <ele>449</ele>
        <time>2015-04-08T15:58:54Z</time>
      </trkpt>
      <trkpt lat="46.17866" lon="2.48926">
        <ele>449</ele>
        <time>2015-04-08T15:58:56Z</time>
      </trkpt>
      <trkpt lat="46.17866" lon="2.48922">
        <ele>449</ele>
        <time>2015-04-08T15:58:58Z</time>
      </trkpt>
      <trkpt lat="46.17867" lon="2.4892">
        <ele>449</ele>
        <time>2015-04-08T15:59:00Z</time>
      </trkpt>
      <trkpt lat="46.17865" lon="2.48918">
        <ele>449</ele>
        <time>2015-04-08T15:59:03Z</time>
      </trkpt>
      <trkpt lat="46.17866" lon="2.48916">
        <ele>449</ele>
        <time>2015-04-08T15:59:05Z</time>
      </trkpt>
      <trkpt lat="46.17868" lon="2.48914">
        <ele>449</ele>
        <time>2015-04-08T15:59:07Z</time>
      </trkpt>
      <trkpt lat="46.1787" lon="2.48912">
        <ele>449</ele>
        <time>2015-04-08T15:59:09Z</time>
      </trkpt>
      <trkpt lat="46.17872" lon="2.48911">
        <ele>449</ele>
        <time>2015-04-08T15:59:11Z</time>
      </trkpt>
      <trkpt lat="46.17873" lon="2.48908">
        <ele>449</ele>
        <time>2015-04-08T15:59:13Z</time>
      </trkpt>
      <trkpt lat="46.17874" lon="2.48906">
        <ele>449</ele>
        <time>2015-04-08T15:59:15Z</time>
      </trkpt>
      <trkpt lat="46.17874" lon="2.48905">
        <ele>449</ele>
        <time>2015-04-08T15:59:25Z</time>
      </trkpt>
      <trkpt lat="46.17873" lon="2.48905">
        <ele>449</ele>
        <time>2015-04-08T15:59:30Z</time>
      </trkpt>
      <trkpt lat="46.17873" lon="2.48903">
        <ele>451</ele>
        <time>2015-04-08T15:59:52Z</time>
      </trkpt>
      <trkpt lat="46.17873" lon="2.48902">
        <ele>451</ele>
        <time>2015-04-08T15:59:56Z</time>
      </trkpt>
      <trkpt lat="46.17874" lon="2.489">
        <ele>451</ele>
        <time>2015-04-08T16:00:08Z</time>
      </trkpt>
      <trkpt lat="46.17873" lon="2.48902">
        <ele>450</ele>
        <time>2015-04-08T16:00:51Z</time>
      </trkpt>
      <trkpt lat="46.17874" lon="2.48903">
        <ele>450</ele>
        <time>2015-04-08T16:00:55Z</time>
      </trkpt>
    </trkseg>
  </trk>
</gpx>